<?xml version='1.0' encoding='UTF-8'?><gpx version="1.1" creator="JPX - https://github.com/jenetics/jpx" xmlns="http://www.topografix.com/GPX/1/1"><trk><trkseg><trkpt lat="45.43581786753085" lon="8.62668383835699"><ele>155.0</ele><time>2026-04-06T12:42:56.997Z</time></trkpt><trkpt lat="45.43583504937123" lon="8.626579231090448"><ele>155.0</ele><time>2026-04-06T12:46:42.999Z</time></trkpt><trkpt lat="45.435852217967394" lon="8.626453081501612"><ele>155.0</ele><time>2026-04-06T12:46:44.999Z</time></trkpt><trkpt lat="45.43586558283305" lon="8.626332176126335"><ele>155.0</ele><time>2026-04-06T12:46:46.999Z</time></trkpt><trkpt lat="45.43588442155227" lon="8.62622823143304"><ele>155.0</ele><time>2026-04-06T12:46:48.999Z</time></trkpt><trkpt lat="45.43593002282709" lon="8.626120502076457"><ele>155.0</ele><time>2026-04-06T12:46:50.999Z</time></trkpt><trkpt lat="45.436008915970845" lon="8.626145082039875"><ele>155.0</ele><time>2026-04-06T12:46:53.999Z</time></trkpt><trkpt lat="45.436106092823536" lon="8.626180001854465"><ele>155.0</ele><time>2026-04-06T12:46:55.999Z</time></trkpt><trkpt lat="45.43622532814965" lon="8.626201884073632"><ele>155.0</ele><time>2026-04-06T12:46:57.999Z</time></trkpt><trkpt lat="45.43631052209152" lon="8.626230305082581"><ele>155.0</ele><time>2026-04-06T12:46:59.999Z</time></trkpt><trkpt lat="45.436381640819704" lon="8.626245498524403"><ele>155.0</ele><time>2026-04-06T12:47:28.999Z</time></trkpt><trkpt lat="45.43646452240996" lon="8.626262204684709"><ele>155.6</ele><time>2026-04-06T12:47:31.999Z</time></trkpt><trkpt lat="45.436467374544286" lon="8.626362551147833"><ele>156.2</ele><time>2026-04-06T12:47:32.999Z</time></trkpt><trkpt lat="45.43647077908355" lon="8.626500330023928"><ele>156.8</ele><time>2026-04-06T12:47:34.999Z</time></trkpt><trkpt lat="45.43647178804166" lon="8.626647781843062"><ele>157.4</ele><time>2026-04-06T12:47:36.999Z</time></trkpt><trkpt lat="45.43648247044736" lon="8.626801714350533"><ele>158.0</ele><time>2026-04-06T12:47:38.999Z</time></trkpt><trkpt lat="45.436487773325844" lon="8.62694528297788"><ele>158.0</ele><time>2026-04-06T12:47:40.999Z</time></trkpt><trkpt lat="45.43648972747348" lon="8.627099036239136"><ele>158.0</ele><time>2026-04-06T12:47:42.999Z</time></trkpt><trkpt lat="45.43648808883609" lon="8.627245716752673"><ele>158.0</ele><time>2026-04-06T12:47:44.999Z</time></trkpt><trkpt lat="45.43649135668284" lon="8.62739726119272"><ele>158.0</ele><time>2026-04-06T12:47:46.999Z</time></trkpt><trkpt lat="45.436490810707795" lon="8.627520707794021"><ele>158.0</ele><time>2026-04-06T12:47:48.999Z</time></trkpt><trkpt lat="45.436496212821595" lon="8.627610667714583"><ele>158.0</ele><time>2026-04-06T12:47:50.999Z</time></trkpt><trkpt lat="45.43648805487646" lon="8.627699949038544"><ele>158.0</ele><time>2026-04-06T12:47:59.999Z</time></trkpt><trkpt lat="45.43656870735773" lon="8.627743548117936"><ele>158.0</ele><time>2026-04-06T12:48:01.999Z</time></trkpt><trkpt lat="45.4366934613552" lon="8.62776588337997"><ele>158.0</ele><time>2026-04-06T12:48:03.999Z</time></trkpt><trkpt lat="45.43679828883447" lon="8.627783114569722"><ele>158.0</ele><time>2026-04-06T12:48:05.999Z</time></trkpt><trkpt lat="45.43691221803949" lon="8.627817340590456"><ele>157.6</ele><time>2026-04-06T12:48:07.999Z</time></trkpt><trkpt lat="45.43704054259333" lon="8.627821804612012"><ele>157.20000000000002</ele><time>2026-04-06T12:48:09.999Z</time></trkpt><trkpt lat="45.437106225917724" lon="8.627827790470542"><ele>156.8</ele><time>2026-04-06T12:48:10.999Z</time></trkpt><trkpt lat="45.43722468235986" lon="8.627849821668732"><ele>156.4</ele><time>2026-04-06T12:48:12.999Z</time></trkpt><trkpt lat="45.43731302758379" lon="8.627882129671042"><ele>156.0</ele><time>2026-04-06T12:48:14.999Z</time></trkpt><trkpt lat="45.43739920159302" lon="8.627928566479286"><ele>156.0</ele><time>2026-04-06T12:48:16.999Z</time></trkpt><trkpt lat="45.437505535009436" lon="8.627973030133317"><ele>156.0</ele><time>2026-04-06T12:48:18.999Z</time></trkpt><trkpt lat="45.43759584499204" lon="8.627917433967749"><ele>156.0</ele><time>2026-04-06T12:48:20.999Z</time></trkpt><trkpt lat="45.43764420129837" lon="8.627855437383188"><ele>156.0</ele><time>2026-04-06T12:48:21.999Z</time></trkpt><trkpt lat="45.43768833682523" lon="8.62777997943024"><ele>156.0</ele><time>2026-04-06T12:48:22.999Z</time></trkpt><trkpt lat="45.43773812552928" lon="8.627705695874598"><ele>156.0</ele><time>2026-04-06T12:48:23.999Z</time></trkpt><trkpt lat="45.437810965983466" lon="8.62765221917636"><ele>156.0</ele><time>2026-04-06T12:48:24.999Z</time></trkpt><trkpt lat="45.4378518788698" lon="8.627562403155471"><ele>156.0</ele><time>2026-04-06T12:48:25.999Z</time></trkpt><trkpt lat="45.43790609641816" lon="8.627488130999618"><ele>156.0</ele><time>2026-04-06T12:48:26.999Z</time></trkpt><trkpt lat="45.43795499870089" lon="8.627411633341087"><ele>156.0</ele><time>2026-04-06T12:48:27.999Z</time></trkpt><trkpt lat="45.438003428468015" lon="8.627336206504589"><ele>156.0</ele><time>2026-04-06T12:48:28.999Z</time></trkpt><trkpt lat="45.438053433901594" lon="8.627259529772262"><ele>156.0</ele><time>2026-04-06T12:48:29.999Z</time></trkpt><trkpt lat="45.438102085029975" lon="8.627177008245203"><ele>156.0</ele><time>2026-04-06T12:48:30.999Z</time></trkpt><trkpt lat="45.43815410614053" lon="8.627093961177692"><ele>156.0</ele><time>2026-04-06T12:48:31.999Z</time></trkpt><trkpt lat="45.438207460752906" lon="8.627014326352256"><ele>156.0</ele><time>2026-04-06T12:48:32.999Z</time></trkpt><trkpt lat="45.438263143913495" lon="8.626927623337249"><ele>156.0</ele><time>2026-04-06T12:48:33.999Z</time></trkpt><trkpt lat="45.438314905362375" lon="8.626849850454567"><ele>156.0</ele><time>2026-04-06T12:48:34.999Z</time></trkpt><trkpt lat="45.43836768846204" lon="8.626765881777995"><ele>156.0</ele><time>2026-04-06T12:48:35.999Z</time></trkpt><trkpt lat="45.43842118678463" lon="8.626690306209005"><ele>156.0</ele><time>2026-04-06T12:48:36.998Z</time></trkpt><trkpt lat="45.43847550905708" lon="8.626617318211647"><ele>156.33333333333334</ele><time>2026-04-06T12:48:37.998Z</time></trkpt><trkpt lat="45.438527469259334" lon="8.626533400044746"><ele>156.66666666666666</ele><time>2026-04-06T12:48:38.998Z</time></trkpt><trkpt lat="45.43858054014566" lon="8.626450693880605"><ele>157.0</ele><time>2026-04-06T12:48:39.998Z</time></trkpt><trkpt lat="45.43863149307781" lon="8.626365403090004"><ele>157.33333333333331</ele><time>2026-04-06T12:48:40.998Z</time></trkpt><trkpt lat="45.43868061364197" lon="8.626286362417014"><ele>157.66666666666666</ele><time>2026-04-06T12:48:41.998Z</time></trkpt><trkpt lat="45.43873469273467" lon="8.626200834737482"><ele>158.0</ele><time>2026-04-06T12:48:42.998Z</time></trkpt><trkpt lat="45.43878282248429" lon="8.626113875361504"><ele>157.4</ele><time>2026-04-06T12:48:43.998Z</time></trkpt><trkpt lat="45.438844616027744" lon="8.626052093759878"><ele>156.8</ele><time>2026-04-06T12:48:44.998Z</time></trkpt><trkpt lat="45.43889765456122" lon="8.625942294391542"><ele>156.2</ele><time>2026-04-06T12:48:45.998Z</time></trkpt><trkpt lat="45.43899914123486" lon="8.625863659250733"><ele>155.6</ele><time>2026-04-06T12:48:46.998Z</time></trkpt><trkpt lat="45.439079325327995" lon="8.625744777590945"><ele>155.0</ele><time>2026-04-06T12:48:47.999Z</time></trkpt><trkpt lat="45.439150401803914" lon="8.625609430345541"><ele>155.0</ele><time>2026-04-06T12:48:48.999Z</time></trkpt><trkpt lat="45.43923268571704" lon="8.62547702906276"><ele>155.0</ele><time>2026-04-06T12:48:49.999Z</time></trkpt><trkpt lat="45.439308137874164" lon="8.625354136921445"><ele>155.0</ele><time>2026-04-06T12:48:50.999Z</time></trkpt><trkpt lat="45.43939088125635" lon="8.625239389185355"><ele>155.0</ele><time>2026-04-06T12:48:51.999Z</time></trkpt><trkpt lat="45.43946974797264" lon="8.625122168809106"><ele>155.2</ele><time>2026-04-06T12:48:52.999Z</time></trkpt><trkpt lat="45.43954781443363" lon="8.624995291036186"><ele>155.4</ele><time>2026-04-06T12:48:53.999Z</time></trkpt><trkpt lat="45.43961621315746" lon="8.624884699933174"><ele>155.6</ele><time>2026-04-06T12:48:54.999Z</time></trkpt><trkpt lat="45.43968130851557" lon="8.624762518203962"><ele>155.8</ele><time>2026-04-06T12:48:55.999Z</time></trkpt><trkpt lat="45.439750478704745" lon="8.624671233816406"><ele>156.0</ele><time>2026-04-06T12:48:56.999Z</time></trkpt><trkpt lat="45.439815725578704" lon="8.624576238822716"><ele>156.0</ele><time>2026-04-06T12:48:57.999Z</time></trkpt><trkpt lat="45.43987701724362" lon="8.624484656470415"><ele>156.0</ele><time>2026-04-06T12:48:58.999Z</time></trkpt><trkpt lat="45.43994190990184" lon="8.624385713489813"><ele>156.0</ele><time>2026-04-06T12:48:59.999Z</time></trkpt><trkpt lat="45.440013837499556" lon="8.624301227549767"><ele>156.0</ele><time>2026-04-06T12:49:00.999Z</time></trkpt><trkpt lat="45.44010406885162" lon="8.624225396359261"><ele>156.0</ele><time>2026-04-06T12:49:01.999Z</time></trkpt><trkpt lat="45.440204676791154" lon="8.624146468866797"><ele>156.0</ele><time>2026-04-06T12:49:02.999Z</time></trkpt><trkpt lat="45.44030702668739" lon="8.624088915742734"><ele>156.0</ele><time>2026-04-06T12:49:03.999Z</time></trkpt><trkpt lat="45.44041538702818" lon="8.624036041053984"><ele>156.0</ele><time>2026-04-06T12:49:04.999Z</time></trkpt><trkpt lat="45.440525825366564" lon="8.623987966764776"><ele>156.0</ele><time>2026-04-06T12:49:05.999Z</time></trkpt><trkpt lat="45.44064275128722" lon="8.623942649591699"><ele>156.4</ele><time>2026-04-06T12:49:06.999Z</time></trkpt><trkpt lat="45.44074457126024" lon="8.62389933073633"><ele>156.8</ele><time>2026-04-06T12:49:07.999Z</time></trkpt><trkpt lat="45.440832239268886" lon="8.623860942180427"><ele>157.20000000000002</ele><time>2026-04-06T12:49:08.999Z</time></trkpt><trkpt lat="45.44090919640793" lon="8.623820152718682"><ele>157.6</ele><time>2026-04-06T12:49:09.999Z</time></trkpt><trkpt lat="45.4409850805355" lon="8.623787276042233"><ele>158.0</ele><time>2026-04-06T12:49:10.999Z</time></trkpt><trkpt lat="45.4410940147683" lon="8.623742542403907"><ele>158.00000000000003</ele><time>2026-04-06T12:49:12.999Z</time></trkpt><trkpt lat="45.441156221028294" lon="8.623715910607276"><ele>158.0</ele><time>2026-04-06T12:49:15.999Z</time></trkpt><trkpt lat="45.441223428834746" lon="8.623710013907028"><ele>158.0</ele><time>2026-04-06T12:49:47.999Z</time></trkpt><trkpt lat="45.44128709197979" lon="8.623690190653043"><ele>158.0</ele><time>2026-04-06T12:49:48.999Z</time></trkpt><trkpt lat="45.44135957583271" lon="8.62366762064657"><ele>158.0</ele><time>2026-04-06T12:49:49.999Z</time></trkpt><trkpt lat="45.44142646980051" lon="8.623622022252384"><ele>158.00000000000003</ele><time>2026-04-06T12:49:50.999Z</time></trkpt><trkpt lat="45.441504995444916" lon="8.623597931349389"><ele>158.0</ele><time>2026-04-06T12:49:51.999Z</time></trkpt><trkpt lat="45.441582969520226" lon="8.623568299853991"><ele>158.33333333333331</ele><time>2026-04-06T12:49:52.999Z</time></trkpt><trkpt lat="45.441667343054" lon="8.623532447027557"><ele>158.66666666666666</ele><time>2026-04-06T12:49:53.999Z</time></trkpt><trkpt lat="45.44174630961362" lon="8.623501501029198"><ele>159.0</ele><time>2026-04-06T12:49:54.999Z</time></trkpt><trkpt lat="45.441813958226476" lon="8.623478293338556"><ele>159.33333333333334</ele><time>2026-04-06T12:49:55.999Z</time></trkpt><trkpt lat="45.44187458416221" lon="8.623452408346413"><ele>159.66666666666669</ele><time>2026-04-06T12:49:56.999Z</time></trkpt><trkpt lat="45.441983190716584" lon="8.623412462856912"><ele>160.0</ele><time>2026-04-06T12:49:58.999Z</time></trkpt><trkpt lat="45.44200228320088" lon="8.623149627799505"><ele>160.0</ele><time>2026-04-06T12:50:00.999Z</time></trkpt><trkpt lat="45.44198941286473" lon="8.62302829795435"><ele>160.0</ele><time>2026-04-06T12:50:01.999Z</time></trkpt><trkpt lat="45.441962103254944" lon="8.622886933854652"><ele>160.0</ele><time>2026-04-06T12:50:02.999Z</time></trkpt><trkpt lat="45.44193803076394" lon="8.622746216497218"><ele>160.0</ele><time>2026-04-06T12:50:03.999Z</time></trkpt><trkpt lat="45.44192284720052" lon="8.622623185201562"><ele>160.0</ele><time>2026-04-06T12:50:04.999Z</time></trkpt><trkpt lat="45.441906408162126" lon="8.622500464345618"><ele>160.0</ele><time>2026-04-06T12:50:05.999Z</time></trkpt><trkpt lat="45.441891205950085" lon="8.622367188980103"><ele>160.0</ele><time>2026-04-06T12:50:06.999Z</time></trkpt><trkpt lat="45.441875146309926" lon="8.622225995288392"><ele>160.0</ele><time>2026-04-06T12:50:07.999Z</time></trkpt><trkpt lat="45.44185060432197" lon="8.622080634486142"><ele>160.0</ele><time>2026-04-06T12:50:08.999Z</time></trkpt><trkpt lat="45.44183105468026" lon="8.621933187922146"><ele>160.0</ele><time>2026-04-06T12:50:09.999Z</time></trkpt><trkpt lat="45.44181289631724" lon="8.62177965810823"><ele>160.0</ele><time>2026-04-06T12:50:10.999Z</time></trkpt><trkpt lat="45.441791688218245" lon="8.621624558953783"><ele>160.0</ele><time>2026-04-06T12:50:11.999Z</time></trkpt><trkpt lat="45.44177684507211" lon="8.621468966924631"><ele>160.0</ele><time>2026-04-06T12:50:12.999Z</time></trkpt><trkpt lat="45.441755200258264" lon="8.621309882428063"><ele>160.0</ele><time>2026-04-06T12:50:13.999Z</time></trkpt><trkpt lat="45.441729142587306" lon="8.621129407329866"><ele>160.5</ele><time>2026-04-06T12:50:14.999Z</time></trkpt><trkpt lat="45.4417035910945" lon="8.620935591402105"><ele>161.0</ele><time>2026-04-06T12:50:15.999Z</time></trkpt><trkpt lat="45.44168232875025" lon="8.620758983927551"><ele>161.5</ele><time>2026-04-06T12:50:16.999Z</time></trkpt><trkpt lat="45.44165919000859" lon="8.620595694555783"><ele>162.0</ele><time>2026-04-06T12:50:17.999Z</time></trkpt><trkpt lat="45.44164135714631" lon="8.620440396674475"><ele>161.6</ele><time>2026-04-06T12:50:18.999Z</time></trkpt><trkpt lat="45.44162047022302" lon="8.620290586828121"><ele>161.2</ele><time>2026-04-06T12:50:19.999Z</time></trkpt><trkpt lat="45.44160283002163" lon="8.620130778454888"><ele>160.8</ele><time>2026-04-06T12:50:20.999Z</time></trkpt><trkpt lat="45.44158496234067" lon="8.619972865418427"><ele>160.4</ele><time>2026-04-06T12:50:21.999Z</time></trkpt><trkpt lat="45.44156778324823" lon="8.619827462109127"><ele>160.0</ele><time>2026-04-06T12:50:22.999Z</time></trkpt><trkpt lat="45.441548319376714" lon="8.619697653120056"><ele>160.0</ele><time>2026-04-06T12:50:23.999Z</time></trkpt><trkpt lat="45.44152618054002" lon="8.619579121216322"><ele>160.0</ele><time>2026-04-06T12:50:24.999Z</time></trkpt><trkpt lat="45.441507856603" lon="8.619464392460447"><ele>160.0</ele><time>2026-04-06T12:50:25.999Z</time></trkpt><trkpt lat="45.44149456914146" lon="8.619362140858952"><ele>160.0</ele><time>2026-04-06T12:50:26.999Z</time></trkpt><trkpt lat="45.44146995343576" lon="8.619227564310675"><ele>160.0</ele><time>2026-04-06T12:50:28.999Z</time></trkpt><trkpt lat="45.44164532361782" lon="8.619152259911836"><ele>160.4</ele><time>2026-04-06T12:50:30.999Z</time></trkpt><trkpt lat="45.44173542116342" lon="8.619165426497373"><ele>160.8</ele><time>2026-04-06T12:50:31.999Z</time></trkpt><trkpt lat="45.44183999868733" lon="8.619163820027543"><ele>161.2</ele><time>2026-04-06T12:50:32.999Z</time></trkpt><trkpt lat="45.441936930343566" lon="8.61915303362924"><ele>161.6</ele><time>2026-04-06T12:50:33.999Z</time></trkpt><trkpt lat="45.442027463730334" lon="8.619142787355097"><ele>162.0</ele><time>2026-04-06T12:50:34.999Z</time></trkpt><trkpt lat="45.44211732697411" lon="8.61913316877635"><ele>162.16666666666666</ele><time>2026-04-06T12:50:35.999Z</time></trkpt><trkpt lat="45.442200975202965" lon="8.619123465235793"><ele>162.33333333333334</ele><time>2026-04-06T12:50:36.999Z</time></trkpt><trkpt lat="45.442280260062084" lon="8.619116758965639"><ele>162.5</ele><time>2026-04-06T12:50:37.999Z</time></trkpt><trkpt lat="45.44237137391142" lon="8.619110375853694"><ele>162.66666666666669</ele><time>2026-04-06T12:50:38.999Z</time></trkpt><trkpt lat="45.44246388653" lon="8.619104756451636"><ele>162.83333333333334</ele><time>2026-04-06T12:50:39.999Z</time></trkpt><trkpt lat="45.44256083256479" lon="8.619094692297315"><ele>163.0</ele><time>2026-04-06T12:50:40.999Z</time></trkpt><trkpt lat="45.44265195743255" lon="8.619081484074147"><ele>163.0</ele><time>2026-04-06T12:50:41.999Z</time></trkpt><trkpt lat="45.44274066349897" lon="8.619065525963414"><ele>163.0</ele><time>2026-04-06T12:50:42.999Z</time></trkpt><trkpt lat="45.442876455714504" lon="8.619050694861418"><ele>163.0</ele><time>2026-04-06T12:50:43.999Z</time></trkpt><trkpt lat="45.44299425233264" lon="8.619040907320617"><ele>163.0</ele><time>2026-04-06T12:50:44.999Z</time></trkpt><trkpt lat="45.443109700844104" lon="8.619035900519325"><ele>164.0</ele><time>2026-04-06T12:50:45.999Z</time></trkpt><trkpt lat="45.443221349097094" lon="8.619028108220737"><ele>165.0</ele><time>2026-04-06T12:50:46.999Z</time></trkpt><trkpt lat="45.44333028690269" lon="8.619018626129723"><ele>166.0</ele><time>2026-04-06T12:50:47.999Z</time></trkpt><trkpt lat="45.443437486492485" lon="8.619006418475815"><ele>167.0</ele><time>2026-04-06T12:50:48.999Z</time></trkpt><trkpt lat="45.443540401589495" lon="8.618998302361158"><ele>168.0</ele><time>2026-04-06T12:50:49.999Z</time></trkpt><trkpt lat="45.44364189108933" lon="8.618991141508499"><ele>168.0</ele><time>2026-04-06T12:50:50.999Z</time></trkpt><trkpt lat="45.44373630397623" lon="8.618981859811948"><ele>168.0</ele><time>2026-04-06T12:50:51.999Z</time></trkpt><trkpt lat="45.44382270358829" lon="8.618974021235674"><ele>168.0</ele><time>2026-04-06T12:50:52.999Z</time></trkpt><trkpt lat="45.44390590843052" lon="8.61897583789139"><ele>168.0</ele><time>2026-04-06T12:50:53.999Z</time></trkpt><trkpt lat="45.443984468540464" lon="8.619002591805275"><ele>168.0</ele><time>2026-04-06T12:50:54.999Z</time></trkpt><trkpt lat="45.44404735576563" lon="8.619016631923497"><ele>168.0</ele><time>2026-04-06T12:50:55.999Z</time></trkpt><trkpt lat="45.44410866459576" lon="8.619081245459448"><ele>167.5</ele><time>2026-04-06T12:50:56.999Z</time></trkpt><trkpt lat="45.44421852536896" lon="8.619021419609382"><ele>167.0</ele><time>2026-04-06T12:50:58.999Z</time></trkpt><trkpt lat="45.44425561996657" lon="8.618934448356157"><ele>166.5</ele><time>2026-04-06T12:50:59.999Z</time></trkpt><trkpt lat="45.44431694549179" lon="8.6188711853239"><ele>166.0</ele><time>2026-04-06T12:51:00.999Z</time></trkpt><trkpt lat="45.44437643571725" lon="8.61880494248771"><ele>165.5</ele><time>2026-04-06T12:51:01.999Z</time></trkpt><trkpt lat="45.44445790554188" lon="8.618815290813284"><ele>165.0</ele><time>2026-04-06T12:51:02.999Z</time></trkpt><trkpt lat="45.44455670371206" lon="8.61881679777135"><ele>164.83333333333334</ele><time>2026-04-06T12:51:03.999Z</time></trkpt><trkpt lat="45.44464532448711" lon="8.61881279278867"><ele>164.66666666666666</ele><time>2026-04-06T12:51:04.999Z</time></trkpt><trkpt lat="45.44472988783886" lon="8.618789835847712"><ele>164.5</ele><time>2026-04-06T12:51:05.999Z</time></trkpt><trkpt lat="45.444804433520616" lon="8.618786541734025"><ele>164.33333333333331</ele><time>2026-04-06T12:51:06.999Z</time></trkpt><trkpt lat="45.44487402880981" lon="8.618776609298783"><ele>164.16666666666666</ele><time>2026-04-06T12:51:07.999Z</time></trkpt><trkpt lat="45.444944762412895" lon="8.618751857507476"><ele>164.0</ele><time>2026-04-06T12:51:08.999Z</time></trkpt><trkpt lat="45.445015261763764" lon="8.618717660596031"><ele>164.0</ele><time>2026-04-06T12:51:09.999Z</time></trkpt><trkpt lat="45.44507257960809" lon="8.618663295885467"><ele>164.0</ele><time>2026-04-06T12:51:10.999Z</time></trkpt><trkpt lat="45.445122076073986" lon="8.618563017615712"><ele>164.0</ele><time>2026-04-06T12:51:11.999Z</time></trkpt><trkpt lat="45.44515102844118" lon="8.618428345467974"><ele>164.0</ele><time>2026-04-06T12:51:12.999Z</time></trkpt><trkpt lat="45.4451549808907" lon="8.618268382124347"><ele>164.0</ele><time>2026-04-06T12:51:13.999Z</time></trkpt><trkpt lat="45.4451530238858" lon="8.618095370514906"><ele>164.79999999999998</ele><time>2026-04-06T12:51:14.999Z</time></trkpt><trkpt lat="45.4451475448237" lon="8.617940843133905"><ele>165.6</ele><time>2026-04-06T12:51:15.999Z</time></trkpt><trkpt lat="45.44515483640223" lon="8.617795254118588"><ele>166.4</ele><time>2026-04-06T12:51:16.999Z</time></trkpt><trkpt lat="45.445173188452046" lon="8.617677874790122"><ele>167.2</ele><time>2026-04-06T12:51:17.999Z</time></trkpt><trkpt lat="45.44518710772008" lon="8.617533987624261"><ele>168.0</ele><time>2026-04-06T12:51:19.999Z</time></trkpt><trkpt lat="45.44519396059643" lon="8.617382676342054"><ele>168.0</ele><time>2026-04-06T12:51:21.999Z</time></trkpt><trkpt lat="45.44519828300285" lon="8.617212237570014"><ele>168.0</ele><time>2026-04-06T12:51:23.999Z</time></trkpt><trkpt lat="45.4451988068334" lon="8.617055270510795"><ele>168.0</ele><time>2026-04-06T12:51:25.999Z</time></trkpt><trkpt lat="45.445273588236695" lon="8.616956037525396"><ele>168.0</ele><time>2026-04-06T12:51:27.999Z</time></trkpt><trkpt lat="45.44534416019308" lon="8.616937208700243"><ele>168.0</ele><time>2026-04-06T12:51:28.999Z</time></trkpt><trkpt lat="45.44542307357514" lon="8.616935220176362"><ele>168.2</ele><time>2026-04-06T12:51:29.999Z</time></trkpt><trkpt lat="45.44551522269034" lon="8.616955989037509"><ele>168.4</ele><time>2026-04-06T12:51:30.999Z</time></trkpt><trkpt lat="45.445619322359335" lon="8.616956061216744"><ele>168.6</ele><time>2026-04-06T12:51:31.999Z</time></trkpt><trkpt lat="45.445718961674494" lon="8.61692742748628"><ele>168.79999999999998</ele><time>2026-04-06T12:51:32.999Z</time></trkpt><trkpt lat="45.44581096954916" lon="8.61692371905425"><ele>169.0</ele><time>2026-04-06T12:51:33.999Z</time></trkpt><trkpt lat="45.445899658414" lon="8.616906762630972"><ele>169.0</ele><time>2026-04-06T12:51:34.999Z</time></trkpt><trkpt lat="45.44598666938768" lon="8.616915803744105"><ele>169.0</ele><time>2026-04-06T12:51:35.999Z</time></trkpt><trkpt lat="45.44607006463872" lon="8.616883148327364"><ele>169.0</ele><time>2026-04-06T12:51:36.999Z</time></trkpt><trkpt lat="45.446159960640706" lon="8.616877837180924"><ele>169.0</ele><time>2026-04-06T12:51:37.999Z</time></trkpt><trkpt lat="45.446264381426495" lon="8.616886792636397"><ele>169.0</ele><time>2026-04-06T12:51:38.999Z</time></trkpt><trkpt lat="45.446349773166595" lon="8.61688279485559"><ele>168.2</ele><time>2026-04-06T12:51:39.999Z</time></trkpt><trkpt lat="45.4464309535497" lon="8.616878621550132"><ele>167.39999999999998</ele><time>2026-04-06T12:51:40.999Z</time></trkpt><trkpt lat="45.44650934722303" lon="8.616884122382494"><ele>166.6</ele><time>2026-04-06T12:51:42.999Z</time></trkpt><trkpt lat="45.446598735522784" lon="8.616858521767833"><ele>165.8</ele><time>2026-04-06T12:51:47.999Z</time></trkpt><trkpt lat="45.44672745276848" lon="8.616841517956864"><ele>165.0</ele><time>2026-04-06T12:51:49.999Z</time></trkpt><trkpt lat="45.446798091869645" lon="8.616845094475705"><ele>165.0</ele><time>2026-04-06T12:51:50.999Z</time></trkpt><trkpt lat="45.44691448371776" lon="8.616860146578938"><ele>165.0</ele><time>2026-04-06T12:51:52.999Z</time></trkpt><trkpt lat="45.44697937807465" lon="8.61686663910873"><ele>165.0</ele><time>2026-04-06T12:51:54.999Z</time></trkpt><trkpt lat="45.447014171567396" lon="8.616665678576261"><ele>165.0</ele><time>2026-04-06T12:51:55.999Z</time></trkpt><trkpt lat="45.44696420853561" lon="8.616581568374402"><ele>165.0</ele><time>2026-04-06T12:51:56.999Z</time></trkpt><trkpt lat="45.44692376708505" lon="8.616512068809788"><ele>165.0</ele><time>2026-04-06T12:51:57.999Z</time></trkpt><trkpt lat="45.446875889328176" lon="8.61643490196477"><ele>165.0</ele><time>2026-04-06T12:51:58.999Z</time></trkpt><trkpt lat="45.44682580373434" lon="8.616331390391252"><ele>165.0</ele><time>2026-04-06T12:51:59.999Z</time></trkpt><trkpt lat="45.44679460299534" lon="8.616197977834265"><ele>165.0</ele><time>2026-04-06T12:52:00.999Z</time></trkpt><trkpt lat="45.446787296222695" lon="8.61603748620519"><ele>165.0</ele><time>2026-04-06T12:52:01.999Z</time></trkpt><trkpt lat="45.446794321535826" lon="8.615855747594386"><ele>165.2</ele><time>2026-04-06T12:52:02.999Z</time></trkpt><trkpt lat="45.44680440219773" lon="8.615700382996272"><ele>165.4</ele><time>2026-04-06T12:52:03.999Z</time></trkpt><trkpt lat="45.44680734598595" lon="8.615562208057929"><ele>165.60000000000002</ele><time>2026-04-06T12:52:04.999Z</time></trkpt><trkpt lat="45.44680785755248" lon="8.615411278465764"><ele>165.8</ele><time>2026-04-06T12:52:05.999Z</time></trkpt><trkpt lat="45.44681161734287" lon="8.615264722571329"><ele>166.0</ele><time>2026-04-06T12:52:06.999Z</time></trkpt><trkpt lat="45.44681274419163" lon="8.61511447420163"><ele>166.0</ele><time>2026-04-06T12:52:07.999Z</time></trkpt><trkpt lat="45.44681380107458" lon="8.614975232208732"><ele>166.0</ele><time>2026-04-06T12:52:08.999Z</time></trkpt><trkpt lat="45.446812861029194" lon="8.614843612785577"><ele>166.0</ele><time>2026-04-06T12:52:09.999Z</time></trkpt><trkpt lat="45.44681547840689" lon="8.61471035585188"><ele>166.0</ele><time>2026-04-06T12:52:10.999Z</time></trkpt><trkpt lat="45.44681943155176" lon="8.614583127474145"><ele>166.0</ele><time>2026-04-06T12:52:11.999Z</time></trkpt><trkpt lat="45.44682049205484" lon="8.6144664713693"><ele>166.0</ele><time>2026-04-06T12:52:12.999Z</time></trkpt><trkpt lat="45.44682396218966" lon="8.614349860918084"><ele>166.0</ele><time>2026-04-06T12:52:13.999Z</time></trkpt><trkpt lat="45.44682897316553" lon="8.614245154669876"><ele>166.0</ele><time>2026-04-06T12:52:14.999Z</time></trkpt><trkpt lat="45.44684936113784" lon="8.614097620932984"><ele>166.0</ele><time>2026-04-06T12:52:16.999Z</time></trkpt><trkpt lat="45.44693684758448" lon="8.614026214544062"><ele>166.0</ele><time>2026-04-06T12:52:18.999Z</time></trkpt><trkpt lat="45.44706954558156" lon="8.614093869596072"><ele>164.25</ele><time>2026-04-06T12:52:20.999Z</time></trkpt><trkpt lat="45.4471504551582" lon="8.614179346365606"><ele>162.5</ele><time>2026-04-06T12:52:21.999Z</time></trkpt><trkpt lat="45.44725319377615" lon="8.614273742630727"><ele>160.75</ele><time>2026-04-06T12:52:22.999Z</time></trkpt><trkpt lat="45.44736273170901" lon="8.614368940119071"><ele>159.0</ele><time>2026-04-06T12:52:23.999Z</time></trkpt><trkpt lat="45.447449657572044" lon="8.614450204413005"><ele>159.75</ele><time>2026-04-06T12:52:24.999Z</time></trkpt><trkpt lat="45.447547738729305" lon="8.614535537607438"><ele>160.5</ele><time>2026-04-06T12:52:25.999Z</time></trkpt><trkpt lat="45.44764358256421" lon="8.614620936780081"><ele>161.25</ele><time>2026-04-06T12:52:26.999Z</time></trkpt><trkpt lat="45.44774553562761" lon="8.614706869837741"><ele>162.0</ele><time>2026-04-06T12:52:27.999Z</time></trkpt><trkpt lat="45.44785080622504" lon="8.61480003186103"><ele>162.0</ele><time>2026-04-06T12:52:28.999Z</time></trkpt><trkpt lat="45.4479564639916" lon="8.614893982061126"><ele>162.0</ele><time>2026-04-06T12:52:29.999Z</time></trkpt><trkpt lat="45.44806793458999" lon="8.614992774870261"><ele>162.0</ele><time>2026-04-06T12:52:30.999Z</time></trkpt><trkpt lat="45.448183775553375" lon="8.615090117117697"><ele>162.0</ele><time>2026-04-06T12:52:31.999Z</time></trkpt><trkpt lat="45.44829287547574" lon="8.615178502194984"><ele>160.75</ele><time>2026-04-06T12:52:32.999Z</time></trkpt><trkpt lat="45.44839929453851" lon="8.615269539424933"><ele>159.5</ele><time>2026-04-06T12:52:33.999Z</time></trkpt><trkpt lat="45.44851712221253" lon="8.615363216215723"><ele>158.25</ele><time>2026-04-06T12:52:34.999Z</time></trkpt><trkpt lat="45.448630709465704" lon="8.615464628574893"><ele>157.0</ele><time>2026-04-06T12:52:35.999Z</time></trkpt><trkpt lat="45.448751068831285" lon="8.61556336082304"><ele>157.0</ele><time>2026-04-06T12:52:36.999Z</time></trkpt><trkpt lat="45.44887767154319" lon="8.615662341783834"><ele>157.0</ele><time>2026-04-06T12:52:37.999Z</time></trkpt><trkpt lat="45.449011655944" lon="8.615773646192498"><ele>157.0</ele><time>2026-04-06T12:52:38.999Z</time></trkpt><trkpt lat="45.44915531640274" lon="8.615893753457133"><ele>157.0</ele><time>2026-04-06T12:52:39.999Z</time></trkpt><trkpt lat="45.449316674871504" lon="8.616033322670342"><ele>157.0</ele><time>2026-04-06T12:52:40.999Z</time></trkpt><trkpt lat="45.44948614854951" lon="8.61617707901153"><ele>157.0</ele><time>2026-04-06T12:52:41.999Z</time></trkpt><trkpt lat="45.44963544377404" lon="8.616304419287108"><ele>156.25</ele><time>2026-04-06T12:52:42.999Z</time></trkpt><trkpt lat="45.449765298332906" lon="8.616412427217014"><ele>155.5</ele><time>2026-04-06T12:52:43.999Z</time></trkpt><trkpt lat="45.449885482868176" lon="8.616510302174971"><ele>154.75</ele><time>2026-04-06T12:52:44.999Z</time></trkpt><trkpt lat="45.44999619027395" lon="8.616603956161288"><ele>154.0</ele><time>2026-04-06T12:52:45.999Z</time></trkpt><trkpt lat="45.450096965445624" lon="8.616693386418799"><ele>154.0</ele><time>2026-04-06T12:52:46.999Z</time></trkpt><trkpt lat="45.45019251261096" lon="8.616775051635"><ele>154.0</ele><time>2026-04-06T12:52:47.999Z</time></trkpt><trkpt lat="45.450285416120956" lon="8.616851533962532"><ele>154.0</ele><time>2026-04-06T12:52:48.999Z</time></trkpt><trkpt lat="45.450378868986036" lon="8.61692825725361"><ele>154.0</ele><time>2026-04-06T12:52:49.999Z</time></trkpt><trkpt lat="45.45046796090178" lon="8.617008419880554"><ele>154.0</ele><time>2026-04-06T12:52:50.999Z</time></trkpt><trkpt lat="45.45055705224215" lon="8.617088062497388"><ele>154.0</ele><time>2026-04-06T12:52:51.999Z</time></trkpt><trkpt lat="45.450644946369124" lon="8.61716731896911"><ele>154.0</ele><time>2026-04-06T12:52:52.999Z</time></trkpt><trkpt lat="45.450734932896296" lon="8.617243486123709"><ele>154.0</ele><time>2026-04-06T12:52:53.999Z</time></trkpt><trkpt lat="45.45081912284824" lon="8.617314391795155"><ele>154.0</ele><time>2026-04-06T12:52:54.999Z</time></trkpt><trkpt lat="45.450903273783396" lon="8.6173891640581"><ele>154.0</ele><time>2026-04-06T12:52:55.999Z</time></trkpt><trkpt lat="45.45101607958162" lon="8.617482656436971"><ele>154.0</ele><time>2026-04-06T12:52:56.999Z</time></trkpt><trkpt lat="45.45113683619071" lon="8.61759361508121"><ele>154.0</ele><time>2026-04-06T12:52:57.999Z</time></trkpt><trkpt lat="45.45125007883716" lon="8.617685709031626"><ele>154.0</ele><time>2026-04-06T12:52:58.999Z</time></trkpt><trkpt lat="45.451351304282234" lon="8.617784225135402"><ele>154.0</ele><time>2026-04-06T12:52:59.998Z</time></trkpt><trkpt lat="45.45144694585509" lon="8.617866476797902"><ele>154.2</ele><time>2026-04-06T12:53:00.998Z</time></trkpt><trkpt lat="45.45154658372588" lon="8.617949868114044"><ele>154.4</ele><time>2026-04-06T12:53:01.998Z</time></trkpt><trkpt lat="45.45164495975118" lon="8.618027162415071"><ele>154.6</ele><time>2026-04-06T12:53:02.998Z</time></trkpt><trkpt lat="45.45173851475654" lon="8.618106161992685"><ele>154.8</ele><time>2026-04-06T12:53:03.998Z</time></trkpt><trkpt lat="45.45182601727258" lon="8.618180541934526"><ele>155.0</ele><time>2026-04-06T12:53:04.998Z</time></trkpt><trkpt lat="45.45192148865997" lon="8.618252526193324"><ele>155.0</ele><time>2026-04-06T12:53:05.998Z</time></trkpt><trkpt lat="45.452014574246626" lon="8.61833075365366"><ele>155.0</ele><time>2026-04-06T12:53:06.998Z</time></trkpt><trkpt lat="45.452111705221434" lon="8.618411725092715"><ele>155.0</ele><time>2026-04-06T12:53:07.998Z</time></trkpt><trkpt lat="45.45220859286886" lon="8.61849173738925"><ele>155.0</ele><time>2026-04-06T12:53:08.998Z</time></trkpt><trkpt lat="45.45229958236992" lon="8.618569122932223"><ele>155.0</ele><time>2026-04-06T12:53:09.998Z</time></trkpt><trkpt lat="45.4523891659443" lon="8.618654397950005"><ele>155.6</ele><time>2026-04-06T12:53:10.998Z</time></trkpt><trkpt lat="45.45247034795086" lon="8.618744614129225"><ele>156.2</ele><time>2026-04-06T12:53:11.998Z</time></trkpt><trkpt lat="45.45254951821715" lon="8.618858163082386"><ele>156.8</ele><time>2026-04-06T12:53:12.998Z</time></trkpt><trkpt lat="45.452617305505825" lon="8.618987407700846"><ele>157.4</ele><time>2026-04-06T12:53:13.998Z</time></trkpt><trkpt lat="45.452672511423344" lon="8.61913375975873"><ele>158.0</ele><time>2026-04-06T12:53:14.999Z</time></trkpt><trkpt lat="45.45271100740154" lon="8.619291474174366"><ele>158.0</ele><time>2026-04-06T12:53:15.999Z</time></trkpt><trkpt lat="45.45273458670554" lon="8.619448308163832"><ele>158.0</ele><time>2026-04-06T12:53:16.999Z</time></trkpt><trkpt lat="45.4527425821426" lon="8.619594016340473"><ele>158.0</ele><time>2026-04-06T12:53:17.999Z</time></trkpt><trkpt lat="45.45271495497495" lon="8.619765477392017"><ele>158.0</ele><time>2026-04-06T12:53:18.999Z</time></trkpt><trkpt lat="45.45267541972465" lon="8.61990980911496"><ele>158.0</ele><time>2026-04-06T12:53:19.999Z</time></trkpt><trkpt lat="45.452661239373995" lon="8.620023507869702"><ele>157.8</ele><time>2026-04-06T12:53:20.999Z</time></trkpt><trkpt lat="45.45264485848379" lon="8.620123741232575"><ele>157.60000000000002</ele><time>2026-04-06T12:53:22.999Z</time></trkpt><trkpt lat="45.45261326181976" lon="8.620212790195744"><ele>157.39999999999998</ele><time>2026-04-06T12:53:51.999Z</time></trkpt><trkpt lat="45.45259155705445" lon="8.620357471377616"><ele>157.2</ele><time>2026-04-06T12:53:53.999Z</time></trkpt><trkpt lat="45.45256658607879" lon="8.62051280891902"><ele>157.0</ele><time>2026-04-06T12:53:55.999Z</time></trkpt><trkpt lat="45.45268523982272" lon="8.620657884583906"><ele>157.0</ele><time>2026-04-06T12:53:58.999Z</time></trkpt><trkpt lat="45.45275171068141" lon="8.620661845612828"><ele>157.0</ele><time>2026-04-06T12:53:59.999Z</time></trkpt><trkpt lat="45.45279310663627" lon="8.620471169602174"><ele>157.0</ele><time>2026-04-06T12:54:00.999Z</time></trkpt><trkpt lat="45.45284509381352" lon="8.620404680415678"><ele>157.0</ele><time>2026-04-06T12:54:01.999Z</time></trkpt><trkpt lat="45.452895148595694" lon="8.62034595052031"><ele>157.0</ele><time>2026-04-06T12:54:02.999Z</time></trkpt><trkpt lat="45.452949511305114" lon="8.62028356441609"><ele>157.0</ele><time>2026-04-06T12:54:03.999Z</time></trkpt><trkpt lat="45.45300592110044" lon="8.620218106664456"><ele>156.5</ele><time>2026-04-06T12:54:04.999Z</time></trkpt><trkpt lat="45.45307182964577" lon="8.620151559355932"><ele>156.0</ele><time>2026-04-06T12:54:05.999Z</time></trkpt><trkpt lat="45.45314509318677" lon="8.620077545370313"><ele>155.5</ele><time>2026-04-06T12:54:06.999Z</time></trkpt><trkpt lat="45.45321530532669" lon="8.62000384951185"><ele>155.0</ele><time>2026-04-06T12:54:07.999Z</time></trkpt><trkpt lat="45.4532871252796" lon="8.619930373402095"><ele>154.5</ele><time>2026-04-06T12:54:08.999Z</time></trkpt><trkpt lat="45.45336212480906" lon="8.619853669319136"><ele>154.0</ele><time>2026-04-06T12:54:09.999Z</time></trkpt><trkpt lat="45.453438673685476" lon="8.619770606938724"><ele>154.0</ele><time>2026-04-06T12:54:10.999Z</time></trkpt><trkpt lat="45.45352411852773" lon="8.619679664442094"><ele>154.0</ele><time>2026-04-06T12:54:11.999Z</time></trkpt><trkpt lat="45.45361681358783" lon="8.619581956142632"><ele>154.0</ele><time>2026-04-06T12:54:12.999Z</time></trkpt><trkpt lat="45.45372668766207" lon="8.619492535702525"><ele>154.0</ele><time>2026-04-06T12:54:13.999Z</time></trkpt><trkpt lat="45.453826834133075" lon="8.619386972190922"><ele>153.5</ele><time>2026-04-06T12:54:14.999Z</time></trkpt><trkpt lat="45.453912709304056" lon="8.619267378057163"><ele>153.0</ele><time>2026-04-06T12:54:15.999Z</time></trkpt><trkpt lat="45.454006461161676" lon="8.61917802302047"><ele>152.5</ele><time>2026-04-06T12:54:16.999Z</time></trkpt><trkpt lat="45.45410437918691" lon="8.61909163987598"><ele>152.0</ele><time>2026-04-06T12:54:17.999Z</time></trkpt><trkpt lat="45.45418768793416" lon="8.619002209047073"><ele>152.0</ele><time>2026-04-06T12:54:18.999Z</time></trkpt><trkpt lat="45.45427239314517" lon="8.618901776928206"><ele>152.0</ele><time>2026-04-06T12:54:19.999Z</time></trkpt><trkpt lat="45.454345310255654" lon="8.618813927683037"><ele>152.0</ele><time>2026-04-06T12:54:20.999Z</time></trkpt><trkpt lat="45.454412410166206" lon="8.618742822250038"><ele>152.0</ele><time>2026-04-06T12:54:21.999Z</time></trkpt><trkpt lat="45.45447372546477" lon="8.618685854642747"><ele>152.0</ele><time>2026-04-06T12:54:22.999Z</time></trkpt><trkpt lat="45.45452683313359" lon="8.618635678674204"><ele>152.0</ele><time>2026-04-06T12:54:23.999Z</time></trkpt><trkpt lat="45.45461557282285" lon="8.618539350679649"><ele>152.0</ele><time>2026-04-06T12:54:25.999Z</time></trkpt><trkpt lat="45.45471528560204" lon="8.61843319642682"><ele>152.0</ele><time>2026-04-06T12:54:27.999Z</time></trkpt><trkpt lat="45.454810635778436" lon="8.618335685028354"><ele>152.0</ele><time>2026-04-06T12:54:29.999Z</time></trkpt><trkpt lat="45.45486697703968" lon="8.618278209136042"><ele>152.0</ele><time>2026-04-06T12:54:30.999Z</time></trkpt><trkpt lat="45.454929101111716" lon="8.618221797498027"><ele>152.0</ele><time>2026-04-06T12:54:31.999Z</time></trkpt><trkpt lat="45.45499226885079" lon="8.618169033078548"><ele>152.0</ele><time>2026-04-06T12:54:32.999Z</time></trkpt><trkpt lat="45.45506176193119" lon="8.618108004141856"><ele>152.0</ele><time>2026-04-06T12:54:33.999Z</time></trkpt><trkpt lat="45.45513212966097" lon="8.618048559404814"><ele>152.0</ele><time>2026-04-06T12:54:34.999Z</time></trkpt><trkpt lat="45.45520089965807" lon="8.617997193614"><ele>152.0</ele><time>2026-04-06T12:54:35.999Z</time></trkpt><trkpt lat="45.4552688724905" lon="8.61795838335209"><ele>152.0</ele><time>2026-04-06T12:54:36.999Z</time></trkpt><trkpt lat="45.45533545997882" lon="8.617921958693161"><ele>152.0</ele><time>2026-04-06T12:54:37.999Z</time></trkpt><trkpt lat="45.455399601165304" lon="8.617889747798971"><ele>152.0</ele><time>2026-04-06T12:54:38.999Z</time></trkpt><trkpt lat="45.455476335951175" lon="8.61785809668945"><ele>152.0</ele><time>2026-04-06T12:54:39.999Z</time></trkpt><trkpt lat="45.45557034118661" lon="8.617831379906992"><ele>152.0</ele><time>2026-04-06T12:54:40.999Z</time></trkpt><trkpt lat="45.455680067034216" lon="8.617808515513339"><ele>152.0</ele><time>2026-04-06T12:54:41.999Z</time></trkpt><trkpt lat="45.45577350573697" lon="8.617795365926257"><ele>152.0</ele><time>2026-04-06T12:54:42.999Z</time></trkpt><trkpt lat="45.45586268302957" lon="8.617772629327124"><ele>152.0</ele><time>2026-04-06T12:54:43.999Z</time></trkpt><trkpt lat="45.45595073469085" lon="8.617747070289997"><ele>152.0</ele><time>2026-04-06T12:54:44.999Z</time></trkpt><trkpt lat="45.45604227879128" lon="8.617719749684014"><ele>152.0</ele><time>2026-04-06T12:54:45.999Z</time></trkpt><trkpt lat="45.45614181299053" lon="8.617691846554653"><ele>152.0</ele><time>2026-04-06T12:54:46.999Z</time></trkpt><trkpt lat="45.4562479768503" lon="8.617669943337212"><ele>152.0</ele><time>2026-04-06T12:54:47.999Z</time></trkpt><trkpt lat="45.456355791836344" lon="8.617639784367277"><ele>152.2</ele><time>2026-04-06T12:54:48.999Z</time></trkpt><trkpt lat="45.45647315242441" lon="8.61760904906868"><ele>152.39999999999998</ele><time>2026-04-06T12:54:49.999Z</time></trkpt><trkpt lat="45.45658739353157" lon="8.61757710515216"><ele>152.60000000000002</ele><time>2026-04-06T12:54:50.999Z</time></trkpt><trkpt lat="45.45669339020895" lon="8.617549783899644"><ele>152.8</ele><time>2026-04-06T12:54:51.999Z</time></trkpt><trkpt lat="45.4567939213994" lon="8.617520228994145"><ele>153.0</ele><time>2026-04-06T12:54:52.999Z</time></trkpt><trkpt lat="45.45689674065541" lon="8.617517471730132"><ele>153.0</ele><time>2026-04-06T12:54:53.999Z</time></trkpt><trkpt lat="45.45699379532211" lon="8.617492597546535"><ele>153.0</ele><time>2026-04-06T12:54:54.999Z</time></trkpt><trkpt lat="45.45708849680513" lon="8.617468326473725"><ele>153.0</ele><time>2026-04-06T12:54:55.999Z</time></trkpt><trkpt lat="45.45718139389267" lon="8.61744451783727"><ele>153.0</ele><time>2026-04-06T12:54:56.999Z</time></trkpt><trkpt lat="45.45727751945513" lon="8.61741988178059"><ele>153.0</ele><time>2026-04-06T12:54:57.999Z</time></trkpt><trkpt lat="45.45737461459594" lon="8.617394997228638"><ele>153.0</ele><time>2026-04-06T12:54:58.999Z</time></trkpt><trkpt lat="45.45747081308755" lon="8.61737091433438"><ele>153.0</ele><time>2026-04-06T12:54:59.999Z</time></trkpt><trkpt lat="45.45756751460436" lon="8.617346962149794"><ele>153.0</ele><time>2026-04-06T12:55:00.999Z</time></trkpt><trkpt lat="45.45766443320094" lon="8.617322956198844"><ele>153.0</ele><time>2026-04-06T12:55:01.999Z</time></trkpt><trkpt lat="45.457761930485134" lon="8.617298806908888"><ele>153.0</ele><time>2026-04-06T12:55:02.999Z</time></trkpt><trkpt lat="45.457859649544446" lon="8.61727460247008"><ele>152.6</ele><time>2026-04-06T12:55:03.999Z</time></trkpt><trkpt lat="45.457953225437684" lon="8.617250603808902"><ele>152.20000000000002</ele><time>2026-04-06T12:55:04.999Z</time></trkpt><trkpt lat="45.458045006237164" lon="8.617227426842947"><ele>151.8</ele><time>2026-04-06T12:55:05.999Z</time></trkpt><trkpt lat="45.45813414638789" lon="8.617204916701393"><ele>151.4</ele><time>2026-04-06T12:55:06.999Z</time></trkpt><trkpt lat="45.458223265412435" lon="8.617182375654025"><ele>151.0</ele><time>2026-04-06T12:55:07.999Z</time></trkpt><trkpt lat="45.458313402610436" lon="8.617158836772903"><ele>151.0</ele><time>2026-04-06T12:55:08.999Z</time></trkpt><trkpt lat="45.45840014822711" lon="8.617136183589839"><ele>151.0</ele><time>2026-04-06T12:55:09.999Z</time></trkpt><trkpt lat="45.45849000213346" lon="8.617112718687897"><ele>151.0</ele><time>2026-04-06T12:55:10.999Z</time></trkpt><trkpt lat="45.45857463127946" lon="8.61709061821206"><ele>151.0</ele><time>2026-04-06T12:55:11.999Z</time></trkpt><trkpt lat="45.45865943927499" lon="8.617068470980369"><ele>151.0</ele><time>2026-04-06T12:55:12.999Z</time></trkpt><trkpt lat="45.458760382993155" lon="8.617041408201864"><ele>151.4</ele><time>2026-04-06T12:55:13.999Z</time></trkpt><trkpt lat="45.45885798423636" lon="8.617015324630103"><ele>151.8</ele><time>2026-04-06T12:55:14.999Z</time></trkpt><trkpt lat="45.45895698364816" lon="8.616988867411102"><ele>152.20000000000002</ele><time>2026-04-06T12:55:15.999Z</time></trkpt><trkpt lat="45.45905735161984" lon="8.616962044262346"><ele>152.6</ele><time>2026-04-06T12:55:16.999Z</time></trkpt><trkpt lat="45.459150159477424" lon="8.616938375179535"><ele>153.0</ele><time>2026-04-06T12:55:17.999Z</time></trkpt><trkpt lat="45.45923378689564" lon="8.616916665440051"><ele>153.0</ele><time>2026-04-06T12:55:18.999Z</time></trkpt><trkpt lat="45.459319212556245" lon="8.616894488890859"><ele>153.0</ele><time>2026-04-06T12:55:19.999Z</time></trkpt><trkpt lat="45.459408521838746" lon="8.61687167852711"><ele>153.0</ele><time>2026-04-06T12:55:20.999Z</time></trkpt><trkpt lat="45.459497426844415" lon="8.61684900884874"><ele>153.0</ele><time>2026-04-06T12:55:21.999Z</time></trkpt><trkpt lat="45.459575308730685" lon="8.616829149914196"><ele>153.0</ele><time>2026-04-06T12:55:22.999Z</time></trkpt><trkpt lat="45.45965384372785" lon="8.616809124693194"><ele>153.0</ele><time>2026-04-06T12:55:23.999Z</time></trkpt><trkpt lat="45.45972730150827" lon="8.616788232036123"><ele>153.0</ele><time>2026-04-06T12:55:24.999Z</time></trkpt><trkpt lat="45.45978954696885" lon="8.61677065722955"><ele>153.0</ele><time>2026-04-06T12:55:25.999Z</time></trkpt><trkpt lat="45.459890644057694" lon="8.616742114593164"><ele>153.0</ele><time>2026-04-06T12:55:27.999Z</time></trkpt><trkpt lat="45.4599729972578" lon="8.61671886221567"><ele>153.0</ele><time>2026-04-06T12:55:30.999Z</time></trkpt><trkpt lat="45.46003653022106" lon="8.61668898484882"><ele>153.0</ele><time>2026-04-06T12:55:53.999Z</time></trkpt><trkpt lat="45.460121091890215" lon="8.616670897732291"><ele>153.0</ele><time>2026-04-06T12:55:55.999Z</time></trkpt><trkpt lat="45.46023335262514" lon="8.616644559930043"><ele>153.0</ele><time>2026-04-06T12:55:57.999Z</time></trkpt><trkpt lat="45.46029852821889" lon="8.616630591613834"><ele>153.0</ele><time>2026-04-06T12:55:58.999Z</time></trkpt><trkpt lat="45.460366652083195" lon="8.616620222566885"><ele>153.0</ele><time>2026-04-06T12:55:59.999Z</time></trkpt><trkpt lat="45.46044023949231" lon="8.616607545852498"><ele>153.0</ele><time>2026-04-06T12:56:00.999Z</time></trkpt><trkpt lat="45.46051395300859" lon="8.6165906666469"><ele>153.0</ele><time>2026-04-06T12:56:01.999Z</time></trkpt><trkpt lat="45.46059260261795" lon="8.616566009176637"><ele>153.0</ele><time>2026-04-06T12:56:02.999Z</time></trkpt><trkpt lat="45.46067513873911" lon="8.616540301800848"><ele>153.0</ele><time>2026-04-06T12:56:03.999Z</time></trkpt><trkpt lat="45.46076297549485" lon="8.616512265048868"><ele>153.20000000000002</ele><time>2026-04-06T12:56:04.999Z</time></trkpt><trkpt lat="45.46085441951146" lon="8.616486007719567"><ele>153.4</ele><time>2026-04-06T12:56:05.999Z</time></trkpt><trkpt lat="45.4609440841013" lon="8.61646555143639"><ele>153.60000000000002</ele><time>2026-04-06T12:56:06.999Z</time></trkpt><trkpt lat="45.46103336561798" lon="8.616440357709967"><ele>153.8</ele><time>2026-04-06T12:56:07.999Z</time></trkpt><trkpt lat="45.461130887842714" lon="8.616412422853964"><ele>154.0</ele><time>2026-04-06T12:56:08.999Z</time></trkpt><trkpt lat="45.461230299193026" lon="8.616411186085914"><ele>154.0</ele><time>2026-04-06T12:56:09.999Z</time></trkpt><trkpt lat="45.4613298972548" lon="8.61638608614362"><ele>154.0</ele><time>2026-04-06T12:56:10.999Z</time></trkpt><trkpt lat="45.461424984454624" lon="8.616339420586986"><ele>154.0</ele><time>2026-04-06T12:56:11.999Z</time></trkpt><trkpt lat="45.46152199386336" lon="8.616316335009245"><ele>154.0</ele><time>2026-04-06T12:56:12.999Z</time></trkpt><trkpt lat="45.4616213464602" lon="8.61628844955257"><ele>154.0</ele><time>2026-04-06T12:56:13.999Z</time></trkpt><trkpt lat="45.461724336915466" lon="8.616285557687648"><ele>154.0</ele><time>2026-04-06T12:56:14.999Z</time></trkpt><trkpt lat="45.46182373063758" lon="8.616260760080364"><ele>154.0</ele><time>2026-04-06T12:56:15.999Z</time></trkpt><trkpt lat="45.46191548571573" lon="8.61623768406276"><ele>154.0</ele><time>2026-04-06T12:56:16.999Z</time></trkpt><trkpt lat="45.46200801462036" lon="8.616214413430813"><ele>154.0</ele><time>2026-04-06T12:56:17.999Z</time></trkpt><trkpt lat="45.462110424154424" lon="8.616188657860603"><ele>154.0</ele><time>2026-04-06T12:56:18.999Z</time></trkpt><trkpt lat="45.462214790843305" lon="8.61616241000968"><ele>154.2</ele><time>2026-04-06T12:56:19.999Z</time></trkpt><trkpt lat="45.462319202552806" lon="8.616134850776639"><ele>154.4</ele><time>2026-04-06T12:56:20.999Z</time></trkpt><trkpt lat="45.46242137598549" lon="8.616108985844665"><ele>154.6</ele><time>2026-04-06T12:56:21.999Z</time></trkpt><trkpt lat="45.46251746540329" lon="8.616060550358396"><ele>154.8</ele><time>2026-04-06T12:56:22.999Z</time></trkpt><trkpt lat="45.462618461819865" lon="8.616033301445883"><ele>155.0</ele><time>2026-04-06T12:56:23.999Z</time></trkpt><trkpt lat="45.462723714762106" lon="8.616029249555016"><ele>155.0</ele><time>2026-04-06T12:56:24.999Z</time></trkpt><trkpt lat="45.46282220096527" lon="8.616003570908566"><ele>155.0</ele><time>2026-04-06T12:56:25.999Z</time></trkpt><trkpt lat="45.462922276787914" lon="8.615956833804967"><ele>155.0</ele><time>2026-04-06T12:56:26.999Z</time></trkpt><trkpt lat="45.463024388512224" lon="8.615929586276337"><ele>155.0</ele><time>2026-04-06T12:56:27.999Z</time></trkpt><trkpt lat="45.46312318756423" lon="8.615903288023384"><ele>155.0</ele><time>2026-04-06T12:56:28.999Z</time></trkpt><trkpt lat="45.46322009260936" lon="8.615877274749725"><ele>155.2</ele><time>2026-04-06T12:56:29.999Z</time></trkpt><trkpt lat="45.46332390453031" lon="8.615871917121897"><ele>155.4</ele><time>2026-04-06T12:56:30.999Z</time></trkpt><trkpt lat="45.46342333374868" lon="8.615845767542405"><ele>155.6</ele><time>2026-04-06T12:56:31.999Z</time></trkpt><trkpt lat="45.46352557107033" lon="8.615818934248908"><ele>155.8</ele><time>2026-04-06T12:56:32.999Z</time></trkpt><trkpt lat="45.463622869146974" lon="8.615794087459605"><ele>156.0</ele><time>2026-04-06T12:56:33.999Z</time></trkpt><trkpt lat="45.46372930391656" lon="8.615766907447947"><ele>156.0</ele><time>2026-04-06T12:56:34.999Z</time></trkpt><trkpt lat="45.46383795007061" lon="8.615739162724687"><ele>156.0</ele><time>2026-04-06T12:56:35.999Z</time></trkpt><trkpt lat="45.463948330006566" lon="8.61571097525013"><ele>156.0</ele><time>2026-04-06T12:56:36.999Z</time></trkpt><trkpt lat="45.464062310986634" lon="8.615662815760388"><ele>156.0</ele><time>2026-04-06T12:56:37.999Z</time></trkpt><trkpt lat="45.464183484827245" lon="8.615635841890214"><ele>156.0</ele><time>2026-04-06T12:56:38.999Z</time></trkpt><trkpt lat="45.46430743678968" lon="8.615599716363814"><ele>156.0</ele><time>2026-04-06T12:56:39.999Z</time></trkpt><trkpt lat="45.46443280826231" lon="8.61556373514546"><ele>156.0</ele><time>2026-04-06T12:56:40.999Z</time></trkpt><trkpt lat="45.464559549886985" lon="8.615555009776884"><ele>156.0</ele><time>2026-04-06T12:56:41.999Z</time></trkpt><trkpt lat="45.464683650756996" lon="8.615500929512752"><ele>155.5</ele><time>2026-04-06T12:56:42.999Z</time></trkpt><trkpt lat="45.46481246049759" lon="8.61547455223106"><ele>155.0</ele><time>2026-04-06T12:56:43.999Z</time></trkpt><trkpt lat="45.46494166052908" lon="8.615446835284327"><ele>154.5</ele><time>2026-04-06T12:56:44.999Z</time></trkpt><trkpt lat="45.465076251383486" lon="8.615414452156024"><ele>154.0</ele><time>2026-04-06T12:56:45.999Z</time></trkpt><trkpt lat="45.46520884559247" lon="8.615378329786493"><ele>154.0</ele><time>2026-04-06T12:56:46.999Z</time></trkpt><trkpt lat="45.46533820540501" lon="8.615345329490648"><ele>154.0</ele><time>2026-04-06T12:56:47.999Z</time></trkpt><trkpt lat="45.465461368457994" lon="8.615312927685068"><ele>154.0</ele><time>2026-04-06T12:56:48.999Z</time></trkpt><trkpt lat="45.46558550597844" lon="8.61528186375728"><ele>154.0</ele><time>2026-04-06T12:56:49.999Z</time></trkpt><trkpt lat="45.465708738605564" lon="8.61525358931261"><ele>154.0</ele><time>2026-04-06T12:56:50.999Z</time></trkpt><trkpt lat="45.4658307944405" lon="8.615224179580913"><ele>154.0</ele><time>2026-04-06T12:56:51.999Z</time></trkpt><trkpt lat="45.46594964731997" lon="8.615198136197245"><ele>154.0</ele><time>2026-04-06T12:56:52.999Z</time></trkpt><trkpt lat="45.46606983290447" lon="8.615172812946852"><ele>154.0</ele><time>2026-04-06T12:56:53.999Z</time></trkpt><trkpt lat="45.46619370158613" lon="8.615138336985884"><ele>154.5</ele><time>2026-04-06T12:56:54.999Z</time></trkpt><trkpt lat="45.46631997779001" lon="8.615101105289881"><ele>155.0</ele><time>2026-04-06T12:56:55.999Z</time></trkpt><trkpt lat="45.46645188952954" lon="8.615065662355187"><ele>155.5</ele><time>2026-04-06T12:56:56.999Z</time></trkpt><trkpt lat="45.46658159294634" lon="8.615032114147569"><ele>156.0</ele><time>2026-04-06T12:56:57.999Z</time></trkpt><trkpt lat="45.466712064111064" lon="8.615000561639526"><ele>156.0</ele><time>2026-04-06T12:56:58.999Z</time></trkpt><trkpt lat="45.4668413461305" lon="8.61497074485898"><ele>156.0</ele><time>2026-04-06T12:56:59.999Z</time></trkpt><trkpt lat="45.46697002295073" lon="8.61494052329682"><ele>156.0</ele><time>2026-04-06T12:57:00.999Z</time></trkpt><trkpt lat="45.46710518321289" lon="8.61490588436263"><ele>156.0</ele><time>2026-04-06T12:57:01.999Z</time></trkpt><trkpt lat="45.46724673040716" lon="8.614868147787414"><ele>156.0</ele><time>2026-04-06T12:57:02.999Z</time></trkpt><trkpt lat="45.46738362221856" lon="8.614831046272755"><ele>156.0</ele><time>2026-04-06T12:57:03.999Z</time></trkpt><trkpt lat="45.4675213090051" lon="8.614794927574156"><ele>156.0</ele><time>2026-04-06T12:57:04.999Z</time></trkpt><trkpt lat="45.4676556484191" lon="8.614760914593017"><ele>156.0</ele><time>2026-04-06T12:57:05.999Z</time></trkpt><trkpt lat="45.467775101851714" lon="8.61473193208648"><ele>156.0</ele><time>2026-04-06T12:57:06.999Z</time></trkpt><trkpt lat="45.46789208902481" lon="8.614703197751574"><ele>156.0</ele><time>2026-04-06T12:57:07.999Z</time></trkpt><trkpt lat="45.4680026054319" lon="8.614677451259501"><ele>156.0</ele><time>2026-04-06T12:57:08.999Z</time></trkpt><trkpt lat="45.46810088198109" lon="8.614655402516536"><ele>156.0</ele><time>2026-04-06T12:57:09.999Z</time></trkpt><trkpt lat="45.46817618904192" lon="8.614637384994724"><ele>156.0</ele><time>2026-04-06T12:57:10.999Z</time></trkpt><trkpt lat="45.468241883499616" lon="8.614621402897157"><ele>156.0</ele><time>2026-04-06T12:57:11.999Z</time></trkpt><trkpt lat="45.46835294177043" lon="8.614593860360996"><ele>156.0</ele><time>2026-04-06T12:57:13.999Z</time></trkpt><trkpt lat="45.46843710779287" lon="8.614569876970812"><ele>156.0</ele><time>2026-04-06T12:57:15.999Z</time></trkpt><trkpt lat="45.46850866074182" lon="8.614550156122554"><ele>156.0</ele><time>2026-04-06T12:57:17.999Z</time></trkpt><trkpt lat="45.46860139801651" lon="8.61453523636502"><ele>156.0</ele><time>2026-04-06T12:58:11.999Z</time></trkpt><trkpt lat="45.46866639786176" lon="8.614529907210335"><ele>156.0</ele><time>2026-04-06T12:58:12.999Z</time></trkpt><trkpt lat="45.468752115060894" lon="8.614520459622037"><ele>155.5</ele><time>2026-04-06T12:58:13.999Z</time></trkpt><trkpt lat="45.46885381408737" lon="8.61449785050755"><ele>155.0</ele><time>2026-04-06T12:58:14.999Z</time></trkpt><trkpt lat="45.468952908704715" lon="8.614467253172867"><ele>154.5</ele><time>2026-04-06T12:58:15.999Z</time></trkpt><trkpt lat="45.46907060877711" lon="8.614428542914451"><ele>154.0</ele><time>2026-04-06T12:58:16.999Z</time></trkpt><trkpt lat="45.46921221476295" lon="8.614388194091664"><ele>154.0</ele><time>2026-04-06T12:58:17.999Z</time></trkpt><trkpt lat="45.469353717059434" lon="8.614349144433454"><ele>154.0</ele><time>2026-04-06T12:58:18.999Z</time></trkpt><trkpt lat="45.46948427785512" lon="8.614313959805399"><ele>154.0</ele><time>2026-04-06T12:58:19.999Z</time></trkpt><trkpt lat="45.46961957948021" lon="8.61427850621325"><ele>154.0</ele><time>2026-04-06T12:58:20.999Z</time></trkpt><trkpt lat="45.46976958040966" lon="8.614238474090971"><ele>153.66666666666669</ele><time>2026-04-06T12:58:21.999Z</time></trkpt><trkpt lat="45.46992128047507" lon="8.614196515958163"><ele>153.33333333333334</ele><time>2026-04-06T12:58:22.999Z</time></trkpt><trkpt lat="45.47007044027606" lon="8.61415736221965"><ele>153.0</ele><time>2026-04-06T12:58:23.999Z</time></trkpt><trkpt lat="45.470212438774915" lon="8.614118370238312"><ele>153.0</ele><time>2026-04-06T12:58:24.999Z</time></trkpt><trkpt lat="45.47035353577341" lon="8.614078950877504"><ele>153.0</ele><time>2026-04-06T12:58:25.999Z</time></trkpt><trkpt lat="45.47049355691768" lon="8.614043700399442"><ele>153.0</ele><time>2026-04-06T12:58:26.999Z</time></trkpt><trkpt lat="45.47062732472969" lon="8.614004759218924"><ele>153.0</ele><time>2026-04-06T12:58:27.999Z</time></trkpt><trkpt lat="45.47076278421916" lon="8.613966469026645"><ele>153.5</ele><time>2026-04-06T12:58:28.999Z</time></trkpt><trkpt lat="45.470891481567214" lon="8.613927051277887"><ele>154.0</ele><time>2026-04-06T12:58:29.999Z</time></trkpt><trkpt lat="45.471021960481806" lon="8.613885986828672"><ele>154.5</ele><time>2026-04-06T12:58:30.999Z</time></trkpt><trkpt lat="45.47114855924814" lon="8.61384906331354"><ele>155.0</ele><time>2026-04-06T12:58:31.999Z</time></trkpt><trkpt lat="45.471281547580126" lon="8.613820519215997"><ele>155.25</ele><time>2026-04-06T12:58:32.999Z</time></trkpt><trkpt lat="45.47141831151374" lon="8.613788742102377"><ele>155.5</ele><time>2026-04-06T12:58:33.999Z</time></trkpt><trkpt lat="45.47155737339583" lon="8.613753686511966"><ele>155.75</ele><time>2026-04-06T12:58:34.999Z</time></trkpt><trkpt lat="45.47171193370008" lon="8.613720004634336"><ele>156.0</ele><time>2026-04-06T12:58:35.999Z</time></trkpt><trkpt lat="45.47186048880105" lon="8.613682836960725"><ele>156.0</ele><time>2026-04-06T12:58:36.999Z</time></trkpt><trkpt lat="45.47200933991855" lon="8.613639478128796"><ele>156.0</ele><time>2026-04-06T12:58:37.999Z</time></trkpt><trkpt lat="45.47216053005506" lon="8.613596335531128"><ele>156.0</ele><time>2026-04-06T12:58:38.999Z</time></trkpt><trkpt lat="45.472314874120656" lon="8.613550628660585"><ele>155.66666666666666</ele><time>2026-04-06T12:58:39.999Z</time></trkpt><trkpt lat="45.47248210595904" lon="8.613504551579382"><ele>155.33333333333331</ele><time>2026-04-06T12:58:40.999Z</time></trkpt><trkpt lat="45.472657518476616" lon="8.613456984320342"><ele>155.0</ele><time>2026-04-06T12:58:41.999Z</time></trkpt><trkpt lat="45.472844880331465" lon="8.613410194831056"><ele>155.0</ele><time>2026-04-06T12:58:42.999Z</time></trkpt><trkpt lat="45.473031182354475" lon="8.613357602963928"><ele>155.0</ele><time>2026-04-06T12:58:43.999Z</time></trkpt><trkpt lat="45.473209221007586" lon="8.613317027942937"><ele>155.0</ele><time>2026-04-06T12:58:44.999Z</time></trkpt><trkpt lat="45.47338038257083" lon="8.613274856810087"><ele>155.0</ele><time>2026-04-06T12:58:45.999Z</time></trkpt><trkpt lat="45.47354860932086" lon="8.613232867311542"><ele>155.0</ele><time>2026-04-06T12:58:46.999Z</time></trkpt><trkpt lat="45.47371837002613" lon="8.613190072914094"><ele>155.0</ele><time>2026-04-06T12:58:47.999Z</time></trkpt><trkpt lat="45.47388364980966" lon="8.613149881702036"><ele>155.33333333333331</ele><time>2026-04-06T12:58:48.999Z</time></trkpt><trkpt lat="45.47404227807658" lon="8.613109214367872"><ele>155.66666666666666</ele><time>2026-04-06T12:58:49.999Z</time></trkpt><trkpt lat="45.4742033392695" lon="8.613064935486298"><ele>156.0</ele><time>2026-04-06T12:58:50.999Z</time></trkpt><trkpt lat="45.47436904453719" lon="8.61302168237305"><ele>156.0</ele><time>2026-04-06T12:58:51.999Z</time></trkpt><trkpt lat="45.4745351172414" lon="8.612979100827555"><ele>156.0</ele><time>2026-04-06T12:58:52.999Z</time></trkpt><trkpt lat="45.4746991700545" lon="8.612938788634809"><ele>156.0</ele><time>2026-04-06T12:58:53.999Z</time></trkpt><trkpt lat="45.474859924258006" lon="8.612900310804408"><ele>156.0</ele><time>2026-04-06T12:58:54.999Z</time></trkpt><trkpt lat="45.47501944000083" lon="8.612860047069407"><ele>156.0</ele><time>2026-04-06T12:58:55.999Z</time></trkpt><trkpt lat="45.47517836208207" lon="8.612818931176934"><ele>156.0</ele><time>2026-04-06T12:58:56.999Z</time></trkpt><trkpt lat="45.4753307514098" lon="8.6127782515664"><ele>156.5</ele><time>2026-04-06T12:58:57.999Z</time></trkpt><trkpt lat="45.47547946127606" lon="8.612736616214562"><ele>157.0</ele><time>2026-04-06T12:58:58.999Z</time></trkpt><trkpt lat="45.47562164705275" lon="8.612694017566081"><ele>157.5</ele><time>2026-04-06T12:58:59.999Z</time></trkpt><trkpt lat="45.47576713014213" lon="8.612653941175827"><ele>158.0</ele><time>2026-04-06T12:59:00.999Z</time></trkpt><trkpt lat="45.4759110810932" lon="8.612614389894757"><ele>158.0</ele><time>2026-04-06T12:59:01.999Z</time></trkpt><trkpt lat="45.47605402957968" lon="8.612576720551754"><ele>158.0</ele><time>2026-04-06T12:59:02.999Z</time></trkpt><trkpt lat="45.47618810361941" lon="8.612536988411279"><ele>158.0</ele><time>2026-04-06T12:59:03.999Z</time></trkpt><trkpt lat="45.47631242396633" lon="8.612500201507267"><ele>158.0</ele><time>2026-04-06T12:59:04.999Z</time></trkpt><trkpt lat="45.47643587475468" lon="8.612465672986554"><ele>158.0</ele><time>2026-04-06T12:59:05.999Z</time></trkpt><trkpt lat="45.47655590927815" lon="8.612424717260014"><ele>158.0</ele><time>2026-04-06T12:59:06.999Z</time></trkpt><trkpt lat="45.47668538669846" lon="8.612388052394698"><ele>158.0</ele><time>2026-04-06T12:59:07.999Z</time></trkpt><trkpt lat="45.476812085758866" lon="8.612355948027187"><ele>158.0</ele><time>2026-04-06T12:59:08.999Z</time></trkpt><trkpt lat="45.47693479460397" lon="8.612333486827911"><ele>158.0</ele><time>2026-04-06T12:59:09.999Z</time></trkpt><trkpt lat="45.477051439908" lon="8.612298597380876"><ele>158.0</ele><time>2026-04-06T12:59:10.999Z</time></trkpt><trkpt lat="45.47717060309529" lon="8.612257804436473"><ele>158.0</ele><time>2026-04-06T12:59:11.999Z</time></trkpt><trkpt lat="45.47729423521074" lon="8.612222180883538"><ele>158.0</ele><time>2026-04-06T12:59:12.999Z</time></trkpt><trkpt lat="45.47742376691551" lon="8.612185180933867"><ele>158.0</ele><time>2026-04-06T12:59:13.999Z</time></trkpt><trkpt lat="45.47756056357044" lon="8.612141751171032"><ele>158.0</ele><time>2026-04-06T12:59:14.999Z</time></trkpt><trkpt lat="45.47769751778912" lon="8.612095273073207"><ele>158.0</ele><time>2026-04-06T12:59:15.999Z</time></trkpt><trkpt lat="45.4778292848064" lon="8.612053950088626"><ele>158.0</ele><time>2026-04-06T12:59:16.999Z</time></trkpt><trkpt lat="45.47795183145986" lon="8.612014216869078"><ele>158.25</ele><time>2026-04-06T12:59:17.999Z</time></trkpt><trkpt lat="45.47806628687447" lon="8.61197815435435"><ele>158.5</ele><time>2026-04-06T12:59:18.999Z</time></trkpt><trkpt lat="45.478173812018035" lon="8.611944721521674"><ele>158.75</ele><time>2026-04-06T12:59:19.999Z</time></trkpt><trkpt lat="45.478282898996156" lon="8.611909253882086"><ele>159.0</ele><time>2026-04-06T12:59:20.999Z</time></trkpt><trkpt lat="45.478391070521525" lon="8.61187411627889"><ele>159.0</ele><time>2026-04-06T12:59:21.999Z</time></trkpt><trkpt lat="45.47849351506367" lon="8.61184089313328"><ele>159.0</ele><time>2026-04-06T12:59:22.999Z</time></trkpt><trkpt lat="45.478596531514" lon="8.611808637664636"><ele>159.0</ele><time>2026-04-06T12:59:23.999Z</time></trkpt><trkpt lat="45.47870175005862" lon="8.611770351539402"><ele>159.0</ele><time>2026-04-06T12:59:24.999Z</time></trkpt><trkpt lat="45.47881025007105" lon="8.611731932229969"><ele>159.0</ele><time>2026-04-06T12:59:25.999Z</time></trkpt><trkpt lat="45.478919376868205" lon="8.611693871311425"><ele>159.0</ele><time>2026-04-06T12:59:26.999Z</time></trkpt><trkpt lat="45.479029466042505" lon="8.611656418548797"><ele>159.0</ele><time>2026-04-06T12:59:27.999Z</time></trkpt><trkpt lat="45.47913980424745" lon="8.611619551248507"><ele>159.0</ele><time>2026-04-06T12:59:28.999Z</time></trkpt><trkpt lat="45.47925537097856" lon="8.611582129111772"><ele>159.0</ele><time>2026-04-06T12:59:29.999Z</time></trkpt><trkpt lat="45.479374713205374" lon="8.611546676658856"><ele>159.0</ele><time>2026-04-06T12:59:30.999Z</time></trkpt><trkpt lat="45.47949609981654" lon="8.611509033393396"><ele>159.0</ele><time>2026-04-06T12:59:31.999Z</time></trkpt><trkpt lat="45.47961552012209" lon="8.611471247907312"><ele>159.0</ele><time>2026-04-06T12:59:32.999Z</time></trkpt><trkpt lat="45.47973837513704" lon="8.611434078531147"><ele>159.0</ele><time>2026-04-06T12:59:33.999Z</time></trkpt><trkpt lat="45.479862226707354" lon="8.611393139547955"><ele>159.0</ele><time>2026-04-06T12:59:34.999Z</time></trkpt><trkpt lat="45.479989012328055" lon="8.611353952562633"><ele>159.0</ele><time>2026-04-06T12:59:35.999Z</time></trkpt><trkpt lat="45.48011532020409" lon="8.611315386823732"><ele>159.0</ele><time>2026-04-06T12:59:36.999Z</time></trkpt><trkpt lat="45.48023923784376" lon="8.611274739419544"><ele>159.0</ele><time>2026-04-06T12:59:37.999Z</time></trkpt><trkpt lat="45.48036357892854" lon="8.611231636447075"><ele>159.25</ele><time>2026-04-06T12:59:38.999Z</time></trkpt><trkpt lat="45.4804827040378" lon="8.611191076329067"><ele>159.5</ele><time>2026-04-06T12:59:39.999Z</time></trkpt><trkpt lat="45.480620572856864" lon="8.61114257942935"><ele>159.75</ele><time>2026-04-06T12:59:40.999Z</time></trkpt><trkpt lat="45.480789428868135" lon="8.611085861184506"><ele>160.0</ele><time>2026-04-06T12:59:41.999Z</time></trkpt><trkpt lat="45.4809589327949" lon="8.61102690801606"><ele>160.0</ele><time>2026-04-06T12:59:42.999Z</time></trkpt><trkpt lat="45.48111913015764" lon="8.61096872298481"><ele>160.0</ele><time>2026-04-06T12:59:43.999Z</time></trkpt><trkpt lat="45.48127200312311" lon="8.610916614177999"><ele>160.0</ele><time>2026-04-06T12:59:44.999Z</time></trkpt><trkpt lat="45.481415742775006" lon="8.610867086515343"><ele>160.25</ele><time>2026-04-06T12:59:45.999Z</time></trkpt><trkpt lat="45.481556995454596" lon="8.610817855964568"><ele>160.5</ele><time>2026-04-06T12:59:46.999Z</time></trkpt><trkpt lat="45.48169630031157" lon="8.610767573621828"><ele>160.75</ele><time>2026-04-06T12:59:47.999Z</time></trkpt><trkpt lat="45.48183879540566" lon="8.610717174305119"><ele>161.0</ele><time>2026-04-06T12:59:48.999Z</time></trkpt><trkpt lat="45.481972253668076" lon="8.61066866517797"><ele>160.75</ele><time>2026-04-06T12:59:49.999Z</time></trkpt><trkpt lat="45.482101084363066" lon="8.61062627938739"><ele>160.5</ele><time>2026-04-06T12:59:50.999Z</time></trkpt><trkpt lat="45.48222509479661" lon="8.610582685266744"><ele>160.25</ele><time>2026-04-06T12:59:51.999Z</time></trkpt><trkpt lat="45.4823537744823" lon="8.610538477589914"><ele>160.0</ele><time>2026-04-06T12:59:52.999Z</time></trkpt><trkpt lat="45.48248685564881" lon="8.61049254556464"><ele>160.0</ele><time>2026-04-06T12:59:53.999Z</time></trkpt><trkpt lat="45.48262232031032" lon="8.610442962982551"><ele>160.0</ele><time>2026-04-06T12:59:54.999Z</time></trkpt><trkpt lat="45.482763298901936" lon="8.610395404349653"><ele>160.0</ele><time>2026-04-06T12:59:55.999Z</time></trkpt><trkpt lat="45.48291025537811" lon="8.610346871545685"><ele>160.0</ele><time>2026-04-06T12:59:56.999Z</time></trkpt><trkpt lat="45.483054767030936" lon="8.610302492497647"><ele>160.5</ele><time>2026-04-06T12:59:57.999Z</time></trkpt><trkpt lat="45.48319883394361" lon="8.610259903646755"><ele>161.0</ele><time>2026-04-06T12:59:58.999Z</time></trkpt><trkpt lat="45.483335150719086" lon="8.610214202270345"><ele>161.5</ele><time>2026-04-06T12:59:59.999Z</time></trkpt><trkpt lat="45.48347006757478" lon="8.610177037956777"><ele>162.0</ele><time>2026-04-06T13:00:00.999Z</time></trkpt><trkpt lat="45.483611200917174" lon="8.610130204950911"><ele>162.0</ele><time>2026-04-06T13:00:01.999Z</time></trkpt><trkpt lat="45.48376186893303" lon="8.610120216002478"><ele>162.0</ele><time>2026-04-06T13:00:02.999Z</time></trkpt><trkpt lat="45.48390271613814" lon="8.610090112817447"><ele>162.0</ele><time>2026-04-06T13:00:03.999Z</time></trkpt><trkpt lat="45.484044996669745" lon="8.610060865835367"><ele>162.0</ele><time>2026-04-06T13:00:04.999Z</time></trkpt><trkpt lat="45.48418158326909" lon="8.610034432841548"><ele>162.0</ele><time>2026-04-06T13:00:05.999Z</time></trkpt><trkpt lat="45.48431168517681" lon="8.610009800335064"><ele>162.0</ele><time>2026-04-06T13:00:06.999Z</time></trkpt><trkpt lat="45.48444584743422" lon="8.609966034430453"><ele>162.0</ele><time>2026-04-06T13:00:07.999Z</time></trkpt><trkpt lat="45.48457527776181" lon="8.609948905614923"><ele>162.0</ele><time>2026-04-06T13:00:08.999Z</time></trkpt><trkpt lat="45.48470517596654" lon="8.609924008392651"><ele>162.0</ele><time>2026-04-06T13:00:09.999Z</time></trkpt><trkpt lat="45.48483432423722" lon="8.609902303084814"><ele>162.0</ele><time>2026-04-06T13:00:10.999Z</time></trkpt><trkpt lat="45.484959492720826" lon="8.60988476231493"><ele>162.0</ele><time>2026-04-06T13:00:11.999Z</time></trkpt><trkpt lat="45.485080296791985" lon="8.609866652171261"><ele>162.0</ele><time>2026-04-06T13:00:12.999Z</time></trkpt><trkpt lat="45.48519966452309" lon="8.609850445626998"><ele>162.0</ele><time>2026-04-06T13:00:13.999Z</time></trkpt><trkpt lat="45.48532886274521" lon="8.609834483744509"><ele>162.0</ele><time>2026-04-06T13:00:14.999Z</time></trkpt><trkpt lat="45.48546206822782" lon="8.609823323899175"><ele>162.0</ele><time>2026-04-06T13:00:15.999Z</time></trkpt><trkpt lat="45.485593120708764" lon="8.609814225919777"><ele>162.0</ele><time>2026-04-06T13:00:16.999Z</time></trkpt><trkpt lat="45.48572264243854" lon="8.60979525308071"><ele>162.25</ele><time>2026-04-06T13:00:17.999Z</time></trkpt><trkpt lat="45.485855477709265" lon="8.60977292575436"><ele>162.5</ele><time>2026-04-06T13:00:18.999Z</time></trkpt><trkpt lat="45.48598897971535" lon="8.609752620606278"><ele>162.75</ele><time>2026-04-06T13:00:19.999Z</time></trkpt><trkpt lat="45.4861081250664" lon="8.609727573328028"><ele>163.0</ele><time>2026-04-06T13:00:20.999Z</time></trkpt><trkpt lat="45.48622787156787" lon="8.609712351890161"><ele>163.0</ele><time>2026-04-06T13:00:21.999Z</time></trkpt><trkpt lat="45.48635447910188" lon="8.6097059191674"><ele>163.0</ele><time>2026-04-06T13:00:22.999Z</time></trkpt><trkpt lat="45.486484738072356" lon="8.609691106436564"><ele>163.0</ele><time>2026-04-06T13:00:23.999Z</time></trkpt><trkpt lat="45.48660963758724" lon="8.609656004219781"><ele>163.0</ele><time>2026-04-06T13:00:24.999Z</time></trkpt><trkpt lat="45.48674733044219" lon="8.60963011132827"><ele>163.0</ele><time>2026-04-06T13:00:25.999Z</time></trkpt><trkpt lat="45.486883766427006" lon="8.609602634039721"><ele>163.0</ele><time>2026-04-06T13:00:26.999Z</time></trkpt><trkpt lat="45.487017111314046" lon="8.609574926210513"><ele>163.0</ele><time>2026-04-06T13:00:27.999Z</time></trkpt><trkpt lat="45.487150242204315" lon="8.609550220500118"><ele>163.0</ele><time>2026-04-06T13:00:28.999Z</time></trkpt><trkpt lat="45.487285351441756" lon="8.609523045289457"><ele>162.25</ele><time>2026-04-06T13:00:29.999Z</time></trkpt><trkpt lat="45.487429050819024" lon="8.60949358971099"><ele>161.5</ele><time>2026-04-06T13:00:30.999Z</time></trkpt><trkpt lat="45.48757374072886" lon="8.609466692143558"><ele>160.75</ele><time>2026-04-06T13:00:31.999Z</time></trkpt><trkpt lat="45.48772117550132" lon="8.609438679184953"><ele>160.0</ele><time>2026-04-06T13:00:32.999Z</time></trkpt><trkpt lat="45.487867595506174" lon="8.609411538372546"><ele>160.0</ele><time>2026-04-06T13:00:33.999Z</time></trkpt><trkpt lat="45.48801851563381" lon="8.60938438224519"><ele>160.0</ele><time>2026-04-06T13:00:34.999Z</time></trkpt><trkpt lat="45.488171799744485" lon="8.609351464966757"><ele>160.0</ele><time>2026-04-06T13:00:35.999Z</time></trkpt><trkpt lat="45.48832584042452" lon="8.609311591905634"><ele>160.0</ele><time>2026-04-06T13:00:36.999Z</time></trkpt><trkpt lat="45.4884819904305" lon="8.609271904720664"><ele>160.0</ele><time>2026-04-06T13:00:37.999Z</time></trkpt><trkpt lat="45.488650218090974" lon="8.609237114140623"><ele>160.0</ele><time>2026-04-06T13:00:38.999Z</time></trkpt><trkpt lat="45.48881579664369" lon="8.609207716113287"><ele>160.66666666666669</ele><time>2026-04-06T13:00:39.999Z</time></trkpt><trkpt lat="45.48897450410193" lon="8.609179684771151"><ele>161.33333333333334</ele><time>2026-04-06T13:00:40.999Z</time></trkpt><trkpt lat="45.489127613545804" lon="8.609143364664275"><ele>162.0</ele><time>2026-04-06T13:00:41.999Z</time></trkpt><trkpt lat="45.48927903281675" lon="8.609104671748723"><ele>162.0</ele><time>2026-04-06T13:00:42.999Z</time></trkpt><trkpt lat="45.48944207273717" lon="8.609062963356907"><ele>162.0</ele><time>2026-04-06T13:00:43.999Z</time></trkpt><trkpt lat="45.48960864805279" lon="8.609012133495943"><ele>162.0</ele><time>2026-04-06T13:00:44.999Z</time></trkpt><trkpt lat="45.48977804796509" lon="8.608955223149055"><ele>162.33333333333334</ele><time>2026-04-06T13:00:45.999Z</time></trkpt><trkpt lat="45.48995210007499" lon="8.608891660908998"><ele>162.66666666666669</ele><time>2026-04-06T13:00:46.999Z</time></trkpt><trkpt lat="45.49012527558266" lon="8.608824613860957"><ele>163.0</ele><time>2026-04-06T13:00:47.999Z</time></trkpt><trkpt lat="45.49029625150266" lon="8.608749115233511"><ele>163.0</ele><time>2026-04-06T13:00:48.999Z</time></trkpt><trkpt lat="45.49046910845177" lon="8.608665482204103"><ele>163.0</ele><time>2026-04-06T13:00:49.999Z</time></trkpt><trkpt lat="45.490640155807945" lon="8.608582727295"><ele>163.0</ele><time>2026-04-06T13:00:50.999Z</time></trkpt><trkpt lat="45.490808943553176" lon="8.60848690751052"><ele>162.66666666666669</ele><time>2026-04-06T13:00:51.999Z</time></trkpt><trkpt lat="45.49097168839952" lon="8.608390234886194"><ele>162.33333333333334</ele><time>2026-04-06T13:00:52.999Z</time></trkpt><trkpt lat="45.4911281271865" lon="8.608297949362942"><ele>162.0</ele><time>2026-04-06T13:00:53.999Z</time></trkpt><trkpt lat="45.49129425335162" lon="8.608203749542671"><ele>162.0</ele><time>2026-04-06T13:00:54.999Z</time></trkpt><trkpt lat="45.49146405268802" lon="8.608107960337097"><ele>162.0</ele><time>2026-04-06T13:00:55.999Z</time></trkpt><trkpt lat="45.49163792529906" lon="8.608005013347414"><ele>162.0</ele><time>2026-04-06T13:00:56.999Z</time></trkpt><trkpt lat="45.49181466455797" lon="8.607898930425877"><ele>162.0</ele><time>2026-04-06T13:00:57.999Z</time></trkpt><trkpt lat="45.492001391674634" lon="8.607792485338537"><ele>162.0</ele><time>2026-04-06T13:00:58.999Z</time></trkpt><trkpt lat="45.492183436397404" lon="8.607683098140333"><ele>162.0</ele><time>2026-04-06T13:00:59.999Z</time></trkpt><trkpt lat="45.4923862213488" lon="8.607564491944979"><ele>162.33333333333334</ele><time>2026-04-06T13:01:00.999Z</time></trkpt><trkpt lat="45.49257886228185" lon="8.607455799657055"><ele>162.66666666666669</ele><time>2026-04-06T13:01:01.999Z</time></trkpt><trkpt lat="45.492764325922536" lon="8.607345144918934"><ele>163.0</ele><time>2026-04-06T13:01:02.999Z</time></trkpt><trkpt lat="45.49295212827483" lon="8.607237665801753"><ele>163.33333333333334</ele><time>2026-04-06T13:01:03.999Z</time></trkpt><trkpt lat="45.4931385248524" lon="8.60712976844553"><ele>163.66666666666666</ele><time>2026-04-06T13:01:04.999Z</time></trkpt><trkpt lat="45.49331438058855" lon="8.607022238733265"><ele>164.0</ele><time>2026-04-06T13:01:05.999Z</time></trkpt><trkpt lat="45.49349060009593" lon="8.60691674894401"><ele>164.33333333333331</ele><time>2026-04-06T13:01:06.999Z</time></trkpt><trkpt lat="45.49367154892363" lon="8.606812644865093"><ele>164.66666666666666</ele><time>2026-04-06T13:01:07.999Z</time></trkpt><trkpt lat="45.49385311421436" lon="8.606711021801807"><ele>165.0</ele><time>2026-04-06T13:01:08.999Z</time></trkpt><trkpt lat="45.494035296953264" lon="8.606610576603272"><ele>165.0</ele><time>2026-04-06T13:01:09.999Z</time></trkpt><trkpt lat="45.494221681883076" lon="8.60650368276288"><ele>165.0</ele><time>2026-04-06T13:01:10.999Z</time></trkpt><trkpt lat="45.49441214637831" lon="8.606388611726155"><ele>165.0</ele><time>2026-04-06T13:01:11.999Z</time></trkpt><trkpt lat="45.49459557614258" lon="8.606276693452191"><ele>165.0</ele><time>2026-04-06T13:01:12.999Z</time></trkpt><trkpt lat="45.494770460362204" lon="8.60617342838284"><ele>165.0</ele><time>2026-04-06T13:01:13.999Z</time></trkpt><trkpt lat="45.49493596353193" lon="8.606077489738011"><ele>165.0</ele><time>2026-04-06T13:01:14.999Z</time></trkpt><trkpt lat="45.49509460102611" lon="8.605988781939315"><ele>165.33333333333334</ele><time>2026-04-06T13:01:15.999Z</time></trkpt><trkpt lat="45.495248109763025" lon="8.605901771129217"><ele>165.66666666666669</ele><time>2026-04-06T13:01:16.999Z</time></trkpt><trkpt lat="45.495400934331144" lon="8.605811584517884"><ele>166.0</ele><time>2026-04-06T13:01:17.999Z</time></trkpt><trkpt lat="45.49555343304273" lon="8.60571928680414"><ele>165.33333333333334</ele><time>2026-04-06T13:01:18.999Z</time></trkpt><trkpt lat="45.49571013100527" lon="8.605621787253666"><ele>164.66666666666666</ele><time>2026-04-06T13:01:19.999Z</time></trkpt><trkpt lat="45.49586000894905" lon="8.605525688369603"><ele>164.0</ele><time>2026-04-06T13:01:20.999Z</time></trkpt><trkpt lat="45.49600655017602" lon="8.605428641161438"><ele>164.0</ele><time>2026-04-06T13:01:21.999Z</time></trkpt><trkpt lat="45.49614804868737" lon="8.605330888446892"><ele>164.0</ele><time>2026-04-06T13:01:22.999Z</time></trkpt><trkpt lat="45.496290105737266" lon="8.6052606071278"><ele>164.0</ele><time>2026-04-06T13:01:23.998Z</time></trkpt><trkpt lat="45.49642657486014" lon="8.605181114291002"><ele>164.0</ele><time>2026-04-06T13:01:24.998Z</time></trkpt><trkpt lat="45.496547056921905" lon="8.605076752140276"><ele>164.0</ele><time>2026-04-06T13:01:25.998Z</time></trkpt><trkpt lat="45.496681288677" lon="8.605012641798083"><ele>164.0</ele><time>2026-04-06T13:01:26.998Z</time></trkpt><trkpt lat="45.49681858368467" lon="8.604960344460878"><ele>164.0</ele><time>2026-04-06T13:01:27.998Z</time></trkpt><trkpt lat="45.49694767476866" lon="8.60492063266969"><ele>164.0</ele><time>2026-04-06T13:01:28.998Z</time></trkpt><trkpt lat="45.49706841227153" lon="8.604879259410765"><ele>164.0</ele><time>2026-04-06T13:01:29.998Z</time></trkpt><trkpt lat="45.49717862253616" lon="8.604833007508358"><ele>164.0</ele><time>2026-04-06T13:01:30.998Z</time></trkpt><trkpt lat="45.49728042200377" lon="8.604789332913755"><ele>164.0</ele><time>2026-04-06T13:01:31.998Z</time></trkpt><trkpt lat="45.49737930197228" lon="8.604750612890916"><ele>164.0</ele><time>2026-04-06T13:01:32.999Z</time></trkpt><trkpt lat="45.497469988087936" lon="8.604713436126778"><ele>164.0</ele><time>2026-04-06T13:01:33.999Z</time></trkpt><trkpt lat="45.49757434171497" lon="8.60464920327435"><ele>164.0</ele><time>2026-04-06T13:01:34.999Z</time></trkpt><trkpt lat="45.49766438272121" lon="8.604619897912198"><ele>164.0</ele><time>2026-04-06T13:01:35.999Z</time></trkpt><trkpt lat="45.49775100418044" lon="8.604528460132531"><ele>164.0</ele><time>2026-04-06T13:01:36.999Z</time></trkpt><trkpt lat="45.497848661143905" lon="8.604439039712435"><ele>164.0</ele><time>2026-04-06T13:01:37.999Z</time></trkpt><trkpt lat="45.497962928384325" lon="8.60431463637366"><ele>164.0</ele><time>2026-04-06T13:01:38.999Z</time></trkpt><trkpt lat="45.49806714848737" lon="8.604192765387383"><ele>164.0</ele><time>2026-04-06T13:01:39.999Z</time></trkpt><trkpt lat="45.49818010508133" lon="8.604055429553114"><ele>164.0</ele><time>2026-04-06T13:01:40.999Z</time></trkpt><trkpt lat="45.498295483906546" lon="8.603908787516591"><ele>164.0</ele><time>2026-04-06T13:01:41.999Z</time></trkpt><trkpt lat="45.49840954538927" lon="8.603770364713322"><ele>164.25</ele><time>2026-04-06T13:01:42.999Z</time></trkpt><trkpt lat="45.49851328514758" lon="8.603647058480947"><ele>164.5</ele><time>2026-04-06T13:01:43.999Z</time></trkpt><trkpt lat="45.498621792415776" lon="8.60352465239051"><ele>164.75</ele><time>2026-04-06T13:01:44.999Z</time></trkpt><trkpt lat="45.4987410049704" lon="8.603401385109672"><ele>165.0</ele><time>2026-04-06T13:01:45.999Z</time></trkpt><trkpt lat="45.498866214350734" lon="8.603278482975757"><ele>165.5</ele><time>2026-04-06T13:01:46.999Z</time></trkpt><trkpt lat="45.49898991389209" lon="8.60316527148261"><ele>166.0</ele><time>2026-04-06T13:01:47.999Z</time></trkpt><trkpt lat="45.49911879510411" lon="8.603056010142806"><ele>166.5</ele><time>2026-04-06T13:01:48.999Z</time></trkpt><trkpt lat="45.499249986015215" lon="8.60295393545709"><ele>167.0</ele><time>2026-04-06T13:01:49.999Z</time></trkpt><trkpt lat="45.49938769094831" lon="8.60285485502971"><ele>166.66666666666666</ele><time>2026-04-06T13:01:50.999Z</time></trkpt><trkpt lat="45.49952082097972" lon="8.602756112361249"><ele>166.33333333333334</ele><time>2026-04-06T13:01:51.999Z</time></trkpt><trkpt lat="45.49965747568501" lon="8.602651775530978"><ele>166.0</ele><time>2026-04-06T13:01:52.999Z</time></trkpt><trkpt lat="45.49979780217386" lon="8.602538619025509"><ele>166.0</ele><time>2026-04-06T13:01:53.999Z</time></trkpt><trkpt lat="45.499938105099474" lon="8.602419981903815"><ele>166.0</ele><time>2026-04-06T13:01:54.999Z</time></trkpt><trkpt lat="45.50008216452295" lon="8.602302580529386"><ele>166.0</ele><time>2026-04-06T13:01:55.999Z</time></trkpt><trkpt lat="45.50023152895491" lon="8.602189052824748"><ele>166.0</ele><time>2026-04-06T13:01:56.999Z</time></trkpt><trkpt lat="45.50038388887028" lon="8.60207528702945"><ele>166.0</ele><time>2026-04-06T13:01:57.999Z</time></trkpt><trkpt lat="45.500534617980165" lon="8.601956746281772"><ele>166.0</ele><time>2026-04-06T13:01:58.999Z</time></trkpt><trkpt lat="45.5006893597881" lon="8.601833846658627"><ele>166.0</ele><time>2026-04-06T13:01:59.999Z</time></trkpt><trkpt lat="45.500849679264164" lon="8.601706142836607"><ele>166.0</ele><time>2026-04-06T13:02:00.999Z</time></trkpt><trkpt lat="45.501017382367664" lon="8.601574414728185"><ele>166.0</ele><time>2026-04-06T13:02:01.999Z</time></trkpt><trkpt lat="45.50118721653544" lon="8.601441131022526"><ele>166.33333333333334</ele><time>2026-04-06T13:02:02.999Z</time></trkpt><trkpt lat="45.50134710388096" lon="8.601317254971528"><ele>166.66666666666666</ele><time>2026-04-06T13:02:03.999Z</time></trkpt><trkpt lat="45.501496229739296" lon="8.601199378155888"><ele>167.0</ele><time>2026-04-06T13:02:04.999Z</time></trkpt><trkpt lat="45.501639539947206" lon="8.601082985234722"><ele>167.0</ele><time>2026-04-06T13:02:05.999Z</time></trkpt><trkpt lat="45.501782569613006" lon="8.600965711593803"><ele>167.0</ele><time>2026-04-06T13:02:06.999Z</time></trkpt><trkpt lat="45.50192151018802" lon="8.600852741952382"><ele>167.0</ele><time>2026-04-06T13:02:07.999Z</time></trkpt><trkpt lat="45.50206899179363" lon="8.600734320348478"><ele>166.66666666666666</ele><time>2026-04-06T13:02:08.999Z</time></trkpt><trkpt lat="45.50222168402641" lon="8.60061483751454"><ele>166.33333333333334</ele><time>2026-04-06T13:02:09.999Z</time></trkpt><trkpt lat="45.50237655406254" lon="8.600493425954152"><ele>166.0</ele><time>2026-04-06T13:02:10.999Z</time></trkpt><trkpt lat="45.502533322506864" lon="8.600368298051432"><ele>166.0</ele><time>2026-04-06T13:02:11.999Z</time></trkpt><trkpt lat="45.502694626385285" lon="8.600240643105769"><ele>166.0</ele><time>2026-04-06T13:02:12.999Z</time></trkpt><trkpt lat="45.50285994191934" lon="8.600112353348202"><ele>166.0</ele><time>2026-04-06T13:02:13.999Z</time></trkpt><trkpt lat="45.50302858788204" lon="8.599982309252281"><ele>166.33333333333334</ele><time>2026-04-06T13:02:14.999Z</time></trkpt><trkpt lat="45.50320018885455" lon="8.59984915217882"><ele>166.66666666666666</ele><time>2026-04-06T13:02:15.999Z</time></trkpt><trkpt lat="45.50337130797268" lon="8.5997156499559"><ele>167.0</ele><time>2026-04-06T13:02:16.999Z</time></trkpt><trkpt lat="45.50354284562868" lon="8.599584201146765"><ele>167.0</ele><time>2026-04-06T13:02:17.999Z</time></trkpt><trkpt lat="45.50371522692017" lon="8.59944916340755"><ele>167.0</ele><time>2026-04-06T13:02:18.999Z</time></trkpt><trkpt lat="45.503883761249824" lon="8.59931292276053"><ele>167.0</ele><time>2026-04-06T13:02:19.999Z</time></trkpt><trkpt lat="45.504055876252266" lon="8.599175346118514"><ele>167.66666666666666</ele><time>2026-04-06T13:02:20.999Z</time></trkpt><trkpt lat="45.50423137992171" lon="8.599039764330259"><ele>168.33333333333334</ele><time>2026-04-06T13:02:21.999Z</time></trkpt><trkpt lat="45.50439478845593" lon="8.59891398318259"><ele>169.0</ele><time>2026-04-06T13:02:22.999Z</time></trkpt><trkpt lat="45.504560740661056" lon="8.598782895369137"><ele>169.66666666666669</ele><time>2026-04-06T13:02:23.999Z</time></trkpt><trkpt lat="45.504728241294025" lon="8.598649679332405"><ele>170.33333333333334</ele><time>2026-04-06T13:02:24.999Z</time></trkpt><trkpt lat="45.50489694807445" lon="8.598513866522367"><ele>171.0</ele><time>2026-04-06T13:02:25.999Z</time></trkpt><trkpt lat="45.50506177727922" lon="8.598383792052898"><ele>171.0</ele><time>2026-04-06T13:02:26.999Z</time></trkpt><trkpt lat="45.50522708115931" lon="8.598250945198622"><ele>171.0</ele><time>2026-04-06T13:02:27.999Z</time></trkpt><trkpt lat="45.50539378425443" lon="8.598119381272207"><ele>171.0</ele><time>2026-04-06T13:02:28.999Z</time></trkpt><trkpt lat="45.50555670945887" lon="8.597990196320882"><ele>170.66666666666666</ele><time>2026-04-06T13:02:29.999Z</time></trkpt><trkpt lat="45.50572309704472" lon="8.597860048007336"><ele>170.33333333333331</ele><time>2026-04-06T13:02:30.999Z</time></trkpt><trkpt lat="45.50588497874379" lon="8.59773223528804"><ele>170.0</ele><time>2026-04-06T13:02:31.999Z</time></trkpt><trkpt lat="45.50605572303415" lon="8.597596796602572"><ele>170.0</ele><time>2026-04-06T13:02:32.999Z</time></trkpt><trkpt lat="45.50622378558376" lon="8.59746034821088"><ele>170.0</ele><time>2026-04-06T13:02:33.999Z</time></trkpt><trkpt lat="45.50639267318603" lon="8.59732349311139"><ele>170.0</ele><time>2026-04-06T13:02:34.999Z</time></trkpt><trkpt lat="45.50657198786567" lon="8.597186278918581"><ele>169.66666666666666</ele><time>2026-04-06T13:02:35.999Z</time></trkpt><trkpt lat="45.506744898302614" lon="8.597053232149417"><ele>169.33333333333334</ele><time>2026-04-06T13:02:36.999Z</time></trkpt><trkpt lat="45.50691908808198" lon="8.596915300370194"><ele>169.0</ele><time>2026-04-06T13:02:37.999Z</time></trkpt><trkpt lat="45.50709277911998" lon="8.59677558269429"><ele>170.0</ele><time>2026-04-06T13:02:38.999Z</time></trkpt><trkpt lat="45.507266252703616" lon="8.596640024716208"><ele>171.0</ele><time>2026-04-06T13:02:39.999Z</time></trkpt><trkpt lat="45.50743685141639" lon="8.596506796457415"><ele>172.0</ele><time>2026-04-06T13:02:40.999Z</time></trkpt><trkpt lat="45.507606842687345" lon="8.596369217905524"><ele>172.0</ele><time>2026-04-06T13:02:41.999Z</time></trkpt><trkpt lat="45.50778332865809" lon="8.59623178139822"><ele>172.0</ele><time>2026-04-06T13:02:42.999Z</time></trkpt><trkpt lat="45.507963242968835" lon="8.596090954845828"><ele>172.0</ele><time>2026-04-06T13:02:44Z</time></trkpt><trkpt lat="45.508134152352895" lon="8.595959712850169"><ele>172.0</ele><time>2026-04-06T13:02:45Z</time></trkpt><trkpt lat="45.508296352957856" lon="8.595832247727726"><ele>172.0</ele><time>2026-04-06T13:02:46Z</time></trkpt><trkpt lat="45.508458991663844" lon="8.595701435444456"><ele>172.0</ele><time>2026-04-06T13:02:47Z</time></trkpt><trkpt lat="45.50862080937664" lon="8.595570150730811"><ele>172.33333333333334</ele><time>2026-04-06T13:02:48Z</time></trkpt><trkpt lat="45.508778112883746" lon="8.595444334107293"><ele>172.66666666666666</ele><time>2026-04-06T13:02:49Z</time></trkpt><trkpt lat="45.50894070029338" lon="8.595318482057817"><ele>173.0</ele><time>2026-04-06T13:02:50Z</time></trkpt><trkpt lat="45.50910058901411" lon="8.595194497708563"><ele>173.0</ele><time>2026-04-06T13:02:51Z</time></trkpt><trkpt lat="45.509262801983205" lon="8.59506586069671"><ele>173.0</ele><time>2026-04-06T13:02:52Z</time></trkpt><trkpt lat="45.509417579599464" lon="8.59494256926526"><ele>173.0</ele><time>2026-04-06T13:02:53Z</time></trkpt><trkpt lat="45.509571458445485" lon="8.594819478563858"><ele>173.33333333333331</ele><time>2026-04-06T13:02:54Z</time></trkpt><trkpt lat="45.509727475114126" lon="8.594697514237772"><ele>173.66666666666666</ele><time>2026-04-06T13:02:55Z</time></trkpt><trkpt lat="45.50988359169363" lon="8.594578290533672"><ele>174.0</ele><time>2026-04-06T13:02:56Z</time></trkpt><trkpt lat="45.51003608850738" lon="8.5944634680618"><ele>174.0</ele><time>2026-04-06T13:02:57Z</time></trkpt><trkpt lat="45.510188503092955" lon="8.594346936780763"><ele>174.0</ele><time>2026-04-06T13:02:58Z</time></trkpt><trkpt lat="45.5103405511999" lon="8.594225905453836"><ele>174.0</ele><time>2026-04-06T13:02:59Z</time></trkpt><trkpt lat="45.51049057102027" lon="8.594105014661134"><ele>174.33333333333334</ele><time>2026-04-06T13:03:00Z</time></trkpt><trkpt lat="45.51064332263768" lon="8.593986822134157"><ele>174.66666666666669</ele><time>2026-04-06T13:03:01Z</time></trkpt><trkpt lat="45.510796721031845" lon="8.59389403938381"><ele>175.0</ele><time>2026-04-06T13:03:02Z</time></trkpt><trkpt lat="45.510955601535535" lon="8.593795749486683"><ele>175.0</ele><time>2026-04-06T13:03:03Z</time></trkpt><trkpt lat="45.51111637098671" lon="8.593706529262558"><ele>175.0</ele><time>2026-04-06T13:03:04Z</time></trkpt><trkpt lat="45.51127703291279" lon="8.593620055257976"><ele>175.0</ele><time>2026-04-06T13:03:05Z</time></trkpt><trkpt lat="45.51143771572648" lon="8.593530070180536"><ele>175.0</ele><time>2026-04-06T13:03:06Z</time></trkpt><trkpt lat="45.511593325478536" lon="8.593446348491591"><ele>175.0</ele><time>2026-04-06T13:03:07Z</time></trkpt><trkpt lat="45.51175130321639" lon="8.593362482044842"><ele>175.0</ele><time>2026-04-06T13:03:08Z</time></trkpt><trkpt lat="45.511913901988734" lon="8.593277105257611"><ele>175.0</ele><time>2026-04-06T13:03:09Z</time></trkpt><trkpt lat="45.512075114843675" lon="8.593193049902489"><ele>175.0</ele><time>2026-04-06T13:03:10Z</time></trkpt><trkpt lat="45.5122340411668" lon="8.593113420658149"><ele>175.0</ele><time>2026-04-06T13:03:11Z</time></trkpt><trkpt lat="45.51239329251897" lon="8.59303430147556"><ele>175.0</ele><time>2026-04-06T13:03:12Z</time></trkpt><trkpt lat="45.51255052455809" lon="8.59295448944702"><ele>175.0</ele><time>2026-04-06T13:03:13Z</time></trkpt><trkpt lat="45.51270923463219" lon="8.592873980030179"><ele>175.0</ele><time>2026-04-06T13:03:14Z</time></trkpt><trkpt lat="45.51285983886535" lon="8.592796294722298"><ele>175.33333333333334</ele><time>2026-04-06T13:03:15Z</time></trkpt><trkpt lat="45.513002429736254" lon="8.592718441857828"><ele>175.66666666666666</ele><time>2026-04-06T13:03:16Z</time></trkpt><trkpt lat="45.51314136992283" lon="8.59264033361893"><ele>176.0</ele><time>2026-04-06T13:03:17Z</time></trkpt><trkpt lat="45.51336141249732" lon="8.592534173485005"><ele>176.0</ele><time>2026-04-06T13:03:18Z</time></trkpt><trkpt lat="45.513522399108105" lon="8.592453838165797"><ele>176.0</ele><time>2026-04-06T13:03:19Z</time></trkpt><trkpt lat="45.51368091120916" lon="8.592370457917077"><ele>176.0</ele><time>2026-04-06T13:03:20Z</time></trkpt><trkpt lat="45.51383752227685" lon="8.59229572910718"><ele>176.0</ele><time>2026-04-06T13:03:21Z</time></trkpt><trkpt lat="45.51398715511283" lon="8.592226323971252"><ele>176.0</ele><time>2026-04-06T13:03:22Z</time></trkpt><trkpt lat="45.51413071652951" lon="8.592146887638954"><ele>176.0</ele><time>2026-04-06T13:03:23Z</time></trkpt><trkpt lat="45.514277859186784" lon="8.592072520143684"><ele>176.0</ele><time>2026-04-06T13:03:24Z</time></trkpt><trkpt lat="45.51442260108411" lon="8.591995182853465"><ele>176.0</ele><time>2026-04-06T13:03:25Z</time></trkpt><trkpt lat="45.51456756474248" lon="8.591917690753073"><ele>176.0</ele><time>2026-04-06T13:03:26Z</time></trkpt><trkpt lat="45.51471000118936" lon="8.591841133038681"><ele>176.0</ele><time>2026-04-06T13:03:27Z</time></trkpt><trkpt lat="45.51485247478946" lon="8.591772273391305"><ele>176.0</ele><time>2026-04-06T13:03:28Z</time></trkpt><trkpt lat="45.51499542854309" lon="8.591697451490079"><ele>176.0</ele><time>2026-04-06T13:03:29Z</time></trkpt><trkpt lat="45.51513795866313" lon="8.59162934688563"><ele>176.0</ele><time>2026-04-06T13:03:29.999Z</time></trkpt><trkpt lat="45.51528220449629" lon="8.591555266265871"><ele>176.0</ele><time>2026-04-06T13:03:30.999Z</time></trkpt><trkpt lat="45.515418754440695" lon="8.591486037445131"><ele>176.0</ele><time>2026-04-06T13:03:31.999Z</time></trkpt><trkpt lat="45.515556257346596" lon="8.591412854463693"><ele>176.0</ele><time>2026-04-06T13:03:32.999Z</time></trkpt><trkpt lat="45.515690156221034" lon="8.591347983982079"><ele>176.0</ele><time>2026-04-06T13:03:33.999Z</time></trkpt><trkpt lat="45.515829223963486" lon="8.591282598347219"><ele>176.0</ele><time>2026-04-06T13:03:34.999Z</time></trkpt><trkpt lat="45.51596823538558" lon="8.591212770402784"><ele>176.0</ele><time>2026-04-06T13:03:35.999Z</time></trkpt><trkpt lat="45.51609658092471" lon="8.591145111109949"><ele>176.0</ele><time>2026-04-06T13:03:36.999Z</time></trkpt><trkpt lat="45.51621194287155" lon="8.591078099172508"><ele>176.5</ele><time>2026-04-06T13:03:37.999Z</time></trkpt><trkpt lat="45.51632528916118" lon="8.591021091228649"><ele>177.0</ele><time>2026-04-06T13:03:38.999Z</time></trkpt><trkpt lat="45.51643209795936" lon="8.590971495347492"><ele>177.5</ele><time>2026-04-06T13:03:39.999Z</time></trkpt><trkpt lat="45.51654310841915" lon="8.590912981144422"><ele>178.0</ele><time>2026-04-06T13:03:40.999Z</time></trkpt><trkpt lat="45.51665017445882" lon="8.590855066235639"><ele>178.0</ele><time>2026-04-06T13:03:41.999Z</time></trkpt><trkpt lat="45.516757150228365" lon="8.590795605043803"><ele>178.0</ele><time>2026-04-06T13:03:42.999Z</time></trkpt><trkpt lat="45.51686217377844" lon="8.59073710875651"><ele>178.0</ele><time>2026-04-06T13:03:43.999Z</time></trkpt><trkpt lat="45.51696852432169" lon="8.59068529092019"><ele>178.0</ele><time>2026-04-06T13:03:44.999Z</time></trkpt><trkpt lat="45.51707530069661" lon="8.590633388375723"><ele>178.16666666666669</ele><time>2026-04-06T13:03:45.999Z</time></trkpt><trkpt lat="45.51717152357537" lon="8.590576047903378"><ele>178.33333333333334</ele><time>2026-04-06T13:03:46.999Z</time></trkpt><trkpt lat="45.517256045904446" lon="8.590528101266226"><ele>178.5</ele><time>2026-04-06T13:03:47.999Z</time></trkpt><trkpt lat="45.51732103053444" lon="8.590491241071241"><ele>178.66666666666666</ele><time>2026-04-06T13:03:48.999Z</time></trkpt><trkpt lat="45.51741219368005" lon="8.59044414837365"><ele>178.83333333333331</ele><time>2026-04-06T13:03:50.999Z</time></trkpt><trkpt lat="45.5174760491128" lon="8.590491769288256"><ele>179.0</ele><time>2026-04-06T13:03:52.999Z</time></trkpt><trkpt lat="45.517473814446554" lon="8.590661572399197"><ele>179.0</ele><time>2026-04-06T13:03:54.999Z</time></trkpt><trkpt lat="45.51749757358178" lon="8.590757528988759"><ele>179.0</ele><time>2026-04-06T13:03:55.999Z</time></trkpt><trkpt lat="45.51750742794297" lon="8.590849216225394"><ele>179.0</ele><time>2026-04-06T13:03:56.999Z</time></trkpt><trkpt lat="45.51751998476009" lon="8.590939364768762"><ele>179.0</ele><time>2026-04-06T13:03:57.999Z</time></trkpt><trkpt lat="45.5175367549936" lon="8.591105928059248"><ele>179.0</ele><time>2026-04-06T13:04:00Z</time></trkpt><trkpt lat="45.517550330328085" lon="8.59125763546806"><ele>179.0</ele><time>2026-04-06T13:04:02Z</time></trkpt><trkpt lat="45.5176303356375" lon="8.591330703565278"><ele>179.2</ele><time>2026-04-06T13:04:05Z</time></trkpt><trkpt lat="45.51772137538563" lon="8.59131683692848"><ele>179.39999999999998</ele><time>2026-04-06T13:04:07Z</time></trkpt><trkpt lat="45.51785236236801" lon="8.59131373100362"><ele>179.6</ele><time>2026-04-06T13:04:09Z</time></trkpt><trkpt lat="45.51791681752731" lon="8.591319991745229"><ele>179.8</ele><time>2026-04-06T13:04:10Z</time></trkpt><trkpt lat="45.51803250915525" lon="8.59132117111448"><ele>180.0</ele><time>2026-04-06T13:04:12Z</time></trkpt><trkpt lat="45.51812730296458" lon="8.591314257490867"><ele>179.4</ele><time>2026-04-06T13:04:14Z</time></trkpt><trkpt lat="45.51823324877504" lon="8.591313639210178"><ele>178.8</ele><time>2026-04-06T13:04:16Z</time></trkpt><trkpt lat="45.51833878685805" lon="8.591313525258563"><ele>178.2</ele><time>2026-04-06T13:04:18Z</time></trkpt><trkpt lat="45.518439540653446" lon="8.591333787274834"><ele>177.6</ele><time>2026-04-06T13:04:20Z</time></trkpt><trkpt lat="45.51851132778161" lon="8.591328410975528"><ele>177.0</ele><time>2026-04-06T13:04:22Z</time></trkpt><trkpt lat="45.51854434696513" lon="8.591484095763658"><ele>177.0</ele><time>2026-04-06T13:04:25Z</time></trkpt><trkpt lat="45.51855955020526" lon="8.591608174925579"><ele>177.0</ele><time>2026-04-06T13:04:27Z</time></trkpt><trkpt lat="45.51855175754268" lon="8.591754357944483"><ele>177.0</ele><time>2026-04-06T13:04:29Z</time></trkpt><trkpt lat="45.5185585722344" lon="8.591916922165591"><ele>177.0</ele><time>2026-04-06T13:04:31Z</time></trkpt><trkpt lat="45.518564922876585" lon="8.592070925961352"><ele>177.0</ele><time>2026-04-06T13:04:33Z</time></trkpt><trkpt lat="45.51857147592899" lon="8.592235786204366"><ele>176.83333333333334</ele><time>2026-04-06T13:04:35Z</time></trkpt><trkpt lat="45.51857521113513" lon="8.592336636779267"><ele>176.66666666666666</ele><time>2026-04-06T13:04:36Z</time></trkpt><trkpt lat="45.51857915525087" lon="8.592443757873706"><ele>176.5</ele><time>2026-04-06T13:04:37Z</time></trkpt><trkpt lat="45.51858354767399" lon="8.592563282290913"><ele>176.33333333333331</ele><time>2026-04-06T13:04:38Z</time></trkpt><trkpt lat="45.518588128136514" lon="8.592689064103528"><ele>176.16666666666666</ele><time>2026-04-06T13:04:39Z</time></trkpt><trkpt lat="45.518593247094266" lon="8.592832122458189"><ele>176.0</ele><time>2026-04-06T13:04:40Z</time></trkpt><trkpt lat="45.51859874387886" lon="8.59298573973704"><ele>175.8</ele><time>2026-04-06T13:04:41Z</time></trkpt><trkpt lat="45.51860398787901" lon="8.593132292599801"><ele>175.60000000000002</ele><time>2026-04-06T13:04:42Z</time></trkpt><trkpt lat="45.518624850956286" lon="8.593269648309287"><ele>175.4</ele><time>2026-04-06T13:04:43Z</time></trkpt><trkpt lat="45.518626976585956" lon="8.593401195735058"><ele>175.2</ele><time>2026-04-06T13:04:44Z</time></trkpt><trkpt lat="45.518632410181645" lon="8.593522446643112"><ele>175.0</ele><time>2026-04-06T13:04:45Z</time></trkpt><trkpt lat="45.51863777566232" lon="8.593633735935644"><ele>175.16666666666669</ele><time>2026-04-06T13:04:46Z</time></trkpt><trkpt lat="45.51863988028211" lon="8.593745238128019"><ele>175.33333333333334</ele><time>2026-04-06T13:04:47Z</time></trkpt><trkpt lat="45.518643085678804" lon="8.593852911422562"><ele>175.5</ele><time>2026-04-06T13:04:48Z</time></trkpt><trkpt lat="45.51864693728627" lon="8.593952362172928"><ele>175.66666666666666</ele><time>2026-04-06T13:04:49Z</time></trkpt><trkpt lat="45.518653786625734" lon="8.594046906506888"><ele>175.83333333333331</ele><time>2026-04-06T13:04:50Z</time></trkpt><trkpt lat="45.51865959480324" lon="8.594197858117319"><ele>176.0</ele><time>2026-04-06T13:04:52Z</time></trkpt><trkpt lat="45.51865982597133" lon="8.594294629482656"><ele>176.16666666666666</ele><time>2026-04-06T13:04:54Z</time></trkpt><trkpt lat="45.518755348242564" lon="8.594305694160774"><ele>176.33333333333331</ele><time>2026-04-06T13:04:56Z</time></trkpt><trkpt lat="45.51882873458616" lon="8.594255855633035"><ele>176.5</ele><time>2026-04-06T13:04:58Z</time></trkpt><trkpt lat="45.51890095571262" lon="8.594204187944415"><ele>176.66666666666666</ele><time>2026-04-06T13:05:00Z</time></trkpt><trkpt lat="45.518976760234644" lon="8.594170687897654"><ele>176.83333333333334</ele><time>2026-04-06T13:05:33Z</time></trkpt><trkpt lat="45.519077352744134" lon="8.594121112462599"><ele>177.0</ele><time>2026-04-06T13:05:34.999Z</time></trkpt><trkpt lat="45.51916496772514" lon="8.594082484578703"><ele>177.0</ele><time>2026-04-06T13:05:35.999Z</time></trkpt><trkpt lat="45.519255180485594" lon="8.594049875793884"><ele>177.0</ele><time>2026-04-06T13:05:36.999Z</time></trkpt><trkpt lat="45.51932786867358" lon="8.594017756607082"><ele>177.0</ele><time>2026-04-06T13:05:37.999Z</time></trkpt><trkpt lat="45.51939643977567" lon="8.593987880193602"><ele>177.0</ele><time>2026-04-06T13:05:38.999Z</time></trkpt><trkpt lat="45.51946115371496" lon="8.5939613257575"><ele>177.0</ele><time>2026-04-06T13:05:39.999Z</time></trkpt><trkpt lat="45.51952844128808" lon="8.593932323169675"><ele>177.0</ele><time>2026-04-06T13:05:40.999Z</time></trkpt><trkpt lat="45.51959648249839" lon="8.5939060157783"><ele>177.0</ele><time>2026-04-06T13:05:41.999Z</time></trkpt><trkpt lat="45.519665869465626" lon="8.593875620067768"><ele>176.66666666666666</ele><time>2026-04-06T13:05:42.999Z</time></trkpt><trkpt lat="45.51973737870147" lon="8.593847317618836"><ele>176.33333333333334</ele><time>2026-04-06T13:05:43.999Z</time></trkpt><trkpt lat="45.51981327901994" lon="8.593811877983974"><ele>176.0</ele><time>2026-04-06T13:05:44.999Z</time></trkpt><trkpt lat="45.51989016223414" lon="8.59377865032217"><ele>175.66666666666669</ele><time>2026-04-06T13:05:45.999Z</time></trkpt><trkpt lat="45.51996804076882" lon="8.593745873736038"><ele>175.33333333333334</ele><time>2026-04-06T13:05:46.999Z</time></trkpt><trkpt lat="45.5200481631618" lon="8.593710515903517"><ele>175.0</ele><time>2026-04-06T13:05:47.999Z</time></trkpt><trkpt lat="45.52012725179292" lon="8.593677437864065"><ele>175.16666666666669</ele><time>2026-04-06T13:05:48.999Z</time></trkpt><trkpt lat="45.520211189711056" lon="8.593644537934658"><ele>175.33333333333334</ele><time>2026-04-06T13:05:49.999Z</time></trkpt><trkpt lat="45.520293965059984" lon="8.59362797882785"><ele>175.5</ele><time>2026-04-06T13:05:50.999Z</time></trkpt><trkpt lat="45.520372520939894" lon="8.5935754707421"><ele>175.66666666666666</ele><time>2026-04-06T13:05:51.999Z</time></trkpt><trkpt lat="45.52044810420377" lon="8.593541437204262"><ele>175.83333333333331</ele><time>2026-04-06T13:05:52.999Z</time></trkpt><trkpt lat="45.52052450780549" lon="8.593510442458975"><ele>176.0</ele><time>2026-04-06T13:05:53.999Z</time></trkpt><trkpt lat="45.52060081111978" lon="8.593478986351935"><ele>176.0</ele><time>2026-04-06T13:05:54.999Z</time></trkpt><trkpt lat="45.5206805058688" lon="8.593446405471088"><ele>176.0</ele><time>2026-04-06T13:05:55.999Z</time></trkpt><trkpt lat="45.52075552223028" lon="8.59342120823856"><ele>176.0</ele><time>2026-04-06T13:05:56.999Z</time></trkpt><trkpt lat="45.520836110794505" lon="8.593385580707926"><ele>176.0</ele><time>2026-04-06T13:05:57.999Z</time></trkpt><trkpt lat="45.5209191337331" lon="8.593349958187895"><ele>176.0</ele><time>2026-04-06T13:05:58.999Z</time></trkpt><trkpt lat="45.52100344029904" lon="8.593315709211307"><ele>176.0</ele><time>2026-04-06T13:05:59.999Z</time></trkpt><trkpt lat="45.52109034797181" lon="8.593281935232842"><ele>176.0</ele><time>2026-04-06T13:06:01Z</time></trkpt><trkpt lat="45.521167846784664" lon="8.59325543319517"><ele>176.0</ele><time>2026-04-06T13:06:02Z</time></trkpt><trkpt lat="45.52124225990089" lon="8.593208448697895"><ele>176.0</ele><time>2026-04-06T13:06:03Z</time></trkpt><trkpt lat="45.5213184456944" lon="8.593178449494426"><ele>176.0</ele><time>2026-04-06T13:06:04Z</time></trkpt><trkpt lat="45.52139375498237" lon="8.593169834264195"><ele>176.0</ele><time>2026-04-06T13:06:05Z</time></trkpt><trkpt lat="45.52146548835013" lon="8.59314221598173"><ele>176.0</ele><time>2026-04-06T13:06:06Z</time></trkpt><trkpt lat="45.52154157954445" lon="8.593090861361686"><ele>176.0</ele><time>2026-04-06T13:06:07Z</time></trkpt><trkpt lat="45.521623407197474" lon="8.593058787014888"><ele>176.0</ele><time>2026-04-06T13:06:08Z</time></trkpt><trkpt lat="45.52170487003466" lon="8.593015923301085"><ele>176.0</ele><time>2026-04-06T13:06:09Z</time></trkpt><trkpt lat="45.52178258799211" lon="8.592974214976861"><ele>176.0</ele><time>2026-04-06T13:06:10Z</time></trkpt><trkpt lat="45.52185317637595" lon="8.592922766313572"><ele>176.0</ele><time>2026-04-06T13:06:11Z</time></trkpt><trkpt lat="45.52192864109454" lon="8.592876089897835"><ele>176.0</ele><time>2026-04-06T13:06:12Z</time></trkpt><trkpt lat="45.52200463871432" lon="8.592829607981976"><ele>176.33333333333331</ele><time>2026-04-06T13:06:13Z</time></trkpt><trkpt lat="45.52207469649339" lon="8.59278068533287"><ele>176.66666666666666</ele><time>2026-04-06T13:06:14Z</time></trkpt><trkpt lat="45.52214399122223" lon="8.592734829784845"><ele>177.0</ele><time>2026-04-06T13:06:15Z</time></trkpt><trkpt lat="45.52221722136619" lon="8.592674418441247"><ele>177.33333333333334</ele><time>2026-04-06T13:06:16Z</time></trkpt><trkpt lat="45.52229213849045" lon="8.592625222017903"><ele>177.66666666666669</ele><time>2026-04-06T13:06:17Z</time></trkpt><trkpt lat="45.52236371421682" lon="8.592583719738311"><ele>178.0</ele><time>2026-04-06T13:06:18Z</time></trkpt><trkpt lat="45.522437722480674" lon="8.592551912782794"><ele>178.0</ele><time>2026-04-06T13:06:19Z</time></trkpt><trkpt lat="45.52251772697953" lon="8.592525039894412"><ele>178.0</ele><time>2026-04-06T13:06:20Z</time></trkpt><trkpt lat="45.52259932746181" lon="8.59250649873528"><ele>178.0</ele><time>2026-04-06T13:06:21Z</time></trkpt><trkpt lat="45.522677984299484" lon="8.592498388293023"><ele>178.0</ele><time>2026-04-06T13:06:22Z</time></trkpt><trkpt lat="45.52277143868654" lon="8.592519880857308"><ele>178.0</ele><time>2026-04-06T13:06:23Z</time></trkpt><trkpt lat="45.52286755594966" lon="8.592499301202912"><ele>178.0</ele><time>2026-04-06T13:06:24Z</time></trkpt><trkpt lat="45.52296337206248" lon="8.592497017168215"><ele>178.0</ele><time>2026-04-06T13:06:25Z</time></trkpt><trkpt lat="45.523055303429416" lon="8.592498649747423"><ele>178.0</ele><time>2026-04-06T13:06:26Z</time></trkpt><trkpt lat="45.52314506092265" lon="8.592498225768933"><ele>178.0</ele><time>2026-04-06T13:06:27Z</time></trkpt><trkpt lat="45.523239182360506" lon="8.59249637144456"><ele>178.0</ele><time>2026-04-06T13:06:28Z</time></trkpt><trkpt lat="45.523341349430595" lon="8.592502363228053"><ele>178.0</ele><time>2026-04-06T13:06:29Z</time></trkpt><trkpt lat="45.52343442409629" lon="8.592515264188547"><ele>178.0</ele><time>2026-04-06T13:06:30Z</time></trkpt><trkpt lat="45.523522653376745" lon="8.592571287249362"><ele>178.0</ele><time>2026-04-06T13:06:31Z</time></trkpt><trkpt lat="45.52359864791005" lon="8.592623446109487"><ele>178.0</ele><time>2026-04-06T13:06:32Z</time></trkpt><trkpt lat="45.523676450273165" lon="8.592678695556975"><ele>178.0</ele><time>2026-04-06T13:06:33Z</time></trkpt><trkpt lat="45.523762258235024" lon="8.592742320300193"><ele>178.0</ele><time>2026-04-06T13:06:34Z</time></trkpt><trkpt lat="45.52386027851327" lon="8.592819701278989"><ele>177.75</ele><time>2026-04-06T13:06:35Z</time></trkpt><trkpt lat="45.52396807446358" lon="8.592910409034651"><ele>177.5</ele><time>2026-04-06T13:06:36Z</time></trkpt><trkpt lat="45.52407486463617" lon="8.592976385093394"><ele>177.25</ele><time>2026-04-06T13:06:37Z</time></trkpt><trkpt lat="45.52415934996299" lon="8.593054746660744"><ele>177.0</ele><time>2026-04-06T13:06:38Z</time></trkpt><trkpt lat="45.524256403228726" lon="8.593136942094205"><ele>177.0</ele><time>2026-04-06T13:06:39Z</time></trkpt><trkpt lat="45.524355907581416" lon="8.593229608882115"><ele>177.0</ele><time>2026-04-06T13:06:40Z</time></trkpt><trkpt lat="45.524454083821354" lon="8.593319981984118"><ele>177.0</ele><time>2026-04-06T13:06:41Z</time></trkpt><trkpt lat="45.52455100634278" lon="8.593408236629855"><ele>177.0</ele><time>2026-04-06T13:06:42Z</time></trkpt><trkpt lat="45.52462828851187" lon="8.59350766450209"><ele>177.2</ele><time>2026-04-06T13:06:43Z</time></trkpt><trkpt lat="45.52471485608603" lon="8.593587450937404"><ele>177.39999999999998</ele><time>2026-04-06T13:06:44Z</time></trkpt><trkpt lat="45.524802580322955" lon="8.593668183065581"><ele>177.60000000000002</ele><time>2026-04-06T13:06:45Z</time></trkpt><trkpt lat="45.52489745830436" lon="8.593728071214432"><ele>177.8</ele><time>2026-04-06T13:06:46Z</time></trkpt><trkpt lat="45.52497943060057" lon="8.593803777550704"><ele>178.0</ele><time>2026-04-06T13:06:47Z</time></trkpt><trkpt lat="45.52504976111323" lon="8.593868322029149"><ele>178.0</ele><time>2026-04-06T13:06:48Z</time></trkpt><trkpt lat="45.52511972342173" lon="8.593929270823649"><ele>178.0</ele><time>2026-04-06T13:06:49Z</time></trkpt><trkpt lat="45.525193362315896" lon="8.593971098174976"><ele>178.0</ele><time>2026-04-06T13:06:50Z</time></trkpt><trkpt lat="45.52527573864468" lon="8.594002505101692"><ele>178.0</ele><time>2026-04-06T13:06:51Z</time></trkpt><trkpt lat="45.52536701963871" lon="8.594028522016151"><ele>178.0</ele><time>2026-04-06T13:06:52Z</time></trkpt><trkpt lat="45.52546782243054" lon="8.593961859083786"><ele>178.33333333333334</ele><time>2026-04-06T13:06:53Z</time></trkpt><trkpt lat="45.525561135803144" lon="8.59390092461513"><ele>178.66666666666669</ele><time>2026-04-06T13:06:54Z</time></trkpt><trkpt lat="45.5256354972891" lon="8.593846587744586"><ele>179.0</ele><time>2026-04-06T13:06:55Z</time></trkpt><trkpt lat="45.525694876684916" lon="8.593796777556214"><ele>179.33333333333334</ele><time>2026-04-06T13:06:56Z</time></trkpt><trkpt lat="45.52575198530548" lon="8.593755635939377"><ele>179.66666666666666</ele><time>2026-04-06T13:06:57Z</time></trkpt><trkpt lat="45.52586584265816" lon="8.593701652659401"><ele>180.0</ele><time>2026-04-06T13:06:59Z</time></trkpt><trkpt lat="45.52598447909085" lon="8.593657913942296"><ele>180.2</ele><time>2026-04-06T13:07:01Z</time></trkpt><trkpt lat="45.52609613818938" lon="8.593650611906847"><ele>180.4</ele><time>2026-04-06T13:07:03Z</time></trkpt><trkpt lat="45.52618977740303" lon="8.593635748226738"><ele>180.60000000000002</ele><time>2026-04-06T13:07:05Z</time></trkpt><trkpt lat="45.526261655503106" lon="8.593623551481542"><ele>180.8</ele><time>2026-04-06T13:07:07Z</time></trkpt><trkpt lat="45.5263555432136" lon="8.593607619992836"><ele>181.0</ele><time>2026-04-06T13:07:10Z</time></trkpt><trkpt lat="45.52643571275489" lon="8.593571213667406"><ele>181.0</ele><time>2026-04-06T13:07:12Z</time></trkpt><trkpt lat="45.52652133856442" lon="8.593555645411993"><ele>181.0</ele><time>2026-04-06T13:07:14Z</time></trkpt><trkpt lat="45.52661420748526" lon="8.59354553488665"><ele>181.0</ele><time>2026-04-06T13:07:16Z</time></trkpt><trkpt lat="45.52670020206766" lon="8.59352021431355"><ele>181.0</ele><time>2026-04-06T13:07:18Z</time></trkpt><trkpt lat="45.52678077564686" lon="8.59350650045318"><ele>181.0</ele><time>2026-04-06T13:07:20Z</time></trkpt><trkpt lat="45.526871705657946" lon="8.593518762426223"><ele>181.0</ele><time>2026-04-06T13:07:22Z</time></trkpt><trkpt lat="45.526950285828825" lon="8.593519205909773"><ele>181.0</ele><time>2026-04-06T13:07:24Z</time></trkpt><trkpt lat="45.52702064178298" lon="8.59354897122753"><ele>181.0</ele><time>2026-04-06T13:07:26Z</time></trkpt><trkpt lat="45.527049603298316" lon="8.59367136594726"><ele>181.0</ele><time>2026-04-06T13:07:28Z</time></trkpt><trkpt lat="45.527074358349914" lon="8.593761286262145"><ele>181.0</ele><time>2026-04-06T13:07:29Z</time></trkpt><trkpt lat="45.52707849252963" lon="8.593891190050973"><ele>181.0</ele><time>2026-04-06T13:07:30Z</time></trkpt><trkpt lat="45.52708686973057" lon="8.59399464610754"><ele>181.0</ele><time>2026-04-06T13:07:31Z</time></trkpt><trkpt lat="45.52711040977826" lon="8.59415024585327"><ele>180.75</ele><time>2026-04-06T13:07:33Z</time></trkpt><trkpt lat="45.527126705163134" lon="8.59431007987611"><ele>180.5</ele><time>2026-04-06T13:07:35Z</time></trkpt><trkpt lat="45.52714075243921" lon="8.594471233469697"><ele>180.25</ele><time>2026-04-06T13:07:37Z</time></trkpt><trkpt lat="45.527161467721726" lon="8.59463251098579"><ele>180.0</ele><time>2026-04-06T13:07:39Z</time></trkpt><trkpt lat="45.52717990856311" lon="8.594792933577514"><ele>180.0</ele><time>2026-04-06T13:07:41Z</time></trkpt><trkpt lat="45.52719759906939" lon="8.594971880866408"><ele>180.0</ele><time>2026-04-06T13:07:43Z</time></trkpt><trkpt lat="45.5272106499437" lon="8.595064411960621"><ele>180.0</ele><time>2026-04-06T13:07:44Z</time></trkpt><trkpt lat="45.527222615798415" lon="8.595159823409345"><ele>180.0</ele><time>2026-04-06T13:07:45Z</time></trkpt><trkpt lat="45.52723166311993" lon="8.595258798292793"><ele>180.0</ele><time>2026-04-06T13:07:46Z</time></trkpt><trkpt lat="45.527243996123524" lon="8.595365000975564"><ele>180.0</ele><time>2026-04-06T13:07:47Z</time></trkpt><trkpt lat="45.52725862934111" lon="8.595467110501046"><ele>179.83333333333334</ele><time>2026-04-06T13:07:48Z</time></trkpt><trkpt lat="45.5272653676498" lon="8.595564430106645"><ele>179.66666666666666</ele><time>2026-04-06T13:07:49Z</time></trkpt><trkpt lat="45.52727421281693" lon="8.595669152454628"><ele>179.5</ele><time>2026-04-06T13:07:50Z</time></trkpt><trkpt lat="45.52730190195594" lon="8.595853477359466"><ele>179.33333333333331</ele><time>2026-04-06T13:07:52Z</time></trkpt><trkpt lat="45.52731298956133" lon="8.595960347339053"><ele>179.16666666666666</ele><time>2026-04-06T13:07:53Z</time></trkpt><trkpt lat="45.527324585154616" lon="8.59606443430175"><ele>179.0</ele><time>2026-04-06T13:07:54Z</time></trkpt><trkpt lat="45.527335141912964" lon="8.596159843077142"><ele>179.0</ele><time>2026-04-06T13:07:55Z</time></trkpt><trkpt lat="45.52734679435622" lon="8.596253191328488"><ele>179.0</ele><time>2026-04-06T13:07:56Z</time></trkpt><trkpt lat="45.52736789920065" lon="8.596430475774408"><ele>179.0</ele><time>2026-04-06T13:07:58Z</time></trkpt><trkpt lat="45.52738189612075" lon="8.596525035232318"><ele>179.0</ele><time>2026-04-06T13:07:59Z</time></trkpt><trkpt lat="45.52739489019387" lon="8.596615507672077"><ele>179.0</ele><time>2026-04-06T13:08:00Z</time></trkpt><trkpt lat="45.52739538483736" lon="8.596715526002246"><ele>179.0</ele><time>2026-04-06T13:08:01Z</time></trkpt><trkpt lat="45.52742976291411" lon="8.596797014060199"><ele>179.0</ele><time>2026-04-06T13:08:02Z</time></trkpt><trkpt lat="45.52745328230327" lon="8.59688699572576"><ele>179.0</ele><time>2026-04-06T13:08:03Z</time></trkpt><trkpt lat="45.52751041811423" lon="8.597040619575363"><ele>179.0</ele><time>2026-04-06T13:08:05Z</time></trkpt><trkpt lat="45.527572515398994" lon="8.597182312110778"><ele>179.0</ele><time>2026-04-06T13:08:07Z</time></trkpt><trkpt lat="45.52763552196818" lon="8.597310212709612"><ele>179.0</ele><time>2026-04-06T13:08:09Z</time></trkpt><trkpt lat="45.52767659980597" lon="8.597434817007095"><ele>179.0</ele><time>2026-04-06T13:08:11Z</time></trkpt><trkpt lat="45.52764087385639" lon="8.59735568926099"><ele>179.0</ele><time>2026-04-06T13:08:49Z</time></trkpt><trkpt lat="45.527605091021236" lon="8.597278868304898"><ele>179.0</ele><time>2026-04-06T13:09:05Z</time></trkpt><trkpt lat="45.52756816738112" lon="8.597199598412633"><ele>179.0</ele><time>2026-04-06T13:12:28Z</time></trkpt><trkpt lat="45.52749569724915" lon="8.597036723966127"><ele>179.0</ele><time>2026-04-06T13:12:30Z</time></trkpt><trkpt lat="45.52746205451109" lon="8.596957246701448"><ele>179.0</ele><time>2026-04-06T13:12:31Z</time></trkpt><trkpt lat="45.5274319600296" lon="8.596799712368657"><ele>179.0</ele><time>2026-04-06T13:12:33Z</time></trkpt><trkpt lat="45.52740188190808" lon="8.596655377930537"><ele>179.0</ele><time>2026-04-06T13:12:35Z</time></trkpt><trkpt lat="45.52737882686215" lon="8.596507478330883"><ele>179.0</ele><time>2026-04-06T13:12:37Z</time></trkpt><trkpt lat="45.52736362653997" lon="8.59635716073373"><ele>179.0</ele><time>2026-04-06T13:12:39Z</time></trkpt><trkpt lat="45.527348450176085" lon="8.596200203797578"><ele>179.0</ele><time>2026-04-06T13:12:41Z</time></trkpt><trkpt lat="45.527335500126135" lon="8.596105340717978"><ele>179.0</ele><time>2026-04-06T13:12:42Z</time></trkpt><trkpt lat="45.527313572796615" lon="8.59596405780739"><ele>179.0</ele><time>2026-04-06T13:12:44Z</time></trkpt><trkpt lat="45.52728648900408" lon="8.59581858468387"><ele>179.0</ele><time>2026-04-06T13:12:46Z</time></trkpt><trkpt lat="45.52727333393413" lon="8.595717069871117"><ele>179.0</ele><time>2026-04-06T13:12:47Z</time></trkpt><trkpt lat="45.52726195623852" lon="8.595611431786505"><ele>179.0</ele><time>2026-04-06T13:12:48Z</time></trkpt><trkpt lat="45.527252662120425" lon="8.595513641533545"><ele>179.0</ele><time>2026-04-06T13:12:49Z</time></trkpt><trkpt lat="45.52724281808114" lon="8.595424204867689"><ele>179.16666666666666</ele><time>2026-04-06T13:12:50Z</time></trkpt><trkpt lat="45.52723290458444" lon="8.595331201630563"><ele>179.33333333333331</ele><time>2026-04-06T13:12:51Z</time></trkpt><trkpt lat="45.527213136025" lon="8.595147913373347"><ele>179.5</ele><time>2026-04-06T13:12:53Z</time></trkpt><trkpt lat="45.52720337249281" lon="8.595053680481048"><ele>179.66666666666666</ele><time>2026-04-06T13:12:54Z</time></trkpt><trkpt lat="45.52719195157743" lon="8.59495623092595"><ele>179.83333333333334</ele><time>2026-04-06T13:12:55Z</time></trkpt><trkpt lat="45.52718150965953" lon="8.594857721190907"><ele>180.0</ele><time>2026-04-06T13:12:56Z</time></trkpt><trkpt lat="45.527172035471615" lon="8.59475660196087"><ele>180.0</ele><time>2026-04-06T13:12:57Z</time></trkpt><trkpt lat="45.527164600218306" lon="8.594650997865827"><ele>180.0</ele><time>2026-04-06T13:12:58Z</time></trkpt><trkpt lat="45.52715501799147" lon="8.594544232603056"><ele>180.0</ele><time>2026-04-06T13:12:59Z</time></trkpt><trkpt lat="45.52714283966054" lon="8.594437610288868"><ele>180.0</ele><time>2026-04-06T13:13:00Z</time></trkpt><trkpt lat="45.527131444517735" lon="8.594341047526534"><ele>180.0</ele><time>2026-04-06T13:13:01Z</time></trkpt><trkpt lat="45.527122171290806" lon="8.594248949448183"><ele>180.0</ele><time>2026-04-06T13:13:02Z</time></trkpt><trkpt lat="45.52711434847057" lon="8.594153049570416"><ele>180.0</ele><time>2026-04-06T13:13:03Z</time></trkpt><trkpt lat="45.527123977124056" lon="8.594050550527188"><ele>179.85714285714286</ele><time>2026-04-06T13:13:04Z</time></trkpt><trkpt lat="45.52711448249491" lon="8.593958605353842"><ele>179.71428571428572</ele><time>2026-04-06T13:13:05Z</time></trkpt><trkpt lat="45.527103404604276" lon="8.593855651444635"><ele>179.57142857142858</ele><time>2026-04-06T13:13:06Z</time></trkpt><trkpt lat="45.52707569328312" lon="8.593750568841987"><ele>179.42857142857144</ele><time>2026-04-06T13:13:07Z</time></trkpt><trkpt lat="45.52706676137987" lon="8.593644835300074"><ele>179.28571428571428</ele><time>2026-04-06T13:13:08Z</time></trkpt><trkpt lat="45.52705697483509" lon="8.593543938215447"><ele>179.14285714285717</ele><time>2026-04-06T13:13:09Z</time></trkpt><trkpt lat="45.52701624069654" lon="8.59347399784772"><ele>179.0</ele><time>2026-04-06T13:13:27Z</time></trkpt><trkpt lat="45.5269413105189" lon="8.593475283958156"><ele>179.39999999999998</ele><time>2026-04-06T13:13:28Z</time></trkpt><trkpt lat="45.526821655529886" lon="8.593494578631502"><ele>179.8</ele><time>2026-04-06T13:13:30Z</time></trkpt><trkpt lat="45.52674716218552" lon="8.593484153218435"><ele>180.2</ele><time>2026-04-06T13:13:31Z</time></trkpt><trkpt lat="45.526664467526594" lon="8.5935005313069"><ele>180.60000000000002</ele><time>2026-04-06T13:13:32Z</time></trkpt><trkpt lat="45.526589411645205" lon="8.59353904278587"><ele>181.0</ele><time>2026-04-06T13:13:33Z</time></trkpt><trkpt lat="45.526491956533114" lon="8.593534697817706"><ele>181.0</ele><time>2026-04-06T13:13:34Z</time></trkpt><trkpt lat="45.52641042548016" lon="8.593572597285139"><ele>181.0</ele><time>2026-04-06T13:13:35Z</time></trkpt><trkpt lat="45.5263215600213" lon="8.593587340495448"><ele>181.0</ele><time>2026-04-06T13:13:36Z</time></trkpt><trkpt lat="45.52623397755243" lon="8.593604094303775"><ele>181.0</ele><time>2026-04-06T13:13:37Z</time></trkpt><trkpt lat="45.52615093909136" lon="8.593617854897136"><ele>181.0</ele><time>2026-04-06T13:13:38.001Z</time></trkpt><trkpt lat="45.526062724401385" lon="8.593632060876098"><ele>181.0</ele><time>2026-04-06T13:13:39.001Z</time></trkpt><trkpt lat="45.525984693583574" lon="8.593627104316006"><ele>181.0</ele><time>2026-04-06T13:13:40.001Z</time></trkpt><trkpt lat="45.52590832323013" lon="8.593648072154457"><ele>181.0</ele><time>2026-04-06T13:13:41.001Z</time></trkpt><trkpt lat="45.525828715253205" lon="8.593679408450258"><ele>181.0</ele><time>2026-04-06T13:13:42.001Z</time></trkpt><trkpt lat="45.52575599750073" lon="8.593721122684425"><ele>181.0</ele><time>2026-04-06T13:13:43.001Z</time></trkpt><trkpt lat="45.52568364382679" lon="8.593769647151325"><ele>181.0</ele><time>2026-04-06T13:13:44.001Z</time></trkpt><trkpt lat="45.52562319951926" lon="8.59381502827621"><ele>181.0</ele><time>2026-04-06T13:13:45.001Z</time></trkpt><trkpt lat="45.52550901768939" lon="8.593902412115604"><ele>180.85714285714286</ele><time>2026-04-06T13:13:47.001Z</time></trkpt><trkpt lat="45.525449083867315" lon="8.593941406838951"><ele>180.71428571428572</ele><time>2026-04-06T13:13:48.001Z</time></trkpt><trkpt lat="45.52538889696792" lon="8.593993200463583"><ele>180.57142857142856</ele><time>2026-04-06T13:13:49.001Z</time></trkpt><trkpt lat="45.525321111233566" lon="8.594009173881169"><ele>180.42857142857144</ele><time>2026-04-06T13:13:50.001Z</time></trkpt><trkpt lat="45.52524752754744" lon="8.593972634601405"><ele>180.2857142857143</ele><time>2026-04-06T13:13:51.001Z</time></trkpt><trkpt lat="45.525178509354646" lon="8.593933396194224"><ele>180.14285714285714</ele><time>2026-04-06T13:13:52.001Z</time></trkpt><trkpt lat="45.5251062346334" lon="8.593886458074273"><ele>180.0</ele><time>2026-04-06T13:13:53.001Z</time></trkpt><trkpt lat="45.52503119673372" lon="8.593819754221707"><ele>179.8</ele><time>2026-04-06T13:13:54.001Z</time></trkpt><trkpt lat="45.52495345394196" lon="8.593749826779245"><ele>179.6</ele><time>2026-04-06T13:13:55.001Z</time></trkpt><trkpt lat="45.524873664518324" lon="8.593677196385618"><ele>179.39999999999998</ele><time>2026-04-06T13:13:56.001Z</time></trkpt><trkpt lat="45.52479287654353" lon="8.59360284760882"><ele>179.2</ele><time>2026-04-06T13:13:57.001Z</time></trkpt><trkpt lat="45.52471001823977" lon="8.593526593345059"><ele>179.0</ele><time>2026-04-06T13:13:58.001Z</time></trkpt><trkpt lat="45.524626641180156" lon="8.593449227917556"><ele>178.6</ele><time>2026-04-06T13:13:59Z</time></trkpt><trkpt lat="45.52453859758008" lon="8.593365922401178"><ele>178.2</ele><time>2026-04-06T13:14:00Z</time></trkpt><trkpt lat="45.524454612726025" lon="8.593286457263854"><ele>177.79999999999998</ele><time>2026-04-06T13:14:01Z</time></trkpt><trkpt lat="45.52437570410313" lon="8.593211795233726"><ele>177.39999999999998</ele><time>2026-04-06T13:14:02Z</time></trkpt><trkpt lat="45.5242819109909" lon="8.593149959226125"><ele>177.0</ele><time>2026-04-06T13:14:03Z</time></trkpt><trkpt lat="45.524208642792246" lon="8.593062260678645"><ele>177.0</ele><time>2026-04-06T13:14:04Z</time></trkpt><trkpt lat="45.52412859337846" lon="8.593019791088922"><ele>177.0</ele><time>2026-04-06T13:14:05Z</time></trkpt><trkpt lat="45.52406843138548" lon="8.592940147981825"><ele>177.0</ele><time>2026-04-06T13:14:06Z</time></trkpt><trkpt lat="45.52399742106227" lon="8.592898085474154"><ele>177.0</ele><time>2026-04-06T13:14:07Z</time></trkpt><trkpt lat="45.52392647848468" lon="8.592834973551938"><ele>177.0</ele><time>2026-04-06T13:14:08Z</time></trkpt><trkpt lat="45.523857849395" lon="8.59278139434245"><ele>177.0</ele><time>2026-04-06T13:14:09Z</time></trkpt><trkpt lat="45.52378683403453" lon="8.592728088143328"><ele>177.16666666666666</ele><time>2026-04-06T13:14:10Z</time></trkpt><trkpt lat="45.523716343766964" lon="8.592673338348119"><ele>177.33333333333334</ele><time>2026-04-06T13:14:11Z</time></trkpt><trkpt lat="45.52364491333441" lon="8.592622241017503"><ele>177.5</ele><time>2026-04-06T13:14:12Z</time></trkpt><trkpt lat="45.52357681168458" lon="8.592555653549331"><ele>177.66666666666669</ele><time>2026-04-06T13:14:13Z</time></trkpt><trkpt lat="45.523490838728634" lon="8.592511080785584"><ele>177.83333333333334</ele><time>2026-04-06T13:14:14Z</time></trkpt><trkpt lat="45.523384761279296" lon="8.592481099772716"><ele>178.0</ele><time>2026-04-06T13:14:15Z</time></trkpt><trkpt lat="45.52326167822906" lon="8.592464349170923"><ele>178.0</ele><time>2026-04-06T13:14:16Z</time></trkpt><trkpt lat="45.523144641042556" lon="8.592461221021427"><ele>178.0</ele><time>2026-04-06T13:14:17Z</time></trkpt><trkpt lat="45.523038158351035" lon="8.592462542571463"><ele>178.0</ele><time>2026-04-06T13:14:18Z</time></trkpt><trkpt lat="45.522945618570375" lon="8.59246518312278"><ele>178.0</ele><time>2026-04-06T13:14:19Z</time></trkpt><trkpt lat="45.52285468509813" lon="8.592469004211202"><ele>178.0</ele><time>2026-04-06T13:14:20Z</time></trkpt><trkpt lat="45.522764824650466" lon="8.592472780200028"><ele>178.0</ele><time>2026-04-06T13:14:21Z</time></trkpt><trkpt lat="45.52267739402441" lon="8.592474581494"><ele>178.0</ele><time>2026-04-06T13:14:22Z</time></trkpt><trkpt lat="45.522591290464206" lon="8.592476034239938"><ele>178.0</ele><time>2026-04-06T13:14:23Z</time></trkpt><trkpt lat="45.52249965648721" lon="8.592491477612995"><ele>178.0</ele><time>2026-04-06T13:14:24Z</time></trkpt><trkpt lat="45.52240171600866" lon="8.592528101769327"><ele>178.0</ele><time>2026-04-06T13:14:25Z</time></trkpt><trkpt lat="45.522292957673265" lon="8.592589870618097"><ele>178.0</ele><time>2026-04-06T13:14:26Z</time></trkpt><trkpt lat="45.52216440025419" lon="8.592686752664008"><ele>178.0</ele><time>2026-04-06T13:14:27Z</time></trkpt><trkpt lat="45.52204570811572" lon="8.592758229371295"><ele>178.0</ele><time>2026-04-06T13:14:28Z</time></trkpt><trkpt lat="45.521949982925506" lon="8.592846347246944"><ele>178.0</ele><time>2026-04-06T13:14:29Z</time></trkpt><trkpt lat="45.52185177481496" lon="8.592886733306743"><ele>177.4</ele><time>2026-04-06T13:14:30Z</time></trkpt><trkpt lat="45.52176607570562" lon="8.592942955714447"><ele>176.8</ele><time>2026-04-06T13:14:31Z</time></trkpt><trkpt lat="45.52168381497801" lon="8.592991581155168"><ele>176.2</ele><time>2026-04-06T13:14:32Z</time></trkpt><trkpt lat="45.52160124670757" lon="8.593035674633752"><ele>175.6</ele><time>2026-04-06T13:14:33Z</time></trkpt><trkpt lat="45.52151444983799" lon="8.593073724989662"><ele>175.0</ele><time>2026-04-06T13:14:34Z</time></trkpt><trkpt lat="45.52142242385912" lon="8.593109920620721"><ele>175.0</ele><time>2026-04-06T13:14:35Z</time></trkpt><trkpt lat="45.52133376190319" lon="8.593143619414535"><ele>175.0</ele><time>2026-04-06T13:14:36Z</time></trkpt><trkpt lat="45.521240395865966" lon="8.593179106248158"><ele>175.0</ele><time>2026-04-06T13:14:37Z</time></trkpt><trkpt lat="45.5211312449903" lon="8.593222093066888"><ele>175.0</ele><time>2026-04-06T13:14:38Z</time></trkpt><trkpt lat="45.52102348840198" lon="8.593268392000647"><ele>175.0</ele><time>2026-04-06T13:14:39Z</time></trkpt><trkpt lat="45.52092475907299" lon="8.593310954087219"><ele>175.2</ele><time>2026-04-06T13:14:40Z</time></trkpt><trkpt lat="45.520822670765774" lon="8.593354964297866"><ele>175.4</ele><time>2026-04-06T13:14:41Z</time></trkpt><trkpt lat="45.52072072837502" lon="8.593422149170765"><ele>175.60000000000002</ele><time>2026-04-06T13:14:42Z</time></trkpt><trkpt lat="45.5206169930343" lon="8.593442553937846"><ele>175.8</ele><time>2026-04-06T13:14:43Z</time></trkpt><trkpt lat="45.52051913100029" lon="8.593483766814478"><ele>176.0</ele><time>2026-04-06T13:14:44Z</time></trkpt><trkpt lat="45.52042609221606" lon="8.593546720633869"><ele>176.0</ele><time>2026-04-06T13:14:45Z</time></trkpt><trkpt lat="45.52032260321602" lon="8.593588314991159"><ele>176.0</ele><time>2026-04-06T13:14:46Z</time></trkpt><trkpt lat="45.52019458988951" lon="8.593620441358803"><ele>176.0</ele><time>2026-04-06T13:14:47Z</time></trkpt><trkpt lat="45.52005235161556" lon="8.593681285373338"><ele>176.0</ele><time>2026-04-06T13:14:48Z</time></trkpt><trkpt lat="45.51991318134518" lon="8.59374082600955"><ele>175.75</ele><time>2026-04-06T13:14:49Z</time></trkpt><trkpt lat="45.51979369340954" lon="8.59379188102548"><ele>175.5</ele><time>2026-04-06T13:14:50Z</time></trkpt><trkpt lat="45.5196738422463" lon="8.593842939266386"><ele>175.25</ele><time>2026-04-06T13:14:51Z</time></trkpt><trkpt lat="45.51954274393325" lon="8.593898788882534"><ele>175.0</ele><time>2026-04-06T13:14:52Z</time></trkpt><trkpt lat="45.51941728915061" lon="8.593950504422677"><ele>175.4</ele><time>2026-04-06T13:14:53Z</time></trkpt><trkpt lat="45.519308628292194" lon="8.593995179276726"><ele>175.8</ele><time>2026-04-06T13:14:54Z</time></trkpt><trkpt lat="45.51921836038955" lon="8.594051624645887"><ele>176.2</ele><time>2026-04-06T13:14:55Z</time></trkpt><trkpt lat="45.519131331572694" lon="8.5940695585789"><ele>176.6</ele><time>2026-04-06T13:14:56Z</time></trkpt><trkpt lat="45.51906209118488" lon="8.594124345167284"><ele>177.0</ele><time>2026-04-06T13:14:57Z</time></trkpt><trkpt lat="45.518990087603186" lon="8.594151211955909"><ele>177.0</ele><time>2026-04-06T13:14:58Z</time></trkpt><trkpt lat="45.51892203173077" lon="8.594167107378064"><ele>177.0</ele><time>2026-04-06T13:14:59Z</time></trkpt><trkpt lat="45.518823321016605" lon="8.594223345232413"><ele>177.0</ele><time>2026-04-06T13:15:01Z</time></trkpt><trkpt lat="45.5187564038567" lon="8.59427017225846"><ele>177.0</ele><time>2026-04-06T13:15:03Z</time></trkpt><trkpt lat="45.51869588323855" lon="8.594316935459931"><ele>177.0</ele><time>2026-04-06T13:15:32Z</time></trkpt><trkpt lat="45.5186874002995" lon="8.594197019313206"><ele>177.0</ele><time>2026-04-06T13:15:34Z</time></trkpt><trkpt lat="45.5186660196886" lon="8.594037412141075"><ele>176.83333333333334</ele><time>2026-04-06T13:15:36Z</time></trkpt><trkpt lat="45.518671491711586" lon="8.593925693114763"><ele>176.66666666666666</ele><time>2026-04-06T13:15:37Z</time></trkpt><trkpt lat="45.518667780454884" lon="8.593826825316059"><ele>176.5</ele><time>2026-04-06T13:15:38Z</time></trkpt><trkpt lat="45.51866439909948" lon="8.593720755043497"><ele>176.33333333333331</ele><time>2026-04-06T13:15:39Z</time></trkpt><trkpt lat="45.518658915713424" lon="8.593616618418924"><ele>176.16666666666666</ele><time>2026-04-06T13:15:40Z</time></trkpt><trkpt lat="45.518656544345866" lon="8.593507706467486"><ele>176.0</ele><time>2026-04-06T13:15:41Z</time></trkpt><trkpt lat="45.51865293880768" lon="8.593395884386826"><ele>176.0</ele><time>2026-04-06T13:15:42Z</time></trkpt><trkpt lat="45.51865132653388" lon="8.593286916585551"><ele>176.0</ele><time>2026-04-06T13:15:43Z</time></trkpt><trkpt lat="45.51865116429394" lon="8.59317432536588"><ele>176.0</ele><time>2026-04-06T13:15:44Z</time></trkpt><trkpt lat="45.51864812382065" lon="8.593068192474036"><ele>176.0</ele><time>2026-04-06T13:15:45Z</time></trkpt><trkpt lat="45.51864305892771" lon="8.59295678531048"><ele>176.0</ele><time>2026-04-06T13:15:46Z</time></trkpt><trkpt lat="45.51863708623763" lon="8.592851184576869"><ele>176.0</ele><time>2026-04-06T13:15:47Z</time></trkpt><trkpt lat="45.51862870409891" lon="8.592742522791047"><ele>176.0</ele><time>2026-04-06T13:15:48Z</time></trkpt><trkpt lat="45.518622499327286" lon="8.592647388391509"><ele>176.0</ele><time>2026-04-06T13:15:49Z</time></trkpt><trkpt lat="45.518621734538414" lon="8.592553438279335"><ele>176.0</ele><time>2026-04-06T13:15:50Z</time></trkpt><trkpt lat="45.51861985566927" lon="8.59246348791722"><ele>176.0</ele><time>2026-04-06T13:15:51Z</time></trkpt><trkpt lat="45.51861846035506" lon="8.592303365679937"><ele>176.0</ele><time>2026-04-06T13:15:53Z</time></trkpt><trkpt lat="45.518616646096916" lon="8.592168279834134"><ele>176.0</ele><time>2026-04-06T13:15:55Z</time></trkpt><trkpt lat="45.5186127689047" lon="8.59206408460801"><ele>176.16666666666666</ele><time>2026-04-06T13:15:57Z</time></trkpt><trkpt lat="45.518605715887745" lon="8.591959732138058"><ele>176.33333333333331</ele><time>2026-04-06T13:15:59Z</time></trkpt><trkpt lat="45.51859862397863" lon="8.591847696591499"><ele>176.5</ele><time>2026-04-06T13:16:01Z</time></trkpt><trkpt lat="45.51859509585947" lon="8.591712200479217"><ele>176.66666666666666</ele><time>2026-04-06T13:16:03Z</time></trkpt><trkpt lat="45.5185926100229" lon="8.591558615824859"><ele>176.83333333333334</ele><time>2026-04-06T13:16:05Z</time></trkpt><trkpt lat="45.518587218784695" lon="8.591429488182019"><ele>177.0</ele><time>2026-04-06T13:16:07Z</time></trkpt><trkpt lat="45.518616459647326" lon="8.591348957222971"><ele>177.0</ele><time>2026-04-06T13:16:09Z</time></trkpt><trkpt lat="45.51871192822213" lon="8.591331054418983"><ele>177.0</ele><time>2026-04-06T13:16:11Z</time></trkpt><trkpt lat="45.518830207594405" lon="8.591336188574253"><ele>177.0</ele><time>2026-04-06T13:16:13Z</time></trkpt><trkpt lat="45.51889387176674" lon="8.591336583495751"><ele>177.0</ele><time>2026-04-06T13:16:14Z</time></trkpt><trkpt lat="45.51899579818701" lon="8.59134534831739"><ele>177.0</ele><time>2026-04-06T13:16:16Z</time></trkpt><trkpt lat="45.5191063610652" lon="8.591332285549614"><ele>177.0</ele><time>2026-04-06T13:16:18Z</time></trkpt><trkpt lat="45.51917083819644" lon="8.591301070086573"><ele>177.0</ele><time>2026-04-06T13:16:19Z</time></trkpt><trkpt lat="45.5192430680712" lon="8.59126356571311"><ele>177.0</ele><time>2026-04-06T13:16:20Z</time></trkpt><trkpt lat="45.51932347090922" lon="8.591212139850143"><ele>177.0</ele><time>2026-04-06T13:16:21Z</time></trkpt><trkpt lat="45.51941170992221" lon="8.591153638154934"><ele>177.0</ele><time>2026-04-06T13:16:22Z</time></trkpt><trkpt lat="45.51949642452236" lon="8.591093331565713"><ele>177.0</ele><time>2026-04-06T13:16:23Z</time></trkpt><trkpt lat="45.519577687189674" lon="8.59103713232123"><ele>177.0</ele><time>2026-04-06T13:16:24Z</time></trkpt><trkpt lat="45.519659506132854" lon="8.590985248818486"><ele>177.0</ele><time>2026-04-06T13:16:25Z</time></trkpt><trkpt lat="45.51973961863162" lon="8.590932948092387"><ele>177.0</ele><time>2026-04-06T13:16:26Z</time></trkpt><trkpt lat="45.51981442806552" lon="8.590880765571022"><ele>177.0</ele><time>2026-04-06T13:16:27Z</time></trkpt><trkpt lat="45.51988294899265" lon="8.590834712906698"><ele>177.0</ele><time>2026-04-06T13:16:28Z</time></trkpt><trkpt lat="45.519948952412754" lon="8.59079083166975"><ele>177.0</ele><time>2026-04-06T13:16:29Z</time></trkpt><trkpt lat="45.52005084649237" lon="8.590738743263788"><ele>177.0</ele><time>2026-04-06T13:16:31Z</time></trkpt><trkpt lat="45.52012386748717" lon="8.590669072425587"><ele>177.0</ele><time>2026-04-06T13:16:34Z</time></trkpt><trkpt lat="45.52013465525299" lon="8.590552641145427"><ele>177.0</ele><time>2026-04-06T13:16:36Z</time></trkpt><trkpt lat="45.520106839913325" lon="8.590464106939105"><ele>177.0</ele><time>2026-04-06T13:16:37Z</time></trkpt><trkpt lat="45.52008227405172" lon="8.59037774282125"><ele>177.0</ele><time>2026-04-06T13:16:38Z</time></trkpt><trkpt lat="45.520053225573214" lon="8.590287254503496"><ele>177.0</ele><time>2026-04-06T13:16:39Z</time></trkpt><trkpt lat="45.52001182504594" lon="8.590147137896189"><ele>177.33333333333334</ele><time>2026-04-06T13:16:41Z</time></trkpt><trkpt lat="45.51998418825916" lon="8.5900564539602"><ele>177.66666666666666</ele><time>2026-04-06T13:16:44Z</time></trkpt><trkpt lat="45.51995436852399" lon="8.589929979091112"><ele>178.0</ele><time>2026-04-06T13:16:48Z</time></trkpt><trkpt lat="45.51989695418956" lon="8.589774313079614"><ele>178.33333333333331</ele><time>2026-04-06T13:16:50Z</time></trkpt><trkpt lat="45.519870050394466" lon="8.589674560878768"><ele>178.66666666666666</ele><time>2026-04-06T13:16:51Z</time></trkpt><trkpt lat="45.51983954660737" lon="8.58957993514982"><ele>179.0</ele><time>2026-04-06T13:16:52Z</time></trkpt><trkpt lat="45.519807776993055" lon="8.589491327621971"><ele>179.16666666666666</ele><time>2026-04-06T13:16:53Z</time></trkpt><trkpt lat="45.51978326040394" lon="8.58939411743922"><ele>179.33333333333331</ele><time>2026-04-06T13:16:54Z</time></trkpt><trkpt lat="45.51975582269207" lon="8.589302998090211"><ele>179.5</ele><time>2026-04-06T13:16:55Z</time></trkpt><trkpt lat="45.51971311840305" lon="8.58919294292649"><ele>179.66666666666666</ele><time>2026-04-06T13:16:57Z</time></trkpt><trkpt lat="45.519701513095434" lon="8.589100160006085"><ele>179.83333333333334</ele><time>2026-04-06T13:17:00Z</time></trkpt><trkpt lat="45.51973642479287" lon="8.589021892146896"><ele>180.0</ele><time>2026-04-06T13:17:06Z</time></trkpt><trkpt lat="45.51982885899278" lon="8.588970425192278"><ele>180.0</ele><time>2026-04-06T13:17:07Z</time></trkpt><trkpt lat="45.5199129068634" lon="8.58893461400643"><ele>180.0</ele><time>2026-04-06T13:17:08Z</time></trkpt><trkpt lat="45.520008417851315" lon="8.588883859881928"><ele>180.0</ele><time>2026-04-06T13:17:09Z</time></trkpt><trkpt lat="45.52009971447223" lon="8.588829876500544"><ele>180.0</ele><time>2026-04-06T13:17:10Z</time></trkpt><trkpt lat="45.52018787744404" lon="8.588774915008276"><ele>180.0</ele><time>2026-04-06T13:17:11Z</time></trkpt><trkpt lat="45.520279061477794" lon="8.588709555426208"><ele>180.0</ele><time>2026-04-06T13:17:12Z</time></trkpt><trkpt lat="45.520384382760874" lon="8.588657315819422"><ele>180.0</ele><time>2026-04-06T13:17:13Z</time></trkpt><trkpt lat="45.52049587505388" lon="8.588591072821961"><ele>180.0</ele><time>2026-04-06T13:17:14Z</time></trkpt><trkpt lat="45.52062763962544" lon="8.588511524097553"><ele>180.0</ele><time>2026-04-06T13:17:15Z</time></trkpt><trkpt lat="45.52075590098899" lon="8.588430951917088"><ele>180.0</ele><time>2026-04-06T13:17:16Z</time></trkpt><trkpt lat="45.52090216605079" lon="8.58834314333305"><ele>180.0</ele><time>2026-04-06T13:17:17Z</time></trkpt><trkpt lat="45.52106348559591" lon="8.588236755661843"><ele>180.0</ele><time>2026-04-06T13:17:18Z</time></trkpt><trkpt lat="45.521214462048796" lon="8.58815378127517"><ele>180.33333333333334</ele><time>2026-04-06T13:17:19Z</time></trkpt><trkpt lat="45.52135743970228" lon="8.588069285836395"><ele>180.66666666666669</ele><time>2026-04-06T13:17:20Z</time></trkpt><trkpt lat="45.52150157390654" lon="8.587977969962553"><ele>181.0</ele><time>2026-04-06T13:17:21Z</time></trkpt><trkpt lat="45.52164989271007" lon="8.5878849627669"><ele>180.66666666666669</ele><time>2026-04-06T13:17:22Z</time></trkpt><trkpt lat="45.52179856155904" lon="8.587794982141753"><ele>180.33333333333334</ele><time>2026-04-06T13:17:23Z</time></trkpt><trkpt lat="45.52194346879061" lon="8.587703797957605"><ele>180.0</ele><time>2026-04-06T13:17:24Z</time></trkpt><trkpt lat="45.52208441078517" lon="8.587616905738267"><ele>180.66666666666666</ele><time>2026-04-06T13:17:25Z</time></trkpt><trkpt lat="45.5222279226903" lon="8.58753272916997"><ele>181.33333333333331</ele><time>2026-04-06T13:17:26Z</time></trkpt><trkpt lat="45.52237890936661" lon="8.58744139635789"><ele>182.0</ele><time>2026-04-06T13:17:27Z</time></trkpt><trkpt lat="45.522522410774855" lon="8.587355842246401"><ele>182.0</ele><time>2026-04-06T13:17:28Z</time></trkpt><trkpt lat="45.52267019699122" lon="8.587268706431747"><ele>182.0</ele><time>2026-04-06T13:17:29Z</time></trkpt><trkpt lat="45.522826428610344" lon="8.587175374276272"><ele>182.0</ele><time>2026-04-06T13:17:30Z</time></trkpt><trkpt lat="45.52298292234189" lon="8.587078902120366"><ele>182.0</ele><time>2026-04-06T13:17:31Z</time></trkpt><trkpt lat="45.52313611476562" lon="8.586979708793022"><ele>182.0</ele><time>2026-04-06T13:17:32Z</time></trkpt><trkpt lat="45.523297030151745" lon="8.586880158991423"><ele>182.0</ele><time>2026-04-06T13:17:33Z</time></trkpt><trkpt lat="45.52362863264541" lon="8.586678344693283"><ele>181.33333333333331</ele><time>2026-04-06T13:17:35Z</time></trkpt><trkpt lat="45.52380658696363" lon="8.586570017554084"><ele>180.66666666666666</ele><time>2026-04-06T13:17:36Z</time></trkpt><trkpt lat="45.523991583438246" lon="8.58645633769802"><ele>180.0</ele><time>2026-04-06T13:17:37Z</time></trkpt><trkpt lat="45.52416928971263" lon="8.586352473646112"><ele>180.0</ele><time>2026-04-06T13:17:38Z</time></trkpt><trkpt lat="45.52434219585764" lon="8.586250340259697"><ele>180.0</ele><time>2026-04-06T13:17:39Z</time></trkpt><trkpt lat="45.52451434468886" lon="8.586148100365953"><ele>180.0</ele><time>2026-04-06T13:17:40Z</time></trkpt><trkpt lat="45.524687769486164" lon="8.586047371756528"><ele>180.0</ele><time>2026-04-06T13:17:41Z</time></trkpt><trkpt lat="45.524859069880186" lon="8.58594485827315"><ele>180.0</ele><time>2026-04-06T13:17:42Z</time></trkpt><trkpt lat="45.525030146619386" lon="8.58583920179086"><ele>180.0</ele><time>2026-04-06T13:17:43Z</time></trkpt><trkpt lat="45.52520256662722" lon="8.585733176717744"><ele>180.0</ele><time>2026-04-06T13:17:44Z</time></trkpt><trkpt lat="45.52538027507633" lon="8.585627714011844"><ele>180.0</ele><time>2026-04-06T13:17:45Z</time></trkpt><trkpt lat="45.52556170939109" lon="8.585520049491153"><ele>180.0</ele><time>2026-04-06T13:17:46Z</time></trkpt><trkpt lat="45.52575244279492" lon="8.585401356814256"><ele>180.33333333333334</ele><time>2026-04-06T13:17:47Z</time></trkpt><trkpt lat="45.52594162311139" lon="8.585280564776848"><ele>180.66666666666669</ele><time>2026-04-06T13:17:48Z</time></trkpt><trkpt lat="45.52612664868404" lon="8.585164018216258"><ele>181.0</ele><time>2026-04-06T13:17:49Z</time></trkpt><trkpt lat="45.52631070357021" lon="8.58505182424155"><ele>181.0</ele><time>2026-04-06T13:17:50Z</time></trkpt><trkpt lat="45.52649912243208" lon="8.584942497341107"><ele>181.0</ele><time>2026-04-06T13:17:51Z</time></trkpt><trkpt lat="45.52668888058814" lon="8.584833870519935"><ele>181.0</ele><time>2026-04-06T13:17:52Z</time></trkpt><trkpt lat="45.526878983382495" lon="8.58472238567729"><ele>181.33333333333334</ele><time>2026-04-06T13:17:53Z</time></trkpt><trkpt lat="45.52707136289284" lon="8.584608578790851"><ele>181.66666666666666</ele><time>2026-04-06T13:17:54Z</time></trkpt><trkpt lat="45.527263892456745" lon="8.584490152265518"><ele>182.0</ele><time>2026-04-06T13:17:55Z</time></trkpt><trkpt lat="45.52746143181102" lon="8.584366027763842"><ele>182.33333333333331</ele><time>2026-04-06T13:17:56Z</time></trkpt><trkpt lat="45.52765529840874" lon="8.584246042749088"><ele>182.66666666666666</ele><time>2026-04-06T13:17:57Z</time></trkpt><trkpt lat="45.5278414945103" lon="8.584128437584761"><ele>183.0</ele><time>2026-04-06T13:17:58Z</time></trkpt><trkpt lat="45.52802284456473" lon="8.58401721268119"><ele>182.33333333333334</ele><time>2026-04-06T13:17:59Z</time></trkpt><trkpt lat="45.52820126784355" lon="8.583908537175812"><ele>181.66666666666669</ele><time>2026-04-06T13:18:00Z</time></trkpt><trkpt lat="45.52838358386714" lon="8.583798064581206"><ele>181.0</ele><time>2026-04-06T13:18:01Z</time></trkpt><trkpt lat="45.52857033280004" lon="8.583687598704525"><ele>181.66666666666669</ele><time>2026-04-06T13:18:02Z</time></trkpt><trkpt lat="45.52875488118332" lon="8.583579315802115"><ele>182.33333333333334</ele><time>2026-04-06T13:18:03Z</time></trkpt><trkpt lat="45.528942815797166" lon="8.583467964975387"><ele>183.0</ele><time>2026-04-06T13:18:04Z</time></trkpt><trkpt lat="45.52931470313942" lon="8.583241619952819"><ele>183.0</ele><time>2026-04-06T13:18:06Z</time></trkpt><trkpt lat="45.52951203130081" lon="8.58311842737762"><ele>183.0</ele><time>2026-04-06T13:18:07Z</time></trkpt><trkpt lat="45.52971157604655" lon="8.582996709170178"><ele>183.0</ele><time>2026-04-06T13:18:08Z</time></trkpt><trkpt lat="45.52991405901249" lon="8.582876536035156"><ele>183.33333333333334</ele><time>2026-04-06T13:18:09Z</time></trkpt><trkpt lat="45.5301161594708" lon="8.582756462935349"><ele>183.66666666666669</ele><time>2026-04-06T13:18:10Z</time></trkpt><trkpt lat="45.53030899125609" lon="8.58263610379163"><ele>184.0</ele><time>2026-04-06T13:18:11Z</time></trkpt><trkpt lat="45.530502982272274" lon="8.582515812300377"><ele>183.33333333333334</ele><time>2026-04-06T13:18:12Z</time></trkpt><trkpt lat="45.53069197919093" lon="8.582401830751833"><ele>182.66666666666666</ele><time>2026-04-06T13:18:13Z</time></trkpt><trkpt lat="45.530875842895526" lon="8.582293307716046"><ele>182.0</ele><time>2026-04-06T13:18:14Z</time></trkpt><trkpt lat="45.53106324267207" lon="8.582181341597572"><ele>182.0</ele><time>2026-04-06T13:18:15Z</time></trkpt><trkpt lat="45.53125020685536" lon="8.582067085293932"><ele>182.0</ele><time>2026-04-06T13:18:16Z</time></trkpt><trkpt lat="45.53144330066952" lon="8.581945414461119"><ele>182.0</ele><time>2026-04-06T13:18:17Z</time></trkpt><trkpt lat="45.53164022731138" lon="8.58182663849574"><ele>182.33333333333331</ele><time>2026-04-06T13:18:18Z</time></trkpt><trkpt lat="45.531834531092365" lon="8.581708551999307"><ele>182.66666666666666</ele><time>2026-04-06T13:18:19Z</time></trkpt><trkpt lat="45.532033473419325" lon="8.581590256756927"><ele>183.0</ele><time>2026-04-06T13:18:20Z</time></trkpt><trkpt lat="45.53223057572818" lon="8.58147172489017"><ele>183.0</ele><time>2026-04-06T13:18:21Z</time></trkpt><trkpt lat="45.53242359573698" lon="8.581355593465343"><ele>183.0</ele><time>2026-04-06T13:18:22Z</time></trkpt><trkpt lat="45.53261444522021" lon="8.581237835442133"><ele>183.0</ele><time>2026-04-06T13:18:23Z</time></trkpt><trkpt lat="45.53279638011769" lon="8.58112928219078"><ele>184.66666666666666</ele><time>2026-04-06T13:18:24Z</time></trkpt><trkpt lat="45.53296832438011" lon="8.581025720115594"><ele>186.33333333333331</ele><time>2026-04-06T13:18:25Z</time></trkpt><trkpt lat="45.53313977339247" lon="8.580924737787454"><ele>188.0</ele><time>2026-04-06T13:18:26Z</time></trkpt><trkpt lat="45.53330977922183" lon="8.580823175466666"><ele>188.0</ele><time>2026-04-06T13:18:27Z</time></trkpt><trkpt lat="45.53347457632136" lon="8.580720525955327"><ele>188.0</ele><time>2026-04-06T13:18:28Z</time></trkpt><trkpt lat="45.5336435566184" lon="8.580615253558934"><ele>188.0</ele><time>2026-04-06T13:18:29Z</time></trkpt><trkpt lat="45.53381188041609" lon="8.580509535569925"><ele>187.0</ele><time>2026-04-06T13:18:30Z</time></trkpt><trkpt lat="45.53398153068821" lon="8.580407315430318"><ele>186.0</ele><time>2026-04-06T13:18:31Z</time></trkpt><trkpt lat="45.534144062097724" lon="8.580312263105958"><ele>185.0</ele><time>2026-04-06T13:18:32Z</time></trkpt><trkpt lat="45.53431338434012" lon="8.580210192930291"><ele>185.0</ele><time>2026-04-06T13:18:33Z</time></trkpt><trkpt lat="45.5344788314068" lon="8.580114671962335"><ele>185.0</ele><time>2026-04-06T13:18:34Z</time></trkpt><trkpt lat="45.53464812719968" lon="8.580009172696682"><ele>185.0</ele><time>2026-04-06T13:18:35Z</time></trkpt><trkpt lat="45.53481723694656" lon="8.57990794745727"><ele>185.0</ele><time>2026-04-06T13:18:36Z</time></trkpt><trkpt lat="45.53499419629575" lon="8.579804125072423"><ele>185.0</ele><time>2026-04-06T13:18:37Z</time></trkpt><trkpt lat="45.5351699763817" lon="8.579695855533117"><ele>185.0</ele><time>2026-04-06T13:18:38Z</time></trkpt><trkpt lat="45.53534228425632" lon="8.579587372117752"><ele>185.33333333333331</ele><time>2026-04-06T13:18:39Z</time></trkpt><trkpt lat="45.53551550554957" lon="8.57948315722125"><ele>185.66666666666666</ele><time>2026-04-06T13:18:40Z</time></trkpt><trkpt lat="45.535678191350996" lon="8.57938382247289"><ele>186.0</ele><time>2026-04-06T13:18:41Z</time></trkpt><trkpt lat="45.535838871406824" lon="8.579288205063177"><ele>186.0</ele><time>2026-04-06T13:18:42Z</time></trkpt><trkpt lat="45.53600261454448" lon="8.579185855470858"><ele>186.0</ele><time>2026-04-06T13:18:43Z</time></trkpt><trkpt lat="45.53616266833661" lon="8.579090628186831"><ele>186.0</ele><time>2026-04-06T13:18:44Z</time></trkpt><trkpt lat="45.53631609779579" lon="8.578997301641966"><ele>186.33333333333334</ele><time>2026-04-06T13:18:45Z</time></trkpt><trkpt lat="45.53646199764598" lon="8.578907568796883"><ele>186.66666666666669</ele><time>2026-04-06T13:18:46Z</time></trkpt><trkpt lat="45.53660586729058" lon="8.578817876899926"><ele>187.0</ele><time>2026-04-06T13:18:47Z</time></trkpt><trkpt lat="45.53674444924535" lon="8.578733305882675"><ele>187.0</ele><time>2026-04-06T13:18:48Z</time></trkpt><trkpt lat="45.536876495733615" lon="8.578656220383506"><ele>187.0</ele><time>2026-04-06T13:18:49Z</time></trkpt><trkpt lat="45.53700645918217" lon="8.57857678799999"><ele>187.0</ele><time>2026-04-06T13:18:50Z</time></trkpt><trkpt lat="45.537143517951975" lon="8.578496770008766"><ele>187.0</ele><time>2026-04-06T13:18:51Z</time></trkpt><trkpt lat="45.5372833452952" lon="8.578413063586343"><ele>187.0</ele><time>2026-04-06T13:18:52Z</time></trkpt><trkpt lat="45.53742025724707" lon="8.57833272397667"><ele>187.0</ele><time>2026-04-06T13:18:53Z</time></trkpt><trkpt lat="45.53755455006327" lon="8.578250365837869"><ele>187.0</ele><time>2026-04-06T13:18:54Z</time></trkpt><trkpt lat="45.537688518172786" lon="8.578169523023876"><ele>187.0</ele><time>2026-04-06T13:18:55Z</time></trkpt><trkpt lat="45.537815987383595" lon="8.578096968882509"><ele>187.25</ele><time>2026-04-06T13:18:56Z</time></trkpt><trkpt lat="45.53793729887933" lon="8.57803020096859"><ele>187.5</ele><time>2026-04-06T13:18:57Z</time></trkpt><trkpt lat="45.5380572972144" lon="8.577964060190181"><ele>187.75</ele><time>2026-04-06T13:18:58Z</time></trkpt><trkpt lat="45.53817543415472" lon="8.577901769973817"><ele>188.0</ele><time>2026-04-06T13:18:59Z</time></trkpt><trkpt lat="45.5382866676996" lon="8.577840430343766"><ele>188.4</ele><time>2026-04-06T13:19:00Z</time></trkpt><trkpt lat="45.53839419920849" lon="8.577778823514423"><ele>188.8</ele><time>2026-04-06T13:19:01Z</time></trkpt><trkpt lat="45.538490827766175" lon="8.577726408248338"><ele>189.2</ele><time>2026-04-06T13:19:02Z</time></trkpt><trkpt lat="45.53857630189062" lon="8.57769218388266"><ele>189.6</ele><time>2026-04-06T13:19:03Z</time></trkpt><trkpt lat="45.53865747977276" lon="8.577677844797192"><ele>190.0</ele><time>2026-04-06T13:19:04Z</time></trkpt><trkpt lat="45.53873182212421" lon="8.577689510934272"><ele>190.0</ele><time>2026-04-06T13:19:05Z</time></trkpt><trkpt lat="45.538801978026264" lon="8.577721959100264"><ele>190.0</ele><time>2026-04-06T13:19:06Z</time></trkpt><trkpt lat="45.53886690742926" lon="8.577776825750881"><ele>190.0</ele><time>2026-04-06T13:19:07Z</time></trkpt><trkpt lat="45.53893963082488" lon="8.577796763980574"><ele>190.0</ele><time>2026-04-06T13:19:08Z</time></trkpt><trkpt lat="45.53895325242008" lon="8.57796550346529"><ele>190.0</ele><time>2026-04-06T13:19:09Z</time></trkpt><trkpt lat="45.53900199154327" lon="8.578083536785972"><ele>190.0</ele><time>2026-04-06T13:19:10Z</time></trkpt><trkpt lat="45.539057024592005" lon="8.578220276452509"><ele>190.0</ele><time>2026-04-06T13:19:11Z</time></trkpt><trkpt lat="45.539112754845355" lon="8.578358576272318"><ele>190.0</ele><time>2026-04-06T13:19:12Z</time></trkpt><trkpt lat="45.539167762887374" lon="8.578493133240073"><ele>190.0</ele><time>2026-04-06T13:19:13Z</time></trkpt><trkpt lat="45.5392233246012" lon="8.578626228046483"><ele>190.0</ele><time>2026-04-06T13:19:14Z</time></trkpt><trkpt lat="45.53927479559388" lon="8.57874856717336"><ele>190.0</ele><time>2026-04-06T13:19:15Z</time></trkpt><trkpt lat="45.53932080701107" lon="8.578862269856545"><ele>190.2</ele><time>2026-04-06T13:19:16Z</time></trkpt><trkpt lat="45.53936598330934" lon="8.57897373407802"><ele>190.4</ele><time>2026-04-06T13:19:17Z</time></trkpt><trkpt lat="45.539411744655006" lon="8.579085699517877"><ele>190.60000000000002</ele><time>2026-04-06T13:19:18Z</time></trkpt><trkpt lat="45.53945955716646" lon="8.57920239225164"><ele>190.8</ele><time>2026-04-06T13:19:19Z</time></trkpt><trkpt lat="45.539503753265386" lon="8.579309413809698"><ele>191.0</ele><time>2026-04-06T13:19:20Z</time></trkpt><trkpt lat="45.53955126042636" lon="8.579422820933491"><ele>190.60000000000002</ele><time>2026-04-06T13:19:21Z</time></trkpt><trkpt lat="45.53959722084503" lon="8.579532638926269"><ele>190.2</ele><time>2026-04-06T13:19:22Z</time></trkpt><trkpt lat="45.539645043834184" lon="8.579650657464784"><ele>189.8</ele><time>2026-04-06T13:19:23Z</time></trkpt><trkpt lat="45.5396934848661" lon="8.5797702013393"><ele>189.39999999999998</ele><time>2026-04-06T13:19:24Z</time></trkpt><trkpt lat="45.53974120272416" lon="8.579887962952386"><ele>189.0</ele><time>2026-04-06T13:19:25Z</time></trkpt><trkpt lat="45.53978864750057" lon="8.580011904112913"><ele>189.0</ele><time>2026-04-06T13:19:26Z</time></trkpt><trkpt lat="45.539836067900026" lon="8.580135278274534"><ele>189.0</ele><time>2026-04-06T13:19:27Z</time></trkpt><trkpt lat="45.53988387342226" lon="8.58026333186144"><ele>189.0</ele><time>2026-04-06T13:19:28Z</time></trkpt><trkpt lat="45.53994604767044" lon="8.58039346782278"><ele>189.0</ele><time>2026-04-06T13:19:29Z</time></trkpt><trkpt lat="45.53997232225649" lon="8.580546366550815"><ele>189.0</ele><time>2026-04-06T13:19:30Z</time></trkpt><trkpt lat="45.54000217048601" lon="8.580696548835602"><ele>189.0</ele><time>2026-04-06T13:19:31Z</time></trkpt><trkpt lat="45.54002449863561" lon="8.580849332058415"><ele>189.0</ele><time>2026-04-06T13:19:32Z</time></trkpt><trkpt lat="45.540046869732464" lon="8.581007027588063"><ele>189.0</ele><time>2026-04-06T13:19:33Z</time></trkpt><trkpt lat="45.54007042667599" lon="8.581173083134011"><ele>189.0</ele><time>2026-04-06T13:19:34Z</time></trkpt><trkpt lat="45.54009409016412" lon="8.58133988843582"><ele>189.0</ele><time>2026-04-06T13:19:35Z</time></trkpt><trkpt lat="45.54012003625674" lon="8.581520183318672"><ele>189.0</ele><time>2026-04-06T13:19:36Z</time></trkpt><trkpt lat="45.540139481382276" lon="8.581653868138671"><ele>189.0</ele><time>2026-04-06T13:19:37Z</time></trkpt><trkpt lat="45.540162216109046" lon="8.581810169392405"><ele>189.0</ele><time>2026-04-06T13:19:38Z</time></trkpt><trkpt lat="45.54018619227563" lon="8.581975005454304"><ele>189.2</ele><time>2026-04-06T13:19:39Z</time></trkpt><trkpt lat="45.54021090305353" lon="8.582144892540533"><ele>189.39999999999998</ele><time>2026-04-06T13:19:40Z</time></trkpt><trkpt lat="45.540232667794605" lon="8.582294524869608"><ele>189.6</ele><time>2026-04-06T13:19:41Z</time></trkpt><trkpt lat="45.5402529671899" lon="8.582434083027499"><ele>189.8</ele><time>2026-04-06T13:19:42Z</time></trkpt><trkpt lat="45.54027564337254" lon="8.582589980694987"><ele>190.0</ele><time>2026-04-06T13:19:43Z</time></trkpt><trkpt lat="45.54030223665865" lon="8.582767076566004"><ele>190.0</ele><time>2026-04-06T13:19:44Z</time></trkpt><trkpt lat="45.54032830366761" lon="8.582944903520957"><ele>190.0</ele><time>2026-04-06T13:19:45Z</time></trkpt><trkpt lat="45.54035647473291" lon="8.583130612086824"><ele>190.0</ele><time>2026-04-06T13:19:46Z</time></trkpt><trkpt lat="45.54038840878003" lon="8.583341748403585"><ele>190.0</ele><time>2026-04-06T13:19:47Z</time></trkpt><trkpt lat="45.5404207356252" lon="8.583554334246696"><ele>190.0</ele><time>2026-04-06T13:19:48Z</time></trkpt><trkpt lat="45.54045156029838" lon="8.58375826861981"><ele>190.0</ele><time>2026-04-06T13:19:49Z</time></trkpt><trkpt lat="45.54047948697442" lon="8.583948550623852"><ele>190.0</ele><time>2026-04-06T13:19:50Z</time></trkpt><trkpt lat="45.54052214073062" lon="8.584125576060867"><ele>190.0</ele><time>2026-04-06T13:19:51Z</time></trkpt><trkpt lat="45.540531778576" lon="8.584304846481146"><ele>190.0</ele><time>2026-04-06T13:19:52Z</time></trkpt><trkpt lat="45.54055839053486" lon="8.584488018701604"><ele>190.0</ele><time>2026-04-06T13:19:53Z</time></trkpt><trkpt lat="45.540583716107754" lon="8.584663254270492"><ele>190.0</ele><time>2026-04-06T13:19:54Z</time></trkpt><trkpt lat="45.54061114306375" lon="8.5848530300258"><ele>190.0</ele><time>2026-04-06T13:19:55Z</time></trkpt><trkpt lat="45.54063762049784" lon="8.585036235674018"><ele>189.5</ele><time>2026-04-06T13:19:56Z</time></trkpt><trkpt lat="45.54066516941077" lon="8.585228064973709"><ele>189.0</ele><time>2026-04-06T13:19:57Z</time></trkpt><trkpt lat="45.54069120648233" lon="8.585412272190139"><ele>188.5</ele><time>2026-04-06T13:19:58Z</time></trkpt><trkpt lat="45.540717098320435" lon="8.58559606437573"><ele>188.0</ele><time>2026-04-06T13:19:59Z</time></trkpt><trkpt lat="45.54074221876868" lon="8.585775511840437"><ele>187.5</ele><time>2026-04-06T13:20:00Z</time></trkpt><trkpt lat="45.540768366591585" lon="8.585962298096778"><ele>187.0</ele><time>2026-04-06T13:20:01Z</time></trkpt><trkpt lat="45.540795650942826" lon="8.58615720338131"><ele>186.5</ele><time>2026-04-06T13:20:02Z</time></trkpt><trkpt lat="45.54082464394499" lon="8.586360308793589"><ele>186.0</ele><time>2026-04-06T13:20:03Z</time></trkpt><trkpt lat="45.54085484174566" lon="8.586571081088623"><ele>186.0</ele><time>2026-04-06T13:20:04Z</time></trkpt><trkpt lat="45.54088513351143" lon="8.586774181764014"><ele>186.0</ele><time>2026-04-06T13:20:05Z</time></trkpt><trkpt lat="45.54091495763347" lon="8.586977869141766"><ele>186.0</ele><time>2026-04-06T13:20:06Z</time></trkpt><trkpt lat="45.540943353782346" lon="8.58717225088843"><ele>186.0</ele><time>2026-04-06T13:20:07Z</time></trkpt><trkpt lat="45.540971510829365" lon="8.587365131554783"><ele>186.0</ele><time>2026-04-06T13:20:08Z</time></trkpt><trkpt lat="45.5409999474499" lon="8.587559940148147"><ele>186.0</ele><time>2026-04-06T13:20:09Z</time></trkpt><trkpt lat="45.54102789399976" lon="8.587751391587288"><ele>186.0</ele><time>2026-04-06T13:20:10Z</time></trkpt><trkpt lat="45.54105437662737" lon="8.58793281429102"><ele>186.0</ele><time>2026-04-06T13:20:11Z</time></trkpt><trkpt lat="45.5410809443942" lon="8.588112333080613"><ele>186.5</ele><time>2026-04-06T13:20:12Z</time></trkpt><trkpt lat="45.54110755304068" lon="8.588291783191286"><ele>187.0</ele><time>2026-04-06T13:20:13Z</time></trkpt><trkpt lat="45.54113488187644" lon="8.588476090258766"><ele>187.5</ele><time>2026-04-06T13:20:14Z</time></trkpt><trkpt lat="45.541162810717644" lon="8.588662754339168"><ele>188.0</ele><time>2026-04-06T13:20:15Z</time></trkpt><trkpt lat="45.541191367322185" lon="8.588852485557688"><ele>188.0</ele><time>2026-04-06T13:20:16Z</time></trkpt><trkpt lat="45.541218696911166" lon="8.589038669502333"><ele>188.0</ele><time>2026-04-06T13:20:17Z</time></trkpt><trkpt lat="45.54124541739001" lon="8.589222930711768"><ele>188.0</ele><time>2026-04-06T13:20:18Z</time></trkpt><trkpt lat="45.54127190867422" lon="8.589407823290578"><ele>188.0</ele><time>2026-04-06T13:20:19Z</time></trkpt><trkpt lat="45.54129843991464" lon="8.589593088719278"><ele>188.0</ele><time>2026-04-06T13:20:20Z</time></trkpt><trkpt lat="45.541323779200326" lon="8.589770030669712"><ele>188.0</ele><time>2026-04-06T13:20:21Z</time></trkpt><trkpt lat="45.54134797749306" lon="8.58993924623583"><ele>188.0</ele><time>2026-04-06T13:20:22Z</time></trkpt><trkpt lat="45.54137105839215" lon="8.590103209446047"><ele>188.0</ele><time>2026-04-06T13:20:23Z</time></trkpt><trkpt lat="45.54139368619878" lon="8.590263953708563"><ele>187.60000000000002</ele><time>2026-04-06T13:20:24Z</time></trkpt><trkpt lat="45.541414816100755" lon="8.590414057027456"><ele>187.20000000000002</ele><time>2026-04-06T13:20:25Z</time></trkpt><trkpt lat="45.541435043271214" lon="8.590557747772461"><ele>186.8</ele><time>2026-04-06T13:20:26Z</time></trkpt><trkpt lat="45.54145418353026" lon="8.590693716899775"><ele>186.4</ele><time>2026-04-06T13:20:27Z</time></trkpt><trkpt lat="45.54147277629646" lon="8.590827499481973"><ele>186.0</ele><time>2026-04-06T13:20:28Z</time></trkpt><trkpt lat="45.54149103100017" lon="8.59095887353361"><ele>186.0</ele><time>2026-04-06T13:20:29Z</time></trkpt><trkpt lat="45.5415243729005" lon="8.591078830538427"><ele>186.0</ele><time>2026-04-06T13:20:30Z</time></trkpt><trkpt lat="45.541537735010664" lon="8.591197690928675"><ele>186.0</ele><time>2026-04-06T13:20:31Z</time></trkpt><trkpt lat="45.541554246339906" lon="8.59130216117846"><ele>186.0</ele><time>2026-04-06T13:20:32Z</time></trkpt><trkpt lat="45.54156713550638" lon="8.59140383409612"><ele>186.0</ele><time>2026-04-06T13:20:33Z</time></trkpt><trkpt lat="45.541584546140705" lon="8.591503176465817"><ele>186.0</ele><time>2026-04-06T13:20:34Z</time></trkpt><trkpt lat="45.54158304407333" lon="8.591603771742639"><ele>186.0</ele><time>2026-04-06T13:20:35Z</time></trkpt><trkpt lat="45.54161911702935" lon="8.591755495942307"><ele>186.0</ele><time>2026-04-06T13:20:37Z</time></trkpt><trkpt lat="45.54162685239088" lon="8.591868192578135"><ele>186.0</ele><time>2026-04-06T13:20:39Z</time></trkpt><trkpt lat="45.54164575940185" lon="8.591955995874368"><ele>186.0</ele><time>2026-04-06T13:20:41Z</time></trkpt><trkpt lat="45.54166872876879" lon="8.592051398238324"><ele>186.0</ele><time>2026-04-06T13:20:44Z</time></trkpt><trkpt lat="45.54207019488854" lon="8.592185371469235"><ele>186.60000000000002</ele><time>2026-04-06T13:21:06Z</time></trkpt><trkpt lat="45.54216415126951" lon="8.592226040305645"><ele>187.2</ele><time>2026-04-06T13:21:07Z</time></trkpt><trkpt lat="45.542249978507414" lon="8.592257685104833"><ele>187.8</ele><time>2026-04-06T13:21:08Z</time></trkpt><trkpt lat="45.5423409787754" lon="8.59229372400356"><ele>188.39999999999998</ele><time>2026-04-06T13:21:09Z</time></trkpt><trkpt lat="45.54242597768763" lon="8.592328188365048"><ele>189.0</ele><time>2026-04-06T13:21:10Z</time></trkpt><trkpt lat="45.54251444924334" lon="8.592356119762325"><ele>189.0</ele><time>2026-04-06T13:21:11Z</time></trkpt><trkpt lat="45.54258689542119" lon="8.592375737476452"><ele>189.0</ele><time>2026-04-06T13:21:12Z</time></trkpt><trkpt lat="45.54264987099974" lon="8.592396794322188"><ele>189.0</ele><time>2026-04-06T13:21:13Z</time></trkpt><trkpt lat="45.542714355639156" lon="8.592419484476773"><ele>189.0</ele><time>2026-04-06T13:21:14Z</time></trkpt><trkpt lat="45.54283341930233" lon="8.592471226217329"><ele>189.0</ele><time>2026-04-06T13:21:16Z</time></trkpt><trkpt lat="45.542896074720204" lon="8.592495291310845"><ele>189.0</ele><time>2026-04-06T13:21:17Z</time></trkpt><trkpt lat="45.542958592540366" lon="8.59251218401944"><ele>189.14285714285714</ele><time>2026-04-06T13:21:18Z</time></trkpt><trkpt lat="45.54302339712682" lon="8.592528940123522"><ele>189.28571428571428</ele><time>2026-04-06T13:21:19Z</time></trkpt><trkpt lat="45.54308622501742" lon="8.59255900262513"><ele>189.42857142857144</ele><time>2026-04-06T13:21:20Z</time></trkpt><trkpt lat="45.543150688008524" lon="8.592584677804153"><ele>189.57142857142856</ele><time>2026-04-06T13:21:21Z</time></trkpt><trkpt lat="45.54321700503495" lon="8.59260948200162"><ele>189.71428571428572</ele><time>2026-04-06T13:21:22Z</time></trkpt><trkpt lat="45.5432851292639" lon="8.592632334742273"><ele>189.85714285714286</ele><time>2026-04-06T13:21:23Z</time></trkpt><trkpt lat="45.543352782605254" lon="8.592655840994029"><ele>190.0</ele><time>2026-04-06T13:21:24Z</time></trkpt><trkpt lat="45.5434237872419" lon="8.592677303216842"><ele>190.0</ele><time>2026-04-06T13:21:25Z</time></trkpt><trkpt lat="45.543491393018215" lon="8.592698406774563"><ele>190.0</ele><time>2026-04-06T13:21:26Z</time></trkpt><trkpt lat="45.543552526232475" lon="8.592722033454947"><ele>190.0</ele><time>2026-04-06T13:21:27Z</time></trkpt><trkpt lat="45.5436148253372" lon="8.592747236658218"><ele>190.0</ele><time>2026-04-06T13:21:28Z</time></trkpt><trkpt lat="45.543680873395374" lon="8.592769104446619"><ele>190.0</ele><time>2026-04-06T13:21:29Z</time></trkpt><trkpt lat="45.5437505190285" lon="8.592787753430565"><ele>190.0</ele><time>2026-04-06T13:21:30Z</time></trkpt><trkpt lat="45.54381844062943" lon="8.592803104798316"><ele>190.0</ele><time>2026-04-06T13:21:31Z</time></trkpt><trkpt lat="45.543883519364684" lon="8.592829049118345"><ele>189.85714285714286</ele><time>2026-04-06T13:21:32Z</time></trkpt><trkpt lat="45.54395303155821" lon="8.592861186429202"><ele>189.71428571428572</ele><time>2026-04-06T13:21:33Z</time></trkpt><trkpt lat="45.5440229465576" lon="8.592882609257307"><ele>189.57142857142856</ele><time>2026-04-06T13:21:34Z</time></trkpt><trkpt lat="45.5440917003198" lon="8.592904530859917"><ele>189.42857142857144</ele><time>2026-04-06T13:21:35Z</time></trkpt><trkpt lat="45.54416355759172" lon="8.592921505781401"><ele>189.28571428571428</ele><time>2026-04-06T13:21:36Z</time></trkpt><trkpt lat="45.544231977716144" lon="8.592943197691827"><ele>189.14285714285714</ele><time>2026-04-06T13:21:37Z</time></trkpt><trkpt lat="45.54430018443328" lon="8.592973322601258"><ele>189.0</ele><time>2026-04-06T13:21:38Z</time></trkpt><trkpt lat="45.54436965095261" lon="8.593003249536782"><ele>189.0</ele><time>2026-04-06T13:21:39Z</time></trkpt><trkpt lat="45.54443924465734" lon="8.593023767145448"><ele>189.0</ele><time>2026-04-06T13:21:40Z</time></trkpt><trkpt lat="45.54451219595921" lon="8.593047579236883"><ele>189.0</ele><time>2026-04-06T13:21:41Z</time></trkpt><trkpt lat="45.54457803678805" lon="8.593070412557697"><ele>189.0</ele><time>2026-04-06T13:21:42Z</time></trkpt><trkpt lat="45.54464316435684" lon="8.593094719754419"><ele>189.0</ele><time>2026-04-06T13:21:43Z</time></trkpt><trkpt lat="45.54477300791297" lon="8.59313756274356"><ele>189.0</ele><time>2026-04-06T13:21:45Z</time></trkpt><trkpt lat="45.54483890961337" lon="8.593154377294569"><ele>189.33333333333334</ele><time>2026-04-06T13:21:46Z</time></trkpt><trkpt lat="45.54490365475475" lon="8.593175408018022"><ele>189.66666666666666</ele><time>2026-04-06T13:21:47Z</time></trkpt><trkpt lat="45.54498151288094" lon="8.593221872085767"><ele>190.0</ele><time>2026-04-06T13:21:49Z</time></trkpt><trkpt lat="45.545033677959815" lon="8.593351273837632"><ele>190.33333333333331</ele><time>2026-04-06T13:21:51Z</time></trkpt><trkpt lat="45.54505772018807" lon="8.59346253996351"><ele>190.66666666666666</ele><time>2026-04-06T13:21:52Z</time></trkpt><trkpt lat="45.545088768393555" lon="8.593591632197358"><ele>191.0</ele><time>2026-04-06T13:21:53Z</time></trkpt><trkpt lat="45.54511702800737" lon="8.593702702182332"><ele>191.0</ele><time>2026-04-06T13:21:54Z</time></trkpt><trkpt lat="45.54514309475055" lon="8.593809441090457"><ele>191.0</ele><time>2026-04-06T13:21:55Z</time></trkpt><trkpt lat="45.54516139188432" lon="8.593901411867167"><ele>191.0</ele><time>2026-04-06T13:21:56Z</time></trkpt><trkpt lat="45.54518512646486" lon="8.593999796874128"><ele>191.0</ele><time>2026-04-06T13:21:57Z</time></trkpt><trkpt lat="45.54521215468775" lon="8.594093996770416"><ele>191.0</ele><time>2026-04-06T13:21:58Z</time></trkpt><trkpt lat="45.54523431904082" lon="8.594193106372229"><ele>191.0</ele><time>2026-04-06T13:21:59Z</time></trkpt><trkpt lat="45.54525338708926" lon="8.59428845161255"><ele>191.0</ele><time>2026-04-06T13:22:00Z</time></trkpt><trkpt lat="45.54526587250992" lon="8.59437943816023"><ele>191.0</ele><time>2026-04-06T13:22:01Z</time></trkpt><trkpt lat="45.54527212951149" lon="8.594479239977773"><ele>191.0</ele><time>2026-04-06T13:22:02Z</time></trkpt><trkpt lat="45.545279083354885" lon="8.594579104114034"><ele>191.0</ele><time>2026-04-06T13:22:03Z</time></trkpt><trkpt lat="45.54528786192268" lon="8.594755234341243"><ele>191.0</ele><time>2026-04-06T13:22:05Z</time></trkpt><trkpt lat="45.54531322449093" lon="8.59488708523892"><ele>191.0</ele><time>2026-04-06T13:22:07Z</time></trkpt><trkpt lat="45.54537601163382" lon="8.594955028324923"><ele>191.0</ele><time>2026-04-06T13:22:09Z</time></trkpt><trkpt lat="45.545487284602416" lon="8.594950881220505"><ele>190.83333333333331</ele><time>2026-04-06T13:22:11Z</time></trkpt><trkpt lat="45.54556139027208" lon="8.594950193682633"><ele>190.66666666666666</ele><time>2026-04-06T13:22:12Z</time></trkpt><trkpt lat="45.54564071010919" lon="8.594960184946101"><ele>190.5</ele><time>2026-04-06T13:22:13Z</time></trkpt><trkpt lat="45.54573270274328" lon="8.594975093659464"><ele>190.33333333333334</ele><time>2026-04-06T13:22:14Z</time></trkpt><trkpt lat="45.54581662481284" lon="8.594995988906136"><ele>190.16666666666669</ele><time>2026-04-06T13:22:15Z</time></trkpt><trkpt lat="45.54589471305903" lon="8.59500908262454"><ele>190.0</ele><time>2026-04-06T13:22:16Z</time></trkpt><trkpt lat="45.54597140333314" lon="8.595027108682645"><ele>190.0</ele><time>2026-04-06T13:22:17Z</time></trkpt><trkpt lat="45.5460475991927" lon="8.595040598481294"><ele>190.0</ele><time>2026-04-06T13:22:18Z</time></trkpt><trkpt lat="45.54611886578161" lon="8.595052813550343"><ele>190.0</ele><time>2026-04-06T13:22:19Z</time></trkpt><trkpt lat="45.546198421635026" lon="8.595066591258922"><ele>190.0</ele><time>2026-04-06T13:22:20Z</time></trkpt><trkpt lat="45.54627802222544" lon="8.595078342990677"><ele>190.0</ele><time>2026-04-06T13:22:21Z</time></trkpt><trkpt lat="45.54635647064089" lon="8.595089376465006"><ele>190.0</ele><time>2026-04-06T13:22:22Z</time></trkpt><trkpt lat="45.54643659975416" lon="8.595104788712364"><ele>190.16666666666669</ele><time>2026-04-06T13:22:22.999Z</time></trkpt><trkpt lat="45.54651680267663" lon="8.595119680750628"><ele>190.33333333333334</ele><time>2026-04-06T13:22:23.999Z</time></trkpt><trkpt lat="45.54659696045615" lon="8.595134718922473"><ele>190.5</ele><time>2026-04-06T13:22:24.999Z</time></trkpt><trkpt lat="45.54666659070199" lon="8.595148349671522"><ele>190.66666666666666</ele><time>2026-04-06T13:22:25.999Z</time></trkpt><trkpt lat="45.54674006165111" lon="8.595164733264568"><ele>190.83333333333331</ele><time>2026-04-06T13:22:26.999Z</time></trkpt><trkpt lat="45.54681405733664" lon="8.595174822990241"><ele>191.0</ele><time>2026-04-06T13:22:27.999Z</time></trkpt><trkpt lat="45.54689345075782" lon="8.595193805737042"><ele>191.0</ele><time>2026-04-06T13:22:29Z</time></trkpt><trkpt lat="45.54695782309362" lon="8.595201436677426"><ele>191.0</ele><time>2026-04-06T13:22:30Z</time></trkpt><trkpt lat="45.54702090774173" lon="8.59521279668493"><ele>191.0</ele><time>2026-04-06T13:22:31Z</time></trkpt><trkpt lat="45.5470938849887" lon="8.595225098878405"><ele>191.0</ele><time>2026-04-06T13:22:32Z</time></trkpt><trkpt lat="45.54716010311968" lon="8.595244557637352"><ele>191.0</ele><time>2026-04-06T13:22:33Z</time></trkpt><trkpt lat="45.54724141949952" lon="8.595259087087701"><ele>191.0</ele><time>2026-04-06T13:22:35Z</time></trkpt><trkpt lat="45.54729023435422" lon="8.59514033472105"><ele>191.0</ele><time>2026-04-06T13:22:38Z</time></trkpt><trkpt lat="45.54726688160121" lon="8.59502193246433"><ele>192.4</ele><time>2026-04-06T13:22:40Z</time></trkpt><trkpt lat="45.54724693605803" lon="8.594926967846664"><ele>193.8</ele><time>2026-04-06T13:22:42Z</time></trkpt><trkpt lat="45.5472791587713" lon="8.594823569391869"><ele>195.20000000000002</ele><time>2026-04-06T13:22:44Z</time></trkpt><trkpt lat="45.54737710448442" lon="8.59481085065807"><ele>196.60000000000002</ele><time>2026-04-06T13:22:46Z</time></trkpt><trkpt lat="45.54747658384528" lon="8.594841428832797"><ele>198.0</ele><time>2026-04-06T13:22:48Z</time></trkpt><trkpt lat="45.54759843119123" lon="8.594857886745379"><ele>198.0</ele><time>2026-04-06T13:22:55Z</time></trkpt><trkpt lat="45.547661458317144" lon="8.5948743225402"><ele>198.0</ele><time>2026-04-06T13:22:56Z</time></trkpt><trkpt lat="45.54776492429049" lon="8.594890087256037"><ele>198.0</ele><time>2026-04-06T13:22:58Z</time></trkpt><trkpt lat="45.54785540012711" lon="8.594898106817025"><ele>198.0</ele><time>2026-04-06T13:23:00Z</time></trkpt><trkpt lat="45.54793852717313" lon="8.594906433061539"><ele>198.0</ele><time>2026-04-06T13:23:02Z</time></trkpt><trkpt lat="45.54802598967136" lon="8.594886151356636"><ele>198.0</ele><time>2026-04-06T13:23:04Z</time></trkpt><trkpt lat="45.54811672970951" lon="8.594840805750549"><ele>197.0</ele><time>2026-04-06T13:23:06Z</time></trkpt><trkpt lat="45.54822306381027" lon="8.59481474183733"><ele>196.0</ele><time>2026-04-06T13:23:08Z</time></trkpt><trkpt lat="45.54833322223017" lon="8.594826342964843"><ele>195.0</ele><time>2026-04-06T13:23:10Z</time></trkpt><trkpt lat="45.54844213791922" lon="8.594816890479457"><ele>194.0</ele><time>2026-04-06T13:23:12Z</time></trkpt><trkpt lat="45.548561176679875" lon="8.594790156732039"><ele>193.0</ele><time>2026-04-06T13:23:14Z</time></trkpt><trkpt lat="45.548633004090796" lon="8.594765625265033"><ele>193.0</ele><time>2026-04-06T13:23:15Z</time></trkpt><trkpt lat="45.54872806822246" lon="8.594727506143027"><ele>193.0</ele><time>2026-04-06T13:23:16Z</time></trkpt><trkpt lat="45.548808683280086" lon="8.594704161856681"><ele>193.0</ele><time>2026-04-06T13:23:17Z</time></trkpt><trkpt lat="45.54892291443744" lon="8.594660292754027"><ele>193.0</ele><time>2026-04-06T13:23:19Z</time></trkpt><trkpt lat="45.549043484282755" lon="8.594618817279576"><ele>193.0</ele><time>2026-04-06T13:23:21Z</time></trkpt><trkpt lat="45.54914732323983" lon="8.59457861100414"><ele>193.0</ele><time>2026-04-06T13:23:23Z</time></trkpt><trkpt lat="45.54921957250229" lon="8.594550336542255"><ele>193.0</ele><time>2026-04-06T13:23:25Z</time></trkpt><trkpt lat="45.549320384463286" lon="8.59450941385408"><ele>193.0</ele><time>2026-04-06T13:23:27Z</time></trkpt><trkpt lat="45.54942534588104" lon="8.594467327180363"><ele>193.0</ele><time>2026-04-06T13:23:29Z</time></trkpt><trkpt lat="45.54952656938092" lon="8.594421697225744"><ele>193.0</ele><time>2026-04-06T13:23:31Z</time></trkpt><trkpt lat="45.54963014083549" lon="8.594373440819806"><ele>192.5</ele><time>2026-04-06T13:23:33Z</time></trkpt><trkpt lat="45.54974773367619" lon="8.594321908125824"><ele>192.0</ele><time>2026-04-06T13:23:35Z</time></trkpt><trkpt lat="45.54985280873658" lon="8.594268450075337"><ele>191.5</ele><time>2026-04-06T13:23:37Z</time></trkpt><trkpt lat="45.54995884901553" lon="8.594218878757424"><ele>191.0</ele><time>2026-04-06T13:23:39Z</time></trkpt><trkpt lat="45.55007897972727" lon="8.594164382443513"><ele>191.0</ele><time>2026-04-06T13:23:41Z</time></trkpt><trkpt lat="45.550198970862915" lon="8.594103097653635"><ele>191.0</ele><time>2026-04-06T13:23:43Z</time></trkpt><trkpt lat="45.550257383838556" lon="8.594069465568317"><ele>191.0</ele><time>2026-04-06T13:23:44Z</time></trkpt><trkpt lat="45.55031846056608" lon="8.594033931066262"><ele>191.0</ele><time>2026-04-06T13:23:45Z</time></trkpt><trkpt lat="45.55042335858966" lon="8.593976669453843"><ele>191.0</ele><time>2026-04-06T13:23:47Z</time></trkpt><trkpt lat="45.550545743156206" lon="8.593904095814047"><ele>191.16666666666666</ele><time>2026-04-06T13:23:49Z</time></trkpt><trkpt lat="45.55062581212957" lon="8.593860757691855"><ele>191.33333333333331</ele><time>2026-04-06T13:23:50Z</time></trkpt><trkpt lat="45.55070179440288" lon="8.593818870727091"><ele>191.5</ele><time>2026-04-06T13:23:51Z</time></trkpt><trkpt lat="45.550774167889045" lon="8.593775400272655"><ele>191.66666666666666</ele><time>2026-04-06T13:23:52Z</time></trkpt><trkpt lat="45.550835236854866" lon="8.593746306116731"><ele>191.83333333333334</ele><time>2026-04-06T13:23:53Z</time></trkpt><trkpt lat="45.55092672566025" lon="8.593698841024057"><ele>192.0</ele><time>2026-04-06T13:23:55Z</time></trkpt><trkpt lat="45.551040163094456" lon="8.593631466956973"><ele>192.33333333333334</ele><time>2026-04-06T13:23:57Z</time></trkpt><trkpt lat="45.55110758582036" lon="8.593594005337035"><ele>192.66666666666669</ele><time>2026-04-06T13:23:58Z</time></trkpt><trkpt lat="45.55117741774216" lon="8.593557529102577"><ele>193.0</ele><time>2026-04-06T13:23:59Z</time></trkpt><trkpt lat="45.5512378925609" lon="8.593526317701585"><ele>193.33333333333334</ele><time>2026-04-06T13:24:00Z</time></trkpt><trkpt lat="45.55130044471519" lon="8.593495601514116"><ele>193.66666666666669</ele><time>2026-04-06T13:24:01Z</time></trkpt><trkpt lat="45.551421491155736" lon="8.593448863541653"><ele>194.0</ele><time>2026-04-06T13:24:03Z</time></trkpt><trkpt lat="45.55152946736216" lon="8.593384832846828"><ele>194.0</ele><time>2026-04-06T13:24:05Z</time></trkpt><trkpt lat="45.5515915414022" lon="8.593266616522959"><ele>194.0</ele><time>2026-04-06T13:24:07Z</time></trkpt><trkpt lat="45.551616384194" lon="8.59311165906859"><ele>194.0</ele><time>2026-04-06T13:24:09Z</time></trkpt><trkpt lat="45.55171080137893" lon="8.59298932322616"><ele>194.0</ele><time>2026-04-06T13:24:11Z</time></trkpt><trkpt lat="45.55179114087571" lon="8.592935424493838"><ele>194.0</ele><time>2026-04-06T13:24:12Z</time></trkpt><trkpt lat="45.5518918753858" lon="8.592872509594617"><ele>194.0</ele><time>2026-04-06T13:24:13Z</time></trkpt><trkpt lat="45.55199054453283" lon="8.592802297398835"><ele>194.0</ele><time>2026-04-06T13:24:14Z</time></trkpt><trkpt lat="45.55207552452766" lon="8.592745225107388"><ele>194.0</ele><time>2026-04-06T13:24:15Z</time></trkpt><trkpt lat="45.55216057770063" lon="8.592689012564101"><ele>194.0</ele><time>2026-04-06T13:24:16Z</time></trkpt><trkpt lat="45.552231991422396" lon="8.592627919725569"><ele>194.0</ele><time>2026-04-06T13:24:17Z</time></trkpt><trkpt lat="45.552294255518284" lon="8.592580074913906"><ele>194.0</ele><time>2026-04-06T13:24:18Z</time></trkpt><trkpt lat="45.552394208629565" lon="8.592494270442812"><ele>194.0</ele><time>2026-04-06T13:24:20Z</time></trkpt><trkpt lat="45.55248967654262" lon="8.592403720220204"><ele>194.0</ele><time>2026-04-06T13:24:22Z</time></trkpt><trkpt lat="45.552570722037224" lon="8.59235123822752"><ele>194.0</ele><time>2026-04-06T13:24:24Z</time></trkpt><trkpt lat="45.5526405294106" lon="8.592361388848301"><ele>194.0</ele><time>2026-04-06T13:24:26Z</time></trkpt><trkpt lat="45.55270418238976" lon="8.592415100248344"><ele>194.0</ele><time>2026-04-06T13:24:29.999Z</time></trkpt><trkpt lat="45.55276757281951" lon="8.592356198203575"><ele>194.0</ele><time>2026-04-06T13:25:15Z</time></trkpt><trkpt lat="45.55283544788423" lon="8.59224440838234"><ele>194.0</ele><time>2026-04-06T13:25:17Z</time></trkpt><trkpt lat="45.552924288678135" lon="8.592138979932294"><ele>194.0</ele><time>2026-04-06T13:25:19Z</time></trkpt><trkpt lat="45.55301504075632" lon="8.592021461546777"><ele>194.0</ele><time>2026-04-06T13:25:21Z</time></trkpt><trkpt lat="45.55306548484091" lon="8.591959795296026"><ele>194.2</ele><time>2026-04-06T13:25:22Z</time></trkpt><trkpt lat="45.55315087092161" lon="8.591847856208318"><ele>194.39999999999998</ele><time>2026-04-06T13:25:24Z</time></trkpt><trkpt lat="45.55322659712783" lon="8.59175512873423"><ele>194.6</ele><time>2026-04-06T13:25:26Z</time></trkpt><trkpt lat="45.55331681551414" lon="8.59163980833081"><ele>194.8</ele><time>2026-04-06T13:25:28Z</time></trkpt><trkpt lat="45.553367257779065" lon="8.591570903286248"><ele>195.0</ele><time>2026-04-06T13:25:29Z</time></trkpt><trkpt lat="45.5534221727217" lon="8.591506586432596"><ele>195.0</ele><time>2026-04-06T13:25:30Z</time></trkpt><trkpt lat="45.55348205590075" lon="8.59143875604096"><ele>195.0</ele><time>2026-04-06T13:25:31Z</time></trkpt><trkpt lat="45.55354100748361" lon="8.591365006400045"><ele>195.0</ele><time>2026-04-06T13:25:32Z</time></trkpt><trkpt lat="45.55359565553724" lon="8.591294710622195"><ele>195.0</ele><time>2026-04-06T13:25:33Z</time></trkpt><trkpt lat="45.553653394905616" lon="8.591220539298456"><ele>195.0</ele><time>2026-04-06T13:25:34Z</time></trkpt><trkpt lat="45.55370947019931" lon="8.591146116555093"><ele>195.0</ele><time>2026-04-06T13:25:35Z</time></trkpt><trkpt lat="45.55376581291021" lon="8.591073999842472"><ele>195.0</ele><time>2026-04-06T13:25:36Z</time></trkpt><trkpt lat="45.553820962374395" lon="8.591004909533995"><ele>195.0</ele><time>2026-04-06T13:25:37Z</time></trkpt><trkpt lat="45.553877846672734" lon="8.590938018580964"><ele>195.0</ele><time>2026-04-06T13:25:38Z</time></trkpt><trkpt lat="45.55393054489514" lon="8.590871849187307"><ele>195.0</ele><time>2026-04-06T13:25:39Z</time></trkpt><trkpt lat="45.5539859039969" lon="8.59080983488032"><ele>195.0</ele><time>2026-04-06T13:25:40Z</time></trkpt><trkpt lat="45.55404105341844" lon="8.590743403276955"><ele>195.0</ele><time>2026-04-06T13:25:41Z</time></trkpt><trkpt lat="45.55409214579171" lon="8.590675783611827"><ele>195.0</ele><time>2026-04-06T13:25:42Z</time></trkpt><trkpt lat="45.554141150529986" lon="8.590609583730291"><ele>195.0</ele><time>2026-04-06T13:25:43Z</time></trkpt><trkpt lat="45.554201145180485" lon="8.590560975937322"><ele>195.0</ele><time>2026-04-06T13:25:44Z</time></trkpt><trkpt lat="45.554262571890874" lon="8.59050395848329"><ele>195.0</ele><time>2026-04-06T13:25:45Z</time></trkpt><trkpt lat="45.554319443236295" lon="8.590436345812186"><ele>195.0</ele><time>2026-04-06T13:25:46Z</time></trkpt><trkpt lat="45.554375848515555" lon="8.590363630023944"><ele>195.0</ele><time>2026-04-06T13:25:47Z</time></trkpt><trkpt lat="45.55443080593678" lon="8.590290200234541"><ele>195.0</ele><time>2026-04-06T13:25:48Z</time></trkpt><trkpt lat="45.55447650291411" lon="8.590204102695994"><ele>195.0</ele><time>2026-04-06T13:25:49Z</time></trkpt><trkpt lat="45.55453914700962" lon="8.590148364865643"><ele>195.66666666666666</ele><time>2026-04-06T13:25:50Z</time></trkpt><trkpt lat="45.554583831236066" lon="8.590060684735432"><ele>196.33333333333331</ele><time>2026-04-06T13:25:51Z</time></trkpt><trkpt lat="45.554637177874824" lon="8.589998307091886"><ele>197.0</ele><time>2026-04-06T13:25:52Z</time></trkpt><trkpt lat="45.554688079151866" lon="8.589928113690307"><ele>197.66666666666666</ele><time>2026-04-06T13:25:53Z</time></trkpt><trkpt lat="45.55475451878828" lon="8.589874976805852"><ele>198.33333333333331</ele><time>2026-04-06T13:25:54Z</time></trkpt><trkpt lat="45.55481590631271" lon="8.589799282292319"><ele>199.0</ele><time>2026-04-06T13:25:55Z</time></trkpt><trkpt lat="45.55487648499512" lon="8.589724585154435"><ele>198.99999999999997</ele><time>2026-04-06T13:25:56Z</time></trkpt><trkpt lat="45.554931562923734" lon="8.589635751820653"><ele>199.0</ele><time>2026-04-06T13:25:57Z</time></trkpt><trkpt lat="45.55498764057361" lon="8.589558720835877"><ele>199.0</ele><time>2026-04-06T13:25:58Z</time></trkpt><trkpt lat="45.55504637417276" lon="8.589485194768375"><ele>199.0</ele><time>2026-04-06T13:25:59Z</time></trkpt><trkpt lat="45.55510729563177" lon="8.589411604435295"><ele>198.99999999999997</ele><time>2026-04-06T13:26:00Z</time></trkpt><trkpt lat="45.555177465217675" lon="8.589328247210869"><ele>199.0</ele><time>2026-04-06T13:26:01Z</time></trkpt><trkpt lat="45.55524832298825" lon="8.589240906256698"><ele>198.6</ele><time>2026-04-06T13:26:02Z</time></trkpt><trkpt lat="45.55532158243838" lon="8.58915017831093"><ele>198.2</ele><time>2026-04-06T13:26:03Z</time></trkpt><trkpt lat="45.55539458189332" lon="8.589065581030509"><ele>197.79999999999998</ele><time>2026-04-06T13:26:04Z</time></trkpt><trkpt lat="45.55546507989541" lon="8.58898105113247"><ele>197.39999999999998</ele><time>2026-04-06T13:26:05Z</time></trkpt><trkpt lat="45.55553300185013" lon="8.588895940750138"><ele>197.0</ele><time>2026-04-06T13:26:06Z</time></trkpt><trkpt lat="45.55560717305488" lon="8.588826974500595"><ele>197.00000000000003</ele><time>2026-04-06T13:26:07Z</time></trkpt><trkpt lat="45.555668984748344" lon="8.588750634222976"><ele>197.0</ele><time>2026-04-06T13:26:08Z</time></trkpt><trkpt lat="45.555729966112985" lon="8.588675434603532"><ele>197.0</ele><time>2026-04-06T13:26:09Z</time></trkpt><trkpt lat="45.555788866071985" lon="8.58860281390985"><ele>197.0</ele><time>2026-04-06T13:26:10Z</time></trkpt><trkpt lat="45.55584885149547" lon="8.588528427678803"><ele>197.00000000000003</ele><time>2026-04-06T13:26:11Z</time></trkpt><trkpt lat="45.55590891090854" lon="8.588453785297142"><ele>197.0</ele><time>2026-04-06T13:26:12Z</time></trkpt><trkpt lat="45.55597068844719" lon="8.588377007628484"><ele>196.83333333333334</ele><time>2026-04-06T13:26:13Z</time></trkpt><trkpt lat="45.55603037849263" lon="8.588302824275855"><ele>196.66666666666669</ele><time>2026-04-06T13:26:14Z</time></trkpt><trkpt lat="45.55607244076133" lon="8.588219152082587"><ele>196.5</ele><time>2026-04-06T13:26:15Z</time></trkpt><trkpt lat="45.55613849066428" lon="8.588167956425593"><ele>196.33333333333331</ele><time>2026-04-06T13:26:16Z</time></trkpt><trkpt lat="45.556199844337826" lon="8.588091230438266"><ele>196.16666666666666</ele><time>2026-04-06T13:26:17Z</time></trkpt><trkpt lat="45.55625970244093" lon="8.58798497200265"><ele>196.0</ele><time>2026-04-06T13:26:18Z</time></trkpt><trkpt lat="45.55632899180116" lon="8.587904052260587"><ele>195.99999999999997</ele><time>2026-04-06T13:26:19Z</time></trkpt><trkpt lat="45.556394933286946" lon="8.58781552153228"><ele>196.0</ele><time>2026-04-06T13:26:20Z</time></trkpt><trkpt lat="45.55645603532808" lon="8.587740568548266"><ele>196.0</ele><time>2026-04-06T13:26:21Z</time></trkpt><trkpt lat="45.556515806603095" lon="8.587664957523666"><ele>196.0</ele><time>2026-04-06T13:26:22Z</time></trkpt><trkpt lat="45.55657665621224" lon="8.587578896931294"><ele>195.99999999999997</ele><time>2026-04-06T13:26:23Z</time></trkpt><trkpt lat="45.556638335286614" lon="8.587505785411686"><ele>196.0</ele><time>2026-04-06T13:26:24Z</time></trkpt><trkpt lat="45.55669688072533" lon="8.587427594664709"><ele>195.99999999999997</ele><time>2026-04-06T13:26:25Z</time></trkpt><trkpt lat="45.55675934911513" lon="8.58735715646273"><ele>196.0</ele><time>2026-04-06T13:26:26Z</time></trkpt><trkpt lat="45.55682029084662" lon="8.587281535194824"><ele>196.0</ele><time>2026-04-06T13:26:27Z</time></trkpt><trkpt lat="45.556889122353866" lon="8.5872209102657"><ele>196.0</ele><time>2026-04-06T13:26:28Z</time></trkpt><trkpt lat="45.55694056354509" lon="8.58713235030634"><ele>195.99999999999997</ele><time>2026-04-06T13:26:29Z</time></trkpt><trkpt lat="45.557002990029645" lon="8.587055586496387"><ele>196.0</ele><time>2026-04-06T13:26:30Z</time></trkpt><trkpt lat="45.55707734912638" lon="8.586993737419267"><ele>196.0</ele><time>2026-04-06T13:26:31Z</time></trkpt><trkpt lat="45.557131365107445" lon="8.586898832301474"><ele>196.0</ele><time>2026-04-06T13:26:32Z</time></trkpt><trkpt lat="45.55719636737027" lon="8.58682072178689"><ele>196.0</ele><time>2026-04-06T13:26:33Z</time></trkpt><trkpt lat="45.557263896445384" lon="8.586729289548003"><ele>196.0</ele><time>2026-04-06T13:26:34Z</time></trkpt><trkpt lat="45.55734186686437" lon="8.586656802153176"><ele>196.0</ele><time>2026-04-06T13:26:34.999Z</time></trkpt><trkpt lat="45.55740571310487" lon="8.586553408020759"><ele>195.99999999999997</ele><time>2026-04-06T13:26:35.999Z</time></trkpt><trkpt lat="45.5574807550097" lon="8.586458730684674"><ele>196.0</ele><time>2026-04-06T13:26:36.999Z</time></trkpt><trkpt lat="45.55755476955513" lon="8.58637296060333"><ele>196.0</ele><time>2026-04-06T13:26:37.999Z</time></trkpt><trkpt lat="45.55761995959127" lon="8.586295109115506"><ele>196.0</ele><time>2026-04-06T13:26:38.999Z</time></trkpt><trkpt lat="45.55768488410435" lon="8.586219549734611"><ele>195.99999999999997</ele><time>2026-04-06T13:26:39.999Z</time></trkpt><trkpt lat="45.557756245443585" lon="8.586163778374477"><ele>196.0</ele><time>2026-04-06T13:26:40.999Z</time></trkpt><trkpt lat="45.557819974502536" lon="8.586086925336113"><ele>196.16666666666666</ele><time>2026-04-06T13:26:41.999Z</time></trkpt><trkpt lat="45.55788222532493" lon="8.586011897798915"><ele>196.33333333333331</ele><time>2026-04-06T13:26:42.999Z</time></trkpt><trkpt lat="45.55794493723735" lon="8.585936426779806"><ele>196.5</ele><time>2026-04-06T13:26:43.999Z</time></trkpt><trkpt lat="45.55800256636503" lon="8.585867072654901"><ele>196.66666666666669</ele><time>2026-04-06T13:26:44.999Z</time></trkpt><trkpt lat="45.558063610152075" lon="8.585793066374587"><ele>196.83333333333334</ele><time>2026-04-06T13:26:45.999Z</time></trkpt><trkpt lat="45.558125447434655" lon="8.585716898974308"><ele>197.0</ele><time>2026-04-06T13:26:46.999Z</time></trkpt><trkpt lat="45.558190173554316" lon="8.585637173692588"><ele>197.0</ele><time>2026-04-06T13:26:47.999Z</time></trkpt><trkpt lat="45.5582613178589" lon="8.585549541963463"><ele>197.0</ele><time>2026-04-06T13:26:49Z</time></trkpt><trkpt lat="45.5583302863173" lon="8.585464590714707"><ele>197.0</ele><time>2026-04-06T13:26:50Z</time></trkpt><trkpt lat="45.558387813340175" lon="8.585393732840163"><ele>197.0</ele><time>2026-04-06T13:26:51Z</time></trkpt><trkpt lat="45.55848329812568" lon="8.585283321032906"><ele>197.0</ele><time>2026-04-06T13:26:53Z</time></trkpt><trkpt lat="45.558534364108624" lon="8.585213963462197"><ele>197.2</ele><time>2026-04-06T13:26:56Z</time></trkpt><trkpt lat="45.558607289004776" lon="8.585116668001252"><ele>197.39999999999998</ele><time>2026-04-06T13:27:00Z</time></trkpt><trkpt lat="45.558683346521356" lon="8.585035005359188"><ele>197.60000000000002</ele><time>2026-04-06T13:27:02Z</time></trkpt><trkpt lat="45.55876476196268" lon="8.584986780388355"><ele>197.8</ele><time>2026-04-06T13:27:04Z</time></trkpt><trkpt lat="45.558845840641965" lon="8.584924075190285"><ele>198.0</ele><time>2026-04-06T13:27:06Z</time></trkpt><trkpt lat="45.55893776895627" lon="8.584844138226826"><ele>198.25</ele><time>2026-04-06T13:27:08Z</time></trkpt><trkpt lat="45.559043000629856" lon="8.584762983049206"><ele>198.5</ele><time>2026-04-06T13:27:10Z</time></trkpt><trkpt lat="45.55915507171836" lon="8.584675806755461"><ele>198.75</ele><time>2026-04-06T13:27:12Z</time></trkpt><trkpt lat="45.55924829364174" lon="8.5845887750736"><ele>199.0</ele><time>2026-04-06T13:27:14Z</time></trkpt><trkpt lat="45.55939859048002" lon="8.58449694313479"><ele>199.0</ele><time>2026-04-06T13:27:16Z</time></trkpt><trkpt lat="45.55950534148272" lon="8.58442456779211"><ele>199.0</ele><time>2026-04-06T13:27:18Z</time></trkpt><trkpt lat="45.559605570366216" lon="8.584358508877639"><ele>199.0</ele><time>2026-04-06T13:27:20Z</time></trkpt><trkpt lat="45.559687516956856" lon="8.584302849671213"><ele>199.0</ele><time>2026-04-06T13:27:22Z</time></trkpt><trkpt lat="45.55974836418182" lon="8.584259648547116"><ele>199.0</ele><time>2026-04-06T13:27:24Z</time></trkpt><trkpt lat="45.55982434913807" lon="8.584237678748346"><ele>199.33333333333331</ele><time>2026-04-06T13:27:35Z</time></trkpt><trkpt lat="45.559860074815994" lon="8.5843580341916"><ele>199.66666666666666</ele><time>2026-04-06T13:27:36Z</time></trkpt><trkpt lat="45.55990959736749" lon="8.584431602261937"><ele>200.0</ele><time>2026-04-06T13:27:37Z</time></trkpt><trkpt lat="45.559955246471766" lon="8.584536672572865"><ele>200.33333333333331</ele><time>2026-04-06T13:27:38Z</time></trkpt><trkpt lat="45.560006899087945" lon="8.584645734516883"><ele>200.66666666666666</ele><time>2026-04-06T13:27:39Z</time></trkpt><trkpt lat="45.56005647057607" lon="8.584746416359533"><ele>201.0</ele><time>2026-04-06T13:27:40Z</time></trkpt><trkpt lat="45.560104329337506" lon="8.58484760275352"><ele>201.0</ele><time>2026-04-06T13:27:41Z</time></trkpt><trkpt lat="45.56015352105543" lon="8.584950407528819"><ele>201.0</ele><time>2026-04-06T13:27:42Z</time></trkpt><trkpt lat="45.56020540942055" lon="8.585045997997572"><ele>201.0</ele><time>2026-04-06T13:27:43Z</time></trkpt><trkpt lat="45.56026466388449" lon="8.585140675777748"><ele>201.0</ele><time>2026-04-06T13:27:44Z</time></trkpt><trkpt lat="45.560329015216446" lon="8.585250634792379"><ele>201.0</ele><time>2026-04-06T13:27:45Z</time></trkpt><trkpt lat="45.56041478227248" lon="8.58536011916081"><ele>200.75</ele><time>2026-04-06T13:27:46Z</time></trkpt><trkpt lat="45.56051300727151" lon="8.58547343153144"><ele>200.5</ele><time>2026-04-06T13:27:47Z</time></trkpt><trkpt lat="45.56060886411562" lon="8.585597220952648"><ele>200.25</ele><time>2026-04-06T13:27:48Z</time></trkpt><trkpt lat="45.5606826646441" lon="8.585711562494076"><ele>200.0</ele><time>2026-04-06T13:27:49Z</time></trkpt><trkpt lat="45.56075384742181" lon="8.585807854475236"><ele>200.0</ele><time>2026-04-06T13:27:50Z</time></trkpt><trkpt lat="45.56082135208067" lon="8.58589589311034"><ele>200.0</ele><time>2026-04-06T13:27:51Z</time></trkpt><trkpt lat="45.56089290568932" lon="8.58598121018369"><ele>200.0</ele><time>2026-04-06T13:27:52Z</time></trkpt><trkpt lat="45.56096635443635" lon="8.586071439691256"><ele>200.0</ele><time>2026-04-06T13:27:53Z</time></trkpt><trkpt lat="45.561038520465395" lon="8.586165833590716"><ele>200.0</ele><time>2026-04-06T13:27:54Z</time></trkpt><trkpt lat="45.56110959569026" lon="8.586265662924662"><ele>200.2</ele><time>2026-04-06T13:27:55Z</time></trkpt><trkpt lat="45.56117264008074" lon="8.58636398043635"><ele>200.4</ele><time>2026-04-06T13:27:56Z</time></trkpt><trkpt lat="45.56122793355747" lon="8.586463477148435"><ele>200.60000000000002</ele><time>2026-04-06T13:27:57Z</time></trkpt><trkpt lat="45.56127902893277" lon="8.586569911041176"><ele>200.8</ele><time>2026-04-06T13:27:58Z</time></trkpt><trkpt lat="45.561327895394804" lon="8.586680854576862"><ele>201.0</ele><time>2026-04-06T13:27:59Z</time></trkpt><trkpt lat="45.56138102538906" lon="8.586794388739943"><ele>201.0</ele><time>2026-04-06T13:28:00Z</time></trkpt><trkpt lat="45.561432231230896" lon="8.586910258210484"><ele>201.0</ele><time>2026-04-06T13:28:01Z</time></trkpt><trkpt lat="45.561484342171866" lon="8.58703320087576"><ele>201.0</ele><time>2026-04-06T13:28:02Z</time></trkpt><trkpt lat="45.56153636093164" lon="8.587148549871806"><ele>201.0</ele><time>2026-04-06T13:28:03Z</time></trkpt><trkpt lat="45.56158783424919" lon="8.587254215857206"><ele>201.0</ele><time>2026-04-06T13:28:04Z</time></trkpt><trkpt lat="45.56163651047443" lon="8.587356451679247"><ele>201.16666666666666</ele><time>2026-04-06T13:28:05Z</time></trkpt><trkpt lat="45.56168705851233" lon="8.58745776465013"><ele>201.33333333333331</ele><time>2026-04-06T13:28:06Z</time></trkpt><trkpt lat="45.56173669102119" lon="8.587565267524752"><ele>201.5</ele><time>2026-04-06T13:28:07Z</time></trkpt><trkpt lat="45.56178569957478" lon="8.587669069232653"><ele>201.66666666666666</ele><time>2026-04-06T13:28:08Z</time></trkpt><trkpt lat="45.56183572172522" lon="8.587781705253063"><ele>201.83333333333331</ele><time>2026-04-06T13:28:09Z</time></trkpt><trkpt lat="45.56188215323302" lon="8.587891431957313"><ele>202.0</ele><time>2026-04-06T13:28:10Z</time></trkpt><trkpt lat="45.5619317364588" lon="8.588001647989023"><ele>202.16666666666666</ele><time>2026-04-06T13:28:11Z</time></trkpt><trkpt lat="45.56197928539323" lon="8.58810546571833"><ele>202.33333333333331</ele><time>2026-04-06T13:28:12Z</time></trkpt><trkpt lat="45.56203305535508" lon="8.588216137629002"><ele>202.5</ele><time>2026-04-06T13:28:13Z</time></trkpt><trkpt lat="45.562078678149206" lon="8.588321454051512"><ele>202.66666666666669</ele><time>2026-04-06T13:28:14Z</time></trkpt><trkpt lat="45.56212536126516" lon="8.588430714042568"><ele>202.83333333333334</ele><time>2026-04-06T13:28:15Z</time></trkpt><trkpt lat="45.562173179918105" lon="8.58854088948128"><ele>203.0</ele><time>2026-04-06T13:28:16Z</time></trkpt><trkpt lat="45.562221437927604" lon="8.588649607213396"><ele>203.00000000000003</ele><time>2026-04-06T13:28:17Z</time></trkpt><trkpt lat="45.562270152620556" lon="8.588758222708387"><ele>203.0</ele><time>2026-04-06T13:28:18Z</time></trkpt><trkpt lat="45.562314338524274" lon="8.588868360632336"><ele>203.0</ele><time>2026-04-06T13:28:19Z</time></trkpt><trkpt lat="45.5623687205707" lon="8.588977022493207"><ele>203.0</ele><time>2026-04-06T13:28:20Z</time></trkpt><trkpt lat="45.56241884740235" lon="8.589078987469911"><ele>203.00000000000003</ele><time>2026-04-06T13:28:21Z</time></trkpt><trkpt lat="45.56246154184953" lon="8.589178727675401"><ele>203.0</ele><time>2026-04-06T13:28:22Z</time></trkpt><trkpt lat="45.56250684826094" lon="8.589282038209454"><ele>203.00000000000003</ele><time>2026-04-06T13:28:23Z</time></trkpt><trkpt lat="45.56255704433584" lon="8.589395036434407"><ele>203.0</ele><time>2026-04-06T13:28:24Z</time></trkpt><trkpt lat="45.56260388057384" lon="8.589508994301477"><ele>203.0</ele><time>2026-04-06T13:28:25Z</time></trkpt><trkpt lat="45.56264704204207" lon="8.589610982433024"><ele>203.0</ele><time>2026-04-06T13:28:26Z</time></trkpt><trkpt lat="45.5626864025504" lon="8.589706260865851"><ele>203.00000000000003</ele><time>2026-04-06T13:28:27Z</time></trkpt><trkpt lat="45.56273088711826" lon="8.589781714389378"><ele>203.0</ele><time>2026-04-06T13:28:28Z</time></trkpt><trkpt lat="45.56281516565667" lon="8.589851838827547"><ele>202.8</ele><time>2026-04-06T13:28:30Z</time></trkpt><trkpt lat="45.56292068165813" lon="8.589827423484042"><ele>202.60000000000002</ele><time>2026-04-06T13:28:32Z</time></trkpt><trkpt lat="45.56299024824296" lon="8.58978419921708"><ele>202.39999999999998</ele><time>2026-04-06T13:28:33Z</time></trkpt><trkpt lat="45.56309048174316" lon="8.58974133692996"><ele>202.2</ele><time>2026-04-06T13:28:34Z</time></trkpt><trkpt lat="45.563207182677445" lon="8.589653475317991"><ele>202.0</ele><time>2026-04-06T13:28:35Z</time></trkpt><trkpt lat="45.56332447809811" lon="8.589544978985508"><ele>201.6</ele><time>2026-04-06T13:28:36Z</time></trkpt><trkpt lat="45.56344483552243" lon="8.589466882001204"><ele>201.2</ele><time>2026-04-06T13:28:37Z</time></trkpt><trkpt lat="45.563545113771866" lon="8.589399994155325"><ele>200.8</ele><time>2026-04-06T13:28:38Z</time></trkpt><trkpt lat="45.56363535901701" lon="8.589339813787268"><ele>200.4</ele><time>2026-04-06T13:28:39Z</time></trkpt><trkpt lat="45.56372807757294" lon="8.589281547045765"><ele>200.0</ele><time>2026-04-06T13:28:40Z</time></trkpt><trkpt lat="45.56382339248766" lon="8.589231773412983"><ele>199.83333333333334</ele><time>2026-04-06T13:28:41Z</time></trkpt><trkpt lat="45.5639102534058" lon="8.589177330546056"><ele>199.66666666666669</ele><time>2026-04-06T13:28:42Z</time></trkpt><trkpt lat="45.563996295643406" lon="8.589130331886757"><ele>199.5</ele><time>2026-04-06T13:28:43Z</time></trkpt><trkpt lat="45.56408070115623" lon="8.58908111076507"><ele>199.33333333333331</ele><time>2026-04-06T13:28:44Z</time></trkpt><trkpt lat="45.564160002537875" lon="8.58903505712346"><ele>199.16666666666666</ele><time>2026-04-06T13:28:45Z</time></trkpt><trkpt lat="45.564237983189805" lon="8.588996312432041"><ele>199.0</ele><time>2026-04-06T13:28:46Z</time></trkpt><trkpt lat="45.56432361915341" lon="8.588944376110208"><ele>199.0</ele><time>2026-04-06T13:28:47Z</time></trkpt><trkpt lat="45.56441573144407" lon="8.588898589219886"><ele>199.0</ele><time>2026-04-06T13:28:48Z</time></trkpt><trkpt lat="45.56451247333484" lon="8.588852592445239"><ele>199.0</ele><time>2026-04-06T13:28:49Z</time></trkpt><trkpt lat="45.56462226162196" lon="8.588789380119207"><ele>199.0</ele><time>2026-04-06T13:28:50Z</time></trkpt><trkpt lat="45.56473014125972" lon="8.588732913419701"><ele>199.0</ele><time>2026-04-06T13:28:51Z</time></trkpt><trkpt lat="45.56482937814742" lon="8.588682178973666"><ele>199.16666666666666</ele><time>2026-04-06T13:28:52Z</time></trkpt><trkpt lat="45.56491285771649" lon="8.588631985789767"><ele>199.33333333333331</ele><time>2026-04-06T13:28:53Z</time></trkpt><trkpt lat="45.56499631713703" lon="8.588583499086027"><ele>199.5</ele><time>2026-04-06T13:28:54Z</time></trkpt><trkpt lat="45.56507715496353" lon="8.588537474132842"><ele>199.66666666666669</ele><time>2026-04-06T13:28:55Z</time></trkpt><trkpt lat="45.565161305212264" lon="8.588493243456597"><ele>199.83333333333334</ele><time>2026-04-06T13:28:56Z</time></trkpt><trkpt lat="45.56523673401162" lon="8.58845132504686"><ele>200.0</ele><time>2026-04-06T13:28:56.999Z</time></trkpt><trkpt lat="45.56531033884029" lon="8.588410922509453"><ele>200.0</ele><time>2026-04-06T13:28:57.999Z</time></trkpt><trkpt lat="45.565377299962" lon="8.5883844067498"><ele>200.0</ele><time>2026-04-06T13:28:58.999Z</time></trkpt><trkpt lat="45.56548424612538" lon="8.588388333995457"><ele>200.0</ele><time>2026-04-06T13:29:00.999Z</time></trkpt><trkpt lat="45.565562925699666" lon="8.588475672751029"><ele>200.0</ele><time>2026-04-06T13:29:02.999Z</time></trkpt><trkpt lat="45.56561371645902" lon="8.588643244729834"><ele>200.0</ele><time>2026-04-06T13:29:04.999Z</time></trkpt><trkpt lat="45.56564070530602" lon="8.588764892675188"><ele>200.2</ele><time>2026-04-06T13:29:05.999Z</time></trkpt><trkpt lat="45.56567461121396" lon="8.588908842275613"><ele>200.4</ele><time>2026-04-06T13:29:06.998Z</time></trkpt><trkpt lat="45.56571309324673" lon="8.589041411523667"><ele>200.60000000000002</ele><time>2026-04-06T13:29:07.998Z</time></trkpt><trkpt lat="45.56574875755852" lon="8.58916160016185"><ele>200.8</ele><time>2026-04-06T13:29:08.998Z</time></trkpt><trkpt lat="45.56578125034965" lon="8.58927792660296"><ele>201.0</ele><time>2026-04-06T13:29:09.998Z</time></trkpt><trkpt lat="45.565811958799095" lon="8.58939281422183"><ele>201.0</ele><time>2026-04-06T13:29:10.998Z</time></trkpt><trkpt lat="45.56584232785861" lon="8.58950648241149"><ele>201.0</ele><time>2026-04-06T13:29:11.998Z</time></trkpt><trkpt lat="45.56587181281574" lon="8.589619811646449"><ele>201.0</ele><time>2026-04-06T13:29:12.998Z</time></trkpt><trkpt lat="45.56590527869651" lon="8.589737107252502"><ele>201.0</ele><time>2026-04-06T13:29:13.998Z</time></trkpt><trkpt lat="45.565940788381475" lon="8.589861799883337"><ele>201.0</ele><time>2026-04-06T13:29:14.998Z</time></trkpt><trkpt lat="45.565976625426096" lon="8.589981358672096"><ele>201.0</ele><time>2026-04-06T13:29:15.998Z</time></trkpt><trkpt lat="45.566008681383025" lon="8.590086392123814"><ele>201.0</ele><time>2026-04-06T13:29:16.998Z</time></trkpt><trkpt lat="45.56603359165039" lon="8.590182121006443"><ele>201.0</ele><time>2026-04-06T13:29:17.998Z</time></trkpt><trkpt lat="45.56605808573678" lon="8.590286166992511"><ele>201.0</ele><time>2026-04-06T13:29:18.998Z</time></trkpt><trkpt lat="45.566087534058845" lon="8.590395673858154"><ele>201.0</ele><time>2026-04-06T13:29:19.998Z</time></trkpt><trkpt lat="45.56611508138645" lon="8.590499381035661"><ele>201.0</ele><time>2026-04-06T13:29:20.998Z</time></trkpt><trkpt lat="45.56613753440472" lon="8.590607242038024"><ele>201.0</ele><time>2026-04-06T13:29:21.998Z</time></trkpt><trkpt lat="45.56615207556139" lon="8.590713572508893"><ele>201.16666666666666</ele><time>2026-04-06T13:29:22.998Z</time></trkpt><trkpt lat="45.56616982474337" lon="8.590814777374025"><ele>201.33333333333331</ele><time>2026-04-06T13:29:23.998Z</time></trkpt><trkpt lat="45.56618085192173" lon="8.590910258908663"><ele>201.5</ele><time>2026-04-06T13:29:24.998Z</time></trkpt><trkpt lat="45.56618818322607" lon="8.591066579382375"><ele>201.66666666666666</ele><time>2026-04-06T13:29:26.998Z</time></trkpt><trkpt lat="45.566203685668455" lon="8.59121044535438"><ele>201.83333333333331</ele><time>2026-04-06T13:29:28.998Z</time></trkpt><trkpt lat="45.56621810231128" lon="8.591331936630088"><ele>202.0</ele><time>2026-04-06T13:29:30.998Z</time></trkpt><trkpt lat="45.56623687636864" lon="8.591493400913475"><ele>201.66666666666666</ele><time>2026-04-06T13:29:32.998Z</time></trkpt><trkpt lat="45.56625260171032" lon="8.591675280199503"><ele>201.33333333333331</ele><time>2026-04-06T13:29:34.998Z</time></trkpt><trkpt lat="45.56626616953884" lon="8.591770172606276"><ele>201.0</ele><time>2026-04-06T13:29:35.998Z</time></trkpt><trkpt lat="45.56628143263702" lon="8.591867677947226"><ele>200.66666666666669</ele><time>2026-04-06T13:29:36.998Z</time></trkpt><trkpt lat="45.56629597915023" lon="8.591968847148925"><ele>200.33333333333334</ele><time>2026-04-06T13:29:37.998Z</time></trkpt><trkpt lat="45.5663088275295" lon="8.592070146164758"><ele>200.0</ele><time>2026-04-06T13:29:38.998Z</time></trkpt><trkpt lat="45.566320751174324" lon="8.592174735031184"><ele>200.00000000000003</ele><time>2026-04-06T13:29:39.998Z</time></trkpt><trkpt lat="45.56633101401792" lon="8.592276400544216"><ele>200.0</ele><time>2026-04-06T13:29:40.998Z</time></trkpt><trkpt lat="45.566342208997504" lon="8.592380898123334"><ele>200.0</ele><time>2026-04-06T13:29:41.998Z</time></trkpt><trkpt lat="45.566351056239526" lon="8.592478398360758"><ele>200.0</ele><time>2026-04-06T13:29:42.998Z</time></trkpt><trkpt lat="45.566366705247866" lon="8.592570250385913"><ele>200.00000000000003</ele><time>2026-04-06T13:29:43.998Z</time></trkpt><trkpt lat="45.566400235799215" lon="8.592717808562522"><ele>200.0</ele><time>2026-04-06T13:29:45.998Z</time></trkpt><trkpt lat="45.56643676745568" lon="8.592802512638787"><ele>200.00000000000003</ele><time>2026-04-06T13:29:47.998Z</time></trkpt><trkpt lat="45.56650042542703" lon="8.592846414599448"><ele>200.0</ele><time>2026-04-06T13:29:50.998Z</time></trkpt><trkpt lat="45.56659211508009" lon="8.592864416519093"><ele>200.0</ele><time>2026-04-06T13:29:52.998Z</time></trkpt><trkpt lat="45.566701831193676" lon="8.592829690897739"><ele>200.0</ele><time>2026-04-06T13:29:54.998Z</time></trkpt><trkpt lat="45.56676128624176" lon="8.59278917891496"><ele>200.00000000000003</ele><time>2026-04-06T13:29:55.998Z</time></trkpt><trkpt lat="45.56683254673049" lon="8.59276823695493"><ele>200.0</ele><time>2026-04-06T13:29:56.998Z</time></trkpt><trkpt lat="45.566914383326626" lon="8.592746464966124"><ele>200.0</ele><time>2026-04-06T13:29:57.998Z</time></trkpt><trkpt lat="45.56701817727431" lon="8.592720519919459"><ele>200.0</ele><time>2026-04-06T13:29:58.998Z</time></trkpt><trkpt lat="45.567145487069126" lon="8.59269023686134"><ele>200.0</ele><time>2026-04-06T13:29:59.998Z</time></trkpt><trkpt lat="45.567268291723444" lon="8.592662098597305"><ele>200.0</ele><time>2026-04-06T13:30:00.998Z</time></trkpt><trkpt lat="45.567383655094744" lon="8.592634755970902"><ele>199.8</ele><time>2026-04-06T13:30:01.998Z</time></trkpt><trkpt lat="45.56749080234553" lon="8.592608238914316"><ele>199.6</ele><time>2026-04-06T13:30:02.998Z</time></trkpt><trkpt lat="45.56759966279954" lon="8.592584173140098"><ele>199.39999999999998</ele><time>2026-04-06T13:30:03.998Z</time></trkpt><trkpt lat="45.56770364946065" lon="8.592555827730253"><ele>199.2</ele><time>2026-04-06T13:30:04.998Z</time></trkpt><trkpt lat="45.5678034550847" lon="8.59252899695938"><ele>199.0</ele><time>2026-04-06T13:30:05.998Z</time></trkpt><trkpt lat="45.56790190207416" lon="8.59250359564996"><ele>199.39999999999998</ele><time>2026-04-06T13:30:06.998Z</time></trkpt><trkpt lat="45.568006092625296" lon="8.59247686736932"><ele>199.8</ele><time>2026-04-06T13:30:07.998Z</time></trkpt><trkpt lat="45.56811353226005" lon="8.592452025214754"><ele>200.2</ele><time>2026-04-06T13:30:08.998Z</time></trkpt><trkpt lat="45.56822724646069" lon="8.592422398593863"><ele>200.60000000000002</ele><time>2026-04-06T13:30:09.998Z</time></trkpt><trkpt lat="45.56834167925052" lon="8.592391108513876"><ele>201.0</ele><time>2026-04-06T13:30:10.998Z</time></trkpt><trkpt lat="45.56845265406928" lon="8.592366436626204"><ele>201.0</ele><time>2026-04-06T13:30:11.998Z</time></trkpt><trkpt lat="45.5685662454396" lon="8.592338567433904"><ele>201.0</ele><time>2026-04-06T13:30:12.998Z</time></trkpt><trkpt lat="45.568680600936645" lon="8.592312993813858"><ele>201.0</ele><time>2026-04-06T13:30:13.998Z</time></trkpt><trkpt lat="45.56879479794589" lon="8.592282528323247"><ele>201.0</ele><time>2026-04-06T13:30:14.998Z</time></trkpt><trkpt lat="45.568910319553275" lon="8.59225490637557"><ele>201.0</ele><time>2026-04-06T13:30:15.998Z</time></trkpt><trkpt lat="45.569023126609224" lon="8.592224138186431"><ele>201.0</ele><time>2026-04-06T13:30:16.998Z</time></trkpt><trkpt lat="45.56913816259056" lon="8.592217741733636"><ele>201.0</ele><time>2026-04-06T13:30:17.998Z</time></trkpt><trkpt lat="45.56925184543803" lon="8.592189673099952"><ele>201.0</ele><time>2026-04-06T13:30:18.998Z</time></trkpt><trkpt lat="45.56936371253411" lon="8.592141488513015"><ele>201.0</ele><time>2026-04-06T13:30:19.998Z</time></trkpt><trkpt lat="45.56947774798824" lon="8.592112945354026"><ele>201.0</ele><time>2026-04-06T13:30:20.998Z</time></trkpt><trkpt lat="45.569586770845454" lon="8.592086777236029"><ele>201.0</ele><time>2026-04-06T13:30:21.998Z</time></trkpt><trkpt lat="45.56969123434642" lon="8.592060323156081"><ele>201.0</ele><time>2026-04-06T13:30:22.998Z</time></trkpt><trkpt lat="45.569792912256354" lon="8.592033916064603"><ele>201.0</ele><time>2026-04-06T13:30:23.998Z</time></trkpt><trkpt lat="45.56989930743277" lon="8.592007405362576"><ele>200.75</ele><time>2026-04-06T13:30:24.998Z</time></trkpt><trkpt lat="45.570008954622594" lon="8.591975442176512"><ele>200.5</ele><time>2026-04-06T13:30:25.998Z</time></trkpt><trkpt lat="45.570119017523005" lon="8.591952578940644"><ele>200.25</ele><time>2026-04-06T13:30:26.998Z</time></trkpt><trkpt lat="45.570232105387966" lon="8.591934334320468"><ele>200.0</ele><time>2026-04-06T13:30:27.998Z</time></trkpt><trkpt lat="45.570346537212934" lon="8.591903317047931"><ele>200.5</ele><time>2026-04-06T13:30:28.998Z</time></trkpt><trkpt lat="45.57047346493082" lon="8.591868980847794"><ele>201.0</ele><time>2026-04-06T13:30:29.998Z</time></trkpt><trkpt lat="45.570603129518275" lon="8.591834454651748"><ele>201.5</ele><time>2026-04-06T13:30:30.998Z</time></trkpt><trkpt lat="45.570728749111026" lon="8.591779299496597"><ele>202.0</ele><time>2026-04-06T13:30:31.998Z</time></trkpt><trkpt lat="45.57084564724038" lon="8.591751463673244"><ele>202.0</ele><time>2026-04-06T13:30:32.998Z</time></trkpt><trkpt lat="45.57095707347764" lon="8.591729736967634"><ele>202.0</ele><time>2026-04-06T13:30:33.998Z</time></trkpt><trkpt lat="45.57107142947453" lon="8.591713894943"><ele>202.0</ele><time>2026-04-06T13:30:34.998Z</time></trkpt><trkpt lat="45.57118752543563" lon="8.591690216987837"><ele>202.0</ele><time>2026-04-06T13:30:35.998Z</time></trkpt><trkpt lat="45.571302964320466" lon="8.59165662186625"><ele>202.0</ele><time>2026-04-06T13:30:36.998Z</time></trkpt><trkpt lat="45.571413000444736" lon="8.59162770061654"><ele>202.0</ele><time>2026-04-06T13:30:37.998Z</time></trkpt><trkpt lat="45.571521902973615" lon="8.591604430237883"><ele>202.0</ele><time>2026-04-06T13:30:38.998Z</time></trkpt><trkpt lat="45.57162371583702" lon="8.591580587551698"><ele>202.0</ele><time>2026-04-06T13:30:39.998Z</time></trkpt><trkpt lat="45.57172862758364" lon="8.591550653229394"><ele>202.0</ele><time>2026-04-06T13:30:40.998Z</time></trkpt><trkpt lat="45.571820149467065" lon="8.591526699595105"><ele>201.99999999999997</ele><time>2026-04-06T13:30:41.998Z</time></trkpt><trkpt lat="45.571898984586234" lon="8.591501695290956"><ele>202.0</ele><time>2026-04-06T13:30:42.998Z</time></trkpt><trkpt lat="45.571962384491925" lon="8.591478694609258"><ele>202.0</ele><time>2026-04-06T13:30:43.998Z</time></trkpt><trkpt lat="45.572034408334474" lon="8.591438645040853"><ele>202.0</ele><time>2026-04-06T13:30:45.998Z</time></trkpt><trkpt lat="45.57212711257553" lon="8.591390836685065"><ele>201.99999999999997</ele><time>2026-04-06T13:30:47.997Z</time></trkpt><trkpt lat="45.57218393751291" lon="8.591349276499702"><ele>202.0</ele><time>2026-04-06T13:30:48.998Z</time></trkpt><trkpt lat="45.572246936561214" lon="8.591289318116752"><ele>202.39999999999998</ele><time>2026-04-06T13:30:49.998Z</time></trkpt><trkpt lat="45.572319332980115" lon="8.591228078240357"><ele>202.79999999999998</ele><time>2026-04-06T13:30:50.998Z</time></trkpt><trkpt lat="45.57239967116769" lon="8.591163932343338"><ele>203.2</ele><time>2026-04-06T13:30:51.998Z</time></trkpt><trkpt lat="45.57247581668484" lon="8.591089838351465"><ele>203.6</ele><time>2026-04-06T13:30:52.998Z</time></trkpt><trkpt lat="45.572554296203435" lon="8.591013583847774"><ele>204.0</ele><time>2026-04-06T13:30:53.998Z</time></trkpt><trkpt lat="45.57263083979117" lon="8.59094091039672"><ele>204.0</ele><time>2026-04-06T13:30:54.998Z</time></trkpt><trkpt lat="45.572703071407645" lon="8.590871856332642"><ele>204.0</ele><time>2026-04-06T13:30:55.998Z</time></trkpt><trkpt lat="45.57277196863677" lon="8.59080293051644"><ele>204.0</ele><time>2026-04-06T13:30:56.998Z</time></trkpt><trkpt lat="45.57284416806602" lon="8.590733344401636"><ele>204.0</ele><time>2026-04-06T13:30:57.999Z</time></trkpt><trkpt lat="45.57291426944588" lon="8.590670349543274"><ele>204.0</ele><time>2026-04-06T13:30:58.999Z</time></trkpt><trkpt lat="45.572985322042676" lon="8.590608433174154"><ele>204.0</ele><time>2026-04-06T13:30:59.999Z</time></trkpt><trkpt lat="45.57305876349228" lon="8.590543759789117"><ele>204.16666666666666</ele><time>2026-04-06T13:31:00.999Z</time></trkpt><trkpt lat="45.573122928594316" lon="8.59048317261041"><ele>204.33333333333331</ele><time>2026-04-06T13:31:01.999Z</time></trkpt><trkpt lat="45.57319512755938" lon="8.590412503933269"><ele>204.5</ele><time>2026-04-06T13:31:02.999Z</time></trkpt><trkpt lat="45.57326842266229" lon="8.590343651098044"><ele>204.66666666666666</ele><time>2026-04-06T13:31:03.999Z</time></trkpt><trkpt lat="45.573344844618354" lon="8.590300214260312"><ele>204.83333333333331</ele><time>2026-04-06T13:31:04.999Z</time></trkpt><trkpt lat="45.57340885681148" lon="8.590246353093878"><ele>205.0</ele><time>2026-04-06T13:31:05.999Z</time></trkpt><trkpt lat="45.57346959263179" lon="8.590169430121994"><ele>205.16666666666666</ele><time>2026-04-06T13:31:06.999Z</time></trkpt><trkpt lat="45.573550898975306" lon="8.590131248617409"><ele>205.33333333333331</ele><time>2026-04-06T13:31:07.999Z</time></trkpt><trkpt lat="45.573624900970785" lon="8.59007252382676"><ele>205.5</ele><time>2026-04-06T13:31:08.999Z</time></trkpt><trkpt lat="45.57368894910817" lon="8.589994786325146"><ele>205.66666666666669</ele><time>2026-04-06T13:31:09.999Z</time></trkpt><trkpt lat="45.57377128512743" lon="8.589956458199568"><ele>205.83333333333334</ele><time>2026-04-06T13:31:10.999Z</time></trkpt><trkpt lat="45.57385283700462" lon="8.589891815761048"><ele>206.0</ele><time>2026-04-06T13:31:11.999Z</time></trkpt><trkpt lat="45.57393459915351" lon="8.589827006615256"><ele>206.00000000000003</ele><time>2026-04-06T13:31:12.999Z</time></trkpt><trkpt lat="45.57400461463394" lon="8.589749922310089"><ele>206.0</ele><time>2026-04-06T13:31:13.999Z</time></trkpt><trkpt lat="45.57407705793289" lon="8.589698966158426"><ele>206.0</ele><time>2026-04-06T13:31:14.999Z</time></trkpt><trkpt lat="45.574142506457264" lon="8.589647984059873"><ele>206.0</ele><time>2026-04-06T13:31:15.999Z</time></trkpt><trkpt lat="45.574210513531405" lon="8.589599414942596"><ele>206.00000000000003</ele><time>2026-04-06T13:31:17Z</time></trkpt><trkpt lat="45.57427546919998" lon="8.589549375806781"><ele>206.0</ele><time>2026-04-06T13:31:18Z</time></trkpt><trkpt lat="45.574337609973874" lon="8.589507840105778"><ele>206.00000000000003</ele><time>2026-04-06T13:31:19Z</time></trkpt><trkpt lat="45.57445317109967" lon="8.589467865222986"><ele>206.0</ele><time>2026-04-06T13:31:21Z</time></trkpt><trkpt lat="45.57451982975252" lon="8.5894676927858"><ele>206.0</ele><time>2026-04-06T13:31:22Z</time></trkpt><trkpt lat="45.574590953240765" lon="8.589479475354546"><ele>206.0</ele><time>2026-04-06T13:31:23Z</time></trkpt><trkpt lat="45.574666870919096" lon="8.589500774630205"><ele>206.00000000000003</ele><time>2026-04-06T13:31:24Z</time></trkpt><trkpt lat="45.57473658608203" lon="8.589518087662892"><ele>206.0</ele><time>2026-04-06T13:31:25Z</time></trkpt><trkpt lat="45.574812371318274" lon="8.58953260790418"><ele>205.99999999999997</ele><time>2026-04-06T13:31:26Z</time></trkpt><trkpt lat="45.574885491984695" lon="8.589537028941113"><ele>206.0</ele><time>2026-04-06T13:31:27Z</time></trkpt><trkpt lat="45.57495997845966" lon="8.58953546629036"><ele>206.0</ele><time>2026-04-06T13:31:28Z</time></trkpt><trkpt lat="45.57503370769655" lon="8.589523755993874"><ele>206.0</ele><time>2026-04-06T13:31:29Z</time></trkpt><trkpt lat="45.57510427536551" lon="8.589499000727393"><ele>206.0</ele><time>2026-04-06T13:31:30Z</time></trkpt><trkpt lat="45.57518437176267" lon="8.589489735407907"><ele>205.99999999999997</ele><time>2026-04-06T13:31:31Z</time></trkpt><trkpt lat="45.57525316978158" lon="8.589456964815646"><ele>206.0</ele><time>2026-04-06T13:31:32Z</time></trkpt><trkpt lat="45.57531490965547" lon="8.589395216558017"><ele>206.00000000000003</ele><time>2026-04-06T13:31:33Z</time></trkpt><trkpt lat="45.575375997564144" lon="8.589351808665793"><ele>206.0</ele><time>2026-04-06T13:31:34Z</time></trkpt><trkpt lat="45.57544712803425" lon="8.589322773725558"><ele>206.0</ele><time>2026-04-06T13:31:35Z</time></trkpt><trkpt lat="45.57551046840268" lon="8.58927150178392"><ele>206.0</ele><time>2026-04-06T13:31:36Z</time></trkpt><trkpt lat="45.5755789167101" lon="8.589213636393929"><ele>206.00000000000003</ele><time>2026-04-06T13:31:37Z</time></trkpt><trkpt lat="45.57565251342341" lon="8.589150889493004"><ele>206.0</ele><time>2026-04-06T13:31:38Z</time></trkpt><trkpt lat="45.57572785558813" lon="8.589086597755967"><ele>206.0</ele><time>2026-04-06T13:31:39Z</time></trkpt><trkpt lat="45.57580945716448" lon="8.589016964740479"><ele>206.0</ele><time>2026-04-06T13:31:40Z</time></trkpt><trkpt lat="45.57590040058046" lon="8.58893936001728"><ele>206.0</ele><time>2026-04-06T13:31:41Z</time></trkpt><trkpt lat="45.57600751934721" lon="8.588847800319568"><ele>206.0</ele><time>2026-04-06T13:31:42Z</time></trkpt><trkpt lat="45.57612978257369" lon="8.588742801513161"><ele>205.75</ele><time>2026-04-06T13:31:43Z</time></trkpt><trkpt lat="45.576251169132405" lon="8.588639892220675"><ele>205.5</ele><time>2026-04-06T13:31:44Z</time></trkpt><trkpt lat="45.576361743735724" lon="8.588548261652502"><ele>205.25</ele><time>2026-04-06T13:31:45Z</time></trkpt><trkpt lat="45.57647744824193" lon="8.58845287995237"><ele>205.0</ele><time>2026-04-06T13:31:46Z</time></trkpt><trkpt lat="45.5766041115375" lon="8.588348598273775"><ele>205.0</ele><time>2026-04-06T13:31:47Z</time></trkpt><trkpt lat="45.576737427305474" lon="8.588237954391154"><ele>205.0</ele><time>2026-04-06T13:31:48Z</time></trkpt><trkpt lat="45.57687708444286" lon="8.588116793955404"><ele>205.0</ele><time>2026-04-06T13:31:49Z</time></trkpt><trkpt lat="45.57701149723682" lon="8.588000535392462"><ele>205.25</ele><time>2026-04-06T13:31:50Z</time></trkpt><trkpt lat="45.577130446601934" lon="8.587899159036992"><ele>205.5</ele><time>2026-04-06T13:31:51Z</time></trkpt><trkpt lat="45.57724150561753" lon="8.587805810736064"><ele>205.75</ele><time>2026-04-06T13:31:52Z</time></trkpt><trkpt lat="45.57734637783778" lon="8.58771766254306"><ele>206.0</ele><time>2026-04-06T13:31:53Z</time></trkpt><trkpt lat="45.57744768829692" lon="8.58763263872746"><ele>206.0</ele><time>2026-04-06T13:31:54Z</time></trkpt><trkpt lat="45.57754669548793" lon="8.587549896460756"><ele>206.0</ele><time>2026-04-06T13:31:55Z</time></trkpt><trkpt lat="45.57764373615688" lon="8.587468797650288"><ele>206.0</ele><time>2026-04-06T13:31:56Z</time></trkpt><trkpt lat="45.577744178325496" lon="8.58738485776431"><ele>206.0</ele><time>2026-04-06T13:31:57Z</time></trkpt><trkpt lat="45.57784078908541" lon="8.587303797000306"><ele>206.20000000000002</ele><time>2026-04-06T13:31:58Z</time></trkpt><trkpt lat="45.57793046813152" lon="8.58722815800207"><ele>206.4</ele><time>2026-04-06T13:31:59Z</time></trkpt><trkpt lat="45.578016356407076" lon="8.587156548546822"><ele>206.6</ele><time>2026-04-06T13:32:00Z</time></trkpt><trkpt lat="45.57809515753856" lon="8.5870891865075"><ele>206.8</ele><time>2026-04-06T13:32:01Z</time></trkpt><trkpt lat="45.578170410140935" lon="8.587024094987282"><ele>207.0</ele><time>2026-04-06T13:32:02Z</time></trkpt><trkpt lat="45.578244751788034" lon="8.586954404106308"><ele>207.0</ele><time>2026-04-06T13:32:03Z</time></trkpt><trkpt lat="45.578323680763155" lon="8.586874966022082"><ele>207.0</ele><time>2026-04-06T13:32:04Z</time></trkpt><trkpt lat="45.57840366158601" lon="8.586790996901774"><ele>207.0</ele><time>2026-04-06T13:32:05Z</time></trkpt><trkpt lat="45.57848313131393" lon="8.586699395634977"><ele>207.0</ele><time>2026-04-06T13:32:06Z</time></trkpt><trkpt lat="45.57855763120845" lon="8.586602928456859"><ele>207.0</ele><time>2026-04-06T13:32:07Z</time></trkpt><trkpt lat="45.57863572506319" lon="8.5865096974638"><ele>206.8</ele><time>2026-04-06T13:32:08Z</time></trkpt><trkpt lat="45.57872017792265" lon="8.586420253252937"><ele>206.6</ele><time>2026-04-06T13:32:09Z</time></trkpt><trkpt lat="45.57880329632706" lon="8.586335292868023"><ele>206.4</ele><time>2026-04-06T13:32:10Z</time></trkpt><trkpt lat="45.57888722634299" lon="8.586250137719576"><ele>206.20000000000002</ele><time>2026-04-06T13:32:11Z</time></trkpt><trkpt lat="45.57897440976571" lon="8.586162226308478"><ele>206.0</ele><time>2026-04-06T13:32:12Z</time></trkpt><trkpt lat="45.579070926832976" lon="8.586065596334345"><ele>206.0</ele><time>2026-04-06T13:32:13Z</time></trkpt><trkpt lat="45.57918058271166" lon="8.58595515464414"><ele>206.0</ele><time>2026-04-06T13:32:14Z</time></trkpt><trkpt lat="45.579304497668396" lon="8.58582871113029"><ele>206.0</ele><time>2026-04-06T13:32:15Z</time></trkpt><trkpt lat="45.57943267002159" lon="8.585694073933514"><ele>206.0</ele><time>2026-04-06T13:32:16Z</time></trkpt><trkpt lat="45.57954468062269" lon="8.585547376498985"><ele>206.25</ele><time>2026-04-06T13:32:17Z</time></trkpt><trkpt lat="45.57965885906792" lon="8.585429666423384"><ele>206.5</ele><time>2026-04-06T13:32:18Z</time></trkpt><trkpt lat="45.579779602119565" lon="8.585329018257537"><ele>206.75</ele><time>2026-04-06T13:32:19Z</time></trkpt><trkpt lat="45.57987799754872" lon="8.58519548064865"><ele>207.0</ele><time>2026-04-06T13:32:20Z</time></trkpt><trkpt lat="45.57999140194902" lon="8.585104854862882"><ele>207.25</ele><time>2026-04-06T13:32:21Z</time></trkpt><trkpt lat="45.5800985195319" lon="8.584990074510218"><ele>207.5</ele><time>2026-04-06T13:32:22Z</time></trkpt><trkpt lat="45.58021375995747" lon="8.584865800147808"><ele>207.75</ele><time>2026-04-06T13:32:23Z</time></trkpt><trkpt lat="45.58033557134131" lon="8.584732410754603"><ele>208.0</ele><time>2026-04-06T13:32:24Z</time></trkpt><trkpt lat="45.58046492315779" lon="8.584589150630219"><ele>208.33333333333331</ele><time>2026-04-06T13:32:25Z</time></trkpt><trkpt lat="45.58058395853666" lon="8.584454852070696"><ele>208.66666666666669</ele><time>2026-04-06T13:32:26Z</time></trkpt><trkpt lat="45.58070191771005" lon="8.584291713343372"><ele>209.0</ele><time>2026-04-06T13:32:27Z</time></trkpt><trkpt lat="45.580825856441784" lon="8.584155500586313"><ele>209.0</ele><time>2026-04-06T13:32:28Z</time></trkpt><trkpt lat="45.58094561254835" lon="8.584023227351315"><ele>209.0</ele><time>2026-04-06T13:32:29Z</time></trkpt><trkpt lat="45.58106055033472" lon="8.583895109224466"><ele>209.0</ele><time>2026-04-06T13:32:30Z</time></trkpt><trkpt lat="45.58117573095552" lon="8.58377509988012"><ele>209.0</ele><time>2026-04-06T13:32:31Z</time></trkpt><trkpt lat="45.58128006773404" lon="8.583660113909744"><ele>208.5</ele><time>2026-04-06T13:32:32Z</time></trkpt><trkpt lat="45.58138196698751" lon="8.583548795202372"><ele>208.0</ele><time>2026-04-06T13:32:33Z</time></trkpt><trkpt lat="45.58147542416589" lon="8.583441615642974"><ele>207.5</ele><time>2026-04-06T13:32:34Z</time></trkpt><trkpt lat="45.58155924464242" lon="8.583349177550517"><ele>207.0</ele><time>2026-04-06T13:32:35Z</time></trkpt><trkpt lat="45.58163382158659" lon="8.583260439044112"><ele>207.0</ele><time>2026-04-06T13:32:36Z</time></trkpt><trkpt lat="45.58171045101612" lon="8.583205819825993"><ele>207.0</ele><time>2026-04-06T13:32:37Z</time></trkpt><trkpt lat="45.58177913027409" lon="8.583131075833624"><ele>207.0</ele><time>2026-04-06T13:32:39Z</time></trkpt><trkpt lat="45.58185462900561" lon="8.583048910244404"><ele>207.0</ele><time>2026-04-06T13:32:42Z</time></trkpt><trkpt lat="45.581920346416" lon="8.582976748730081"><ele>207.0</ele><time>2026-04-06T13:32:43Z</time></trkpt><trkpt lat="45.58201158467703" lon="8.582875787280955"><ele>208.25</ele><time>2026-04-06T13:32:44Z</time></trkpt><trkpt lat="45.582114815971394" lon="8.582759777469482"><ele>209.5</ele><time>2026-04-06T13:32:45Z</time></trkpt><trkpt lat="45.58221062468325" lon="8.582651916625208"><ele>210.75</ele><time>2026-04-06T13:32:46Z</time></trkpt><trkpt lat="45.582319222839466" lon="8.582529657518723"><ele>212.0</ele><time>2026-04-06T13:32:47Z</time></trkpt><trkpt lat="45.58242144809871" lon="8.58241457435527"><ele>212.00000000000003</ele><time>2026-04-06T13:32:48Z</time></trkpt><trkpt lat="45.58251099889326" lon="8.582314441167101"><ele>212.0</ele><time>2026-04-06T13:32:49Z</time></trkpt><trkpt lat="45.58258434836981" lon="8.582233099436184"><ele>212.0</ele><time>2026-04-06T13:32:50Z</time></trkpt><trkpt lat="45.58265145792749" lon="8.582158969935389"><ele>212.0</ele><time>2026-04-06T13:32:51Z</time></trkpt><trkpt lat="45.58271337354776" lon="8.582090607853278"><ele>212.00000000000003</ele><time>2026-04-06T13:32:52Z</time></trkpt><trkpt lat="45.58277098805568" lon="8.582026995100318"><ele>212.0</ele><time>2026-04-06T13:32:53Z</time></trkpt><trkpt lat="45.58283718857807" lon="8.581953901696986"><ele>212.33333333333334</ele><time>2026-04-06T13:32:54Z</time></trkpt><trkpt lat="45.58290129985924" lon="8.581883173464753"><ele>212.66666666666669</ele><time>2026-04-06T13:32:55Z</time></trkpt><trkpt lat="45.58296663525908" lon="8.581811111168676"><ele>213.0</ele><time>2026-04-06T13:32:56Z</time></trkpt><trkpt lat="45.583027088708434" lon="8.581744144183443"><ele>213.33333333333331</ele><time>2026-04-06T13:32:57Z</time></trkpt><trkpt lat="45.58308644669636" lon="8.581676140328074"><ele>213.66666666666666</ele><time>2026-04-06T13:32:58Z</time></trkpt><trkpt lat="45.583141339960015" lon="8.581611392910498"><ele>214.0</ele><time>2026-04-06T13:32:59Z</time></trkpt><trkpt lat="45.583197623352206" lon="8.581549107525252"><ele>213.99999999999997</ele><time>2026-04-06T13:33:00Z</time></trkpt><trkpt lat="45.58325707513329" lon="8.581496563095062"><ele>214.0</ele><time>2026-04-06T13:33:01Z</time></trkpt><trkpt lat="45.583320972240855" lon="8.581449490210007"><ele>214.0</ele><time>2026-04-06T13:33:02Z</time></trkpt><trkpt lat="45.58338384361129" lon="8.581399094209228"><ele>214.0</ele><time>2026-04-06T13:33:03Z</time></trkpt><trkpt lat="45.58345425230742" lon="8.581378225754715"><ele>213.99999999999997</ele><time>2026-04-06T13:33:04Z</time></trkpt><trkpt lat="45.58354618753168" lon="8.581368299782795"><ele>214.0</ele><time>2026-04-06T13:33:05Z</time></trkpt><trkpt lat="45.58365996294538" lon="8.581351738307134"><ele>214.16666666666666</ele><time>2026-04-06T13:33:06Z</time></trkpt><trkpt lat="45.58374460841416" lon="8.581335371023174"><ele>214.33333333333331</ele><time>2026-04-06T13:33:07Z</time></trkpt><trkpt lat="45.583826599269955" lon="8.581317261613435"><ele>214.5</ele><time>2026-04-06T13:33:09Z</time></trkpt><trkpt lat="45.58389858919238" lon="8.581298057984963"><ele>214.66666666666669</ele><time>2026-04-06T13:33:12Z</time></trkpt><trkpt lat="45.583978859849495" lon="8.581273879360552"><ele>214.83333333333334</ele><time>2026-04-06T13:33:15Z</time></trkpt><trkpt lat="45.58403270624452" lon="8.581362969886392"><ele>215.0</ele><time>2026-04-06T13:42:01Z</time></trkpt><trkpt lat="45.58413863170365" lon="8.581455418290345"><ele>215.0</ele><time>2026-04-06T13:42:03Z</time></trkpt><trkpt lat="45.584197046183455" lon="8.581510127384005"><ele>215.0</ele><time>2026-04-06T13:42:04Z</time></trkpt><trkpt lat="45.58424867311285" lon="8.58156479218868"><ele>215.0</ele><time>2026-04-06T13:42:05Z</time></trkpt><trkpt lat="45.58434069740572" lon="8.58166356106795"><ele>215.0</ele><time>2026-04-06T13:42:07Z</time></trkpt><trkpt lat="45.58445025667311" lon="8.581755011525605"><ele>215.0</ele><time>2026-04-06T13:42:09Z</time></trkpt><trkpt lat="45.58452194384996" lon="8.581811365794499"><ele>214.8</ele><time>2026-04-06T13:42:10Z</time></trkpt><trkpt lat="45.58458969769478" lon="8.581872703716709"><ele>214.6</ele><time>2026-04-06T13:42:11Z</time></trkpt><trkpt lat="45.58465353370665" lon="8.58193558440082"><ele>214.39999999999998</ele><time>2026-04-06T13:42:12Z</time></trkpt><trkpt lat="45.58472700938146" lon="8.582005933966322"><ele>214.2</ele><time>2026-04-06T13:42:13Z</time></trkpt><trkpt lat="45.5848140260713" lon="8.582099196050443"><ele>214.0</ele><time>2026-04-06T13:42:14Z</time></trkpt><trkpt lat="45.584894846345755" lon="8.58217776218411"><ele>213.83333333333331</ele><time>2026-04-06T13:42:15Z</time></trkpt><trkpt lat="45.584976307776785" lon="8.58224640224674"><ele>213.66666666666666</ele><time>2026-04-06T13:42:16Z</time></trkpt><trkpt lat="45.58505408299466" lon="8.582311350271825"><ele>213.5</ele><time>2026-04-06T13:42:17Z</time></trkpt><trkpt lat="45.58511578910356" lon="8.582386949530322"><ele>213.33333333333331</ele><time>2026-04-06T13:42:18Z</time></trkpt><trkpt lat="45.58517551412996" lon="8.582447656526387"><ele>213.16666666666666</ele><time>2026-04-06T13:42:19Z</time></trkpt><trkpt lat="45.58522941694477" lon="8.582502054328499"><ele>213.0</ele><time>2026-04-06T13:42:20Z</time></trkpt><trkpt lat="45.58528572299991" lon="8.582558644898679"><ele>213.0</ele><time>2026-04-06T13:42:21Z</time></trkpt><trkpt lat="45.58534479318443" lon="8.582602444162113"><ele>213.0</ele><time>2026-04-06T13:42:22Z</time></trkpt><trkpt lat="45.585396548477675" lon="8.582670543236198"><ele>213.0</ele><time>2026-04-06T13:42:23Z</time></trkpt><trkpt lat="45.585518245580296" lon="8.582805709536812"><ele>213.0</ele><time>2026-04-06T13:42:25Z</time></trkpt><trkpt lat="45.58557813546585" lon="8.582868404843834"><ele>213.0</ele><time>2026-04-06T13:42:26Z</time></trkpt><trkpt lat="45.585637323149435" lon="8.582937811332767"><ele>213.0</ele><time>2026-04-06T13:42:27Z</time></trkpt><trkpt lat="45.58569829135955" lon="8.583017253761536"><ele>212.8</ele><time>2026-04-06T13:42:28Z</time></trkpt><trkpt lat="45.58575761145747" lon="8.583115213151226"><ele>212.60000000000002</ele><time>2026-04-06T13:42:29Z</time></trkpt><trkpt lat="45.58581505655269" lon="8.583225356331896"><ele>212.39999999999998</ele><time>2026-04-06T13:42:30Z</time></trkpt><trkpt lat="45.58586375355912" lon="8.583349455273485"><ele>212.2</ele><time>2026-04-06T13:42:31Z</time></trkpt><trkpt lat="45.58590238723036" lon="8.583486356721917"><ele>212.0</ele><time>2026-04-06T13:42:32Z</time></trkpt><trkpt lat="45.58593374117893" lon="8.583626369850649"><ele>212.0</ele><time>2026-04-06T13:42:33Z</time></trkpt><trkpt lat="45.58596496310617" lon="8.58376488916374"><ele>212.0</ele><time>2026-04-06T13:42:34Z</time></trkpt><trkpt lat="45.58599451957183" lon="8.583903398341208"><ele>212.0</ele><time>2026-04-06T13:42:35Z</time></trkpt><trkpt lat="45.586025463397256" lon="8.584042333337596"><ele>212.0</ele><time>2026-04-06T13:42:36Z</time></trkpt><trkpt lat="45.58605518716287" lon="8.584174585861623"><ele>212.0</ele><time>2026-04-06T13:42:37Z</time></trkpt><trkpt lat="45.58608538918673" lon="8.584305341646447"><ele>212.00000000000003</ele><time>2026-04-06T13:42:38Z</time></trkpt><trkpt lat="45.58611410446524" lon="8.584434508668075"><ele>212.0</ele><time>2026-04-06T13:42:39Z</time></trkpt><trkpt lat="45.58614290321297" lon="8.584562555853205"><ele>212.0</ele><time>2026-04-06T13:42:40Z</time></trkpt><trkpt lat="45.58617507655302" lon="8.584679811075958"><ele>212.0</ele><time>2026-04-06T13:42:41Z</time></trkpt><trkpt lat="45.58621198113041" lon="8.584785892975402"><ele>212.00000000000003</ele><time>2026-04-06T13:42:42Z</time></trkpt><trkpt lat="45.58625198047504" lon="8.584883988602856"><ele>212.0</ele><time>2026-04-06T13:42:43Z</time></trkpt><trkpt lat="45.58629148696284" lon="8.584972471251733"><ele>212.16666666666669</ele><time>2026-04-06T13:42:44Z</time></trkpt><trkpt lat="45.5863324044856" lon="8.585044440832233"><ele>212.33333333333334</ele><time>2026-04-06T13:42:45Z</time></trkpt><trkpt lat="45.5863967537073" lon="8.585127112292747"><ele>212.5</ele><time>2026-04-06T13:42:47Z</time></trkpt><trkpt lat="45.586531761583224" lon="8.585083288786942"><ele>212.66666666666669</ele><time>2026-04-06T13:42:51Z</time></trkpt><trkpt lat="45.586569881052114" lon="8.585004513302104"><ele>212.83333333333334</ele><time>2026-04-06T13:42:53Z</time></trkpt><trkpt lat="45.58661274968057" lon="8.58490602211966"><ele>213.0</ele><time>2026-04-06T13:42:56Z</time></trkpt><trkpt lat="45.58658529454128" lon="8.585014434036813"><ele>213.0</ele><time>2026-04-06T13:43:10Z</time></trkpt><trkpt lat="45.58678707257581" lon="8.585231779609702"><ele>213.0</ele><time>2026-04-06T13:45:22.999Z</time></trkpt><trkpt lat="45.58688921750299" lon="8.585184919526142"><ele>213.0</ele><time>2026-04-06T13:45:24.999Z</time></trkpt><trkpt lat="45.58698777472476" lon="8.585107823734393"><ele>213.2</ele><time>2026-04-06T13:45:26.999Z</time></trkpt><trkpt lat="45.587097059535516" lon="8.585046879993248"><ele>213.4</ele><time>2026-04-06T13:45:28.998Z</time></trkpt><trkpt lat="45.587199003676865" lon="8.584994391520825"><ele>213.59999999999997</ele><time>2026-04-06T13:45:30.998Z</time></trkpt><trkpt lat="45.58730221199534" lon="8.584945271862589"><ele>213.79999999999998</ele><time>2026-04-06T13:45:32.998Z</time></trkpt><trkpt lat="45.587400699385036" lon="8.584898565823357"><ele>214.0</ele><time>2026-04-06T13:45:34.998Z</time></trkpt><trkpt lat="45.587498567541175" lon="8.584852808115063"><ele>214.0</ele><time>2026-04-06T13:45:36.998Z</time></trkpt><trkpt lat="45.58760233226213" lon="8.58482363381074"><ele>213.99999999999997</ele><time>2026-04-06T13:45:38.998Z</time></trkpt><trkpt lat="45.58770583443345" lon="8.584768787236634"><ele>213.99999999999997</ele><time>2026-04-06T13:45:40.998Z</time></trkpt><trkpt lat="45.587806866867886" lon="8.584698218185846"><ele>214.0</ele><time>2026-04-06T13:45:42.998Z</time></trkpt><trkpt lat="45.58791516048766" lon="8.584638808790237"><ele>214.0</ele><time>2026-04-06T13:45:44.998Z</time></trkpt><trkpt lat="45.58802812664564" lon="8.584577770374317"><ele>213.5</ele><time>2026-04-06T13:45:46.999Z</time></trkpt><trkpt lat="45.58813589867621" lon="8.584521075149105"><ele>213.0</ele><time>2026-04-06T13:45:48.999Z</time></trkpt><trkpt lat="45.58823683887543" lon="8.58446941624406"><ele>212.5</ele><time>2026-04-06T13:45:50.999Z</time></trkpt><trkpt lat="45.588346711752294" lon="8.584413258208064"><ele>212.0</ele><time>2026-04-06T13:45:52.999Z</time></trkpt><trkpt lat="45.588456050835894" lon="8.584358242251852"><ele>212.6</ele><time>2026-04-06T13:45:54.999Z</time></trkpt><trkpt lat="45.58855803963988" lon="8.584306889712717"><ele>213.2</ele><time>2026-04-06T13:45:56.999Z</time></trkpt><trkpt lat="45.588667412364885" lon="8.584278325272738"><ele>213.8</ele><time>2026-04-06T13:45:58.999Z</time></trkpt><trkpt lat="45.58876890537041" lon="8.584300119744135"><ele>214.4</ele><time>2026-04-06T13:46:00.999Z</time></trkpt><trkpt lat="45.588877798313746" lon="8.58436750333477"><ele>215.0</ele><time>2026-04-06T13:46:02.999Z</time></trkpt><trkpt lat="45.58898333999724" lon="8.58442440634687"><ele>215.0</ele><time>2026-04-06T13:46:04.999Z</time></trkpt><trkpt lat="45.58909676626507" lon="8.584504128780978"><ele>215.0</ele><time>2026-04-06T13:46:06.999Z</time></trkpt><trkpt lat="45.589161618631884" lon="8.584547042491065"><ele>215.0</ele><time>2026-04-06T13:46:07.999Z</time></trkpt><trkpt lat="45.58924639522605" lon="8.584599332843563"><ele>215.0</ele><time>2026-04-06T13:46:09.999Z</time></trkpt><trkpt lat="45.58931874090872" lon="8.584535469395384"><ele>215.0</ele><time>2026-04-06T13:46:12.999Z</time></trkpt><trkpt lat="45.58936701109989" lon="8.584444741858764"><ele>215.0</ele><time>2026-04-06T13:46:14.999Z</time></trkpt><trkpt lat="45.58943543535285" lon="8.584371729393766"><ele>215.0</ele><time>2026-04-06T13:46:16.999Z</time></trkpt><trkpt lat="45.58953433873863" lon="8.584345681965894"><ele>215.0</ele><time>2026-04-06T13:46:18.999Z</time></trkpt><trkpt lat="45.58965631035819" lon="8.584302139614959"><ele>215.0</ele><time>2026-04-06T13:46:20.999Z</time></trkpt><trkpt lat="45.589726007830855" lon="8.584288498724161"><ele>215.0</ele><time>2026-04-06T13:46:21.999Z</time></trkpt><trkpt lat="45.589795970468856" lon="8.584286577259746"><ele>215.14285714285714</ele><time>2026-04-06T13:46:22.999Z</time></trkpt><trkpt lat="45.58986768095148" lon="8.58427719005974"><ele>215.2857142857143</ele><time>2026-04-06T13:46:23.999Z</time></trkpt><trkpt lat="45.58993595745815" lon="8.584279133196057"><ele>215.42857142857144</ele><time>2026-04-06T13:46:24.999Z</time></trkpt><trkpt lat="45.590003724562884" lon="8.58425633455082"><ele>215.57142857142856</ele><time>2026-04-06T13:46:25.999Z</time></trkpt><trkpt lat="45.59007251867427" lon="8.584244013500616"><ele>215.71428571428572</ele><time>2026-04-06T13:46:26.999Z</time></trkpt><trkpt lat="45.59013940001797" lon="8.584234525186522"><ele>215.85714285714286</ele><time>2026-04-06T13:46:27.999Z</time></trkpt><trkpt lat="45.5902088401762" lon="8.584220361056879"><ele>216.0</ele><time>2026-04-06T13:46:28.999Z</time></trkpt><trkpt lat="45.59027452965627" lon="8.584182394381216"><ele>216.42857142857142</ele><time>2026-04-06T13:46:29.999Z</time></trkpt><trkpt lat="45.590345912977014" lon="8.584163919662188"><ele>216.85714285714283</ele><time>2026-04-06T13:46:30.999Z</time></trkpt><trkpt lat="45.590414777225284" lon="8.584119711581609"><ele>217.28571428571428</ele><time>2026-04-06T13:46:31.999Z</time></trkpt><trkpt lat="45.590485437944" lon="8.584083871088053"><ele>217.71428571428572</ele><time>2026-04-06T13:46:32.999Z</time></trkpt><trkpt lat="45.590553434061626" lon="8.584040655641214"><ele>218.14285714285714</ele><time>2026-04-06T13:46:33.999Z</time></trkpt><trkpt lat="45.590623916982246" lon="8.584023641693324"><ele>218.57142857142858</ele><time>2026-04-06T13:46:34.999Z</time></trkpt><trkpt lat="45.590689407386435" lon="8.583983517582936"><ele>219.0</ele><time>2026-04-06T13:46:35.999Z</time></trkpt><trkpt lat="45.590746909643215" lon="8.583922171600603"><ele>219.0</ele><time>2026-04-06T13:46:36.999Z</time></trkpt><trkpt lat="45.59081962407443" lon="8.583900261612525"><ele>218.99999999999997</ele><time>2026-04-06T13:46:37.999Z</time></trkpt><trkpt lat="45.59088327392368" lon="8.58385872413693"><ele>218.99999999999997</ele><time>2026-04-06T13:46:38.999Z</time></trkpt><trkpt lat="45.59094270260781" lon="8.58381994136454"><ele>219.0</ele><time>2026-04-06T13:46:39.999Z</time></trkpt><trkpt lat="45.591047572583534" lon="8.583721527162616"><ele>219.0</ele><time>2026-04-06T13:46:41.999Z</time></trkpt><trkpt lat="45.59114560612309" lon="8.583604555018175"><ele>219.0</ele><time>2026-04-06T13:46:43.999Z</time></trkpt><trkpt lat="45.59118210774348" lon="8.583518912402367"><ele>219.0</ele><time>2026-04-06T13:46:44.999Z</time></trkpt><trkpt lat="45.591214401957004" lon="8.58344015164624"><ele>219.0</ele><time>2026-04-06T13:46:45.999Z</time></trkpt><trkpt lat="45.59124592306325" lon="8.583299405851717"><ele>219.0</ele><time>2026-04-06T13:46:47.999Z</time></trkpt><trkpt lat="45.591217582882194" lon="8.583145738162493"><ele>219.0</ele><time>2026-04-06T13:46:49.999Z</time></trkpt><trkpt lat="45.59116775957793" lon="8.583067572496294"><ele>219.0</ele><time>2026-04-06T13:46:50.999Z</time></trkpt><trkpt lat="45.591153404316294" lon="8.582958017659593"><ele>219.0</ele><time>2026-04-06T13:46:51.999Z</time></trkpt><trkpt lat="45.59112672838503" lon="8.582860836720437"><ele>219.0</ele><time>2026-04-06T13:46:52.999Z</time></trkpt><trkpt lat="45.59110146158486" lon="8.582768593380914"><ele>219.0</ele><time>2026-04-06T13:46:53.999Z</time></trkpt><trkpt lat="45.59107804325832" lon="8.582683376667537"><ele>219.0</ele><time>2026-04-06T13:46:54.999Z</time></trkpt><trkpt lat="45.59103364790734" lon="8.582521826882298"><ele>219.0</ele><time>2026-04-06T13:46:56.999Z</time></trkpt><trkpt lat="45.59100675696609" lon="8.582423973813057"><ele>219.0</ele><time>2026-04-06T13:46:57.999Z</time></trkpt><trkpt lat="45.59098037315877" lon="8.582329449894711"><ele>219.16666666666666</ele><time>2026-04-06T13:46:58.999Z</time></trkpt><trkpt lat="45.59095377931331" lon="8.582235646180704"><ele>219.33333333333331</ele><time>2026-04-06T13:46:59.999Z</time></trkpt><trkpt lat="45.590927386716245" lon="8.582142552272495"><ele>219.5</ele><time>2026-04-06T13:47:00.999Z</time></trkpt><trkpt lat="45.59087130314963" lon="8.582010686527845"><ele>219.66666666666666</ele><time>2026-04-06T13:47:02.999Z</time></trkpt><trkpt lat="45.59086238531933" lon="8.581920017450122"><ele>219.83333333333331</ele><time>2026-04-06T13:47:04.999Z</time></trkpt><trkpt lat="45.59096496797675" lon="8.581817225023434"><ele>220.0</ele><time>2026-04-06T13:47:18Z</time></trkpt><trkpt lat="45.59108183616804" lon="8.581747809525048"><ele>220.6</ele><time>2026-04-06T13:47:20Z</time></trkpt><trkpt lat="45.591143972314384" lon="8.581710465387214"><ele>221.2</ele><time>2026-04-06T13:47:21Z</time></trkpt><trkpt lat="45.591209834723436" lon="8.58170027986239"><ele>221.8</ele><time>2026-04-06T13:47:22Z</time></trkpt><trkpt lat="45.59132736013072" lon="8.581639440227391"><ele>222.4</ele><time>2026-04-06T13:47:24Z</time></trkpt><trkpt lat="45.59137967306577" lon="8.581588877367603"><ele>223.0</ele><time>2026-04-06T13:47:25Z</time></trkpt><trkpt lat="45.591503918984856" lon="8.581543863419359"><ele>223.4</ele><time>2026-04-06T13:47:27Z</time></trkpt><trkpt lat="45.59155573179257" lon="8.581489018183994"><ele>223.8</ele><time>2026-04-06T13:47:28Z</time></trkpt><trkpt lat="45.59166555349988" lon="8.58142889702507"><ele>224.2</ele><time>2026-04-06T13:47:30Z</time></trkpt><trkpt lat="45.59177152204189" lon="8.581358504222383"><ele>224.6</ele><time>2026-04-06T13:47:32Z</time></trkpt><trkpt lat="45.59187967295741" lon="8.581299429577966"><ele>225.0</ele><time>2026-04-06T13:47:34Z</time></trkpt><trkpt lat="45.591997532952995" lon="8.58124294189339"><ele>225.0</ele><time>2026-04-06T13:47:35.998Z</time></trkpt><trkpt lat="45.59211033987974" lon="8.581165131629813"><ele>225.0</ele><time>2026-04-06T13:47:37.998Z</time></trkpt><trkpt lat="45.592219927737645" lon="8.581103767244876"><ele>225.0</ele><time>2026-04-06T13:47:39.998Z</time></trkpt><trkpt lat="45.59233584855837" lon="8.58103838879928"><ele>225.0</ele><time>2026-04-06T13:47:41.998Z</time></trkpt><trkpt lat="45.59244925229836" lon="8.580967415288766"><ele>225.0</ele><time>2026-04-06T13:47:43.998Z</time></trkpt><trkpt lat="45.59256535187043" lon="8.580891263530484"><ele>225.0</ele><time>2026-04-06T13:47:45.998Z</time></trkpt><trkpt lat="45.592677843055576" lon="8.580818473097256"><ele>225.0</ele><time>2026-04-06T13:47:47.998Z</time></trkpt><trkpt lat="45.59279184635468" lon="8.580751127428858"><ele>225.0</ele><time>2026-04-06T13:47:49.998Z</time></trkpt><trkpt lat="45.59284615664754" lon="8.580701045895038"><ele>225.0</ele><time>2026-04-06T13:47:50.998Z</time></trkpt><trkpt lat="45.59296117035948" lon="8.580624202930855"><ele>225.0</ele><time>2026-04-06T13:47:52.999Z</time></trkpt><trkpt lat="45.593024780878494" lon="8.580586463604185"><ele>225.0</ele><time>2026-04-06T13:47:53.999Z</time></trkpt><trkpt lat="45.59308362746857" lon="8.580551050293572"><ele>225.0</ele><time>2026-04-06T13:47:54.999Z</time></trkpt><trkpt lat="45.59319647834054" lon="8.580483555951101"><ele>225.0</ele><time>2026-04-06T13:47:56.999Z</time></trkpt><trkpt lat="45.59325844683134" lon="8.580446469601739"><ele>225.0</ele><time>2026-04-06T13:47:57.999Z</time></trkpt><trkpt lat="45.593317562090775" lon="8.58041491680172"><ele>225.0</ele><time>2026-04-06T13:47:58.999Z</time></trkpt><trkpt lat="45.59337834802757" lon="8.580380851164039"><ele>225.16666666666666</ele><time>2026-04-06T13:47:59.999Z</time></trkpt><trkpt lat="45.59344650248342" lon="8.580343520726533"><ele>225.33333333333331</ele><time>2026-04-06T13:48:00.999Z</time></trkpt><trkpt lat="45.59350736406203" lon="8.580306687207251"><ele>225.5</ele><time>2026-04-06T13:48:01.999Z</time></trkpt><trkpt lat="45.59357043709257" lon="8.58026698228224"><ele>225.66666666666666</ele><time>2026-04-06T13:48:02.999Z</time></trkpt><trkpt lat="45.5936302991868" lon="8.580230805777683"><ele>225.83333333333331</ele><time>2026-04-06T13:48:03.999Z</time></trkpt><trkpt lat="45.59369072594687" lon="8.580193591537016"><ele>226.0</ele><time>2026-04-06T13:48:04.999Z</time></trkpt><trkpt lat="45.59380330413692" lon="8.580125500508819"><ele>226.0</ele><time>2026-04-06T13:48:06.999Z</time></trkpt><trkpt lat="45.593910021442355" lon="8.580070953338684"><ele>226.0</ele><time>2026-04-06T13:48:08.999Z</time></trkpt><trkpt lat="45.59402475666987" lon="8.580013368946434"><ele>226.0</ele><time>2026-04-06T13:48:10.999Z</time></trkpt><trkpt lat="45.59413413454891" lon="8.579943978293633"><ele>226.0</ele><time>2026-04-06T13:48:12.999Z</time></trkpt><trkpt lat="45.59424974293512" lon="8.57987585302404"><ele>226.0</ele><time>2026-04-06T13:48:14.999Z</time></trkpt><trkpt lat="45.594310203018175" lon="8.579842853808957"><ele>226.00000000000003</ele><time>2026-04-06T13:48:15.999Z</time></trkpt><trkpt lat="45.59441565562789" lon="8.579780274079015"><ele>226.00000000000003</ele><time>2026-04-06T13:48:17.999Z</time></trkpt><trkpt lat="45.59450039806308" lon="8.579730198682473"><ele>226.0</ele><time>2026-04-06T13:48:19.999Z</time></trkpt><trkpt lat="45.59459582580026" lon="8.579669538231057"><ele>226.0</ele><time>2026-04-06T13:48:21.999Z</time></trkpt><trkpt lat="45.59467826912261" lon="8.57961035884576"><ele>226.66666666666666</ele><time>2026-04-06T13:48:23.999Z</time></trkpt><trkpt lat="45.59476499772311" lon="8.579560985888381"><ele>227.33333333333331</ele><time>2026-04-06T13:48:25.999Z</time></trkpt><trkpt lat="45.59486174756825" lon="8.57951088606993"><ele>228.0</ele><time>2026-04-06T13:48:27.999Z</time></trkpt><trkpt lat="45.59492911283926" lon="8.579481576177818"><ele>228.66666666666669</ele><time>2026-04-06T13:48:29.999Z</time></trkpt><trkpt lat="45.594861666955886" lon="8.579505690845856"><ele>229.33333333333334</ele><time>2026-04-06T13:50:56Z</time></trkpt><trkpt lat="45.594800294488735" lon="8.579549231887635"><ele>230.0</ele><time>2026-04-06T13:50:57Z</time></trkpt><trkpt lat="45.59473024327654" lon="8.579579135238646"><ele>230.0</ele><time>2026-04-06T13:50:58Z</time></trkpt><trkpt lat="45.59461960317029" lon="8.579638932559376"><ele>230.0</ele><time>2026-04-06T13:51:00Z</time></trkpt><trkpt lat="45.59452191631913" lon="8.579692032848417"><ele>230.0</ele><time>2026-04-06T13:51:02Z</time></trkpt><trkpt lat="45.59442129863109" lon="8.579750556610835"><ele>230.0</ele><time>2026-04-06T13:51:04Z</time></trkpt><trkpt lat="45.594319748838906" lon="8.57981147812738"><ele>230.0</ele><time>2026-04-06T13:51:06Z</time></trkpt><trkpt lat="45.594220778608765" lon="8.579865910974025"><ele>229.2</ele><time>2026-04-06T13:51:08Z</time></trkpt><trkpt lat="45.59412200501439" lon="8.579925046014164"><ele>228.4</ele><time>2026-04-06T13:51:10Z</time></trkpt><trkpt lat="45.59402441977273" lon="8.579982912703938"><ele>227.60000000000002</ele><time>2026-04-06T13:51:12Z</time></trkpt><trkpt lat="45.593933652435815" lon="8.580061846315978"><ele>226.8</ele><time>2026-04-06T13:51:14Z</time></trkpt><trkpt lat="45.59383476841774" lon="8.580119928824498"><ele>226.0</ele><time>2026-04-06T13:51:16Z</time></trkpt><trkpt lat="45.59373305621354" lon="8.580183165374857"><ele>226.20000000000002</ele><time>2026-04-06T13:51:18Z</time></trkpt><trkpt lat="45.593632625874754" lon="8.580246298703548"><ele>226.40000000000003</ele><time>2026-04-06T13:51:20Z</time></trkpt><trkpt lat="45.59351595810865" lon="8.580317349641364"><ele>226.6</ele><time>2026-04-06T13:51:22Z</time></trkpt><trkpt lat="45.59345824574465" lon="8.580353877874085"><ele>226.8</ele><time>2026-04-06T13:51:23Z</time></trkpt><trkpt lat="45.59333957280998" lon="8.580419644774093"><ele>227.0</ele><time>2026-04-06T13:51:25Z</time></trkpt><trkpt lat="45.59322479708678" lon="8.580483939678885"><ele>226.71428571428572</ele><time>2026-04-06T13:51:27Z</time></trkpt><trkpt lat="45.593163699472285" lon="8.580517575059437"><ele>226.42857142857144</ele><time>2026-04-06T13:51:28Z</time></trkpt><trkpt lat="45.59309852978966" lon="8.580556813296276"><ele>226.14285714285717</ele><time>2026-04-06T13:51:29Z</time></trkpt><trkpt lat="45.59303339004962" lon="8.580597275445163"><ele>225.8571428571429</ele><time>2026-04-06T13:51:30Z</time></trkpt><trkpt lat="45.59297278544382" lon="8.5806330295885"><ele>225.57142857142858</ele><time>2026-04-06T13:51:31Z</time></trkpt><trkpt lat="45.592903926019176" lon="8.580675935872083"><ele>225.28571428571433</ele><time>2026-04-06T13:51:32Z</time></trkpt><trkpt lat="45.59283889350625" lon="8.58071833321674"><ele>225.00000000000003</ele><time>2026-04-06T13:51:33Z</time></trkpt><trkpt lat="45.59277728180216" lon="8.580758040673954"><ele>225.0</ele><time>2026-04-06T13:51:34Z</time></trkpt><trkpt lat="45.592710456571915" lon="8.580799187790705"><ele>225.0</ele><time>2026-04-06T13:51:35Z</time></trkpt><trkpt lat="45.592643757642705" lon="8.580838076933114"><ele>225.0</ele><time>2026-04-06T13:51:36Z</time></trkpt><trkpt lat="45.592571619066106" lon="8.580879188574498"><ele>225.0</ele><time>2026-04-06T13:51:37.001Z</time></trkpt><trkpt lat="45.59250218620189" lon="8.580925911587732"><ele>225.0</ele><time>2026-04-06T13:51:38.001Z</time></trkpt><trkpt lat="45.59238979463529" lon="8.58100192947555"><ele>225.0</ele><time>2026-04-06T13:51:40.001Z</time></trkpt><trkpt lat="45.59232009698476" lon="8.581040362705473"><ele>225.0</ele><time>2026-04-06T13:51:41.001Z</time></trkpt><trkpt lat="45.592248594794206" lon="8.58107958801048"><ele>225.0</ele><time>2026-04-06T13:51:42.001Z</time></trkpt><trkpt lat="45.592177473615564" lon="8.581122893716351"><ele>225.0</ele><time>2026-04-06T13:51:43.001Z</time></trkpt><trkpt lat="45.592104248320666" lon="8.581165675803398"><ele>225.0</ele><time>2026-04-06T13:51:44.001Z</time></trkpt><trkpt lat="45.5920333732566" lon="8.581210715060358"><ele>225.0</ele><time>2026-04-06T13:51:45.001Z</time></trkpt><trkpt lat="45.59196078684642" lon="8.581253157797322"><ele>225.0</ele><time>2026-04-06T13:51:46.001Z</time></trkpt><trkpt lat="45.59188942857901" lon="8.581296921479488"><ele>225.00000000000003</ele><time>2026-04-06T13:51:47Z</time></trkpt><trkpt lat="45.591819898826294" lon="8.581334955862648"><ele>225.0</ele><time>2026-04-06T13:51:48Z</time></trkpt><trkpt lat="45.591753827057076" lon="8.581361416527853"><ele>225.00000000000003</ele><time>2026-04-06T13:51:49Z</time></trkpt><trkpt lat="45.59169120246298" lon="8.58138763829178"><ele>225.00000000000003</ele><time>2026-04-06T13:51:50Z</time></trkpt><trkpt lat="45.59162890338362" lon="8.581419117111215"><ele>225.0</ele><time>2026-04-06T13:51:51Z</time></trkpt><trkpt lat="45.591559595263334" lon="8.581465125101154"><ele>225.00000000000003</ele><time>2026-04-06T13:51:52Z</time></trkpt><trkpt lat="45.591490651620106" lon="8.5815101985019"><ele>225.00000000000003</ele><time>2026-04-06T13:51:53Z</time></trkpt><trkpt lat="45.59142149288678" lon="8.581561634835605"><ele>225.0</ele><time>2026-04-06T13:51:54Z</time></trkpt><trkpt lat="45.5913481258428" lon="8.581597200858457"><ele>225.0</ele><time>2026-04-06T13:51:55Z</time></trkpt><trkpt lat="45.59127804669829" lon="8.581632736719321"><ele>225.0</ele><time>2026-04-06T13:51:56Z</time></trkpt><trkpt lat="45.591206848511014" lon="8.58165137922822"><ele>225.0</ele><time>2026-04-06T13:51:57Z</time></trkpt><trkpt lat="45.59114255293421" lon="8.581685131293725"><ele>225.0</ele><time>2026-04-06T13:51:58Z</time></trkpt><trkpt lat="45.591063275122444" lon="8.581727858030359"><ele>225.0</ele><time>2026-04-06T13:51:59Z</time></trkpt><trkpt lat="45.590993804114774" lon="8.58179152293932"><ele>224.6</ele><time>2026-04-06T13:52:00Z</time></trkpt><trkpt lat="45.590907784689996" lon="8.58180875577884"><ele>224.2</ele><time>2026-04-06T13:52:01Z</time></trkpt><trkpt lat="45.59084985085308" lon="8.581868328132128"><ele>223.8</ele><time>2026-04-06T13:52:02Z</time></trkpt><trkpt lat="45.59076734295334" lon="8.58196781909249"><ele>223.4</ele><time>2026-04-06T13:52:04Z</time></trkpt><trkpt lat="45.59065579865602" lon="8.582002485242564"><ele>223.0</ele><time>2026-04-06T13:52:06Z</time></trkpt><trkpt lat="45.5905433312477" lon="8.582043414447925"><ele>222.4</ele><time>2026-04-06T13:52:08Z</time></trkpt><trkpt lat="45.59044480308458" lon="8.582121975361586"><ele>221.8</ele><time>2026-04-06T13:52:10Z</time></trkpt><trkpt lat="45.59033619409629" lon="8.582186288718626"><ele>221.2</ele><time>2026-04-06T13:52:12Z</time></trkpt><trkpt lat="45.59020619857216" lon="8.582243693512378"><ele>220.6</ele><time>2026-04-06T13:52:14Z</time></trkpt><trkpt lat="45.59013894642434" lon="8.58230921752606"><ele>220.0</ele><time>2026-04-06T13:52:15Z</time></trkpt><trkpt lat="45.590062064829446" lon="8.582352915288997"><ele>219.99999999999997</ele><time>2026-04-06T13:52:16Z</time></trkpt><trkpt lat="45.58999174847668" lon="8.582397241257976"><ele>220.0</ele><time>2026-04-06T13:52:17Z</time></trkpt><trkpt lat="45.5899168030806" lon="8.582442301794513"><ele>220.0</ele><time>2026-04-06T13:52:18Z</time></trkpt><trkpt lat="45.58984243268561" lon="8.58248835578589"><ele>220.0</ele><time>2026-04-06T13:52:19Z</time></trkpt><trkpt lat="45.58976668427566" lon="8.58253338932732"><ele>219.99999999999997</ele><time>2026-04-06T13:52:20Z</time></trkpt><trkpt lat="45.58968794395575" lon="8.582580424416502"><ele>220.0</ele><time>2026-04-06T13:52:21Z</time></trkpt><trkpt lat="45.58960917371264" lon="8.582625916271768"><ele>219.99999999999997</ele><time>2026-04-06T13:52:22Z</time></trkpt><trkpt lat="45.58953149436927" lon="8.582670504388663"><ele>220.0</ele><time>2026-04-06T13:52:23Z</time></trkpt><trkpt lat="45.58945801249106" lon="8.582716767723891"><ele>220.0</ele><time>2026-04-06T13:52:24Z</time></trkpt><trkpt lat="45.58939259981433" lon="8.582757518570427"><ele>220.0</ele><time>2026-04-06T13:52:25Z</time></trkpt><trkpt lat="45.589329523215355" lon="8.58279937136422"><ele>220.0</ele><time>2026-04-06T13:52:26Z</time></trkpt><trkpt lat="45.58926364969288" lon="8.582834968714119"><ele>219.99999999999997</ele><time>2026-04-06T13:52:27Z</time></trkpt><trkpt lat="45.58920292048443" lon="8.58287216473683"><ele>220.0</ele><time>2026-04-06T13:52:28Z</time></trkpt><trkpt lat="45.58913918219682" lon="8.58290785994674"><ele>219.85714285714283</ele><time>2026-04-06T13:52:29Z</time></trkpt><trkpt lat="45.589075668561996" lon="8.582947156134772"><ele>219.71428571428572</ele><time>2026-04-06T13:52:30Z</time></trkpt><trkpt lat="45.58901571110773" lon="8.582978565612837"><ele>219.57142857142856</ele><time>2026-04-06T13:52:31Z</time></trkpt><trkpt lat="45.58895637555932" lon="8.583018707201239"><ele>219.42857142857142</ele><time>2026-04-06T13:52:32Z</time></trkpt><trkpt lat="45.5888882259356" lon="8.583035510613977"><ele>219.28571428571428</ele><time>2026-04-06T13:52:33Z</time></trkpt><trkpt lat="45.588825585564926" lon="8.58307320896195"><ele>219.14285714285714</ele><time>2026-04-06T13:52:34Z</time></trkpt><trkpt lat="45.58877319081538" lon="8.583130117024135"><ele>219.0</ele><time>2026-04-06T13:52:35Z</time></trkpt><trkpt lat="45.588657126726744" lon="8.58319086268574"><ele>219.0</ele><time>2026-04-06T13:52:37Z</time></trkpt><trkpt lat="45.5885505279892" lon="8.583263780065147"><ele>218.99999999999997</ele><time>2026-04-06T13:52:39Z</time></trkpt><trkpt lat="45.58844460724536" lon="8.583318777990792"><ele>218.99999999999997</ele><time>2026-04-06T13:52:41Z</time></trkpt><trkpt lat="45.58834313199543" lon="8.583379213955348"><ele>219.0</ele><time>2026-04-06T13:52:43Z</time></trkpt><trkpt lat="45.58825029619798" lon="8.58343946482955"><ele>219.0</ele><time>2026-04-06T13:52:45Z</time></trkpt><trkpt lat="45.58814741679786" lon="8.583503468750278"><ele>219.0</ele><time>2026-04-06T13:52:47Z</time></trkpt><trkpt lat="45.588034457293645" lon="8.58356711984857"><ele>218.99999999999997</ele><time>2026-04-06T13:52:49Z</time></trkpt><trkpt lat="45.587926588951284" lon="8.583630264965091"><ele>218.99999999999997</ele><time>2026-04-06T13:52:51Z</time></trkpt><trkpt lat="45.587820952047814" lon="8.583664996915969"><ele>219.0</ele><time>2026-04-06T13:52:53Z</time></trkpt><trkpt lat="45.58773706469791" lon="8.583729296172622"><ele>219.0</ele><time>2026-04-06T13:52:55Z</time></trkpt><trkpt lat="45.58765881268151" lon="8.583747449331552"><ele>219.0</ele><time>2026-04-06T13:52:57Z</time></trkpt><trkpt lat="45.58758620826649" lon="8.58379190787531"><ele>219.0</ele><time>2026-04-06T13:53:00.001Z</time></trkpt><trkpt lat="45.58768781232227" lon="8.58381554058092"><ele>219.0</ele><time>2026-04-06T13:53:05.001Z</time></trkpt><trkpt lat="45.58773211116851" lon="8.583736054082484"><ele>219.0</ele><time>2026-04-06T13:53:07.001Z</time></trkpt><trkpt lat="45.58781867531603" lon="8.583691781832457"><ele>219.0</ele><time>2026-04-06T13:53:09.001Z</time></trkpt><trkpt lat="45.587913952805195" lon="8.583644178407217"><ele>219.0</ele><time>2026-04-06T13:53:11.001Z</time></trkpt><trkpt lat="45.58799915309636" lon="8.583592089640376"><ele>219.0</ele><time>2026-04-06T13:55:49.001Z</time></trkpt><trkpt lat="45.58811085488873" lon="8.583553701876015"><ele>219.0</ele><time>2026-04-06T13:55:51.001Z</time></trkpt><trkpt lat="45.588210907144465" lon="8.58347141292564"><ele>219.0</ele><time>2026-04-06T13:55:53.001Z</time></trkpt><trkpt lat="45.588277163255164" lon="8.583453956308107"><ele>219.0</ele><time>2026-04-06T13:55:54.001Z</time></trkpt><trkpt lat="45.58833397306471" lon="8.583401888998685"><ele>219.0</ele><time>2026-04-06T13:55:55.001Z</time></trkpt><trkpt lat="45.58839422113145" lon="8.583365757089492"><ele>219.0</ele><time>2026-04-06T13:55:56.001Z</time></trkpt><trkpt lat="45.58845498043027" lon="8.58332761539392"><ele>219.0</ele><time>2026-04-06T13:55:57.001Z</time></trkpt><trkpt lat="45.58851483403882" lon="8.58328890910466"><ele>219.0</ele><time>2026-04-06T13:55:58.001Z</time></trkpt><trkpt lat="45.588582905579884" lon="8.583270583467996"><ele>219.0</ele><time>2026-04-06T13:55:59.001Z</time></trkpt><trkpt lat="45.58864686865341" lon="8.583232220697537"><ele>219.0</ele><time>2026-04-06T13:56:00.001Z</time></trkpt><trkpt lat="45.58870721938113" lon="8.583170274269847"><ele>219.0</ele><time>2026-04-06T13:56:01.001Z</time></trkpt><trkpt lat="45.58877383183847" lon="8.58313639042077"><ele>219.0</ele><time>2026-04-06T13:56:02.001Z</time></trkpt><trkpt lat="45.588842005143775" lon="8.583097769413916"><ele>219.0</ele><time>2026-04-06T13:56:03.001Z</time></trkpt><trkpt lat="45.588918365534255" lon="8.58305140948545"><ele>219.0</ele><time>2026-04-06T13:56:04.001Z</time></trkpt><trkpt lat="45.58900259694572" lon="8.583019152555245"><ele>218.99999999999997</ele><time>2026-04-06T13:56:05.001Z</time></trkpt><trkpt lat="45.589091385722035" lon="8.58296712542982"><ele>218.99999999999997</ele><time>2026-04-06T13:56:06.001Z</time></trkpt><trkpt lat="45.589201504586676" lon="8.582902599571796"><ele>219.0</ele><time>2026-04-06T13:56:07.001Z</time></trkpt><trkpt lat="45.58930564938134" lon="8.582816002277692"><ele>219.0</ele><time>2026-04-06T13:56:08.001Z</time></trkpt><trkpt lat="45.58941376897605" lon="8.582754050668129"><ele>219.2</ele><time>2026-04-06T13:56:09.001Z</time></trkpt><trkpt lat="45.58951800120265" lon="8.582697144769428"><ele>219.39999999999998</ele><time>2026-04-06T13:56:10.001Z</time></trkpt><trkpt lat="45.58961563666238" lon="8.5826411872479"><ele>219.6</ele><time>2026-04-06T13:56:11.001Z</time></trkpt><trkpt lat="45.58971019219354" lon="8.582583758130017"><ele>219.8</ele><time>2026-04-06T13:56:12.001Z</time></trkpt><trkpt lat="45.58980037550746" lon="8.582529361400198"><ele>220.0</ele><time>2026-04-06T13:56:13.001Z</time></trkpt><trkpt lat="45.58988825508204" lon="8.582471939624426"><ele>219.99999999999997</ele><time>2026-04-06T13:56:14.001Z</time></trkpt><trkpt lat="45.58997960814139" lon="8.582411183116108"><ele>220.0</ele><time>2026-04-06T13:56:15.001Z</time></trkpt><trkpt lat="45.5900659452248" lon="8.58235688967709"><ele>220.0</ele><time>2026-04-06T13:56:16.001Z</time></trkpt><trkpt lat="45.59014775110507" lon="8.582310834466735"><ele>220.0</ele><time>2026-04-06T13:56:17.001Z</time></trkpt><trkpt lat="45.59022602604742" lon="8.582264527200914"><ele>219.99999999999997</ele><time>2026-04-06T13:56:18.001Z</time></trkpt><trkpt lat="45.59029969114797" lon="8.582222990213157"><ele>220.0</ele><time>2026-04-06T13:56:19.001Z</time></trkpt><trkpt lat="45.590372633798225" lon="8.582181966614721"><ele>219.99999999999997</ele><time>2026-04-06T13:56:20.001Z</time></trkpt><trkpt lat="45.59043879910853" lon="8.582136191169987"><ele>220.0</ele><time>2026-04-06T13:56:21.001Z</time></trkpt><trkpt lat="45.59051250398278" lon="8.582113098712313"><ele>220.0</ele><time>2026-04-06T13:56:22.001Z</time></trkpt><trkpt lat="45.59057067972672" lon="8.582078538531018"><ele>220.0</ele><time>2026-04-06T13:56:23.001Z</time></trkpt><trkpt lat="45.59066634582489" lon="8.582022206954699"><ele>219.99999999999997</ele><time>2026-04-06T13:56:25.001Z</time></trkpt><trkpt lat="45.590741489461415" lon="8.58198077221347"><ele>220.0</ele><time>2026-04-06T13:56:27.001Z</time></trkpt><trkpt lat="45.59082084029732" lon="8.581962833284388"><ele>220.0</ele><time>2026-04-06T13:56:30.001Z</time></trkpt><trkpt lat="45.590868497927545" lon="8.582054115636113"><ele>220.0</ele><time>2026-04-06T13:56:32.001Z</time></trkpt><trkpt lat="45.590914220854124" lon="8.582206255339031"><ele>220.0</ele><time>2026-04-06T13:56:34.001Z</time></trkpt><trkpt lat="45.590967798996665" lon="8.582367332226708"><ele>220.0</ele><time>2026-04-06T13:56:36.001Z</time></trkpt><trkpt lat="45.591009693633524" lon="8.582518280892689"><ele>220.0</ele><time>2026-04-06T13:56:38.001Z</time></trkpt><trkpt lat="45.591053574087965" lon="8.582678149787666"><ele>220.0</ele><time>2026-04-06T13:56:40.001Z</time></trkpt><trkpt lat="45.59109411638486" lon="8.582842807779457"><ele>220.0</ele><time>2026-04-06T13:56:42.001Z</time></trkpt><trkpt lat="45.59114356437443" lon="8.58298720450615"><ele>220.0</ele><time>2026-04-06T13:56:44.001Z</time></trkpt><trkpt lat="45.5911680935444" lon="8.583121706714529"><ele>220.0</ele><time>2026-04-06T13:56:46.001Z</time></trkpt><trkpt lat="45.591211033027705" lon="8.583262387671471"><ele>220.0</ele><time>2026-04-06T13:56:48.001Z</time></trkpt><trkpt lat="45.59121755049407" lon="8.583374234751945"><ele>219.8</ele><time>2026-04-06T13:56:50.001Z</time></trkpt><trkpt lat="45.59116506775355" lon="8.583497901233953"><ele>219.6</ele><time>2026-04-06T13:56:52.001Z</time></trkpt><trkpt lat="45.59110192606065" lon="8.583632249912908"><ele>219.39999999999998</ele><time>2026-04-06T13:56:54.001Z</time></trkpt><trkpt lat="45.59102562590059" lon="8.583737963305468"><ele>219.2</ele><time>2026-04-06T13:56:56.001Z</time></trkpt><trkpt lat="45.590917056094625" lon="8.583784526106406"><ele>219.0</ele><time>2026-04-06T13:56:58.001Z</time></trkpt><trkpt lat="45.590867539847274" lon="8.583840429789646"><ele>219.0</ele><time>2026-04-06T13:56:59.001Z</time></trkpt><trkpt lat="45.590799452371165" lon="8.583861273595767"><ele>219.0</ele><time>2026-04-06T13:57:00.001Z</time></trkpt><trkpt lat="45.59073008003589" lon="8.58390654548857"><ele>219.0</ele><time>2026-04-06T13:57:01.001Z</time></trkpt><trkpt lat="45.590667619189894" lon="8.583945281266454"><ele>219.0</ele><time>2026-04-06T13:57:02.001Z</time></trkpt><trkpt lat="45.59060384652633" lon="8.584006915256158"><ele>219.0</ele><time>2026-04-06T13:57:03.001Z</time></trkpt><trkpt lat="45.59052343930502" lon="8.584030356341577"><ele>219.0</ele><time>2026-04-06T13:57:04.001Z</time></trkpt><trkpt lat="45.590450385592476" lon="8.58406792223529"><ele>219.0</ele><time>2026-04-06T13:57:05.001Z</time></trkpt><trkpt lat="45.59038394650188" lon="8.584100612897242"><ele>219.0</ele><time>2026-04-06T13:57:06.001Z</time></trkpt><trkpt lat="45.59031523214536" lon="8.584129790095744"><ele>219.0</ele><time>2026-04-06T13:57:07.001Z</time></trkpt><trkpt lat="45.59024266513554" lon="8.584156624932646"><ele>219.0</ele><time>2026-04-06T13:57:08.001Z</time></trkpt><trkpt lat="45.590160861227346" lon="8.584184851351711"><ele>219.0</ele><time>2026-04-06T13:57:09.001Z</time></trkpt><trkpt lat="45.590082584405714" lon="8.58422913204147"><ele>219.0</ele><time>2026-04-06T13:57:10.001Z</time></trkpt><trkpt lat="45.59000073969671" lon="8.584223687315598"><ele>218.57142857142858</ele><time>2026-04-06T13:57:11.001Z</time></trkpt><trkpt lat="45.58992658310234" lon="8.584235418753918"><ele>218.14285714285714</ele><time>2026-04-06T13:57:12.001Z</time></trkpt><trkpt lat="45.589852039137895" lon="8.584265119760312"><ele>217.71428571428572</ele><time>2026-04-06T13:57:13.001Z</time></trkpt><trkpt lat="45.589775993694026" lon="8.584266031157016"><ele>217.28571428571428</ele><time>2026-04-06T13:57:14.001Z</time></trkpt><trkpt lat="45.58970782540951" lon="8.58427934835771"><ele>216.85714285714283</ele><time>2026-04-06T13:57:15.001Z</time></trkpt><trkpt lat="45.58963945075711" lon="8.584280588341139"><ele>216.42857142857142</ele><time>2026-04-06T13:57:16.001Z</time></trkpt><trkpt lat="45.589566338699825" lon="8.584291181022333"><ele>216.0</ele><time>2026-04-06T13:57:17.001Z</time></trkpt><trkpt lat="45.58949823195956" lon="8.584305341341242"><ele>215.8</ele><time>2026-04-06T13:57:18.001Z</time></trkpt><trkpt lat="45.58939374065835" lon="8.584355194913195"><ele>215.60000000000002</ele><time>2026-04-06T13:57:20.001Z</time></trkpt><trkpt lat="45.58932105829114" lon="8.58444195762053"><ele>215.4</ele><time>2026-04-06T13:57:22.001Z</time></trkpt><trkpt lat="45.58927534567224" lon="8.584557534965063"><ele>215.2</ele><time>2026-04-06T13:57:24.001Z</time></trkpt><trkpt lat="45.58918712395076" lon="8.584547694066568"><ele>215.0</ele><time>2026-04-06T13:57:26.001Z</time></trkpt><trkpt lat="45.58910086255884" lon="8.584477024493612"><ele>215.00000000000003</ele><time>2026-04-06T13:57:28.001Z</time></trkpt><trkpt lat="45.58903232923923" lon="8.584442717897693"><ele>215.0</ele><time>2026-04-06T13:57:29.001Z</time></trkpt><trkpt lat="45.588969498800466" lon="8.58440096891873"><ele>215.0</ele><time>2026-04-06T13:57:30.001Z</time></trkpt><trkpt lat="45.588904627493" lon="8.584356700552908"><ele>215.0</ele><time>2026-04-06T13:57:31.001Z</time></trkpt><trkpt lat="45.58884334149062" lon="8.584316318842037"><ele>215.00000000000003</ele><time>2026-04-06T13:57:32.001Z</time></trkpt><trkpt lat="45.58877811012643" lon="8.584280059771432"><ele>215.0</ele><time>2026-04-06T13:57:33.001Z</time></trkpt><trkpt lat="45.588661862718816" lon="8.584230438953716"><ele>215.16666666666669</ele><time>2026-04-06T13:57:35.001Z</time></trkpt><trkpt lat="45.58859691000522" lon="8.584237993705985"><ele>215.33333333333334</ele><time>2026-04-06T13:57:36.001Z</time></trkpt><trkpt lat="45.58853628813192" lon="8.584307926820795"><ele>215.5</ele><time>2026-04-06T13:57:37.001Z</time></trkpt><trkpt lat="45.58845524693256" lon="8.584326931361103"><ele>215.66666666666669</ele><time>2026-04-06T13:57:38.001Z</time></trkpt><trkpt lat="45.58836383565019" lon="8.584372283063079"><ele>215.83333333333334</ele><time>2026-04-06T13:57:39.001Z</time></trkpt><trkpt lat="45.58827082149616" lon="8.584418882794617"><ele>216.0</ele><time>2026-04-06T13:57:40.001Z</time></trkpt><trkpt lat="45.58818329325348" lon="8.584488491354382"><ele>215.66666666666666</ele><time>2026-04-06T13:57:41.001Z</time></trkpt><trkpt lat="45.58809701810306" lon="8.584533295264265"><ele>215.33333333333331</ele><time>2026-04-06T13:57:42.001Z</time></trkpt><trkpt lat="45.58800684809143" lon="8.584555879054577"><ele>215.0</ele><time>2026-04-06T13:57:43.001Z</time></trkpt><trkpt lat="45.5879397153054" lon="8.584613268983976"><ele>214.66666666666666</ele><time>2026-04-06T13:57:44.001Z</time></trkpt><trkpt lat="45.58785666192529" lon="8.584636176592753"><ele>214.33333333333331</ele><time>2026-04-06T13:57:45.001Z</time></trkpt><trkpt lat="45.587786385841866" lon="8.58467432373979"><ele>214.0</ele><time>2026-04-06T13:57:46.001Z</time></trkpt><trkpt lat="45.587713233600354" lon="8.584729731507009"><ele>213.99999999999997</ele><time>2026-04-06T13:57:47.001Z</time></trkpt><trkpt lat="45.58764577248694" lon="8.584772433224547"><ele>214.0</ele><time>2026-04-06T13:57:48.001Z</time></trkpt><trkpt lat="45.58757098458865" lon="8.584811268583845"><ele>214.0</ele><time>2026-04-06T13:57:49.001Z</time></trkpt><trkpt lat="45.587493112804935" lon="8.584847889249355"><ele>214.0</ele><time>2026-04-06T13:57:50.001Z</time></trkpt><trkpt lat="45.587414944991394" lon="8.584887927319203"><ele>213.99999999999997</ele><time>2026-04-06T13:57:51.001Z</time></trkpt><trkpt lat="45.58733545982925" lon="8.58492894872986"><ele>214.0</ele><time>2026-04-06T13:57:52.001Z</time></trkpt><trkpt lat="45.58725219865082" lon="8.58494310250348"><ele>213.99999999999997</ele><time>2026-04-06T13:57:53.001Z</time></trkpt><trkpt lat="45.58717634065475" lon="8.585001419189592"><ele>214.0</ele><time>2026-04-06T13:57:54.001Z</time></trkpt><trkpt lat="45.58709944332246" lon="8.585034105307367"><ele>214.0</ele><time>2026-04-06T13:57:55.001Z</time></trkpt><trkpt lat="45.58702569034374" lon="8.585079231338954"><ele>214.0</ele><time>2026-04-06T13:57:56.001Z</time></trkpt><trkpt lat="45.58696220368353" lon="8.585110387827072"><ele>213.99999999999997</ele><time>2026-04-06T13:57:57.001Z</time></trkpt><trkpt lat="45.58689543180794" lon="8.585149653256423"><ele>214.0</ele><time>2026-04-06T13:57:58.001Z</time></trkpt><trkpt lat="45.58682629095118" lon="8.585188878735993"><ele>213.79999999999998</ele><time>2026-04-06T13:57:59.001Z</time></trkpt><trkpt lat="45.58673137274736" lon="8.585196703191421"><ele>213.59999999999997</ele><time>2026-04-06T13:58:01.001Z</time></trkpt><trkpt lat="45.58665254752424" lon="8.585136617742837"><ele>213.4</ele><time>2026-04-06T13:58:04.001Z</time></trkpt><trkpt lat="45.58667052426584" lon="8.584933349509093"><ele>213.2</ele><time>2026-04-06T13:58:06Z</time></trkpt><trkpt lat="45.58666491142981" lon="8.584838980892897"><ele>213.0</ele><time>2026-04-06T13:58:07Z</time></trkpt><trkpt lat="45.58664525352142" lon="8.584744050367624"><ele>213.0</ele><time>2026-04-06T13:58:09Z</time></trkpt><trkpt lat="45.586671644626804" lon="8.584606899858592"><ele>213.0</ele><time>2026-04-06T13:58:12Z</time></trkpt><trkpt lat="45.58665748125579" lon="8.584464560317375"><ele>213.0</ele><time>2026-04-06T13:58:14Z</time></trkpt><trkpt lat="45.58664512610277" lon="8.584375413991566"><ele>213.0</ele><time>2026-04-06T13:58:16Z</time></trkpt><trkpt lat="45.58662366947147" lon="8.584288367622301"><ele>213.0</ele><time>2026-04-06T13:58:38Z</time></trkpt><trkpt lat="45.58655621008922" lon="8.584154882904137"><ele>213.0</ele><time>2026-04-06T13:58:40Z</time></trkpt><trkpt lat="45.5864801050676" lon="8.58399447213328"><ele>213.5</ele><time>2026-04-06T13:58:42Z</time></trkpt><trkpt lat="45.58642567269604" lon="8.583920350462437"><ele>214.0</ele><time>2026-04-06T13:58:43Z</time></trkpt><trkpt lat="45.58638813667705" lon="8.583831115363976"><ele>214.5</ele><time>2026-04-06T13:58:44Z</time></trkpt><trkpt lat="45.58635160560052" lon="8.58373879393507"><ele>215.0</ele><time>2026-04-06T13:58:45Z</time></trkpt><trkpt lat="45.586309751686024" lon="8.583639649874074"><ele>215.5</ele><time>2026-04-06T13:58:46Z</time></trkpt><trkpt lat="45.586267174609915" lon="8.583546446882226"><ele>216.0</ele><time>2026-04-06T13:58:47Z</time></trkpt><trkpt lat="45.58622336899378" lon="8.583469894464859"><ele>215.33333333333334</ele><time>2026-04-06T13:58:48Z</time></trkpt><trkpt lat="45.58617583199396" lon="8.583403934088912"><ele>214.66666666666669</ele><time>2026-04-06T13:58:49Z</time></trkpt><trkpt lat="45.58612313373699" lon="8.583344880311332"><ele>214.0</ele><time>2026-04-06T13:58:50Z</time></trkpt><trkpt lat="45.58606479364993" lon="8.583293926679172"><ele>213.33333333333334</ele><time>2026-04-06T13:58:51Z</time></trkpt><trkpt lat="45.58600707468779" lon="8.583238697617602"><ele>212.66666666666669</ele><time>2026-04-06T13:58:52Z</time></trkpt><trkpt lat="45.58591460585878" lon="8.583154164073953"><ele>212.0</ele><time>2026-04-06T13:58:54Z</time></trkpt><trkpt lat="45.58585053850289" lon="8.583082658306305"><ele>212.0</ele><time>2026-04-06T13:58:56Z</time></trkpt><trkpt lat="45.58578288647026" lon="8.583010832281348"><ele>212.0</ele><time>2026-04-06T13:58:58Z</time></trkpt><trkpt lat="45.58568493880838" lon="8.582909326764145"><ele>212.0</ele><time>2026-04-06T13:59:00Z</time></trkpt><trkpt lat="45.5856317460074" lon="8.582851266295638"><ele>212.0</ele><time>2026-04-06T13:59:01Z</time></trkpt><trkpt lat="45.58556533195431" lon="8.582699289630208"><ele>212.0</ele><time>2026-04-06T13:59:03Z</time></trkpt><trkpt lat="45.5855862826933" lon="8.582497989393525"><ele>212.0</ele><time>2026-04-06T13:59:05Z</time></trkpt><trkpt lat="45.58563196359444" lon="8.582381983814416"><ele>212.0</ele><time>2026-04-06T13:59:06Z</time></trkpt><trkpt lat="45.58570418525357" lon="8.582249923709341"><ele>212.0</ele><time>2026-04-06T13:59:07Z</time></trkpt><trkpt lat="45.58579284538554" lon="8.582106040468368"><ele>212.0</ele><time>2026-04-06T13:59:08Z</time></trkpt><trkpt lat="45.58589586242007" lon="8.581938293183239"><ele>212.66666666666669</ele><time>2026-04-06T13:59:09Z</time></trkpt><trkpt lat="45.58600325413666" lon="8.581767387112082"><ele>213.33333333333331</ele><time>2026-04-06T13:59:10Z</time></trkpt><trkpt lat="45.58610972906826" lon="8.581592887718466"><ele>214.0</ele><time>2026-04-06T13:59:11Z</time></trkpt><trkpt lat="45.58621594052498" lon="8.58141943006769"><ele>214.0</ele><time>2026-04-06T13:59:12Z</time></trkpt><trkpt lat="45.586317364819735" lon="8.581249675229142"><ele>214.0</ele><time>2026-04-06T13:59:13Z</time></trkpt><trkpt lat="45.586416525156054" lon="8.5810804035276"><ele>214.0</ele><time>2026-04-06T13:59:14Z</time></trkpt><trkpt lat="45.5865773877012" lon="8.580824611444559"><ele>214.66666666666666</ele><time>2026-04-06T13:59:15Z</time></trkpt><trkpt lat="45.58671242731842" lon="8.580613327892195"><ele>215.33333333333331</ele><time>2026-04-06T13:59:16Z</time></trkpt><trkpt lat="45.586839143385575" lon="8.580420559329049"><ele>216.0</ele><time>2026-04-06T13:59:17Z</time></trkpt><trkpt lat="45.5869621533305" lon="8.58022816741974"><ele>216.0</ele><time>2026-04-06T13:59:18Z</time></trkpt><trkpt lat="45.58707921777" lon="8.580034053270868"><ele>216.0</ele><time>2026-04-06T13:59:19Z</time></trkpt><trkpt lat="45.587190819139046" lon="8.579846231705098"><ele>216.0</ele><time>2026-04-06T13:59:20Z</time></trkpt><trkpt lat="45.587305119229285" lon="8.579664856782921"><ele>216.33333333333331</ele><time>2026-04-06T13:59:21Z</time></trkpt><trkpt lat="45.587422649640786" lon="8.579484984592677"><ele>216.66666666666666</ele><time>2026-04-06T13:59:22Z</time></trkpt><trkpt lat="45.58753897293047" lon="8.579305409596001"><ele>217.0</ele><time>2026-04-06T13:59:23Z</time></trkpt><trkpt lat="45.587650352589534" lon="8.579128191220407"><ele>217.0</ele><time>2026-04-06T13:59:24Z</time></trkpt><trkpt lat="45.58776233307633" lon="8.578946637347803"><ele>217.0</ele><time>2026-04-06T13:59:25Z</time></trkpt><trkpt lat="45.587876278573" lon="8.578760601258713"><ele>217.0</ele><time>2026-04-06T13:59:26Z</time></trkpt><trkpt lat="45.5879883229975" lon="8.578579627171974"><ele>217.0</ele><time>2026-04-06T13:59:27Z</time></trkpt><trkpt lat="45.58810228267582" lon="8.57840287450565"><ele>217.0</ele><time>2026-04-06T13:59:28Z</time></trkpt><trkpt lat="45.58821957126157" lon="8.578223236503131"><ele>217.0</ele><time>2026-04-06T13:59:29Z</time></trkpt><trkpt lat="45.588340871075374" lon="8.578037591275791"><ele>217.33333333333331</ele><time>2026-04-06T13:59:30Z</time></trkpt><trkpt lat="45.58846103889032" lon="8.577844795412176"><ele>217.66666666666669</ele><time>2026-04-06T13:59:31.001Z</time></trkpt><trkpt lat="45.588580327009346" lon="8.57765074702909"><ele>218.0</ele><time>2026-04-06T13:59:32.001Z</time></trkpt><trkpt lat="45.58869753592517" lon="8.577459567780627"><ele>218.0</ele><time>2026-04-06T13:59:33.001Z</time></trkpt><trkpt lat="45.58881715503175" lon="8.577266690283874"><ele>218.0</ele><time>2026-04-06T13:59:34.001Z</time></trkpt><trkpt lat="45.588940335817796" lon="8.577074291120244"><ele>218.0</ele><time>2026-04-06T13:59:35.001Z</time></trkpt><trkpt lat="45.58906496211129" lon="8.576879277052996"><ele>218.0</ele><time>2026-04-06T13:59:36.001Z</time></trkpt><trkpt lat="45.58918926049366" lon="8.576678597864154"><ele>218.0</ele><time>2026-04-06T13:59:37.001Z</time></trkpt><trkpt lat="45.58930991457265" lon="8.576484809980506"><ele>218.0</ele><time>2026-04-06T13:59:38.001Z</time></trkpt><trkpt lat="45.58942606251608" lon="8.576301442595337"><ele>217.33333333333334</ele><time>2026-04-06T13:59:39.001Z</time></trkpt><trkpt lat="45.589544569383015" lon="8.576115311711325"><ele>216.66666666666669</ele><time>2026-04-06T13:59:40.001Z</time></trkpt><trkpt lat="45.58966513800091" lon="8.575924343045562"><ele>216.0</ele><time>2026-04-06T13:59:41.001Z</time></trkpt><trkpt lat="45.58978043783908" lon="8.575739396357283"><ele>216.0</ele><time>2026-04-06T13:59:42.001Z</time></trkpt><trkpt lat="45.58990138665936" lon="8.575538782589394"><ele>216.0</ele><time>2026-04-06T13:59:43.001Z</time></trkpt><trkpt lat="45.59003923634142" lon="8.57531845080937"><ele>216.0</ele><time>2026-04-06T13:59:44.001Z</time></trkpt><trkpt lat="45.59017498267007" lon="8.575102523778746"><ele>216.0</ele><time>2026-04-06T13:59:45.001Z</time></trkpt><trkpt lat="45.590328075616505" lon="8.574864504816059"><ele>216.0</ele><time>2026-04-06T13:59:46.001Z</time></trkpt><trkpt lat="45.59048446397123" lon="8.574607787938731"><ele>216.5</ele><time>2026-04-06T13:59:47.001Z</time></trkpt><trkpt lat="45.590653745847646" lon="8.574332863515787"><ele>217.0</ele><time>2026-04-06T13:59:48.001Z</time></trkpt><trkpt lat="45.59082920087481" lon="8.574062197304391"><ele>217.0</ele><time>2026-04-06T13:59:49.001Z</time></trkpt><trkpt lat="45.59098524245695" lon="8.573808394040634"><ele>217.0</ele><time>2026-04-06T13:59:50.001Z</time></trkpt><trkpt lat="45.59113053219184" lon="8.573574670030577"><ele>217.66666666666666</ele><time>2026-04-06T13:59:51.001Z</time></trkpt><trkpt lat="45.59126813719008" lon="8.573355397258826"><ele>218.33333333333331</ele><time>2026-04-06T13:59:52.001Z</time></trkpt><trkpt lat="45.591403939528654" lon="8.573144572934744"><ele>219.0</ele><time>2026-04-06T13:59:53.001Z</time></trkpt><trkpt lat="45.59153271315338" lon="8.572934039913438"><ele>219.0</ele><time>2026-04-06T13:59:54.001Z</time></trkpt><trkpt lat="45.591660289518586" lon="8.5727337109518"><ele>219.0</ele><time>2026-04-06T13:59:55.001Z</time></trkpt><trkpt lat="45.59179258432254" lon="8.572535873180128"><ele>219.0</ele><time>2026-04-06T13:59:56.001Z</time></trkpt><trkpt lat="45.59191498683478" lon="8.572341233332953"><ele>220.33333333333331</ele><time>2026-04-06T13:59:57.001Z</time></trkpt><trkpt lat="45.592029750705876" lon="8.572153097550213"><ele>221.66666666666666</ele><time>2026-04-06T13:59:58.001Z</time></trkpt><trkpt lat="45.59214404765038" lon="8.571974157588423"><ele>223.0</ele><time>2026-04-06T13:59:59.001Z</time></trkpt><trkpt lat="45.59225975560891" lon="8.57178934690189"><ele>223.0</ele><time>2026-04-06T14:00:00.001Z</time></trkpt><trkpt lat="45.59237103347515" lon="8.57160149046174"><ele>223.0</ele><time>2026-04-06T14:00:01.001Z</time></trkpt><trkpt lat="45.59247634677289" lon="8.571431814238373"><ele>223.0</ele><time>2026-04-06T14:00:02.001Z</time></trkpt><trkpt lat="45.59257911542723" lon="8.571273271984564"><ele>222.33333333333331</ele><time>2026-04-06T14:00:03.001Z</time></trkpt><trkpt lat="45.59268046203157" lon="8.571120101620052"><ele>221.66666666666669</ele><time>2026-04-06T14:00:04.001Z</time></trkpt><trkpt lat="45.59279101313354" lon="8.570948570314183"><ele>221.0</ele><time>2026-04-06T14:00:05.001Z</time></trkpt><trkpt lat="45.592897897944695" lon="8.570778179582799"><ele>221.66666666666669</ele><time>2026-04-06T14:00:06.001Z</time></trkpt><trkpt lat="45.593001027142" lon="8.57061250768088"><ele>222.33333333333331</ele><time>2026-04-06T14:00:07.001Z</time></trkpt><trkpt lat="45.59310692661996" lon="8.570440592661422"><ele>223.0</ele><time>2026-04-06T14:00:08.001Z</time></trkpt><trkpt lat="45.59321627572497" lon="8.5702646153894"><ele>223.0</ele><time>2026-04-06T14:00:09.001Z</time></trkpt><trkpt lat="45.59332295275362" lon="8.57009475130016"><ele>223.0</ele><time>2026-04-06T14:00:10.001Z</time></trkpt><trkpt lat="45.593427986659655" lon="8.569925863503261"><ele>223.0</ele><time>2026-04-06T14:00:11Z</time></trkpt><trkpt lat="45.59353758495946" lon="8.569748952534002"><ele>223.0</ele><time>2026-04-06T14:00:12Z</time></trkpt><trkpt lat="45.593655416401184" lon="8.569566120952109"><ele>223.0</ele><time>2026-04-06T14:00:13Z</time></trkpt><trkpt lat="45.59377980458816" lon="8.569368709311043"><ele>223.0</ele><time>2026-04-06T14:00:14Z</time></trkpt><trkpt lat="45.59389632986645" lon="8.569180733119458"><ele>222.66666666666666</ele><time>2026-04-06T14:00:15Z</time></trkpt><trkpt lat="45.59401168178302" lon="8.568996044772284"><ele>222.33333333333331</ele><time>2026-04-06T14:00:16Z</time></trkpt><trkpt lat="45.594126970654806" lon="8.568813036785539"><ele>222.0</ele><time>2026-04-06T14:00:17Z</time></trkpt><trkpt lat="45.594235360380274" lon="8.568638546678914"><ele>222.0</ele><time>2026-04-06T14:00:18Z</time></trkpt><trkpt lat="45.594338793477974" lon="8.568472032913656"><ele>222.0</ele><time>2026-04-06T14:00:19Z</time></trkpt><trkpt lat="45.59444271055963" lon="8.568304031772414"><ele>222.0</ele><time>2026-04-06T14:00:20Z</time></trkpt><trkpt lat="45.59465887717334" lon="8.567961915760648"><ele>222.66666666666669</ele><time>2026-04-06T14:00:22Z</time></trkpt><trkpt lat="45.594769520489656" lon="8.567786574631839"><ele>223.33333333333334</ele><time>2026-04-06T14:00:23Z</time></trkpt><trkpt lat="45.59487470473693" lon="8.56761599345571"><ele>224.0</ele><time>2026-04-06T14:00:24Z</time></trkpt><trkpt lat="45.594988544177596" lon="8.56743446483517"><ele>224.0</ele><time>2026-04-06T14:00:25Z</time></trkpt><trkpt lat="45.59510209055248" lon="8.567253199869691"><ele>224.0</ele><time>2026-04-06T14:00:26Z</time></trkpt><trkpt lat="45.59521680357782" lon="8.56707078969839"><ele>224.0</ele><time>2026-04-06T14:00:27Z</time></trkpt><trkpt lat="45.595334011610426" lon="8.566888641134888"><ele>223.33333333333334</ele><time>2026-04-06T14:00:28Z</time></trkpt><trkpt lat="45.59545230457348" lon="8.566699779427864"><ele>222.66666666666669</ele><time>2026-04-06T14:00:29Z</time></trkpt><trkpt lat="45.595573945201544" lon="8.566510096022865"><ele>222.0</ele><time>2026-04-06T14:00:30Z</time></trkpt><trkpt lat="45.5956933492949" lon="8.566318239482023"><ele>222.66666666666669</ele><time>2026-04-06T14:00:31Z</time></trkpt><trkpt lat="45.59581446729946" lon="8.566126979249523"><ele>223.33333333333334</ele><time>2026-04-06T14:00:32Z</time></trkpt><trkpt lat="45.595942118710326" lon="8.56592907836253"><ele>224.0</ele><time>2026-04-06T14:00:33Z</time></trkpt><trkpt lat="45.59606599798226" lon="8.56573438136987"><ele>224.66666666666669</ele><time>2026-04-06T14:00:34Z</time></trkpt><trkpt lat="45.596188804934286" lon="8.565536408289391"><ele>225.33333333333331</ele><time>2026-04-06T14:00:35Z</time></trkpt><trkpt lat="45.59631316984281" lon="8.565331822891801"><ele>226.0</ele><time>2026-04-06T14:00:36Z</time></trkpt><trkpt lat="45.59643443907134" lon="8.565132698033114"><ele>226.66666666666666</ele><time>2026-04-06T14:00:37Z</time></trkpt><trkpt lat="45.59655645791461" lon="8.564935273794468"><ele>227.33333333333331</ele><time>2026-04-06T14:00:38Z</time></trkpt><trkpt lat="45.596678694402634" lon="8.56473961790207"><ele>228.0</ele><time>2026-04-06T14:00:39Z</time></trkpt><trkpt lat="45.59680368272103" lon="8.564543902120095"><ele>227.66666666666669</ele><time>2026-04-06T14:00:40Z</time></trkpt><trkpt lat="45.59692304829696" lon="8.564357224759897"><ele>227.33333333333334</ele><time>2026-04-06T14:00:41Z</time></trkpt><trkpt lat="45.59704493105454" lon="8.56416475178848"><ele>227.0</ele><time>2026-04-06T14:00:42Z</time></trkpt><trkpt lat="45.597167593307404" lon="8.56396577529034"><ele>226.66666666666669</ele><time>2026-04-06T14:00:43Z</time></trkpt><trkpt lat="45.59728985841005" lon="8.563770293465199"><ele>226.33333333333331</ele><time>2026-04-06T14:00:44Z</time></trkpt><trkpt lat="45.59741211653441" lon="8.56357326103345"><ele>226.0</ele><time>2026-04-06T14:00:45Z</time></trkpt><trkpt lat="45.597533079131246" lon="8.56337870842064"><ele>226.0</ele><time>2026-04-06T14:00:46Z</time></trkpt><trkpt lat="45.59765360709346" lon="8.563191019926473"><ele>226.0</ele><time>2026-04-06T14:00:47Z</time></trkpt><trkpt lat="45.59776446839853" lon="8.56301643193404"><ele>226.0</ele><time>2026-04-06T14:00:48Z</time></trkpt><trkpt lat="45.59787119194208" lon="8.562843553176908"><ele>226.33333333333331</ele><time>2026-04-06T14:00:49Z</time></trkpt><trkpt lat="45.59797823614108" lon="8.56267128337842"><ele>226.66666666666669</ele><time>2026-04-06T14:00:50Z</time></trkpt><trkpt lat="45.59808533120589" lon="8.562500869518482"><ele>227.0</ele><time>2026-04-06T14:00:51Z</time></trkpt><trkpt lat="45.59819170041683" lon="8.562329112156457"><ele>227.0</ele><time>2026-04-06T14:00:52Z</time></trkpt><trkpt lat="45.5982951309503" lon="8.562163523735531"><ele>227.0</ele><time>2026-04-06T14:00:53Z</time></trkpt><trkpt lat="45.59840308371487" lon="8.56199411786236"><ele>227.0</ele><time>2026-04-06T14:00:54Z</time></trkpt><trkpt lat="45.59851012689118" lon="8.561825456625742"><ele>227.0</ele><time>2026-04-06T14:00:55Z</time></trkpt><trkpt lat="45.59861526465294" lon="8.561655574471462"><ele>227.0</ele><time>2026-04-06T14:00:56Z</time></trkpt><trkpt lat="45.59871889931079" lon="8.561487610461883"><ele>227.0</ele><time>2026-04-06T14:00:57Z</time></trkpt><trkpt lat="45.59882288422371" lon="8.561321235969968"><ele>227.33333333333334</ele><time>2026-04-06T14:00:58Z</time></trkpt><trkpt lat="45.5989304022474" lon="8.561149852473225"><ele>227.66666666666669</ele><time>2026-04-06T14:00:59Z</time></trkpt><trkpt lat="45.59903274687009" lon="8.560984841988317"><ele>228.0</ele><time>2026-04-06T14:01:00Z</time></trkpt><trkpt lat="45.599140281471094" lon="8.560815634320612"><ele>228.0</ele><time>2026-04-06T14:01:01Z</time></trkpt><trkpt lat="45.59924384470458" lon="8.560646332234985"><ele>228.0</ele><time>2026-04-06T14:01:02Z</time></trkpt><trkpt lat="45.599342810807535" lon="8.560484784392544"><ele>228.0</ele><time>2026-04-06T14:01:03Z</time></trkpt><trkpt lat="45.59944591073913" lon="8.560321061666913"><ele>228.0</ele><time>2026-04-06T14:01:04Z</time></trkpt><trkpt lat="45.59954051921311" lon="8.560170839644242"><ele>228.0</ele><time>2026-04-06T14:01:05Z</time></trkpt><trkpt lat="45.59963619527805" lon="8.560016934037854"><ele>228.0</ele><time>2026-04-06T14:01:06Z</time></trkpt><trkpt lat="45.59973060681898" lon="8.559867719548285"><ele>228.0</ele><time>2026-04-06T14:01:07Z</time></trkpt><trkpt lat="45.59982056958378" lon="8.55972132414382"><ele>228.0</ele><time>2026-04-06T14:01:08Z</time></trkpt><trkpt lat="45.59990897382741" lon="8.559582012828884"><ele>228.0</ele><time>2026-04-06T14:01:09Z</time></trkpt><trkpt lat="45.59999170449473" lon="8.559443892656304"><ele>228.0</ele><time>2026-04-06T14:01:10Z</time></trkpt><trkpt lat="45.600072970088036" lon="8.55930197826678"><ele>228.0</ele><time>2026-04-06T14:01:11Z</time></trkpt><trkpt lat="45.600161205943465" lon="8.559162823808729"><ele>228.0</ele><time>2026-04-06T14:01:12Z</time></trkpt><trkpt lat="45.60024560637396" lon="8.559024589494635"><ele>228.0</ele><time>2026-04-06T14:01:13Z</time></trkpt><trkpt lat="45.60033623527216" lon="8.558882065268994"><ele>228.0</ele><time>2026-04-06T14:01:14Z</time></trkpt><trkpt lat="45.6004270952315" lon="8.558739007928347"><ele>228.0</ele><time>2026-04-06T14:01:15Z</time></trkpt><trkpt lat="45.600519123179154" lon="8.558593935967236"><ele>228.25</ele><time>2026-04-06T14:01:16Z</time></trkpt><trkpt lat="45.60061500452528" lon="8.55844610287075"><ele>228.5</ele><time>2026-04-06T14:01:17Z</time></trkpt><trkpt lat="45.60070045854136" lon="8.558305659171229"><ele>228.75</ele><time>2026-04-06T14:01:18Z</time></trkpt><trkpt lat="45.600784900319425" lon="8.558166482836288"><ele>229.0</ele><time>2026-04-06T14:01:19Z</time></trkpt><trkpt lat="45.60087245878124" lon="8.558020535499528"><ele>229.0</ele><time>2026-04-06T14:01:20Z</time></trkpt><trkpt lat="45.6009650246349" lon="8.557889754462655"><ele>229.0</ele><time>2026-04-06T14:01:21Z</time></trkpt><trkpt lat="45.60105003235722" lon="8.557750142440934"><ele>229.0</ele><time>2026-04-06T14:01:22Z</time></trkpt><trkpt lat="45.60114384932138" lon="8.557604244419158"><ele>229.0</ele><time>2026-04-06T14:01:23Z</time></trkpt><trkpt lat="45.601235350180666" lon="8.557454127608457"><ele>229.5</ele><time>2026-04-06T14:01:24Z</time></trkpt><trkpt lat="45.601328984095794" lon="8.557304992946417"><ele>230.0</ele><time>2026-04-06T14:01:25Z</time></trkpt><trkpt lat="45.601417614814395" lon="8.557163107224794"><ele>230.5</ele><time>2026-04-06T14:01:26Z</time></trkpt><trkpt lat="45.6015046277921" lon="8.55702317076538"><ele>231.0</ele><time>2026-04-06T14:01:27Z</time></trkpt><trkpt lat="45.60158790151393" lon="8.556880199803718"><ele>231.0</ele><time>2026-04-06T14:01:28Z</time></trkpt><trkpt lat="45.601672897662176" lon="8.556749089954181"><ele>231.0</ele><time>2026-04-06T14:01:29Z</time></trkpt><trkpt lat="45.6017515321124" lon="8.556626036147199"><ele>231.0</ele><time>2026-04-06T14:01:30Z</time></trkpt><trkpt lat="45.60182594175853" lon="8.55650014307008"><ele>231.0</ele><time>2026-04-06T14:01:31Z</time></trkpt><trkpt lat="45.601903321057144" lon="8.556390764625622"><ele>231.0</ele><time>2026-04-06T14:01:32Z</time></trkpt><trkpt lat="45.60198230304829" lon="8.556265438089762"><ele>231.00000000000003</ele><time>2026-04-06T14:01:33Z</time></trkpt><trkpt lat="45.602047451548394" lon="8.556153116783868"><ele>231.00000000000003</ele><time>2026-04-06T14:01:34Z</time></trkpt><trkpt lat="45.602118529797394" lon="8.5560553041563"><ele>231.0</ele><time>2026-04-06T14:01:35Z</time></trkpt><trkpt lat="45.60219261856899" lon="8.55592756661238"><ele>231.0</ele><time>2026-04-06T14:01:36Z</time></trkpt><trkpt lat="45.6022583572844" lon="8.555803858976837"><ele>231.4</ele><time>2026-04-06T14:01:37Z</time></trkpt><trkpt lat="45.602336895610115" lon="8.555696538159646"><ele>231.8</ele><time>2026-04-06T14:01:38Z</time></trkpt><trkpt lat="45.60240720674449" lon="8.555574711203986"><ele>232.20000000000002</ele><time>2026-04-06T14:01:39Z</time></trkpt><trkpt lat="45.60247813462473" lon="8.555457211870193"><ele>232.60000000000002</ele><time>2026-04-06T14:01:40Z</time></trkpt><trkpt lat="45.60255251345077" lon="8.555348532184361"><ele>233.0</ele><time>2026-04-06T14:01:41Z</time></trkpt><trkpt lat="45.60261265187019" lon="8.555243357985585"><ele>233.00000000000003</ele><time>2026-04-06T14:01:42Z</time></trkpt><trkpt lat="45.602674989130584" lon="8.555145883072028"><ele>233.0</ele><time>2026-04-06T14:01:43Z</time></trkpt><trkpt lat="45.602732427222456" lon="8.555046241108688"><ele>233.0</ele><time>2026-04-06T14:01:44Z</time></trkpt><trkpt lat="45.602787634157224" lon="8.554959283670023"><ele>233.0</ele><time>2026-04-06T14:01:45Z</time></trkpt><trkpt lat="45.602844850616194" lon="8.55486802544568"><ele>233.00000000000003</ele><time>2026-04-06T14:01:46Z</time></trkpt><trkpt lat="45.602899206520284" lon="8.554774551782145"><ele>233.0</ele><time>2026-04-06T14:01:47Z</time></trkpt><trkpt lat="45.6029588385855" lon="8.554682674328529"><ele>233.2</ele><time>2026-04-06T14:01:48Z</time></trkpt><trkpt lat="45.60301630032425" lon="8.554587547514908"><ele>233.4</ele><time>2026-04-06T14:01:49Z</time></trkpt><trkpt lat="45.60308167359077" lon="8.554485321471942"><ele>233.59999999999997</ele><time>2026-04-06T14:01:50Z</time></trkpt><trkpt lat="45.603143359533256" lon="8.554384041078103"><ele>233.79999999999998</ele><time>2026-04-06T14:01:51Z</time></trkpt><trkpt lat="45.60320711075613" lon="8.55428404993397"><ele>234.0</ele><time>2026-04-06T14:01:52Z</time></trkpt><trkpt lat="45.60327054035215" lon="8.554184012785846"><ele>234.0</ele><time>2026-04-06T14:01:53Z</time></trkpt><trkpt lat="45.60333579689047" lon="8.554091474092985"><ele>233.99999999999997</ele><time>2026-04-06T14:01:54Z</time></trkpt><trkpt lat="45.60340815222128" lon="8.553994349488285"><ele>233.99999999999997</ele><time>2026-04-06T14:01:55Z</time></trkpt><trkpt lat="45.60348191512745" lon="8.553896209951478"><ele>234.0</ele><time>2026-04-06T14:01:56Z</time></trkpt><trkpt lat="45.60356178425674" lon="8.553823716988443"><ele>234.0</ele><time>2026-04-06T14:01:57Z</time></trkpt><trkpt lat="45.603638334790006" lon="8.55375334781888"><ele>234.5</ele><time>2026-04-06T14:01:58Z</time></trkpt><trkpt lat="45.603720516354834" lon="8.55369682137001"><ele>235.0</ele><time>2026-04-06T14:01:59Z</time></trkpt><trkpt lat="45.60379647991391" lon="8.553630619048247"><ele>235.5</ele><time>2026-04-06T14:02:00.001Z</time></trkpt><trkpt lat="45.60387361187886" lon="8.553567435511843"><ele>236.0</ele><time>2026-04-06T14:02:01.001Z</time></trkpt><trkpt lat="45.60395061674685" lon="8.553510292055545"><ele>236.5</ele><time>2026-04-06T14:02:02.001Z</time></trkpt><trkpt lat="45.60403581379286" lon="8.553468843348956"><ele>237.0</ele><time>2026-04-06T14:02:03.001Z</time></trkpt><trkpt lat="45.60412201142134" lon="8.553422660386106"><ele>237.0</ele><time>2026-04-06T14:02:04.001Z</time></trkpt><trkpt lat="45.60420200829239" lon="8.553374858177296"><ele>237.0</ele><time>2026-04-06T14:02:05.001Z</time></trkpt><trkpt lat="45.60427792826717" lon="8.553329548788561"><ele>237.0</ele><time>2026-04-06T14:02:06.001Z</time></trkpt><trkpt lat="45.604348078154985" lon="8.553275360767092"><ele>237.0</ele><time>2026-04-06T14:02:07.001Z</time></trkpt><trkpt lat="45.60441655007648" lon="8.553220769146797"><ele>237.0</ele><time>2026-04-06T14:02:08.001Z</time></trkpt><trkpt lat="45.60447764522139" lon="8.553166976139304"><ele>237.0</ele><time>2026-04-06T14:02:09.001Z</time></trkpt><trkpt lat="45.60457579037923" lon="8.553087389764414"><ele>237.0</ele><time>2026-04-06T14:02:11.001Z</time></trkpt><trkpt lat="45.60465805553202" lon="8.55304623857825"><ele>237.0</ele><time>2026-04-06T14:02:13.001Z</time></trkpt><trkpt lat="45.60475683523832" lon="8.55312804409833"><ele>237.0</ele><time>2026-04-06T14:02:15.001Z</time></trkpt><trkpt lat="45.60481833582954" lon="8.553200251276854"><ele>237.0</ele><time>2026-04-06T14:02:16.001Z</time></trkpt><trkpt lat="45.604881680837714" lon="8.553280798563842"><ele>237.0</ele><time>2026-04-06T14:02:17Z</time></trkpt><trkpt lat="45.60494393804595" lon="8.553369498231541"><ele>237.0</ele><time>2026-04-06T14:02:18Z</time></trkpt><trkpt lat="45.60499561175785" lon="8.553452544611583"><ele>237.0</ele><time>2026-04-06T14:02:19Z</time></trkpt><trkpt lat="45.605048740606726" lon="8.553519506669534"><ele>237.0</ele><time>2026-04-06T14:02:20Z</time></trkpt><trkpt lat="45.60512293422698" lon="8.553621114317833"><ele>237.0</ele><time>2026-04-06T14:02:22Z</time></trkpt><trkpt lat="45.60517094549426" lon="8.553703853216966"><ele>237.0</ele><time>2026-04-06T14:02:24Z</time></trkpt><trkpt lat="45.6052724836027" lon="8.55363498276527"><ele>237.0</ele><time>2026-04-06T14:02:25Z</time></trkpt><trkpt lat="45.605341392687954" lon="8.553584113178221"><ele>237.0</ele><time>2026-04-06T14:02:26Z</time></trkpt><trkpt lat="45.60542845883581" lon="8.55354009841411"><ele>237.0</ele><time>2026-04-06T14:02:27Z</time></trkpt><trkpt lat="45.605533910280606" lon="8.553478820033032"><ele>237.0</ele><time>2026-04-06T14:02:28Z</time></trkpt><trkpt lat="45.60562108108809" lon="8.553437385013629"><ele>237.0</ele><time>2026-04-06T14:02:29Z</time></trkpt><trkpt lat="45.60570809415498" lon="8.553423194947989"><ele>237.0</ele><time>2026-04-06T14:02:30Z</time></trkpt><trkpt lat="45.605801526947744" lon="8.553411945248865"><ele>237.0</ele><time>2026-04-06T14:02:31Z</time></trkpt><trkpt lat="45.60589785825944" lon="8.553403063258967"><ele>237.0</ele><time>2026-04-06T14:02:32Z</time></trkpt><trkpt lat="45.605999586173326" lon="8.553383744662646"><ele>237.0</ele><time>2026-04-06T14:02:33Z</time></trkpt><trkpt lat="45.60610826871374" lon="8.55335799035954"><ele>237.0</ele><time>2026-04-06T14:02:34Z</time></trkpt><trkpt lat="45.6062193908009" lon="8.55333042353132"><ele>237.0</ele><time>2026-04-06T14:02:35Z</time></trkpt><trkpt lat="45.60632643575511" lon="8.55330267316014"><ele>236.5</ele><time>2026-04-06T14:02:36Z</time></trkpt><trkpt lat="45.60644063779702" lon="8.553288656780703"><ele>236.0</ele><time>2026-04-06T14:02:37Z</time></trkpt><trkpt lat="45.60655339881666" lon="8.553263511805744"><ele>235.5</ele><time>2026-04-06T14:02:38Z</time></trkpt><trkpt lat="45.60667498869265" lon="8.553237620668716"><ele>235.0</ele><time>2026-04-06T14:02:39Z</time></trkpt><trkpt lat="45.60680157437176" lon="8.553216669160058"><ele>235.0</ele><time>2026-04-06T14:02:40Z</time></trkpt><trkpt lat="45.606917074665596" lon="8.553186098904012"><ele>235.0</ele><time>2026-04-06T14:02:41Z</time></trkpt><trkpt lat="45.60713896244011" lon="8.553131447644436"><ele>235.0</ele><time>2026-04-06T14:02:43Z</time></trkpt><trkpt lat="45.60724293834731" lon="8.55310402456057"><ele>235.0</ele><time>2026-04-06T14:02:44Z</time></trkpt><trkpt lat="45.60734714857872" lon="8.55307334047525"><ele>235.0</ele><time>2026-04-06T14:02:45Z</time></trkpt><trkpt lat="45.60745530945197" lon="8.553048246080081"><ele>235.0</ele><time>2026-04-06T14:02:46Z</time></trkpt><trkpt lat="45.60757867836999" lon="8.55302255890366"><ele>235.0</ele><time>2026-04-06T14:02:47Z</time></trkpt><trkpt lat="45.60771084815678" lon="8.552993862564575"><ele>235.0</ele><time>2026-04-06T14:02:48Z</time></trkpt><trkpt lat="45.60784621492331" lon="8.552963028936027"><ele>235.0</ele><time>2026-04-06T14:02:49Z</time></trkpt><trkpt lat="45.60799114988161" lon="8.552908469593655"><ele>235.0</ele><time>2026-04-06T14:02:50Z</time></trkpt><trkpt lat="45.60812132793657" lon="8.552861500107364"><ele>235.0</ele><time>2026-04-06T14:02:51Z</time></trkpt><trkpt lat="45.60825612461316" lon="8.552799852756939"><ele>235.0</ele><time>2026-04-06T14:02:52Z</time></trkpt><trkpt lat="45.60839503818098" lon="8.552722405978187"><ele>235.0</ele><time>2026-04-06T14:02:53Z</time></trkpt><trkpt lat="45.608530511884254" lon="8.552647498257436"><ele>235.0</ele><time>2026-04-06T14:02:54Z</time></trkpt><trkpt lat="45.60867198911084" lon="8.552565215496246"><ele>235.0</ele><time>2026-04-06T14:02:55Z</time></trkpt><trkpt lat="45.60883544184484" lon="8.552472586641239"><ele>235.0</ele><time>2026-04-06T14:02:56Z</time></trkpt><trkpt lat="45.608998855666385" lon="8.552378203756316"><ele>235.0</ele><time>2026-04-06T14:02:57Z</time></trkpt><trkpt lat="45.60914950321236" lon="8.552297903236829"><ele>235.0</ele><time>2026-04-06T14:02:58Z</time></trkpt><trkpt lat="45.60929444525503" lon="8.552223757260544"><ele>235.0</ele><time>2026-04-06T14:02:59Z</time></trkpt><trkpt lat="45.60943281019767" lon="8.552145798914808"><ele>235.0</ele><time>2026-04-06T14:03:00Z</time></trkpt><trkpt lat="45.609581256775876" lon="8.552062466424353"><ele>235.0</ele><time>2026-04-06T14:03:01Z</time></trkpt><trkpt lat="45.60972147658384" lon="8.551981994995279"><ele>235.66666666666666</ele><time>2026-04-06T14:03:02Z</time></trkpt><trkpt lat="45.60987748942062" lon="8.551895733859753"><ele>236.33333333333331</ele><time>2026-04-06T14:03:03Z</time></trkpt><trkpt lat="45.610030152163446" lon="8.551810503681251"><ele>237.0</ele><time>2026-04-06T14:03:04Z</time></trkpt><trkpt lat="45.61019535035384" lon="8.551724580384569"><ele>237.66666666666669</ele><time>2026-04-06T14:03:05Z</time></trkpt><trkpt lat="45.610363943122515" lon="8.55163242964776"><ele>238.33333333333334</ele><time>2026-04-06T14:03:06Z</time></trkpt><trkpt lat="45.610541411602895" lon="8.551531755323138"><ele>239.0</ele><time>2026-04-06T14:03:07Z</time></trkpt><trkpt lat="45.610715805422316" lon="8.551435280487139"><ele>239.0</ele><time>2026-04-06T14:03:08Z</time></trkpt><trkpt lat="45.61087988559789" lon="8.551349208571821"><ele>239.0</ele><time>2026-04-06T14:03:09Z</time></trkpt><trkpt lat="45.611042802937924" lon="8.551263009814779"><ele>239.0</ele><time>2026-04-06T14:03:10Z</time></trkpt><trkpt lat="45.61120590592716" lon="8.551173034122714"><ele>238.33333333333334</ele><time>2026-04-06T14:03:11Z</time></trkpt><trkpt lat="45.611361668512636" lon="8.55108797735449"><ele>237.66666666666669</ele><time>2026-04-06T14:03:12Z</time></trkpt><trkpt lat="45.61151527164035" lon="8.551004095768517"><ele>237.0</ele><time>2026-04-06T14:03:13Z</time></trkpt><trkpt lat="45.611665861664335" lon="8.550920810949476"><ele>237.0</ele><time>2026-04-06T14:03:14Z</time></trkpt><trkpt lat="45.6118136317361" lon="8.55083953953649"><ele>237.0</ele><time>2026-04-06T14:03:15Z</time></trkpt><trkpt lat="45.61196184630349" lon="8.550757927148185"><ele>237.0</ele><time>2026-04-06T14:03:16Z</time></trkpt><trkpt lat="45.61211105476528" lon="8.550671763834263"><ele>237.0</ele><time>2026-04-06T14:03:17Z</time></trkpt><trkpt lat="45.61225564891327" lon="8.550585186094672"><ele>237.0</ele><time>2026-04-06T14:03:18Z</time></trkpt><trkpt lat="45.61239511383022" lon="8.550498878916637"><ele>237.0</ele><time>2026-04-06T14:03:19Z</time></trkpt><trkpt lat="45.61253688458396" lon="8.5504259105068"><ele>237.0</ele><time>2026-04-06T14:03:20Z</time></trkpt><trkpt lat="45.61265379840012" lon="8.550303438048154"><ele>237.0</ele><time>2026-04-06T14:03:21Z</time></trkpt><trkpt lat="45.612780634441314" lon="8.550190280830675"><ele>237.0</ele><time>2026-04-06T14:03:22Z</time></trkpt><trkpt lat="45.61291218936965" lon="8.550069900359247"><ele>237.5</ele><time>2026-04-06T14:03:23Z</time></trkpt><trkpt lat="45.61303906155349" lon="8.549950671238339"><ele>238.0</ele><time>2026-04-06T14:03:24Z</time></trkpt><trkpt lat="45.61316257814379" lon="8.549839440363277"><ele>238.5</ele><time>2026-04-06T14:03:25Z</time></trkpt><trkpt lat="45.61327075234186" lon="8.549732094815116"><ele>239.0</ele><time>2026-04-06T14:03:26Z</time></trkpt><trkpt lat="45.61337632417914" lon="8.549632098628287"><ele>239.0</ele><time>2026-04-06T14:03:27Z</time></trkpt><trkpt lat="45.613479604809015" lon="8.549539561664748"><ele>239.0</ele><time>2026-04-06T14:03:28Z</time></trkpt><trkpt lat="45.613581616265506" lon="8.549443464479968"><ele>239.0</ele><time>2026-04-06T14:03:29Z</time></trkpt><trkpt lat="45.61368786023547" lon="8.549345479479904"><ele>239.0</ele><time>2026-04-06T14:03:30Z</time></trkpt><trkpt lat="45.61378959365896" lon="8.549252996787935"><ele>239.0</ele><time>2026-04-06T14:03:31Z</time></trkpt><trkpt lat="45.61389506979805" lon="8.54915714052596"><ele>239.0</ele><time>2026-04-06T14:03:32Z</time></trkpt><trkpt lat="45.614003414651414" lon="8.549052089813205"><ele>239.0</ele><time>2026-04-06T14:03:33Z</time></trkpt><trkpt lat="45.61412150389757" lon="8.548939577482717"><ele>239.0</ele><time>2026-04-06T14:03:34Z</time></trkpt><trkpt lat="45.614251695856176" lon="8.548817577406227"><ele>239.0</ele><time>2026-04-06T14:03:35Z</time></trkpt><trkpt lat="45.614389173354866" lon="8.548686707055252"><ele>239.0</ele><time>2026-04-06T14:03:36Z</time></trkpt><trkpt lat="45.61455103595503" lon="8.548533959195494"><ele>239.0</ele><time>2026-04-06T14:03:37Z</time></trkpt><trkpt lat="45.614709940162605" lon="8.548384516016455"><ele>239.33333333333334</ele><time>2026-04-06T14:03:38Z</time></trkpt><trkpt lat="45.61486455638048" lon="8.548239675894738"><ele>239.66666666666669</ele><time>2026-04-06T14:03:39Z</time></trkpt><trkpt lat="45.61501611508007" lon="8.548098819891088"><ele>240.0</ele><time>2026-04-06T14:03:40Z</time></trkpt><trkpt lat="45.61516426929065" lon="8.547962368111866"><ele>240.33333333333331</ele><time>2026-04-06T14:03:41Z</time></trkpt><trkpt lat="45.615308706979015" lon="8.547827506598662"><ele>240.66666666666666</ele><time>2026-04-06T14:03:42Z</time></trkpt><trkpt lat="45.61544677399308" lon="8.547698941812538"><ele>241.0</ele><time>2026-04-06T14:03:43Z</time></trkpt><trkpt lat="45.61558196649437" lon="8.547574915678979"><ele>241.25</ele><time>2026-04-06T14:03:44Z</time></trkpt><trkpt lat="45.615709964880466" lon="8.547457272754263"><ele>241.5</ele><time>2026-04-06T14:03:45Z</time></trkpt><trkpt lat="45.615834837920474" lon="8.547344455709506"><ele>241.75</ele><time>2026-04-06T14:03:46Z</time></trkpt><trkpt lat="45.6159617683711" lon="8.547234162884699"><ele>242.0</ele><time>2026-04-06T14:03:47Z</time></trkpt><trkpt lat="45.61608766004131" lon="8.547124527275663"><ele>242.66666666666669</ele><time>2026-04-06T14:03:48Z</time></trkpt><trkpt lat="45.616316020681076" lon="8.546944932437102"><ele>243.33333333333331</ele><time>2026-04-06T14:03:50Z</time></trkpt><trkpt lat="45.616422693848" lon="8.546874309793289"><ele>244.0</ele><time>2026-04-06T14:03:51Z</time></trkpt><trkpt lat="45.61652773246384" lon="8.546813135916452"><ele>244.0</ele><time>2026-04-06T14:03:52Z</time></trkpt><trkpt lat="45.61662910067717" lon="8.546757130289684"><ele>243.99999999999997</ele><time>2026-04-06T14:03:53Z</time></trkpt><trkpt lat="45.616726377082486" lon="8.546708161990104"><ele>243.99999999999997</ele><time>2026-04-06T14:03:54Z</time></trkpt><trkpt lat="45.61682317524504" lon="8.546658468227523"><ele>244.0</ele><time>2026-04-06T14:03:55Z</time></trkpt><trkpt lat="45.6169184981006" lon="8.546607589294952"><ele>244.0</ele><time>2026-04-06T14:03:56Z</time></trkpt><trkpt lat="45.61701040295269" lon="8.546554087460429"><ele>244.2</ele><time>2026-04-06T14:03:57Z</time></trkpt><trkpt lat="45.61709941003415" lon="8.546502702683801"><ele>244.39999999999998</ele><time>2026-04-06T14:03:58Z</time></trkpt><trkpt lat="45.617190322737294" lon="8.54645249656165"><ele>244.6</ele><time>2026-04-06T14:03:59Z</time></trkpt><trkpt lat="45.61728951515496" lon="8.546400532463894"><ele>244.8</ele><time>2026-04-06T14:04:00Z</time></trkpt><trkpt lat="45.61739447513584" lon="8.546346762084346"><ele>245.0</ele><time>2026-04-06T14:04:01Z</time></trkpt><trkpt lat="45.61750155851582" lon="8.546284027984013"><ele>245.0</ele><time>2026-04-06T14:04:02Z</time></trkpt><trkpt lat="45.61761193630373" lon="8.546212614569658"><ele>245.0</ele><time>2026-04-06T14:04:03Z</time></trkpt><trkpt lat="45.61772560941425" lon="8.54614344212136"><ele>245.0</ele><time>2026-04-06T14:04:04Z</time></trkpt><trkpt lat="45.61784691176044" lon="8.546072529598181"><ele>245.0</ele><time>2026-04-06T14:04:05Z</time></trkpt><trkpt lat="45.61797662673713" lon="8.54600430219059"><ele>244.75</ele><time>2026-04-06T14:04:06Z</time></trkpt><trkpt lat="45.61811193947206" lon="8.545934404050579"><ele>244.5</ele><time>2026-04-06T14:04:07Z</time></trkpt><trkpt lat="45.61824840520942" lon="8.545856590429121"><ele>244.25</ele><time>2026-04-06T14:04:08Z</time></trkpt><trkpt lat="45.618376865765164" lon="8.54578238397929"><ele>244.0</ele><time>2026-04-06T14:04:09Z</time></trkpt><trkpt lat="45.618508642118485" lon="8.545710866242988"><ele>244.0</ele><time>2026-04-06T14:04:10Z</time></trkpt><trkpt lat="45.618640670680044" lon="8.545640417504346"><ele>244.0</ele><time>2026-04-06T14:04:11Z</time></trkpt><trkpt lat="45.61877278656135" lon="8.545570132088388"><ele>244.0</ele><time>2026-04-06T14:04:12Z</time></trkpt><trkpt lat="45.61889758596306" lon="8.545498177252021"><ele>244.0</ele><time>2026-04-06T14:04:13Z</time></trkpt><trkpt lat="45.61902289415654" lon="8.54542762915653"><ele>243.75</ele><time>2026-04-06T14:04:14Z</time></trkpt><trkpt lat="45.619143109587036" lon="8.545361118192"><ele>243.5</ele><time>2026-04-06T14:04:15Z</time></trkpt><trkpt lat="45.619265122596964" lon="8.545292479264864"><ele>243.25</ele><time>2026-04-06T14:04:16Z</time></trkpt><trkpt lat="45.619387111195216" lon="8.545224055528777"><ele>243.0</ele><time>2026-04-06T14:04:17Z</time></trkpt><trkpt lat="45.619508363476335" lon="8.54515121377013"><ele>243.75</ele><time>2026-04-06T14:04:18Z</time></trkpt><trkpt lat="45.619625522326814" lon="8.545080552915241"><ele>244.5</ele><time>2026-04-06T14:04:19Z</time></trkpt><trkpt lat="45.61974395718781" lon="8.545013693078923"><ele>245.25</ele><time>2026-04-06T14:04:20Z</time></trkpt><trkpt lat="45.61986625233599" lon="8.544948352717917"><ele>246.0</ele><time>2026-04-06T14:04:21Z</time></trkpt><trkpt lat="45.61999190555143" lon="8.544887995819927"><ele>246.0</ele><time>2026-04-06T14:04:22Z</time></trkpt><trkpt lat="45.6201233276262" lon="8.544831372743703"><ele>246.0</ele><time>2026-04-06T14:04:22.999Z</time></trkpt><trkpt lat="45.62026107641134" lon="8.544785356191287"><ele>246.0</ele><time>2026-04-06T14:04:23.999Z</time></trkpt><trkpt lat="45.620399160602496" lon="8.5447446335717"><ele>246.0</ele><time>2026-04-06T14:04:24.999Z</time></trkpt><trkpt lat="45.62053473122749" lon="8.544700517060344"><ele>245.75</ele><time>2026-04-06T14:04:25.999Z</time></trkpt><trkpt lat="45.620673479259686" lon="8.544656448866755"><ele>245.5</ele><time>2026-04-06T14:04:26.999Z</time></trkpt><trkpt lat="45.62081201471154" lon="8.544609819579636"><ele>245.25</ele><time>2026-04-06T14:04:27.999Z</time></trkpt><trkpt lat="45.620947920350844" lon="8.54456104470824"><ele>245.0</ele><time>2026-04-06T14:04:28.999Z</time></trkpt><trkpt lat="45.62108283348513" lon="8.544515546020683"><ele>245.0</ele><time>2026-04-06T14:04:29.999Z</time></trkpt><trkpt lat="45.6212236866613" lon="8.544472495773931"><ele>245.0</ele><time>2026-04-06T14:04:30.999Z</time></trkpt><trkpt lat="45.62136321637151" lon="8.54443061714341"><ele>245.0</ele><time>2026-04-06T14:04:31.999Z</time></trkpt><trkpt lat="45.62150153761503" lon="8.544390558612989"><ele>245.0</ele><time>2026-04-06T14:04:32.999Z</time></trkpt><trkpt lat="45.621640451625915" lon="8.544348587552415"><ele>245.0</ele><time>2026-04-06T14:04:33.999Z</time></trkpt><trkpt lat="45.62178636575331" lon="8.54430019490185"><ele>245.0</ele><time>2026-04-06T14:04:34.999Z</time></trkpt><trkpt lat="45.62194111745693" lon="8.54423981064355"><ele>245.0</ele><time>2026-04-06T14:04:35.999Z</time></trkpt><trkpt lat="45.6220903817483" lon="8.544168994493726"><ele>246.33333333333334</ele><time>2026-04-06T14:04:36.999Z</time></trkpt><trkpt lat="45.622235883594826" lon="8.544092904134647"><ele>247.66666666666669</ele><time>2026-04-06T14:04:37.999Z</time></trkpt><trkpt lat="45.62237695258411" lon="8.544005137274109"><ele>249.0</ele><time>2026-04-06T14:04:38.999Z</time></trkpt><trkpt lat="45.62251412094908" lon="8.543910759002438"><ele>249.0</ele><time>2026-04-06T14:04:40Z</time></trkpt><trkpt lat="45.62264314260285" lon="8.543818403176262"><ele>249.0</ele><time>2026-04-06T14:04:41Z</time></trkpt><trkpt lat="45.622767120500136" lon="8.54373317768375"><ele>249.0</ele><time>2026-04-06T14:04:42Z</time></trkpt><trkpt lat="45.62289374952807" lon="8.543642908770671"><ele>249.0</ele><time>2026-04-06T14:04:43Z</time></trkpt><trkpt lat="45.6230234344329" lon="8.543550403255791"><ele>249.75</ele><time>2026-04-06T14:04:44Z</time></trkpt><trkpt lat="45.62314963755672" lon="8.543458424584692"><ele>250.5</ele><time>2026-04-06T14:04:45Z</time></trkpt><trkpt lat="45.62328675097577" lon="8.543365449158534"><ele>251.25</ele><time>2026-04-06T14:04:46Z</time></trkpt><trkpt lat="45.623423918144624" lon="8.54327565216842"><ele>252.0</ele><time>2026-04-06T14:04:47Z</time></trkpt><trkpt lat="45.62355355100797" lon="8.543190842729192"><ele>252.25</ele><time>2026-04-06T14:04:48Z</time></trkpt><trkpt lat="45.623681398040944" lon="8.543104967862105"><ele>252.5</ele><time>2026-04-06T14:04:49Z</time></trkpt><trkpt lat="45.623798803617674" lon="8.543026684940932"><ele>252.75</ele><time>2026-04-06T14:04:50Z</time></trkpt><trkpt lat="45.62391059790496" lon="8.542951371807009"><ele>253.0</ele><time>2026-04-06T14:04:51Z</time></trkpt><trkpt lat="45.624015500745756" lon="8.542884289215664"><ele>252.49999999999997</ele><time>2026-04-06T14:04:52Z</time></trkpt><trkpt lat="45.62411658182819" lon="8.542815672087926"><ele>252.0</ele><time>2026-04-06T14:04:53Z</time></trkpt><trkpt lat="45.62420446032107" lon="8.54274902675877"><ele>251.5</ele><time>2026-04-06T14:04:54Z</time></trkpt><trkpt lat="45.624274670338025" lon="8.54269513155537"><ele>251.0</ele><time>2026-04-06T14:04:55Z</time></trkpt><trkpt lat="45.62433195468216" lon="8.54265401749157"><ele>250.49999999999997</ele><time>2026-04-06T14:04:56Z</time></trkpt><trkpt lat="45.62441997973048" lon="8.542606223757936"><ele>250.0</ele><time>2026-04-06T14:04:58Z</time></trkpt><trkpt lat="45.6244833382535" lon="8.542618035380316"><ele>250.2</ele><time>2026-04-06T14:05:00Z</time></trkpt><trkpt lat="45.62454387272196" lon="8.542704262092343"><ele>250.4</ele><time>2026-04-06T14:05:02Z</time></trkpt><trkpt lat="45.62459955319882" lon="8.542851033697769"><ele>250.60000000000002</ele><time>2026-04-06T14:05:04Z</time></trkpt><trkpt lat="45.624626231610485" lon="8.542952473118133"><ele>250.8</ele><time>2026-04-06T14:05:05Z</time></trkpt><trkpt lat="45.62464796982811" lon="8.543075855250306"><ele>251.0</ele><time>2026-04-06T14:05:06Z</time></trkpt><trkpt lat="45.62467517583842" lon="8.54321351509687"><ele>251.0</ele><time>2026-04-06T14:05:07Z</time></trkpt><trkpt lat="45.624697110850065" lon="8.543334148080028"><ele>251.00000000000003</ele><time>2026-04-06T14:05:08Z</time></trkpt><trkpt lat="45.624713008529184" lon="8.543469790437607"><ele>251.00000000000003</ele><time>2026-04-06T14:05:09Z</time></trkpt><trkpt lat="45.624729466838836" lon="8.543604021994442"><ele>251.0</ele><time>2026-04-06T14:05:10Z</time></trkpt><trkpt lat="45.62475390809622" lon="8.54374047382858"><ele>251.0</ele><time>2026-04-06T14:05:11Z</time></trkpt><trkpt lat="45.62478180001572" lon="8.54390081061541"><ele>251.60000000000002</ele><time>2026-04-06T14:05:12Z</time></trkpt><trkpt lat="45.62481776463129" lon="8.54406198164337"><ele>252.20000000000002</ele><time>2026-04-06T14:05:13Z</time></trkpt><trkpt lat="45.6248544109442" lon="8.544210684881223"><ele>252.79999999999998</ele><time>2026-04-06T14:05:14Z</time></trkpt><trkpt lat="45.62488496361641" lon="8.544348977404741"><ele>253.39999999999998</ele><time>2026-04-06T14:05:15Z</time></trkpt><trkpt lat="45.624919327270746" lon="8.544486446342583"><ele>254.0</ele><time>2026-04-06T14:05:16Z</time></trkpt><trkpt lat="45.624953979855185" lon="8.54462624988752"><ele>254.5</ele><time>2026-04-06T14:05:17Z</time></trkpt><trkpt lat="45.624981558218195" lon="8.54477618745065"><ele>255.0</ele><time>2026-04-06T14:05:18Z</time></trkpt><trkpt lat="45.625003228765316" lon="8.544935311136937"><ele>255.5</ele><time>2026-04-06T14:05:19Z</time></trkpt><trkpt lat="45.62501718799306" lon="8.545102023611072"><ele>256.0</ele><time>2026-04-06T14:05:20Z</time></trkpt><trkpt lat="45.62502114962929" lon="8.545276521964075"><ele>256.5</ele><time>2026-04-06T14:05:21Z</time></trkpt><trkpt lat="45.62501235835036" lon="8.545450891151795"><ele>257.0</ele><time>2026-04-06T14:05:22Z</time></trkpt><trkpt lat="45.625000501961196" lon="8.545616749483065"><ele>257.5</ele><time>2026-04-06T14:05:23Z</time></trkpt><trkpt lat="45.62498731238076" lon="8.545796226932646"><ele>258.0</ele><time>2026-04-06T14:05:24Z</time></trkpt><trkpt lat="45.62497715667149" lon="8.545979541822877"><ele>258.0</ele><time>2026-04-06T14:05:25Z</time></trkpt><trkpt lat="45.62497075167433" lon="8.546163042541597"><ele>258.0</ele><time>2026-04-06T14:05:26Z</time></trkpt><trkpt lat="45.62496773910394" lon="8.546332277912322"><ele>258.0</ele><time>2026-04-06T14:05:27Z</time></trkpt><trkpt lat="45.62496654824919" lon="8.546502549916102"><ele>258.0</ele><time>2026-04-06T14:05:28Z</time></trkpt><trkpt lat="45.62497013930776" lon="8.546683436496453"><ele>258.0</ele><time>2026-04-06T14:05:29Z</time></trkpt><trkpt lat="45.62497336904324" lon="8.546869829968745"><ele>258.0</ele><time>2026-04-06T14:05:30Z</time></trkpt><trkpt lat="45.62497697355427" lon="8.547056242739528"><ele>258.0</ele><time>2026-04-06T14:05:31Z</time></trkpt><trkpt lat="45.624981697739905" lon="8.547250897122865"><ele>258.0</ele><time>2026-04-06T14:05:32Z</time></trkpt><trkpt lat="45.62498943115068" lon="8.547453203039845"><ele>258.0</ele><time>2026-04-06T14:05:33Z</time></trkpt><trkpt lat="45.62499736419412" lon="8.547652545614788"><ele>258.0</ele><time>2026-04-06T14:05:34Z</time></trkpt><trkpt lat="45.62500286530327" lon="8.547851493364828"><ele>258.0</ele><time>2026-04-06T14:05:35Z</time></trkpt><trkpt lat="45.62500536506006" lon="8.54804820886794"><ele>258.0</ele><time>2026-04-06T14:05:36Z</time></trkpt><trkpt lat="45.62500726340195" lon="8.54823340135708"><ele>258.0</ele><time>2026-04-06T14:05:37Z</time></trkpt><trkpt lat="45.625009516897194" lon="8.548412305577278"><ele>258.0</ele><time>2026-04-06T14:05:38Z</time></trkpt><trkpt lat="45.62501613502456" lon="8.548589221665832"><ele>258.0</ele><time>2026-04-06T14:05:39Z</time></trkpt><trkpt lat="45.625026134990655" lon="8.548769647403915"><ele>258.0</ele><time>2026-04-06T14:05:40Z</time></trkpt><trkpt lat="45.625040422482954" lon="8.548947504103015"><ele>258.75</ele><time>2026-04-06T14:05:41Z</time></trkpt><trkpt lat="45.625057914051595" lon="8.549125891650203"><ele>259.5</ele><time>2026-04-06T14:05:42Z</time></trkpt><trkpt lat="45.62507881762886" lon="8.549298417376189"><ele>260.25</ele><time>2026-04-06T14:05:43Z</time></trkpt><trkpt lat="45.62509997981153" lon="8.549466278822576"><ele>261.0</ele><time>2026-04-06T14:05:44Z</time></trkpt><trkpt lat="45.625124235206364" lon="8.549629262472079"><ele>261.75</ele><time>2026-04-06T14:05:45Z</time></trkpt><trkpt lat="45.62514934254555" lon="8.549788048218048"><ele>262.5</ele><time>2026-04-06T14:05:46Z</time></trkpt><trkpt lat="45.625173862964935" lon="8.549934350729961"><ele>263.25</ele><time>2026-04-06T14:05:47Z</time></trkpt><trkpt lat="45.62521241997168" lon="8.550197430318702"><ele>264.0</ele><time>2026-04-06T14:05:49Z</time></trkpt><trkpt lat="45.62523094198905" lon="8.550319919476989"><ele>263.8333333333333</ele><time>2026-04-06T14:05:50Z</time></trkpt><trkpt lat="45.62525357046396" lon="8.550438568504871"><ele>263.6666666666667</ele><time>2026-04-06T14:05:51Z</time></trkpt><trkpt lat="45.62528529514088" lon="8.550556985915788"><ele>263.5</ele><time>2026-04-06T14:05:52Z</time></trkpt><trkpt lat="45.62532225142361" lon="8.550667922961477"><ele>263.33333333333337</ele><time>2026-04-06T14:05:53Z</time></trkpt><trkpt lat="45.6253620276285" lon="8.550768251500326"><ele>263.1666666666667</ele><time>2026-04-06T14:05:54Z</time></trkpt><trkpt lat="45.625406263562596" lon="8.550853034582943"><ele>263.0</ele><time>2026-04-06T14:05:55Z</time></trkpt><trkpt lat="45.625453733766655" lon="8.550921174856652"><ele>262.6</ele><time>2026-04-06T14:05:56Z</time></trkpt><trkpt lat="45.625545102959464" lon="8.5510001804724"><ele>262.20000000000005</ele><time>2026-04-06T14:05:58Z</time></trkpt><trkpt lat="45.625609028123904" lon="8.551040473335723"><ele>261.8</ele><time>2026-04-06T14:06:01Z</time></trkpt><trkpt lat="45.6257094248301" lon="8.550913419666971"><ele>261.40000000000003</ele><time>2026-04-06T14:06:11Z</time></trkpt><trkpt lat="45.62575758461411" lon="8.550831989422294"><ele>261.0</ele><time>2026-04-06T14:06:12Z</time></trkpt><trkpt lat="45.62579790229722" lon="8.550746092604133"><ele>261.0</ele><time>2026-04-06T14:06:13Z</time></trkpt><trkpt lat="45.62584002652187" lon="8.550656346982784"><ele>261.0</ele><time>2026-04-06T14:06:14Z</time></trkpt><trkpt lat="45.62588736680937" lon="8.550558606000346"><ele>261.0</ele><time>2026-04-06T14:06:15Z</time></trkpt><trkpt lat="45.62592576482146" lon="8.550447793634733"><ele>261.0</ele><time>2026-04-06T14:06:16Z</time></trkpt><trkpt lat="45.62598074610144" lon="8.550371732029506"><ele>261.0</ele><time>2026-04-06T14:06:17Z</time></trkpt><trkpt lat="45.62603778165974" lon="8.550298834049329"><ele>261.0</ele><time>2026-04-06T14:06:18Z</time></trkpt><trkpt lat="45.626100854167326" lon="8.55023325802893"><ele>261.0</ele><time>2026-04-06T14:06:19Z</time></trkpt><trkpt lat="45.6261648753217" lon="8.550180981580326"><ele>261.0</ele><time>2026-04-06T14:06:20Z</time></trkpt><trkpt lat="45.626222382376" lon="8.550128861576372"><ele>261.0</ele><time>2026-04-06T14:06:21Z</time></trkpt><trkpt lat="45.62627180826727" lon="8.550062476857983"><ele>261.0</ele><time>2026-04-06T14:06:22Z</time></trkpt><trkpt lat="45.626329473695804" lon="8.549986230312946"><ele>261.0</ele><time>2026-04-06T14:06:23Z</time></trkpt><trkpt lat="45.626368160916826" lon="8.549870904330254"><ele>261.0</ele><time>2026-04-06T14:06:24Z</time></trkpt><trkpt lat="45.626381283929" lon="8.549743576430183"><ele>261.0</ele><time>2026-04-06T14:06:25Z</time></trkpt><trkpt lat="45.626409260095194" lon="8.549610156465098"><ele>261.0</ele><time>2026-04-06T14:06:26Z</time></trkpt><trkpt lat="45.62648108707643" lon="8.549467112688271"><ele>261.0</ele><time>2026-04-06T14:06:27Z</time></trkpt><trkpt lat="45.62653045265338" lon="8.549316533891442"><ele>261.0</ele><time>2026-04-06T14:06:28Z</time></trkpt><trkpt lat="45.626595752615664" lon="8.549180539746326"><ele>261.2</ele><time>2026-04-06T14:06:28.999Z</time></trkpt><trkpt lat="45.62665924210669" lon="8.549034073237403"><ele>261.40000000000003</ele><time>2026-04-06T14:06:29.999Z</time></trkpt><trkpt lat="45.62671770566985" lon="8.548898441677474"><ele>261.6</ele><time>2026-04-06T14:06:30.999Z</time></trkpt><trkpt lat="45.62678899665284" lon="8.548781866558288"><ele>261.8</ele><time>2026-04-06T14:06:31.999Z</time></trkpt><trkpt lat="45.62683374514739" lon="8.548643341428537"><ele>262.0</ele><time>2026-04-06T14:06:32.999Z</time></trkpt><trkpt lat="45.62689822379962" lon="8.548524609827512"><ele>262.0</ele><time>2026-04-06T14:06:33.999Z</time></trkpt><trkpt lat="45.626965655401605" lon="8.548410618313564"><ele>262.0</ele><time>2026-04-06T14:06:34.999Z</time></trkpt><trkpt lat="45.627036913464906" lon="8.548295353312193"><ele>262.0</ele><time>2026-04-06T14:06:35.999Z</time></trkpt><trkpt lat="45.62711270880587" lon="8.548175466979457"><ele>262.0</ele><time>2026-04-06T14:06:36.999Z</time></trkpt><trkpt lat="45.62718616818317" lon="8.548047771260663"><ele>262.0</ele><time>2026-04-06T14:06:37.999Z</time></trkpt><trkpt lat="45.6272569368118" lon="8.547911816260775"><ele>262.2</ele><time>2026-04-06T14:06:38.999Z</time></trkpt><trkpt lat="45.627316914658536" lon="8.547762113250666"><ele>262.4</ele><time>2026-04-06T14:06:39.999Z</time></trkpt><trkpt lat="45.62737814559372" lon="8.547620887934956"><ele>262.6</ele><time>2026-04-06T14:06:40.999Z</time></trkpt><trkpt lat="45.62743172397255" lon="8.54749086340109"><ele>262.8</ele><time>2026-04-06T14:06:41.999Z</time></trkpt><trkpt lat="45.62748177081801" lon="8.547364972306983"><ele>263.0</ele><time>2026-04-06T14:06:42.999Z</time></trkpt><trkpt lat="45.627520638996266" lon="8.54722678896793"><ele>263.0</ele><time>2026-04-06T14:06:43.999Z</time></trkpt><trkpt lat="45.62753859302929" lon="8.547068394413147"><ele>263.0</ele><time>2026-04-06T14:06:44.999Z</time></trkpt><trkpt lat="45.6275350592965" lon="8.546894532591764"><ele>263.0</ele><time>2026-04-06T14:06:45.999Z</time></trkpt><trkpt lat="45.62752450357371" lon="8.546727533380684"><ele>263.0</ele><time>2026-04-06T14:06:46.999Z</time></trkpt><trkpt lat="45.62753190561139" lon="8.546583499367385"><ele>263.1666666666667</ele><time>2026-04-06T14:06:47.999Z</time></trkpt><trkpt lat="45.627527366655315" lon="8.546449494484499"><ele>263.33333333333337</ele><time>2026-04-06T14:06:48.999Z</time></trkpt><trkpt lat="45.62751076311155" lon="8.546325464543578"><ele>263.5</ele><time>2026-04-06T14:06:49.999Z</time></trkpt><trkpt lat="45.62752662143941" lon="8.546215862949998"><ele>263.6666666666667</ele><time>2026-04-06T14:06:50.999Z</time></trkpt><trkpt lat="45.6275651729133" lon="8.546127588727252"><ele>263.8333333333333</ele><time>2026-04-06T14:06:51.999Z</time></trkpt><trkpt lat="45.627628921713836" lon="8.546063487987242"><ele>264.0</ele><time>2026-04-06T14:06:52.999Z</time></trkpt><trkpt lat="45.62772190533936" lon="8.54603983945382"><ele>264.0</ele><time>2026-04-06T14:06:53.999Z</time></trkpt><trkpt lat="45.62782656598659" lon="8.545970753071002"><ele>264.0</ele><time>2026-04-06T14:06:54.999Z</time></trkpt><trkpt lat="45.62795259456732" lon="8.54592321235994"><ele>264.0</ele><time>2026-04-06T14:06:55.999Z</time></trkpt><trkpt lat="45.6280662766604" lon="8.5458728604784"><ele>264.0</ele><time>2026-04-06T14:06:56.999Z</time></trkpt><trkpt lat="45.62817958080375" lon="8.545822258112567"><ele>264.0</ele><time>2026-04-06T14:06:57.999Z</time></trkpt><trkpt lat="45.6282970027818" lon="8.545765242028613"><ele>264.0</ele><time>2026-04-06T14:06:58.999Z</time></trkpt><trkpt lat="45.628411597635356" lon="8.545706812798349"><ele>264.0</ele><time>2026-04-06T14:06:59.999Z</time></trkpt><trkpt lat="45.62851933574773" lon="8.545657497137768"><ele>264.0</ele><time>2026-04-06T14:07:00.999Z</time></trkpt><trkpt lat="45.62862051712661" lon="8.545612488622156"><ele>264.1666666666667</ele><time>2026-04-06T14:07:01.999Z</time></trkpt><trkpt lat="45.62871334634573" lon="8.545570984141722"><ele>264.3333333333333</ele><time>2026-04-06T14:07:02.999Z</time></trkpt><trkpt lat="45.628791686202405" lon="8.545531443947727"><ele>264.5</ele><time>2026-04-06T14:07:03.999Z</time></trkpt><trkpt lat="45.62886143730737" lon="8.545518946942126"><ele>264.66666666666663</ele><time>2026-04-06T14:07:04.999Z</time></trkpt><trkpt lat="45.6289366361846" lon="8.545450065275583"><ele>264.8333333333333</ele><time>2026-04-06T14:07:06.999Z</time></trkpt><trkpt lat="45.629006518143115" lon="8.545430098652526"><ele>265.0</ele><time>2026-04-06T14:07:09.999Z</time></trkpt><trkpt lat="45.629133868522224" lon="8.545714896423538"><ele>265.0</ele><time>2026-04-06T14:07:17.999Z</time></trkpt><trkpt lat="45.62915707418808" lon="8.545800593726852"><ele>265.0</ele><time>2026-04-06T14:07:18.999Z</time></trkpt><trkpt lat="45.62920111347569" lon="8.545956237755178"><ele>265.0</ele><time>2026-04-06T14:07:20.999Z</time></trkpt><trkpt lat="45.6292391701495" lon="8.546091919332257"><ele>265.0</ele><time>2026-04-06T14:07:22.999Z</time></trkpt><trkpt lat="45.62927391266343" lon="8.546218309896878"><ele>265.0</ele><time>2026-04-06T14:07:24.999Z</time></trkpt><trkpt lat="45.62930798473444" lon="8.546349401325097"><ele>265.2</ele><time>2026-04-06T14:07:26.999Z</time></trkpt><trkpt lat="45.629336953653684" lon="8.546478320298803"><ele>265.4</ele><time>2026-04-06T14:07:29Z</time></trkpt><trkpt lat="45.62936531903723" lon="8.546590937482092"><ele>265.6</ele><time>2026-04-06T14:07:31Z</time></trkpt><trkpt lat="45.62939673214987" lon="8.546705160343937"><ele>265.8</ele><time>2026-04-06T14:07:33Z</time></trkpt><trkpt lat="45.6294210375259" lon="8.54682807874456"><ele>266.0</ele><time>2026-04-06T14:07:35Z</time></trkpt><trkpt lat="45.62943984432025" lon="8.546963420423511"><ele>265.6</ele><time>2026-04-06T14:07:37Z</time></trkpt><trkpt lat="45.62945414852163" lon="8.547090791155771"><ele>265.20000000000005</ele><time>2026-04-06T14:07:39Z</time></trkpt><trkpt lat="45.62946885934241" lon="8.547227253610544"><ele>264.79999999999995</ele><time>2026-04-06T14:07:41Z</time></trkpt><trkpt lat="45.62947977417786" lon="8.547360630011054"><ele>264.4</ele><time>2026-04-06T14:07:43Z</time></trkpt><trkpt lat="45.62949108086598" lon="8.547514453906611"><ele>264.0</ele><time>2026-04-06T14:07:45Z</time></trkpt><trkpt lat="45.62949470480328" lon="8.547682301920938"><ele>263.59999999999997</ele><time>2026-04-06T14:07:47Z</time></trkpt><trkpt lat="45.6294935057142" lon="8.547838899410474"><ele>263.2</ele><time>2026-04-06T14:07:49Z</time></trkpt><trkpt lat="45.62949108603478" lon="8.547961702131586"><ele>262.79999999999995</ele><time>2026-04-06T14:07:51Z</time></trkpt><trkpt lat="45.62947773958576" lon="8.548108930914614"><ele>262.4</ele><time>2026-04-06T14:07:53Z</time></trkpt><trkpt lat="45.62947044556124" lon="8.548242368841548"><ele>262.0</ele><time>2026-04-06T14:07:55Z</time></trkpt><trkpt lat="45.629466717960355" lon="8.548385753821675"><ele>262.0</ele><time>2026-04-06T14:07:57Z</time></trkpt><trkpt lat="45.62947504377949" lon="8.5485551899192"><ele>262.0</ele><time>2026-04-06T14:07:59Z</time></trkpt><trkpt lat="45.62947967615164" lon="8.548717653190243"><ele>262.0</ele><time>2026-04-06T14:08:01Z</time></trkpt><trkpt lat="45.62948056260626" lon="8.548839111204732"><ele>262.0</ele><time>2026-04-06T14:08:03Z</time></trkpt><trkpt lat="45.62948446797903" lon="8.548979676269834"><ele>262.0</ele><time>2026-04-06T14:08:05Z</time></trkpt><trkpt lat="45.629485345276464" lon="8.549114490503138"><ele>262.0</ele><time>2026-04-06T14:08:07Z</time></trkpt><trkpt lat="45.62948370366438" lon="8.549262575108926"><ele>262.0</ele><time>2026-04-06T14:08:09Z</time></trkpt><trkpt lat="45.6294845660882" lon="8.54940700455102"><ele>262.0</ele><time>2026-04-06T14:08:11Z</time></trkpt><trkpt lat="45.62948337819884" lon="8.549516493300946"><ele>262.0</ele><time>2026-04-06T14:08:13Z</time></trkpt><trkpt lat="45.62947882665779" lon="8.549660308378328"><ele>262.0</ele><time>2026-04-06T14:08:15Z</time></trkpt><trkpt lat="45.62948874925092" lon="8.549790736885035"><ele>261.6</ele><time>2026-04-06T14:08:17Z</time></trkpt><trkpt lat="45.629504492970334" lon="8.549913592280058"><ele>261.2</ele><time>2026-04-06T14:08:19Z</time></trkpt><trkpt lat="45.6295174201626" lon="8.550046308166351"><ele>260.8</ele><time>2026-04-06T14:08:21Z</time></trkpt><trkpt lat="45.62952459951045" lon="8.55020246626407"><ele>260.4</ele><time>2026-04-06T14:08:23Z</time></trkpt><trkpt lat="45.629523296240166" lon="8.550354874438701"><ele>260.0</ele><time>2026-04-06T14:08:25Z</time></trkpt><trkpt lat="45.629524618611924" lon="8.550489416543474"><ele>259.6666666666667</ele><time>2026-04-06T14:08:27Z</time></trkpt><trkpt lat="45.629528687871776" lon="8.550622588939744"><ele>259.33333333333337</ele><time>2026-04-06T14:08:29Z</time></trkpt><trkpt lat="45.629525736797746" lon="8.550746316487338"><ele>259.0</ele><time>2026-04-06T14:08:31Z</time></trkpt><trkpt lat="45.62952756274559" lon="8.550860562069026"><ele>258.6666666666667</ele><time>2026-04-06T14:08:33Z</time></trkpt><trkpt lat="45.629531979448025" lon="8.550966579306362"><ele>258.3333333333333</ele><time>2026-04-06T14:08:34.999Z</time></trkpt><trkpt lat="45.62953190062563" lon="8.551059289365472"><ele>258.0</ele><time>2026-04-06T14:08:36.999Z</time></trkpt><trkpt lat="45.629530828027036" lon="8.551170694091368"><ele>257.8333333333333</ele><time>2026-04-06T14:08:38.999Z</time></trkpt><trkpt lat="45.62952525405236" lon="8.551291163069425"><ele>257.6666666666667</ele><time>2026-04-06T14:08:40.999Z</time></trkpt><trkpt lat="45.62951734645112" lon="8.551415571631159"><ele>257.5</ele><time>2026-04-06T14:08:43.999Z</time></trkpt><trkpt lat="45.629526874113665" lon="8.551522428019197"><ele>257.33333333333337</ele><time>2026-04-06T14:08:46.999Z</time></trkpt><trkpt lat="45.62953513910175" lon="8.55162598889694"><ele>257.1666666666667</ele><time>2026-04-06T14:08:49.999Z</time></trkpt><trkpt lat="45.6295283383711" lon="8.551722155744319"><ele>257.0</ele><time>2026-04-06T14:10:50.999Z</time></trkpt><trkpt lat="45.62952380803594" lon="8.551837546159549"><ele>257.0</ele><time>2026-04-06T14:10:52.999Z</time></trkpt><trkpt lat="45.62950984377482" lon="8.551935031465582"><ele>257.0</ele><time>2026-04-06T14:10:54.999Z</time></trkpt><trkpt lat="45.62948886940221" lon="8.552030271070175"><ele>257.0</ele><time>2026-04-06T14:10:56.999Z</time></trkpt><trkpt lat="45.62947736972614" lon="8.552149380999715"><ele>257.0</ele><time>2026-04-06T14:10:58.999Z</time></trkpt><trkpt lat="45.629471537188806" lon="8.5522767228185"><ele>257.0</ele><time>2026-04-06T14:11:00.999Z</time></trkpt><trkpt lat="45.62945957663114" lon="8.552403770264405"><ele>257.0</ele><time>2026-04-06T14:11:02.999Z</time></trkpt><trkpt lat="45.629440562184975" lon="8.552511191601214"><ele>256.85714285714283</ele><time>2026-04-06T14:11:04.999Z</time></trkpt><trkpt lat="45.62942323658892" lon="8.552616650315958"><ele>256.7142857142857</ele><time>2026-04-06T14:11:06.999Z</time></trkpt><trkpt lat="45.62940458907434" lon="8.552720133062788"><ele>256.57142857142856</ele><time>2026-04-06T14:11:08.999Z</time></trkpt><trkpt lat="45.62938388321999" lon="8.552835327060219"><ele>256.42857142857144</ele><time>2026-04-06T14:11:10.999Z</time></trkpt><trkpt lat="45.62937507320648" lon="8.552936313794428"><ele>256.2857142857143</ele><time>2026-04-06T14:11:12.999Z</time></trkpt><trkpt lat="45.62935337403135" lon="8.553034692242978"><ele>256.1428571428571</ele><time>2026-04-06T14:11:15Z</time></trkpt><trkpt lat="45.62934633477516" lon="8.553127446721579"><ele>256.0</ele><time>2026-04-06T14:11:35Z</time></trkpt><trkpt lat="45.62936134882211" lon="8.553013139340674"><ele>255.99999999999997</ele><time>2026-04-06T14:12:06Z</time></trkpt><trkpt lat="45.62937527419168" lon="8.552914420640827"><ele>256.0</ele><time>2026-04-06T14:12:07Z</time></trkpt><trkpt lat="45.62939467364514" lon="8.552809209424447"><ele>256.0</ele><time>2026-04-06T14:12:09Z</time></trkpt><trkpt lat="45.629407984578414" lon="8.552672523082665"><ele>256.0</ele><time>2026-04-06T14:12:11Z</time></trkpt><trkpt lat="45.62942921963827" lon="8.552566063205628"><ele>255.99999999999997</ele><time>2026-04-06T14:12:13Z</time></trkpt><trkpt lat="45.62945253631341" lon="8.552455598261954"><ele>256.0</ele><time>2026-04-06T14:12:15Z</time></trkpt><trkpt lat="45.62946460702104" lon="8.552365275468105"><ele>256.2</ele><time>2026-04-06T14:12:18Z</time></trkpt><trkpt lat="45.62946613799324" lon="8.552247371563636"><ele>256.40000000000003</ele><time>2026-04-06T14:12:31Z</time></trkpt><trkpt lat="45.62948224258192" lon="8.552134848270068"><ele>256.6</ele><time>2026-04-06T14:12:33Z</time></trkpt><trkpt lat="45.62949184015259" lon="8.552034567688112"><ele>256.8</ele><time>2026-04-06T14:12:35Z</time></trkpt><trkpt lat="45.6295136514226" lon="8.551867133650504"><ele>257.0</ele><time>2026-04-06T14:21:31.001Z</time></trkpt><trkpt lat="45.629530654468034" lon="8.551721579751753"><ele>257.0</ele><time>2026-04-06T14:21:33.001Z</time></trkpt><trkpt lat="45.62952731936479" lon="8.551597743600537"><ele>257.0</ele><time>2026-04-06T14:21:35.001Z</time></trkpt><trkpt lat="45.629516991054" lon="8.55145080941156"><ele>257.0</ele><time>2026-04-06T14:21:37.001Z</time></trkpt><trkpt lat="45.629524725058374" lon="8.551353294984054"><ele>257.0</ele><time>2026-04-06T14:21:38.001Z</time></trkpt><trkpt lat="45.62952834324255" lon="8.551261593715765"><ele>257.0</ele><time>2026-04-06T14:21:39.001Z</time></trkpt><trkpt lat="45.629532888213305" lon="8.551095855086178"><ele>257.0</ele><time>2026-04-06T14:21:41.001Z</time></trkpt><trkpt lat="45.62953189158875" lon="8.550929350689804"><ele>257.2</ele><time>2026-04-06T14:21:43.001Z</time></trkpt><trkpt lat="45.6295259819586" lon="8.550772649319434"><ele>257.4</ele><time>2026-04-06T14:21:45.001Z</time></trkpt><trkpt lat="45.62952430306415" lon="8.550677860826498"><ele>257.6</ele><time>2026-04-06T14:21:46.001Z</time></trkpt><trkpt lat="45.62952326585787" lon="8.55057932569867"><ele>257.8</ele><time>2026-04-06T14:21:47.001Z</time></trkpt><trkpt lat="45.629524307784116" lon="8.550402316959387"><ele>258.0</ele><time>2026-04-06T14:21:49.001Z</time></trkpt><trkpt lat="45.629521641927624" lon="8.550238312614283"><ele>258.3333333333333</ele><time>2026-04-06T14:21:51.001Z</time></trkpt><trkpt lat="45.629520368227695" lon="8.550075886710804"><ele>258.6666666666667</ele><time>2026-04-06T14:21:53.001Z</time></trkpt><trkpt lat="45.62951062177718" lon="8.549986881923308"><ele>259.0</ele><time>2026-04-06T14:21:54.001Z</time></trkpt><trkpt lat="45.629503746778425" lon="8.549890880787068"><ele>259.33333333333337</ele><time>2026-04-06T14:21:55.001Z</time></trkpt><trkpt lat="45.629491200785054" lon="8.549787123585789"><ele>259.6666666666667</ele><time>2026-04-06T14:21:56.001Z</time></trkpt><trkpt lat="45.629479392541135" lon="8.549670398019742"><ele>260.0</ele><time>2026-04-06T14:21:57.001Z</time></trkpt><trkpt lat="45.629475438205624" lon="8.549556535800921"><ele>260.28571428571433</ele><time>2026-04-06T14:21:58.001Z</time></trkpt><trkpt lat="45.6294800139117" lon="8.54945573471319"><ele>260.57142857142856</ele><time>2026-04-06T14:21:59.001Z</time></trkpt><trkpt lat="45.62948344996767" lon="8.54934769137611"><ele>260.8571428571429</ele><time>2026-04-06T14:22:00.001Z</time></trkpt><trkpt lat="45.6294838799483" lon="8.54925255622041"><ele>261.14285714285717</ele><time>2026-04-06T14:22:01.001Z</time></trkpt><trkpt lat="45.62948469321789" lon="8.549153700056303"><ele>261.42857142857144</ele><time>2026-04-06T14:22:02.001Z</time></trkpt><trkpt lat="45.62948317802127" lon="8.54905812694334"><ele>261.7142857142857</ele><time>2026-04-06T14:22:03.001Z</time></trkpt><trkpt lat="45.62948309345469" lon="8.548959625027932"><ele>262.0</ele><time>2026-04-06T14:22:04.001Z</time></trkpt><trkpt lat="45.629481635725625" lon="8.548855900503732"><ele>262.0</ele><time>2026-04-06T14:22:05.001Z</time></trkpt><trkpt lat="45.62947970232554" lon="8.548717851803191"><ele>262.0</ele><time>2026-04-06T14:22:06.001Z</time></trkpt><trkpt lat="45.629475927349915" lon="8.548625608995046"><ele>262.0</ele><time>2026-04-06T14:22:07.001Z</time></trkpt><trkpt lat="45.62947021001583" lon="8.548489117021177"><ele>262.0</ele><time>2026-04-06T14:22:09.001Z</time></trkpt><trkpt lat="45.629467104930505" lon="8.548390416611019"><ele>262.0</ele><time>2026-04-06T14:22:10.001Z</time></trkpt><trkpt lat="45.6294639350256" lon="8.548261714364841"><ele>262.0</ele><time>2026-04-06T14:22:11.001Z</time></trkpt><trkpt lat="45.629468057391314" lon="8.548150890163207"><ele>262.0</ele><time>2026-04-06T14:22:12.001Z</time></trkpt><trkpt lat="45.6294858649637" lon="8.547973952460906"><ele>262.0</ele><time>2026-04-06T14:22:14Z</time></trkpt><trkpt lat="45.62949355324922" lon="8.547825273102939"><ele>262.0</ele><time>2026-04-06T14:22:16Z</time></trkpt><trkpt lat="45.629497633739376" lon="8.547639124172287"><ele>262.0</ele><time>2026-04-06T14:22:18Z</time></trkpt><trkpt lat="45.62949251493023" lon="8.547518451300668"><ele>262.0</ele><time>2026-04-06T14:22:19Z</time></trkpt><trkpt lat="45.62948673233161" lon="8.547366420900794"><ele>262.3333333333333</ele><time>2026-04-06T14:22:20Z</time></trkpt><trkpt lat="45.629470038080214" lon="8.54722286009319"><ele>262.66666666666663</ele><time>2026-04-06T14:22:21Z</time></trkpt><trkpt lat="45.62946321341035" lon="8.547113641550975"><ele>263.0</ele><time>2026-04-06T14:22:22Z</time></trkpt><trkpt lat="45.629451622897214" lon="8.547016934682665"><ele>263.3333333333333</ele><time>2026-04-06T14:22:23Z</time></trkpt><trkpt lat="45.62943200135095" lon="8.54686325047106"><ele>263.6666666666667</ele><time>2026-04-06T14:22:25Z</time></trkpt><trkpt lat="45.62941419849295" lon="8.54675420393627"><ele>264.0</ele><time>2026-04-06T14:22:27Z</time></trkpt><trkpt lat="45.62939081876733" lon="8.546658861661035"><ele>264.2</ele><time>2026-04-06T14:22:48Z</time></trkpt><trkpt lat="45.62935413590416" lon="8.546533061630106"><ele>264.4</ele><time>2026-04-06T14:22:49Z</time></trkpt><trkpt lat="45.62932004622595" lon="8.546399339870362"><ele>264.6</ele><time>2026-04-06T14:22:50Z</time></trkpt><trkpt lat="45.6292879984443" lon="8.546255991863614"><ele>264.8</ele><time>2026-04-06T14:22:51Z</time></trkpt><trkpt lat="45.62925511777461" lon="8.546149930332797"><ele>265.0</ele><time>2026-04-06T14:22:52Z</time></trkpt><trkpt lat="45.62922130747024" lon="8.546032032405199"><ele>265.0</ele><time>2026-04-06T14:22:53Z</time></trkpt><trkpt lat="45.62919134851403" lon="8.545938997615226"><ele>265.0</ele><time>2026-04-06T14:22:54Z</time></trkpt><trkpt lat="45.62916171939287" lon="8.545846654418842"><ele>265.0</ele><time>2026-04-06T14:22:55Z</time></trkpt><trkpt lat="45.62911382899316" lon="8.545684762472698"><ele>265.0</ele><time>2026-04-06T14:22:57Z</time></trkpt><trkpt lat="45.6290811359766" lon="8.545530941915167"><ele>265.0</ele><time>2026-04-06T14:22:59Z</time></trkpt><trkpt lat="45.62906106975697" lon="8.545441697894677"><ele>265.0</ele><time>2026-04-06T14:23:01Z</time></trkpt><trkpt lat="45.62904153453941" lon="8.54533565089297"><ele>265.0</ele><time>2026-04-06T14:23:08Z</time></trkpt><trkpt lat="45.62902256488306" lon="8.545231066187073"><ele>265.0</ele><time>2026-04-06T14:23:10Z</time></trkpt><trkpt lat="45.6289960029627" lon="8.54507699340797"><ele>265.0</ele><time>2026-04-06T14:23:12Z</time></trkpt><trkpt lat="45.62897721876134" lon="8.544884972207376"><ele>265.0</ele><time>2026-04-06T14:23:14Z</time></trkpt><trkpt lat="45.628977395723496" lon="8.544789313517112"><ele>265.0</ele><time>2026-04-06T14:23:15Z</time></trkpt><trkpt lat="45.628989677105814" lon="8.544692634401992"><ele>264.99999999999994</ele><time>2026-04-06T14:23:15.999Z</time></trkpt><trkpt lat="45.629010407168664" lon="8.54459584558224"><ele>265.0</ele><time>2026-04-06T14:23:16.999Z</time></trkpt><trkpt lat="45.6290370506353" lon="8.544504401406108"><ele>265.0</ele><time>2026-04-06T14:23:17.999Z</time></trkpt><trkpt lat="45.62906911102257" lon="8.544410446983573"><ele>265.0</ele><time>2026-04-06T14:23:18.999Z</time></trkpt><trkpt lat="45.62910898676084" lon="8.544323317741705"><ele>265.0</ele><time>2026-04-06T14:23:19.999Z</time></trkpt><trkpt lat="45.62915218882985" lon="8.544241294854894"><ele>264.99999999999994</ele><time>2026-04-06T14:23:20.999Z</time></trkpt><trkpt lat="45.62920803890624" lon="8.544158103948462"><ele>265.0</ele><time>2026-04-06T14:23:21.999Z</time></trkpt><trkpt lat="45.629270322446985" lon="8.544071150307328"><ele>264.8333333333333</ele><time>2026-04-06T14:23:22.999Z</time></trkpt><trkpt lat="45.629330425703586" lon="8.543993521512892"><ele>264.66666666666663</ele><time>2026-04-06T14:23:23.999Z</time></trkpt><trkpt lat="45.62939178105684" lon="8.543908380839285"><ele>264.5</ele><time>2026-04-06T14:23:24.999Z</time></trkpt><trkpt lat="45.62944899991196" lon="8.543825258859394"><ele>264.3333333333333</ele><time>2026-04-06T14:23:25.999Z</time></trkpt><trkpt lat="45.62950398011846" lon="8.543739695185147"><ele>264.1666666666667</ele><time>2026-04-06T14:23:26.999Z</time></trkpt><trkpt lat="45.62955033664097" lon="8.543639584028787"><ele>264.0</ele><time>2026-04-06T14:23:27.999Z</time></trkpt><trkpt lat="45.629596930363995" lon="8.54353535677093"><ele>263.0</ele><time>2026-04-06T14:23:28.999Z</time></trkpt><trkpt lat="45.62964142664447" lon="8.543432131640955"><ele>262.0</ele><time>2026-04-06T14:23:29.999Z</time></trkpt><trkpt lat="45.62968471749308" lon="8.543329871725971"><ele>261.0</ele><time>2026-04-06T14:23:30.999Z</time></trkpt><trkpt lat="45.629717838056514" lon="8.543225369533024"><ele>260.0</ele><time>2026-04-06T14:23:31.999Z</time></trkpt><trkpt lat="45.62973513767364" lon="8.543107462375419"><ele>259.0</ele><time>2026-04-06T14:23:32.999Z</time></trkpt><trkpt lat="45.629744768013424" lon="8.542978457030507"><ele>258.0</ele><time>2026-04-06T14:23:33.999Z</time></trkpt><trkpt lat="45.62975268572363" lon="8.542843887276083"><ele>257.0</ele><time>2026-04-06T14:23:34.999Z</time></trkpt><trkpt lat="45.629755625944725" lon="8.542704028920058"><ele>256.0</ele><time>2026-04-06T14:23:35.999Z</time></trkpt><trkpt lat="45.62975602150849" lon="8.542560502872293"><ele>255.0</ele><time>2026-04-06T14:23:36.999Z</time></trkpt><trkpt lat="45.629755307937785" lon="8.5424078459848"><ele>254.0</ele><time>2026-04-06T14:23:37.999Z</time></trkpt><trkpt lat="45.629745171720415" lon="8.542251178498688"><ele>253.0</ele><time>2026-04-06T14:23:38.999Z</time></trkpt><trkpt lat="45.629738765419084" lon="8.542096076211555"><ele>253.0</ele><time>2026-04-06T14:23:39.999Z</time></trkpt><trkpt lat="45.6297247865732" lon="8.541948904596875"><ele>253.0</ele><time>2026-04-06T14:23:40.999Z</time></trkpt><trkpt lat="45.629713272599865" lon="8.541804646654315"><ele>253.0</ele><time>2026-04-06T14:23:41.999Z</time></trkpt><trkpt lat="45.629701703707305" lon="8.541663144949304"><ele>253.0</ele><time>2026-04-06T14:23:42.999Z</time></trkpt><trkpt lat="45.62969332896112" lon="8.541529192881"><ele>253.0</ele><time>2026-04-06T14:23:43.999Z</time></trkpt><trkpt lat="45.629688148334125" lon="8.54140796393682"><ele>252.99999999999997</ele><time>2026-04-06T14:23:44.999Z</time></trkpt><trkpt lat="45.629704552109565" lon="8.541290491274719"><ele>253.0</ele><time>2026-04-06T14:23:45.999Z</time></trkpt><trkpt lat="45.62969210257813" lon="8.54118553453004"><ele>253.0</ele><time>2026-04-06T14:23:46.999Z</time></trkpt><trkpt lat="45.62969179942736" lon="8.541083748473415"><ele>253.0</ele><time>2026-04-06T14:23:47.999Z</time></trkpt><trkpt lat="45.62969356765059" lon="8.540990074047423"><ele>252.99999999999997</ele><time>2026-04-06T14:23:48.999Z</time></trkpt><trkpt lat="45.62969623139027" lon="8.540850213677066"><ele>253.0</ele><time>2026-04-06T14:23:50.999Z</time></trkpt><trkpt lat="45.62969098633139" lon="8.540745245646328"><ele>252.83333333333331</ele><time>2026-04-06T14:23:52.999Z</time></trkpt><trkpt lat="45.62969936966228" lon="8.540627804773033"><ele>252.66666666666666</ele><time>2026-04-06T14:23:55.999Z</time></trkpt><trkpt lat="45.62977328723621" lon="8.540578216879295"><ele>252.5</ele><time>2026-04-06T14:23:57.999Z</time></trkpt><trkpt lat="45.629842982054186" lon="8.540578002517575"><ele>252.33333333333331</ele><time>2026-04-06T14:23:58.999Z</time></trkpt><trkpt lat="45.6299133606066" lon="8.540578462241182"><ele>252.16666666666666</ele><time>2026-04-06T14:23:59.999Z</time></trkpt><trkpt lat="45.62998506870929" lon="8.540584918193051"><ele>252.0</ele><time>2026-04-06T14:24:00.999Z</time></trkpt><trkpt lat="45.630065434380526" lon="8.5405897700682"><ele>252.0</ele><time>2026-04-06T14:24:01.999Z</time></trkpt><trkpt lat="45.63014311675659" lon="8.540596002239454"><ele>252.0</ele><time>2026-04-06T14:24:02.999Z</time></trkpt><trkpt lat="45.630217623347136" lon="8.540597950139546"><ele>252.0</ele><time>2026-04-06T14:24:03.999Z</time></trkpt><trkpt lat="45.63029863781095" lon="8.540606987330513"><ele>252.0</ele><time>2026-04-06T14:24:04.999Z</time></trkpt><trkpt lat="45.63038735165952" lon="8.540651897212332"><ele>252.0</ele><time>2026-04-06T14:24:05.999Z</time></trkpt><trkpt lat="45.63047696598125" lon="8.540666659269696"><ele>252.0</ele><time>2026-04-06T14:24:06.999Z</time></trkpt><trkpt lat="45.630555370405354" lon="8.540711403937436"><ele>252.5</ele><time>2026-04-06T14:24:07.999Z</time></trkpt><trkpt lat="45.63062841201576" lon="8.540738942613205"><ele>253.0</ele><time>2026-04-06T14:24:08.999Z</time></trkpt><trkpt lat="45.6306935148478" lon="8.54076629722129"><ele>253.5</ele><time>2026-04-06T14:24:09.999Z</time></trkpt><trkpt lat="45.6307886215569" lon="8.540827049947934"><ele>254.0</ele><time>2026-04-06T14:24:11.999Z</time></trkpt><trkpt lat="45.630861728635956" lon="8.540800362532678"><ele>254.5</ele><time>2026-04-06T14:24:13.999Z</time></trkpt><trkpt lat="45.63094016898932" lon="8.540804320197196"><ele>255.0</ele><time>2026-04-06T14:24:16.999Z</time></trkpt><trkpt lat="45.63102078875823" lon="8.540733410010015"><ele>255.0</ele><time>2026-04-06T14:24:22.999Z</time></trkpt><trkpt lat="45.63109830481556" lon="8.540747430142174"><ele>255.00000000000003</ele><time>2026-04-06T14:24:24.999Z</time></trkpt><trkpt lat="45.63103135960748" lon="8.540777347422399"><ele>255.0</ele><time>2026-04-06T14:26:07.999Z</time></trkpt><trkpt lat="45.630958719830346" lon="8.540795820248526"><ele>255.0</ele><time>2026-04-06T14:26:15.999Z</time></trkpt><trkpt lat="45.630887917445165" lon="8.54078492885947"><ele>255.00000000000003</ele><time>2026-04-06T14:26:27.999Z</time></trkpt><trkpt lat="45.63086498503457" lon="8.540687599051896"><ele>255.0</ele><time>2026-04-06T14:26:41.999Z</time></trkpt><trkpt lat="45.63090256490619" lon="8.540602794783373"><ele>255.0</ele><time>2026-04-06T14:27:28.999Z</time></trkpt><trkpt lat="45.63080451957829" lon="8.540655276127413"><ele>255.0</ele><time>2026-04-06T14:27:32.999Z</time></trkpt><trkpt lat="45.63088468520194" lon="8.54059340205574"><ele>255.0</ele><time>2026-04-06T14:27:38Z</time></trkpt><trkpt lat="45.6309565271549" lon="8.540570296513348"><ele>255.0</ele><time>2026-04-06T14:27:40Z</time></trkpt><trkpt lat="45.63062491565518" lon="8.540589814742017"><ele>255.0</ele><time>2026-04-06T14:27:55Z</time></trkpt><trkpt lat="45.630899173928455" lon="8.54056668041542"><ele>255.0</ele><time>2026-04-06T14:28:17Z</time></trkpt><trkpt lat="45.63090969373003" lon="8.540777991117844"><ele>255.0</ele><time>2026-04-06T14:28:35Z</time></trkpt><trkpt lat="45.6309729077098" lon="8.540737874179257"><ele>255.0</ele><time>2026-04-06T14:35:41.002Z</time></trkpt><trkpt lat="45.631039193747505" lon="8.540727074641502"><ele>255.0</ele><time>2026-04-06T14:35:47.002Z</time></trkpt><trkpt lat="45.63110272773597" lon="8.540692735225605"><ele>255.0</ele><time>2026-04-06T14:35:55.001Z</time></trkpt><trkpt lat="45.631214262180144" lon="8.540659641933528"><ele>255.0</ele><time>2026-04-06T14:38:52Z</time></trkpt><trkpt lat="45.631277423069044" lon="8.540631825397828"><ele>255.0</ele><time>2026-04-06T14:38:55Z</time></trkpt><trkpt lat="45.631345352790596" lon="8.540619075991811"><ele>255.0</ele><time>2026-04-06T14:38:58Z</time></trkpt><trkpt lat="45.631426539550866" lon="8.54059315706906"><ele>254.6</ele><time>2026-04-06T14:39:02Z</time></trkpt><trkpt lat="45.63155182075967" lon="8.540571650565953"><ele>254.2</ele><time>2026-04-06T14:39:04Z</time></trkpt><trkpt lat="45.63162777068777" lon="8.540556043584502"><ele>253.8</ele><time>2026-04-06T14:39:05Z</time></trkpt><trkpt lat="45.63169375713246" lon="8.540529636261587"><ele>253.4</ele><time>2026-04-06T14:39:06Z</time></trkpt><trkpt lat="45.63182071434017" lon="8.540508374667104"><ele>253.0</ele><time>2026-04-06T14:39:08Z</time></trkpt><trkpt lat="45.631888537102476" lon="8.540504112518727"><ele>253.00000000000003</ele><time>2026-04-06T14:39:09Z</time></trkpt><trkpt lat="45.631958769338404" lon="8.540493389268148"><ele>253.0</ele><time>2026-04-06T14:39:10Z</time></trkpt><trkpt lat="45.6320289474785" lon="8.540478977916674"><ele>253.00000000000003</ele><time>2026-04-06T14:39:11Z</time></trkpt><trkpt lat="45.63209633028835" lon="8.540467064255132"><ele>253.00000000000003</ele><time>2026-04-06T14:39:12Z</time></trkpt><trkpt lat="45.63216848507217" lon="8.540456171684315"><ele>253.0</ele><time>2026-04-06T14:39:13Z</time></trkpt><trkpt lat="45.632238642551265" lon="8.540437517939763"><ele>253.00000000000003</ele><time>2026-04-06T14:39:14Z</time></trkpt><trkpt lat="45.63231744316826" lon="8.540417993022295"><ele>253.00000000000003</ele><time>2026-04-06T14:39:15Z</time></trkpt><trkpt lat="45.632396632040034" lon="8.540391590662953"><ele>253.14285714285717</ele><time>2026-04-06T14:39:16Z</time></trkpt><trkpt lat="45.632468264947704" lon="8.540350119211697"><ele>253.28571428571428</ele><time>2026-04-06T14:39:17Z</time></trkpt><trkpt lat="45.63254143799905" lon="8.540315558793441"><ele>253.42857142857144</ele><time>2026-04-06T14:39:18Z</time></trkpt><trkpt lat="45.63260654325231" lon="8.54027882063999"><ele>253.57142857142858</ele><time>2026-04-06T14:39:19Z</time></trkpt><trkpt lat="45.63267631702998" lon="8.540241531068641"><ele>253.71428571428572</ele><time>2026-04-06T14:39:20Z</time></trkpt><trkpt lat="45.63274487545892" lon="8.540199034512069"><ele>253.85714285714286</ele><time>2026-04-06T14:39:21Z</time></trkpt><trkpt lat="45.63280762184817" lon="8.540156724542456"><ele>254.0</ele><time>2026-04-06T14:39:22Z</time></trkpt><trkpt lat="45.63286626041916" lon="8.540117236364999"><ele>254.50000000000003</ele><time>2026-04-06T14:39:23Z</time></trkpt><trkpt lat="45.63292762944022" lon="8.540085134260174"><ele>255.0</ele><time>2026-04-06T14:39:24Z</time></trkpt><trkpt lat="45.632995982444164" lon="8.540066904850297"><ele>255.5</ele><time>2026-04-06T14:39:25Z</time></trkpt><trkpt lat="45.633069454389386" lon="8.540063970481059"><ele>256.0</ele><time>2026-04-06T14:39:26Z</time></trkpt><trkpt lat="45.63314766199236" lon="8.540063496116415"><ele>256.5</ele><time>2026-04-06T14:39:27Z</time></trkpt><trkpt lat="45.63323577985636" lon="8.540069855832515"><ele>257.0</ele><time>2026-04-06T14:39:28Z</time></trkpt><trkpt lat="45.633325927583314" lon="8.540079566092478"><ele>257.0</ele><time>2026-04-06T14:39:29Z</time></trkpt><trkpt lat="45.633419826300255" lon="8.540092654420622"><ele>257.0</ele><time>2026-04-06T14:39:30Z</time></trkpt><trkpt lat="45.63350987250292" lon="8.540106206588987"><ele>257.0</ele><time>2026-04-06T14:39:31Z</time></trkpt><trkpt lat="45.633593470281056" lon="8.540124322209419"><ele>257.0</ele><time>2026-04-06T14:39:32Z</time></trkpt><trkpt lat="45.63367145545303" lon="8.540130220938225"><ele>257.0</ele><time>2026-04-06T14:39:33Z</time></trkpt><trkpt lat="45.63374066070003" lon="8.540135832842488"><ele>257.0</ele><time>2026-04-06T14:39:34Z</time></trkpt><trkpt lat="45.63380466458367" lon="8.54014251842121"><ele>257.0</ele><time>2026-04-06T14:39:35Z</time></trkpt><trkpt lat="45.633883337726594" lon="8.540161118388035"><ele>257.0</ele><time>2026-04-06T14:39:36.999Z</time></trkpt><trkpt lat="45.6339705889793" lon="8.540167801607124"><ele>257.0</ele><time>2026-04-06T14:39:39.999Z</time></trkpt><trkpt lat="45.63402541325306" lon="8.539911849123364"><ele>257.0</ele><time>2026-04-06T14:39:43.999Z</time></trkpt><trkpt lat="45.63402094670367" lon="8.539814712431378"><ele>257.0</ele><time>2026-04-06T14:39:44.999Z</time></trkpt><trkpt lat="45.634016280257555" lon="8.539712653021018"><ele>257.0</ele><time>2026-04-06T14:39:45.999Z</time></trkpt><trkpt lat="45.634012738964856" lon="8.539587351426439"><ele>257.0</ele><time>2026-04-06T14:39:47Z</time></trkpt><trkpt lat="45.63401164439417" lon="8.539460637587402"><ele>257.0</ele><time>2026-04-06T14:39:48Z</time></trkpt><trkpt lat="45.63401711241985" lon="8.539343788943507"><ele>257.0</ele><time>2026-04-06T14:39:49Z</time></trkpt><trkpt lat="45.63402947804156" lon="8.53923464554658"><ele>257.0</ele><time>2026-04-06T14:39:50Z</time></trkpt><trkpt lat="45.63404308348304" lon="8.539122869409931"><ele>257.0</ele><time>2026-04-06T14:39:51Z</time></trkpt><trkpt lat="45.63404235799006" lon="8.539007908568399"><ele>256.6666666666667</ele><time>2026-04-06T14:39:52Z</time></trkpt><trkpt lat="45.63407084569497" lon="8.53889507481825"><ele>256.33333333333337</ele><time>2026-04-06T14:39:53Z</time></trkpt><trkpt lat="45.63408104439723" lon="8.538769230975133"><ele>256.0</ele><time>2026-04-06T14:39:54Z</time></trkpt><trkpt lat="45.634064283300944" lon="8.538646551994459"><ele>255.66666666666669</ele><time>2026-04-06T14:39:55Z</time></trkpt><trkpt lat="45.63406343499685" lon="8.53852386597813"><ele>255.33333333333334</ele><time>2026-04-06T14:39:56Z</time></trkpt><trkpt lat="45.63404639100687" lon="8.538378156301896"><ele>255.0</ele><time>2026-04-06T14:39:57Z</time></trkpt><trkpt lat="45.63403235938149" lon="8.538232202571221"><ele>255.0</ele><time>2026-04-06T14:39:58Z</time></trkpt><trkpt lat="45.63403707552638" lon="8.538078130308513"><ele>255.0</ele><time>2026-04-06T14:39:59Z</time></trkpt><trkpt lat="45.63402656986972" lon="8.5379292088512"><ele>255.0</ele><time>2026-04-06T14:40:00Z</time></trkpt><trkpt lat="45.63400548038871" lon="8.537782719820127"><ele>255.0</ele><time>2026-04-06T14:40:01Z</time></trkpt><trkpt lat="45.63399497222033" lon="8.537647820118831"><ele>255.0</ele><time>2026-04-06T14:40:02Z</time></trkpt><trkpt lat="45.6339885000645" lon="8.537507363755333"><ele>255.4</ele><time>2026-04-06T14:40:03Z</time></trkpt><trkpt lat="45.63397832219776" lon="8.537357217871287"><ele>255.8</ele><time>2026-04-06T14:40:04Z</time></trkpt><trkpt lat="45.633966014978746" lon="8.537214934388238"><ele>256.2</ele><time>2026-04-06T14:40:05Z</time></trkpt><trkpt lat="45.63395457734132" lon="8.537066526624894"><ele>256.6</ele><time>2026-04-06T14:40:06Z</time></trkpt><trkpt lat="45.63394888439588" lon="8.536908417060621"><ele>257.0</ele><time>2026-04-06T14:40:07Z</time></trkpt><trkpt lat="45.6339356728928" lon="8.536758006514061"><ele>258.0</ele><time>2026-04-06T14:40:08Z</time></trkpt><trkpt lat="45.63391998852435" lon="8.53659071487936"><ele>259.0</ele><time>2026-04-06T14:40:09Z</time></trkpt><trkpt lat="45.63392253748579" lon="8.536415605400988"><ele>260.0</ele><time>2026-04-06T14:40:10Z</time></trkpt><trkpt lat="45.633909812760606" lon="8.536236502733573"><ele>261.0</ele><time>2026-04-06T14:40:11Z</time></trkpt><trkpt lat="45.63389750382204" lon="8.536054828471526"><ele>261.5</ele><time>2026-04-06T14:40:12Z</time></trkpt><trkpt lat="45.63388341217886" lon="8.535855741746857"><ele>262.0</ele><time>2026-04-06T14:40:13Z</time></trkpt><trkpt lat="45.63387077904491" lon="8.535677260894326"><ele>262.5</ele><time>2026-04-06T14:40:14Z</time></trkpt><trkpt lat="45.63384402734235" lon="8.535508793340773"><ele>263.0</ele><time>2026-04-06T14:40:15Z</time></trkpt><trkpt lat="45.63383411537005" lon="8.535341891755959"><ele>263.0</ele><time>2026-04-06T14:40:16Z</time></trkpt><trkpt lat="45.63383982284458" lon="8.535188786381124"><ele>263.0</ele><time>2026-04-06T14:40:17Z</time></trkpt><trkpt lat="45.633828020732565" lon="8.535047257164745"><ele>263.0</ele><time>2026-04-06T14:40:18Z</time></trkpt><trkpt lat="45.6338190284541" lon="8.534904731235093"><ele>263.0</ele><time>2026-04-06T14:40:19Z</time></trkpt><trkpt lat="45.63380851335086" lon="8.5347380688318"><ele>263.0</ele><time>2026-04-06T14:40:20Z</time></trkpt><trkpt lat="45.63379765398004" lon="8.53456594995124"><ele>262.5</ele><time>2026-04-06T14:40:21Z</time></trkpt><trkpt lat="45.63378673986018" lon="8.534392963396606"><ele>262.0</ele><time>2026-04-06T14:40:22Z</time></trkpt><trkpt lat="45.63377459528082" lon="8.53421614098711"><ele>261.5</ele><time>2026-04-06T14:40:23Z</time></trkpt><trkpt lat="45.63376171682469" lon="8.534032046241702"><ele>261.0</ele><time>2026-04-06T14:40:24Z</time></trkpt><trkpt lat="45.63374874771439" lon="8.533846655583663"><ele>260.75</ele><time>2026-04-06T14:40:25Z</time></trkpt><trkpt lat="45.63373577038085" lon="8.533664587542319"><ele>260.5</ele><time>2026-04-06T14:40:26Z</time></trkpt><trkpt lat="45.63372307862384" lon="8.533492281356228"><ele>260.25</ele><time>2026-04-06T14:40:27Z</time></trkpt><trkpt lat="45.63371085713287" lon="8.533326359810632"><ele>260.0</ele><time>2026-04-06T14:40:28Z</time></trkpt><trkpt lat="45.633687655676134" lon="8.533167886759713"><ele>260.0</ele><time>2026-04-06T14:40:29Z</time></trkpt><trkpt lat="45.63370685469666" lon="8.53301078684684"><ele>260.0</ele><time>2026-04-06T14:40:30Z</time></trkpt><trkpt lat="45.63372204689537" lon="8.532863137598937"><ele>260.0</ele><time>2026-04-06T14:40:31Z</time></trkpt><trkpt lat="45.6337419735139" lon="8.53272715586259"><ele>260.0</ele><time>2026-04-06T14:40:32Z</time></trkpt><trkpt lat="45.63374726970378" lon="8.532592228910909"><ele>260.0</ele><time>2026-04-06T14:40:33Z</time></trkpt><trkpt lat="45.633768709762364" lon="8.532486513648923"><ele>260.1666666666667</ele><time>2026-04-06T14:40:34Z</time></trkpt><trkpt lat="45.633798019151165" lon="8.532403718897926"><ele>260.33333333333337</ele><time>2026-04-06T14:40:35Z</time></trkpt><trkpt lat="45.63381451897521" lon="8.53231151436303"><ele>260.5</ele><time>2026-04-06T14:40:37Z</time></trkpt><trkpt lat="45.63365768083271" lon="8.532258368242138"><ele>260.6666666666667</ele><time>2026-04-06T14:40:39Z</time></trkpt><trkpt lat="45.633595125763584" lon="8.5322871389019"><ele>260.8333333333333</ele><time>2026-04-06T14:40:40Z</time></trkpt><trkpt lat="45.6335219745563" lon="8.532341162572784"><ele>261.0</ele><time>2026-04-06T14:40:41Z</time></trkpt><trkpt lat="45.633441145977685" lon="8.532409628220487"><ele>260.25</ele><time>2026-04-06T14:40:42Z</time></trkpt><trkpt lat="45.6333483422071" lon="8.532485722923996"><ele>259.5</ele><time>2026-04-06T14:40:43Z</time></trkpt><trkpt lat="45.63324309938083" lon="8.532578619069886"><ele>258.75</ele><time>2026-04-06T14:40:44Z</time></trkpt><trkpt lat="45.63313394792332" lon="8.53267372650029"><ele>258.0</ele><time>2026-04-06T14:40:44.999Z</time></trkpt><trkpt lat="45.63302703372514" lon="8.532770384226753"><ele>258.0</ele><time>2026-04-06T14:40:45.999Z</time></trkpt><trkpt lat="45.632915532811744" lon="8.532869193993069"><ele>258.0</ele><time>2026-04-06T14:40:46.999Z</time></trkpt><trkpt lat="45.63279805308408" lon="8.53296834684746"><ele>258.0</ele><time>2026-04-06T14:40:47.999Z</time></trkpt><trkpt lat="45.63268335462904" lon="8.533069773206536"><ele>258.0</ele><time>2026-04-06T14:40:48.999Z</time></trkpt><trkpt lat="45.63256786073344" lon="8.533173164007147"><ele>257.5</ele><time>2026-04-06T14:40:49.999Z</time></trkpt><trkpt lat="45.63245075653082" lon="8.533275392020926"><ele>257.0</ele><time>2026-04-06T14:40:50.999Z</time></trkpt><trkpt lat="45.6323345957146" lon="8.533376468528504"><ele>256.5</ele><time>2026-04-06T14:40:51.999Z</time></trkpt><trkpt lat="45.63221323565886" lon="8.533486162031222"><ele>256.0</ele><time>2026-04-06T14:40:52.999Z</time></trkpt><trkpt lat="45.632091370660014" lon="8.533595803781465"><ele>255.75</ele><time>2026-04-06T14:40:53.999Z</time></trkpt><trkpt lat="45.63196504787992" lon="8.533707062545709"><ele>255.5</ele><time>2026-04-06T14:40:54.999Z</time></trkpt><trkpt lat="45.63183898514674" lon="8.53381158264352"><ele>255.25</ele><time>2026-04-06T14:40:55.999Z</time></trkpt><trkpt lat="45.631713108120046" lon="8.533915914443785"><ele>255.0</ele><time>2026-04-06T14:40:56.999Z</time></trkpt><trkpt lat="45.63158271152916" lon="8.534014085757862"><ele>255.0</ele><time>2026-04-06T14:40:57.999Z</time></trkpt><trkpt lat="45.63145265045795" lon="8.534106665107759"><ele>255.0</ele><time>2026-04-06T14:40:58.999Z</time></trkpt><trkpt lat="45.631321613362424" lon="8.534197983967156"><ele>255.0</ele><time>2026-04-06T14:40:59.999Z</time></trkpt><trkpt lat="45.63118971974045" lon="8.53428890066682"><ele>255.0</ele><time>2026-04-06T14:41:00.999Z</time></trkpt><trkpt lat="45.63105904607423" lon="8.534380670242085"><ele>255.0</ele><time>2026-04-06T14:41:01.999Z</time></trkpt><trkpt lat="45.63092804931691" lon="8.534474641879735"><ele>255.0</ele><time>2026-04-06T14:41:02.999Z</time></trkpt><trkpt lat="45.63079485356417" lon="8.534573154936291"><ele>255.0</ele><time>2026-04-06T14:41:03.999Z</time></trkpt><trkpt lat="45.630668568169625" lon="8.534676282953965"><ele>255.0</ele><time>2026-04-06T14:41:04.999Z</time></trkpt><trkpt lat="45.63054466574644" lon="8.53477808056365"><ele>255.25</ele><time>2026-04-06T14:41:05.999Z</time></trkpt><trkpt lat="45.63042716139478" lon="8.534879440237264"><ele>255.5</ele><time>2026-04-06T14:41:06.999Z</time></trkpt><trkpt lat="45.63031528152595" lon="8.534973890553987"><ele>255.75</ele><time>2026-04-06T14:41:07.999Z</time></trkpt><trkpt lat="45.63020704305793" lon="8.535068501865064"><ele>256.0</ele><time>2026-04-06T14:41:08.999Z</time></trkpt><trkpt lat="45.630099673552905" lon="8.535160727512293"><ele>255.5</ele><time>2026-04-06T14:41:09.999Z</time></trkpt><trkpt lat="45.6299931722205" lon="8.535250623939703"><ele>255.0</ele><time>2026-04-06T14:41:10.999Z</time></trkpt><trkpt lat="45.62988431099914" lon="8.535338073350305"><ele>254.5</ele><time>2026-04-06T14:41:11.999Z</time></trkpt><trkpt lat="45.629775000243" lon="8.535417696086453"><ele>254.0</ele><time>2026-04-06T14:41:12.999Z</time></trkpt><trkpt lat="45.62966176912917" lon="8.535490512703603"><ele>254.0</ele><time>2026-04-06T14:41:13.999Z</time></trkpt><trkpt lat="45.629545987021075" lon="8.535556258836467"><ele>254.0</ele><time>2026-04-06T14:41:14.999Z</time></trkpt><trkpt lat="45.62942792060461" lon="8.53561375992574"><ele>254.0</ele><time>2026-04-06T14:41:15.999Z</time></trkpt><trkpt lat="45.62930763296383" lon="8.535653483987995"><ele>254.0</ele><time>2026-04-06T14:41:16.999Z</time></trkpt><trkpt lat="45.62919240924296" lon="8.535683054230441"><ele>254.0</ele><time>2026-04-06T14:41:17.999Z</time></trkpt><trkpt lat="45.62908431148064" lon="8.535705028895185"><ele>253.99999999999997</ele><time>2026-04-06T14:41:18.999Z</time></trkpt><trkpt lat="45.628976870586094" lon="8.535729308039725"><ele>253.99999999999997</ele><time>2026-04-06T14:41:19.999Z</time></trkpt><trkpt lat="45.62887754672937" lon="8.535748491606807"><ele>254.0</ele><time>2026-04-06T14:41:20.999Z</time></trkpt><trkpt lat="45.628798749685686" lon="8.53576179381857"><ele>254.0</ele><time>2026-04-06T14:41:21.999Z</time></trkpt><trkpt lat="45.62873048965989" lon="8.535776037308256"><ele>253.83333333333334</ele><time>2026-04-06T14:41:22.999Z</time></trkpt><trkpt lat="45.6286243710967" lon="8.535779261800187"><ele>253.66666666666669</ele><time>2026-04-06T14:41:24.999Z</time></trkpt><trkpt lat="45.62855426447088" lon="8.535745729945335"><ele>253.5</ele><time>2026-04-06T14:41:26.999Z</time></trkpt><trkpt lat="45.62847712827262" lon="8.535689824654268"><ele>253.33333333333331</ele><time>2026-04-06T14:41:29.999Z</time></trkpt><trkpt lat="45.62845547036807" lon="8.535542794784956"><ele>253.16666666666666</ele><time>2026-04-06T14:41:31.999Z</time></trkpt><trkpt lat="45.62844834587584" lon="8.535434144250699"><ele>253.0</ele><time>2026-04-06T14:41:32.999Z</time></trkpt><trkpt lat="45.628429119248196" lon="8.535318626663113"><ele>253.0</ele><time>2026-04-06T14:41:33.999Z</time></trkpt><trkpt lat="45.628411456896686" lon="8.535206368455997"><ele>253.0</ele><time>2026-04-06T14:41:34.999Z</time></trkpt><trkpt lat="45.62839280006771" lon="8.535083187288588"><ele>253.0</ele><time>2026-04-06T14:41:35.999Z</time></trkpt><trkpt lat="45.62837771171367" lon="8.534940970251043"><ele>253.0</ele><time>2026-04-06T14:41:36.999Z</time></trkpt><trkpt lat="45.62837018049555" lon="8.534776332040966"><ele>253.0</ele><time>2026-04-06T14:41:37.999Z</time></trkpt><trkpt lat="45.62835331629487" lon="8.534610285008133"><ele>253.25</ele><time>2026-04-06T14:41:38.999Z</time></trkpt><trkpt lat="45.628360093044506" lon="8.534446605679548"><ele>253.5</ele><time>2026-04-06T14:41:39.999Z</time></trkpt><trkpt lat="45.62835989906477" lon="8.53428022195597"><ele>253.75</ele><time>2026-04-06T14:41:40.999Z</time></trkpt><trkpt lat="45.62835675901404" lon="8.534109379777842"><ele>254.0</ele><time>2026-04-06T14:41:41.999Z</time></trkpt><trkpt lat="45.628357682769234" lon="8.533925000486349"><ele>254.0</ele><time>2026-04-06T14:41:42.999Z</time></trkpt><trkpt lat="45.628359596569226" lon="8.533739367281676"><ele>254.0</ele><time>2026-04-06T14:41:43.999Z</time></trkpt><trkpt lat="45.62836266541721" lon="8.533538861025868"><ele>254.0</ele><time>2026-04-06T14:41:44.999Z</time></trkpt><trkpt lat="45.628367464694854" lon="8.53335105864359"><ele>254.0</ele><time>2026-04-06T14:41:45.999Z</time></trkpt><trkpt lat="45.628379129622104" lon="8.533169030675564"><ele>254.0</ele><time>2026-04-06T14:41:46.999Z</time></trkpt><trkpt lat="45.62841506705205" lon="8.532988817192617"><ele>254.0</ele><time>2026-04-06T14:41:47.999Z</time></trkpt><trkpt lat="45.628425290239946" lon="8.532801331568109"><ele>254.0</ele><time>2026-04-06T14:41:48.999Z</time></trkpt><trkpt lat="45.62844978590116" lon="8.53260523562808"><ele>254.0</ele><time>2026-04-06T14:41:49.999Z</time></trkpt><trkpt lat="45.62847080878705" lon="8.532398497286243"><ele>254.0</ele><time>2026-04-06T14:41:50.999Z</time></trkpt><trkpt lat="45.628502205229196" lon="8.532197418154018"><ele>254.0</ele><time>2026-04-06T14:41:52Z</time></trkpt><trkpt lat="45.62850522817819" lon="8.531985296402578"><ele>254.0</ele><time>2026-04-06T14:41:53Z</time></trkpt><trkpt lat="45.62847360092998" lon="8.531781008454184"><ele>254.0</ele><time>2026-04-06T14:41:54Z</time></trkpt><trkpt lat="45.62844388915696" lon="8.531565996556505"><ele>254.0</ele><time>2026-04-06T14:41:55Z</time></trkpt><trkpt lat="45.62840185988719" lon="8.531348191085488"><ele>254.0</ele><time>2026-04-06T14:41:56Z</time></trkpt><trkpt lat="45.62837414982924" lon="8.531116196276173"><ele>254.0</ele><time>2026-04-06T14:41:57Z</time></trkpt><trkpt lat="45.62833336941542" lon="8.530899529179212"><ele>254.0</ele><time>2026-04-06T14:41:58Z</time></trkpt><trkpt lat="45.62829254662398" lon="8.530682636992188"><ele>254.0</ele><time>2026-04-06T14:41:59Z</time></trkpt><trkpt lat="45.628250414293376" lon="8.530465560241792"><ele>254.0</ele><time>2026-04-06T14:42:00Z</time></trkpt><trkpt lat="45.62820599145103" lon="8.530256492412494"><ele>255.0</ele><time>2026-04-06T14:42:00.999Z</time></trkpt><trkpt lat="45.62815365817462" lon="8.530045895839617"><ele>256.0</ele><time>2026-04-06T14:42:01.999Z</time></trkpt><trkpt lat="45.62809200409075" lon="8.52983236709578"><ele>257.0</ele><time>2026-04-06T14:42:02.999Z</time></trkpt><trkpt lat="45.62801659764276" lon="8.529627206213405"><ele>257.0</ele><time>2026-04-06T14:42:03.999Z</time></trkpt><trkpt lat="45.62792260343719" lon="8.529425467485572"><ele>257.0</ele><time>2026-04-06T14:42:04.999Z</time></trkpt><trkpt lat="45.62780541921219" lon="8.529257184594728"><ele>257.0</ele><time>2026-04-06T14:42:05.999Z</time></trkpt><trkpt lat="45.62769096828569" lon="8.529079989550372"><ele>257.0</ele><time>2026-04-06T14:42:06.999Z</time></trkpt><trkpt lat="45.62756599922929" lon="8.52890236654172"><ele>257.0</ele><time>2026-04-06T14:42:07.999Z</time></trkpt><trkpt lat="45.62742960562639" lon="8.528728401996618"><ele>257.0</ele><time>2026-04-06T14:42:08.999Z</time></trkpt><trkpt lat="45.62728726934013" lon="8.528567931180602"><ele>257.0</ele><time>2026-04-06T14:42:09.999Z</time></trkpt><trkpt lat="45.627162839674135" lon="8.528379957606901"><ele>257.0</ele><time>2026-04-06T14:42:10.999Z</time></trkpt><trkpt lat="45.62702970832264" lon="8.528233208876435"><ele>257.0</ele><time>2026-04-06T14:42:11.999Z</time></trkpt><trkpt lat="45.62689085351563" lon="8.528091933639315"><ele>255.33333333333334</ele><time>2026-04-06T14:42:12.999Z</time></trkpt><trkpt lat="45.62674987705697" lon="8.527981492133511"><ele>253.66666666666669</ele><time>2026-04-06T14:42:13.999Z</time></trkpt><trkpt lat="45.62661389115235" lon="8.527850689355237"><ele>252.0</ele><time>2026-04-06T14:42:14.999Z</time></trkpt><trkpt lat="45.626473629789075" lon="8.527728182227953"><ele>252.0</ele><time>2026-04-06T14:42:15.999Z</time></trkpt><trkpt lat="45.626334738547726" lon="8.52760313744869"><ele>252.0</ele><time>2026-04-06T14:42:16.999Z</time></trkpt><trkpt lat="45.62619316530854" lon="8.527472737459327"><ele>252.0</ele><time>2026-04-06T14:42:17.999Z</time></trkpt><trkpt lat="45.62605660118354" lon="8.527344722636066"><ele>252.33333333333331</ele><time>2026-04-06T14:42:18.999Z</time></trkpt><trkpt lat="45.62591463952237" lon="8.52720993345407"><ele>252.66666666666666</ele><time>2026-04-06T14:42:19.999Z</time></trkpt><trkpt lat="45.62577339392217" lon="8.527077564661376"><ele>253.0</ele><time>2026-04-06T14:42:20.999Z</time></trkpt><trkpt lat="45.62563393009863" lon="8.526943862818493"><ele>253.0</ele><time>2026-04-06T14:42:21.999Z</time></trkpt><trkpt lat="45.625500675923725" lon="8.526815394207325"><ele>253.0</ele><time>2026-04-06T14:42:22.999Z</time></trkpt><trkpt lat="45.62535928342078" lon="8.526682305596937"><ele>253.0</ele><time>2026-04-06T14:42:23.999Z</time></trkpt><trkpt lat="45.62522987479123" lon="8.526527680622522"><ele>252.0</ele><time>2026-04-06T14:42:24.999Z</time></trkpt><trkpt lat="45.62507983332358" lon="8.526407809969603"><ele>251.0</ele><time>2026-04-06T14:42:25.999Z</time></trkpt><trkpt lat="45.62493451672815" lon="8.526263039637161"><ele>250.0</ele><time>2026-04-06T14:42:26.999Z</time></trkpt><trkpt lat="45.62479339201077" lon="8.526120907571572"><ele>250.0</ele><time>2026-04-06T14:42:27.999Z</time></trkpt><trkpt lat="45.62464510838924" lon="8.525973657979327"><ele>250.0</ele><time>2026-04-06T14:42:28.999Z</time></trkpt><trkpt lat="45.6244888829087" lon="8.525805669041223"><ele>250.0</ele><time>2026-04-06T14:42:29.999Z</time></trkpt><trkpt lat="45.624319089981206" lon="8.525639872475166"><ele>249.0</ele><time>2026-04-06T14:42:30.999Z</time></trkpt><trkpt lat="45.624165471037394" lon="8.5254784529454"><ele>248.0</ele><time>2026-04-06T14:42:31.999Z</time></trkpt><trkpt lat="45.62402481865762" lon="8.52533709783639"><ele>247.0</ele><time>2026-04-06T14:42:32.999Z</time></trkpt><trkpt lat="45.62386934050445" lon="8.525185830378941"><ele>246.66666666666666</ele><time>2026-04-06T14:42:33.999Z</time></trkpt><trkpt lat="45.62373848573983" lon="8.525057021442834"><ele>246.33333333333331</ele><time>2026-04-06T14:42:34.999Z</time></trkpt><trkpt lat="45.62361639986929" lon="8.524930636211112"><ele>246.0</ele><time>2026-04-06T14:42:35.999Z</time></trkpt><trkpt lat="45.62349142586888" lon="8.524795238136507"><ele>246.66666666666669</ele><time>2026-04-06T14:42:36.999Z</time></trkpt><trkpt lat="45.623362529553674" lon="8.524652953275615"><ele>247.33333333333334</ele><time>2026-04-06T14:42:37.999Z</time></trkpt><trkpt lat="45.623235044317596" lon="8.524501715007263"><ele>248.0</ele><time>2026-04-06T14:42:38.999Z</time></trkpt><trkpt lat="45.62312634137119" lon="8.524313119523862"><ele>248.0</ele><time>2026-04-06T14:42:39.999Z</time></trkpt><trkpt lat="45.622985009088566" lon="8.524146724947562"><ele>248.0</ele><time>2026-04-06T14:42:40.999Z</time></trkpt><trkpt lat="45.62285008432906" lon="8.523959479482452"><ele>248.0</ele><time>2026-04-06T14:42:41.999Z</time></trkpt><trkpt lat="45.62272490818262" lon="8.5237849864428"><ele>248.0</ele><time>2026-04-06T14:42:42.999Z</time></trkpt><trkpt lat="45.62260453428856" lon="8.523609965130312"><ele>248.0</ele><time>2026-04-06T14:42:43.999Z</time></trkpt><trkpt lat="45.62248844451563" lon="8.523447449626927"><ele>248.0</ele><time>2026-04-06T14:42:44.999Z</time></trkpt><trkpt lat="45.62237498052858" lon="8.523289997002859"><ele>248.0</ele><time>2026-04-06T14:42:45.999Z</time></trkpt><trkpt lat="45.622261846192124" lon="8.523122863509023"><ele>248.0</ele><time>2026-04-06T14:42:46.999Z</time></trkpt><trkpt lat="45.622149054589094" lon="8.522958265586489"><ele>248.0</ele><time>2026-04-06T14:42:47.999Z</time></trkpt><trkpt lat="45.62206156992441" lon="8.522781516140022"><ele>247.0</ele><time>2026-04-06T14:42:48.999Z</time></trkpt><trkpt lat="45.621958907180954" lon="8.522629305069861"><ele>246.0</ele><time>2026-04-06T14:42:49.999Z</time></trkpt><trkpt lat="45.621883799113704" lon="8.522447078825184"><ele>245.0</ele><time>2026-04-06T14:42:50.999Z</time></trkpt><trkpt lat="45.6218010162963" lon="8.522281811821752"><ele>244.0</ele><time>2026-04-06T14:42:51.999Z</time></trkpt><trkpt lat="45.62172039700056" lon="8.522120428345428"><ele>244.5</ele><time>2026-04-06T14:42:52.999Z</time></trkpt><trkpt lat="45.621643391762206" lon="8.52196175086295"><ele>245.0</ele><time>2026-04-06T14:42:53.999Z</time></trkpt><trkpt lat="45.621550347043936" lon="8.521825424751613"><ele>245.5</ele><time>2026-04-06T14:42:54.999Z</time></trkpt><trkpt lat="45.62148367939836" lon="8.521677469497096"><ele>246.0</ele><time>2026-04-06T14:42:55.999Z</time></trkpt><trkpt lat="45.62140849461768" lon="8.521531432050809"><ele>246.0</ele><time>2026-04-06T14:42:56.999Z</time></trkpt><trkpt lat="45.62133270218898" lon="8.521385802924899"><ele>246.0</ele><time>2026-04-06T14:42:57.999Z</time></trkpt><trkpt lat="45.62127683050906" lon="8.521224215813922"><ele>246.0</ele><time>2026-04-06T14:42:58.999Z</time></trkpt><trkpt lat="45.62120493756451" lon="8.52108036552038"><ele>246.0</ele><time>2026-04-06T14:42:59.999Z</time></trkpt><trkpt lat="45.62113493022738" lon="8.52093632814163"><ele>246.0</ele><time>2026-04-06T14:43:00.999Z</time></trkpt><trkpt lat="45.62106365840725" lon="8.520789185820133"><ele>246.0</ele><time>2026-04-06T14:43:01.999Z</time></trkpt><trkpt lat="45.62099561137591" lon="8.520649410392577"><ele>246.0</ele><time>2026-04-06T14:43:02.999Z</time></trkpt><trkpt lat="45.620923665572136" lon="8.520504378989324"><ele>246.0</ele><time>2026-04-06T14:43:03.999Z</time></trkpt><trkpt lat="45.6208476158367" lon="8.520350973840706"><ele>246.5</ele><time>2026-04-06T14:43:04.999Z</time></trkpt><trkpt lat="45.62076149086905" lon="8.52021992776188"><ele>247.0</ele><time>2026-04-06T14:43:05.999Z</time></trkpt><trkpt lat="45.62070415488806" lon="8.520070149804411"><ele>247.5</ele><time>2026-04-06T14:43:06.999Z</time></trkpt><trkpt lat="45.620632058182665" lon="8.51992989584665"><ele>248.0</ele><time>2026-04-06T14:43:07.999Z</time></trkpt><trkpt lat="45.62056237373078" lon="8.519794523869125"><ele>248.0</ele><time>2026-04-06T14:43:08.999Z</time></trkpt><trkpt lat="45.62050001110997" lon="8.51967163655803"><ele>248.0</ele><time>2026-04-06T14:43:09.999Z</time></trkpt><trkpt lat="45.620439465954135" lon="8.51955104356278"><ele>248.0</ele><time>2026-04-06T14:43:10.999Z</time></trkpt><trkpt lat="45.62038918200824" lon="8.519434215113732"><ele>248.0</ele><time>2026-04-06T14:43:11.999Z</time></trkpt><trkpt lat="45.62033957604785" lon="8.519285529474757"><ele>248.0</ele><time>2026-04-06T14:43:12.999Z</time></trkpt><trkpt lat="45.62029848591795" lon="8.519107754276405"><ele>247.5</ele><time>2026-04-06T14:43:13.999Z</time></trkpt><trkpt lat="45.620261166519214" lon="8.518930245875058"><ele>247.0</ele><time>2026-04-06T14:43:14.999Z</time></trkpt><trkpt lat="45.62020830782145" lon="8.518771533583395"><ele>246.5</ele><time>2026-04-06T14:43:15.999Z</time></trkpt><trkpt lat="45.62012667757773" lon="8.518636094107285"><ele>246.0</ele><time>2026-04-06T14:43:16.999Z</time></trkpt><trkpt lat="45.62003654331641" lon="8.518497419984374"><ele>245.75</ele><time>2026-04-06T14:43:17.999Z</time></trkpt><trkpt lat="45.61995374551161" lon="8.5183442321535"><ele>245.5</ele><time>2026-04-06T14:43:18.999Z</time></trkpt><trkpt lat="45.619864511691134" lon="8.518205530273967"><ele>245.25</ele><time>2026-04-06T14:43:19.999Z</time></trkpt><trkpt lat="45.6197604776787" lon="8.518048864046825"><ele>245.0</ele><time>2026-04-06T14:43:20.999Z</time></trkpt><trkpt lat="45.6196470532687" lon="8.517886816490398"><ele>245.0</ele><time>2026-04-06T14:43:21.999Z</time></trkpt><trkpt lat="45.61954661789419" lon="8.517735255411472"><ele>245.0</ele><time>2026-04-06T14:43:22.999Z</time></trkpt><trkpt lat="45.61946025073168" lon="8.517595815836952"><ele>245.0</ele><time>2026-04-06T14:43:23.999Z</time></trkpt><trkpt lat="45.61938605547713" lon="8.517455373045316"><ele>245.0</ele><time>2026-04-06T14:43:24.999Z</time></trkpt><trkpt lat="45.61931832622708" lon="8.517317193904377"><ele>245.0</ele><time>2026-04-06T14:43:25.999Z</time></trkpt><trkpt lat="45.619254638537456" lon="8.51718635993721"><ele>245.0</ele><time>2026-04-06T14:43:26.999Z</time></trkpt><trkpt lat="45.6191960038235" lon="8.517060692308325"><ele>245.0</ele><time>2026-04-06T14:43:27.999Z</time></trkpt><trkpt lat="45.61914121818327" lon="8.516943252094087"><ele>245.0</ele><time>2026-04-06T14:43:28.999Z</time></trkpt><trkpt lat="45.61908541355101" lon="8.516823804199214"><ele>245.0</ele><time>2026-04-06T14:43:29.999Z</time></trkpt><trkpt lat="45.61901810528763" lon="8.516700995488419"><ele>245.0</ele><time>2026-04-06T14:43:30.999Z</time></trkpt><trkpt lat="45.61895743744596" lon="8.516572251843892"><ele>245.0</ele><time>2026-04-06T14:43:31.999Z</time></trkpt><trkpt lat="45.61891878706033" lon="8.51644005409024"><ele>245.0</ele><time>2026-04-06T14:43:32.999Z</time></trkpt><trkpt lat="45.618873460710326" lon="8.516322319005047"><ele>245.0</ele><time>2026-04-06T14:43:33.999Z</time></trkpt><trkpt lat="45.618831103754765" lon="8.516202595837537"><ele>245.0</ele><time>2026-04-06T14:43:34.999Z</time></trkpt><trkpt lat="45.61879580301318" lon="8.516096858151858"><ele>245.00000000000003</ele><time>2026-04-06T14:43:35.999Z</time></trkpt><trkpt lat="45.61876511524803" lon="8.51600472958073"><ele>245.0</ele><time>2026-04-06T14:43:36.999Z</time></trkpt><trkpt lat="45.61872257188944" lon="8.515875900264637"><ele>245.0</ele><time>2026-04-06T14:43:38.999Z</time></trkpt><trkpt lat="45.61868798430292" lon="8.51579077646436"><ele>245.0</ele><time>2026-04-06T14:44:57.999Z</time></trkpt><trkpt lat="45.61856877758719" lon="8.515841205991505"><ele>245.00000000000003</ele><time>2026-04-06T14:44:58.999Z</time></trkpt><trkpt lat="45.618488769778494" lon="8.515881886143893"><ele>245.0</ele><time>2026-04-06T14:44:59.999Z</time></trkpt><trkpt lat="45.61840801669337" lon="8.515939390621199"><ele>245.5</ele><time>2026-04-06T14:45:00.999Z</time></trkpt><trkpt lat="45.61831825032514" lon="8.515997128989055"><ele>246.0</ele><time>2026-04-06T14:45:01.999Z</time></trkpt><trkpt lat="45.61820588773193" lon="8.516051691415097"><ele>246.5</ele><time>2026-04-06T14:45:02.999Z</time></trkpt><trkpt lat="45.618094720926884" lon="8.516116605347014"><ele>247.0</ele><time>2026-04-06T14:45:03.999Z</time></trkpt><trkpt lat="45.61798049114595" lon="8.516179746275814"><ele>247.0</ele><time>2026-04-06T14:45:04.999Z</time></trkpt><trkpt lat="45.6178656268944" lon="8.516249519233233"><ele>247.0</ele><time>2026-04-06T14:45:05.999Z</time></trkpt><trkpt lat="45.61774610871577" lon="8.516330843319555"><ele>247.0</ele><time>2026-04-06T14:45:06.999Z</time></trkpt><trkpt lat="45.61761698423999" lon="8.51643103681817"><ele>247.0</ele><time>2026-04-06T14:45:07.999Z</time></trkpt><trkpt lat="45.61747924755333" lon="8.516548027504378"><ele>246.33333333333331</ele><time>2026-04-06T14:45:08.999Z</time></trkpt><trkpt lat="45.617343544572634" lon="8.516662288568238"><ele>245.66666666666669</ele><time>2026-04-06T14:45:09.999Z</time></trkpt><trkpt lat="45.61721187248078" lon="8.51677234454041"><ele>245.0</ele><time>2026-04-06T14:45:10.999Z</time></trkpt><trkpt lat="45.61708042957244" lon="8.516880365689433"><ele>245.0</ele><time>2026-04-06T14:45:11.999Z</time></trkpt><trkpt lat="45.61695368569022" lon="8.516985672459759"><ele>245.0</ele><time>2026-04-06T14:45:12.999Z</time></trkpt><trkpt lat="45.61682004386154" lon="8.517095839205497"><ele>245.0</ele><time>2026-04-06T14:45:13.999Z</time></trkpt><trkpt lat="45.61668123823129" lon="8.517213467384751"><ele>245.0</ele><time>2026-04-06T14:45:14.999Z</time></trkpt><trkpt lat="45.61653830198687" lon="8.517339030660212"><ele>245.0</ele><time>2026-04-06T14:45:15.999Z</time></trkpt><trkpt lat="45.61639624293867" lon="8.51747256817293"><ele>245.0</ele><time>2026-04-06T14:45:16.999Z</time></trkpt><trkpt lat="45.61625867016574" lon="8.51760493396869"><ele>245.0</ele><time>2026-04-06T14:45:17.999Z</time></trkpt><trkpt lat="45.6161134927018" lon="8.51772028868418"><ele>245.0</ele><time>2026-04-06T14:45:18.999Z</time></trkpt><trkpt lat="45.61597939656769" lon="8.517846487601307"><ele>245.0</ele><time>2026-04-06T14:45:19.999Z</time></trkpt><trkpt lat="45.61583822977077" lon="8.517983098855412"><ele>245.0</ele><time>2026-04-06T14:45:20.999Z</time></trkpt><trkpt lat="45.61568823473925" lon="8.51811669238057"><ele>245.0</ele><time>2026-04-06T14:45:21.999Z</time></trkpt><trkpt lat="45.615539068636494" lon="8.518250466871166"><ele>245.0</ele><time>2026-04-06T14:45:22.999Z</time></trkpt><trkpt lat="45.61538823481888" lon="8.51837667577296"><ele>244.0</ele><time>2026-04-06T14:45:23.999Z</time></trkpt><trkpt lat="45.61522910409505" lon="8.518499025343695"><ele>243.0</ele><time>2026-04-06T14:45:24.999Z</time></trkpt><trkpt lat="45.61506696589241" lon="8.518616620051889"><ele>242.0</ele><time>2026-04-06T14:45:25.999Z</time></trkpt><trkpt lat="45.61490201042275" lon="8.518727430650278"><ele>241.66666666666669</ele><time>2026-04-06T14:45:26.999Z</time></trkpt><trkpt lat="45.6147320215005" lon="8.518846146095488"><ele>241.33333333333331</ele><time>2026-04-06T14:45:27.999Z</time></trkpt><trkpt lat="45.61456413772178" lon="8.518962445655093"><ele>241.0</ele><time>2026-04-06T14:45:28.999Z</time></trkpt><trkpt lat="45.614394836196105" lon="8.519080314346587"><ele>241.0</ele><time>2026-04-06T14:45:29.999Z</time></trkpt><trkpt lat="45.61422574267059" lon="8.519202492418785"><ele>241.0</ele><time>2026-04-06T14:45:30.999Z</time></trkpt><trkpt lat="45.614058060415914" lon="8.519329557795508"><ele>241.0</ele><time>2026-04-06T14:45:31.999Z</time></trkpt><trkpt lat="45.61388671036069" lon="8.519454868176975"><ele>241.0</ele><time>2026-04-06T14:45:32.999Z</time></trkpt><trkpt lat="45.613713561318214" lon="8.519568945641952"><ele>241.0</ele><time>2026-04-06T14:45:33.999Z</time></trkpt><trkpt lat="45.613534831502534" lon="8.519663158840306"><ele>241.0</ele><time>2026-04-06T14:45:34.999Z</time></trkpt><trkpt lat="45.61334671696121" lon="8.519732638812949"><ele>240.33333333333331</ele><time>2026-04-06T14:45:35.999Z</time></trkpt><trkpt lat="45.613152567365255" lon="8.519790076003003"><ele>239.66666666666669</ele><time>2026-04-06T14:45:36.999Z</time></trkpt><trkpt lat="45.612954372330094" lon="8.519853719449488"><ele>239.0</ele><time>2026-04-06T14:45:37.999Z</time></trkpt><trkpt lat="45.61276227018244" lon="8.51992393480665"><ele>238.33333333333334</ele><time>2026-04-06T14:45:38.999Z</time></trkpt><trkpt lat="45.612571766582214" lon="8.520009741716528"><ele>237.66666666666669</ele><time>2026-04-06T14:45:39.999Z</time></trkpt><trkpt lat="45.61237676569755" lon="8.5201218592562"><ele>237.0</ele><time>2026-04-06T14:45:40.999Z</time></trkpt><trkpt lat="45.61217385249402" lon="8.52026961742592"><ele>236.33333333333331</ele><time>2026-04-06T14:45:41.999Z</time></trkpt><trkpt lat="45.6119708166085" lon="8.520409900592918"><ele>235.66666666666666</ele><time>2026-04-06T14:45:42.999Z</time></trkpt><trkpt lat="45.61177866302944" lon="8.520536957900697"><ele>235.0</ele><time>2026-04-06T14:45:43.999Z</time></trkpt><trkpt lat="45.61159661008511" lon="8.520661047391757"><ele>235.0</ele><time>2026-04-06T14:45:44.999Z</time></trkpt><trkpt lat="45.61141865607242" lon="8.520780890760472"><ele>235.0</ele><time>2026-04-06T14:45:45.999Z</time></trkpt><trkpt lat="45.61124039096983" lon="8.52090367573958"><ele>235.0</ele><time>2026-04-06T14:45:46.999Z</time></trkpt><trkpt lat="45.611061682300516" lon="8.521020685007516"><ele>235.0</ele><time>2026-04-06T14:45:47.999Z</time></trkpt><trkpt lat="45.610886610458394" lon="8.52113778196606"><ele>235.0</ele><time>2026-04-06T14:45:48.999Z</time></trkpt><trkpt lat="45.61071268556338" lon="8.521252850015438"><ele>235.0</ele><time>2026-04-06T14:45:49.999Z</time></trkpt><trkpt lat="45.61053621715734" lon="8.52136815586364"><ele>235.66666666666666</ele><time>2026-04-06T14:45:50.999Z</time></trkpt><trkpt lat="45.610359452667105" lon="8.521485982793001"><ele>236.33333333333331</ele><time>2026-04-06T14:45:51.999Z</time></trkpt><trkpt lat="45.61018754439929" lon="8.521602801416229"><ele>237.0</ele><time>2026-04-06T14:45:52.999Z</time></trkpt><trkpt lat="45.610015360834765" lon="8.52172199960569"><ele>237.0</ele><time>2026-04-06T14:45:53.999Z</time></trkpt><trkpt lat="45.609843211343886" lon="8.52184336943521"><ele>237.0</ele><time>2026-04-06T14:45:54.999Z</time></trkpt><trkpt lat="45.609670386138184" lon="8.521975331359545"><ele>237.0</ele><time>2026-04-06T14:45:55.999Z</time></trkpt><trkpt lat="45.609500931627274" lon="8.522121640546322"><ele>236.66666666666669</ele><time>2026-04-06T14:45:56.999Z</time></trkpt><trkpt lat="45.609335272145415" lon="8.522274318959969"><ele>236.33333333333334</ele><time>2026-04-06T14:45:57.999Z</time></trkpt><trkpt lat="45.60916415715459" lon="8.522432161947302"><ele>236.0</ele><time>2026-04-06T14:45:58.999Z</time></trkpt><trkpt lat="45.608990721908334" lon="8.522589324607445"><ele>236.0</ele><time>2026-04-06T14:45:59.999Z</time></trkpt><trkpt lat="45.60880937690475" lon="8.522750292633205"><ele>236.0</ele><time>2026-04-06T14:46:00.999Z</time></trkpt><trkpt lat="45.608624817739376" lon="8.52291501890489"><ele>236.0</ele><time>2026-04-06T14:46:01.999Z</time></trkpt><trkpt lat="45.60843490365463" lon="8.523089492483777"><ele>236.66666666666669</ele><time>2026-04-06T14:46:02.999Z</time></trkpt><trkpt lat="45.60824836084892" lon="8.523263588413228"><ele>237.33333333333331</ele><time>2026-04-06T14:46:03.999Z</time></trkpt><trkpt lat="45.60806968922642" lon="8.52342854617013"><ele>238.0</ele><time>2026-04-06T14:46:04.999Z</time></trkpt><trkpt lat="45.60788902444376" lon="8.523593644816204"><ele>236.33333333333331</ele><time>2026-04-06T14:46:05.999Z</time></trkpt><trkpt lat="45.60770641119272" lon="8.523762025421112"><ele>234.66666666666669</ele><time>2026-04-06T14:46:06.999Z</time></trkpt><trkpt lat="45.60752688932522" lon="8.523925564280551"><ele>233.0</ele><time>2026-04-06T14:46:07.999Z</time></trkpt><trkpt lat="45.607343293832194" lon="8.524086830054365"><ele>233.0</ele><time>2026-04-06T14:46:08.999Z</time></trkpt><trkpt lat="45.60715762731895" lon="8.524245294488855"><ele>233.0</ele><time>2026-04-06T14:46:09.999Z</time></trkpt><trkpt lat="45.60697146725528" lon="8.524405207457287"><ele>233.0</ele><time>2026-04-06T14:46:10.999Z</time></trkpt><trkpt lat="45.6067847729421" lon="8.524565594236394"><ele>233.33333333333334</ele><time>2026-04-06T14:46:11.999Z</time></trkpt><trkpt lat="45.606600183952665" lon="8.52472598391743"><ele>233.66666666666669</ele><time>2026-04-06T14:46:12.999Z</time></trkpt><trkpt lat="45.606410285605" lon="8.52489075089042"><ele>234.0</ele><time>2026-04-06T14:46:13.999Z</time></trkpt><trkpt lat="45.60622125088342" lon="8.52505750198496"><ele>233.5</ele><time>2026-04-06T14:46:14.999Z</time></trkpt><trkpt lat="45.606032699425356" lon="8.525238769134722"><ele>233.0</ele><time>2026-04-06T14:46:15.999Z</time></trkpt><trkpt lat="45.60584359809162" lon="8.525435971155872"><ele>234.0</ele><time>2026-04-06T14:46:17Z</time></trkpt><trkpt lat="45.60565141286319" lon="8.525652898539748"><ele>235.0</ele><time>2026-04-06T14:46:18Z</time></trkpt><trkpt lat="45.605465344248486" lon="8.525865911864924"><ele>234.5</ele><time>2026-04-06T14:46:19Z</time></trkpt><trkpt lat="45.60527907912828" lon="8.526075958549809"><ele>234.0</ele><time>2026-04-06T14:46:20Z</time></trkpt><trkpt lat="45.605100092643426" lon="8.526272446937378"><ele>235.0</ele><time>2026-04-06T14:46:21Z</time></trkpt><trkpt lat="45.60492453749097" lon="8.52646374473662"><ele>236.0</ele><time>2026-04-06T14:46:22Z</time></trkpt><trkpt lat="45.60475683339099" lon="8.526652819636663"><ele>237.0</ele><time>2026-04-06T14:46:23Z</time></trkpt><trkpt lat="45.60458701410258" lon="8.526843496006592"><ele>236.33333333333331</ele><time>2026-04-06T14:46:24Z</time></trkpt><trkpt lat="45.60442428630488" lon="8.527030527396226"><ele>235.66666666666666</ele><time>2026-04-06T14:46:25Z</time></trkpt><trkpt lat="45.6042547867386" lon="8.52722046259795"><ele>235.0</ele><time>2026-04-06T14:46:26Z</time></trkpt><trkpt lat="45.60409089811187" lon="8.527409808659907"><ele>235.0</ele><time>2026-04-06T14:46:27Z</time></trkpt><trkpt lat="45.603924489701825" lon="8.527600437246392"><ele>235.0</ele><time>2026-04-06T14:46:27.999Z</time></trkpt><trkpt lat="45.60375628967289" lon="8.527805564405066"><ele>235.0</ele><time>2026-04-06T14:46:28.999Z</time></trkpt><trkpt lat="45.603593523455174" lon="8.528018713931521"><ele>234.66666666666666</ele><time>2026-04-06T14:46:29.999Z</time></trkpt><trkpt lat="45.60343668013104" lon="8.528242336219611"><ele>234.33333333333331</ele><time>2026-04-06T14:46:30.999Z</time></trkpt><trkpt lat="45.60328031153851" lon="8.528475841813028"><ele>234.0</ele><time>2026-04-06T14:46:31.999Z</time></trkpt><trkpt lat="45.60312189879679" lon="8.528718196500712"><ele>233.5</ele><time>2026-04-06T14:46:32.999Z</time></trkpt><trkpt lat="45.602967465219066" lon="8.528963183713746"><ele>233.0</ele><time>2026-04-06T14:46:33.999Z</time></trkpt><trkpt lat="45.60281635954127" lon="8.529207102619523"><ele>233.0</ele><time>2026-04-06T14:46:34.999Z</time></trkpt><trkpt lat="45.60266500841181" lon="8.529452864795154"><ele>233.0</ele><time>2026-04-06T14:46:35.999Z</time></trkpt><trkpt lat="45.60251376157845" lon="8.529696773246998"><ele>231.5</ele><time>2026-04-06T14:46:36.999Z</time></trkpt><trkpt lat="45.602360949928524" lon="8.529945557118111"><ele>230.0</ele><time>2026-04-06T14:46:37.999Z</time></trkpt><trkpt lat="45.60220774715988" lon="8.530194191542217"><ele>230.0</ele><time>2026-04-06T14:46:38.999Z</time></trkpt><trkpt lat="45.602055563673886" lon="8.530446295672169"><ele>230.0</ele><time>2026-04-06T14:46:39.999Z</time></trkpt><trkpt lat="45.60190522710176" lon="8.530696369190112"><ele>231.0</ele><time>2026-04-06T14:46:40.999Z</time></trkpt><trkpt lat="45.601759126148195" lon="8.530942750372057"><ele>232.0</ele><time>2026-04-06T14:46:41.999Z</time></trkpt><trkpt lat="45.60161555778312" lon="8.531188543728732"><ele>232.0</ele><time>2026-04-06T14:46:42.999Z</time></trkpt><trkpt lat="45.60147037735857" lon="8.53143115050142"><ele>232.0</ele><time>2026-04-06T14:46:43.999Z</time></trkpt><trkpt lat="45.601326656802875" lon="8.531671403405376"><ele>232.0</ele><time>2026-04-06T14:46:44.999Z</time></trkpt><trkpt lat="45.60118600138063" lon="8.531903811511333"><ele>231.33333333333331</ele><time>2026-04-06T14:46:45.999Z</time></trkpt><trkpt lat="45.60103767418721" lon="8.532133840106667"><ele>230.66666666666669</ele><time>2026-04-06T14:46:46.999Z</time></trkpt><trkpt lat="45.60088634500781" lon="8.532344399963353"><ele>230.0</ele><time>2026-04-06T14:46:47.999Z</time></trkpt><trkpt lat="45.60072043123579" lon="8.532548139028338"><ele>230.0</ele><time>2026-04-06T14:46:48.999Z</time></trkpt><trkpt lat="45.600539946887935" lon="8.532729296875555"><ele>230.0</ele><time>2026-04-06T14:46:49.999Z</time></trkpt><trkpt lat="45.600345029631725" lon="8.532899570268052"><ele>230.0</ele><time>2026-04-06T14:46:50.999Z</time></trkpt><trkpt lat="45.600145176477476" lon="8.533072707354616"><ele>230.0</ele><time>2026-04-06T14:46:51.999Z</time></trkpt><trkpt lat="45.599944224854525" lon="8.533232749713157"><ele>230.0</ele><time>2026-04-06T14:46:52.999Z</time></trkpt><trkpt lat="45.59975072969036" lon="8.533388042183738"><ele>230.0</ele><time>2026-04-06T14:46:53.999Z</time></trkpt><trkpt lat="45.59955685660442" lon="8.533543715082377"><ele>230.0</ele><time>2026-04-06T14:46:54.999Z</time></trkpt><trkpt lat="45.599371992501716" lon="8.533698895706676"><ele>230.0</ele><time>2026-04-06T14:46:55.999Z</time></trkpt><trkpt lat="45.599190994839674" lon="8.533856160304211"><ele>229.66666666666669</ele><time>2026-04-06T14:46:56.999Z</time></trkpt><trkpt lat="45.59901559296974" lon="8.534022487258218"><ele>229.33333333333331</ele><time>2026-04-06T14:46:57.999Z</time></trkpt><trkpt lat="45.5988466581186" lon="8.534205672235586"><ele>229.0</ele><time>2026-04-06T14:46:58.999Z</time></trkpt><trkpt lat="45.598685450811026" lon="8.534404485075783"><ele>229.0</ele><time>2026-04-06T14:46:59.999Z</time></trkpt><trkpt lat="45.5985266768912" lon="8.534613662552834"><ele>229.0</ele><time>2026-04-06T14:47:00.999Z</time></trkpt><trkpt lat="45.5983682007045" lon="8.534825530833572"><ele>229.0</ele><time>2026-04-06T14:47:01.999Z</time></trkpt><trkpt lat="45.59821328712626" lon="8.535038941294523"><ele>229.0</ele><time>2026-04-06T14:47:02.999Z</time></trkpt><trkpt lat="45.59805966977268" lon="8.53525834740818"><ele>229.0</ele><time>2026-04-06T14:47:03.999Z</time></trkpt><trkpt lat="45.59791385834093" lon="8.535475558983807"><ele>229.0</ele><time>2026-04-06T14:47:04.999Z</time></trkpt><trkpt lat="45.59776837705362" lon="8.535689426629714"><ele>229.0</ele><time>2026-04-06T14:47:05.999Z</time></trkpt><trkpt lat="45.59762846792349" lon="8.535898305598137"><ele>229.0</ele><time>2026-04-06T14:47:06.999Z</time></trkpt><trkpt lat="45.59748956136603" lon="8.536107612572039"><ele>229.0</ele><time>2026-04-06T14:47:07.999Z</time></trkpt><trkpt lat="45.597349511233176" lon="8.536314290222535"><ele>229.0</ele><time>2026-04-06T14:47:08.999Z</time></trkpt><trkpt lat="45.59720901783785" lon="8.536511912710756"><ele>229.0</ele><time>2026-04-06T14:47:09.999Z</time></trkpt><trkpt lat="45.59706582437002" lon="8.536695368809507"><ele>229.0</ele><time>2026-04-06T14:47:10.999Z</time></trkpt><trkpt lat="45.59690677162217" lon="8.536856194026957"><ele>229.0</ele><time>2026-04-06T14:47:11.999Z</time></trkpt><trkpt lat="45.59671746456887" lon="8.53698442079708"><ele>229.0</ele><time>2026-04-06T14:47:12.999Z</time></trkpt><trkpt lat="45.596502989597695" lon="8.537092500692614"><ele>229.0</ele><time>2026-04-06T14:47:13.999Z</time></trkpt><trkpt lat="45.596279771315814" lon="8.53720763353406"><ele>228.33333333333331</ele><time>2026-04-06T14:47:14.999Z</time></trkpt><trkpt lat="45.59606793942242" lon="8.537307032409075"><ele>227.66666666666669</ele><time>2026-04-06T14:47:15.999Z</time></trkpt><trkpt lat="45.59586932141902" lon="8.5373999255208"><ele>227.0</ele><time>2026-04-06T14:47:16.999Z</time></trkpt><trkpt lat="45.595675190204915" lon="8.537490358762719"><ele>227.0</ele><time>2026-04-06T14:47:17.999Z</time></trkpt><trkpt lat="45.595482096253996" lon="8.537578493726887"><ele>227.0</ele><time>2026-04-06T14:47:18.999Z</time></trkpt><trkpt lat="45.59529714562674" lon="8.53767185481262"><ele>227.0</ele><time>2026-04-06T14:47:19.999Z</time></trkpt><trkpt lat="45.59511229192056" lon="8.537770097078093"><ele>227.0</ele><time>2026-04-06T14:47:20.999Z</time></trkpt><trkpt lat="45.59493314294215" lon="8.537873977981096"><ele>227.0</ele><time>2026-04-06T14:47:21.999Z</time></trkpt><trkpt lat="45.59474303819889" lon="8.537994718613827"><ele>227.0</ele><time>2026-04-06T14:47:22.999Z</time></trkpt><trkpt lat="45.594533797088424" lon="8.538134443315657"><ele>226.66666666666669</ele><time>2026-04-06T14:47:23.999Z</time></trkpt><trkpt lat="45.594334347820634" lon="8.538258611602444"><ele>226.33333333333331</ele><time>2026-04-06T14:47:24.999Z</time></trkpt><trkpt lat="45.59414302933886" lon="8.538385690006175"><ele>226.0</ele><time>2026-04-06T14:47:25.999Z</time></trkpt><trkpt lat="45.59395016532706" lon="8.53854376210073"><ele>226.0</ele><time>2026-04-06T14:47:26.999Z</time></trkpt><trkpt lat="45.59375445792206" lon="8.538736281479444"><ele>226.0</ele><time>2026-04-06T14:47:27.999Z</time></trkpt><trkpt lat="45.59356035484269" lon="8.538958130514782"><ele>226.0</ele><time>2026-04-06T14:47:28.999Z</time></trkpt><trkpt lat="45.59336903850069" lon="8.53917838408246"><ele>226.0</ele><time>2026-04-06T14:47:29.999Z</time></trkpt><trkpt lat="45.59319181131075" lon="8.539377365227947"><ele>225.66666666666666</ele><time>2026-04-06T14:47:30.999Z</time></trkpt><trkpt lat="45.59301681581823" lon="8.539569173782464"><ele>225.33333333333331</ele><time>2026-04-06T14:47:31.999Z</time></trkpt><trkpt lat="45.59285053817497" lon="8.539761228776388"><ele>225.0</ele><time>2026-04-06T14:47:32.999Z</time></trkpt><trkpt lat="45.592687188516024" lon="8.539950688091716"><ele>224.0</ele><time>2026-04-06T14:47:33.999Z</time></trkpt><trkpt lat="45.592526772082124" lon="8.540128539341284"><ele>223.0</ele><time>2026-04-06T14:47:34.999Z</time></trkpt><trkpt lat="45.592365539873335" lon="8.540300416868046"><ele>222.0</ele><time>2026-04-06T14:47:35.999Z</time></trkpt><trkpt lat="45.59220491766304" lon="8.540475246734749"><ele>222.0</ele><time>2026-04-06T14:47:36.999Z</time></trkpt><trkpt lat="45.59204678030315" lon="8.540654878516078"><ele>222.0</ele><time>2026-04-06T14:47:37.999Z</time></trkpt><trkpt lat="45.591892551735505" lon="8.540831618119348"><ele>222.0</ele><time>2026-04-06T14:47:38.999Z</time></trkpt><trkpt lat="45.59173949041398" lon="8.541005054486972"><ele>222.33333333333331</ele><time>2026-04-06T14:47:39.999Z</time></trkpt><trkpt lat="45.591588129343094" lon="8.541177332474193"><ele>222.66666666666666</ele><time>2026-04-06T14:47:40.999Z</time></trkpt><trkpt lat="45.591433025754476" lon="8.54135328062498"><ele>223.0</ele><time>2026-04-06T14:47:41.999Z</time></trkpt><trkpt lat="45.59127525175173" lon="8.541526271610238"><ele>223.0</ele><time>2026-04-06T14:47:42.999Z</time></trkpt><trkpt lat="45.59111234573607" lon="8.541704744978373"><ele>223.0</ele><time>2026-04-06T14:47:43.999Z</time></trkpt><trkpt lat="45.5909527204423" lon="8.54188339812918"><ele>223.0</ele><time>2026-04-06T14:47:44.999Z</time></trkpt><trkpt lat="45.590791055985434" lon="8.542064025032275"><ele>222.66666666666666</ele><time>2026-04-06T14:47:45.999Z</time></trkpt><trkpt lat="45.59063291631937" lon="8.542244071294375"><ele>222.33333333333331</ele><time>2026-04-06T14:47:46.999Z</time></trkpt><trkpt lat="45.59047293926893" lon="8.542420175775517"><ele>222.0</ele><time>2026-04-06T14:47:47.999Z</time></trkpt><trkpt lat="45.5903115534744" lon="8.542600556198416"><ele>222.0</ele><time>2026-04-06T14:47:48.999Z</time></trkpt><trkpt lat="45.59014745684261" lon="8.54278505090983"><ele>222.0</ele><time>2026-04-06T14:47:49.999Z</time></trkpt><trkpt lat="45.5899839669355" lon="8.542969419405013"><ele>222.0</ele><time>2026-04-06T14:47:50.999Z</time></trkpt><trkpt lat="45.58982016849866" lon="8.543153960671932"><ele>222.0</ele><time>2026-04-06T14:47:51.999Z</time></trkpt><trkpt lat="45.58965916275494" lon="8.543332983383658"><ele>222.0</ele><time>2026-04-06T14:47:52.999Z</time></trkpt><trkpt lat="45.58950182777559" lon="8.543511998506746"><ele>222.0</ele><time>2026-04-06T14:47:53.999Z</time></trkpt><trkpt lat="45.58935377072739" lon="8.543683173757012"><ele>222.33333333333331</ele><time>2026-04-06T14:47:54.999Z</time></trkpt><trkpt lat="45.589208235825346" lon="8.543843805861574"><ele>222.66666666666666</ele><time>2026-04-06T14:47:55.999Z</time></trkpt><trkpt lat="45.58906651946455" lon="8.54399700386404"><ele>223.0</ele><time>2026-04-06T14:47:56.999Z</time></trkpt><trkpt lat="45.58892571636303" lon="8.544143238600084"><ele>223.0</ele><time>2026-04-06T14:47:57.999Z</time></trkpt><trkpt lat="45.588777819057164" lon="8.544278568095443"><ele>223.0</ele><time>2026-04-06T14:47:58.999Z</time></trkpt><trkpt lat="45.588610727453876" lon="8.544394616213374"><ele>223.0</ele><time>2026-04-06T14:47:59.999Z</time></trkpt><trkpt lat="45.5884370922563" lon="8.544511252436976"><ele>223.0</ele><time>2026-04-06T14:48:00.999Z</time></trkpt><trkpt lat="45.588270495608036" lon="8.544640176412154"><ele>223.0</ele><time>2026-04-06T14:48:01.999Z</time></trkpt><trkpt lat="45.588096063078375" lon="8.544772647053971"><ele>223.0</ele><time>2026-04-06T14:48:02.999Z</time></trkpt><trkpt lat="45.587921721835755" lon="8.544900448524878"><ele>223.66666666666666</ele><time>2026-04-06T14:48:03.999Z</time></trkpt><trkpt lat="45.58775144292226" lon="8.54502024952949"><ele>224.33333333333331</ele><time>2026-04-06T14:48:04.999Z</time></trkpt><trkpt lat="45.58758199604545" lon="8.545141817371798"><ele>225.0</ele><time>2026-04-06T14:48:05.999Z</time></trkpt><trkpt lat="45.58741526324637" lon="8.545271373377997"><ele>224.33333333333331</ele><time>2026-04-06T14:48:06.999Z</time></trkpt><trkpt lat="45.58724994488236" lon="8.545401878932589"><ele>223.66666666666666</ele><time>2026-04-06T14:48:07.999Z</time></trkpt><trkpt lat="45.58708245809132" lon="8.545533456061627"><ele>223.0</ele><time>2026-04-06T14:48:08.999Z</time></trkpt><trkpt lat="45.58691790896557" lon="8.545670236447783"><ele>222.33333333333331</ele><time>2026-04-06T14:48:09.999Z</time></trkpt><trkpt lat="45.58675228307642" lon="8.545817077858677"><ele>221.66666666666669</ele><time>2026-04-06T14:48:10.999Z</time></trkpt><trkpt lat="45.586585837515074" lon="8.54597518837852"><ele>221.0</ele><time>2026-04-06T14:48:11.999Z</time></trkpt><trkpt lat="45.58641846441518" lon="8.546145866469077"><ele>221.0</ele><time>2026-04-06T14:48:12.999Z</time></trkpt><trkpt lat="45.58624853312619" lon="8.546325412006327"><ele>221.0</ele><time>2026-04-06T14:48:13.999Z</time></trkpt><trkpt lat="45.586084773875115" lon="8.546502109482391"><ele>221.0</ele><time>2026-04-06T14:48:14.999Z</time></trkpt><trkpt lat="45.58592289775248" lon="8.546670757442289"><ele>220.66666666666669</ele><time>2026-04-06T14:48:15.999Z</time></trkpt><trkpt lat="45.58575931720183" lon="8.546840838528434"><ele>220.33333333333331</ele><time>2026-04-06T14:48:16.999Z</time></trkpt><trkpt lat="45.58559493576549" lon="8.547013805077713"><ele>220.0</ele><time>2026-04-06T14:48:17.999Z</time></trkpt><trkpt lat="45.58543221576792" lon="8.547181799184445"><ele>220.33333333333331</ele><time>2026-04-06T14:48:18.999Z</time></trkpt><trkpt lat="45.58526859175326" lon="8.547345167480115"><ele>220.66666666666669</ele><time>2026-04-06T14:48:19.999Z</time></trkpt><trkpt lat="45.58510894806488" lon="8.54749858619221"><ele>221.0</ele><time>2026-04-06T14:48:20.999Z</time></trkpt><trkpt lat="45.584948775003745" lon="8.547649551388341"><ele>221.0</ele><time>2026-04-06T14:48:21.999Z</time></trkpt><trkpt lat="45.5847876611693" lon="8.54779550272504"><ele>221.0</ele><time>2026-04-06T14:48:22.999Z</time></trkpt><trkpt lat="45.58462889616375" lon="8.547937985269831"><ele>221.0</ele><time>2026-04-06T14:48:23.999Z</time></trkpt><trkpt lat="45.58446834665459" lon="8.548084415457161"><ele>220.33333333333334</ele><time>2026-04-06T14:48:24.999Z</time></trkpt><trkpt lat="45.58430612537494" lon="8.548228484836823"><ele>219.66666666666669</ele><time>2026-04-06T14:48:26Z</time></trkpt><trkpt lat="45.58414523412997" lon="8.548365119428368"><ele>219.0</ele><time>2026-04-06T14:48:27Z</time></trkpt><trkpt lat="45.58398467770313" lon="8.548491894200847"><ele>219.0</ele><time>2026-04-06T14:48:28Z</time></trkpt><trkpt lat="45.583824383896854" lon="8.548614793771616"><ele>219.0</ele><time>2026-04-06T14:48:29Z</time></trkpt><trkpt lat="45.583656597725785" lon="8.548746825387807"><ele>219.0</ele><time>2026-04-06T14:48:30Z</time></trkpt><trkpt lat="45.58348673309543" lon="8.548886899215539"><ele>219.33333333333331</ele><time>2026-04-06T14:48:31Z</time></trkpt><trkpt lat="45.58332047360383" lon="8.549031987028448"><ele>219.66666666666666</ele><time>2026-04-06T14:48:31.999Z</time></trkpt><trkpt lat="45.58315685162002" lon="8.549181693659108"><ele>220.0</ele><time>2026-04-06T14:48:32.999Z</time></trkpt><trkpt lat="45.582994167461976" lon="8.549334076979003"><ele>220.0</ele><time>2026-04-06T14:48:33.999Z</time></trkpt><trkpt lat="45.58283307631269" lon="8.549486929350257"><ele>220.0</ele><time>2026-04-06T14:48:34.999Z</time></trkpt><trkpt lat="45.58268048882679" lon="8.549636844235465"><ele>220.0</ele><time>2026-04-06T14:48:35.999Z</time></trkpt><trkpt lat="45.5825355557508" lon="8.549786121739398"><ele>219.66666666666666</ele><time>2026-04-06T14:48:36.999Z</time></trkpt><trkpt lat="45.58239267433544" lon="8.549929338469845"><ele>219.33333333333331</ele><time>2026-04-06T14:48:37.999Z</time></trkpt><trkpt lat="45.58224939089554" lon="8.550068963243007"><ele>219.0</ele><time>2026-04-06T14:48:38.999Z</time></trkpt><trkpt lat="45.58211329640814" lon="8.550196904911084"><ele>218.66666666666669</ele><time>2026-04-06T14:48:39.999Z</time></trkpt><trkpt lat="45.58198178566022" lon="8.550319394252876"><ele>218.33333333333334</ele><time>2026-04-06T14:48:40.999Z</time></trkpt><trkpt lat="45.58185315947508" lon="8.550436750734875"><ele>218.0</ele><time>2026-04-06T14:48:41.999Z</time></trkpt><trkpt lat="45.5817202222223" lon="8.550553483306297"><ele>218.0</ele><time>2026-04-06T14:48:42.999Z</time></trkpt><trkpt lat="45.58158845570228" lon="8.550663260803757"><ele>218.0</ele><time>2026-04-06T14:48:43.999Z</time></trkpt><trkpt lat="45.581455701100424" lon="8.55077349508651"><ele>218.0</ele><time>2026-04-06T14:48:44.999Z</time></trkpt><trkpt lat="45.581327541681084" lon="8.55088071312759"><ele>218.0</ele><time>2026-04-06T14:48:45.999Z</time></trkpt><trkpt lat="45.58120138425986" lon="8.550984617767066"><ele>218.0</ele><time>2026-04-06T14:48:46.999Z</time></trkpt><trkpt lat="45.581072882385435" lon="8.55109185677954"><ele>218.0</ele><time>2026-04-06T14:48:47.999Z</time></trkpt><trkpt lat="45.58094034666792" lon="8.551197614738985"><ele>218.0</ele><time>2026-04-06T14:48:48.999Z</time></trkpt><trkpt lat="45.5808095765557" lon="8.55129006208431"><ele>217.75</ele><time>2026-04-06T14:48:49.999Z</time></trkpt><trkpt lat="45.580684749752265" lon="8.551375792202288"><ele>217.5</ele><time>2026-04-06T14:48:50.999Z</time></trkpt><trkpt lat="45.580563338502145" lon="8.55145382888194"><ele>217.25</ele><time>2026-04-06T14:48:51.999Z</time></trkpt><trkpt lat="45.58044721148504" lon="8.551530576937873"><ele>217.0</ele><time>2026-04-06T14:48:52.999Z</time></trkpt><trkpt lat="45.58033201062234" lon="8.551606818109878"><ele>217.0</ele><time>2026-04-06T14:48:53.999Z</time></trkpt><trkpt lat="45.580213413982776" lon="8.551687410713606"><ele>217.0</ele><time>2026-04-06T14:48:54.999Z</time></trkpt><trkpt lat="45.580096117739444" lon="8.551771908290496"><ele>217.0</ele><time>2026-04-06T14:48:55.999Z</time></trkpt><trkpt lat="45.57997932189157" lon="8.55185990915619"><ele>217.0</ele><time>2026-04-06T14:48:56.999Z</time></trkpt><trkpt lat="45.57986260089439" lon="8.551949685938094"><ele>217.0</ele><time>2026-04-06T14:48:57.999Z</time></trkpt><trkpt lat="45.57974728958961" lon="8.552037920988935"><ele>217.0</ele><time>2026-04-06T14:48:58.999Z</time></trkpt><trkpt lat="45.579631094214236" lon="8.552128121158846"><ele>217.0</ele><time>2026-04-06T14:48:59.999Z</time></trkpt><trkpt lat="45.57952090475134" lon="8.552214317906788"><ele>217.0</ele><time>2026-04-06T14:49:00.999Z</time></trkpt><trkpt lat="45.57941095190345" lon="8.552302420509474"><ele>217.25</ele><time>2026-04-06T14:49:01.999Z</time></trkpt><trkpt lat="45.57930520272292" lon="8.552387634489584"><ele>217.5</ele><time>2026-04-06T14:49:02.999Z</time></trkpt><trkpt lat="45.579206390421966" lon="8.552476699445707"><ele>217.75</ele><time>2026-04-06T14:49:03.999Z</time></trkpt><trkpt lat="45.57910937825517" lon="8.552565314577587"><ele>218.0</ele><time>2026-04-06T14:49:04.999Z</time></trkpt><trkpt lat="45.579006469672755" lon="8.552653393009239"><ele>218.0</ele><time>2026-04-06T14:49:05.999Z</time></trkpt><trkpt lat="45.57890122691362" lon="8.5527460297016"><ele>218.0</ele><time>2026-04-06T14:49:06.999Z</time></trkpt><trkpt lat="45.57879878980972" lon="8.552838385614594"><ele>218.0</ele><time>2026-04-06T14:49:07.999Z</time></trkpt><trkpt lat="45.57869598830922" lon="8.552929854766573"><ele>218.0</ele><time>2026-04-06T14:49:08.999Z</time></trkpt><trkpt lat="45.57859693812657" lon="8.553018353177999"><ele>218.0</ele><time>2026-04-06T14:49:09.999Z</time></trkpt><trkpt lat="45.57850264045944" lon="8.553099998470097"><ele>218.0</ele><time>2026-04-06T14:49:10.999Z</time></trkpt><trkpt lat="45.57841590292551" lon="8.553175924122367"><ele>218.0</ele><time>2026-04-06T14:49:11.999Z</time></trkpt><trkpt lat="45.57833199071243" lon="8.553251021859891"><ele>218.0</ele><time>2026-04-06T14:49:12.999Z</time></trkpt><trkpt lat="45.57824515559895" lon="8.553326389704955"><ele>218.0</ele><time>2026-04-06T14:49:13.999Z</time></trkpt><trkpt lat="45.578152989949494" lon="8.553398838141181"><ele>218.0</ele><time>2026-04-06T14:49:14.999Z</time></trkpt><trkpt lat="45.57805412417152" lon="8.553474302108706"><ele>218.0</ele><time>2026-04-06T14:49:15.999Z</time></trkpt><trkpt lat="45.57794914408662" lon="8.553553918108726"><ele>218.0</ele><time>2026-04-06T14:49:16.999Z</time></trkpt><trkpt lat="45.57783726488242" lon="8.55363896059326"><ele>218.0</ele><time>2026-04-06T14:49:17.999Z</time></trkpt><trkpt lat="45.577711074759115" lon="8.553728815155571"><ele>217.25</ele><time>2026-04-06T14:49:18.999Z</time></trkpt><trkpt lat="45.57758246979266" lon="8.553802609914076"><ele>216.5</ele><time>2026-04-06T14:49:19.999Z</time></trkpt><trkpt lat="45.57744790473829" lon="8.553866330422204"><ele>215.75</ele><time>2026-04-06T14:49:20.999Z</time></trkpt><trkpt lat="45.57731366205078" lon="8.553921497362017"><ele>215.0</ele><time>2026-04-06T14:49:21.999Z</time></trkpt><trkpt lat="45.57718669794922" lon="8.553972856572933"><ele>215.0</ele><time>2026-04-06T14:49:22.999Z</time></trkpt><trkpt lat="45.577060958500816" lon="8.554028256880615"><ele>215.0</ele><time>2026-04-06T14:49:23.999Z</time></trkpt><trkpt lat="45.576934805083" lon="8.554085027278534"><ele>215.0</ele><time>2026-04-06T14:49:24.999Z</time></trkpt><trkpt lat="45.576813276881055" lon="8.554140256125018"><ele>215.0</ele><time>2026-04-06T14:49:25.999Z</time></trkpt><trkpt lat="45.576691598589306" lon="8.554193686356225"><ele>215.25</ele><time>2026-04-06T14:49:26.999Z</time></trkpt><trkpt lat="45.57657364524773" lon="8.554244269975568"><ele>215.5</ele><time>2026-04-06T14:49:27.999Z</time></trkpt><trkpt lat="45.57646043728829" lon="8.554291509893089"><ele>215.75</ele><time>2026-04-06T14:49:28.999Z</time></trkpt><trkpt lat="45.576343954828026" lon="8.554340836379712"><ele>216.0</ele><time>2026-04-06T14:49:29.999Z</time></trkpt><trkpt lat="45.57623187589321" lon="8.554389820670117"><ele>216.0</ele><time>2026-04-06T14:49:30.999Z</time></trkpt><trkpt lat="45.57612713527233" lon="8.554436778501161"><ele>216.00000000000003</ele><time>2026-04-06T14:49:31.999Z</time></trkpt><trkpt lat="45.57602198162777" lon="8.55448754463747"><ele>216.00000000000003</ele><time>2026-04-06T14:49:32.999Z</time></trkpt><trkpt lat="45.57591988240887" lon="8.554545957129037"><ele>216.0</ele><time>2026-04-06T14:49:33.999Z</time></trkpt><trkpt lat="45.575827252573596" lon="8.554609178666373"><ele>216.0</ele><time>2026-04-06T14:49:34.999Z</time></trkpt><trkpt lat="45.575740763397896" lon="8.554675777629011"><ele>215.83333333333334</ele><time>2026-04-06T14:49:35.999Z</time></trkpt><trkpt lat="45.57565434475395" lon="8.554738507883798"><ele>215.66666666666669</ele><time>2026-04-06T14:49:36.999Z</time></trkpt><trkpt lat="45.57557196653371" lon="8.554797852065901"><ele>215.5</ele><time>2026-04-06T14:49:37.999Z</time></trkpt><trkpt lat="45.57549906578084" lon="8.55484810826242"><ele>215.33333333333334</ele><time>2026-04-06T14:49:38.999Z</time></trkpt><trkpt lat="45.575427134004165" lon="8.554897053864831"><ele>215.16666666666669</ele><time>2026-04-06T14:49:39.999Z</time></trkpt><trkpt lat="45.575357483890556" lon="8.554943419111309"><ele>215.0</ele><time>2026-04-06T14:49:40.999Z</time></trkpt><trkpt lat="45.5752917599264" lon="8.554988917582218"><ele>215.00000000000003</ele><time>2026-04-06T14:49:41.999Z</time></trkpt><trkpt lat="45.57523423665058" lon="8.555038364955342"><ele>215.0</ele><time>2026-04-06T14:49:42.999Z</time></trkpt><trkpt lat="45.575170778090055" lon="8.55506570755214"><ele>215.0</ele><time>2026-04-06T14:49:43.999Z</time></trkpt><trkpt lat="45.57506016253445" lon="8.555142024220315"><ele>215.0</ele><time>2026-04-06T14:49:45.999Z</time></trkpt><trkpt lat="45.574982074536685" lon="8.555220034020753"><ele>215.00000000000003</ele><time>2026-04-06T14:49:47.999Z</time></trkpt><trkpt lat="45.57491330739686" lon="8.555265128522931"><ele>215.0</ele><time>2026-04-06T14:49:49.999Z</time></trkpt><trkpt lat="45.574853264253804" lon="8.555304236214992"><ele>215.00000000000003</ele><time>2026-04-06T14:49:50.999Z</time></trkpt><trkpt lat="45.57477708050021" lon="8.555347893371467"><ele>215.0</ele><time>2026-04-06T14:49:51.999Z</time></trkpt><trkpt lat="45.574712579429736" lon="8.555387802846003"><ele>215.0</ele><time>2026-04-06T14:49:52.999Z</time></trkpt><trkpt lat="45.574649242140495" lon="8.555430198811504"><ele>215.0</ele><time>2026-04-06T14:49:53.999Z</time></trkpt><trkpt lat="45.574578193887014" lon="8.555481213915726"><ele>215.00000000000003</ele><time>2026-04-06T14:49:54.999Z</time></trkpt><trkpt lat="45.574509425536" lon="8.55553158764234"><ele>215.0</ele><time>2026-04-06T14:49:55.999Z</time></trkpt><trkpt lat="45.57444071104501" lon="8.55557950501591"><ele>214.83333333333334</ele><time>2026-04-06T14:49:56.999Z</time></trkpt><trkpt lat="45.57437296031309" lon="8.555624951126877"><ele>214.66666666666669</ele><time>2026-04-06T14:49:57.999Z</time></trkpt><trkpt lat="45.57430438732702" lon="8.555668948779287"><ele>214.5</ele><time>2026-04-06T14:49:58.999Z</time></trkpt><trkpt lat="45.57423672551179" lon="8.55570741012619"><ele>214.33333333333331</ele><time>2026-04-06T14:49:59.999Z</time></trkpt><trkpt lat="45.57417618235634" lon="8.555737272018503"><ele>214.16666666666666</ele><time>2026-04-06T14:50:00.999Z</time></trkpt><trkpt lat="45.57410643542445" lon="8.55576870581669"><ele>214.0</ele><time>2026-04-06T14:50:02.999Z</time></trkpt><trkpt lat="45.5740040625651" lon="8.555812062415885"><ele>214.0</ele><time>2026-04-06T14:50:47Z</time></trkpt><trkpt lat="45.57392327517392" lon="8.555846654764984"><ele>213.99999999999997</ele><time>2026-04-06T14:50:48Z</time></trkpt><trkpt lat="45.57384246963795" lon="8.555883951022857"><ele>213.99999999999997</ele><time>2026-04-06T14:50:49Z</time></trkpt><trkpt lat="45.57376115412653" lon="8.555920513709049"><ele>214.0</ele><time>2026-04-06T14:50:50Z</time></trkpt><trkpt lat="45.573668517847246" lon="8.555963117238914"><ele>214.0</ele><time>2026-04-06T14:50:51Z</time></trkpt><trkpt lat="45.573570825198246" lon="8.55601393379331"><ele>214.0</ele><time>2026-04-06T14:50:52Z</time></trkpt><trkpt lat="45.57347444417533" lon="8.556069424469271"><ele>213.99999999999997</ele><time>2026-04-06T14:50:53Z</time></trkpt><trkpt lat="45.573388546554206" lon="8.556146667421071"><ele>213.99999999999997</ele><time>2026-04-06T14:50:54Z</time></trkpt><trkpt lat="45.573310517653965" lon="8.556224729364162"><ele>214.0</ele><time>2026-04-06T14:50:55Z</time></trkpt><trkpt lat="45.57323235148226" lon="8.556293121009766"><ele>214.0</ele><time>2026-04-06T14:50:56Z</time></trkpt><trkpt lat="45.57315543368383" lon="8.55635385239721"><ele>213.99999999999997</ele><time>2026-04-06T14:50:57Z</time></trkpt><trkpt lat="45.57307893659653" lon="8.556419211406071"><ele>214.0</ele><time>2026-04-06T14:50:58Z</time></trkpt><trkpt lat="45.5730092895462" lon="8.556482521232724"><ele>214.0</ele><time>2026-04-06T14:50:59Z</time></trkpt><trkpt lat="45.57294135985341" lon="8.556543706421017"><ele>214.0</ele><time>2026-04-06T14:51:00Z</time></trkpt><trkpt lat="45.57287220842573" lon="8.556604676167746"><ele>213.99999999999997</ele><time>2026-04-06T14:51:01Z</time></trkpt><trkpt lat="45.572806651740635" lon="8.556660353975344"><ele>214.0</ele><time>2026-04-06T14:51:01.999Z</time></trkpt><trkpt lat="45.5727329137746" lon="8.556719972368228"><ele>213.75</ele><time>2026-04-06T14:51:02.999Z</time></trkpt><trkpt lat="45.57264857878087" lon="8.556794086311314"><ele>213.5</ele><time>2026-04-06T14:51:03.999Z</time></trkpt><trkpt lat="45.57255661701229" lon="8.5568783334685"><ele>213.25</ele><time>2026-04-06T14:51:04.999Z</time></trkpt><trkpt lat="45.57245441248421" lon="8.556967066524052"><ele>213.0</ele><time>2026-04-06T14:51:05.999Z</time></trkpt><trkpt lat="45.57234196890967" lon="8.557053388015953"><ele>212.75</ele><time>2026-04-06T14:51:06.999Z</time></trkpt><trkpt lat="45.572232992619355" lon="8.557129654720528"><ele>212.5</ele><time>2026-04-06T14:51:07.999Z</time></trkpt><trkpt lat="45.57212014105023" lon="8.55720269188063"><ele>212.25</ele><time>2026-04-06T14:51:08.999Z</time></trkpt><trkpt lat="45.572009230761864" lon="8.557267747300036"><ele>212.0</ele><time>2026-04-06T14:51:09.999Z</time></trkpt><trkpt lat="45.57189898666422" lon="8.557337814607635"><ele>212.0</ele><time>2026-04-06T14:51:10.999Z</time></trkpt><trkpt lat="45.57178947622834" lon="8.557402586753247"><ele>212.0</ele><time>2026-04-06T14:51:11.999Z</time></trkpt><trkpt lat="45.57168363606821" lon="8.557462291306209"><ele>212.0</ele><time>2026-04-06T14:51:12.999Z</time></trkpt><trkpt lat="45.57157796827155" lon="8.557523343516827"><ele>212.0</ele><time>2026-04-06T14:51:13.999Z</time></trkpt><trkpt lat="45.57148458330955" lon="8.557578656797222"><ele>212.0</ele><time>2026-04-06T14:51:14.999Z</time></trkpt><trkpt lat="45.57140864860671" lon="8.557617782582904"><ele>212.0</ele><time>2026-04-06T14:51:15.999Z</time></trkpt><trkpt lat="45.57130139421352" lon="8.55765613104107"><ele>212.0</ele><time>2026-04-06T14:51:17.999Z</time></trkpt><trkpt lat="45.57123870522487" lon="8.557716750596565"><ele>212.0</ele><time>2026-04-06T14:52:17.999Z</time></trkpt><trkpt lat="45.57112972301607" lon="8.55780110518147"><ele>212.0</ele><time>2026-04-06T14:52:19.999Z</time></trkpt><trkpt lat="45.571059885781345" lon="8.557836723853258"><ele>212.0</ele><time>2026-04-06T14:52:21Z</time></trkpt><trkpt lat="45.570994135162515" lon="8.557867675562425"><ele>211.8</ele><time>2026-04-06T14:52:22Z</time></trkpt><trkpt lat="45.570928144957804" lon="8.557899160639375"><ele>211.6</ele><time>2026-04-06T14:52:23Z</time></trkpt><trkpt lat="45.5708664811333" lon="8.55793375591929"><ele>211.4</ele><time>2026-04-06T14:52:24Z</time></trkpt><trkpt lat="45.570755431665624" lon="8.557999124263471"><ele>211.20000000000002</ele><time>2026-04-06T14:52:26Z</time></trkpt><trkpt lat="45.57065240436303" lon="8.558060007206805"><ele>211.0</ele><time>2026-04-06T14:52:28Z</time></trkpt><trkpt lat="45.570555767663734" lon="8.558119855506193"><ele>211.0</ele><time>2026-04-06T14:52:30Z</time></trkpt><trkpt lat="45.570465075427634" lon="8.55817306764012"><ele>211.0</ele><time>2026-04-06T14:52:32Z</time></trkpt><trkpt lat="45.570376311796345" lon="8.558226497642384"><ele>211.0</ele><time>2026-04-06T14:52:34Z</time></trkpt><trkpt lat="45.570286730602426" lon="8.558276566433248"><ele>211.0</ele><time>2026-04-06T14:52:36Z</time></trkpt><trkpt lat="45.57020371291127" lon="8.55832911749003"><ele>211.0</ele><time>2026-04-06T14:52:38Z</time></trkpt><trkpt lat="45.57012273388548" lon="8.55837320027032"><ele>211.16666666666666</ele><time>2026-04-06T14:52:40Z</time></trkpt><trkpt lat="45.570046827810934" lon="8.558420011561427"><ele>211.33333333333331</ele><time>2026-04-06T14:52:42Z</time></trkpt><trkpt lat="45.56997169922112" lon="8.558462620178815"><ele>211.5</ele><time>2026-04-06T14:52:44Z</time></trkpt><trkpt lat="45.56989823718136" lon="8.55850808106429"><ele>211.66666666666669</ele><time>2026-04-06T14:52:46Z</time></trkpt><trkpt lat="45.56982863371135" lon="8.558540645181635"><ele>211.83333333333334</ele><time>2026-04-06T14:52:48Z</time></trkpt><trkpt lat="45.56976724549798" lon="8.558589996057707"><ele>212.0</ele><time>2026-04-06T14:52:50Z</time></trkpt><trkpt lat="45.56968525748252" lon="8.558634285948738"><ele>212.0</ele><time>2026-04-06T14:52:52Z</time></trkpt><trkpt lat="45.569603359423986" lon="8.558690437894052"><ele>212.0</ele><time>2026-04-06T14:52:54Z</time></trkpt><trkpt lat="45.569508718123345" lon="8.558750455786477"><ele>212.0</ele><time>2026-04-06T14:52:55.999Z</time></trkpt><trkpt lat="45.56943716164546" lon="8.558801056273223"><ele>212.0</ele><time>2026-04-06T14:52:56.999Z</time></trkpt><trkpt lat="45.56931776259716" lon="8.558879442431952"><ele>212.0</ele><time>2026-04-06T14:52:57.999Z</time></trkpt><trkpt lat="45.56919362357368" lon="8.558959125134091"><ele>211.66666666666669</ele><time>2026-04-06T14:52:58.999Z</time></trkpt><trkpt lat="45.56906857634115" lon="8.559037795536872"><ele>211.33333333333331</ele><time>2026-04-06T14:52:59.999Z</time></trkpt><trkpt lat="45.56891969829561" lon="8.559129335594955"><ele>211.0</ele><time>2026-04-06T14:53:00.999Z</time></trkpt><trkpt lat="45.56876947446151" lon="8.559217970292586"><ele>210.33333333333331</ele><time>2026-04-06T14:53:01.999Z</time></trkpt><trkpt lat="45.56862933389718" lon="8.559302613081913"><ele>209.66666666666669</ele><time>2026-04-06T14:53:02.999Z</time></trkpt><trkpt lat="45.568467051820235" lon="8.559401694938405"><ele>209.0</ele><time>2026-04-06T14:53:03.999Z</time></trkpt><trkpt lat="45.5683155468517" lon="8.559492577773637"><ele>209.0</ele><time>2026-04-06T14:53:04.999Z</time></trkpt><trkpt lat="45.5681802028238" lon="8.559577110854715"><ele>209.0</ele><time>2026-04-06T14:53:05.999Z</time></trkpt><trkpt lat="45.5680532071516" lon="8.559653476082548"><ele>209.0</ele><time>2026-04-06T14:53:06.999Z</time></trkpt><trkpt lat="45.567927100909124" lon="8.559725720150734"><ele>209.0</ele><time>2026-04-06T14:53:07.999Z</time></trkpt><trkpt lat="45.56779859068491" lon="8.559800242911388"><ele>209.0</ele><time>2026-04-06T14:53:08.999Z</time></trkpt><trkpt lat="45.56766545702277" lon="8.559881344072037"><ele>209.0</ele><time>2026-04-06T14:53:09.999Z</time></trkpt><trkpt lat="45.567528787403695" lon="8.55996505129035"><ele>209.0</ele><time>2026-04-06T14:53:10.999Z</time></trkpt><trkpt lat="45.56739964863057" lon="8.560043315229937"><ele>209.0</ele><time>2026-04-06T14:53:11.999Z</time></trkpt><trkpt lat="45.56727321032223" lon="8.560120967056035"><ele>209.0</ele><time>2026-04-06T14:53:12.999Z</time></trkpt><trkpt lat="45.56713554250191" lon="8.560207572077939"><ele>209.0</ele><time>2026-04-06T14:53:13.999Z</time></trkpt><trkpt lat="45.566997199969705" lon="8.560290121948597"><ele>209.0</ele><time>2026-04-06T14:53:14.999Z</time></trkpt><trkpt lat="45.56686232048992" lon="8.560374257759538"><ele>209.0</ele><time>2026-04-06T14:53:15.999Z</time></trkpt><trkpt lat="45.566730098705975" lon="8.56045272641697"><ele>208.25</ele><time>2026-04-06T14:53:16.999Z</time></trkpt><trkpt lat="45.56660380078333" lon="8.560528422843214"><ele>207.5</ele><time>2026-04-06T14:53:17.999Z</time></trkpt><trkpt lat="45.56648153500572" lon="8.560601490178382"><ele>206.75</ele><time>2026-04-06T14:53:18.999Z</time></trkpt><trkpt lat="45.56635537038072" lon="8.560678161708553"><ele>206.0</ele><time>2026-04-06T14:53:19.999Z</time></trkpt><trkpt lat="45.56623940569915" lon="8.560752474206716"><ele>205.8</ele><time>2026-04-06T14:53:20.999Z</time></trkpt><trkpt lat="45.566128088269025" lon="8.560822811755283"><ele>205.60000000000002</ele><time>2026-04-06T14:53:21.999Z</time></trkpt><trkpt lat="45.566022378824144" lon="8.560885987161893"><ele>205.4</ele><time>2026-04-06T14:53:22.999Z</time></trkpt><trkpt lat="45.56592093816169" lon="8.56093711776586"><ele>205.2</ele><time>2026-04-06T14:53:23.999Z</time></trkpt><trkpt lat="45.56581900984164" lon="8.560968584305366"><ele>205.0</ele><time>2026-04-06T14:53:24.999Z</time></trkpt><trkpt lat="45.56571795475851" lon="8.560970829598023"><ele>205.0</ele><time>2026-04-06T14:53:25.999Z</time></trkpt><trkpt lat="45.56562000292448" lon="8.56098072857852"><ele>205.0</ele><time>2026-04-06T14:53:26.999Z</time></trkpt><trkpt lat="45.56553281075793" lon="8.561022974748738"><ele>205.0</ele><time>2026-04-06T14:53:27.999Z</time></trkpt><trkpt lat="45.56545437421637" lon="8.561100513262353"><ele>205.0</ele><time>2026-04-06T14:53:28.999Z</time></trkpt><trkpt lat="45.565379199559125" lon="8.561209668494497"><ele>205.0</ele><time>2026-04-06T14:53:29.999Z</time></trkpt><trkpt lat="45.56528562284913" lon="8.561321384092096"><ele>205.25</ele><time>2026-04-06T14:53:30.999Z</time></trkpt><trkpt lat="45.56514861672063" lon="8.561409445986495"><ele>205.5</ele><time>2026-04-06T14:53:31.999Z</time></trkpt><trkpt lat="45.565015954822236" lon="8.561489747552578"><ele>205.75</ele><time>2026-04-06T14:53:32.999Z</time></trkpt><trkpt lat="45.5648836174445" lon="8.561570138474107"><ele>206.0</ele><time>2026-04-06T14:53:33.999Z</time></trkpt><trkpt lat="45.56476010962675" lon="8.56164723883823"><ele>206.0</ele><time>2026-04-06T14:53:34.999Z</time></trkpt><trkpt lat="45.56463692264184" lon="8.561722890473806"><ele>206.0</ele><time>2026-04-06T14:53:35.999Z</time></trkpt><trkpt lat="45.56450905703613" lon="8.561797641515994"><ele>206.0</ele><time>2026-04-06T14:53:36.999Z</time></trkpt><trkpt lat="45.56437942889494" lon="8.561875710394377"><ele>206.0</ele><time>2026-04-06T14:53:37.999Z</time></trkpt><trkpt lat="45.56424521298895" lon="8.561958602302411"><ele>205.33333333333334</ele><time>2026-04-06T14:53:38.999Z</time></trkpt><trkpt lat="45.56410961949562" lon="8.562040756348656"><ele>204.66666666666669</ele><time>2026-04-06T14:53:39.999Z</time></trkpt><trkpt lat="45.56397045047518" lon="8.562120769104057"><ele>204.0</ele><time>2026-04-06T14:53:40.999Z</time></trkpt><trkpt lat="45.56382327515696" lon="8.562208155570262"><ele>203.33333333333331</ele><time>2026-04-06T14:53:41.999Z</time></trkpt><trkpt lat="45.56366569008699" lon="8.562308540071578"><ele>202.66666666666666</ele><time>2026-04-06T14:53:42.999Z</time></trkpt><trkpt lat="45.56349481852107" lon="8.562417050752567"><ele>202.0</ele><time>2026-04-06T14:53:43.999Z</time></trkpt><trkpt lat="45.56333280033203" lon="8.562514144191546"><ele>202.0</ele><time>2026-04-06T14:53:44.999Z</time></trkpt><trkpt lat="45.56317447871994" lon="8.562606357117108"><ele>202.0</ele><time>2026-04-06T14:53:45.999Z</time></trkpt><trkpt lat="45.56301085448409" lon="8.562705710784822"><ele>202.0</ele><time>2026-04-06T14:53:46.999Z</time></trkpt><trkpt lat="45.56284833732262" lon="8.562807756186555"><ele>202.0</ele><time>2026-04-06T14:53:47.999Z</time></trkpt><trkpt lat="45.56268658915825" lon="8.562910222348718"><ele>202.0</ele><time>2026-04-06T14:53:48.999Z</time></trkpt><trkpt lat="45.56252351486684" lon="8.563009298721479"><ele>202.0</ele><time>2026-04-06T14:53:49.999Z</time></trkpt><trkpt lat="45.56235820353906" lon="8.563107279393632"><ele>202.0</ele><time>2026-04-06T14:53:50.999Z</time></trkpt><trkpt lat="45.56220033043967" lon="8.563203666994271"><ele>202.0</ele><time>2026-04-06T14:53:51.999Z</time></trkpt><trkpt lat="45.56204019084177" lon="8.563301338158738"><ele>202.0</ele><time>2026-04-06T14:53:52.999Z</time></trkpt><trkpt lat="45.561881962753816" lon="8.56339579513311"><ele>201.66666666666666</ele><time>2026-04-06T14:53:53.999Z</time></trkpt><trkpt lat="45.56172481185446" lon="8.563493162913595"><ele>201.33333333333331</ele><time>2026-04-06T14:53:54.999Z</time></trkpt><trkpt lat="45.56157372349937" lon="8.563586484087066"><ele>201.0</ele><time>2026-04-06T14:53:55.999Z</time></trkpt><trkpt lat="45.561391292135674" lon="8.56369263216767"><ele>201.0</ele><time>2026-04-06T14:53:56.999Z</time></trkpt><trkpt lat="45.56122279070441" lon="8.563795453707112"><ele>201.0</ele><time>2026-04-06T14:53:57.999Z</time></trkpt><trkpt lat="45.56105792203118" lon="8.563896191261561"><ele>201.0</ele><time>2026-04-06T14:53:58.999Z</time></trkpt><trkpt lat="45.56088965873299" lon="8.563993977928892"><ele>201.0</ele><time>2026-04-06T14:53:59.999Z</time></trkpt><trkpt lat="45.560715873962444" lon="8.564093732445157"><ele>201.0</ele><time>2026-04-06T14:54:00.999Z</time></trkpt><trkpt lat="45.56054143752353" lon="8.564194962706313"><ele>201.0</ele><time>2026-04-06T14:54:01.999Z</time></trkpt><trkpt lat="45.56036482419252" lon="8.564303828153454"><ele>201.33333333333331</ele><time>2026-04-06T14:54:02.999Z</time></trkpt><trkpt lat="45.560185089167454" lon="8.564415702523625"><ele>201.66666666666666</ele><time>2026-04-06T14:54:03.999Z</time></trkpt><trkpt lat="45.56000818863704" lon="8.564523208463015"><ele>202.0</ele><time>2026-04-06T14:54:04.999Z</time></trkpt><trkpt lat="45.55983353395056" lon="8.564627029840793"><ele>202.0</ele><time>2026-04-06T14:54:05.999Z</time></trkpt><trkpt lat="45.55967099013841" lon="8.564727486944381"><ele>202.0</ele><time>2026-04-06T14:54:06.999Z</time></trkpt><trkpt lat="45.55950564737043" lon="8.564818935692172"><ele>202.0</ele><time>2026-04-06T14:54:07.999Z</time></trkpt><trkpt lat="45.559341785443266" lon="8.564923743701534"><ele>202.33333333333331</ele><time>2026-04-06T14:54:08.999Z</time></trkpt><trkpt lat="45.55917564244403" lon="8.565025356350494"><ele>202.66666666666669</ele><time>2026-04-06T14:54:09.999Z</time></trkpt><trkpt lat="45.559010325611446" lon="8.565126623488553"><ele>203.0</ele><time>2026-04-06T14:54:10.999Z</time></trkpt><trkpt lat="45.55883821870609" lon="8.56523543845731"><ele>202.66666666666669</ele><time>2026-04-06T14:54:11.999Z</time></trkpt><trkpt lat="45.55866692055277" lon="8.56534289956271"><ele>202.33333333333331</ele><time>2026-04-06T14:54:12.999Z</time></trkpt><trkpt lat="45.55849311807524" lon="8.565454337842938"><ele>202.0</ele><time>2026-04-06T14:54:13.999Z</time></trkpt><trkpt lat="45.558299095166134" lon="8.565572054087081"><ele>201.33333333333331</ele><time>2026-04-06T14:54:14.999Z</time></trkpt><trkpt lat="45.55810138954701" lon="8.565687928802902"><ele>200.66666666666669</ele><time>2026-04-06T14:54:15.999Z</time></trkpt><trkpt lat="45.55791473199324" lon="8.565792511022286"><ele>200.0</ele><time>2026-04-06T14:54:16.999Z</time></trkpt><trkpt lat="45.55773492065607" lon="8.565899365361"><ele>200.0</ele><time>2026-04-06T14:54:17.999Z</time></trkpt><trkpt lat="45.55755783079769" lon="8.566011954005353"><ele>200.0</ele><time>2026-04-06T14:54:18.999Z</time></trkpt><trkpt lat="45.55737901781961" lon="8.56613154974405"><ele>200.0</ele><time>2026-04-06T14:54:19.999Z</time></trkpt><trkpt lat="45.55718855652409" lon="8.566244815707797"><ele>200.33333333333334</ele><time>2026-04-06T14:54:20.999Z</time></trkpt><trkpt lat="45.55699141403365" lon="8.566354558950914"><ele>200.66666666666669</ele><time>2026-04-06T14:54:21.999Z</time></trkpt><trkpt lat="45.5568018015499" lon="8.56647496389594"><ele>201.0</ele><time>2026-04-06T14:54:22.999Z</time></trkpt><trkpt lat="45.556618143744366" lon="8.566597748876243"><ele>201.0</ele><time>2026-04-06T14:54:23.999Z</time></trkpt><trkpt lat="45.556436695953686" lon="8.566704558020428"><ele>201.0</ele><time>2026-04-06T14:54:24.999Z</time></trkpt><trkpt lat="45.5562632336947" lon="8.56680020246209"><ele>201.0</ele><time>2026-04-06T14:54:25.999Z</time></trkpt><trkpt lat="45.556092339937415" lon="8.566901358322294"><ele>200.33333333333331</ele><time>2026-04-06T14:54:26.999Z</time></trkpt><trkpt lat="45.555923132113776" lon="8.567003927463068"><ele>199.66666666666666</ele><time>2026-04-06T14:54:27.999Z</time></trkpt><trkpt lat="45.55575921815777" lon="8.567104310985723"><ele>199.0</ele><time>2026-04-06T14:54:28.999Z</time></trkpt><trkpt lat="45.55559512923438" lon="8.567208154661511"><ele>198.66666666666666</ele><time>2026-04-06T14:54:29.999Z</time></trkpt><trkpt lat="45.555433859030856" lon="8.567309571733807"><ele>198.33333333333331</ele><time>2026-04-06T14:54:30.999Z</time></trkpt><trkpt lat="45.55527510086767" lon="8.56740027846037"><ele>198.0</ele><time>2026-04-06T14:54:31.999Z</time></trkpt><trkpt lat="45.55512651147504" lon="8.567490336677277"><ele>198.66666666666669</ele><time>2026-04-06T14:54:32.999Z</time></trkpt><trkpt lat="45.554974920524856" lon="8.567584448512509"><ele>199.33333333333334</ele><time>2026-04-06T14:54:33.999Z</time></trkpt><trkpt lat="45.55481475830282" lon="8.567684294903385"><ele>200.0</ele><time>2026-04-06T14:54:34.999Z</time></trkpt><trkpt lat="45.55465192621885" lon="8.567783811288502"><ele>199.33333333333334</ele><time>2026-04-06T14:54:35.999Z</time></trkpt><trkpt lat="45.55449493927801" lon="8.567881339843096"><ele>198.66666666666669</ele><time>2026-04-06T14:54:36.999Z</time></trkpt><trkpt lat="45.55433532607912" lon="8.56797774069361"><ele>198.0</ele><time>2026-04-06T14:54:37.999Z</time></trkpt><trkpt lat="45.55417951727176" lon="8.568068742997216"><ele>198.0</ele><time>2026-04-06T14:54:38.999Z</time></trkpt><trkpt lat="45.55401988095164" lon="8.568166156386713"><ele>198.0</ele><time>2026-04-06T14:54:40Z</time></trkpt><trkpt lat="45.55385960921901" lon="8.5682614371338"><ele>198.0</ele><time>2026-04-06T14:54:41Z</time></trkpt><trkpt lat="45.55369166845245" lon="8.568358734455908"><ele>198.66666666666669</ele><time>2026-04-06T14:54:42Z</time></trkpt><trkpt lat="45.553528582181514" lon="8.568457210981517"><ele>199.33333333333334</ele><time>2026-04-06T14:54:43Z</time></trkpt><trkpt lat="45.55336041939774" lon="8.56855823789612"><ele>200.0</ele><time>2026-04-06T14:54:44Z</time></trkpt><trkpt lat="45.55318692145084" lon="8.568661409623097"><ele>199.66666666666669</ele><time>2026-04-06T14:54:45Z</time></trkpt><trkpt lat="45.55301146417276" lon="8.568764873458562"><ele>199.33333333333331</ele><time>2026-04-06T14:54:46Z</time></trkpt><trkpt lat="45.55283253228719" lon="8.56886958429198"><ele>199.0</ele><time>2026-04-06T14:54:47Z</time></trkpt><trkpt lat="45.55264531362698" lon="8.56897733210554"><ele>199.0</ele><time>2026-04-06T14:54:48Z</time></trkpt><trkpt lat="45.55244381791845" lon="8.569097088879902"><ele>199.0</ele><time>2026-04-06T14:54:49Z</time></trkpt><trkpt lat="45.55224079085468" lon="8.569218274965824"><ele>199.0</ele><time>2026-04-06T14:54:50Z</time></trkpt><trkpt lat="45.552045726296875" lon="8.56933729964946"><ele>199.0</ele><time>2026-04-06T14:54:51Z</time></trkpt><trkpt lat="45.55184840980263" lon="8.56945974899288"><ele>199.0</ele><time>2026-04-06T14:54:52Z</time></trkpt><trkpt lat="45.5516518218907" lon="8.569584816193828"><ele>199.0</ele><time>2026-04-06T14:54:53Z</time></trkpt><trkpt lat="45.55144935783115" lon="8.569707241018856"><ele>198.66666666666666</ele><time>2026-04-06T14:54:53.999Z</time></trkpt><trkpt lat="45.551249970974325" lon="8.569827600929484"><ele>198.33333333333331</ele><time>2026-04-06T14:54:54.999Z</time></trkpt><trkpt lat="45.551052410505484" lon="8.569953904842572"><ele>198.0</ele><time>2026-04-06T14:54:55.999Z</time></trkpt><trkpt lat="45.550844964217326" lon="8.570083093047167"><ele>198.0</ele><time>2026-04-06T14:54:56.999Z</time></trkpt><trkpt lat="45.55064526686427" lon="8.570212951460178"><ele>198.0</ele><time>2026-04-06T14:54:57.999Z</time></trkpt><trkpt lat="45.55043217099997" lon="8.570348659351625"><ele>198.0</ele><time>2026-04-06T14:54:58.999Z</time></trkpt><trkpt lat="45.55021965923632" lon="8.570486751918105"><ele>198.0</ele><time>2026-04-06T14:54:59.999Z</time></trkpt><trkpt lat="45.550011483821606" lon="8.570614774013684"><ele>198.0</ele><time>2026-04-06T14:55:00.999Z</time></trkpt><trkpt lat="45.54980383862731" lon="8.570735111537834"><ele>198.0</ele><time>2026-04-06T14:55:01.999Z</time></trkpt><trkpt lat="45.54960558385373" lon="8.5708583543901"><ele>198.0</ele><time>2026-04-06T14:55:02.999Z</time></trkpt><trkpt lat="45.549408652366616" lon="8.570978200414888"><ele>197.66666666666669</ele><time>2026-04-06T14:55:03.999Z</time></trkpt><trkpt lat="45.54921295837841" lon="8.571100421380075"><ele>197.33333333333334</ele><time>2026-04-06T14:55:04.999Z</time></trkpt><trkpt lat="45.54901205859094" lon="8.571221419950353"><ele>197.0</ele><time>2026-04-06T14:55:05.999Z</time></trkpt><trkpt lat="45.548826316353754" lon="8.571338544392237"><ele>196.33333333333334</ele><time>2026-04-06T14:55:06.999Z</time></trkpt><trkpt lat="45.54863950006528" lon="8.571454712965371"><ele>195.66666666666669</ele><time>2026-04-06T14:55:07.999Z</time></trkpt><trkpt lat="45.54845793661057" lon="8.571567769851468"><ele>195.0</ele><time>2026-04-06T14:55:08.999Z</time></trkpt><trkpt lat="45.548267501666274" lon="8.571682174581792"><ele>195.0</ele><time>2026-04-06T14:55:09.999Z</time></trkpt><trkpt lat="45.54807453056885" lon="8.571797188428295"><ele>195.0</ele><time>2026-04-06T14:55:10.999Z</time></trkpt><trkpt lat="45.547869403186695" lon="8.571919105502104"><ele>195.0</ele><time>2026-04-06T14:55:11.999Z</time></trkpt><trkpt lat="45.54766208630414" lon="8.57204088725227"><ele>194.66666666666669</ele><time>2026-04-06T14:55:12.999Z</time></trkpt><trkpt lat="45.547457044219954" lon="8.572162138419888"><ele>194.33333333333334</ele><time>2026-04-06T14:55:13.999Z</time></trkpt><trkpt lat="45.54725690247825" lon="8.572284811893665"><ele>194.0</ele><time>2026-04-06T14:55:14.999Z</time></trkpt><trkpt lat="45.54707178924529" lon="8.572400305328406"><ele>193.0</ele><time>2026-04-06T14:55:15.999Z</time></trkpt><trkpt lat="45.54687739153546" lon="8.572516090876444"><ele>192.0</ele><time>2026-04-06T14:55:16.999Z</time></trkpt><trkpt lat="45.54668788171696" lon="8.572634018383761"><ele>191.0</ele><time>2026-04-06T14:55:17.999Z</time></trkpt><trkpt lat="45.54649679522404" lon="8.572748226337184"><ele>191.0</ele><time>2026-04-06T14:55:18.999Z</time></trkpt><trkpt lat="45.546298527507815" lon="8.572866536069313"><ele>191.0</ele><time>2026-04-06T14:55:19.999Z</time></trkpt><trkpt lat="45.546107093884956" lon="8.572982834073636"><ele>191.0</ele><time>2026-04-06T14:55:20.999Z</time></trkpt><trkpt lat="45.545911579221986" lon="8.573100244569465"><ele>191.0</ele><time>2026-04-06T14:55:21.999Z</time></trkpt><trkpt lat="45.545720687184165" lon="8.57321417102535"><ele>191.0</ele><time>2026-04-06T14:55:22.999Z</time></trkpt><trkpt lat="45.545527194020096" lon="8.573331460398366"><ele>191.0</ele><time>2026-04-06T14:55:23.999Z</time></trkpt><trkpt lat="45.54533693239389" lon="8.573450009239451"><ele>191.0</ele><time>2026-04-06T14:55:24.999Z</time></trkpt><trkpt lat="45.54514598540232" lon="8.573567482409938"><ele>191.0</ele><time>2026-04-06T14:55:25.999Z</time></trkpt><trkpt lat="45.544954411892654" lon="8.57368663287763"><ele>191.0</ele><time>2026-04-06T14:55:26.999Z</time></trkpt><trkpt lat="45.544757738398104" lon="8.573811205761691"><ele>191.0</ele><time>2026-04-06T14:55:27.999Z</time></trkpt><trkpt lat="45.54456293167938" lon="8.573928884754531"><ele>191.0</ele><time>2026-04-06T14:55:28.999Z</time></trkpt><trkpt lat="45.544366452467514" lon="8.574045552861596"><ele>191.0</ele><time>2026-04-06T14:55:29.999Z</time></trkpt><trkpt lat="45.544164477555626" lon="8.574161921764887"><ele>191.0</ele><time>2026-04-06T14:55:30.999Z</time></trkpt><trkpt lat="45.54396870226557" lon="8.574285255295528"><ele>191.0</ele><time>2026-04-06T14:55:31.999Z</time></trkpt><trkpt lat="45.54377649551528" lon="8.574401905957874"><ele>191.0</ele><time>2026-04-06T14:55:32.999Z</time></trkpt><trkpt lat="45.543590820256746" lon="8.574513166749396"><ele>191.0</ele><time>2026-04-06T14:55:33.999Z</time></trkpt><trkpt lat="45.54340425481434" lon="8.574624615017092"><ele>191.0</ele><time>2026-04-06T14:55:34.999Z</time></trkpt><trkpt lat="45.54321598828872" lon="8.574739838477328"><ele>191.0</ele><time>2026-04-06T14:55:35.999Z</time></trkpt><trkpt lat="45.543028684349444" lon="8.574852681992555"><ele>190.66666666666666</ele><time>2026-04-06T14:55:36.999Z</time></trkpt><trkpt lat="45.54283618564109" lon="8.57496760419554"><ele>190.33333333333334</ele><time>2026-04-06T14:55:37.999Z</time></trkpt><trkpt lat="45.542653999013226" lon="8.575079690574366"><ele>190.0</ele><time>2026-04-06T14:55:38.999Z</time></trkpt><trkpt lat="45.54246959476717" lon="8.575187424153649"><ele>190.0</ele><time>2026-04-06T14:55:39.999Z</time></trkpt><trkpt lat="45.54228875296711" lon="8.57529453477231"><ele>190.0</ele><time>2026-04-06T14:55:40.999Z</time></trkpt><trkpt lat="45.542116547634606" lon="8.575395774967125"><ele>190.0</ele><time>2026-04-06T14:55:41.999Z</time></trkpt><trkpt lat="45.54194121157213" lon="8.575502465657866"><ele>190.0</ele><time>2026-04-06T14:55:42.999Z</time></trkpt><trkpt lat="45.54177135404064" lon="8.57561094514933"><ele>190.0</ele><time>2026-04-06T14:55:43.999Z</time></trkpt><trkpt lat="45.541599982049306" lon="8.575718527165986"><ele>190.0</ele><time>2026-04-06T14:55:44.999Z</time></trkpt><trkpt lat="45.54142910470429" lon="8.575820711988644"><ele>190.0</ele><time>2026-04-06T14:55:45.999Z</time></trkpt><trkpt lat="45.54126127672141" lon="8.575921685477486"><ele>190.0</ele><time>2026-04-06T14:55:46.999Z</time></trkpt><trkpt lat="45.541101009606905" lon="8.576018170890299"><ele>190.0</ele><time>2026-04-06T14:55:47.999Z</time></trkpt><trkpt lat="45.54093984078143" lon="8.576115891951495"><ele>190.33333333333334</ele><time>2026-04-06T14:55:48.999Z</time></trkpt><trkpt lat="45.54078383819703" lon="8.576211405815563"><ele>190.66666666666666</ele><time>2026-04-06T14:55:49.999Z</time></trkpt><trkpt lat="45.54063570845001" lon="8.576300987985842"><ele>191.0</ele><time>2026-04-06T14:55:50.999Z</time></trkpt><trkpt lat="45.54047836174224" lon="8.57639749271789"><ele>191.0</ele><time>2026-04-06T14:55:51.999Z</time></trkpt><trkpt lat="45.54032233435702" lon="8.576490479701974"><ele>191.0</ele><time>2026-04-06T14:55:52.999Z</time></trkpt><trkpt lat="45.540171560062774" lon="8.576579010522918"><ele>191.0</ele><time>2026-04-06T14:55:53.999Z</time></trkpt><trkpt lat="45.540022884275814" lon="8.576669973122712"><ele>191.0</ele><time>2026-04-06T14:55:54.999Z</time></trkpt><trkpt lat="45.53987000280964" lon="8.576761520151628"><ele>191.0</ele><time>2026-04-06T14:55:55.999Z</time></trkpt><trkpt lat="45.53971360581385" lon="8.57685052410771"><ele>191.0</ele><time>2026-04-06T14:55:56.999Z</time></trkpt><trkpt lat="45.5395561232469" lon="8.57694499464652"><ele>190.66666666666666</ele><time>2026-04-06T14:55:57.999Z</time></trkpt><trkpt lat="45.5393949287401" lon="8.57703754123909"><ele>190.33333333333334</ele><time>2026-04-06T14:55:58.999Z</time></trkpt><trkpt lat="45.539225530982456" lon="8.577139433591343"><ele>190.0</ele><time>2026-04-06T14:55:59.999Z</time></trkpt><trkpt lat="45.53906192563235" lon="8.577241649539541"><ele>190.0</ele><time>2026-04-06T14:56:00.999Z</time></trkpt><trkpt lat="45.53889634707512" lon="8.577342158174654"><ele>190.0</ele><time>2026-04-06T14:56:01.999Z</time></trkpt><trkpt lat="45.53873790181712" lon="8.577440331793003"><ele>190.0</ele><time>2026-04-06T14:56:02.999Z</time></trkpt><trkpt lat="45.53857670012114" lon="8.577536729452499"><ele>190.0</ele><time>2026-04-06T14:56:03.999Z</time></trkpt><trkpt lat="45.53841443623763" lon="8.577634501516537"><ele>190.0</ele><time>2026-04-06T14:56:04.999Z</time></trkpt><trkpt lat="45.5382467588121" lon="8.577735513834584"><ele>190.0</ele><time>2026-04-06T14:56:05.999Z</time></trkpt><trkpt lat="45.5380741150627" lon="8.577841073813483"><ele>189.33333333333334</ele><time>2026-04-06T14:56:06.999Z</time></trkpt><trkpt lat="45.53790156273072" lon="8.577945539492692"><ele>188.66666666666666</ele><time>2026-04-06T14:56:07.999Z</time></trkpt><trkpt lat="45.537724653089185" lon="8.578053193655013"><ele>188.0</ele><time>2026-04-06T14:56:08.999Z</time></trkpt><trkpt lat="45.537549400008906" lon="8.578159316505731"><ele>187.66666666666666</ele><time>2026-04-06T14:56:09.999Z</time></trkpt><trkpt lat="45.53737359948194" lon="8.578262886352203"><ele>187.33333333333334</ele><time>2026-04-06T14:56:10.999Z</time></trkpt><trkpt lat="45.537198635771645" lon="8.578363924731164"><ele>187.0</ele><time>2026-04-06T14:56:11.999Z</time></trkpt><trkpt lat="45.53702057029302" lon="8.5784732928461"><ele>187.0</ele><time>2026-04-06T14:56:12.999Z</time></trkpt><trkpt lat="45.53684085613722" lon="8.578585196674734"><ele>187.0</ele><time>2026-04-06T14:56:13.999Z</time></trkpt><trkpt lat="45.53666438965797" lon="8.578695285079757"><ele>187.0</ele><time>2026-04-06T14:56:14.999Z</time></trkpt><trkpt lat="45.536478753104" lon="8.578809186340486"><ele>187.0</ele><time>2026-04-06T14:56:15.999Z</time></trkpt><trkpt lat="45.53629053295649" lon="8.578922234759249"><ele>187.0</ele><time>2026-04-06T14:56:16.999Z</time></trkpt><trkpt lat="45.53609746382443" lon="8.579033341410975"><ele>187.0</ele><time>2026-04-06T14:56:17.999Z</time></trkpt><trkpt lat="45.53589511615238" lon="8.57915651236177"><ele>186.66666666666669</ele><time>2026-04-06T14:56:18.999Z</time></trkpt><trkpt lat="45.53568511464901" lon="8.579287646331416"><ele>186.33333333333334</ele><time>2026-04-06T14:56:19.999Z</time></trkpt><trkpt lat="45.535489339155376" lon="8.579410789202885"><ele>186.0</ele><time>2026-04-06T14:56:20.999Z</time></trkpt><trkpt lat="45.53529211922857" lon="8.579526734286759"><ele>185.66666666666666</ele><time>2026-04-06T14:56:21.999Z</time></trkpt><trkpt lat="45.53510198212599" lon="8.579641675312839"><ele>185.33333333333331</ele><time>2026-04-06T14:56:22.999Z</time></trkpt><trkpt lat="45.53491474099499" lon="8.579758681198943"><ele>185.0</ele><time>2026-04-06T14:56:23.999Z</time></trkpt><trkpt lat="45.53472632646588" lon="8.579875978639201"><ele>185.0</ele><time>2026-04-06T14:56:24.999Z</time></trkpt><trkpt lat="45.53452426989569" lon="8.580001112186384"><ele>185.0</ele><time>2026-04-06T14:56:25.999Z</time></trkpt><trkpt lat="45.53432191413252" lon="8.58012731581013"><ele>185.0</ele><time>2026-04-06T14:56:26.999Z</time></trkpt><trkpt lat="45.534111338271046" lon="8.58025093543588"><ele>185.0</ele><time>2026-04-06T14:56:27.999Z</time></trkpt><trkpt lat="45.533899463844676" lon="8.580376081582873"><ele>185.0</ele><time>2026-04-06T14:56:28.999Z</time></trkpt><trkpt lat="45.533689324021765" lon="8.58050129271135"><ele>186.0</ele><time>2026-04-06T14:56:29.999Z</time></trkpt><trkpt lat="45.533480477564304" lon="8.580625422603545"><ele>187.0</ele><time>2026-04-06T14:56:30.999Z</time></trkpt><trkpt lat="45.533278487066006" lon="8.580748990405855"><ele>188.0</ele><time>2026-04-06T14:56:31.999Z</time></trkpt><trkpt lat="45.53307552358384" lon="8.580876094464422"><ele>186.5</ele><time>2026-04-06T14:56:33Z</time></trkpt><trkpt lat="45.53287294998895" lon="8.581007983205549"><ele>185.0</ele><time>2026-04-06T14:56:34Z</time></trkpt><trkpt lat="45.532649480484814" lon="8.581153089679248"><ele>184.0</ele><time>2026-04-06T14:56:35Z</time></trkpt><trkpt lat="45.53239439083128" lon="8.581318905055895"><ele>183.0</ele><time>2026-04-06T14:56:36Z</time></trkpt><trkpt lat="45.532127566741046" lon="8.581483277418226"><ele>183.5</ele><time>2026-04-06T14:56:37Z</time></trkpt><trkpt lat="45.53187440399781" lon="8.581632164422615"><ele>184.0</ele><time>2026-04-06T14:56:38Z</time></trkpt><trkpt lat="45.531612705757226" lon="8.581778155000015"><ele>184.0</ele><time>2026-04-06T14:56:39Z</time></trkpt><trkpt lat="45.53136748047029" lon="8.581914033951513"><ele>184.0</ele><time>2026-04-06T14:56:40Z</time></trkpt><trkpt lat="45.53112006901969" lon="8.582053111568872"><ele>183.33333333333334</ele><time>2026-04-06T14:56:41Z</time></trkpt><trkpt lat="45.53087553851259" lon="8.58219310490757"><ele>182.66666666666666</ele><time>2026-04-06T14:56:42Z</time></trkpt><trkpt lat="45.5307136170155" lon="8.582301165416656"><ele>182.0</ele><time>2026-04-06T14:56:43Z</time></trkpt><trkpt lat="45.53052053902548" lon="8.582415372963686"><ele>182.66666666666666</ele><time>2026-04-06T14:56:44Z</time></trkpt><trkpt lat="45.53032912350705" lon="8.582525964001505"><ele>183.33333333333334</ele><time>2026-04-06T14:56:45Z</time></trkpt><trkpt lat="45.53014702204599" lon="8.582630627566658"><ele>184.0</ele><time>2026-04-06T14:56:46Z</time></trkpt><trkpt lat="45.52997320505179" lon="8.582736916726008"><ele>184.0</ele><time>2026-04-06T14:56:47Z</time></trkpt><trkpt lat="45.529803184083946" lon="8.582838201138948"><ele>184.0</ele><time>2026-04-06T14:56:48Z</time></trkpt><trkpt lat="45.529630038766705" lon="8.582941303598826"><ele>184.0</ele><time>2026-04-06T14:56:49Z</time></trkpt><trkpt lat="45.5294540511733" lon="8.583045779272004"><ele>183.66666666666669</ele><time>2026-04-06T14:56:50Z</time></trkpt><trkpt lat="45.52927344094254" lon="8.5831533977309"><ele>183.33333333333334</ele><time>2026-04-06T14:56:51Z</time></trkpt><trkpt lat="45.52908980716246" lon="8.583267905658733"><ele>183.0</ele><time>2026-04-06T14:56:52Z</time></trkpt><trkpt lat="45.52890444807483" lon="8.583383489580507"><ele>182.66666666666666</ele><time>2026-04-06T14:56:53Z</time></trkpt><trkpt lat="45.52872095101223" lon="8.583491540254524"><ele>182.33333333333331</ele><time>2026-04-06T14:56:54Z</time></trkpt><trkpt lat="45.528536623787765" lon="8.583603394511057"><ele>182.0</ele><time>2026-04-06T14:56:55Z</time></trkpt><trkpt lat="45.528354981040486" lon="8.583711860916495"><ele>181.66666666666666</ele><time>2026-04-06T14:56:56Z</time></trkpt><trkpt lat="45.5281737557266" lon="8.583824781269847"><ele>181.33333333333334</ele><time>2026-04-06T14:56:57Z</time></trkpt><trkpt lat="45.52798985679843" lon="8.583939773648554"><ele>181.0</ele><time>2026-04-06T14:56:58Z</time></trkpt><trkpt lat="45.52781079098902" lon="8.584051894997033"><ele>181.66666666666669</ele><time>2026-04-06T14:56:59Z</time></trkpt><trkpt lat="45.52763579746569" lon="8.584162270476957"><ele>182.33333333333334</ele><time>2026-04-06T14:57:00Z</time></trkpt><trkpt lat="45.527454026065755" lon="8.584274201215694"><ele>183.0</ele><time>2026-04-06T14:57:01Z</time></trkpt><trkpt lat="45.52727360771006" lon="8.584380650775268"><ele>183.0</ele><time>2026-04-06T14:57:02Z</time></trkpt><trkpt lat="45.52709600806896" lon="8.58448731675122"><ele>183.0</ele><time>2026-04-06T14:57:03Z</time></trkpt><trkpt lat="45.52692394210613" lon="8.584591627790237"><ele>183.0</ele><time>2026-04-06T14:57:04Z</time></trkpt><trkpt lat="45.52675209457368" lon="8.584703319119454"><ele>182.33333333333334</ele><time>2026-04-06T14:57:05Z</time></trkpt><trkpt lat="45.526575548984546" lon="8.584814634686163"><ele>181.66666666666669</ele><time>2026-04-06T14:57:06Z</time></trkpt><trkpt lat="45.526396351357434" lon="8.58492265641355"><ele>181.0</ele><time>2026-04-06T14:57:07Z</time></trkpt><trkpt lat="45.526217776415024" lon="8.58502843609255"><ele>181.0</ele><time>2026-04-06T14:57:08Z</time></trkpt><trkpt lat="45.526037242793606" lon="8.585134163057548"><ele>181.0</ele><time>2026-04-06T14:57:09Z</time></trkpt><trkpt lat="45.52585312525848" lon="8.585239553447188"><ele>181.0</ele><time>2026-04-06T14:57:10Z</time></trkpt><trkpt lat="45.52566617180502" lon="8.585350467519724"><ele>180.66666666666669</ele><time>2026-04-06T14:57:11Z</time></trkpt><trkpt lat="45.52547926212359" lon="8.585464898071473"><ele>180.33333333333334</ele><time>2026-04-06T14:57:12Z</time></trkpt><trkpt lat="45.525299707072094" lon="8.585578359852217"><ele>180.0</ele><time>2026-04-06T14:57:13Z</time></trkpt><trkpt lat="45.52512631017077" lon="8.585684600546433"><ele>180.0</ele><time>2026-04-06T14:57:14Z</time></trkpt><trkpt lat="45.52495962690806" lon="8.585788352821442"><ele>180.0</ele><time>2026-04-06T14:57:15Z</time></trkpt><trkpt lat="45.524793317695526" lon="8.58589023519386"><ele>180.0</ele><time>2026-04-06T14:57:16Z</time></trkpt><trkpt lat="45.52463349292662" lon="8.585988956909672"><ele>180.0</ele><time>2026-04-06T14:57:17Z</time></trkpt><trkpt lat="45.5244993115627" lon="8.586065459452325"><ele>180.0</ele><time>2026-04-06T14:57:18Z</time></trkpt><trkpt lat="45.52437713917351" lon="8.586140055254496"><ele>180.0</ele><time>2026-04-06T14:57:19Z</time></trkpt><trkpt lat="45.5242616168408" lon="8.5862184926217"><ele>180.0</ele><time>2026-04-06T14:57:20Z</time></trkpt><trkpt lat="45.52413935749464" lon="8.586298915478286"><ele>180.0</ele><time>2026-04-06T14:57:21Z</time></trkpt><trkpt lat="45.524013619239085" lon="8.586377656735344"><ele>180.0</ele><time>2026-04-06T14:57:22Z</time></trkpt><trkpt lat="45.5238877109194" lon="8.586449246116153"><ele>180.0</ele><time>2026-04-06T14:57:23Z</time></trkpt><trkpt lat="45.523758934106446" lon="8.58652549694581"><ele>180.0</ele><time>2026-04-06T14:57:24Z</time></trkpt><trkpt lat="45.523628858896075" lon="8.586608122057516"><ele>180.5</ele><time>2026-04-06T14:57:25Z</time></trkpt><trkpt lat="45.523504618120704" lon="8.586688884046456"><ele>181.0</ele><time>2026-04-06T14:57:25.999Z</time></trkpt><trkpt lat="45.5233773779479" lon="8.586768591074563"><ele>181.5</ele><time>2026-04-06T14:57:26.999Z</time></trkpt><trkpt lat="45.523244497696936" lon="8.586849484818027"><ele>182.0</ele><time>2026-04-06T14:57:27.999Z</time></trkpt><trkpt lat="45.52311056362103" lon="8.58692963399614"><ele>182.0</ele><time>2026-04-06T14:57:28.999Z</time></trkpt><trkpt lat="45.52297700449469" lon="8.58701046548695"><ele>182.0</ele><time>2026-04-06T14:57:29.999Z</time></trkpt><trkpt lat="45.52285011735248" lon="8.58708854613626"><ele>182.0</ele><time>2026-04-06T14:57:30.999Z</time></trkpt><trkpt lat="45.52272270964765" lon="8.58716861683341"><ele>182.0</ele><time>2026-04-06T14:57:31.999Z</time></trkpt><trkpt lat="45.52259917541608" lon="8.587243289698197"><ele>182.0</ele><time>2026-04-06T14:57:32.999Z</time></trkpt><trkpt lat="45.52247639329985" lon="8.587309391500336"><ele>182.0</ele><time>2026-04-06T14:57:33.999Z</time></trkpt><trkpt lat="45.522353406679684" lon="8.58737299188659"><ele>182.0</ele><time>2026-04-06T14:57:34.999Z</time></trkpt><trkpt lat="45.522230666513536" lon="8.58745057813768"><ele>182.0</ele><time>2026-04-06T14:57:35.999Z</time></trkpt><trkpt lat="45.52210861782499" lon="8.587528193239772"><ele>181.5</ele><time>2026-04-06T14:57:36.999Z</time></trkpt><trkpt lat="45.52199185440083" lon="8.587600669077545"><ele>181.0</ele><time>2026-04-06T14:57:37.999Z</time></trkpt><trkpt lat="45.521881709234464" lon="8.587670554450147"><ele>180.5</ele><time>2026-04-06T14:57:38.999Z</time></trkpt><trkpt lat="45.5217697726285" lon="8.58774092022537"><ele>180.0</ele><time>2026-04-06T14:57:39.999Z</time></trkpt><trkpt lat="45.521658282975935" lon="8.587809502297926"><ele>180.0</ele><time>2026-04-06T14:57:40.999Z</time></trkpt><trkpt lat="45.521546393258745" lon="8.587877579980715"><ele>180.0</ele><time>2026-04-06T14:57:41.999Z</time></trkpt><trkpt lat="45.521436295772965" lon="8.58794510948405"><ele>180.0</ele><time>2026-04-06T14:57:42.999Z</time></trkpt><trkpt lat="45.521327168780864" lon="8.588013001961917"><ele>180.0</ele><time>2026-04-06T14:57:43.999Z</time></trkpt><trkpt lat="45.52121394278049" lon="8.588083903504844"><ele>180.0</ele><time>2026-04-06T14:57:44.999Z</time></trkpt><trkpt lat="45.52110088242433" lon="8.58815157647097"><ele>180.0</ele><time>2026-04-06T14:57:45.999Z</time></trkpt><trkpt lat="45.520993917113955" lon="8.588218935276977"><ele>180.0</ele><time>2026-04-06T14:57:46.999Z</time></trkpt><trkpt lat="45.52089040897913" lon="8.588282274270346"><ele>180.0</ele><time>2026-04-06T14:57:47.999Z</time></trkpt><trkpt lat="45.52078969579245" lon="8.588343224807716"><ele>180.0</ele><time>2026-04-06T14:57:48.999Z</time></trkpt><trkpt lat="45.5206842065973" lon="8.588407082918394"><ele>180.0</ele><time>2026-04-06T14:57:49.999Z</time></trkpt><trkpt lat="45.52057557717462" lon="8.588471064037215"><ele>180.0</ele><time>2026-04-06T14:57:50.999Z</time></trkpt><trkpt lat="45.520461787364596" lon="8.588540518515902"><ele>180.0</ele><time>2026-04-06T14:57:51.999Z</time></trkpt><trkpt lat="45.52033861512653" lon="8.58861371088436"><ele>180.0</ele><time>2026-04-06T14:57:52.999Z</time></trkpt><trkpt lat="45.52021424175168" lon="8.588686315384638"><ele>180.0</ele><time>2026-04-06T14:57:53.999Z</time></trkpt><trkpt lat="45.520144469465166" lon="8.588734230583983"><ele>180.0</ele><time>2026-04-06T14:57:54.999Z</time></trkpt><trkpt lat="45.52004813771917" lon="8.588797911425976"><ele>180.0</ele><time>2026-04-06T14:57:55.999Z</time></trkpt><trkpt lat="45.519947156324676" lon="8.588854984522436"><ele>180.0</ele><time>2026-04-06T14:57:56.999Z</time></trkpt><trkpt lat="45.519859905794966" lon="8.588912711523122"><ele>180.0</ele><time>2026-04-06T14:57:57.999Z</time></trkpt><trkpt lat="45.51977852274078" lon="8.588958875709576"><ele>180.0</ele><time>2026-04-06T14:57:59.999Z</time></trkpt><trkpt lat="45.519681512426004" lon="8.589011060249577"><ele>180.0</ele><time>2026-04-06T14:58:01.999Z</time></trkpt><trkpt lat="45.519598770444176" lon="8.58906844421072"><ele>180.0</ele><time>2026-04-06T14:58:02.999Z</time></trkpt><trkpt lat="45.51951035411269" lon="8.589123564648549"><ele>180.0</ele><time>2026-04-06T14:58:03.999Z</time></trkpt><trkpt lat="45.51942283988214" lon="8.589175746978523"><ele>179.75</ele><time>2026-04-06T14:58:04.999Z</time></trkpt><trkpt lat="45.5193108289637" lon="8.589251872137062"><ele>179.5</ele><time>2026-04-06T14:58:05.999Z</time></trkpt><trkpt lat="45.519207519927306" lon="8.589318170942644"><ele>179.25</ele><time>2026-04-06T14:58:06.999Z</time></trkpt><trkpt lat="45.51910903626186" lon="8.58937943484208"><ele>179.0</ele><time>2026-04-06T14:58:07.999Z</time></trkpt><trkpt lat="45.519005308743765" lon="8.58943360710318"><ele>179.0</ele><time>2026-04-06T14:58:08.999Z</time></trkpt><trkpt lat="45.51891046270794" lon="8.589490138789717"><ele>179.0</ele><time>2026-04-06T14:58:09.999Z</time></trkpt><trkpt lat="45.518824709421054" lon="8.589541776348653"><ele>179.0</ele><time>2026-04-06T14:58:10.999Z</time></trkpt><trkpt lat="45.518741002932224" lon="8.58959390023421"><ele>179.0</ele><time>2026-04-06T14:58:11.999Z</time></trkpt><trkpt lat="45.518663851768146" lon="8.58963810394819"><ele>179.0</ele><time>2026-04-06T14:58:12.999Z</time></trkpt><trkpt lat="45.51858708403557" lon="8.58969159246329"><ele>179.14285714285717</ele><time>2026-04-06T14:58:13.999Z</time></trkpt><trkpt lat="45.518505628679634" lon="8.589737102944595"><ele>179.28571428571428</ele><time>2026-04-06T14:58:14.999Z</time></trkpt><trkpt lat="45.51843101307786" lon="8.5897877338738"><ele>179.42857142857144</ele><time>2026-04-06T14:58:15.999Z</time></trkpt><trkpt lat="45.51837002221838" lon="8.589821529001199"><ele>179.57142857142858</ele><time>2026-04-06T14:58:16.999Z</time></trkpt><trkpt lat="45.51830246151731" lon="8.589860672667267"><ele>179.71428571428572</ele><time>2026-04-06T14:58:17.999Z</time></trkpt><trkpt lat="45.51823660019949" lon="8.589898045980986"><ele>179.85714285714286</ele><time>2026-04-06T14:58:18.999Z</time></trkpt><trkpt lat="45.51817539486922" lon="8.589933533406517"><ele>180.0</ele><time>2026-04-06T14:58:19.999Z</time></trkpt><trkpt lat="45.518064121700085" lon="8.590001121551932"><ele>180.0</ele><time>2026-04-06T14:58:21.999Z</time></trkpt><trkpt lat="45.517956909325854" lon="8.59005888401735"><ele>180.0</ele><time>2026-04-06T14:58:23.999Z</time></trkpt><trkpt lat="45.517855305911205" lon="8.590113506358323"><ele>180.0</ele><time>2026-04-06T14:58:25.999Z</time></trkpt><trkpt lat="45.51776001515326" lon="8.590170169879478"><ele>180.0</ele><time>2026-04-06T14:58:27.999Z</time></trkpt><trkpt lat="45.51766830606888" lon="8.590225623917199"><ele>180.0</ele><time>2026-04-06T14:58:29.999Z</time></trkpt><trkpt lat="45.51759356047444" lon="8.590271451438197"><ele>179.8</ele><time>2026-04-06T14:58:31.999Z</time></trkpt><trkpt lat="45.517521830901536" lon="8.590330864824539"><ele>179.6</ele><time>2026-04-06T14:58:39Z</time></trkpt><trkpt lat="45.51744402222891" lon="8.590376390138804"><ele>179.39999999999998</ele><time>2026-04-06T14:58:40Z</time></trkpt><trkpt lat="45.51732760194018" lon="8.590443455793205"><ele>179.2</ele><time>2026-04-06T14:58:41Z</time></trkpt><trkpt lat="45.51719528047335" lon="8.590531909970547"><ele>179.0</ele><time>2026-04-06T14:58:42Z</time></trkpt><trkpt lat="45.5170705948483" lon="8.590581600096568"><ele>178.75</ele><time>2026-04-06T14:58:43Z</time></trkpt><trkpt lat="45.51693111919802" lon="8.590649478226814"><ele>178.5</ele><time>2026-04-06T14:58:44Z</time></trkpt><trkpt lat="45.516792552943976" lon="8.59071252140757"><ele>178.25</ele><time>2026-04-06T14:58:45Z</time></trkpt><trkpt lat="45.51666033585694" lon="8.590787299368305"><ele>178.0</ele><time>2026-04-06T14:58:46Z</time></trkpt><trkpt lat="45.516516803147255" lon="8.590870288170146"><ele>178.0</ele><time>2026-04-06T14:58:47Z</time></trkpt><trkpt lat="45.516376401912694" lon="8.590947330004944"><ele>178.0</ele><time>2026-04-06T14:58:48Z</time></trkpt><trkpt lat="45.516226877266206" lon="8.591022088662568"><ele>178.0</ele><time>2026-04-06T14:58:49Z</time></trkpt><trkpt lat="45.51607505290373" lon="8.591093921706378"><ele>178.0</ele><time>2026-04-06T14:58:50Z</time></trkpt><trkpt lat="45.5159229250979" lon="8.591171214580845"><ele>178.0</ele><time>2026-04-06T14:58:51Z</time></trkpt><trkpt lat="45.515763006503505" lon="8.59125143037747"><ele>178.0</ele><time>2026-04-06T14:58:52Z</time></trkpt><trkpt lat="45.51558685896894" lon="8.591337915143328"><ele>177.33333333333334</ele><time>2026-04-06T14:58:53Z</time></trkpt><trkpt lat="45.51540587397233" lon="8.591428409057587"><ele>176.66666666666666</ele><time>2026-04-06T14:58:54Z</time></trkpt><trkpt lat="45.51521702362498" lon="8.591528599098343"><ele>176.0</ele><time>2026-04-06T14:58:55Z</time></trkpt><trkpt lat="45.51502455953353" lon="8.591628723375933"><ele>176.0</ele><time>2026-04-06T14:58:56Z</time></trkpt><trkpt lat="45.5148429749411" lon="8.591719790442978"><ele>176.0</ele><time>2026-04-06T14:58:57Z</time></trkpt><trkpt lat="45.514666631942205" lon="8.591805975458294"><ele>176.0</ele><time>2026-04-06T14:58:58Z</time></trkpt><trkpt lat="45.51449611032031" lon="8.5918912990093"><ele>176.0</ele><time>2026-04-06T14:58:59Z</time></trkpt><trkpt lat="45.51432397178113" lon="8.591977259790623"><ele>176.0</ele><time>2026-04-06T14:59:00Z</time></trkpt><trkpt lat="45.51415674370632" lon="8.592061103653075"><ele>176.0</ele><time>2026-04-06T14:59:01Z</time></trkpt><trkpt lat="45.513985731136415" lon="8.592148524449982"><ele>176.0</ele><time>2026-04-06T14:59:02Z</time></trkpt><trkpt lat="45.51381242081294" lon="8.59223782949402"><ele>176.0</ele><time>2026-04-06T14:59:03Z</time></trkpt><trkpt lat="45.513634665213516" lon="8.592329917147952"><ele>176.0</ele><time>2026-04-06T14:59:04Z</time></trkpt><trkpt lat="45.51343878782249" lon="8.592428265974231"><ele>176.0</ele><time>2026-04-06T14:59:05Z</time></trkpt><trkpt lat="45.51323777466191" lon="8.592530532093807"><ele>176.0</ele><time>2026-04-06T14:59:06Z</time></trkpt><trkpt lat="45.51304425944183" lon="8.592627241249081"><ele>176.0</ele><time>2026-04-06T14:59:07Z</time></trkpt><trkpt lat="45.512856129380886" lon="8.592721235002095"><ele>175.66666666666666</ele><time>2026-04-06T14:59:08Z</time></trkpt><trkpt lat="45.512676573727816" lon="8.592810432539968"><ele>175.33333333333334</ele><time>2026-04-06T14:59:09Z</time></trkpt><trkpt lat="45.51249225974709" lon="8.592903974839546"><ele>175.0</ele><time>2026-04-06T14:59:10Z</time></trkpt><trkpt lat="45.51230512585054" lon="8.592999153462674"><ele>175.0</ele><time>2026-04-06T14:59:11Z</time></trkpt><trkpt lat="45.51211894891976" lon="8.593095011604564"><ele>175.0</ele><time>2026-04-06T14:59:12Z</time></trkpt><trkpt lat="45.511933870817366" lon="8.593191498093281"><ele>175.0</ele><time>2026-04-06T14:59:13Z</time></trkpt><trkpt lat="45.511746981003235" lon="8.59328671604919"><ele>175.0</ele><time>2026-04-06T14:59:14Z</time></trkpt><trkpt lat="45.51155874679713" lon="8.593383515252924"><ele>175.0</ele><time>2026-04-06T14:59:15Z</time></trkpt><trkpt lat="45.51136831147836" lon="8.593480755060403"><ele>175.0</ele><time>2026-04-06T14:59:16Z</time></trkpt><trkpt lat="45.51117453794194" lon="8.59358357399361"><ele>175.0</ele><time>2026-04-06T14:59:17Z</time></trkpt><trkpt lat="45.5109773726268" lon="8.593693384539598"><ele>175.0</ele><time>2026-04-06T14:59:18Z</time></trkpt><trkpt lat="45.510782139572704" lon="8.593812773673054"><ele>175.0</ele><time>2026-04-06T14:59:19Z</time></trkpt><trkpt lat="45.51059088843071" lon="8.593944477540731"><ele>174.5</ele><time>2026-04-06T14:59:20Z</time></trkpt><trkpt lat="45.51039064713996" lon="8.594085292190174"><ele>174.0</ele><time>2026-04-06T14:59:21Z</time></trkpt><trkpt lat="45.51018085853208" lon="8.594243832747962"><ele>174.0</ele><time>2026-04-06T14:59:22Z</time></trkpt><trkpt lat="45.50996835706762" lon="8.594409809755668"><ele>174.0</ele><time>2026-04-06T14:59:23Z</time></trkpt><trkpt lat="45.509760590247595" lon="8.594577254252307"><ele>173.5</ele><time>2026-04-06T14:59:24Z</time></trkpt><trkpt lat="45.50955783611708" lon="8.59473789070102"><ele>173.0</ele><time>2026-04-06T14:59:25Z</time></trkpt><trkpt lat="45.50935755040738" lon="8.594895102381537"><ele>173.0</ele><time>2026-04-06T14:59:26Z</time></trkpt><trkpt lat="45.50915733248951" lon="8.595053949033671"><ele>173.0</ele><time>2026-04-06T14:59:27Z</time></trkpt><trkpt lat="45.5089560767249" lon="8.595211854126381"><ele>173.0</ele><time>2026-04-06T14:59:28Z</time></trkpt><trkpt lat="45.50875569713663" lon="8.595373250612461"><ele>173.0</ele><time>2026-04-06T14:59:29Z</time></trkpt><trkpt lat="45.50855546459874" lon="8.595533070664924"><ele>172.5</ele><time>2026-04-06T14:59:30Z</time></trkpt><trkpt lat="45.508353416107965" lon="8.595693717519087"><ele>172.0</ele><time>2026-04-06T14:59:31Z</time></trkpt><trkpt lat="45.50814542567672" lon="8.595856833585065"><ele>172.0</ele><time>2026-04-06T14:59:32Z</time></trkpt><trkpt lat="45.5079379530842" lon="8.59601775891106"><ele>172.0</ele><time>2026-04-06T14:59:33Z</time></trkpt><trkpt lat="45.50772509034132" lon="8.596182591682823"><ele>172.0</ele><time>2026-04-06T14:59:34Z</time></trkpt><trkpt lat="45.50752036746445" lon="8.596344037311356"><ele>172.0</ele><time>2026-04-06T14:59:35Z</time></trkpt><trkpt lat="45.50731475403737" lon="8.596503138747279"><ele>172.0</ele><time>2026-04-06T14:59:36Z</time></trkpt><trkpt lat="45.50711818388717" lon="8.596658404738523"><ele>172.0</ele><time>2026-04-06T14:59:37Z</time></trkpt><trkpt lat="45.50691673302007" lon="8.59681860383113"><ele>172.5</ele><time>2026-04-06T14:59:38Z</time></trkpt><trkpt lat="45.50671364370439" lon="8.59698090416163"><ele>173.0</ele><time>2026-04-06T14:59:39Z</time></trkpt><trkpt lat="45.50651262952416" lon="8.597143473902337"><ele>171.5</ele><time>2026-04-06T14:59:40Z</time></trkpt><trkpt lat="45.5063033777645" lon="8.597306637203065"><ele>170.0</ele><time>2026-04-06T14:59:41Z</time></trkpt><trkpt lat="45.50610018750622" lon="8.597468661106538"><ele>170.0</ele><time>2026-04-06T14:59:42Z</time></trkpt><trkpt lat="45.50588930799404" lon="8.597635321183372"><ele>170.0</ele><time>2026-04-06T14:59:43Z</time></trkpt><trkpt lat="45.505674453860344" lon="8.597801830238879"><ele>170.5</ele><time>2026-04-06T14:59:44Z</time></trkpt><trkpt lat="45.5054629678454" lon="8.597968066441423"><ele>171.0</ele><time>2026-04-06T14:59:45Z</time></trkpt><trkpt lat="45.50525486071118" lon="8.598135906080776"><ele>171.0</ele><time>2026-04-06T14:59:46Z</time></trkpt><trkpt lat="45.5050486207052" lon="8.598295437315395"><ele>171.0</ele><time>2026-04-06T14:59:47Z</time></trkpt><trkpt lat="45.50484568217901" lon="8.598454800319386"><ele>171.0</ele><time>2026-04-06T14:59:48Z</time></trkpt><trkpt lat="45.50464370890805" lon="8.598612335510822"><ele>171.0</ele><time>2026-04-06T14:59:49Z</time></trkpt><trkpt lat="45.50444372668893" lon="8.598770837134657"><ele>170.0</ele><time>2026-04-06T14:59:50Z</time></trkpt><trkpt lat="45.50424603799603" lon="8.598926016580066"><ele>169.0</ele><time>2026-04-06T14:59:51Z</time></trkpt><trkpt lat="45.50404589454023" lon="8.599081634504628"><ele>169.0</ele><time>2026-04-06T14:59:52Z</time></trkpt><trkpt lat="45.5038472704811" lon="8.599240422979115"><ele>169.0</ele><time>2026-04-06T14:59:53Z</time></trkpt><trkpt lat="45.50364667714466" lon="8.59940088563357"><ele>168.0</ele><time>2026-04-06T14:59:54Z</time></trkpt><trkpt lat="45.50345068917736" lon="8.599557335903697"><ele>167.0</ele><time>2026-04-06T14:59:55Z</time></trkpt><trkpt lat="45.50325125150137" lon="8.59971077020441"><ele>167.0</ele><time>2026-04-06T14:59:56Z</time></trkpt><trkpt lat="45.50305178843115" lon="8.599863691829187"><ele>167.0</ele><time>2026-04-06T14:59:57Z</time></trkpt><trkpt lat="45.50285651703442" lon="8.6000179167531"><ele>166.66666666666666</ele><time>2026-04-06T14:59:58Z</time></trkpt><trkpt lat="45.5026603654732" lon="8.600174311823698"><ele>166.33333333333334</ele><time>2026-04-06T14:59:59Z</time></trkpt><trkpt lat="45.50246456738281" lon="8.600328949354026"><ele>166.0</ele><time>2026-04-06T15:00:00Z</time></trkpt><trkpt lat="45.50226668128071" lon="8.600486315220387"><ele>166.5</ele><time>2026-04-06T15:00:01Z</time></trkpt><trkpt lat="45.50206871379438" lon="8.600646492228426"><ele>167.0</ele><time>2026-04-06T15:00:02Z</time></trkpt><trkpt lat="45.50186915863628" lon="8.60080619046921"><ele>167.0</ele><time>2026-04-06T15:00:03Z</time></trkpt><trkpt lat="45.5016681267265" lon="8.600964937139679"><ele>167.0</ele><time>2026-04-06T15:00:04Z</time></trkpt><trkpt lat="45.501470153282085" lon="8.601120502791536"><ele>167.5</ele><time>2026-04-06T15:00:05Z</time></trkpt><trkpt lat="45.50127121189553" lon="8.601276149616586"><ele>168.0</ele><time>2026-04-06T15:00:06Z</time></trkpt><trkpt lat="45.50106963055259" lon="8.601433094977885"><ele>167.0</ele><time>2026-04-06T15:00:07Z</time></trkpt><trkpt lat="45.50086952550044" lon="8.601592452628344"><ele>166.0</ele><time>2026-04-06T15:00:08Z</time></trkpt><trkpt lat="45.500669503542674" lon="8.601753988968628"><ele>166.0</ele><time>2026-04-06T15:00:09Z</time></trkpt><trkpt lat="45.50047125966522" lon="8.60190906953301"><ele>166.0</ele><time>2026-04-06T15:00:10Z</time></trkpt><trkpt lat="45.500269289320784" lon="8.602063661810448"><ele>166.0</ele><time>2026-04-06T15:00:10.999Z</time></trkpt><trkpt lat="45.500075917435716" lon="8.602217566151008"><ele>166.0</ele><time>2026-04-06T15:00:11.999Z</time></trkpt><trkpt lat="45.49988593518343" lon="8.602370579119409"><ele>166.0</ele><time>2026-04-06T15:00:12.999Z</time></trkpt><trkpt lat="45.49970182283348" lon="8.602520485805192"><ele>166.0</ele><time>2026-04-06T15:00:13.999Z</time></trkpt><trkpt lat="45.49951770316908" lon="8.60267477176472"><ele>166.0</ele><time>2026-04-06T15:00:14.999Z</time></trkpt><trkpt lat="45.49933501513157" lon="8.602825581224876"><ele>166.0</ele><time>2026-04-06T15:00:15.999Z</time></trkpt><trkpt lat="45.4991557723581" lon="8.602965194732183"><ele>166.33333333333334</ele><time>2026-04-06T15:00:16.999Z</time></trkpt><trkpt lat="45.498984748739495" lon="8.60309641187934"><ele>166.66666666666666</ele><time>2026-04-06T15:00:17.999Z</time></trkpt><trkpt lat="45.49882463723254" lon="8.60322867236767"><ele>167.0</ele><time>2026-04-06T15:00:18.999Z</time></trkpt><trkpt lat="45.49867235468165" lon="8.603369070774644"><ele>166.33333333333331</ele><time>2026-04-06T15:00:19.999Z</time></trkpt><trkpt lat="45.49852448477848" lon="8.603533785065672"><ele>165.66666666666666</ele><time>2026-04-06T15:00:20.999Z</time></trkpt><trkpt lat="45.49838535028802" lon="8.60370481058788"><ele>165.0</ele><time>2026-04-06T15:00:21.999Z</time></trkpt><trkpt lat="45.49825899129014" lon="8.603864895447508"><ele>164.75</ele><time>2026-04-06T15:00:22.999Z</time></trkpt><trkpt lat="45.49814363080057" lon="8.604008261749831"><ele>164.5</ele><time>2026-04-06T15:00:23.999Z</time></trkpt><trkpt lat="45.49804462107204" lon="8.604131293634696"><ele>164.25</ele><time>2026-04-06T15:00:24.999Z</time></trkpt><trkpt lat="45.497950498083455" lon="8.60423915438504"><ele>164.0</ele><time>2026-04-06T15:00:25.999Z</time></trkpt><trkpt lat="45.49786215115443" lon="8.604307559960143"><ele>164.28571428571428</ele><time>2026-04-06T15:00:26.999Z</time></trkpt><trkpt lat="45.49778559291809" lon="8.60433328578985"><ele>164.57142857142856</ele><time>2026-04-06T15:00:27.999Z</time></trkpt><trkpt lat="45.497720776743904" lon="8.604307514517533"><ele>164.85714285714283</ele><time>2026-04-06T15:00:28.999Z</time></trkpt><trkpt lat="45.49766289005464" lon="8.60425425816763"><ele>165.14285714285714</ele><time>2026-04-06T15:00:29.999Z</time></trkpt><trkpt lat="45.497607167426196" lon="8.60417889871279"><ele>165.42857142857144</ele><time>2026-04-06T15:00:30.999Z</time></trkpt><trkpt lat="45.49752774726918" lon="8.60413262662814"><ele>165.7142857142857</ele><time>2026-04-06T15:00:31.999Z</time></trkpt><trkpt lat="45.49745763242992" lon="8.604123450388554"><ele>166.0</ele><time>2026-04-06T15:00:32.999Z</time></trkpt><trkpt lat="45.49734953339846" lon="8.604189612489238"><ele>166.0</ele><time>2026-04-06T15:00:34.999Z</time></trkpt><trkpt lat="45.49729772984024" lon="8.604260571134617"><ele>166.0</ele><time>2026-04-06T15:00:35.999Z</time></trkpt><trkpt lat="45.49727851722539" lon="8.604380839148014"><ele>166.0</ele><time>2026-04-06T15:00:36.999Z</time></trkpt><trkpt lat="45.497208227218614" lon="8.604432122045207"><ele>166.0</ele><time>2026-04-06T15:00:37.999Z</time></trkpt><trkpt lat="45.4971670080572" lon="8.604512781385992"><ele>166.0</ele><time>2026-04-06T15:00:38.999Z</time></trkpt><trkpt lat="45.49703705156512" lon="8.604614263584425"><ele>165.5</ele><time>2026-04-06T15:00:40.999Z</time></trkpt><trkpt lat="45.496948188691015" lon="8.604685501074105"><ele>165.0</ele><time>2026-04-06T15:00:41.999Z</time></trkpt><trkpt lat="45.49684389339496" lon="8.604767807795463"><ele>164.5</ele><time>2026-04-06T15:00:42.999Z</time></trkpt><trkpt lat="45.49672929987305" lon="8.604851509821343"><ele>164.0</ele><time>2026-04-06T15:00:44Z</time></trkpt><trkpt lat="45.49657566559436" lon="8.604961058824014"><ele>164.0</ele><time>2026-04-06T15:00:45Z</time></trkpt><trkpt lat="45.496418944584775" lon="8.6051070996023"><ele>164.0</ele><time>2026-04-06T15:00:46Z</time></trkpt><trkpt lat="45.4962270039955" lon="8.60523990478812"><ele>164.0</ele><time>2026-04-06T15:00:47Z</time></trkpt><trkpt lat="45.496022036669615" lon="8.605371581640078"><ele>164.0</ele><time>2026-04-06T15:00:48Z</time></trkpt><trkpt lat="45.495834300454774" lon="8.60549624779933"><ele>164.0</ele><time>2026-04-06T15:00:49Z</time></trkpt><trkpt lat="45.49564752441061" lon="8.605624801422781"><ele>164.0</ele><time>2026-04-06T15:00:50Z</time></trkpt><trkpt lat="45.495414488923885" lon="8.605729849580795"><ele>165.0</ele><time>2026-04-06T15:00:51Z</time></trkpt><trkpt lat="45.495172420494384" lon="8.60587066662818"><ele>166.0</ele><time>2026-04-06T15:00:52Z</time></trkpt><trkpt lat="45.494968472563606" lon="8.60601075303966"><ele>166.0</ele><time>2026-04-06T15:00:53Z</time></trkpt><trkpt lat="45.4947539137339" lon="8.606150038138214"><ele>166.0</ele><time>2026-04-06T15:00:54Z</time></trkpt><trkpt lat="45.49454198084635" lon="8.606248131800113"><ele>165.5</ele><time>2026-04-06T15:00:55Z</time></trkpt><trkpt lat="45.49432806654972" lon="8.606379284327732"><ele>165.0</ele><time>2026-04-06T15:00:56Z</time></trkpt><trkpt lat="45.494102845491696" lon="8.606506902021838"><ele>165.0</ele><time>2026-04-06T15:00:57Z</time></trkpt><trkpt lat="45.49386769337637" lon="8.60663985072593"><ele>165.0</ele><time>2026-04-06T15:00:58Z</time></trkpt><trkpt lat="45.493637257420566" lon="8.606777483977934"><ele>165.0</ele><time>2026-04-06T15:00:59Z</time></trkpt><trkpt lat="45.493412418793135" lon="8.606904832148931"><ele>165.0</ele><time>2026-04-06T15:01:00Z</time></trkpt><trkpt lat="45.4931921570382" lon="8.607033702037176"><ele>164.5</ele><time>2026-04-06T15:01:01Z</time></trkpt><trkpt lat="45.492974978367464" lon="8.607158005830614"><ele>164.0</ele><time>2026-04-06T15:01:02Z</time></trkpt><trkpt lat="45.49275565633693" lon="8.607284625550744"><ele>163.5</ele><time>2026-04-06T15:01:03Z</time></trkpt><trkpt lat="45.49253818864346" lon="8.607412588566197"><ele>163.0</ele><time>2026-04-06T15:01:04Z</time></trkpt><trkpt lat="45.49232022717582" lon="8.607534669933864"><ele>163.0</ele><time>2026-04-06T15:01:05Z</time></trkpt><trkpt lat="45.49210460988364" lon="8.6076623096929"><ele>163.0</ele><time>2026-04-06T15:01:06Z</time></trkpt><trkpt lat="45.491887176882685" lon="8.60779430454458"><ele>162.5</ele><time>2026-04-06T15:01:07Z</time></trkpt><trkpt lat="45.491672463231666" lon="8.607921891013023"><ele>162.0</ele><time>2026-04-06T15:01:08Z</time></trkpt><trkpt lat="45.49146217643302" lon="8.60804194722607"><ele>162.0</ele><time>2026-04-06T15:01:09Z</time></trkpt><trkpt lat="45.49125295344926" lon="8.60816171028817"><ele>162.0</ele><time>2026-04-06T15:01:10Z</time></trkpt><trkpt lat="45.49104900705066" lon="8.608277032172998"><ele>162.0</ele><time>2026-04-06T15:01:11Z</time></trkpt><trkpt lat="45.490848171455575" lon="8.608390866144083"><ele>162.0</ele><time>2026-04-06T15:01:12Z</time></trkpt><trkpt lat="45.49064862109385" lon="8.608504197922999"><ele>162.0</ele><time>2026-04-06T15:01:13Z</time></trkpt><trkpt lat="45.49045484870212" lon="8.608609211563667"><ele>162.0</ele><time>2026-04-06T15:01:14Z</time></trkpt><trkpt lat="45.49026374469666" lon="8.608704539994301"><ele>162.33333333333334</ele><time>2026-04-06T15:01:15Z</time></trkpt><trkpt lat="45.49007161645957" lon="8.608795196881761"><ele>162.66666666666669</ele><time>2026-04-06T15:01:16Z</time></trkpt><trkpt lat="45.48987385971957" lon="8.608877212221044"><ele>163.0</ele><time>2026-04-06T15:01:17Z</time></trkpt><trkpt lat="45.48967604547721" lon="8.608948187412432"><ele>162.66666666666669</ele><time>2026-04-06T15:01:18Z</time></trkpt><trkpt lat="45.48948036669756" lon="8.609011376224768"><ele>162.33333333333334</ele><time>2026-04-06T15:01:19Z</time></trkpt><trkpt lat="45.48928807979346" lon="8.60906544446413"><ele>162.0</ele><time>2026-04-06T15:01:20Z</time></trkpt><trkpt lat="45.489093445292966" lon="8.609111457686966"><ele>162.0</ele><time>2026-04-06T15:01:21Z</time></trkpt><trkpt lat="45.4889036610795" lon="8.609153121270248"><ele>162.0</ele><time>2026-04-06T15:01:22Z</time></trkpt><trkpt lat="45.48872145721839" lon="8.60918946405429"><ele>162.0</ele><time>2026-04-06T15:01:23Z</time></trkpt><trkpt lat="45.48853672633495" lon="8.609228199450696"><ele>161.33333333333334</ele><time>2026-04-06T15:01:24Z</time></trkpt><trkpt lat="45.48835505832752" lon="8.609263099451347"><ele>160.66666666666669</ele><time>2026-04-06T15:01:25Z</time></trkpt><trkpt lat="45.488178985017086" lon="8.609298159965798"><ele>160.0</ele><time>2026-04-06T15:01:26Z</time></trkpt><trkpt lat="45.48801116773941" lon="8.609330605390262"><ele>159.66666666666669</ele><time>2026-04-06T15:01:27Z</time></trkpt><trkpt lat="45.487849062015606" lon="8.609366922632054"><ele>159.33333333333334</ele><time>2026-04-06T15:01:28Z</time></trkpt><trkpt lat="45.48769024322617" lon="8.609402260278705"><ele>159.0</ele><time>2026-04-06T15:01:29Z</time></trkpt><trkpt lat="45.487534007008335" lon="8.609429205281721"><ele>159.0</ele><time>2026-04-06T15:01:30Z</time></trkpt><trkpt lat="45.48738239566498" lon="8.609455309016008"><ele>159.0</ele><time>2026-04-06T15:01:31Z</time></trkpt><trkpt lat="45.48723812983694" lon="8.609482133634883"><ele>159.0</ele><time>2026-04-06T15:01:32Z</time></trkpt><trkpt lat="45.48709677955096" lon="8.609509196878014"><ele>159.0</ele><time>2026-04-06T15:01:33Z</time></trkpt><trkpt lat="45.48696029098601" lon="8.609536741232331"><ele>160.0</ele><time>2026-04-06T15:01:34Z</time></trkpt><trkpt lat="45.48682951508219" lon="8.609560815712358"><ele>161.0</ele><time>2026-04-06T15:01:35Z</time></trkpt><trkpt lat="45.48670248694677" lon="8.609585294455657"><ele>162.0</ele><time>2026-04-06T15:01:36Z</time></trkpt><trkpt lat="45.48657591410243" lon="8.609611288261998"><ele>163.0</ele><time>2026-04-06T15:01:37Z</time></trkpt><trkpt lat="45.486447358602064" lon="8.609637591074996"><ele>163.0</ele><time>2026-04-06T15:01:38Z</time></trkpt><trkpt lat="45.486326589491036" lon="8.609661987740312"><ele>163.0</ele><time>2026-04-06T15:01:39Z</time></trkpt><trkpt lat="45.48620769605479" lon="8.60968241907144"><ele>163.0</ele><time>2026-04-06T15:01:40Z</time></trkpt><trkpt lat="45.48609325477849" lon="8.609703327516288"><ele>163.0</ele><time>2026-04-06T15:01:41Z</time></trkpt><trkpt lat="45.48597726790341" lon="8.609720533095622"><ele>163.0</ele><time>2026-04-06T15:01:42Z</time></trkpt><trkpt lat="45.485865575300195" lon="8.609736302913772"><ele>163.0</ele><time>2026-04-06T15:01:43Z</time></trkpt><trkpt lat="45.485751780554196" lon="8.609751271536975"><ele>163.0</ele><time>2026-04-06T15:01:44Z</time></trkpt><trkpt lat="45.485635368499025" lon="8.609767122068902"><ele>163.0</ele><time>2026-04-06T15:01:45Z</time></trkpt><trkpt lat="45.48551575065709" lon="8.609783323951527"><ele>162.75</ele><time>2026-04-06T15:01:46Z</time></trkpt><trkpt lat="45.4853936911263" lon="8.609798598539022"><ele>162.5</ele><time>2026-04-06T15:01:47Z</time></trkpt><trkpt lat="45.48527039457473" lon="8.609814681707066"><ele>162.25</ele><time>2026-04-06T15:01:48Z</time></trkpt><trkpt lat="45.485152651608765" lon="8.609830762301902"><ele>162.0</ele><time>2026-04-06T15:01:49Z</time></trkpt><trkpt lat="45.48504300418679" lon="8.609846527874879"><ele>162.0</ele><time>2026-04-06T15:01:50Z</time></trkpt><trkpt lat="45.48493569946516" lon="8.609860535977939"><ele>162.0</ele><time>2026-04-06T15:01:51Z</time></trkpt><trkpt lat="45.48483006729916" lon="8.60988257099553"><ele>162.0</ele><time>2026-04-06T15:01:52Z</time></trkpt><trkpt lat="45.48471532716368" lon="8.609900473926007"><ele>162.0</ele><time>2026-04-06T15:01:53Z</time></trkpt><trkpt lat="45.48460643499901" lon="8.609916934788396"><ele>162.0</ele><time>2026-04-06T15:01:54Z</time></trkpt><trkpt lat="45.484500200160404" lon="8.60993523374451"><ele>162.0</ele><time>2026-04-06T15:01:55Z</time></trkpt><trkpt lat="45.4843941761941" lon="8.609957935851394"><ele>162.0</ele><time>2026-04-06T15:01:56Z</time></trkpt><trkpt lat="45.484283014728646" lon="8.609976682689124"><ele>162.0</ele><time>2026-04-06T15:01:57Z</time></trkpt><trkpt lat="45.48416867525566" lon="8.610001770313625"><ele>162.0</ele><time>2026-04-06T15:01:58Z</time></trkpt><trkpt lat="45.4840366894498" lon="8.610028241821778"><ele>162.0</ele><time>2026-04-06T15:01:59Z</time></trkpt><trkpt lat="45.48389554271302" lon="8.61006166498246"><ele>162.0</ele><time>2026-04-06T15:02:00Z</time></trkpt><trkpt lat="45.48374941484673" lon="8.610097363951578"><ele>162.0</ele><time>2026-04-06T15:02:01Z</time></trkpt><trkpt lat="45.48360821816559" lon="8.610126165933371"><ele>162.0</ele><time>2026-04-06T15:02:02Z</time></trkpt><trkpt lat="45.48347134202288" lon="8.61013764083669"><ele>162.0</ele><time>2026-04-06T15:02:03Z</time></trkpt><trkpt lat="45.48334006374852" lon="8.610192899402518"><ele>162.0</ele><time>2026-04-06T15:02:04Z</time></trkpt><trkpt lat="45.483206993904965" lon="8.610204145526538"><ele>162.0</ele><time>2026-04-06T15:02:05Z</time></trkpt><trkpt lat="45.4830804062772" lon="8.610255416636244"><ele>162.0</ele><time>2026-04-06T15:02:06Z</time></trkpt><trkpt lat="45.48295543663404" lon="8.610299329618766"><ele>161.5</ele><time>2026-04-06T15:02:07Z</time></trkpt><trkpt lat="45.48282775407942" lon="8.610341337900103"><ele>161.0</ele><time>2026-04-06T15:02:08Z</time></trkpt><trkpt lat="45.48270311994506" lon="8.610385807963162"><ele>160.5</ele><time>2026-04-06T15:02:09Z</time></trkpt><trkpt lat="45.48257546360418" lon="8.610409892295376"><ele>160.0</ele><time>2026-04-06T15:02:10Z</time></trkpt><trkpt lat="45.48245318167359" lon="8.61045284718961"><ele>160.0</ele><time>2026-04-06T15:02:11Z</time></trkpt><trkpt lat="45.48233100728425" lon="8.61049559075068"><ele>160.0</ele><time>2026-04-06T15:02:12Z</time></trkpt><trkpt lat="45.48221315804713" lon="8.610536734452529"><ele>160.0</ele><time>2026-04-06T15:02:13Z</time></trkpt><trkpt lat="45.48209384359656" lon="8.610578389683353"><ele>160.0</ele><time>2026-04-06T15:02:14Z</time></trkpt><trkpt lat="45.48197587851685" lon="8.61061938453096"><ele>160.25</ele><time>2026-04-06T15:02:15Z</time></trkpt><trkpt lat="45.48186201866267" lon="8.610658898469886"><ele>160.5</ele><time>2026-04-06T15:02:16Z</time></trkpt><trkpt lat="45.48175287620975" lon="8.610696774507387"><ele>160.75</ele><time>2026-04-06T15:02:17Z</time></trkpt><trkpt lat="45.481649294535636" lon="8.610757350343597"><ele>161.0</ele><time>2026-04-06T15:02:18Z</time></trkpt><trkpt lat="45.481532327351786" lon="8.610776838413324"><ele>161.0</ele><time>2026-04-06T15:02:19Z</time></trkpt><trkpt lat="45.48142452355011" lon="8.610815402627264"><ele>161.0</ele><time>2026-04-06T15:02:20Z</time></trkpt><trkpt lat="45.48132170289037" lon="8.610874548001366"><ele>161.0</ele><time>2026-04-06T15:02:21Z</time></trkpt><trkpt lat="45.481219368964844" lon="8.610911103994653"><ele>161.0</ele><time>2026-04-06T15:02:22Z</time></trkpt><trkpt lat="45.481120134711006" lon="8.610945057667278"><ele>161.0</ele><time>2026-04-06T15:02:23Z</time></trkpt><trkpt lat="45.48102418916849" lon="8.610975203946472"><ele>160.83333333333331</ele><time>2026-04-06T15:02:24Z</time></trkpt><trkpt lat="45.480932186273556" lon="8.611006684744764"><ele>160.66666666666666</ele><time>2026-04-06T15:02:24.999Z</time></trkpt><trkpt lat="45.480844682007714" lon="8.611035930772992"><ele>160.5</ele><time>2026-04-06T15:02:25.999Z</time></trkpt><trkpt lat="45.48076406865726" lon="8.611064594124297"><ele>160.33333333333334</ele><time>2026-04-06T15:02:26.999Z</time></trkpt><trkpt lat="45.48068804929484" lon="8.611090504915008"><ele>160.16666666666669</ele><time>2026-04-06T15:02:27.999Z</time></trkpt><trkpt lat="45.48061014622226" lon="8.611117813799751"><ele>160.0</ele><time>2026-04-06T15:02:28.999Z</time></trkpt><trkpt lat="45.48052903759939" lon="8.611148962094651"><ele>159.8</ele><time>2026-04-06T15:02:29.999Z</time></trkpt><trkpt lat="45.48043081358338" lon="8.61115928234136"><ele>159.6</ele><time>2026-04-06T15:02:30.999Z</time></trkpt><trkpt lat="45.480327559847765" lon="8.611193265220779"><ele>159.4</ele><time>2026-04-06T15:02:31.999Z</time></trkpt><trkpt lat="45.48021740569375" lon="8.611228600699166"><ele>159.2</ele><time>2026-04-06T15:02:32.999Z</time></trkpt><trkpt lat="45.48010462847023" lon="8.611287598334387"><ele>159.0</ele><time>2026-04-06T15:02:33.999Z</time></trkpt><trkpt lat="45.47998565790599" lon="8.611321537402931"><ele>159.0</ele><time>2026-04-06T15:02:34.999Z</time></trkpt><trkpt lat="45.47987010992378" lon="8.611357788936015"><ele>159.0</ele><time>2026-04-06T15:02:35.999Z</time></trkpt><trkpt lat="45.479763567879" lon="8.611397631507977"><ele>159.0</ele><time>2026-04-06T15:02:36.999Z</time></trkpt><trkpt lat="45.47965305437641" lon="8.611411133407389"><ele>159.0</ele><time>2026-04-06T15:02:37.999Z</time></trkpt><trkpt lat="45.47955019140948" lon="8.611445411473177"><ele>159.0</ele><time>2026-04-06T15:02:38.999Z</time></trkpt><trkpt lat="45.47945324888234" lon="8.611500845908742"><ele>159.0</ele><time>2026-04-06T15:02:39.999Z</time></trkpt><trkpt lat="45.47934898179664" lon="8.611533240260426"><ele>159.0</ele><time>2026-04-06T15:02:40.999Z</time></trkpt><trkpt lat="45.47924459996543" lon="8.611563610403516"><ele>159.0</ele><time>2026-04-06T15:02:41.999Z</time></trkpt><trkpt lat="45.47914799953244" lon="8.61159323093473"><ele>159.0</ele><time>2026-04-06T15:02:42.999Z</time></trkpt><trkpt lat="45.47905764310069" lon="8.611621338646367"><ele>159.0</ele><time>2026-04-06T15:02:43.999Z</time></trkpt><trkpt lat="45.478970554197254" lon="8.611652692034799"><ele>159.0</ele><time>2026-04-06T15:02:44.999Z</time></trkpt><trkpt lat="45.47889447904368" lon="8.611681150180916"><ele>159.0</ele><time>2026-04-06T15:02:45.999Z</time></trkpt><trkpt lat="45.478827603721584" lon="8.611705179411567"><ele>159.0</ele><time>2026-04-06T15:02:46.999Z</time></trkpt><trkpt lat="45.478717791754185" lon="8.611736724818394"><ele>159.0</ele><time>2026-04-06T15:02:48.999Z</time></trkpt><trkpt lat="45.478642540257546" lon="8.611717866936292"><ele>159.0</ele><time>2026-04-06T15:02:51.001Z</time></trkpt><trkpt lat="45.47861027210463" lon="8.611587076252135"><ele>159.0</ele><time>2026-04-06T15:02:54.001Z</time></trkpt><trkpt lat="45.478677970032805" lon="8.611538451689356"><ele>159.0</ele><time>2026-04-06T15:02:55Z</time></trkpt><trkpt lat="45.47867806844481" lon="8.61142252098068"><ele>159.0</ele><time>2026-04-06T15:02:58Z</time></trkpt><trkpt lat="45.47869407064671" lon="8.611315672800357"><ele>159.0</ele><time>2026-04-06T15:03:00Z</time></trkpt><trkpt lat="45.47872102317344" lon="8.61121335506734"><ele>159.0</ele><time>2026-04-06T15:03:02Z</time></trkpt><trkpt lat="45.47875427991793" lon="8.61106717385601"><ele>159.0</ele><time>2026-04-06T15:03:04Z</time></trkpt><trkpt lat="45.47876996263085" lon="8.610970228356155"><ele>159.0</ele><time>2026-04-06T15:03:05Z</time></trkpt><trkpt lat="45.47878670086679" lon="8.610859007774177"><ele>158.83333333333334</ele><time>2026-04-06T15:03:06Z</time></trkpt><trkpt lat="45.478799544739346" lon="8.610752966260778"><ele>158.66666666666666</ele><time>2026-04-06T15:03:07Z</time></trkpt><trkpt lat="45.47881141922508" lon="8.610654069715382"><ele>158.5</ele><time>2026-04-06T15:03:08Z</time></trkpt><trkpt lat="45.478839942706614" lon="8.610493131044324"><ele>158.33333333333331</ele><time>2026-04-06T15:03:09Z</time></trkpt><trkpt lat="45.47885491461054" lon="8.610378366257011"><ele>158.16666666666666</ele><time>2026-04-06T15:03:10Z</time></trkpt><trkpt lat="45.47887655409019" lon="8.61026505143194"><ele>158.0</ele><time>2026-04-06T15:03:11Z</time></trkpt><trkpt lat="45.4788968279647" lon="8.610158350820395"><ele>158.00000000000003</ele><time>2026-04-06T15:03:12Z</time></trkpt><trkpt lat="45.47891250858528" lon="8.61005510992176"><ele>158.0</ele><time>2026-04-06T15:03:13Z</time></trkpt><trkpt lat="45.478926264748054" lon="8.609940628331929"><ele>158.0</ele><time>2026-04-06T15:03:14Z</time></trkpt><trkpt lat="45.478944238995275" lon="8.609838143962378"><ele>158.0</ele><time>2026-04-06T15:03:15Z</time></trkpt><trkpt lat="45.478958761999394" lon="8.609737399692754"><ele>158.0</ele><time>2026-04-06T15:03:16Z</time></trkpt><trkpt lat="45.47897048846494" lon="8.609637127315832"><ele>158.00000000000003</ele><time>2026-04-06T15:03:17Z</time></trkpt><trkpt lat="45.478981980479595" lon="8.60953684535487"><ele>158.0</ele><time>2026-04-06T15:03:18Z</time></trkpt><trkpt lat="45.47900924650338" lon="8.609437427022634"><ele>158.0</ele><time>2026-04-06T15:03:19Z</time></trkpt><trkpt lat="45.479039287167005" lon="8.609331842238381"><ele>158.0</ele><time>2026-04-06T15:03:20Z</time></trkpt><trkpt lat="45.479055088975606" lon="8.609216989635996"><ele>158.0</ele><time>2026-04-06T15:03:21Z</time></trkpt><trkpt lat="45.479074229799416" lon="8.609111853666342"><ele>158.0</ele><time>2026-04-06T15:03:22Z</time></trkpt><trkpt lat="45.47908078393921" lon="8.609015274046799"><ele>158.0</ele><time>2026-04-06T15:03:23Z</time></trkpt><trkpt lat="45.47909652040191" lon="8.608919985302661"><ele>158.0</ele><time>2026-04-06T15:03:24Z</time></trkpt><trkpt lat="45.47915770266211" lon="8.608756792683453"><ele>158.0</ele><time>2026-04-06T15:03:26Z</time></trkpt><trkpt lat="45.47917222634175" lon="8.608656954695181"><ele>158.0</ele><time>2026-04-06T15:03:27Z</time></trkpt><trkpt lat="45.47918746712724" lon="8.608560185849061"><ele>158.0</ele><time>2026-04-06T15:03:28Z</time></trkpt><trkpt lat="45.47920213543464" lon="8.608465109372785"><ele>158.0</ele><time>2026-04-06T15:03:29Z</time></trkpt><trkpt lat="45.47921601075313" lon="8.608375172714112"><ele>158.0</ele><time>2026-04-06T15:03:30Z</time></trkpt><trkpt lat="45.47922893088965" lon="8.608220305915202"><ele>158.0</ele><time>2026-04-06T15:03:32Z</time></trkpt><trkpt lat="45.47926291559809" lon="8.608088431434819"><ele>158.0</ele><time>2026-04-06T15:03:34Z</time></trkpt><trkpt lat="45.47928421417468" lon="8.60796278054351"><ele>158.0</ele><time>2026-04-06T15:03:36Z</time></trkpt><trkpt lat="45.47929724494403" lon="8.60785317316198"><ele>158.0</ele><time>2026-04-06T15:03:38Z</time></trkpt><trkpt lat="45.47928305331954" lon="8.60796356708159"><ele>158.0</ele><time>2026-04-06T15:04:11Z</time></trkpt><trkpt lat="45.479255411348284" lon="8.608190059267283"><ele>158.0</ele><time>2026-04-06T15:04:13Z</time></trkpt><trkpt lat="45.479213032984404" lon="8.60827087326285"><ele>158.0</ele><time>2026-04-06T15:04:16Z</time></trkpt><trkpt lat="45.47918837717215" lon="8.608418110996235"><ele>158.0</ele><time>2026-04-06T15:04:18Z</time></trkpt><trkpt lat="45.47915705034181" lon="8.608579014852026"><ele>158.0</ele><time>2026-04-06T15:04:20Z</time></trkpt><trkpt lat="45.47912789581147" lon="8.608732497023196"><ele>158.0</ele><time>2026-04-06T15:04:22Z</time></trkpt><trkpt lat="45.47910713032885" lon="8.608899287350264"><ele>158.0</ele><time>2026-04-06T15:04:23.999Z</time></trkpt><trkpt lat="45.47908922553662" lon="8.609009598191454"><ele>158.0</ele><time>2026-04-06T15:04:24.999Z</time></trkpt><trkpt lat="45.47906264203542" lon="8.609172834146094"><ele>158.0</ele><time>2026-04-06T15:04:25.999Z</time></trkpt><trkpt lat="45.479036980640096" lon="8.609336693183458"><ele>158.0</ele><time>2026-04-06T15:04:26.999Z</time></trkpt><trkpt lat="45.47901586941561" lon="8.609465140571293"><ele>158.0</ele><time>2026-04-06T15:04:27.999Z</time></trkpt><trkpt lat="45.478992707242035" lon="8.609574172758663"><ele>158.20000000000002</ele><time>2026-04-06T15:04:28.999Z</time></trkpt><trkpt lat="45.47897587791446" lon="8.609670163975657"><ele>158.4</ele><time>2026-04-06T15:04:29.999Z</time></trkpt><trkpt lat="45.47896137086432" lon="8.609760546639267"><ele>158.60000000000002</ele><time>2026-04-06T15:04:30.999Z</time></trkpt><trkpt lat="45.47877063162137" lon="8.60979085723557"><ele>158.8</ele><time>2026-04-06T15:04:31.999Z</time></trkpt><trkpt lat="45.478744589201646" lon="8.609920606349837"><ele>159.0</ele><time>2026-04-06T15:04:33.999Z</time></trkpt><trkpt lat="45.478728399813185" lon="8.610013520956372"><ele>159.0</ele><time>2026-04-06T15:04:35.999Z</time></trkpt><trkpt lat="45.478709372809384" lon="8.610122265508545"><ele>159.0</ele><time>2026-04-06T15:04:38.999Z</time></trkpt><trkpt lat="45.478690309497864" lon="8.610231193444788"><ele>159.0</ele><time>2026-04-06T15:04:41.999Z</time></trkpt><trkpt lat="45.47865670823112" lon="8.61042319153351"><ele>159.0</ele><time>2026-04-06T15:04:43.999Z</time></trkpt><trkpt lat="45.47863573921754" lon="8.610543008502576"><ele>159.0</ele><time>2026-04-06T15:04:44.999Z</time></trkpt><trkpt lat="45.47861552558789" lon="8.610658507154227"><ele>159.0</ele><time>2026-04-06T15:04:45.999Z</time></trkpt><trkpt lat="45.47859596375599" lon="8.610760741438055"><ele>159.0</ele><time>2026-04-06T15:04:46.999Z</time></trkpt><trkpt lat="45.47857616184339" lon="8.610871555884213"><ele>159.0</ele><time>2026-04-06T15:04:47.999Z</time></trkpt><trkpt lat="45.478556317025145" lon="8.610991033134045"><ele>159.0</ele><time>2026-04-06T15:04:48.999Z</time></trkpt><trkpt lat="45.47853985291635" lon="8.611098674284227"><ele>159.0</ele><time>2026-04-06T15:04:49.999Z</time></trkpt><trkpt lat="45.47852502726334" lon="8.611195603756112"><ele>159.0</ele><time>2026-04-06T15:04:50.999Z</time></trkpt><trkpt lat="45.47849852267039" lon="8.611368887424064"><ele>159.0</ele><time>2026-04-06T15:04:52.999Z</time></trkpt><trkpt lat="45.478478201989525" lon="8.611501736766614"><ele>159.0</ele><time>2026-04-06T15:04:54.999Z</time></trkpt><trkpt lat="45.47846363421055" lon="8.611596975548618"><ele>159.0</ele><time>2026-04-06T15:04:57Z</time></trkpt><trkpt lat="45.47860020912404" lon="8.611686238921944"><ele>159.0</ele><time>2026-04-06T15:04:58Z</time></trkpt><trkpt lat="45.47860769102097" lon="8.611807780780369"><ele>159.0</ele><time>2026-04-06T15:05:04Z</time></trkpt><trkpt lat="45.47848198629497" lon="8.611825417255085"><ele>159.0</ele><time>2026-04-06T15:05:05Z</time></trkpt><trkpt lat="45.478390201877644" lon="8.611841724682009"><ele>159.0</ele><time>2026-04-06T15:05:06Z</time></trkpt><trkpt lat="45.47829670623471" lon="8.611868290526262"><ele>159.0</ele><time>2026-04-06T15:05:07Z</time></trkpt><trkpt lat="45.47819969663919" lon="8.611897797681868"><ele>159.0</ele><time>2026-04-06T15:05:08Z</time></trkpt><trkpt lat="45.47808240982502" lon="8.61193672322524"><ele>159.0</ele><time>2026-04-06T15:05:09Z</time></trkpt><trkpt lat="45.47796852575424" lon="8.611975349160812"><ele>158.75</ele><time>2026-04-06T15:05:10Z</time></trkpt><trkpt lat="45.47786215306237" lon="8.612010336657187"><ele>158.5</ele><time>2026-04-06T15:05:11Z</time></trkpt><trkpt lat="45.47775303921534" lon="8.612044105707282"><ele>158.25</ele><time>2026-04-06T15:05:12Z</time></trkpt><trkpt lat="45.47763875481942" lon="8.612080357487082"><ele>158.0</ele><time>2026-04-06T15:05:13Z</time></trkpt><trkpt lat="45.47751543243994" lon="8.612122981164648"><ele>158.0</ele><time>2026-04-06T15:05:14Z</time></trkpt><trkpt lat="45.47739686280279" lon="8.61216456455063"><ele>158.0</ele><time>2026-04-06T15:05:15Z</time></trkpt><trkpt lat="45.47728252048873" lon="8.612200586325816"><ele>158.0</ele><time>2026-04-06T15:05:16Z</time></trkpt><trkpt lat="45.47717104771259" lon="8.612234790476146"><ele>158.0</ele><time>2026-04-06T15:05:17Z</time></trkpt><trkpt lat="45.47706011396499" lon="8.612269657741132"><ele>158.0</ele><time>2026-04-06T15:05:18Z</time></trkpt><trkpt lat="45.476953443818175" lon="8.612299204252645"><ele>158.0</ele><time>2026-04-06T15:05:19Z</time></trkpt><trkpt lat="45.47684060472009" lon="8.612329390878548"><ele>158.0</ele><time>2026-04-06T15:05:20Z</time></trkpt><trkpt lat="45.476731446688994" lon="8.612358997150428"><ele>158.0</ele><time>2026-04-06T15:05:21Z</time></trkpt><trkpt lat="45.4766186409813" lon="8.612392143674267"><ele>158.0</ele><time>2026-04-06T15:05:22Z</time></trkpt><trkpt lat="45.476503678179704" lon="8.612430206884495"><ele>158.0</ele><time>2026-04-06T15:05:23Z</time></trkpt><trkpt lat="45.476388042153914" lon="8.61245954558536"><ele>158.0</ele><time>2026-04-06T15:05:24Z</time></trkpt><trkpt lat="45.476279524011844" lon="8.612486114199935"><ele>158.0</ele><time>2026-04-06T15:05:25Z</time></trkpt><trkpt lat="45.4761665468882" lon="8.612511629598618"><ele>158.0</ele><time>2026-04-06T15:05:26Z</time></trkpt><trkpt lat="45.476047542463746" lon="8.61254513556159"><ele>158.0</ele><time>2026-04-06T15:05:27Z</time></trkpt><trkpt lat="45.475927256511476" lon="8.612586477494467"><ele>158.0</ele><time>2026-04-06T15:05:28Z</time></trkpt><trkpt lat="45.4757984922085" lon="8.612599595846184"><ele>158.0</ele><time>2026-04-06T15:05:29Z</time></trkpt><trkpt lat="45.47566291437518" lon="8.612636776722448"><ele>158.0</ele><time>2026-04-06T15:05:30Z</time></trkpt><trkpt lat="45.47551653853374" lon="8.612677617076837"><ele>158.0</ele><time>2026-04-06T15:05:31Z</time></trkpt><trkpt lat="45.475355930741905" lon="8.61272242183495"><ele>158.0</ele><time>2026-04-06T15:05:32Z</time></trkpt><trkpt lat="45.47520234431745" lon="8.612765580171802"><ele>157.33333333333331</ele><time>2026-04-06T15:05:33Z</time></trkpt><trkpt lat="45.47505288174736" lon="8.612824915678573"><ele>156.66666666666666</ele><time>2026-04-06T15:05:34Z</time></trkpt><trkpt lat="45.474897701876344" lon="8.612858480628153"><ele>156.0</ele><time>2026-04-06T15:05:35Z</time></trkpt><trkpt lat="45.474730956645956" lon="8.612894733033519"><ele>156.0</ele><time>2026-04-06T15:05:36Z</time></trkpt><trkpt lat="45.47456829673931" lon="8.612932100644228"><ele>156.0</ele><time>2026-04-06T15:05:37Z</time></trkpt><trkpt lat="45.47440560485192" lon="8.61296748745319"><ele>156.0</ele><time>2026-04-06T15:05:38Z</time></trkpt><trkpt lat="45.4742407778022" lon="8.613008795088817"><ele>156.0</ele><time>2026-04-06T15:05:39Z</time></trkpt><trkpt lat="45.47407306689058" lon="8.61305456378871"><ele>156.0</ele><time>2026-04-06T15:05:40Z</time></trkpt><trkpt lat="45.47390341201346" lon="8.613097607435426"><ele>156.0</ele><time>2026-04-06T15:05:41Z</time></trkpt><trkpt lat="45.473729661512024" lon="8.613139972078237"><ele>155.66666666666666</ele><time>2026-04-06T15:05:42Z</time></trkpt><trkpt lat="45.47355242838568" lon="8.613186286908608"><ele>155.33333333333331</ele><time>2026-04-06T15:05:43Z</time></trkpt><trkpt lat="45.47337753551015" lon="8.613231698921465"><ele>155.0</ele><time>2026-04-06T15:05:44Z</time></trkpt><trkpt lat="45.47320343549864" lon="8.61327550833037"><ele>155.0</ele><time>2026-04-06T15:05:45Z</time></trkpt><trkpt lat="45.473034555253605" lon="8.613320653946877"><ele>155.0</ele><time>2026-04-06T15:05:46Z</time></trkpt><trkpt lat="45.47286730401979" lon="8.613365186514644"><ele>155.0</ele><time>2026-04-06T15:05:47Z</time></trkpt><trkpt lat="45.47270033855569" lon="8.613409342235597"><ele>155.0</ele><time>2026-04-06T15:05:48Z</time></trkpt><trkpt lat="45.472534259739724" lon="8.613450222533785"><ele>155.0</ele><time>2026-04-06T15:05:49Z</time></trkpt><trkpt lat="45.472371775662445" lon="8.613491352008745"><ele>155.0</ele><time>2026-04-06T15:05:50Z</time></trkpt><trkpt lat="45.47220646929977" lon="8.613535857105477"><ele>155.33333333333331</ele><time>2026-04-06T15:05:51Z</time></trkpt><trkpt lat="45.47204453267476" lon="8.613579675263258"><ele>155.66666666666666</ele><time>2026-04-06T15:05:52Z</time></trkpt><trkpt lat="45.47188038836804" lon="8.613620757975033"><ele>156.0</ele><time>2026-04-06T15:05:53Z</time></trkpt><trkpt lat="45.47171954841814" lon="8.61366246070121"><ele>156.0</ele><time>2026-04-06T15:05:54Z</time></trkpt><trkpt lat="45.47156166015383" lon="8.613701595229381"><ele>156.0</ele><time>2026-04-06T15:05:55Z</time></trkpt><trkpt lat="45.4714023095671" lon="8.613742438484095"><ele>156.0</ele><time>2026-04-06T15:05:56Z</time></trkpt><trkpt lat="45.47124438419365" lon="8.61378796327312"><ele>155.66666666666666</ele><time>2026-04-06T15:05:57Z</time></trkpt><trkpt lat="45.47108438266614" lon="8.613834508175358"><ele>155.33333333333331</ele><time>2026-04-06T15:05:58Z</time></trkpt><trkpt lat="45.47093086022103" lon="8.61387936199219"><ele>155.0</ele><time>2026-04-06T15:05:59Z</time></trkpt><trkpt lat="45.47077699916587" lon="8.613919152854892"><ele>155.0</ele><time>2026-04-06T15:06:00Z</time></trkpt><trkpt lat="45.470615451109964" lon="8.613956077204948"><ele>155.0</ele><time>2026-04-06T15:06:01Z</time></trkpt><trkpt lat="45.47046022355886" lon="8.614003819662516"><ele>155.0</ele><time>2026-04-06T15:06:02Z</time></trkpt><trkpt lat="45.47031358935604" lon="8.614042845092277"><ele>154.5</ele><time>2026-04-06T15:06:03Z</time></trkpt><trkpt lat="45.47017209952669" lon="8.61408060161723"><ele>154.0</ele><time>2026-04-06T15:06:04Z</time></trkpt><trkpt lat="45.47004010477864" lon="8.614117786845298"><ele>153.5</ele><time>2026-04-06T15:06:04.999Z</time></trkpt><trkpt lat="45.46991642576183" lon="8.61414937381627"><ele>153.0</ele><time>2026-04-06T15:06:05.999Z</time></trkpt><trkpt lat="45.469802141224854" lon="8.614179914775217"><ele>153.0</ele><time>2026-04-06T15:06:06.999Z</time></trkpt><trkpt lat="45.46969254033655" lon="8.614209922668975"><ele>153.0</ele><time>2026-04-06T15:06:07.999Z</time></trkpt><trkpt lat="45.46958542546591" lon="8.614240992228494"><ele>153.0</ele><time>2026-04-06T15:06:08.999Z</time></trkpt><trkpt lat="45.46948762983149" lon="8.614269469740787"><ele>153.0</ele><time>2026-04-06T15:06:09.999Z</time></trkpt><trkpt lat="45.469394151094484" lon="8.614298351031655"><ele>153.0</ele><time>2026-04-06T15:06:10.999Z</time></trkpt><trkpt lat="45.46930585438595" lon="8.614325566394664"><ele>153.16666666666666</ele><time>2026-04-06T15:06:11.999Z</time></trkpt><trkpt lat="45.46923496615562" lon="8.614348625607562"><ele>153.33333333333334</ele><time>2026-04-06T15:06:12.999Z</time></trkpt><trkpt lat="45.46914169810629" lon="8.61436903590428"><ele>153.5</ele><time>2026-04-06T15:06:14.999Z</time></trkpt><trkpt lat="45.46906026981374" lon="8.6143810233465"><ele>153.66666666666669</ele><time>2026-04-06T15:06:17.999Z</time></trkpt><trkpt lat="45.46898735566099" lon="8.614396486628992"><ele>153.83333333333334</ele><time>2026-04-06T15:06:59.999Z</time></trkpt><trkpt lat="45.46892358422549" lon="8.614412991403901"><ele>154.0</ele><time>2026-04-06T15:07:00.999Z</time></trkpt><trkpt lat="45.46885955972209" lon="8.614431425428586"><ele>154.0</ele><time>2026-04-06T15:07:02Z</time></trkpt><trkpt lat="45.46878623880189" lon="8.614447938937026"><ele>154.0</ele><time>2026-04-06T15:07:03Z</time></trkpt><trkpt lat="45.468701529917816" lon="8.614465236056859"><ele>154.0</ele><time>2026-04-06T15:07:04Z</time></trkpt><trkpt lat="45.46860077512697" lon="8.614486775009095"><ele>154.0</ele><time>2026-04-06T15:07:05Z</time></trkpt><trkpt lat="45.46850938703894" lon="8.61450984449849"><ele>154.0</ele><time>2026-04-06T15:07:06Z</time></trkpt><trkpt lat="45.46842032338913" lon="8.614533062652415"><ele>154.0</ele><time>2026-04-06T15:07:07Z</time></trkpt><trkpt lat="45.46826048144124" lon="8.614576152604961"><ele>154.5</ele><time>2026-04-06T15:07:08Z</time></trkpt><trkpt lat="45.46815153123159" lon="8.61460231445968"><ele>155.0</ele><time>2026-04-06T15:07:09Z</time></trkpt><trkpt lat="45.46803877776486" lon="8.614633579588087"><ele>155.5</ele><time>2026-04-06T15:07:10Z</time></trkpt><trkpt lat="45.46791471316172" lon="8.61467138709348"><ele>156.0</ele><time>2026-04-06T15:07:11Z</time></trkpt><trkpt lat="45.46778142490462" lon="8.614704693172623"><ele>156.0</ele><time>2026-04-06T15:07:12Z</time></trkpt><trkpt lat="45.46765190572572" lon="8.614736298709364"><ele>156.0</ele><time>2026-04-06T15:07:13Z</time></trkpt><trkpt lat="45.46752172590052" lon="8.614775357115958"><ele>156.0</ele><time>2026-04-06T15:07:14Z</time></trkpt><trkpt lat="45.4673864252419" lon="8.614812862089783"><ele>156.0</ele><time>2026-04-06T15:07:15Z</time></trkpt><trkpt lat="45.46725508719394" lon="8.614837575440616"><ele>156.0</ele><time>2026-04-06T15:07:16Z</time></trkpt><trkpt lat="45.467115728648416" lon="8.614881407805244"><ele>156.0</ele><time>2026-04-06T15:07:17Z</time></trkpt><trkpt lat="45.46697093134741" lon="8.6149119495664"><ele>156.0</ele><time>2026-04-06T15:07:18Z</time></trkpt><trkpt lat="45.46681828690395" lon="8.61494948157053"><ele>156.0</ele><time>2026-04-06T15:07:19Z</time></trkpt><trkpt lat="45.466659899977316" lon="8.614989556696726"><ele>156.0</ele><time>2026-04-06T15:07:20Z</time></trkpt><trkpt lat="45.46651074090403" lon="8.615028169794295"><ele>156.0</ele><time>2026-04-06T15:07:21Z</time></trkpt><trkpt lat="45.46635800499294" lon="8.615063306500128"><ele>156.0</ele><time>2026-04-06T15:07:22Z</time></trkpt><trkpt lat="45.466210836986946" lon="8.615097428392485"><ele>155.5</ele><time>2026-04-06T15:07:23Z</time></trkpt><trkpt lat="45.46606460076627" lon="8.615129144992567"><ele>155.0</ele><time>2026-04-06T15:07:24Z</time></trkpt><trkpt lat="45.465922320017796" lon="8.61516450148038"><ele>154.5</ele><time>2026-04-06T15:07:25Z</time></trkpt><trkpt lat="45.46578368310599" lon="8.615201270074767"><ele>154.0</ele><time>2026-04-06T15:07:26Z</time></trkpt><trkpt lat="45.46565057398654" lon="8.615242933028116"><ele>154.0</ele><time>2026-04-06T15:07:27Z</time></trkpt><trkpt lat="45.46551479871455" lon="8.615280181718974"><ele>154.0</ele><time>2026-04-06T15:07:28Z</time></trkpt><trkpt lat="45.4653811305418" lon="8.615320961613573"><ele>154.0</ele><time>2026-04-06T15:07:29Z</time></trkpt><trkpt lat="45.465257435117344" lon="8.61534413977297"><ele>154.0</ele><time>2026-04-06T15:07:30Z</time></trkpt><trkpt lat="45.465137521449066" lon="8.61538060586056"><ele>154.0</ele><time>2026-04-06T15:07:31Z</time></trkpt><trkpt lat="45.46501310183684" lon="8.615412521294411"><ele>154.0</ele><time>2026-04-06T15:07:32Z</time></trkpt><trkpt lat="45.464889304548144" lon="8.615438954402045"><ele>154.0</ele><time>2026-04-06T15:07:33Z</time></trkpt><trkpt lat="45.46476524971114" lon="8.615475481855455"><ele>154.0</ele><time>2026-04-06T15:07:34Z</time></trkpt><trkpt lat="45.46464149310685" lon="8.61550648257911"><ele>154.5</ele><time>2026-04-06T15:07:35Z</time></trkpt><trkpt lat="45.46451699375435" lon="8.615539409107004"><ele>155.0</ele><time>2026-04-06T15:07:36Z</time></trkpt><trkpt lat="45.464392845795516" lon="8.615570125055916"><ele>155.5</ele><time>2026-04-06T15:07:37Z</time></trkpt><trkpt lat="45.46427276133784" lon="8.61558009106864"><ele>156.0</ele><time>2026-04-06T15:07:38Z</time></trkpt><trkpt lat="45.46415593194188" lon="8.61560989143772"><ele>156.0</ele><time>2026-04-06T15:07:39Z</time></trkpt><trkpt lat="45.46403188207674" lon="8.615641573938483"><ele>156.0</ele><time>2026-04-06T15:07:40Z</time></trkpt><trkpt lat="45.46390769218683" lon="8.615673288045915"><ele>156.0</ele><time>2026-04-06T15:07:41Z</time></trkpt><trkpt lat="45.46378410578973" lon="8.615704848029795"><ele>156.0</ele><time>2026-04-06T15:07:42Z</time></trkpt><trkpt lat="45.46366212104649" lon="8.615735999003498"><ele>156.0</ele><time>2026-04-06T15:07:43Z</time></trkpt><trkpt lat="45.463542495194766" lon="8.615788762146074"><ele>156.0</ele><time>2026-04-06T15:07:44Z</time></trkpt><trkpt lat="45.463424419928764" lon="8.61579737153754"><ele>156.0</ele><time>2026-04-06T15:07:45Z</time></trkpt><trkpt lat="45.46330070621599" lon="8.615829907859066"><ele>156.0</ele><time>2026-04-06T15:07:46Z</time></trkpt><trkpt lat="45.46318045020044" lon="8.61588340997058"><ele>156.0</ele><time>2026-04-06T15:07:47Z</time></trkpt><trkpt lat="45.46306427242056" lon="8.615913885692414"><ele>156.0</ele><time>2026-04-06T15:07:48Z</time></trkpt><trkpt lat="45.46294677762878" lon="8.615945724285078"><ele>156.0</ele><time>2026-04-06T15:07:49Z</time></trkpt><trkpt lat="45.462831148415034" lon="8.61597204031715"><ele>156.0</ele><time>2026-04-06T15:07:50Z</time></trkpt><trkpt lat="45.46272103517466" lon="8.616002986496348"><ele>155.8</ele><time>2026-04-06T15:07:51Z</time></trkpt><trkpt lat="45.462609590785696" lon="8.616028622834136"><ele>155.6</ele><time>2026-04-06T15:07:52Z</time></trkpt><trkpt lat="45.4625016445539" lon="8.616057190361198"><ele>155.4</ele><time>2026-04-06T15:07:53Z</time></trkpt><trkpt lat="45.462398752611506" lon="8.61609009333345"><ele>155.2</ele><time>2026-04-06T15:07:54Z</time></trkpt><trkpt lat="45.46229051039276" lon="8.616094992329247"><ele>155.0</ele><time>2026-04-06T15:07:55Z</time></trkpt><trkpt lat="45.462182036357206" lon="8.616122133429974"><ele>154.8</ele><time>2026-04-06T15:07:56Z</time></trkpt><trkpt lat="45.462084206138044" lon="8.616147209483907"><ele>154.6</ele><time>2026-04-06T15:07:56.999Z</time></trkpt><trkpt lat="45.46198666225083" lon="8.61619345650184"><ele>154.4</ele><time>2026-04-06T15:07:57.999Z</time></trkpt><trkpt lat="45.46188199409662" lon="8.616211431982933"><ele>154.2</ele><time>2026-04-06T15:07:58.999Z</time></trkpt><trkpt lat="45.4617872762904" lon="8.616241990995588"><ele>154.0</ele><time>2026-04-06T15:07:59.999Z</time></trkpt><trkpt lat="45.46168248568648" lon="8.61624824042422"><ele>154.0</ele><time>2026-04-06T15:08:00.999Z</time></trkpt><trkpt lat="45.461580009463425" lon="8.616274367682244"><ele>154.0</ele><time>2026-04-06T15:08:01.999Z</time></trkpt><trkpt lat="45.46147558461867" lon="8.616301048086399"><ele>154.0</ele><time>2026-04-06T15:08:02.999Z</time></trkpt><trkpt lat="45.461372488231355" lon="8.61632730753448"><ele>154.0</ele><time>2026-04-06T15:08:03.999Z</time></trkpt><trkpt lat="45.46127090610962" lon="8.6163529074952"><ele>154.0</ele><time>2026-04-06T15:08:04.999Z</time></trkpt><trkpt lat="45.461168974021774" lon="8.616378595642239"><ele>154.0</ele><time>2026-04-06T15:08:05.999Z</time></trkpt><trkpt lat="45.461066580275" lon="8.61640440013011"><ele>154.0</ele><time>2026-04-06T15:08:06.999Z</time></trkpt><trkpt lat="45.46096506658656" lon="8.616429982824222"><ele>154.0</ele><time>2026-04-06T15:08:07.999Z</time></trkpt><trkpt lat="45.46086202912012" lon="8.61645541565845"><ele>154.0</ele><time>2026-04-06T15:08:08.999Z</time></trkpt><trkpt lat="45.4607571309375" lon="8.616480718166972"><ele>154.0</ele><time>2026-04-06T15:08:09.999Z</time></trkpt><trkpt lat="45.460651406632664" lon="8.616506219941877"><ele>154.0</ele><time>2026-04-06T15:08:10.999Z</time></trkpt><trkpt lat="45.46054683959741" lon="8.616531442569197"><ele>154.0</ele><time>2026-04-06T15:08:11.999Z</time></trkpt><trkpt lat="45.46044803551483" lon="8.616556638989541"><ele>154.0</ele><time>2026-04-06T15:08:12.999Z</time></trkpt><trkpt lat="45.460351029904146" lon="8.616581707796268"><ele>154.0</ele><time>2026-04-06T15:08:13.999Z</time></trkpt><trkpt lat="45.460252124794316" lon="8.616608423832908"><ele>154.0</ele><time>2026-04-06T15:08:14.999Z</time></trkpt><trkpt lat="45.460151906336165" lon="8.616638937173498"><ele>153.8</ele><time>2026-04-06T15:08:15.999Z</time></trkpt><trkpt lat="45.4600511955469" lon="8.616661262608128"><ele>153.60000000000002</ele><time>2026-04-06T15:08:16.999Z</time></trkpt><trkpt lat="45.459938222890656" lon="8.616686305825443"><ele>153.4</ele><time>2026-04-06T15:08:17.999Z</time></trkpt><trkpt lat="45.45982576478674" lon="8.616711235195494"><ele>153.20000000000002</ele><time>2026-04-06T15:08:18.999Z</time></trkpt><trkpt lat="45.45971867676016" lon="8.616742437414329"><ele>153.0</ele><time>2026-04-06T15:08:19.999Z</time></trkpt><trkpt lat="45.45962058595254" lon="8.61677013344723"><ele>153.0</ele><time>2026-04-06T15:08:20.999Z</time></trkpt><trkpt lat="45.45952360580575" lon="8.616794272969502"><ele>153.0</ele><time>2026-04-06T15:08:21.999Z</time></trkpt><trkpt lat="45.459427118342795" lon="8.616818878016884"><ele>153.0</ele><time>2026-04-06T15:08:22.999Z</time></trkpt><trkpt lat="45.45932387241849" lon="8.61684520442735"><ele>153.0</ele><time>2026-04-06T15:08:23.999Z</time></trkpt><trkpt lat="45.459220504814965" lon="8.616872027470086"><ele>153.0</ele><time>2026-04-06T15:08:24.999Z</time></trkpt><trkpt lat="45.45910818742559" lon="8.616901185134681"><ele>153.0</ele><time>2026-04-06T15:08:25.999Z</time></trkpt><trkpt lat="45.459002665037" lon="8.616928578814065"><ele>153.0</ele><time>2026-04-06T15:08:26.999Z</time></trkpt><trkpt lat="45.458898145744605" lon="8.616956459221596"><ele>153.0</ele><time>2026-04-06T15:08:27.999Z</time></trkpt><trkpt lat="45.458780917973876" lon="8.616987787880856"><ele>153.0</ele><time>2026-04-06T15:08:28.999Z</time></trkpt><trkpt lat="45.458663609660626" lon="8.6170191380846"><ele>152.6</ele><time>2026-04-06T15:08:29.999Z</time></trkpt><trkpt lat="45.45855077791866" lon="8.617048752115313"><ele>152.20000000000002</ele><time>2026-04-06T15:08:30.999Z</time></trkpt><trkpt lat="45.458450897169044" lon="8.617074835473693"><ele>151.8</ele><time>2026-04-06T15:08:31.999Z</time></trkpt><trkpt lat="45.45834689542092" lon="8.617101994972888"><ele>151.4</ele><time>2026-04-06T15:08:32.999Z</time></trkpt><trkpt lat="45.45823981150702" lon="8.617129959433337"><ele>151.0</ele><time>2026-04-06T15:08:33.999Z</time></trkpt><trkpt lat="45.45813195615767" lon="8.617157425541208"><ele>151.0</ele><time>2026-04-06T15:08:34.999Z</time></trkpt><trkpt lat="45.458022332319686" lon="8.61718510832666"><ele>151.0</ele><time>2026-04-06T15:08:35.999Z</time></trkpt><trkpt lat="45.45791337712572" lon="8.617212622266402"><ele>151.0</ele><time>2026-04-06T15:08:36.999Z</time></trkpt><trkpt lat="45.457808301289994" lon="8.617239156571308"><ele>151.0</ele><time>2026-04-06T15:08:37.999Z</time></trkpt><trkpt lat="45.45770298902291" lon="8.617265750126782"><ele>151.0</ele><time>2026-04-06T15:08:38.999Z</time></trkpt><trkpt lat="45.4575994901994" lon="8.61729102569949"><ele>151.4</ele><time>2026-04-06T15:08:39.999Z</time></trkpt><trkpt lat="45.457496032471695" lon="8.617316651351599"><ele>151.8</ele><time>2026-04-06T15:08:40.999Z</time></trkpt><trkpt lat="45.457384088212336" lon="8.617344502882489"><ele>152.20000000000002</ele><time>2026-04-06T15:08:41.999Z</time></trkpt><trkpt lat="45.45727550163385" lon="8.617372332591401"><ele>152.6</ele><time>2026-04-06T15:08:42.999Z</time></trkpt><trkpt lat="45.45716208557771" lon="8.617401400024088"><ele>153.0</ele><time>2026-04-06T15:08:43.999Z</time></trkpt><trkpt lat="45.457050414193" lon="8.617430020338949"><ele>153.0</ele><time>2026-04-06T15:08:44.999Z</time></trkpt><trkpt lat="45.45693769904342" lon="8.61745890814884"><ele>153.0</ele><time>2026-04-06T15:08:45.999Z</time></trkpt><trkpt lat="45.45682490551719" lon="8.61748781604696"><ele>153.0</ele><time>2026-04-06T15:08:46.999Z</time></trkpt><trkpt lat="45.45671185886874" lon="8.617516788817378"><ele>153.0</ele><time>2026-04-06T15:08:47.999Z</time></trkpt><trkpt lat="45.45660467821056" lon="8.617585143460804"><ele>153.0</ele><time>2026-04-06T15:08:48.999Z</time></trkpt><trkpt lat="45.45648911086752" lon="8.617610148161583"><ele>153.0</ele><time>2026-04-06T15:08:49.999Z</time></trkpt><trkpt lat="45.45638069181566" lon="8.617637948459784"><ele>153.0</ele><time>2026-04-06T15:08:50.999Z</time></trkpt><trkpt lat="45.456264709328316" lon="8.61766198943238"><ele>153.0</ele><time>2026-04-06T15:08:51.999Z</time></trkpt><trkpt lat="45.45615625935362" lon="8.61765983826051"><ele>152.83333333333334</ele><time>2026-04-06T15:08:52.999Z</time></trkpt><trkpt lat="45.4560567837118" lon="8.617685214980042"><ele>152.66666666666666</ele><time>2026-04-06T15:08:53.999Z</time></trkpt><trkpt lat="45.45596404482524" lon="8.617708873138486"><ele>152.5</ele><time>2026-04-06T15:08:54.999Z</time></trkpt><trkpt lat="45.45587769734096" lon="8.617752582561709"><ele>152.33333333333331</ele><time>2026-04-06T15:08:55.999Z</time></trkpt><trkpt lat="45.45580366983938" lon="8.617755385217613"><ele>152.16666666666666</ele><time>2026-04-06T15:08:56.999Z</time></trkpt><trkpt lat="45.45574227350433" lon="8.617784661398321"><ele>152.0</ele><time>2026-04-06T15:08:57.999Z</time></trkpt><trkpt lat="45.455641291826666" lon="8.617805358511088"><ele>152.0</ele><time>2026-04-06T15:08:59.999Z</time></trkpt><trkpt lat="45.45552004063879" lon="8.61783341165085"><ele>152.0</ele><time>2026-04-06T15:09:01.999Z</time></trkpt><trkpt lat="45.45545708476118" lon="8.617848986097643"><ele>152.0</ele><time>2026-04-06T15:09:02.999Z</time></trkpt><trkpt lat="45.45538300297843" lon="8.617867166033987"><ele>152.0</ele><time>2026-04-06T15:09:03.999Z</time></trkpt><trkpt lat="45.45530927554988" lon="8.61789741260936"><ele>152.0</ele><time>2026-04-06T15:09:04.999Z</time></trkpt><trkpt lat="45.45522753284055" lon="8.617925463995094"><ele>152.0</ele><time>2026-04-06T15:09:05.999Z</time></trkpt><trkpt lat="45.45513395117573" lon="8.617980019417558"><ele>152.0</ele><time>2026-04-06T15:09:06.999Z</time></trkpt><trkpt lat="45.45504873579108" lon="8.618048169994386"><ele>152.0</ele><time>2026-04-06T15:09:08Z</time></trkpt><trkpt lat="45.45496501312936" lon="8.618122092714458"><ele>152.0</ele><time>2026-04-06T15:09:09Z</time></trkpt><trkpt lat="45.454884850610455" lon="8.61821389635418"><ele>152.0</ele><time>2026-04-06T15:09:10Z</time></trkpt><trkpt lat="45.454807061101924" lon="8.618289757598735"><ele>152.0</ele><time>2026-04-06T15:09:11Z</time></trkpt><trkpt lat="45.45473076949724" lon="8.61837288732227"><ele>152.0</ele><time>2026-04-06T15:09:12Z</time></trkpt><trkpt lat="45.45465225115157" lon="8.618458332537008"><ele>152.0</ele><time>2026-04-06T15:09:13Z</time></trkpt><trkpt lat="45.45457223381626" lon="8.618552348330523"><ele>152.0</ele><time>2026-04-06T15:09:14Z</time></trkpt><trkpt lat="45.45448220508423" lon="8.618645413467892"><ele>152.0</ele><time>2026-04-06T15:09:15Z</time></trkpt><trkpt lat="45.454386647202256" lon="8.618752212713064"><ele>152.0</ele><time>2026-04-06T15:09:16Z</time></trkpt><trkpt lat="45.45429154397192" lon="8.618840874021167"><ele>152.0</ele><time>2026-04-06T15:09:17Z</time></trkpt><trkpt lat="45.45419318207642" lon="8.61894759957421"><ele>152.0</ele><time>2026-04-06T15:09:18Z</time></trkpt><trkpt lat="45.45409081408308" lon="8.619053447746309"><ele>152.0</ele><time>2026-04-06T15:09:19Z</time></trkpt><trkpt lat="45.45398501744968" lon="8.619175489390749"><ele>152.0</ele><time>2026-04-06T15:09:20Z</time></trkpt><trkpt lat="45.453863890173686" lon="8.619297301911734"><ele>152.5</ele><time>2026-04-06T15:09:21Z</time></trkpt><trkpt lat="45.453739715226085" lon="8.619422124767077"><ele>153.0</ele><time>2026-04-06T15:09:22Z</time></trkpt><trkpt lat="45.45362209700496" lon="8.619557491115332"><ele>153.5</ele><time>2026-04-06T15:09:23Z</time></trkpt><trkpt lat="45.45350243354293" lon="8.619667663268439"><ele>154.0</ele><time>2026-04-06T15:09:24Z</time></trkpt><trkpt lat="45.45336814918004" lon="8.619815826045757"><ele>154.0</ele><time>2026-04-06T15:09:25Z</time></trkpt><trkpt lat="45.45326596355094" lon="8.61994237958678"><ele>154.0</ele><time>2026-04-06T15:09:26Z</time></trkpt><trkpt lat="45.45316844920091" lon="8.620035535286231"><ele>154.0</ele><time>2026-04-06T15:09:27Z</time></trkpt><trkpt lat="45.45308927859854" lon="8.620110961007867"><ele>154.0</ele><time>2026-04-06T15:09:28Z</time></trkpt><trkpt lat="45.45302770683211" lon="8.620180676138867"><ele>154.0</ele><time>2026-04-06T15:09:29Z</time></trkpt><trkpt lat="45.452941581719266" lon="8.62027001644967"><ele>154.5</ele><time>2026-04-06T15:09:31Z</time></trkpt><trkpt lat="45.45288305639685" lon="8.620333311517768"><ele>155.0</ele><time>2026-04-06T15:09:34Z</time></trkpt><trkpt lat="45.45281219250011" lon="8.620390447820341"><ele>155.5</ele><time>2026-04-06T15:09:36Z</time></trkpt><trkpt lat="45.45274318251372" lon="8.620480460290763"><ele>156.0</ele><time>2026-04-06T15:09:38Z</time></trkpt><trkpt lat="45.452644012750056" lon="8.62054260407992"><ele>156.5</ele><time>2026-04-06T15:09:40Z</time></trkpt><trkpt lat="45.4525749990158" lon="8.620573238849316"><ele>157.0</ele><time>2026-04-06T15:09:41Z</time></trkpt><trkpt lat="45.452516718664306" lon="8.620774318672382"><ele>157.0</ele><time>2026-04-06T15:09:43Z</time></trkpt><trkpt lat="45.45247541662027" lon="8.620954542422087"><ele>157.0</ele><time>2026-04-06T15:09:45Z</time></trkpt><trkpt lat="45.4524489944035" lon="8.62108577336594"><ele>157.0</ele><time>2026-04-06T15:09:46Z</time></trkpt><trkpt lat="45.45242300621114" lon="8.621233177124456"><ele>157.0</ele><time>2026-04-06T15:09:47Z</time></trkpt><trkpt lat="45.452396309420294" lon="8.621370586168172"><ele>157.0</ele><time>2026-04-06T15:09:48Z</time></trkpt><trkpt lat="45.45237434675548" lon="8.621510128910494"><ele>156.6</ele><time>2026-04-06T15:09:49Z</time></trkpt><trkpt lat="45.45235353962905" lon="8.621652688494168"><ele>156.2</ele><time>2026-04-06T15:09:50Z</time></trkpt><trkpt lat="45.45232453319507" lon="8.621793701870056"><ele>155.8</ele><time>2026-04-06T15:09:51Z</time></trkpt><trkpt lat="45.452299059572375" lon="8.621918383515792"><ele>155.4</ele><time>2026-04-06T15:09:52Z</time></trkpt><trkpt lat="45.45228126340424" lon="8.622022022857442"><ele>155.0</ele><time>2026-04-06T15:09:53Z</time></trkpt><trkpt lat="45.45227266429162" lon="8.622193483255781"><ele>155.0</ele><time>2026-04-06T15:09:54.999Z</time></trkpt><trkpt lat="45.452258573136994" lon="8.62228095585038"><ele>155.0</ele><time>2026-04-06T15:09:56.999Z</time></trkpt><trkpt lat="45.45224210703098" lon="8.622370735754405"><ele>155.0</ele><time>2026-04-06T15:10:12.999Z</time></trkpt><trkpt lat="45.45218955607366" lon="8.622463546112053"><ele>155.0</ele><time>2026-04-06T15:10:13.999Z</time></trkpt><trkpt lat="45.45215891219431" lon="8.622597607791871"><ele>155.0</ele><time>2026-04-06T15:10:14.999Z</time></trkpt><trkpt lat="45.45213669888786" lon="8.622688820259897"><ele>155.0</ele><time>2026-04-06T15:10:15.999Z</time></trkpt><trkpt lat="45.45192714545497" lon="8.622652265820264"><ele>155.0</ele><time>2026-04-06T15:10:16.999Z</time></trkpt><trkpt lat="45.45183620407562" lon="8.622641027561208"><ele>155.0</ele><time>2026-04-06T15:10:17.999Z</time></trkpt><trkpt lat="45.45170374633505" lon="8.622611145479668"><ele>155.0</ele><time>2026-04-06T15:10:18.999Z</time></trkpt><trkpt lat="45.451577178355315" lon="8.62258268952901"><ele>155.0</ele><time>2026-04-06T15:10:19.999Z</time></trkpt><trkpt lat="45.45145671830218" lon="8.622544464397373"><ele>155.0</ele><time>2026-04-06T15:10:20.999Z</time></trkpt><trkpt lat="45.45133870799775" lon="8.622516371822773"><ele>155.0</ele><time>2026-04-06T15:10:21.999Z</time></trkpt><trkpt lat="45.4512023141593" lon="8.62247713149388"><ele>155.0</ele><time>2026-04-06T15:10:22.999Z</time></trkpt><trkpt lat="45.451082436289596" lon="8.622440456047745"><ele>155.0</ele><time>2026-04-06T15:10:23.999Z</time></trkpt><trkpt lat="45.4509732459625" lon="8.622411265549713"><ele>155.66666666666666</ele><time>2026-04-06T15:10:24.999Z</time></trkpt><trkpt lat="45.45087668820309" lon="8.62237727523283"><ele>156.33333333333331</ele><time>2026-04-06T15:10:25.999Z</time></trkpt><trkpt lat="45.450779030547906" lon="8.62234469871532"><ele>157.0</ele><time>2026-04-06T15:10:26.999Z</time></trkpt><trkpt lat="45.450688793223776" lon="8.622321290110145"><ele>157.66666666666666</ele><time>2026-04-06T15:10:27.999Z</time></trkpt><trkpt lat="45.45060721729821" lon="8.622297450910075"><ele>158.33333333333334</ele><time>2026-04-06T15:10:28.999Z</time></trkpt><trkpt lat="45.450534261752864" lon="8.622286215231329"><ele>159.0</ele><time>2026-04-06T15:10:29.999Z</time></trkpt><trkpt lat="45.45046424623962" lon="8.622264824915353"><ele>159.0</ele><time>2026-04-06T15:10:30.999Z</time></trkpt><trkpt lat="45.450339281352186" lon="8.622231159774946"><ele>159.0</ele><time>2026-04-06T15:10:32.999Z</time></trkpt><trkpt lat="45.45025021864799" lon="8.622207208180148"><ele>159.0</ele><time>2026-04-06T15:10:33.999Z</time></trkpt><trkpt lat="45.450158055508346" lon="8.622179147540432"><ele>159.0</ele><time>2026-04-06T15:10:34.999Z</time></trkpt><trkpt lat="45.45007895143384" lon="8.622163594212322"><ele>159.0</ele><time>2026-04-06T15:10:35.999Z</time></trkpt><trkpt lat="45.45000736583771" lon="8.622168525735587"><ele>159.0</ele><time>2026-04-06T15:10:36.999Z</time></trkpt><trkpt lat="45.44994295688223" lon="8.622149147783492"><ele>159.0</ele><time>2026-04-06T15:10:39.999Z</time></trkpt><trkpt lat="45.44983480562585" lon="8.62211071788613"><ele>159.0</ele><time>2026-04-06T15:10:58.999Z</time></trkpt><trkpt lat="45.44976987255446" lon="8.622110472241035"><ele>159.0</ele><time>2026-04-06T15:10:59.999Z</time></trkpt><trkpt lat="45.449692508906104" lon="8.62213920085995"><ele>159.0</ele><time>2026-04-06T15:11:01.999Z</time></trkpt><trkpt lat="45.44960471917235" lon="8.622410389170264"><ele>160.25</ele><time>2026-04-06T15:11:02.999Z</time></trkpt><trkpt lat="45.449544580650176" lon="8.622552875099109"><ele>161.5</ele><time>2026-04-06T15:11:03.999Z</time></trkpt><trkpt lat="45.449485447703694" lon="8.622699553249447"><ele>162.75</ele><time>2026-04-06T15:11:04.999Z</time></trkpt><trkpt lat="45.44941746613175" lon="8.622854334879422"><ele>164.0</ele><time>2026-04-06T15:11:05.999Z</time></trkpt><trkpt lat="45.449357377654145" lon="8.622993213795509"><ele>164.0</ele><time>2026-04-06T15:11:06.999Z</time></trkpt><trkpt lat="45.4493036733649" lon="8.623125307994648"><ele>164.0</ele><time>2026-04-06T15:11:07.999Z</time></trkpt><trkpt lat="45.44924704069479" lon="8.623252777741182"><ele>164.0</ele><time>2026-04-06T15:11:08.999Z</time></trkpt><trkpt lat="45.44919205385468" lon="8.62339136213962"><ele>164.0</ele><time>2026-04-06T15:11:09.999Z</time></trkpt><trkpt lat="45.4491361500635" lon="8.623537603182616"><ele>164.0</ele><time>2026-04-06T15:11:10.999Z</time></trkpt><trkpt lat="45.44907256108797" lon="8.623694324551227"><ele>163.25</ele><time>2026-04-06T15:11:11.999Z</time></trkpt><trkpt lat="45.44900952846675" lon="8.623851186656282"><ele>162.5</ele><time>2026-04-06T15:11:12.999Z</time></trkpt><trkpt lat="45.44893773454034" lon="8.623994728347698"><ele>161.75</ele><time>2026-04-06T15:11:14Z</time></trkpt><trkpt lat="45.44888160344396" lon="8.624142301731066"><ele>161.0</ele><time>2026-04-06T15:11:15Z</time></trkpt><trkpt lat="45.44883689966527" lon="8.624292772559548"><ele>161.25</ele><time>2026-04-06T15:11:16Z</time></trkpt><trkpt lat="45.44878135866445" lon="8.624435924129136"><ele>161.5</ele><time>2026-04-06T15:11:17Z</time></trkpt><trkpt lat="45.44872145127938" lon="8.624581400487191"><ele>161.75</ele><time>2026-04-06T15:11:18Z</time></trkpt><trkpt lat="45.448659384188005" lon="8.624727512757604"><ele>162.0</ele><time>2026-04-06T15:11:19Z</time></trkpt><trkpt lat="45.4485945449096" lon="8.624880927328464"><ele>162.0</ele><time>2026-04-06T15:11:20Z</time></trkpt><trkpt lat="45.44852774883598" lon="8.625043802398393"><ele>162.0</ele><time>2026-04-06T15:11:21Z</time></trkpt><trkpt lat="45.44846161692776" lon="8.625206651866005"><ele>162.0</ele><time>2026-04-06T15:11:22Z</time></trkpt><trkpt lat="45.44839770233651" lon="8.625363454606417"><ele>162.0</ele><time>2026-04-06T15:11:23Z</time></trkpt><trkpt lat="45.448331809590606" lon="8.625531918643283"><ele>160.79999999999998</ele><time>2026-04-06T15:11:24Z</time></trkpt><trkpt lat="45.44826109813051" lon="8.625689064549963"><ele>159.6</ele><time>2026-04-06T15:11:25Z</time></trkpt><trkpt lat="45.44820546032015" lon="8.625825414443998"><ele>158.39999999999998</ele><time>2026-04-06T15:11:26Z</time></trkpt><trkpt lat="45.44815173062647" lon="8.62594638482279"><ele>157.2</ele><time>2026-04-06T15:11:27Z</time></trkpt><trkpt lat="45.448100843075494" lon="8.626065638011552"><ele>156.0</ele><time>2026-04-06T15:11:28Z</time></trkpt><trkpt lat="45.44805721700324" lon="8.62618691865258"><ele>155.0</ele><time>2026-04-06T15:11:29Z</time></trkpt><trkpt lat="45.44800401340226" lon="8.626313812825412"><ele>154.0</ele><time>2026-04-06T15:11:30Z</time></trkpt><trkpt lat="45.44793945565301" lon="8.626461385373634"><ele>153.0</ele><time>2026-04-06T15:11:31Z</time></trkpt><trkpt lat="45.44787285521592" lon="8.626625223771862"><ele>152.0</ele><time>2026-04-06T15:11:32Z</time></trkpt><trkpt lat="45.44780405220949" lon="8.626784089497564"><ele>152.2</ele><time>2026-04-06T15:11:33Z</time></trkpt><trkpt lat="45.44773931119231" lon="8.626934011893308"><ele>152.39999999999998</ele><time>2026-04-06T15:11:34Z</time></trkpt><trkpt lat="45.447675831324815" lon="8.62706582670425"><ele>152.60000000000002</ele><time>2026-04-06T15:11:35Z</time></trkpt><trkpt lat="45.44761177881835" lon="8.627174082738579"><ele>152.8</ele><time>2026-04-06T15:11:36Z</time></trkpt><trkpt lat="45.447541962269135" lon="8.627259340794343"><ele>153.0</ele><time>2026-04-06T15:11:37Z</time></trkpt><trkpt lat="45.44748024443713" lon="8.627328097798841"><ele>153.0</ele><time>2026-04-06T15:11:38Z</time></trkpt><trkpt lat="45.447374255307665" lon="8.627317074770518"><ele>153.0</ele><time>2026-04-06T15:11:39Z</time></trkpt><trkpt lat="45.447273320412066" lon="8.627343187686028"><ele>153.0</ele><time>2026-04-06T15:11:40Z</time></trkpt><trkpt lat="45.44716504538426" lon="8.627353664263119"><ele>153.0</ele><time>2026-04-06T15:11:41Z</time></trkpt><trkpt lat="45.44704982388995" lon="8.627348463476663"><ele>153.0</ele><time>2026-04-06T15:11:42Z</time></trkpt><trkpt lat="45.44693105329683" lon="8.627345845769478"><ele>155.0</ele><time>2026-04-06T15:11:43Z</time></trkpt><trkpt lat="45.44681254740214" lon="8.627353889281768"><ele>157.0</ele><time>2026-04-06T15:11:44Z</time></trkpt><trkpt lat="45.44669616880444" lon="8.627348513927656"><ele>159.0</ele><time>2026-04-06T15:11:45Z</time></trkpt><trkpt lat="45.446572424693706" lon="8.62735041177082"><ele>161.0</ele><time>2026-04-06T15:11:46Z</time></trkpt><trkpt lat="45.44644592640362" lon="8.627354743772155"><ele>161.0</ele><time>2026-04-06T15:11:47Z</time></trkpt><trkpt lat="45.446313708451484" lon="8.62735639063387"><ele>161.0</ele><time>2026-04-06T15:11:48Z</time></trkpt><trkpt lat="45.446181389913384" lon="8.627350131378252"><ele>161.0</ele><time>2026-04-06T15:11:49Z</time></trkpt><trkpt lat="45.44604788882144" lon="8.627348606602997"><ele>161.0</ele><time>2026-04-06T15:11:50Z</time></trkpt><trkpt lat="45.445916021385734" lon="8.627359054456425"><ele>161.25</ele><time>2026-04-06T15:11:51Z</time></trkpt><trkpt lat="45.445783972725785" lon="8.627359908780775"><ele>161.5</ele><time>2026-04-06T15:11:52Z</time></trkpt><trkpt lat="45.44563649959496" lon="8.627371816287136"><ele>161.75</ele><time>2026-04-06T15:11:53Z</time></trkpt><trkpt lat="45.44550068998664" lon="8.62736960596105"><ele>162.0</ele><time>2026-04-06T15:11:54Z</time></trkpt><trkpt lat="45.44535730477334" lon="8.627362430465919"><ele>162.0</ele><time>2026-04-06T15:11:55Z</time></trkpt><trkpt lat="45.44522325069726" lon="8.627362752357032"><ele>162.0</ele><time>2026-04-06T15:11:55.999Z</time></trkpt><trkpt lat="45.44508705982079" lon="8.627366761438406"><ele>162.0</ele><time>2026-04-06T15:11:56.999Z</time></trkpt><trkpt lat="45.44495256293404" lon="8.627368792107127"><ele>162.0</ele><time>2026-04-06T15:11:57.999Z</time></trkpt><trkpt lat="45.4448250960567" lon="8.627371783805522"><ele>162.0</ele><time>2026-04-06T15:11:58.999Z</time></trkpt><trkpt lat="45.4447078582086" lon="8.627369318462575"><ele>162.0</ele><time>2026-04-06T15:11:59.999Z</time></trkpt><trkpt lat="45.44459587005574" lon="8.62737204888839"><ele>162.0</ele><time>2026-04-06T15:12:00.999Z</time></trkpt><trkpt lat="45.444482846678746" lon="8.62737370897027"><ele>162.0</ele><time>2026-04-06T15:12:01.999Z</time></trkpt><trkpt lat="45.44435971568613" lon="8.627353634196608"><ele>161.0</ele><time>2026-04-06T15:12:02.999Z</time></trkpt><trkpt lat="45.44423795681873" lon="8.627291451127068"><ele>160.0</ele><time>2026-04-06T15:12:03.999Z</time></trkpt><trkpt lat="45.444106002903986" lon="8.627241304209617"><ele>159.0</ele><time>2026-04-06T15:12:04.999Z</time></trkpt><trkpt lat="45.443965613208995" lon="8.627182805012836"><ele>158.0</ele><time>2026-04-06T15:12:05.999Z</time></trkpt><trkpt lat="45.44382229363459" lon="8.627141367573817"><ele>158.5</ele><time>2026-04-06T15:12:06.999Z</time></trkpt><trkpt lat="45.44368192935556" lon="8.6270734883673"><ele>159.0</ele><time>2026-04-06T15:12:07.999Z</time></trkpt><trkpt lat="45.443541197185006" lon="8.627009990829803"><ele>159.5</ele><time>2026-04-06T15:12:08.999Z</time></trkpt><trkpt lat="45.44340870583155" lon="8.626955757939031"><ele>160.0</ele><time>2026-04-06T15:12:09.999Z</time></trkpt><trkpt lat="45.443279639760036" lon="8.626902122880827"><ele>160.0</ele><time>2026-04-06T15:12:10.999Z</time></trkpt><trkpt lat="45.44316011284368" lon="8.62684997610907"><ele>160.0</ele><time>2026-04-06T15:12:11.999Z</time></trkpt><trkpt lat="45.4430468736976" lon="8.626807306696492"><ele>160.0</ele><time>2026-04-06T15:12:12.999Z</time></trkpt><trkpt lat="45.4429393412882" lon="8.626756241182477"><ele>160.0</ele><time>2026-04-06T15:12:13.999Z</time></trkpt><trkpt lat="45.4428366431734" lon="8.626709772297923"><ele>160.0</ele><time>2026-04-06T15:12:14.999Z</time></trkpt><trkpt lat="45.44273571447104" lon="8.626669117783438"><ele>160.0</ele><time>2026-04-06T15:12:15.999Z</time></trkpt><trkpt lat="45.442640771662745" lon="8.6266312399479"><ele>160.0</ele><time>2026-04-06T15:12:16.999Z</time></trkpt><trkpt lat="45.44256189888552" lon="8.626596113580133"><ele>160.0</ele><time>2026-04-06T15:12:17.999Z</time></trkpt><trkpt lat="45.44250248930362" lon="8.626555164857566"><ele>160.0</ele><time>2026-04-06T15:12:18.999Z</time></trkpt><trkpt lat="45.442440908930465" lon="8.626412266377097"><ele>160.0</ele><time>2026-04-06T15:12:20.999Z</time></trkpt><trkpt lat="45.44243220525555" lon="8.626290719082215"><ele>160.0</ele><time>2026-04-06T15:12:21.999Z</time></trkpt><trkpt lat="45.44241713514677" lon="8.626145556777931"><ele>160.0</ele><time>2026-04-06T15:12:22.999Z</time></trkpt><trkpt lat="45.44239641218932" lon="8.62599638133397"><ele>160.0</ele><time>2026-04-06T15:12:23.999Z</time></trkpt><trkpt lat="45.44237001083899" lon="8.625855018317209"><ele>160.0</ele><time>2026-04-06T15:12:24.999Z</time></trkpt><trkpt lat="45.44234947757377" lon="8.625689813880282"><ele>160.25</ele><time>2026-04-06T15:12:25.999Z</time></trkpt><trkpt lat="45.442317112502515" lon="8.625481026647714"><ele>160.5</ele><time>2026-04-06T15:12:26.999Z</time></trkpt><trkpt lat="45.44228601860144" lon="8.625266613788542"><ele>160.75</ele><time>2026-04-06T15:12:27.999Z</time></trkpt><trkpt lat="45.442258559992354" lon="8.62507492361195"><ele>161.0</ele><time>2026-04-06T15:12:28.999Z</time></trkpt><trkpt lat="45.44223742512313" lon="8.624895129849044"><ele>161.0</ele><time>2026-04-06T15:12:29.999Z</time></trkpt><trkpt lat="45.44221621428791" lon="8.62472715124912"><ele>161.0</ele><time>2026-04-06T15:12:30.999Z</time></trkpt><trkpt lat="45.442191044311755" lon="8.62457635091965"><ele>161.0</ele><time>2026-04-06T15:12:31.999Z</time></trkpt><trkpt lat="45.44216888403731" lon="8.62443934304925"><ele>161.0</ele><time>2026-04-06T15:12:32.999Z</time></trkpt><trkpt lat="45.44214333846729" lon="8.624304583368554"><ele>161.0</ele><time>2026-04-06T15:12:33.999Z</time></trkpt><trkpt lat="45.442114425008924" lon="8.624173096712132"><ele>160.83333333333331</ele><time>2026-04-06T15:12:34.999Z</time></trkpt><trkpt lat="45.442087316953305" lon="8.624039555879861"><ele>160.66666666666666</ele><time>2026-04-06T15:12:35.999Z</time></trkpt><trkpt lat="45.44206704111473" lon="8.623897485577238"><ele>160.5</ele><time>2026-04-06T15:12:36.999Z</time></trkpt><trkpt lat="45.442055952649554" lon="8.623755324219223"><ele>160.33333333333334</ele><time>2026-04-06T15:12:37.999Z</time></trkpt><trkpt lat="45.4420462863456" lon="8.6236355683586"><ele>160.16666666666669</ele><time>2026-04-06T15:12:38.999Z</time></trkpt><trkpt lat="45.44203360772384" lon="8.623546317703457"><ele>160.0</ele><time>2026-04-06T15:12:39.999Z</time></trkpt><trkpt lat="45.4420213479778" lon="8.623405058144028"><ele>160.0</ele><time>2026-04-06T15:12:41.999Z</time></trkpt><trkpt lat="45.44190507803141" lon="8.623410684632717"><ele>160.0</ele><time>2026-04-06T15:12:42.999Z</time></trkpt><trkpt lat="45.44183859937506" lon="8.623425425195405"><ele>160.0</ele><time>2026-04-06T15:12:43.999Z</time></trkpt><trkpt lat="45.44176815036111" lon="8.62347168276653"><ele>160.0</ele><time>2026-04-06T15:12:44.999Z</time></trkpt><trkpt lat="45.4416830910936" lon="8.6234891759983"><ele>160.0</ele><time>2026-04-06T15:12:45.999Z</time></trkpt><trkpt lat="45.441605092855404" lon="8.623540521856778"><ele>160.0</ele><time>2026-04-06T15:12:46.999Z</time></trkpt><trkpt lat="45.441542850990416" lon="8.6235603971256"><ele>160.0</ele><time>2026-04-06T15:12:47.999Z</time></trkpt><trkpt lat="45.441475143939634" lon="8.623591069358227"><ele>160.0</ele><time>2026-04-06T15:12:49.999Z</time></trkpt><trkpt lat="45.44140145004831" lon="8.623612017491261"><ele>160.0</ele><time>2026-04-06T15:12:50.999Z</time></trkpt><trkpt lat="45.441294088701625" lon="8.623635941656543"><ele>160.0</ele><time>2026-04-06T15:12:51.999Z</time></trkpt><trkpt lat="45.44119157536234" lon="8.623658986611565"><ele>160.0</ele><time>2026-04-06T15:12:52.999Z</time></trkpt><trkpt lat="45.4410881721939" lon="8.62369359570018"><ele>159.5</ele><time>2026-04-06T15:12:53.999Z</time></trkpt><trkpt lat="45.440969461046414" lon="8.623743585827931"><ele>159.0</ele><time>2026-04-06T15:12:54.999Z</time></trkpt><trkpt lat="45.44083604629809" lon="8.623804590467891"><ele>158.5</ele><time>2026-04-06T15:12:55.999Z</time></trkpt><trkpt lat="45.44072027702929" lon="8.623855568679938"><ele>158.0</ele><time>2026-04-06T15:12:56.999Z</time></trkpt><trkpt lat="45.44061563893279" lon="8.62389667095051"><ele>158.0</ele><time>2026-04-06T15:12:57.999Z</time></trkpt><trkpt lat="45.44052676734094" lon="8.62392225327763"><ele>158.0</ele><time>2026-04-06T15:12:58.999Z</time></trkpt><trkpt lat="45.44044935268408" lon="8.623932506480305"><ele>158.0</ele><time>2026-04-06T15:12:59.999Z</time></trkpt><trkpt lat="45.44031451865639" lon="8.623802223249003"><ele>158.0</ele><time>2026-04-06T15:13:01.999Z</time></trkpt><trkpt lat="45.44021886088233" lon="8.623737578293275"><ele>158.0</ele><time>2026-04-06T15:13:02.999Z</time></trkpt><trkpt lat="45.44011980138331" lon="8.623660289058673"><ele>157.75</ele><time>2026-04-06T15:13:03.999Z</time></trkpt><trkpt lat="45.44000505370886" lon="8.623594377900805"><ele>157.5</ele><time>2026-04-06T15:13:04.999Z</time></trkpt><trkpt lat="45.43989516562386" lon="8.623511198881996"><ele>157.25</ele><time>2026-04-06T15:13:05.999Z</time></trkpt><trkpt lat="45.439789037574954" lon="8.623426965555685"><ele>157.0</ele><time>2026-04-06T15:13:06.999Z</time></trkpt><trkpt lat="45.43968159816444" lon="8.623345032657612"><ele>157.0</ele><time>2026-04-06T15:13:07.999Z</time></trkpt><trkpt lat="45.439574484744334" lon="8.623261804464873"><ele>157.0</ele><time>2026-04-06T15:13:08.999Z</time></trkpt><trkpt lat="45.4394654521745" lon="8.623173891890948"><ele>157.0</ele><time>2026-04-06T15:13:09.999Z</time></trkpt><trkpt lat="45.439352892664566" lon="8.62308661902031"><ele>157.0</ele><time>2026-04-06T15:13:10.999Z</time></trkpt><trkpt lat="45.439232187949386" lon="8.623008525696688"><ele>157.0</ele><time>2026-04-06T15:13:11.999Z</time></trkpt><trkpt lat="45.43910988435297" lon="8.62291621912434"><ele>157.0</ele><time>2026-04-06T15:13:12.999Z</time></trkpt><trkpt lat="45.4389773094346" lon="8.622811806982478"><ele>157.0</ele><time>2026-04-06T15:13:13.999Z</time></trkpt><trkpt lat="45.43883610224722" lon="8.622701208234837"><ele>156.75</ele><time>2026-04-06T15:13:14.999Z</time></trkpt><trkpt lat="45.43869923832658" lon="8.622589435614954"><ele>156.5</ele><time>2026-04-06T15:13:15.999Z</time></trkpt><trkpt lat="45.438567846504945" lon="8.622488163607773"><ele>156.25</ele><time>2026-04-06T15:13:16.999Z</time></trkpt><trkpt lat="45.43844861481387" lon="8.622398972115144"><ele>156.0</ele><time>2026-04-06T15:13:17.999Z</time></trkpt><trkpt lat="45.438328123059044" lon="8.622296727674641"><ele>156.0</ele><time>2026-04-06T15:13:19Z</time></trkpt><trkpt lat="45.43819846552651" lon="8.622200556256116"><ele>156.0</ele><time>2026-04-06T15:13:20Z</time></trkpt><trkpt lat="45.43808699507383" lon="8.622112193681723"><ele>156.0</ele><time>2026-04-06T15:13:21Z</time></trkpt><trkpt lat="45.4379843782054" lon="8.622031365761911"><ele>156.0</ele><time>2026-04-06T15:13:22Z</time></trkpt><trkpt lat="45.437892801795755" lon="8.621957216406258"><ele>156.0</ele><time>2026-04-06T15:13:23Z</time></trkpt><trkpt lat="45.4378068311931" lon="8.621887628475623"><ele>156.0</ele><time>2026-04-06T15:13:24Z</time></trkpt><trkpt lat="45.43771839131039" lon="8.621820515010015"><ele>156.0</ele><time>2026-04-06T15:13:25Z</time></trkpt><trkpt lat="45.43763172546144" lon="8.621756723651893"><ele>156.0</ele><time>2026-04-06T15:13:26Z</time></trkpt><trkpt lat="45.4375443667188" lon="8.621666290881446"><ele>156.0</ele><time>2026-04-06T15:13:27Z</time></trkpt><trkpt lat="45.43744542932866" lon="8.621607250313055"><ele>156.0</ele><time>2026-04-06T15:13:28Z</time></trkpt><trkpt lat="45.43734056721321" lon="8.621547997431007"><ele>156.0</ele><time>2026-04-06T15:13:29Z</time></trkpt><trkpt lat="45.437240501899176" lon="8.621494232010686"><ele>156.0</ele><time>2026-04-06T15:13:30Z</time></trkpt><trkpt lat="45.43712111922528" lon="8.621430737715311"><ele>156.0</ele><time>2026-04-06T15:13:31Z</time></trkpt><trkpt lat="45.43701481293697" lon="8.62137411728836"><ele>156.2</ele><time>2026-04-06T15:13:32Z</time></trkpt><trkpt lat="45.43690674566007" lon="8.62131636388661"><ele>156.39999999999998</ele><time>2026-04-06T15:13:33Z</time></trkpt><trkpt lat="45.436793794761755" lon="8.621278674325207"><ele>156.6</ele><time>2026-04-06T15:13:34Z</time></trkpt><trkpt lat="45.436692946475475" lon="8.62122320249906"><ele>156.79999999999998</ele><time>2026-04-06T15:13:35Z</time></trkpt><trkpt lat="45.4365984025463" lon="8.621168579712048"><ele>157.0</ele><time>2026-04-06T15:13:36Z</time></trkpt><trkpt lat="45.436505765889855" lon="8.62112699916051"><ele>157.2</ele><time>2026-04-06T15:13:37Z</time></trkpt><trkpt lat="45.43642018313676" lon="8.621077223805438"><ele>157.39999999999998</ele><time>2026-04-06T15:13:38Z</time></trkpt><trkpt lat="45.43632833980832" lon="8.621037561228377"><ele>157.60000000000002</ele><time>2026-04-06T15:13:39Z</time></trkpt><trkpt lat="45.43623987654876" lon="8.620994005501208"><ele>157.8</ele><time>2026-04-06T15:13:40Z</time></trkpt><trkpt lat="45.43615112198172" lon="8.620956629084718"><ele>158.0</ele><time>2026-04-06T15:13:41Z</time></trkpt><trkpt lat="45.436057096475885" lon="8.620917750217172"><ele>158.0</ele><time>2026-04-06T15:13:42Z</time></trkpt><trkpt lat="45.43596222039711" lon="8.620883902487956"><ele>158.0</ele><time>2026-04-06T15:13:43Z</time></trkpt><trkpt lat="45.43586697292751" lon="8.620850356310122"><ele>158.0</ele><time>2026-04-06T15:13:44Z</time></trkpt><trkpt lat="45.435771008032326" lon="8.62080699574975"><ele>158.0</ele><time>2026-04-06T15:13:45Z</time></trkpt><trkpt lat="45.435684722110885" lon="8.620774558004436"><ele>158.0</ele><time>2026-04-06T15:13:46Z</time></trkpt><trkpt lat="45.43560711957519" lon="8.620745653943759"><ele>158.0</ele><time>2026-04-06T15:13:47Z</time></trkpt><trkpt lat="45.43553231846818" lon="8.620718743984476"><ele>158.0</ele><time>2026-04-06T15:13:48Z</time></trkpt><trkpt lat="45.43546451199076" lon="8.620692365880673"><ele>158.0</ele><time>2026-04-06T15:13:49Z</time></trkpt><trkpt lat="45.435341280613" lon="8.620667609945828"><ele>158.0</ele><time>2026-04-06T15:13:51Z</time></trkpt><trkpt lat="45.43523922876788" lon="8.620609280780403"><ele>158.0</ele><time>2026-04-06T15:13:53Z</time></trkpt><trkpt lat="45.43514726287117" lon="8.620593850701978"><ele>157.8</ele><time>2026-04-06T15:13:55Z</time></trkpt><trkpt lat="45.435059340452035" lon="8.620548728957523"><ele>157.60000000000002</ele><time>2026-04-06T15:13:57Z</time></trkpt><trkpt lat="45.434956122311355" lon="8.620508982048724"><ele>157.39999999999998</ele><time>2026-04-06T15:13:59Z</time></trkpt><trkpt lat="45.434875966750106" lon="8.620479796321915"><ele>157.2</ele><time>2026-04-06T15:14:00Z</time></trkpt><trkpt lat="45.43480212111177" lon="8.620448727164778"><ele>157.0</ele><time>2026-04-06T15:14:00.999Z</time></trkpt><trkpt lat="45.43471447072845" lon="8.620413287052981"><ele>156.83333333333334</ele><time>2026-04-06T15:14:01.999Z</time></trkpt><trkpt lat="45.43462203764042" lon="8.62038059177924"><ele>156.66666666666669</ele><time>2026-04-06T15:14:02.999Z</time></trkpt><trkpt lat="45.434532505223395" lon="8.620354383833758"><ele>156.5</ele><time>2026-04-06T15:14:03.999Z</time></trkpt><trkpt lat="45.434445362530056" lon="8.620326437175573"><ele>156.33333333333334</ele><time>2026-04-06T15:14:04.999Z</time></trkpt><trkpt lat="45.43436471605437" lon="8.620301329342487"><ele>156.16666666666666</ele><time>2026-04-06T15:14:05.999Z</time></trkpt><trkpt lat="45.434284552927174" lon="8.62027525486994"><ele>156.0</ele><time>2026-04-06T15:14:06.999Z</time></trkpt><trkpt lat="45.434147066413615" lon="8.620230778860227"><ele>155.5</ele><time>2026-04-06T15:14:07.999Z</time></trkpt><trkpt lat="45.434039275658556" lon="8.620197322855631"><ele>155.0</ele><time>2026-04-06T15:14:08.999Z</time></trkpt><trkpt lat="45.433926286209086" lon="8.62015519956148"><ele>154.5</ele><time>2026-04-06T15:14:09.999Z</time></trkpt><trkpt lat="45.433803722238785" lon="8.620118472113463"><ele>154.0</ele><time>2026-04-06T15:14:10.999Z</time></trkpt><trkpt lat="45.43368719357639" lon="8.620080926312557"><ele>154.0</ele><time>2026-04-06T15:14:11.999Z</time></trkpt><trkpt lat="45.4335727768703" lon="8.620043751858862"><ele>154.0</ele><time>2026-04-06T15:14:12.999Z</time></trkpt><trkpt lat="45.43346883233316" lon="8.620001013705169"><ele>154.0</ele><time>2026-04-06T15:14:13.999Z</time></trkpt><trkpt lat="45.43336523341476" lon="8.619963655758971"><ele>154.0</ele><time>2026-04-06T15:14:14.999Z</time></trkpt><trkpt lat="45.43325426227735" lon="8.619924873816823"><ele>154.0</ele><time>2026-04-06T15:14:15.999Z</time></trkpt><trkpt lat="45.43314480303424" lon="8.619891055373099"><ele>154.0</ele><time>2026-04-06T15:14:16.999Z</time></trkpt><trkpt lat="45.43303426296602" lon="8.619850252027451"><ele>154.0</ele><time>2026-04-06T15:14:17.999Z</time></trkpt><trkpt lat="45.432917152471376" lon="8.619807650716862"><ele>154.0</ele><time>2026-04-06T15:14:18.999Z</time></trkpt><trkpt lat="45.432802065530396" lon="8.619770756760685"><ele>154.0</ele><time>2026-04-06T15:14:19.999Z</time></trkpt><trkpt lat="45.43269510682919" lon="8.619741076454334"><ele>153.8</ele><time>2026-04-06T15:14:20.999Z</time></trkpt><trkpt lat="45.43259310060621" lon="8.619710221456554"><ele>153.60000000000002</ele><time>2026-04-06T15:14:21.999Z</time></trkpt><trkpt lat="45.43249430112864" lon="8.619676748748164"><ele>153.4</ele><time>2026-04-06T15:14:22.999Z</time></trkpt><trkpt lat="45.43240228469898" lon="8.619623508634126"><ele>153.20000000000002</ele><time>2026-04-06T15:14:23.999Z</time></trkpt><trkpt lat="45.43230557958596" lon="8.6196034348934"><ele>153.0</ele><time>2026-04-06T15:14:24.999Z</time></trkpt><trkpt lat="45.43220906818875" lon="8.619619945246003"><ele>153.0</ele><time>2026-04-06T15:14:25.999Z</time></trkpt><trkpt lat="45.432116716864755" lon="8.619577912633464"><ele>153.0</ele><time>2026-04-06T15:14:26.999Z</time></trkpt><trkpt lat="45.43203795484963" lon="8.619548608378839"><ele>153.0</ele><time>2026-04-06T15:14:27.999Z</time></trkpt><trkpt lat="45.4319542740314" lon="8.619479645681018"><ele>153.0</ele><time>2026-04-06T15:14:28.999Z</time></trkpt><trkpt lat="45.43187283485552" lon="8.619446548232744"><ele>153.0</ele><time>2026-04-06T15:14:29.999Z</time></trkpt><trkpt lat="45.43177529841236" lon="8.61942878596638"><ele>153.0</ele><time>2026-04-06T15:14:30.999Z</time></trkpt><trkpt lat="45.43169333741866" lon="8.619382239620961"><ele>153.0</ele><time>2026-04-06T15:14:31.999Z</time></trkpt><trkpt lat="45.431611266291824" lon="8.619350508399426"><ele>153.0</ele><time>2026-04-06T15:14:32.999Z</time></trkpt><trkpt lat="45.43152381460754" lon="8.619319016647731"><ele>153.0</ele><time>2026-04-06T15:14:33.999Z</time></trkpt><trkpt lat="45.43142486707896" lon="8.619298429872188"><ele>153.0</ele><time>2026-04-06T15:14:34.999Z</time></trkpt><trkpt lat="45.43132902520052" lon="8.619291181431212"><ele>153.0</ele><time>2026-04-06T15:14:35.999Z</time></trkpt><trkpt lat="45.43122272730806" lon="8.619286773474094"><ele>153.0</ele><time>2026-04-06T15:14:36.999Z</time></trkpt><trkpt lat="45.43111320029334" lon="8.619304073681928"><ele>153.0</ele><time>2026-04-06T15:14:37.999Z</time></trkpt><trkpt lat="45.43100208153732" lon="8.619301999731162"><ele>153.0</ele><time>2026-04-06T15:14:38.999Z</time></trkpt><trkpt lat="45.43089209303181" lon="8.619296258151072"><ele>153.0</ele><time>2026-04-06T15:14:39.999Z</time></trkpt><trkpt lat="45.43078998213433" lon="8.61928932651224"><ele>153.0</ele><time>2026-04-06T15:14:40.999Z</time></trkpt><trkpt lat="45.43069452968917" lon="8.619286178497811"><ele>153.0</ele><time>2026-04-06T15:14:41.999Z</time></trkpt><trkpt lat="45.430601502867624" lon="8.619283094068471"><ele>153.0</ele><time>2026-04-06T15:14:42.999Z</time></trkpt><trkpt lat="45.43050409246879" lon="8.619280130000101"><ele>153.0</ele><time>2026-04-06T15:14:43.999Z</time></trkpt><trkpt lat="45.43040310644737" lon="8.619275921730909"><ele>153.0</ele><time>2026-04-06T15:14:44.999Z</time></trkpt><trkpt lat="45.43029809778225" lon="8.619279653872955"><ele>153.4</ele><time>2026-04-06T15:14:45.999Z</time></trkpt><trkpt lat="45.430191967368366" lon="8.61925837915591"><ele>153.8</ele><time>2026-04-06T15:14:46.999Z</time></trkpt><trkpt lat="45.43008598156515" lon="8.619267294569147"><ele>154.2</ele><time>2026-04-06T15:14:47.999Z</time></trkpt><trkpt lat="45.42998108424593" lon="8.619267776945831"><ele>154.6</ele><time>2026-04-06T15:14:48.999Z</time></trkpt><trkpt lat="45.429877041638626" lon="8.619269519278523"><ele>155.0</ele><time>2026-04-06T15:14:49.999Z</time></trkpt><trkpt lat="45.42977358363892" lon="8.619270905814297"><ele>155.0</ele><time>2026-04-06T15:14:50.999Z</time></trkpt><trkpt lat="45.429668414893065" lon="8.619267711985056"><ele>155.0</ele><time>2026-04-06T15:14:51.999Z</time></trkpt><trkpt lat="45.42956129692581" lon="8.619264981598771"><ele>155.0</ele><time>2026-04-06T15:14:52.999Z</time></trkpt><trkpt lat="45.429453694958475" lon="8.619262801105291"><ele>155.0</ele><time>2026-04-06T15:14:53.999Z</time></trkpt><trkpt lat="45.42934395464827" lon="8.619257453654091"><ele>155.0</ele><time>2026-04-06T15:14:54.999Z</time></trkpt><trkpt lat="45.429232345374004" lon="8.619254879242632"><ele>155.5</ele><time>2026-04-06T15:14:55.999Z</time></trkpt><trkpt lat="45.42911896865766" lon="8.619258505410865"><ele>156.0</ele><time>2026-04-06T15:14:56.999Z</time></trkpt><trkpt lat="45.42900623437498" lon="8.619251426294722"><ele>156.5</ele><time>2026-04-06T15:14:57.999Z</time></trkpt><trkpt lat="45.42889451502888" lon="8.61925017590996"><ele>157.0</ele><time>2026-04-06T15:14:58.999Z</time></trkpt><trkpt lat="45.42878276792921" lon="8.619250665333624"><ele>156.2</ele><time>2026-04-06T15:14:59.999Z</time></trkpt><trkpt lat="45.42867217719962" lon="8.619247316024243"><ele>155.39999999999998</ele><time>2026-04-06T15:15:00.999Z</time></trkpt><trkpt lat="45.428561342375865" lon="8.619244176354275"><ele>154.60000000000002</ele><time>2026-04-06T15:15:01.999Z</time></trkpt><trkpt lat="45.42845273298208" lon="8.61924120459954"><ele>153.8</ele><time>2026-04-06T15:15:02.999Z</time></trkpt><trkpt lat="45.42835005093849" lon="8.61924162084373"><ele>153.0</ele><time>2026-04-06T15:15:03.999Z</time></trkpt><trkpt lat="45.42824698205711" lon="8.619236323069204"><ele>153.0</ele><time>2026-04-06T15:15:04.999Z</time></trkpt><trkpt lat="45.42814369017899" lon="8.619235496951488"><ele>153.0</ele><time>2026-04-06T15:15:05.999Z</time></trkpt><trkpt lat="45.42804407106448" lon="8.619208839752535"><ele>153.0</ele><time>2026-04-06T15:15:06.999Z</time></trkpt><trkpt lat="45.42794885774718" lon="8.619179115040223"><ele>153.0</ele><time>2026-04-06T15:15:07.999Z</time></trkpt><trkpt lat="45.42785069535217" lon="8.619135053563308"><ele>153.0</ele><time>2026-04-06T15:15:08.999Z</time></trkpt><trkpt lat="45.42774155983132" lon="8.619121981910345"><ele>152.6</ele><time>2026-04-06T15:15:09.999Z</time></trkpt><trkpt lat="45.427634105141344" lon="8.619108571962938"><ele>152.20000000000002</ele><time>2026-04-06T15:15:10.999Z</time></trkpt><trkpt lat="45.42752184800892" lon="8.619144007890188"><ele>151.8</ele><time>2026-04-06T15:15:11.999Z</time></trkpt><trkpt lat="45.42741468328158" lon="8.61918737520099"><ele>151.4</ele><time>2026-04-06T15:15:12.999Z</time></trkpt><trkpt lat="45.42731749868159" lon="8.61921973106688"><ele>151.0</ele><time>2026-04-06T15:15:13.999Z</time></trkpt><trkpt lat="45.427229340357705" lon="8.61922086395394"><ele>151.0</ele><time>2026-04-06T15:15:14.999Z</time></trkpt><trkpt lat="45.42714517136744" lon="8.619215152456626"><ele>151.0</ele><time>2026-04-06T15:15:15.999Z</time></trkpt><trkpt lat="45.427072175847215" lon="8.619209642161215"><ele>151.0</ele><time>2026-04-06T15:15:16.999Z</time></trkpt><trkpt lat="45.42695081430489" lon="8.619207028817655"><ele>151.0</ele><time>2026-04-06T15:15:18.999Z</time></trkpt><trkpt lat="45.42688194021912" lon="8.619200886847256"><ele>151.0</ele><time>2026-04-06T15:15:19.999Z</time></trkpt><trkpt lat="45.42679983988231" lon="8.61919542781775"><ele>151.0</ele><time>2026-04-06T15:15:20.999Z</time></trkpt><trkpt lat="45.426714598232905" lon="8.619202339505014"><ele>151.2</ele><time>2026-04-06T15:15:21.999Z</time></trkpt><trkpt lat="45.42663293635952" lon="8.6192038945267"><ele>151.39999999999998</ele><time>2026-04-06T15:15:22.999Z</time></trkpt><trkpt lat="45.426549354816714" lon="8.619205637859297"><ele>151.6</ele><time>2026-04-06T15:15:24Z</time></trkpt><trkpt lat="45.42645555275221" lon="8.61920129895191"><ele>151.79999999999998</ele><time>2026-04-06T15:15:25Z</time></trkpt><trkpt lat="45.42635139890959" lon="8.61918665547973"><ele>152.0</ele><time>2026-04-06T15:15:26Z</time></trkpt><trkpt lat="45.426245622577284" lon="8.619187068369904"><ele>152.0</ele><time>2026-04-06T15:15:27Z</time></trkpt><trkpt lat="45.42613042394326" lon="8.619197281242492"><ele>152.0</ele><time>2026-04-06T15:15:28Z</time></trkpt><trkpt lat="45.42600805805529" lon="8.619194147275175"><ele>152.0</ele><time>2026-04-06T15:15:29Z</time></trkpt><trkpt lat="45.42587697640053" lon="8.619188600511892"><ele>152.0</ele><time>2026-04-06T15:15:30Z</time></trkpt><trkpt lat="45.425744493331095" lon="8.619189394009343"><ele>152.0</ele><time>2026-04-06T15:15:31Z</time></trkpt><trkpt lat="45.42561227764721" lon="8.61919311380773"><ele>152.0</ele><time>2026-04-06T15:15:32Z</time></trkpt><trkpt lat="45.425477728004836" lon="8.619193308662714"><ele>152.0</ele><time>2026-04-06T15:15:33Z</time></trkpt><trkpt lat="45.4253377010765" lon="8.619192679048426"><ele>152.0</ele><time>2026-04-06T15:15:34Z</time></trkpt><trkpt lat="45.425205855115976" lon="8.619192154816982"><ele>152.25</ele><time>2026-04-06T15:15:35Z</time></trkpt><trkpt lat="45.42507430828258" lon="8.61919002948437"><ele>152.5</ele><time>2026-04-06T15:15:36Z</time></trkpt><trkpt lat="45.4249439066067" lon="8.619189052497692"><ele>152.75</ele><time>2026-04-06T15:15:37Z</time></trkpt><trkpt lat="45.424813903445425" lon="8.619191058149985"><ele>153.0</ele><time>2026-04-06T15:15:38Z</time></trkpt><trkpt lat="45.42468116181099" lon="8.619193444647724"><ele>152.0</ele><time>2026-04-06T15:15:39Z</time></trkpt><trkpt lat="45.4245445044757" lon="8.619189843394267"><ele>151.0</ele><time>2026-04-06T15:15:40Z</time></trkpt><trkpt lat="45.42441157422361" lon="8.619184769310616"><ele>150.0</ele><time>2026-04-06T15:15:41Z</time></trkpt><trkpt lat="45.42428302406681" lon="8.619183418118915"><ele>149.0</ele><time>2026-04-06T15:15:42Z</time></trkpt><trkpt lat="45.4241594517777" lon="8.619185398808801"><ele>149.0</ele><time>2026-04-06T15:15:43Z</time></trkpt><trkpt lat="45.42403655500011" lon="8.619188584092171"><ele>149.0</ele><time>2026-04-06T15:15:44Z</time></trkpt><trkpt lat="45.42390532037119" lon="8.619191205500092"><ele>149.0</ele><time>2026-04-06T15:15:45Z</time></trkpt><trkpt lat="45.42377671303705" lon="8.619188214271508"><ele>149.0</ele><time>2026-04-06T15:15:46Z</time></trkpt><trkpt lat="45.423641869877876" lon="8.619182262223198"><ele>149.0</ele><time>2026-04-06T15:15:47Z</time></trkpt><trkpt lat="45.423505011078554" lon="8.619182290863662"><ele>149.0</ele><time>2026-04-06T15:15:48Z</time></trkpt><trkpt lat="45.42336800994601" lon="8.619186244192866"><ele>149.0</ele><time>2026-04-06T15:15:49Z</time></trkpt><trkpt lat="45.423233815347274" lon="8.61918430202647"><ele>149.0</ele><time>2026-04-06T15:15:50Z</time></trkpt><trkpt lat="45.423096342342596" lon="8.619175844797223"><ele>148.75</ele><time>2026-04-06T15:15:51Z</time></trkpt><trkpt lat="45.422961118591424" lon="8.619179945947081"><ele>148.5</ele><time>2026-04-06T15:15:52Z</time></trkpt><trkpt lat="45.422826461351946" lon="8.619175357349796"><ele>148.25</ele><time>2026-04-06T15:15:53Z</time></trkpt><trkpt lat="45.42269205166351" lon="8.619176049888859"><ele>148.0</ele><time>2026-04-06T15:15:54Z</time></trkpt><trkpt lat="45.42255391125942" lon="8.619176618012023"><ele>148.0</ele><time>2026-04-06T15:15:55Z</time></trkpt><trkpt lat="45.42241263799451" lon="8.619173252901893"><ele>148.0</ele><time>2026-04-06T15:15:56Z</time></trkpt><trkpt lat="45.42227013214359" lon="8.619171269145758"><ele>148.0</ele><time>2026-04-06T15:15:57Z</time></trkpt><trkpt lat="45.4221251167791" lon="8.619167987878694"><ele>148.0</ele><time>2026-04-06T15:15:58Z</time></trkpt><trkpt lat="45.42197551831732" lon="8.619167344337006"><ele>147.33333333333334</ele><time>2026-04-06T15:15:59Z</time></trkpt><trkpt lat="45.42181577941788" lon="8.619169725042594"><ele>146.66666666666666</ele><time>2026-04-06T15:16:00Z</time></trkpt><trkpt lat="45.42165507423217" lon="8.619169271360073"><ele>146.0</ele><time>2026-04-06T15:16:01Z</time></trkpt><trkpt lat="45.42149967317526" lon="8.61916591822739"><ele>146.0</ele><time>2026-04-06T15:16:02Z</time></trkpt><trkpt lat="45.42133582475399" lon="8.619161923712078"><ele>146.0</ele><time>2026-04-06T15:16:03Z</time></trkpt><trkpt lat="45.421162903952194" lon="8.619165523555349"><ele>146.0</ele><time>2026-04-06T15:16:04Z</time></trkpt><trkpt lat="45.420985434657766" lon="8.61917075267258"><ele>146.33333333333331</ele><time>2026-04-06T15:16:05Z</time></trkpt><trkpt lat="45.42080390352768" lon="8.61917462067169"><ele>146.66666666666666</ele><time>2026-04-06T15:16:06Z</time></trkpt><trkpt lat="45.42062574928005" lon="8.619174876294316"><ele>147.0</ele><time>2026-04-06T15:16:07Z</time></trkpt><trkpt lat="45.42045596500375" lon="8.61916913201238"><ele>147.0</ele><time>2026-04-06T15:16:07.999Z</time></trkpt><trkpt lat="45.420294892288034" lon="8.61916619732945"><ele>147.0</ele><time>2026-04-06T15:16:08.999Z</time></trkpt><trkpt lat="45.42013885654972" lon="8.61916647257971"><ele>147.0</ele><time>2026-04-06T15:16:09.999Z</time></trkpt><trkpt lat="45.4199941946257" lon="8.619168066130378"><ele>147.0</ele><time>2026-04-06T15:16:10.999Z</time></trkpt><trkpt lat="45.419854594273545" lon="8.61917089615876"><ele>147.0</ele><time>2026-04-06T15:16:11.999Z</time></trkpt><trkpt lat="45.419726443564116" lon="8.61916888489505"><ele>147.0</ele><time>2026-04-06T15:16:12.999Z</time></trkpt><trkpt lat="45.41960246098281" lon="8.619173068949207"><ele>147.0</ele><time>2026-04-06T15:16:13.999Z</time></trkpt><trkpt lat="45.419485995922784" lon="8.619179787313499"><ele>147.0</ele><time>2026-04-06T15:16:14.999Z</time></trkpt><trkpt lat="45.4193743616183" lon="8.619185851841046"><ele>147.0</ele><time>2026-04-06T15:16:15.999Z</time></trkpt><trkpt lat="45.41926686255901" lon="8.619184865072743"><ele>147.0</ele><time>2026-04-06T15:16:16.999Z</time></trkpt><trkpt lat="45.41916294603538" lon="8.619184532419489"><ele>147.0</ele><time>2026-04-06T15:16:17.999Z</time></trkpt><trkpt lat="45.41906158547622" lon="8.619180519207719"><ele>147.0</ele><time>2026-04-06T15:16:18.999Z</time></trkpt><trkpt lat="45.41896882816786" lon="8.619177647264316"><ele>147.0</ele><time>2026-04-06T15:16:19.999Z</time></trkpt><trkpt lat="45.41889572058115" lon="8.619179263145224"><ele>147.0</ele><time>2026-04-06T15:16:20.999Z</time></trkpt><trkpt lat="45.41879489366625" lon="8.619160708418748"><ele>147.0</ele><time>2026-04-06T15:16:22.999Z</time></trkpt><trkpt lat="45.4187831738812" lon="8.618970883099525"><ele>147.0</ele><time>2026-04-06T15:16:25.999Z</time></trkpt><trkpt lat="45.41877894231483" lon="8.618849125884037"><ele>147.0</ele><time>2026-04-06T15:16:26.999Z</time></trkpt><trkpt lat="45.41877400478981" lon="8.618698104398554"><ele>147.0</ele><time>2026-04-06T15:16:27.999Z</time></trkpt><trkpt lat="45.41876120052677" lon="8.618523279307825"><ele>147.0</ele><time>2026-04-06T15:16:28.999Z</time></trkpt><trkpt lat="45.41874022015875" lon="8.6183177103113"><ele>147.0</ele><time>2026-04-06T15:16:29.999Z</time></trkpt><trkpt lat="45.41872253766917" lon="8.61813658898445"><ele>147.0</ele><time>2026-04-06T15:16:30.999Z</time></trkpt><trkpt lat="45.41870969388033" lon="8.617970303355145"><ele>147.0</ele><time>2026-04-06T15:16:31.999Z</time></trkpt><trkpt lat="45.41869863524921" lon="8.617803009135164"><ele>147.0</ele><time>2026-04-06T15:16:32.999Z</time></trkpt><trkpt lat="45.41868545487946" lon="8.617634374465489"><ele>147.0</ele><time>2026-04-06T15:16:33.999Z</time></trkpt><trkpt lat="45.418669757663714" lon="8.61747042772266"><ele>147.0</ele><time>2026-04-06T15:16:34.999Z</time></trkpt><trkpt lat="45.41865554832187" lon="8.617310534774436"><ele>147.0</ele><time>2026-04-06T15:16:35.999Z</time></trkpt><trkpt lat="45.418640542288784" lon="8.617141762569345"><ele>147.0</ele><time>2026-04-06T15:16:36.999Z</time></trkpt><trkpt lat="45.41862716922386" lon="8.616975114030815"><ele>147.0</ele><time>2026-04-06T15:16:37.999Z</time></trkpt><trkpt lat="45.418612394827235" lon="8.616807594172371"><ele>147.0</ele><time>2026-04-06T15:16:38.999Z</time></trkpt><trkpt lat="45.41859456075443" lon="8.616627299629444"><ele>147.0</ele><time>2026-04-06T15:16:39.999Z</time></trkpt><trkpt lat="45.418576426280055" lon="8.616465968332282"><ele>147.0</ele><time>2026-04-06T15:16:40.999Z</time></trkpt><trkpt lat="45.41856362077062" lon="8.616304344540977"><ele>147.0</ele><time>2026-04-06T15:16:41.999Z</time></trkpt><trkpt lat="45.41855225153629" lon="8.616133053911204"><ele>147.0</ele><time>2026-04-06T15:16:42.999Z</time></trkpt><trkpt lat="45.41853751974411" lon="8.615958393514516"><ele>147.0</ele><time>2026-04-06T15:16:43.999Z</time></trkpt><trkpt lat="45.41852796139748" lon="8.615798682106952"><ele>147.0</ele><time>2026-04-06T15:16:44.999Z</time></trkpt><trkpt lat="45.41851759441746" lon="8.615639013997825"><ele>147.0</ele><time>2026-04-06T15:16:45.999Z</time></trkpt><trkpt lat="45.41850501654848" lon="8.615480958476848"><ele>147.0</ele><time>2026-04-06T15:16:46.999Z</time></trkpt><trkpt lat="45.41849087390501" lon="8.615329712881488"><ele>147.0</ele><time>2026-04-06T15:16:47.999Z</time></trkpt><trkpt lat="45.41847972528085" lon="8.61518368968635"><ele>147.0</ele><time>2026-04-06T15:16:48.999Z</time></trkpt><trkpt lat="45.418466711719695" lon="8.615039324864167"><ele>147.0</ele><time>2026-04-06T15:16:49.999Z</time></trkpt><trkpt lat="45.418454466718686" lon="8.614895876202326"><ele>147.0</ele><time>2026-04-06T15:16:50.999Z</time></trkpt><trkpt lat="45.418442358046796" lon="8.614752797083788"><ele>147.0</ele><time>2026-04-06T15:16:51.999Z</time></trkpt><trkpt lat="45.41842929216049" lon="8.614610339597183"><ele>147.0</ele><time>2026-04-06T15:16:52.999Z</time></trkpt><trkpt lat="45.41841582762986" lon="8.614465732660396"><ele>147.0</ele><time>2026-04-06T15:16:53.999Z</time></trkpt><trkpt lat="45.41840209950037" lon="8.614327605025787"><ele>147.0</ele><time>2026-04-06T15:16:54.999Z</time></trkpt><trkpt lat="45.41839061917106" lon="8.61419756811265"><ele>147.0</ele><time>2026-04-06T15:16:55.999Z</time></trkpt><trkpt lat="45.41837984249819" lon="8.614067514642414"><ele>147.0</ele><time>2026-04-06T15:16:56.999Z</time></trkpt><trkpt lat="45.41836327091553" lon="8.613939955143426"><ele>147.0</ele><time>2026-04-06T15:16:57.999Z</time></trkpt><trkpt lat="45.41834706812995" lon="8.613829326838776"><ele>147.0</ele><time>2026-04-06T15:16:58.999Z</time></trkpt><trkpt lat="45.41832892001357" lon="8.61372679159139"><ele>147.0</ele><time>2026-04-06T15:16:59.999Z</time></trkpt><trkpt lat="45.41831269726038" lon="8.613634612301162"><ele>147.0</ele><time>2026-04-06T15:17:00.999Z</time></trkpt><trkpt lat="45.41829783383925" lon="8.613508237136642"><ele>147.0</ele><time>2026-04-06T15:17:02.999Z</time></trkpt><trkpt lat="45.41818377623456" lon="8.613489626062586"><ele>147.0</ele><time>2026-04-06T15:17:04.999Z</time></trkpt><trkpt lat="45.41812073787101" lon="8.613494696726212"><ele>147.0</ele><time>2026-04-06T15:17:05.999Z</time></trkpt><trkpt lat="45.4180416077081" lon="8.613475730147046"><ele>147.0</ele><time>2026-04-06T15:17:06.999Z</time></trkpt><trkpt lat="45.41796176639787" lon="8.6134851351937"><ele>147.0</ele><time>2026-04-06T15:17:07.999Z</time></trkpt><trkpt lat="45.41789037087652" lon="8.613492645544268"><ele>147.0</ele><time>2026-04-06T15:17:08.999Z</time></trkpt><trkpt lat="45.417822004503144" lon="8.613495090761315"><ele>147.0</ele><time>2026-04-06T15:17:09.999Z</time></trkpt><trkpt lat="45.41774857174438" lon="8.613497884626913"><ele>147.0</ele><time>2026-04-06T15:17:10.999Z</time></trkpt><trkpt lat="45.41766398462042" lon="8.613502225306942"><ele>147.0</ele><time>2026-04-06T15:17:11.999Z</time></trkpt><trkpt lat="45.417579707982696" lon="8.613507208300463"><ele>147.0</ele><time>2026-04-06T15:17:12.999Z</time></trkpt><trkpt lat="45.41749454534432" lon="8.61351224367779"><ele>147.0</ele><time>2026-04-06T15:17:13.999Z</time></trkpt><trkpt lat="45.41740785841639" lon="8.613517369179844"><ele>147.0</ele><time>2026-04-06T15:17:14.999Z</time></trkpt><trkpt lat="45.41731944939733" lon="8.61352259650232"><ele>147.0</ele><time>2026-04-06T15:17:15.999Z</time></trkpt><trkpt lat="45.417233365387865" lon="8.613544307258648"><ele>147.0</ele><time>2026-04-06T15:17:16.999Z</time></trkpt><trkpt lat="45.41714593436391" lon="8.613531932895084"><ele>147.0</ele><time>2026-04-06T15:17:17.999Z</time></trkpt><trkpt lat="45.41705816148661" lon="8.613546932427363"><ele>146.79999999999998</ele><time>2026-04-06T15:17:18.999Z</time></trkpt><trkpt lat="45.41697302988299" lon="8.613594455043152"><ele>146.6</ele><time>2026-04-06T15:17:19.999Z</time></trkpt><trkpt lat="45.41688380282453" lon="8.613614151273175"><ele>146.39999999999998</ele><time>2026-04-06T15:17:20.999Z</time></trkpt><trkpt lat="45.41679057482959" lon="8.613606248379734"><ele>146.2</ele><time>2026-04-06T15:17:21.999Z</time></trkpt><trkpt lat="45.41669741237881" lon="8.613621094127607"><ele>146.0</ele><time>2026-04-06T15:17:22.999Z</time></trkpt><trkpt lat="45.416605464315474" lon="8.613635746357135"><ele>146.16666666666666</ele><time>2026-04-06T15:17:23.999Z</time></trkpt><trkpt lat="45.416517146429555" lon="8.613675610135349"><ele>146.33333333333331</ele><time>2026-04-06T15:17:24.999Z</time></trkpt><trkpt lat="45.41642707657662" lon="8.613689763207608"><ele>146.5</ele><time>2026-04-06T15:17:25.999Z</time></trkpt><trkpt lat="45.41634710004301" lon="8.613707318375818"><ele>146.66666666666666</ele><time>2026-04-06T15:17:26.999Z</time></trkpt><trkpt lat="45.416261428623734" lon="8.61369631608215"><ele>146.83333333333334</ele><time>2026-04-06T15:17:27.999Z</time></trkpt><trkpt lat="45.416175079094266" lon="8.613708323528956"><ele>147.0</ele><time>2026-04-06T15:17:28.999Z</time></trkpt><trkpt lat="45.41608843070638" lon="8.61372184831062"><ele>146.33333333333334</ele><time>2026-04-06T15:17:30Z</time></trkpt><trkpt lat="45.416001915614856" lon="8.613735352329263"><ele>145.66666666666666</ele><time>2026-04-06T15:17:31Z</time></trkpt><trkpt lat="45.41591630112596" lon="8.61375055754864"><ele>145.0</ele><time>2026-04-06T15:17:32Z</time></trkpt><trkpt lat="45.41583382044628" lon="8.613764607848175"><ele>144.33333333333331</ele><time>2026-04-06T15:17:33Z</time></trkpt><trkpt lat="45.41574245312993" lon="8.613780416081134"><ele>143.66666666666666</ele><time>2026-04-06T15:17:34Z</time></trkpt><trkpt lat="45.4156507548191" lon="8.613798044938989"><ele>143.0</ele><time>2026-04-06T15:17:35Z</time></trkpt><trkpt lat="45.415570157503325" lon="8.61381353958893"><ele>142.99999999999997</ele><time>2026-04-06T15:17:36Z</time></trkpt><trkpt lat="45.41549186717149" lon="8.613828590794729"><ele>143.0</ele><time>2026-04-06T15:17:37Z</time></trkpt><trkpt lat="45.41541777894634" lon="8.613842834093152"><ele>143.0</ele><time>2026-04-06T15:17:38Z</time></trkpt><trkpt lat="45.41534350272335" lon="8.613857113556438"><ele>143.0</ele><time>2026-04-06T15:17:39Z</time></trkpt><trkpt lat="45.41527227637511" lon="8.613870806684462"><ele>143.0</ele><time>2026-04-06T15:17:40Z</time></trkpt><trkpt lat="45.41520381334896" lon="8.613884751284052"><ele>142.99999999999997</ele><time>2026-04-06T15:17:41Z</time></trkpt><trkpt lat="45.415136155623344" lon="8.613899333468991"><ele>143.0</ele><time>2026-04-06T15:17:42Z</time></trkpt><trkpt lat="45.415073886650305" lon="8.613912754228743"><ele>143.16666666666666</ele><time>2026-04-06T15:17:43Z</time></trkpt><trkpt lat="45.414965327263104" lon="8.613937223666865"><ele>143.33333333333331</ele><time>2026-04-06T15:17:45Z</time></trkpt><trkpt lat="45.414878841021206" lon="8.613961150347317"><ele>143.5</ele><time>2026-04-06T15:17:47Z</time></trkpt><trkpt lat="45.414811675759466" lon="8.613974752009977"><ele>143.66666666666666</ele><time>2026-04-06T15:17:49Z</time></trkpt><trkpt lat="45.41474391931948" lon="8.61398674564972"><ele>143.83333333333334</ele><time>2026-04-06T15:18:11Z</time></trkpt><trkpt lat="45.4146687962547" lon="8.614020106989416"><ele>144.0</ele><time>2026-04-06T15:18:13Z</time></trkpt><trkpt lat="45.41457754914416" lon="8.614020422004542"><ele>144.0</ele><time>2026-04-06T15:18:15Z</time></trkpt><trkpt lat="45.41443907640294" lon="8.614032528159866"><ele>144.0</ele><time>2026-04-06T15:18:17Z</time></trkpt><trkpt lat="45.414330945612214" lon="8.614023965769322"><ele>144.0</ele><time>2026-04-06T15:18:18Z</time></trkpt><trkpt lat="45.4142034302832" lon="8.614065126536753"><ele>144.0</ele><time>2026-04-06T15:18:18.999Z</time></trkpt><trkpt lat="45.41411327068947" lon="8.61406330984915"><ele>144.0</ele><time>2026-04-06T15:18:19.999Z</time></trkpt><trkpt lat="45.41400863317875" lon="8.614070187212691"><ele>144.0</ele><time>2026-04-06T15:18:20.999Z</time></trkpt><trkpt lat="45.41392209142226" lon="8.614074629670318"><ele>144.0</ele><time>2026-04-06T15:18:21.999Z</time></trkpt><trkpt lat="45.41384320126193" lon="8.61408006889099"><ele>144.0</ele><time>2026-04-06T15:18:22.999Z</time></trkpt><trkpt lat="45.41376774343428" lon="8.614084311708504"><ele>144.0</ele><time>2026-04-06T15:18:23.999Z</time></trkpt><trkpt lat="45.4136974606371" lon="8.614085723226662"><ele>144.0</ele><time>2026-04-06T15:18:24.999Z</time></trkpt><trkpt lat="45.41362436563166" lon="8.614095675691042"><ele>143.66666666666666</ele><time>2026-04-06T15:18:25.999Z</time></trkpt><trkpt lat="45.41354898154808" lon="8.614105413787971"><ele>143.33333333333334</ele><time>2026-04-06T15:18:26.999Z</time></trkpt><trkpt lat="45.41347305058488" lon="8.614111063160374"><ele>143.0</ele><time>2026-04-06T15:18:27.999Z</time></trkpt><trkpt lat="45.41339588096846" lon="8.61412104571297"><ele>142.66666666666669</ele><time>2026-04-06T15:18:28.999Z</time></trkpt><trkpt lat="45.413319569505276" lon="8.614128314450065"><ele>142.33333333333334</ele><time>2026-04-06T15:18:29.999Z</time></trkpt><trkpt lat="45.413232386630675" lon="8.61414772041418"><ele>142.0</ele><time>2026-04-06T15:18:30.999Z</time></trkpt><trkpt lat="45.41312658817176" lon="8.614149668851235"><ele>142.0</ele><time>2026-04-06T15:18:31.999Z</time></trkpt><trkpt lat="45.413026579055625" lon="8.614159115091283"><ele>142.0</ele><time>2026-04-06T15:18:32.999Z</time></trkpt><trkpt lat="45.41293888923933" lon="8.614166814152737"><ele>142.0</ele><time>2026-04-06T15:18:33.999Z</time></trkpt><trkpt lat="45.412850577257466" lon="8.614173579989012"><ele>142.0</ele><time>2026-04-06T15:18:34.999Z</time></trkpt><trkpt lat="45.41276204958366" lon="8.614180362353173"><ele>142.0</ele><time>2026-04-06T15:18:35.999Z</time></trkpt><trkpt lat="45.41267115149925" lon="8.614187482948678"><ele>142.16666666666669</ele><time>2026-04-06T15:18:36.999Z</time></trkpt><trkpt lat="45.41258572815926" lon="8.614199745131605"><ele>142.33333333333334</ele><time>2026-04-06T15:18:37.999Z</time></trkpt><trkpt lat="45.412507414506926" lon="8.614212851633027"><ele>142.5</ele><time>2026-04-06T15:18:38.999Z</time></trkpt><trkpt lat="45.41242878887769" lon="8.61424380203076"><ele>142.66666666666666</ele><time>2026-04-06T15:18:39.999Z</time></trkpt><trkpt lat="45.41235416976665" lon="8.614250340851484"><ele>142.83333333333331</ele><time>2026-04-06T15:18:40.999Z</time></trkpt><trkpt lat="45.4122792836751" lon="8.614255858715305"><ele>143.0</ele><time>2026-04-06T15:18:41.999Z</time></trkpt><trkpt lat="45.41221504204302" lon="8.614265029424116"><ele>143.0</ele><time>2026-04-06T15:18:42.999Z</time></trkpt><trkpt lat="45.41207485426972" lon="8.614277805294503"><ele>143.0</ele><time>2026-04-06T15:18:44.999Z</time></trkpt><trkpt lat="45.411983161358116" lon="8.614284374149046"><ele>143.0</ele><time>2026-04-06T15:18:45.999Z</time></trkpt><trkpt lat="45.41188473985682" lon="8.614293923759675"><ele>143.0</ele><time>2026-04-06T15:18:46.999Z</time></trkpt><trkpt lat="45.411785208966734" lon="8.614298589861754"><ele>143.0</ele><time>2026-04-06T15:18:47.999Z</time></trkpt><trkpt lat="45.411682956595776" lon="8.614303493003163"><ele>143.0</ele><time>2026-04-06T15:18:48.999Z</time></trkpt><trkpt lat="45.4115858069949" lon="8.614321087575494"><ele>143.0</ele><time>2026-04-06T15:18:49.999Z</time></trkpt><trkpt lat="45.411489430959605" lon="8.61433312800424"><ele>143.0</ele><time>2026-04-06T15:18:50.999Z</time></trkpt><trkpt lat="45.411397753499344" lon="8.614345288717509"><ele>143.0</ele><time>2026-04-06T15:18:51.999Z</time></trkpt><trkpt lat="45.411308796583654" lon="8.614349260955331"><ele>143.0</ele><time>2026-04-06T15:18:52.999Z</time></trkpt><trkpt lat="45.4112160299099" lon="8.6143561716004"><ele>142.6</ele><time>2026-04-06T15:18:53.999Z</time></trkpt><trkpt lat="45.411116213841794" lon="8.61437414630441"><ele>142.20000000000002</ele><time>2026-04-06T15:18:54.999Z</time></trkpt><trkpt lat="45.411010447359466" lon="8.614384799554285"><ele>141.8</ele><time>2026-04-06T15:18:55.999Z</time></trkpt><trkpt lat="45.41091702360628" lon="8.614392454238184"><ele>141.4</ele><time>2026-04-06T15:18:56.999Z</time></trkpt><trkpt lat="45.41083498558548" lon="8.614399123602105"><ele>141.0</ele><time>2026-04-06T15:18:57.999Z</time></trkpt><trkpt lat="45.410757960588576" lon="8.614405766192831"><ele>141.0</ele><time>2026-04-06T15:18:58.999Z</time></trkpt><trkpt lat="45.410682739915785" lon="8.614414920701492"><ele>141.0</ele><time>2026-04-06T15:18:59.999Z</time></trkpt><trkpt lat="45.410611060031165" lon="8.614419539851358"><ele>141.0</ele><time>2026-04-06T15:19:00.999Z</time></trkpt><trkpt lat="45.41054595829949" lon="8.614421541951668"><ele>141.0</ele><time>2026-04-06T15:19:01.999Z</time></trkpt><trkpt lat="45.41043688440024" lon="8.614427824962863"><ele>141.0</ele><time>2026-04-06T15:19:03.999Z</time></trkpt><trkpt lat="45.410334570225764" lon="8.61443798797132"><ele>141.0</ele><time>2026-04-06T15:19:05.999Z</time></trkpt><trkpt lat="45.410220516587216" lon="8.614459875734383"><ele>141.33333333333334</ele><time>2026-04-06T15:19:07.999Z</time></trkpt><trkpt lat="45.41015621675167" lon="8.614441729813093"><ele>141.66666666666666</ele><time>2026-04-06T15:19:08.999Z</time></trkpt><trkpt lat="45.4100901473129" lon="8.614469139691456"><ele>142.0</ele><time>2026-04-06T15:19:09.999Z</time></trkpt><trkpt lat="45.41002546848457" lon="8.614450122633063"><ele>142.33333333333331</ele><time>2026-04-06T15:19:10.999Z</time></trkpt><trkpt lat="45.409919630139775" lon="8.61445693921339"><ele>142.66666666666666</ele><time>2026-04-06T15:19:12.999Z</time></trkpt><trkpt lat="45.409818569072655" lon="8.61446248071707"><ele>143.0</ele><time>2026-04-06T15:19:14.999Z</time></trkpt><trkpt lat="45.409727910939395" lon="8.614466928975618"><ele>143.0</ele><time>2026-04-06T15:19:16.999Z</time></trkpt><trkpt lat="45.4096424369963" lon="8.614471122862959"><ele>143.0</ele><time>2026-04-06T15:19:18.999Z</time></trkpt><trkpt lat="45.409566938986345" lon="8.614475928320028"><ele>143.0</ele><time>2026-04-06T15:19:20.999Z</time></trkpt><trkpt lat="45.40949667805876" lon="8.614481238483844"><ele>143.0</ele><time>2026-04-06T15:19:22.999Z</time></trkpt><trkpt lat="45.409413674087304" lon="8.614488254616706"><ele>143.0</ele><time>2026-04-06T15:19:24.999Z</time></trkpt><trkpt lat="45.409293814178206" lon="8.614499900633147"><ele>143.0</ele><time>2026-04-06T15:19:26.999Z</time></trkpt><trkpt lat="45.40920841829088" lon="8.61450819800814"><ele>142.75</ele><time>2026-04-06T15:19:27.999Z</time></trkpt><trkpt lat="45.40910838958623" lon="8.614517994730898"><ele>142.5</ele><time>2026-04-06T15:19:28.999Z</time></trkpt><trkpt lat="45.40899522105806" lon="8.614552600396856"><ele>142.25</ele><time>2026-04-06T15:19:29.999Z</time></trkpt><trkpt lat="45.40886069783112" lon="8.614565828319023"><ele>142.0</ele><time>2026-04-06T15:19:30.999Z</time></trkpt><trkpt lat="45.408717678406795" lon="8.614559691993957"><ele>142.0</ele><time>2026-04-06T15:19:31.999Z</time></trkpt><trkpt lat="45.40859045385913" lon="8.614573269583214"><ele>142.0</ele><time>2026-04-06T15:19:32.999Z</time></trkpt><trkpt lat="45.408463249122484" lon="8.614609043462778"><ele>142.0</ele><time>2026-04-06T15:19:33.999Z</time></trkpt><trkpt lat="45.408329414571725" lon="8.614617196152107"><ele>142.0</ele><time>2026-04-06T15:19:34.999Z</time></trkpt><trkpt lat="45.408190566905624" lon="8.614632696812917"><ele>142.0</ele><time>2026-04-06T15:19:36Z</time></trkpt><trkpt lat="45.40805726061975" lon="8.614646613669288"><ele>142.0</ele><time>2026-04-06T15:19:37Z</time></trkpt><trkpt lat="45.40792704438726" lon="8.61465874398346"><ele>142.0</ele><time>2026-04-06T15:19:38Z</time></trkpt><trkpt lat="45.40779545082716" lon="8.614672065362047"><ele>142.0</ele><time>2026-04-06T15:19:39Z</time></trkpt><trkpt lat="45.407667309018905" lon="8.614688470908188"><ele>142.0</ele><time>2026-04-06T15:19:40Z</time></trkpt><trkpt lat="45.40753128271204" lon="8.614677312270295"><ele>142.0</ele><time>2026-04-06T15:19:41Z</time></trkpt><trkpt lat="45.40738673966552" lon="8.614709608222203"><ele>142.0</ele><time>2026-04-06T15:19:42Z</time></trkpt><trkpt lat="45.40724485401716" lon="8.614717573770777"><ele>142.0</ele><time>2026-04-06T15:19:43Z</time></trkpt><trkpt lat="45.407102117415995" lon="8.614726480081174"><ele>141.5</ele><time>2026-04-06T15:19:44Z</time></trkpt><trkpt lat="45.40697433249217" lon="8.61473363561085"><ele>141.0</ele><time>2026-04-06T15:19:45Z</time></trkpt><trkpt lat="45.40685475897754" lon="8.614728795030892"><ele>140.5</ele><time>2026-04-06T15:19:46Z</time></trkpt><trkpt lat="45.40673780555976" lon="8.614739424117916"><ele>140.0</ele><time>2026-04-06T15:19:47Z</time></trkpt><trkpt lat="45.4066150623533" lon="8.614752767703578"><ele>140.0</ele><time>2026-04-06T15:19:48Z</time></trkpt><trkpt lat="45.40649475511894" lon="8.614792313995693"><ele>140.0</ele><time>2026-04-06T15:19:49Z</time></trkpt><trkpt lat="45.4063752911272" lon="8.614807456319687"><ele>140.0</ele><time>2026-04-06T15:19:50Z</time></trkpt><trkpt lat="45.40625923308131" lon="8.614824170295911"><ele>140.0</ele><time>2026-04-06T15:19:51Z</time></trkpt><trkpt lat="45.40613184874673" lon="8.614844006237414"><ele>140.25</ele><time>2026-04-06T15:19:52Z</time></trkpt><trkpt lat="45.40599241276388" lon="8.614868273297983"><ele>140.5</ele><time>2026-04-06T15:19:53Z</time></trkpt><trkpt lat="45.40584717861939" lon="8.614885813600397"><ele>140.75</ele><time>2026-04-06T15:19:54Z</time></trkpt><trkpt lat="45.40572302209319" lon="8.614899198149077"><ele>141.0</ele><time>2026-04-06T15:19:55Z</time></trkpt><trkpt lat="45.40561658289239" lon="8.614907979177273"><ele>141.0</ele><time>2026-04-06T15:19:56Z</time></trkpt><trkpt lat="45.40550795609832" lon="8.614920336532428"><ele>141.0</ele><time>2026-04-06T15:19:57Z</time></trkpt><trkpt lat="45.40539602295224" lon="8.614939602808512"><ele>141.0</ele><time>2026-04-06T15:19:58Z</time></trkpt><trkpt lat="45.405295141836795" lon="8.61495620036707"><ele>141.0</ele><time>2026-04-06T15:19:59Z</time></trkpt><trkpt lat="45.405200060919775" lon="8.614962055220243"><ele>141.0</ele><time>2026-04-06T15:20:00Z</time></trkpt><trkpt lat="45.405109624190175" lon="8.614965282703453"><ele>140.83333333333334</ele><time>2026-04-06T15:20:01Z</time></trkpt><trkpt lat="45.405025867738196" lon="8.614967793933237"><ele>140.66666666666666</ele><time>2026-04-06T15:20:02Z</time></trkpt><trkpt lat="45.40494153380463" lon="8.61497386768505"><ele>140.5</ele><time>2026-04-06T15:20:03Z</time></trkpt><trkpt lat="45.40485664912354" lon="8.61498411295749"><ele>140.33333333333331</ele><time>2026-04-06T15:20:04Z</time></trkpt><trkpt lat="45.4047640557506" lon="8.614998796820341"><ele>140.16666666666666</ele><time>2026-04-06T15:20:05Z</time></trkpt><trkpt lat="45.404669262013044" lon="8.615019567483486"><ele>140.0</ele><time>2026-04-06T15:20:06Z</time></trkpt><trkpt lat="45.404571659165235" lon="8.615045400384213"><ele>140.0</ele><time>2026-04-06T15:20:07Z</time></trkpt><trkpt lat="45.404469567940005" lon="8.615076140762783"><ele>140.0</ele><time>2026-04-06T15:20:08Z</time></trkpt><trkpt lat="45.40436147201169" lon="8.615109183261408"><ele>140.0</ele><time>2026-04-06T15:20:09Z</time></trkpt><trkpt lat="45.404252287564425" lon="8.615144206173682"><ele>140.0</ele><time>2026-04-06T15:20:10Z</time></trkpt><trkpt lat="45.40415131590247" lon="8.615177859708501"><ele>140.0</ele><time>2026-04-06T15:20:11Z</time></trkpt><trkpt lat="45.40406438364128" lon="8.615204218142345"><ele>140.0</ele><time>2026-04-06T15:20:12Z</time></trkpt><trkpt lat="45.4039861292556" lon="8.61522895785361"><ele>140.0</ele><time>2026-04-06T15:20:13Z</time></trkpt><trkpt lat="45.40391668142234" lon="8.615250751876717"><ele>140.0</ele><time>2026-04-06T15:20:14Z</time></trkpt><trkpt lat="45.40380356444876" lon="8.615287402506953"><ele>140.0</ele><time>2026-04-06T15:20:16Z</time></trkpt><trkpt lat="45.403708119301314" lon="8.615317372784585"><ele>140.0</ele><time>2026-04-06T15:20:18Z</time></trkpt><trkpt lat="45.40363207499557" lon="8.615334789207676"><ele>140.0</ele><time>2026-04-06T15:20:21Z</time></trkpt><trkpt lat="45.40354576093703" lon="8.615364988442746"><ele>140.16666666666666</ele><time>2026-04-06T15:20:24.999Z</time></trkpt><trkpt lat="45.40345620043034" lon="8.615383968810805"><ele>140.33333333333331</ele><time>2026-04-06T15:20:26.999Z</time></trkpt><trkpt lat="45.40335732048589" lon="8.615407446780774"><ele>140.5</ele><time>2026-04-06T15:20:28.999Z</time></trkpt><trkpt lat="45.40326645509623" lon="8.61543124295617"><ele>140.66666666666666</ele><time>2026-04-06T15:20:30.999Z</time></trkpt><trkpt lat="45.4031842189816" lon="8.615460242440891"><ele>140.83333333333334</ele><time>2026-04-06T15:20:32.999Z</time></trkpt><trkpt lat="45.40310914599537" lon="8.615482856686702"><ele>141.0</ele><time>2026-04-06T15:20:34.999Z</time></trkpt><trkpt lat="45.403040194349956" lon="8.615501208498106"><ele>141.0</ele><time>2026-04-06T15:20:36.999Z</time></trkpt><trkpt lat="45.40297693190614" lon="8.615514298011266"><ele>141.0</ele><time>2026-04-06T15:20:38.999Z</time></trkpt><trkpt lat="45.402894917987346" lon="8.61553219319521"><ele>141.0</ele><time>2026-04-06T15:20:41.999Z</time></trkpt><trkpt lat="45.40283376693067" lon="8.615573816760477"><ele>141.0</ele><time>2026-04-06T15:20:44.999Z</time></trkpt><trkpt lat="45.402762157554264" lon="8.61557742481709"><ele>141.0</ele><time>2026-04-06T15:20:52.999Z</time></trkpt><trkpt lat="45.40273646528959" lon="8.615450229395261"><ele>141.0</ele><time>2026-04-06T15:20:54.999Z</time></trkpt><trkpt lat="45.402676320897896" lon="8.615348703898663"><ele>141.2</ele><time>2026-04-06T15:20:56.999Z</time></trkpt><trkpt lat="45.40260158843359" lon="8.615244952112052"><ele>141.39999999999998</ele><time>2026-04-06T15:20:58.999Z</time></trkpt><trkpt lat="45.40254258907373" lon="8.615131020372171"><ele>141.6</ele><time>2026-04-06T15:21:00.999Z</time></trkpt><trkpt lat="45.402486979193704" lon="8.615023740891399"><ele>141.79999999999998</ele><time>2026-04-06T15:21:02.999Z</time></trkpt><trkpt lat="45.40243783114321" lon="8.61489574690065"><ele>142.0</ele><time>2026-04-06T15:21:04.999Z</time></trkpt><trkpt lat="45.40237985928428" lon="8.614781682547887"><ele>142.0</ele><time>2026-04-06T15:21:06.999Z</time></trkpt><trkpt lat="45.40232051488449" lon="8.614664766772108"><ele>142.0</ele><time>2026-04-06T15:21:08.999Z</time></trkpt><trkpt lat="45.402254228587836" lon="8.61453301304426"><ele>142.0</ele><time>2026-04-06T15:21:10.999Z</time></trkpt><trkpt lat="45.40219211588228" lon="8.614409405739952"><ele>142.0</ele><time>2026-04-06T15:21:12.999Z</time></trkpt><trkpt lat="45.40213254329175" lon="8.614290853479636"><ele>142.0</ele><time>2026-04-06T15:21:14.999Z</time></trkpt><trkpt lat="45.40206752875979" lon="8.614162458807444"><ele>141.2</ele><time>2026-04-06T15:21:16.999Z</time></trkpt><trkpt lat="45.401988877688716" lon="8.61404617388958"><ele>140.39999999999998</ele><time>2026-04-06T15:21:18.999Z</time></trkpt><trkpt lat="45.401926956153495" lon="8.613904044905217"><ele>139.60000000000002</ele><time>2026-04-06T15:21:20.999Z</time></trkpt><trkpt lat="45.401869941141484" lon="8.613749931105511"><ele>138.8</ele><time>2026-04-06T15:21:22.999Z</time></trkpt><trkpt lat="45.401861224802154" lon="8.61365593498066"><ele>138.0</ele><time>2026-04-06T15:21:23.999Z</time></trkpt><trkpt lat="45.40183906787737" lon="8.6135605120461"><ele>138.0</ele><time>2026-04-06T15:21:24.999Z</time></trkpt><trkpt lat="45.401815728411485" lon="8.613457723771223"><ele>138.0</ele><time>2026-04-06T15:21:25.999Z</time></trkpt><trkpt lat="45.401778190619346" lon="8.613353830458486"><ele>138.0</ele><time>2026-04-06T15:21:26.999Z</time></trkpt><trkpt lat="45.401770785387384" lon="8.613235824916103"><ele>138.0</ele><time>2026-04-06T15:21:27.999Z</time></trkpt><trkpt lat="45.40174733901465" lon="8.613112976890953"><ele>138.0</ele><time>2026-04-06T15:21:28.999Z</time></trkpt><trkpt lat="45.40172421890988" lon="8.612991838321122"><ele>138.0</ele><time>2026-04-06T15:21:29.999Z</time></trkpt><trkpt lat="45.401686504596704" lon="8.612879004922348"><ele>138.33333333333334</ele><time>2026-04-06T15:21:30.999Z</time></trkpt><trkpt lat="45.401668980014634" lon="8.612772521533792"><ele>138.66666666666666</ele><time>2026-04-06T15:21:31.999Z</time></trkpt><trkpt lat="45.40165253621581" lon="8.612673096911415"><ele>139.0</ele><time>2026-04-06T15:21:32.999Z</time></trkpt><trkpt lat="45.40163471720566" lon="8.612578369720643"><ele>139.33333333333331</ele><time>2026-04-06T15:21:33.999Z</time></trkpt><trkpt lat="45.40159969327884" lon="8.612399504884413"><ele>139.66666666666666</ele><time>2026-04-06T15:21:34.999Z</time></trkpt><trkpt lat="45.40157911316642" lon="8.612288379272483"><ele>140.0</ele><time>2026-04-06T15:21:35.999Z</time></trkpt><trkpt lat="45.40155912338824" lon="8.61217250715322"><ele>140.0</ele><time>2026-04-06T15:21:36.999Z</time></trkpt><trkpt lat="45.401559589958886" lon="8.61205705760193"><ele>140.0</ele><time>2026-04-06T15:21:37.999Z</time></trkpt><trkpt lat="45.401545798598654" lon="8.611944683624316"><ele>140.0</ele><time>2026-04-06T15:21:38.999Z</time></trkpt><trkpt lat="45.401531402303675" lon="8.611827380676015"><ele>140.0</ele><time>2026-04-06T15:21:39.999Z</time></trkpt><trkpt lat="45.401515446154384" lon="8.611707487143656"><ele>140.0</ele><time>2026-04-06T15:21:40.999Z</time></trkpt><trkpt lat="45.401483419533776" lon="8.611598128860445"><ele>140.0</ele><time>2026-04-06T15:21:42Z</time></trkpt><trkpt lat="45.401463194543226" lon="8.611481248760581"><ele>140.0</ele><time>2026-04-06T15:21:43Z</time></trkpt><trkpt lat="45.40143978606622" lon="8.6113733597338"><ele>140.0</ele><time>2026-04-06T15:21:44Z</time></trkpt><trkpt lat="45.401432503113746" lon="8.61126303707899"><ele>140.0</ele><time>2026-04-06T15:21:45Z</time></trkpt><trkpt lat="45.40141770906994" lon="8.61115822992305"><ele>140.0</ele><time>2026-04-06T15:21:46Z</time></trkpt><trkpt lat="45.40140402334722" lon="8.611061277811977"><ele>140.0</ele><time>2026-04-06T15:21:47Z</time></trkpt><trkpt lat="45.40140000692329" lon="8.610959200168518"><ele>140.0</ele><time>2026-04-06T15:21:48Z</time></trkpt><trkpt lat="45.40139374989144" lon="8.610850116273541"><ele>140.0</ele><time>2026-04-06T15:21:49Z</time></trkpt><trkpt lat="45.40139035398701" lon="8.610743608200227"><ele>140.0</ele><time>2026-04-06T15:21:50Z</time></trkpt><trkpt lat="45.40138696340895" lon="8.610635064558736"><ele>140.0</ele><time>2026-04-06T15:21:51Z</time></trkpt><trkpt lat="45.40136774820765" lon="8.610529304681068"><ele>140.0</ele><time>2026-04-06T15:21:52Z</time></trkpt><trkpt lat="45.40136132167274" lon="8.610419271117527"><ele>140.0</ele><time>2026-04-06T15:21:53Z</time></trkpt><trkpt lat="45.40134858760407" lon="8.610310101542122"><ele>140.0</ele><time>2026-04-06T15:21:54Z</time></trkpt><trkpt lat="45.40133763849144" lon="8.610202440131577"><ele>139.0</ele><time>2026-04-06T15:21:55Z</time></trkpt><trkpt lat="45.40134520167006" lon="8.610094547901797"><ele>138.0</ele><time>2026-04-06T15:21:56Z</time></trkpt><trkpt lat="45.4013424122669" lon="8.609984990487266"><ele>137.0</ele><time>2026-04-06T15:21:57Z</time></trkpt><trkpt lat="45.40133350927339" lon="8.609868064885651"><ele>136.0</ele><time>2026-04-06T15:21:58Z</time></trkpt><trkpt lat="45.40133188830915" lon="8.609729020291633"><ele>135.0</ele><time>2026-04-06T15:21:59Z</time></trkpt><trkpt lat="45.401330592365554" lon="8.609555226174406"><ele>134.2</ele><time>2026-04-06T15:22:00Z</time></trkpt><trkpt lat="45.40132603186702" lon="8.60939415843596"><ele>133.4</ele><time>2026-04-06T15:22:01Z</time></trkpt><trkpt lat="45.40132947764938" lon="8.609258940830864"><ele>132.6</ele><time>2026-04-06T15:22:02Z</time></trkpt><trkpt lat="45.401330992941595" lon="8.609112021703664"><ele>131.8</ele><time>2026-04-06T15:22:03Z</time></trkpt><trkpt lat="45.401322985228" lon="8.60896767012864"><ele>131.0</ele><time>2026-04-06T15:22:04Z</time></trkpt><trkpt lat="45.40133119312123" lon="8.608824025894116"><ele>131.0</ele><time>2026-04-06T15:22:05Z</time></trkpt><trkpt lat="45.40131653889706" lon="8.608702360170804"><ele>131.0</ele><time>2026-04-06T15:22:06Z</time></trkpt><trkpt lat="45.40131397057627" lon="8.60858037381904"><ele>131.0</ele><time>2026-04-06T15:22:07Z</time></trkpt><trkpt lat="45.40131038988119" lon="8.608455510538946"><ele>131.0</ele><time>2026-04-06T15:22:08Z</time></trkpt><trkpt lat="45.40130747454092" lon="8.608335589810503"><ele>131.0</ele><time>2026-04-06T15:22:09Z</time></trkpt><trkpt lat="45.40130559054143" lon="8.608214599879789"><ele>131.0</ele><time>2026-04-06T15:22:10Z</time></trkpt><trkpt lat="45.40130411215053" lon="8.608080373139288"><ele>130.83333333333331</ele><time>2026-04-06T15:22:11Z</time></trkpt><trkpt lat="45.401301224544405" lon="8.607946377851613"><ele>130.66666666666666</ele><time>2026-04-06T15:22:12Z</time></trkpt><trkpt lat="45.401298547435225" lon="8.607812731545216"><ele>130.5</ele><time>2026-04-06T15:22:13Z</time></trkpt><trkpt lat="45.40129708690464" lon="8.607688597481147"><ele>130.33333333333334</ele><time>2026-04-06T15:22:14Z</time></trkpt><trkpt lat="45.40131174088601" lon="8.607567813203767"><ele>130.16666666666669</ele><time>2026-04-06T15:22:15Z</time></trkpt><trkpt lat="45.401308554935525" lon="8.607452550049832"><ele>130.0</ele><time>2026-04-06T15:22:16Z</time></trkpt><trkpt lat="45.40130377867862" lon="8.607331324676682"><ele>130.0</ele><time>2026-04-06T15:22:17Z</time></trkpt><trkpt lat="45.40129761523207" lon="8.607206328834698"><ele>130.0</ele><time>2026-04-06T15:22:18Z</time></trkpt><trkpt lat="45.401290945070414" lon="8.607071056640887"><ele>130.0</ele><time>2026-04-06T15:22:19Z</time></trkpt><trkpt lat="45.4012705695062" lon="8.606938305232836"><ele>130.0</ele><time>2026-04-06T15:22:20Z</time></trkpt><trkpt lat="45.401283445385225" lon="8.606807460056489"><ele>130.0</ele><time>2026-04-06T15:22:21Z</time></trkpt><trkpt lat="45.40127347225867" lon="8.606678106371485"><ele>130.0</ele><time>2026-04-06T15:22:22Z</time></trkpt><trkpt lat="45.401289931008456" lon="8.60654802995061"><ele>130.0</ele><time>2026-04-06T15:22:23Z</time></trkpt><trkpt lat="45.40129787904328" lon="8.606417836974337"><ele>130.0</ele><time>2026-04-06T15:22:24Z</time></trkpt><trkpt lat="45.40130840885465" lon="8.606290255843266"><ele>130.0</ele><time>2026-04-06T15:22:25Z</time></trkpt><trkpt lat="45.401320863254966" lon="8.606168039581938"><ele>130.0</ele><time>2026-04-06T15:22:26Z</time></trkpt><trkpt lat="45.40131909451899" lon="8.606037575293936"><ele>129.8</ele><time>2026-04-06T15:22:26.999Z</time></trkpt><trkpt lat="45.40133516325659" lon="8.605903129022515"><ele>129.6</ele><time>2026-04-06T15:22:27.999Z</time></trkpt><trkpt lat="45.401357555818045" lon="8.605779559947281"><ele>129.4</ele><time>2026-04-06T15:22:28.999Z</time></trkpt><trkpt lat="45.40135162788547" lon="8.605653958058598"><ele>129.2</ele><time>2026-04-06T15:22:29.999Z</time></trkpt><trkpt lat="45.401358928054854" lon="8.605535856719344"><ele>129.0</ele><time>2026-04-06T15:22:30.999Z</time></trkpt><trkpt lat="45.401374862221274" lon="8.605387714910085"><ele>129.16666666666666</ele><time>2026-04-06T15:22:31.999Z</time></trkpt><trkpt lat="45.40136496672915" lon="8.605222837107828"><ele>129.33333333333334</ele><time>2026-04-06T15:22:32.999Z</time></trkpt><trkpt lat="45.40134507433513" lon="8.605081255060231"><ele>129.5</ele><time>2026-04-06T15:22:33.999Z</time></trkpt><trkpt lat="45.4013201269466" lon="8.604969097244966"><ele>129.66666666666669</ele><time>2026-04-06T15:22:34.999Z</time></trkpt><trkpt lat="45.401299854533654" lon="8.604870472166779"><ele>129.83333333333334</ele><time>2026-04-06T15:22:35.999Z</time></trkpt><trkpt lat="45.40127936141711" lon="8.604781847217401"><ele>130.0</ele><time>2026-04-06T15:22:36.999Z</time></trkpt><trkpt lat="45.40125920591252" lon="8.604692920924235"><ele>130.0</ele><time>2026-04-06T15:22:38.999Z</time></trkpt><trkpt lat="45.40127374882844" lon="8.604575400168017"><ele>130.0</ele><time>2026-04-06T15:22:44.999Z</time></trkpt><trkpt lat="45.401340493625426" lon="8.60455831290595"><ele>130.0</ele><time>2026-04-06T15:22:45.999Z</time></trkpt><trkpt lat="45.401403431817066" lon="8.60454405873119"><ele>130.0</ele><time>2026-04-06T15:22:46.999Z</time></trkpt><trkpt lat="45.40151968569363" lon="8.604490599832198"><ele>130.0</ele><time>2026-04-06T15:22:48.999Z</time></trkpt><trkpt lat="45.40157921284421" lon="8.604458604689208"><ele>130.0</ele><time>2026-04-06T15:22:49.999Z</time></trkpt><trkpt lat="45.40167059480762" lon="8.604396210445124"><ele>130.6</ele><time>2026-04-06T15:22:51.999Z</time></trkpt><trkpt lat="45.40174778089795" lon="8.604360009624934"><ele>131.2</ele><time>2026-04-06T15:23:05.999Z</time></trkpt><trkpt lat="45.40186464403856" lon="8.604296963325353"><ele>131.8</ele><time>2026-04-06T15:23:07.999Z</time></trkpt><trkpt lat="45.40194218418162" lon="8.604257384511227"><ele>132.4</ele><time>2026-04-06T15:23:08.999Z</time></trkpt><trkpt lat="45.40201720229374" lon="8.604217642878144"><ele>133.0</ele><time>2026-04-06T15:23:09.999Z</time></trkpt><trkpt lat="45.402093855195204" lon="8.60418043773284"><ele>133.0</ele><time>2026-04-06T15:23:10.999Z</time></trkpt><trkpt lat="45.40215416444067" lon="8.604147315195936"><ele>133.0</ele><time>2026-04-06T15:23:11.999Z</time></trkpt><trkpt lat="45.4022592578336" lon="8.604098917266473"><ele>133.0</ele><time>2026-04-06T15:23:13.999Z</time></trkpt><trkpt lat="45.402319009209805" lon="8.60406869243432"><ele>133.0</ele><time>2026-04-06T15:23:14.999Z</time></trkpt><trkpt lat="45.40237956693416" lon="8.604038792583482"><ele>133.0</ele><time>2026-04-06T15:23:15.999Z</time></trkpt><trkpt lat="45.402496919133426" lon="8.603980625823013"><ele>133.0</ele><time>2026-04-06T15:23:17.999Z</time></trkpt><trkpt lat="45.40257020093127" lon="8.603948950404941"><ele>132.83333333333334</ele><time>2026-04-06T15:23:18.999Z</time></trkpt><trkpt lat="45.40266620713583" lon="8.603904362878026"><ele>132.66666666666669</ele><time>2026-04-06T15:23:19.999Z</time></trkpt><trkpt lat="45.40275724784956" lon="8.603855408899085"><ele>132.5</ele><time>2026-04-06T15:23:20.999Z</time></trkpt><trkpt lat="45.40283917830894" lon="8.603822967638775"><ele>132.33333333333334</ele><time>2026-04-06T15:23:21.999Z</time></trkpt><trkpt lat="45.40291623117856" lon="8.60379011661093"><ele>132.16666666666666</ele><time>2026-04-06T15:23:22.999Z</time></trkpt><trkpt lat="45.40299018502584" lon="8.603755410559765"><ele>132.0</ele><time>2026-04-06T15:23:23.999Z</time></trkpt><trkpt lat="45.403064073833136" lon="8.603720473985629"><ele>132.0</ele><time>2026-04-06T15:23:24.999Z</time></trkpt><trkpt lat="45.40313843814264" lon="8.603710354854371"><ele>132.0</ele><time>2026-04-06T15:23:25.999Z</time></trkpt><trkpt lat="45.40320873009583" lon="8.603677540290981"><ele>132.0</ele><time>2026-04-06T15:23:26.999Z</time></trkpt><trkpt lat="45.4032809546083" lon="8.60364148857357"><ele>132.0</ele><time>2026-04-06T15:23:27.999Z</time></trkpt><trkpt lat="45.4033509707049" lon="8.603606089958312"><ele>132.0</ele><time>2026-04-06T15:23:28.999Z</time></trkpt><trkpt lat="45.403414595108586" lon="8.603553510322577"><ele>132.0</ele><time>2026-04-06T15:23:29.999Z</time></trkpt><trkpt lat="45.403483008395334" lon="8.603517442208984"><ele>132.0</ele><time>2026-04-06T15:23:30.999Z</time></trkpt><trkpt lat="45.40355484392271" lon="8.603504159611964"><ele>132.16666666666666</ele><time>2026-04-06T15:23:31.999Z</time></trkpt><trkpt lat="45.40362413973818" lon="8.603470194247487"><ele>132.33333333333334</ele><time>2026-04-06T15:23:32.999Z</time></trkpt><trkpt lat="45.40369554191404" lon="8.60343519625539"><ele>132.5</ele><time>2026-04-06T15:23:33.999Z</time></trkpt><trkpt lat="45.40376037578229" lon="8.603382101940426"><ele>132.66666666666669</ele><time>2026-04-06T15:23:34.999Z</time></trkpt><trkpt lat="45.403830884290144" lon="8.603368860179353"><ele>132.83333333333334</ele><time>2026-04-06T15:23:35.999Z</time></trkpt><trkpt lat="45.40389177715451" lon="8.603316528141931"><ele>133.0</ele><time>2026-04-06T15:23:36.999Z</time></trkpt><trkpt lat="45.40402111764242" lon="8.603250994764736"><ele>133.0</ele><time>2026-04-06T15:23:38.999Z</time></trkpt><trkpt lat="45.40409161952138" lon="8.603215229053108"><ele>133.0</ele><time>2026-04-06T15:23:39.999Z</time></trkpt><trkpt lat="45.4041610777931" lon="8.603160887330034"><ele>133.0</ele><time>2026-04-06T15:23:40.999Z</time></trkpt><trkpt lat="45.404228234634765" lon="8.603114790208304"><ele>133.0</ele><time>2026-04-06T15:23:41.999Z</time></trkpt><trkpt lat="45.40429828061319" lon="8.60306030257243"><ele>133.0</ele><time>2026-04-06T15:23:42.999Z</time></trkpt><trkpt lat="45.40436208695463" lon="8.60300895144826"><ele>133.0</ele><time>2026-04-06T15:23:43.999Z</time></trkpt><trkpt lat="45.404427556636094" lon="8.602949843176313"><ele>133.0</ele><time>2026-04-06T15:23:44.999Z</time></trkpt><trkpt lat="45.404492786845175" lon="8.602891763654233"><ele>133.0</ele><time>2026-04-06T15:23:45.999Z</time></trkpt><trkpt lat="45.40455781438228" lon="8.602831252257534"><ele>133.0</ele><time>2026-04-06T15:23:46.999Z</time></trkpt><trkpt lat="45.40462044890412" lon="8.602777357200374"><ele>133.0</ele><time>2026-04-06T15:23:48Z</time></trkpt><trkpt lat="45.40468173302018" lon="8.60271468594526"><ele>133.0</ele><time>2026-04-06T15:23:49Z</time></trkpt><trkpt lat="45.4047511419888" lon="8.602664032017465"><ele>133.0</ele><time>2026-04-06T15:23:50Z</time></trkpt><trkpt lat="45.40481625778468" lon="8.602601943343535"><ele>133.16666666666669</ele><time>2026-04-06T15:23:51Z</time></trkpt><trkpt lat="45.40488453825221" lon="8.602555996742362"><ele>133.33333333333334</ele><time>2026-04-06T15:23:52Z</time></trkpt><trkpt lat="45.40494128897234" lon="8.602510613289041"><ele>133.5</ele><time>2026-04-06T15:23:53Z</time></trkpt><trkpt lat="45.40500669438711" lon="8.602466539647207"><ele>133.66666666666666</ele><time>2026-04-06T15:23:55Z</time></trkpt><trkpt lat="45.4050829682859" lon="8.602411146757646"><ele>133.83333333333331</ele><time>2026-04-06T15:24:06Z</time></trkpt><trkpt lat="45.405191120170684" lon="8.602361827940175"><ele>134.0</ele><time>2026-04-06T15:24:08Z</time></trkpt><trkpt lat="45.40525636980573" lon="8.602356335147052"><ele>134.0</ele><time>2026-04-06T15:24:09Z</time></trkpt><trkpt lat="45.405324202114464" lon="8.602354814902275"><ele>134.0</ele><time>2026-04-06T15:24:10Z</time></trkpt><trkpt lat="45.405391053282464" lon="8.602367594078224"><ele>134.0</ele><time>2026-04-06T15:24:11Z</time></trkpt><trkpt lat="45.40546054574754" lon="8.602381518355985"><ele>134.0</ele><time>2026-04-06T15:24:12Z</time></trkpt><trkpt lat="45.40552810766387" lon="8.602388730071496"><ele>134.0</ele><time>2026-04-06T15:24:13Z</time></trkpt><trkpt lat="45.4055998075092" lon="8.602393380352009"><ele>134.0</ele><time>2026-04-06T15:24:14Z</time></trkpt><trkpt lat="45.40567053675211" lon="8.602405683096787"><ele>134.0</ele><time>2026-04-06T15:24:15Z</time></trkpt><trkpt lat="45.40574717656973" lon="8.602416742853004"><ele>133.66666666666666</ele><time>2026-04-06T15:24:16Z</time></trkpt><trkpt lat="45.405820159371444" lon="8.602424736932187"><ele>133.33333333333331</ele><time>2026-04-06T15:24:17Z</time></trkpt><trkpt lat="45.40588684804576" lon="8.602425450102096"><ele>133.0</ele><time>2026-04-06T15:24:18Z</time></trkpt><trkpt lat="45.40595506222864" lon="8.602405123885752"><ele>132.66666666666666</ele><time>2026-04-06T15:24:19Z</time></trkpt><trkpt lat="45.40602251827927" lon="8.602384220348537"><ele>132.33333333333334</ele><time>2026-04-06T15:24:20Z</time></trkpt><trkpt lat="45.40613621266163" lon="8.602412202538387"><ele>132.0</ele><time>2026-04-06T15:24:22Z</time></trkpt><trkpt lat="45.406214351789934" lon="8.602438571255899"><ele>132.0</ele><time>2026-04-06T15:24:23Z</time></trkpt><trkpt lat="45.40629821084843" lon="8.602473778684892"><ele>132.0</ele><time>2026-04-06T15:24:24Z</time></trkpt><trkpt lat="45.40638795377699" lon="8.602487243261333"><ele>132.0</ele><time>2026-04-06T15:24:25Z</time></trkpt><trkpt lat="45.406473028259214" lon="8.602521074292245"><ele>132.0</ele><time>2026-04-06T15:24:26Z</time></trkpt><trkpt lat="45.406554775411784" lon="8.602541350845025"><ele>132.0</ele><time>2026-04-06T15:24:27Z</time></trkpt><trkpt lat="45.406643196773246" lon="8.602559766757343"><ele>132.0</ele><time>2026-04-06T15:24:28Z</time></trkpt><trkpt lat="45.40673952780061" lon="8.602577283981015"><ele>131.83333333333334</ele><time>2026-04-06T15:24:28.999Z</time></trkpt><trkpt lat="45.406843668042924" lon="8.602574901784557"><ele>131.66666666666666</ele><time>2026-04-06T15:24:29.999Z</time></trkpt><trkpt lat="45.4069337882601" lon="8.60258012367532"><ele>131.5</ele><time>2026-04-06T15:24:30.999Z</time></trkpt><trkpt lat="45.407014200238876" lon="8.602583438040636"><ele>131.33333333333331</ele><time>2026-04-06T15:24:31.999Z</time></trkpt><trkpt lat="45.40708021269958" lon="8.602590777390722"><ele>131.16666666666666</ele><time>2026-04-06T15:24:32.999Z</time></trkpt><trkpt lat="45.40715027815522" lon="8.602567649726108"><ele>131.0</ele><time>2026-04-06T15:24:33.999Z</time></trkpt><trkpt lat="45.407232754818594" lon="8.60254799528133"><ele>131.0</ele><time>2026-04-06T15:24:34.999Z</time></trkpt><trkpt lat="45.40732437601695" lon="8.602549783586923"><ele>131.0</ele><time>2026-04-06T15:24:35.999Z</time></trkpt><trkpt lat="45.407421900633885" lon="8.602524381782892"><ele>131.0</ele><time>2026-04-06T15:24:36.999Z</time></trkpt><trkpt lat="45.4075062440804" lon="8.60250131770632"><ele>131.0</ele><time>2026-04-06T15:24:37.999Z</time></trkpt><trkpt lat="45.40758053289568" lon="8.602459375410627"><ele>131.0</ele><time>2026-04-06T15:24:38.999Z</time></trkpt><trkpt lat="45.40766718578051" lon="8.60243533353452"><ele>131.0</ele><time>2026-04-06T15:24:39.999Z</time></trkpt><trkpt lat="45.407763295115146" lon="8.602388682653817"><ele>131.0</ele><time>2026-04-06T15:24:40.999Z</time></trkpt><trkpt lat="45.40783975110544" lon="8.602310572109435"><ele>131.0</ele><time>2026-04-06T15:24:41.999Z</time></trkpt><trkpt lat="45.40792830794215" lon="8.602261661560204"><ele>131.0</ele><time>2026-04-06T15:24:42.999Z</time></trkpt><trkpt lat="45.40801439312693" lon="8.602192730819"><ele>131.0</ele><time>2026-04-06T15:24:43.999Z</time></trkpt><trkpt lat="45.4080985452549" lon="8.602129417434787"><ele>131.0</ele><time>2026-04-06T15:24:44.999Z</time></trkpt><trkpt lat="45.40817428757297" lon="8.60206792867919"><ele>131.0</ele><time>2026-04-06T15:24:45.999Z</time></trkpt><trkpt lat="45.408242119611685" lon="8.602008231246911"><ele>131.0</ele><time>2026-04-06T15:24:46.999Z</time></trkpt><trkpt lat="45.40829976821828" lon="8.601955893439602"><ele>131.0</ele><time>2026-04-06T15:24:47.999Z</time></trkpt><trkpt lat="45.40841379334784" lon="8.601862845612628"><ele>131.0</ele><time>2026-04-06T15:24:49.999Z</time></trkpt><trkpt lat="45.40847338406614" lon="8.601806129198433"><ele>131.0</ele><time>2026-04-06T15:24:50.999Z</time></trkpt><trkpt lat="45.40854509434945" lon="8.601743358356744"><ele>131.0</ele><time>2026-04-06T15:24:51.999Z</time></trkpt><trkpt lat="45.40863434825659" lon="8.601660393175777"><ele>131.0</ele><time>2026-04-06T15:24:53.999Z</time></trkpt><trkpt lat="45.40870193967892" lon="8.601617047755576"><ele>131.0</ele><time>2026-04-06T15:24:55.999Z</time></trkpt><trkpt lat="45.40880711966752" lon="8.601805801510586"><ele>131.0</ele><time>2026-04-06T15:25:38.999Z</time></trkpt><trkpt lat="45.408821515892754" lon="8.601909870389967"><ele>131.0</ele><time>2026-04-06T15:25:39.999Z</time></trkpt><trkpt lat="45.408838746447216" lon="8.602020803253755"><ele>131.0</ele><time>2026-04-06T15:25:40.999Z</time></trkpt><trkpt lat="45.40887321106288" lon="8.602129419576372"><ele>131.0</ele><time>2026-04-06T15:25:41.999Z</time></trkpt><trkpt lat="45.40889353073617" lon="8.602254844099194"><ele>131.0</ele><time>2026-04-06T15:25:42.999Z</time></trkpt><trkpt lat="45.408911874781765" lon="8.602381059018043"><ele>131.0</ele><time>2026-04-06T15:25:43.999Z</time></trkpt><trkpt lat="45.40892933734061" lon="8.6024925041231"><ele>131.0</ele><time>2026-04-06T15:25:44.999Z</time></trkpt><trkpt lat="45.40894725278001" lon="8.602602281189201"><ele>131.0</ele><time>2026-04-06T15:25:45.999Z</time></trkpt><trkpt lat="45.408961967169994" lon="8.602709751582562"><ele>131.0</ele><time>2026-04-06T15:25:46.999Z</time></trkpt><trkpt lat="45.40896255334055" lon="8.602836881269774"><ele>131.0</ele><time>2026-04-06T15:25:47.999Z</time></trkpt><trkpt lat="45.4089814250038" lon="8.602965691950303"><ele>131.0</ele><time>2026-04-06T15:25:48.999Z</time></trkpt><trkpt lat="45.40899918135256" lon="8.603095307048944"><ele>131.0</ele><time>2026-04-06T15:25:49.999Z</time></trkpt><trkpt lat="45.40901020352232" lon="8.603194182964334"><ele>131.0</ele><time>2026-04-06T15:25:51.999Z</time></trkpt><trkpt lat="45.40902511630492" lon="8.60335327585611"><ele>131.0</ele><time>2026-04-06T15:25:54Z</time></trkpt><trkpt lat="45.409049253512435" lon="8.603528390398404"><ele>131.0</ele><time>2026-04-06T15:25:56Z</time></trkpt><trkpt lat="45.40905555662426" lon="8.60362331903838"><ele>131.0</ele><time>2026-04-06T15:25:57Z</time></trkpt><trkpt lat="45.409066196841735" lon="8.603776735615158"><ele>131.0</ele><time>2026-04-06T15:25:59Z</time></trkpt><trkpt lat="45.40907536135759" lon="8.603879202231669"><ele>131.0</ele><time>2026-04-06T15:26:01Z</time></trkpt><trkpt lat="45.40907444054668" lon="8.60398761235566"><ele>131.0</ele><time>2026-04-06T15:26:04Z</time></trkpt><trkpt lat="45.40907892957958" lon="8.604123646213148"><ele>131.0</ele><time>2026-04-06T15:26:07Z</time></trkpt><trkpt lat="45.40908467734897" lon="8.604222101344481"><ele>131.16666666666666</ele><time>2026-04-06T15:26:09Z</time></trkpt><trkpt lat="45.40909874083955" lon="8.604348888487422"><ele>131.33333333333331</ele><time>2026-04-06T15:26:11Z</time></trkpt><trkpt lat="45.409106208740795" lon="8.60444673575208"><ele>131.5</ele><time>2026-04-06T15:26:12Z</time></trkpt><trkpt lat="45.40909165463727" lon="8.604577001162523"><ele>131.66666666666666</ele><time>2026-04-06T15:26:13Z</time></trkpt><trkpt lat="45.409091654636725" lon="8.604697590958923"><ele>131.83333333333334</ele><time>2026-04-06T15:26:14Z</time></trkpt><trkpt lat="45.40908991489734" lon="8.60480740533342"><ele>132.0</ele><time>2026-04-06T15:26:15Z</time></trkpt><trkpt lat="45.40908676649458" lon="8.604917368808712"><ele>132.16666666666666</ele><time>2026-04-06T15:26:16Z</time></trkpt><trkpt lat="45.40909676694432" lon="8.605030284734582"><ele>132.33333333333334</ele><time>2026-04-06T15:26:17Z</time></trkpt><trkpt lat="45.409076599529" lon="8.605129297574248"><ele>132.5</ele><time>2026-04-06T15:26:18Z</time></trkpt><trkpt lat="45.40908601352945" lon="8.605233904388292"><ele>132.66666666666669</ele><time>2026-04-06T15:26:19Z</time></trkpt><trkpt lat="45.409063457439416" lon="8.605336364534281"><ele>132.83333333333334</ele><time>2026-04-06T15:26:20Z</time></trkpt><trkpt lat="45.40905577230812" lon="8.60544345121866"><ele>133.0</ele><time>2026-04-06T15:26:21Z</time></trkpt><trkpt lat="45.40904768204032" lon="8.605546718509313"><ele>133.0</ele><time>2026-04-06T15:26:22Z</time></trkpt><trkpt lat="45.40905370442763" lon="8.605651947608221"><ele>133.0</ele><time>2026-04-06T15:26:23Z</time></trkpt><trkpt lat="45.40904440046352" lon="8.605765044041544"><ele>133.0</ele><time>2026-04-06T15:26:24Z</time></trkpt><trkpt lat="45.40901610170585" lon="8.605898200994423"><ele>133.0</ele><time>2026-04-06T15:26:25Z</time></trkpt><trkpt lat="45.40902026742832" lon="8.606034747393908"><ele>133.0</ele><time>2026-04-06T15:26:26Z</time></trkpt><trkpt lat="45.40900832689343" lon="8.606154603608026"><ele>133.0</ele><time>2026-04-06T15:26:27Z</time></trkpt><trkpt lat="45.40899742001262" lon="8.606268855687397"><ele>133.33333333333334</ele><time>2026-04-06T15:26:28Z</time></trkpt><trkpt lat="45.40898757521329" lon="8.606384487819934"><ele>133.66666666666669</ele><time>2026-04-06T15:26:29Z</time></trkpt><trkpt lat="45.40897509612346" lon="8.606503090725626"><ele>134.0</ele><time>2026-04-06T15:26:30Z</time></trkpt><trkpt lat="45.408966673713884" lon="8.606622262123514"><ele>134.33333333333334</ele><time>2026-04-06T15:26:31Z</time></trkpt><trkpt lat="45.40896369439771" lon="8.6067435875541"><ele>134.66666666666666</ele><time>2026-04-06T15:26:32Z</time></trkpt><trkpt lat="45.40896155620685" lon="8.606866387624738"><ele>135.0</ele><time>2026-04-06T15:26:32.999Z</time></trkpt><trkpt lat="45.40895581144459" lon="8.606995818965023"><ele>135.5</ele><time>2026-04-06T15:26:33.999Z</time></trkpt><trkpt lat="45.408945791855956" lon="8.607123557847673"><ele>136.0</ele><time>2026-04-06T15:26:34.999Z</time></trkpt><trkpt lat="45.40891948761143" lon="8.607243101817373"><ele>136.5</ele><time>2026-04-06T15:26:35.999Z</time></trkpt><trkpt lat="45.40891922280452" lon="8.607369435206467"><ele>137.0</ele><time>2026-04-06T15:26:36.999Z</time></trkpt><trkpt lat="45.40889280510041" lon="8.607477800916643"><ele>137.5</ele><time>2026-04-06T15:26:37.999Z</time></trkpt><trkpt lat="45.40886646922319" lon="8.607589668864177"><ele>138.0</ele><time>2026-04-06T15:26:38.999Z</time></trkpt><trkpt lat="45.40883945431243" lon="8.607701219984055"><ele>138.25</ele><time>2026-04-06T15:26:39.999Z</time></trkpt><trkpt lat="45.40882162503672" lon="8.607815592411235"><ele>138.5</ele><time>2026-04-06T15:26:40.999Z</time></trkpt><trkpt lat="45.408826790613986" lon="8.607962543648261"><ele>138.75</ele><time>2026-04-06T15:26:41.999Z</time></trkpt><trkpt lat="45.40881916982772" lon="8.608150214792204"><ele>139.0</ele><time>2026-04-06T15:26:42.999Z</time></trkpt><trkpt lat="45.40886537783741" lon="8.608354479972766"><ele>139.4</ele><time>2026-04-06T15:26:43.999Z</time></trkpt><trkpt lat="45.40891050061037" lon="8.608514620301634"><ele>139.8</ele><time>2026-04-06T15:26:44.999Z</time></trkpt><trkpt lat="45.40893686170003" lon="8.60865284433499"><ele>140.2</ele><time>2026-04-06T15:26:45.999Z</time></trkpt><trkpt lat="45.4089363749976" lon="8.608776104021626"><ele>140.6</ele><time>2026-04-06T15:26:46.999Z</time></trkpt><trkpt lat="45.40894017209778" lon="8.608904106235357"><ele>141.0</ele><time>2026-04-06T15:26:47.999Z</time></trkpt><trkpt lat="45.40894596766702" lon="8.609041741626946"><ele>141.0</ele><time>2026-04-06T15:26:48.999Z</time></trkpt><trkpt lat="45.408952708430725" lon="8.609173269416056"><ele>141.0</ele><time>2026-04-06T15:26:49.999Z</time></trkpt><trkpt lat="45.40895995453981" lon="8.609289646577173"><ele>141.0</ele><time>2026-04-06T15:26:50.999Z</time></trkpt><trkpt lat="45.408972031177704" lon="8.60940286167998"><ele>141.0</ele><time>2026-04-06T15:26:51.999Z</time></trkpt><trkpt lat="45.40898546306107" lon="8.609499382859212"><ele>141.0</ele><time>2026-04-06T15:26:52.999Z</time></trkpt><trkpt lat="45.409036620871134" lon="8.609586658587213"><ele>141.0</ele><time>2026-04-06T15:26:54.999Z</time></trkpt><trkpt lat="45.409141428426594" lon="8.609583291265897"><ele>141.33333333333334</ele><time>2026-04-06T15:26:56.999Z</time></trkpt><trkpt lat="45.40922553901642" lon="8.609589901188908"><ele>141.66666666666666</ele><time>2026-04-06T15:26:57.999Z</time></trkpt><trkpt lat="45.40932856163031" lon="8.609584015328416"><ele>142.0</ele><time>2026-04-06T15:26:58.999Z</time></trkpt><trkpt lat="45.409413795623344" lon="8.609614045342232"><ele>142.33333333333331</ele><time>2026-04-06T15:26:59.999Z</time></trkpt><trkpt lat="45.40948933037111" lon="8.609624785103495"><ele>142.66666666666666</ele><time>2026-04-06T15:27:00.999Z</time></trkpt><trkpt lat="45.40956528763162" lon="8.609635585009828"><ele>143.0</ele><time>2026-04-06T15:27:01.999Z</time></trkpt><trkpt lat="45.409645258597024" lon="8.60965252927084"><ele>143.33333333333331</ele><time>2026-04-06T15:27:02.999Z</time></trkpt><trkpt lat="45.40973880459168" lon="8.609671386087529"><ele>143.66666666666666</ele><time>2026-04-06T15:27:03.999Z</time></trkpt><trkpt lat="45.409815928632746" lon="8.609689167090304"><ele>144.0</ele><time>2026-04-06T15:27:04.999Z</time></trkpt><trkpt lat="45.40988947722278" lon="8.60970715257074"><ele>144.33333333333334</ele><time>2026-04-06T15:27:05.999Z</time></trkpt><trkpt lat="45.4099698622066" lon="8.60972477544965"><ele>144.66666666666669</ele><time>2026-04-06T15:27:06.999Z</time></trkpt><trkpt lat="45.41005858446648" lon="8.609715032928463"><ele>145.0</ele><time>2026-04-06T15:27:07.999Z</time></trkpt><trkpt lat="45.41016100909024" lon="8.609726581179325"><ele>145.0</ele><time>2026-04-06T15:27:08.999Z</time></trkpt><trkpt lat="45.41024102966355" lon="8.609719164459335"><ele>145.0</ele><time>2026-04-06T15:27:09.999Z</time></trkpt><trkpt lat="45.41035062586612" lon="8.609727618392647"><ele>145.0</ele><time>2026-04-06T15:27:11.999Z</time></trkpt><trkpt lat="45.41043006483999" lon="8.60974177436819"><ele>145.0</ele><time>2026-04-06T15:27:27.999Z</time></trkpt><trkpt lat="45.41050617600607" lon="8.609750919193926"><ele>145.0</ele><time>2026-04-06T15:27:28.999Z</time></trkpt><trkpt lat="45.41059918381589" lon="8.609757957290324"><ele>145.0</ele><time>2026-04-06T15:27:29.999Z</time></trkpt><trkpt lat="45.41068905438785" lon="8.6097515559244"><ele>145.0</ele><time>2026-04-06T15:27:30.999Z</time></trkpt><trkpt lat="45.410759331818966" lon="8.609747325107744"><ele>145.0</ele><time>2026-04-06T15:27:31.999Z</time></trkpt><trkpt lat="45.410820815315006" lon="8.609775455392663"><ele>145.0</ele><time>2026-04-06T15:27:32.999Z</time></trkpt><trkpt lat="45.4108869843853" lon="8.609759024563797"><ele>145.0</ele><time>2026-04-06T15:27:33.999Z</time></trkpt><trkpt lat="45.410956482633225" lon="8.609769320634356"><ele>145.0</ele><time>2026-04-06T15:27:34.999Z</time></trkpt><trkpt lat="45.41102552464482" lon="8.609783284196288"><ele>145.0</ele><time>2026-04-06T15:27:35.999Z</time></trkpt><trkpt lat="45.4110935195342" lon="8.609797009766297"><ele>145.0</ele><time>2026-04-06T15:27:36.999Z</time></trkpt><trkpt lat="45.411172096929924" lon="8.609802054569927"><ele>145.0</ele><time>2026-04-06T15:27:37.999Z</time></trkpt><trkpt lat="45.41125381762094" lon="8.609809384624256"><ele>145.0</ele><time>2026-04-06T15:27:38.999Z</time></trkpt><trkpt lat="45.41133239679921" lon="8.609815029377554"><ele>145.0</ele><time>2026-04-06T15:27:39.999Z</time></trkpt><trkpt lat="45.41140603029267" lon="8.609817519632895"><ele>145.0</ele><time>2026-04-06T15:27:40.999Z</time></trkpt><trkpt lat="45.41147242036229" lon="8.609826492617794"><ele>145.0</ele><time>2026-04-06T15:27:41.999Z</time></trkpt><trkpt lat="45.41154478151928" lon="8.609830773393021"><ele>145.0</ele><time>2026-04-06T15:27:42.999Z</time></trkpt><trkpt lat="45.411607216198696" lon="8.609851090894955"><ele>145.0</ele><time>2026-04-06T15:27:43.999Z</time></trkpt><trkpt lat="45.41172473318129" lon="8.609836810107053"><ele>144.8</ele><time>2026-04-06T15:27:45.999Z</time></trkpt><trkpt lat="45.411826659326046" lon="8.609848907078215"><ele>144.6</ele><time>2026-04-06T15:27:47.999Z</time></trkpt><trkpt lat="45.411911650245465" lon="8.609876323428201"><ele>144.4</ele><time>2026-04-06T15:27:49.999Z</time></trkpt><trkpt lat="45.41199981731668" lon="8.60986925075027"><ele>144.2</ele><time>2026-04-06T15:27:51.999Z</time></trkpt><trkpt lat="45.41208472055999" lon="8.609901940884344"><ele>144.0</ele><time>2026-04-06T15:27:53.999Z</time></trkpt><trkpt lat="45.412184543518585" lon="8.60988892835452"><ele>143.83333333333334</ele><time>2026-04-06T15:27:55.999Z</time></trkpt><trkpt lat="45.412272099982424" lon="8.60989309105364"><ele>143.66666666666666</ele><time>2026-04-06T15:27:57.999Z</time></trkpt><trkpt lat="45.41236579336978" lon="8.609903322599887"><ele>143.5</ele><time>2026-04-06T15:28:00Z</time></trkpt><trkpt lat="45.4124645831873" lon="8.609940831955614"><ele>143.33333333333331</ele><time>2026-04-06T15:28:02Z</time></trkpt><trkpt lat="45.41252947724541" lon="8.609951221327567"><ele>143.16666666666666</ele><time>2026-04-06T15:28:03Z</time></trkpt><trkpt lat="45.41260400530887" lon="8.609942568243127"><ele>143.0</ele><time>2026-04-06T15:28:04Z</time></trkpt><trkpt lat="45.41268855655975" lon="8.60997345327714"><ele>143.0</ele><time>2026-04-06T15:28:05Z</time></trkpt><trkpt lat="45.412803813751864" lon="8.609990632882631"><ele>143.0</ele><time>2026-04-06T15:28:06Z</time></trkpt><trkpt lat="45.41294383991448" lon="8.609975803438447"><ele>143.0</ele><time>2026-04-06T15:28:07Z</time></trkpt><trkpt lat="45.413086766215514" lon="8.609999582019569"><ele>143.0</ele><time>2026-04-06T15:28:08Z</time></trkpt><trkpt lat="45.41321702324286" lon="8.61002865826195"><ele>143.0</ele><time>2026-04-06T15:28:09Z</time></trkpt><trkpt lat="45.41336624423757" lon="8.610071066372974"><ele>143.0</ele><time>2026-04-06T15:28:10Z</time></trkpt><trkpt lat="45.41352203787318" lon="8.610108280859592"><ele>143.0</ele><time>2026-04-06T15:28:11Z</time></trkpt><trkpt lat="45.41365999950679" lon="8.610136351175907"><ele>143.0</ele><time>2026-04-06T15:28:12Z</time></trkpt><trkpt lat="45.41378339986334" lon="8.610157373200305"><ele>143.25</ele><time>2026-04-06T15:28:13Z</time></trkpt><trkpt lat="45.41389793176625" lon="8.610155071230611"><ele>143.5</ele><time>2026-04-06T15:28:14Z</time></trkpt><trkpt lat="45.41402468650496" lon="8.610180975226076"><ele>143.75</ele><time>2026-04-06T15:28:15Z</time></trkpt><trkpt lat="45.41416526029111" lon="8.610201853720385"><ele>144.0</ele><time>2026-04-06T15:28:16Z</time></trkpt><trkpt lat="45.414319798804286" lon="8.610211203138268"><ele>144.0</ele><time>2026-04-06T15:28:17Z</time></trkpt><trkpt lat="45.414479502694086" lon="8.610248577269676"><ele>144.0</ele><time>2026-04-06T15:28:18Z</time></trkpt><trkpt lat="45.4146357633782" lon="8.610275365374775"><ele>144.0</ele><time>2026-04-06T15:28:19Z</time></trkpt><trkpt lat="45.41478062101122" lon="8.610296705875045"><ele>144.0</ele><time>2026-04-06T15:28:20Z</time></trkpt><trkpt lat="45.41495387715084" lon="8.61030957843062"><ele>144.0</ele><time>2026-04-06T15:28:21Z</time></trkpt><trkpt lat="45.415130624332676" lon="8.610321393400033"><ele>144.0</ele><time>2026-04-06T15:28:22Z</time></trkpt><trkpt lat="45.415307683562055" lon="8.610342675902597"><ele>144.0</ele><time>2026-04-06T15:28:23Z</time></trkpt><trkpt lat="45.41548629107797" lon="8.610359065111501"><ele>144.0</ele><time>2026-04-06T15:28:24Z</time></trkpt><trkpt lat="45.415668500156634" lon="8.610375784809223"><ele>144.0</ele><time>2026-04-06T15:28:25Z</time></trkpt><trkpt lat="45.415851809263735" lon="8.610396130486565"><ele>144.0</ele><time>2026-04-06T15:28:26Z</time></trkpt><trkpt lat="45.416039439874744" lon="8.610427422634602"><ele>144.0</ele><time>2026-04-06T15:28:27Z</time></trkpt><trkpt lat="45.41621302655406" lon="8.610443325071294"><ele>144.0</ele><time>2026-04-06T15:28:28Z</time></trkpt><trkpt lat="45.416368285791705" lon="8.610465471305458"><ele>144.5</ele><time>2026-04-06T15:28:29Z</time></trkpt><trkpt lat="45.416518720968064" lon="8.610474009072881"><ele>145.0</ele><time>2026-04-06T15:28:30Z</time></trkpt><trkpt lat="45.41664898675055" lon="8.610477786254279"><ele>145.5</ele><time>2026-04-06T15:28:31Z</time></trkpt><trkpt lat="45.41677723704616" lon="8.610467767727839"><ele>146.0</ele><time>2026-04-06T15:28:31.999Z</time></trkpt><trkpt lat="45.416896403900914" lon="8.610484492048021"><ele>146.0</ele><time>2026-04-06T15:28:32.999Z</time></trkpt><trkpt lat="45.41698338763759" lon="8.61051700757641"><ele>146.0</ele><time>2026-04-06T15:28:33.999Z</time></trkpt><trkpt lat="45.41708814402071" lon="8.610528360265752"><ele>146.0</ele><time>2026-04-06T15:28:35.999Z</time></trkpt><trkpt lat="45.41716713621868" lon="8.610536920839364"><ele>146.0</ele><time>2026-04-06T15:28:55.999Z</time></trkpt><trkpt lat="45.4172945922219" lon="8.61054766612994"><ele>146.0</ele><time>2026-04-06T15:28:57.999Z</time></trkpt><trkpt lat="45.41736505558141" lon="8.610553815743351"><ele>146.16666666666666</ele><time>2026-04-06T15:28:58.999Z</time></trkpt><trkpt lat="45.41744616594999" lon="8.610541336680404"><ele>146.33333333333331</ele><time>2026-04-06T15:28:59.999Z</time></trkpt><trkpt lat="45.41752614730067" lon="8.610550980282472"><ele>146.5</ele><time>2026-04-06T15:29:00.999Z</time></trkpt><trkpt lat="45.417607666774096" lon="8.610560004781432"><ele>146.66666666666666</ele><time>2026-04-06T15:29:01.999Z</time></trkpt><trkpt lat="45.41768083792584" lon="8.610565279096805"><ele>146.83333333333334</ele><time>2026-04-06T15:29:02.999Z</time></trkpt><trkpt lat="45.417749173246605" lon="8.610572152982929"><ele>147.0</ele><time>2026-04-06T15:29:03.999Z</time></trkpt><trkpt lat="45.417816332101765" lon="8.610581406757142"><ele>147.0</ele><time>2026-04-06T15:29:04.999Z</time></trkpt><trkpt lat="45.41788110477258" lon="8.61058610620485"><ele>147.0</ele><time>2026-04-06T15:29:05.999Z</time></trkpt><trkpt lat="45.41799800628675" lon="8.610605185626042"><ele>147.0</ele><time>2026-04-06T15:29:07.999Z</time></trkpt><trkpt lat="45.41812021161879" lon="8.6106093530248"><ele>147.0</ele><time>2026-04-06T15:29:09.999Z</time></trkpt><trkpt lat="45.418237926416204" lon="8.610643591940933"><ele>147.0</ele><time>2026-04-06T15:29:11.999Z</time></trkpt><trkpt lat="45.41830254182596" lon="8.610651623913512"><ele>146.83333333333334</ele><time>2026-04-06T15:29:12.999Z</time></trkpt><trkpt lat="45.41836927183316" lon="8.610641231668383"><ele>146.66666666666666</ele><time>2026-04-06T15:29:13.999Z</time></trkpt><trkpt lat="45.418444896679674" lon="8.61066126573046"><ele>146.5</ele><time>2026-04-06T15:29:15.999Z</time></trkpt><trkpt lat="45.41838197033532" lon="8.610801873047919"><ele>146.33333333333331</ele><time>2026-04-06T15:29:44.999Z</time></trkpt><trkpt lat="45.41837846300889" lon="8.610892595153288"><ele>146.16666666666666</ele><time>2026-04-06T15:29:45.999Z</time></trkpt><trkpt lat="45.41837254104671" lon="8.611013736217643"><ele>146.0</ele><time>2026-04-06T15:29:46.999Z</time></trkpt><trkpt lat="45.418367061965554" lon="8.611125817699556"><ele>146.0</ele><time>2026-04-06T15:29:47.999Z</time></trkpt><trkpt lat="45.41836119539878" lon="8.611245821282626"><ele>146.0</ele><time>2026-04-06T15:29:48.999Z</time></trkpt><trkpt lat="45.41835308232078" lon="8.611381558100762"><ele>146.0</ele><time>2026-04-06T15:29:49.999Z</time></trkpt><trkpt lat="45.41834556156731" lon="8.611508468362814"><ele>146.0</ele><time>2026-04-06T15:29:50.999Z</time></trkpt><trkpt lat="45.41833715934544" lon="8.611636163113785"><ele>146.0</ele><time>2026-04-06T15:29:51.999Z</time></trkpt><trkpt lat="45.41832977080214" lon="8.611748452143289"><ele>146.0</ele><time>2026-04-06T15:29:52.999Z</time></trkpt><trkpt lat="45.418322877301755" lon="8.61185321751771"><ele>146.0</ele><time>2026-04-06T15:29:53.999Z</time></trkpt><trkpt lat="45.418316176217985" lon="8.611955052435917"><ele>146.0</ele><time>2026-04-06T15:29:54.999Z</time></trkpt><trkpt lat="45.41831031857365" lon="8.612066239939994"><ele>146.0</ele><time>2026-04-06T15:29:55.999Z</time></trkpt><trkpt lat="45.41830371276467" lon="8.612179472864728"><ele>146.0</ele><time>2026-04-06T15:29:56.999Z</time></trkpt><trkpt lat="45.41829702643924" lon="8.612294079627269"><ele>146.0</ele><time>2026-04-06T15:29:57.999Z</time></trkpt><trkpt lat="45.41828963553627" lon="8.612413783010277"><ele>146.0</ele><time>2026-04-06T15:29:58.999Z</time></trkpt><trkpt lat="45.41828254125291" lon="8.612531348682225"><ele>146.14285714285714</ele><time>2026-04-06T15:29:59.999Z</time></trkpt><trkpt lat="45.41827583930804" lon="8.612642412256971"><ele>146.28571428571428</ele><time>2026-04-06T15:30:00.999Z</time></trkpt><trkpt lat="45.41826902000928" lon="8.612755420504016"><ele>146.42857142857144</ele><time>2026-04-06T15:30:01.999Z</time></trkpt><trkpt lat="45.41826258539339" lon="8.612864335886766"><ele>146.57142857142856</ele><time>2026-04-06T15:30:02.999Z</time></trkpt><trkpt lat="45.41825508469188" lon="8.612965603640374"><ele>146.71428571428572</ele><time>2026-04-06T15:30:03.999Z</time></trkpt><trkpt lat="45.418246792455406" lon="8.613066406131606"><ele>146.85714285714286</ele><time>2026-04-06T15:30:04.998Z</time></trkpt><trkpt lat="45.41824075480682" lon="8.613165356232713"><ele>147.0</ele><time>2026-04-06T15:30:05.999Z</time></trkpt><trkpt lat="45.41824237143022" lon="8.613267660218286"><ele>147.0</ele><time>2026-04-06T15:30:06.999Z</time></trkpt><trkpt lat="45.41825276842948" lon="8.613426409698702"><ele>147.0</ele><time>2026-04-06T15:30:08.999Z</time></trkpt><trkpt lat="45.41826927709941" lon="8.613542721628448"><ele>147.0</ele><time>2026-04-06T15:30:10.999Z</time></trkpt><trkpt lat="45.418285438432164" lon="8.613642446384604"><ele>147.0</ele><time>2026-04-06T15:30:12.999Z</time></trkpt><trkpt lat="45.41830797942478" lon="8.613759781702"><ele>147.0</ele><time>2026-04-06T15:30:14.999Z</time></trkpt><trkpt lat="45.41833539337156" lon="8.613944453763386"><ele>147.0</ele><time>2026-04-06T15:30:16.999Z</time></trkpt><trkpt lat="45.41834908117195" lon="8.61404996336105"><ele>147.0</ele><time>2026-04-06T15:30:17.999Z</time></trkpt><trkpt lat="45.41836444872362" lon="8.614174496712707"><ele>147.0</ele><time>2026-04-06T15:30:18.999Z</time></trkpt><trkpt lat="45.4183784218688" lon="8.614291823141688"><ele>147.0</ele><time>2026-04-06T15:30:19.999Z</time></trkpt><trkpt lat="45.418389014422964" lon="8.614402655487426"><ele>147.0</ele><time>2026-04-06T15:30:20.999Z</time></trkpt><trkpt lat="45.41839833256981" lon="8.614509474620435"><ele>147.0</ele><time>2026-04-06T15:30:21.999Z</time></trkpt><trkpt lat="45.41840824265391" lon="8.614623074076443"><ele>147.16666666666666</ele><time>2026-04-06T15:30:22.999Z</time></trkpt><trkpt lat="45.4184166136797" lon="8.614740655877979"><ele>147.33333333333334</ele><time>2026-04-06T15:30:23.999Z</time></trkpt><trkpt lat="45.41842437691956" lon="8.61484095262532"><ele>147.5</ele><time>2026-04-06T15:30:24.999Z</time></trkpt><trkpt lat="45.41843159015087" lon="8.61493582057748"><ele>147.66666666666669</ele><time>2026-04-06T15:30:25.999Z</time></trkpt><trkpt lat="45.418438572707096" lon="8.615030640847385"><ele>147.83333333333334</ele><time>2026-04-06T15:30:26.999Z</time></trkpt><trkpt lat="45.41844636703453" lon="8.615136484690325"><ele>148.0</ele><time>2026-04-06T15:30:27.999Z</time></trkpt><trkpt lat="45.41845547450495" lon="8.615260158245178"><ele>147.75</ele><time>2026-04-06T15:30:28.999Z</time></trkpt><trkpt lat="45.418466256158275" lon="8.615415971034185"><ele>147.5</ele><time>2026-04-06T15:30:29.999Z</time></trkpt><trkpt lat="45.41848061725744" lon="8.615608234483876"><ele>147.25</ele><time>2026-04-06T15:30:30.999Z</time></trkpt><trkpt lat="45.418496346311336" lon="8.615796302875767"><ele>147.0</ele><time>2026-04-06T15:30:31.999Z</time></trkpt><trkpt lat="45.41851188409431" lon="8.61597377192277"><ele>147.0</ele><time>2026-04-06T15:30:32.999Z</time></trkpt><trkpt lat="45.418527290140666" lon="8.616149735531467"><ele>147.0</ele><time>2026-04-06T15:30:33.999Z</time></trkpt><trkpt lat="45.418541519642964" lon="8.616326295562741"><ele>147.0</ele><time>2026-04-06T15:30:34.999Z</time></trkpt><trkpt lat="45.41855556774379" lon="8.61650233568988"><ele>147.0</ele><time>2026-04-06T15:30:35.999Z</time></trkpt><trkpt lat="45.41856972421474" lon="8.616679725403703"><ele>147.0</ele><time>2026-04-06T15:30:36.999Z</time></trkpt><trkpt lat="45.418584399779114" lon="8.616854705001298"><ele>147.0</ele><time>2026-04-06T15:30:37.999Z</time></trkpt><trkpt lat="45.418598982872794" lon="8.617031914983459"><ele>147.0</ele><time>2026-04-06T15:30:38.999Z</time></trkpt><trkpt lat="45.41861331138383" lon="8.617206031623038"><ele>147.0</ele><time>2026-04-06T15:30:39.999Z</time></trkpt><trkpt lat="45.41862577707197" lon="8.61735751118983"><ele>147.0</ele><time>2026-04-06T15:30:40.999Z</time></trkpt><trkpt lat="45.41863656299593" lon="8.61748250673487"><ele>147.0</ele><time>2026-04-06T15:30:41.999Z</time></trkpt><trkpt lat="45.418646382285" lon="8.61759573644552"><ele>147.0</ele><time>2026-04-06T15:30:42.999Z</time></trkpt><trkpt lat="45.41865525271633" lon="8.617698024840058"><ele>147.0</ele><time>2026-04-06T15:30:43.999Z</time></trkpt><trkpt lat="45.4186636958269" lon="8.61779538560495"><ele>147.0</ele><time>2026-04-06T15:30:44.999Z</time></trkpt><trkpt lat="45.418671692509875" lon="8.617889786171377"><ele>147.0</ele><time>2026-04-06T15:30:45.999Z</time></trkpt><trkpt lat="45.41867916945655" lon="8.617980652945345"><ele>147.0</ele><time>2026-04-06T15:30:46.999Z</time></trkpt><trkpt lat="45.41868737752969" lon="8.618080403096775"><ele>147.0</ele><time>2026-04-06T15:30:47.999Z</time></trkpt><trkpt lat="45.418694832121325" lon="8.618188418001314"><ele>147.0</ele><time>2026-04-06T15:30:48.999Z</time></trkpt><trkpt lat="45.41870327919847" lon="8.61830627450682"><ele>147.0</ele><time>2026-04-06T15:30:49.999Z</time></trkpt><trkpt lat="45.418712437152266" lon="8.618434134141113"><ele>147.0</ele><time>2026-04-06T15:30:50.999Z</time></trkpt><trkpt lat="45.418723416278276" lon="8.618553401401137"><ele>147.0</ele><time>2026-04-06T15:30:51.999Z</time></trkpt><trkpt lat="45.41873381106401" lon="8.61866632089102"><ele>147.0</ele><time>2026-04-06T15:30:52.999Z</time></trkpt><trkpt lat="45.41874313501774" lon="8.618774221206639"><ele>147.0</ele><time>2026-04-06T15:30:53.999Z</time></trkpt><trkpt lat="45.418751425094285" lon="8.618876860554016"><ele>147.0</ele><time>2026-04-06T15:30:54.999Z</time></trkpt><trkpt lat="45.418758960355134" lon="8.618970154264865"><ele>147.0</ele><time>2026-04-06T15:30:55.999Z</time></trkpt><trkpt lat="45.418770038194204" lon="8.619101901266312"><ele>147.0</ele><time>2026-04-06T15:30:57.999Z</time></trkpt><trkpt lat="45.41878193589206" lon="8.619232966752758"><ele>147.0</ele><time>2026-04-06T15:31:04.999Z</time></trkpt><trkpt lat="45.418886314894635" lon="8.61924965859315"><ele>147.0</ele><time>2026-04-06T15:31:05.999Z</time></trkpt><trkpt lat="45.418950166755984" lon="8.619239861123132"><ele>147.0</ele><time>2026-04-06T15:31:06.999Z</time></trkpt><trkpt lat="45.41907241376144" lon="8.619224501772445"><ele>147.0</ele><time>2026-04-06T15:31:08.999Z</time></trkpt><trkpt lat="45.419176772276366" lon="8.619216739101303"><ele>147.0</ele><time>2026-04-06T15:31:10.999Z</time></trkpt><trkpt lat="45.41925464939604" lon="8.619211258422515"><ele>147.0</ele><time>2026-04-06T15:31:12.999Z</time></trkpt><trkpt lat="45.41933137711512" lon="8.619204752458202"><ele>147.0</ele><time>2026-04-06T15:31:14.999Z</time></trkpt><trkpt lat="45.41944802476892" lon="8.619205963543857"><ele>147.0</ele><time>2026-04-06T15:31:16.999Z</time></trkpt><trkpt lat="45.41951407578616" lon="8.619209336864838"><ele>147.0</ele><time>2026-04-06T15:31:17.999Z</time></trkpt><trkpt lat="45.41958354658713" lon="8.619214685136079"><ele>147.0</ele><time>2026-04-06T15:31:18.999Z</time></trkpt><trkpt lat="45.41966488375727" lon="8.61921578962942"><ele>147.0</ele><time>2026-04-06T15:31:19.999Z</time></trkpt><trkpt lat="45.41975424149939" lon="8.619212677017046"><ele>147.0</ele><time>2026-04-06T15:31:20.999Z</time></trkpt><trkpt lat="45.419857620730824" lon="8.619209594268236"><ele>147.0</ele><time>2026-04-06T15:31:21.999Z</time></trkpt><trkpt lat="45.41996251586363" lon="8.619213291296289"><ele>147.0</ele><time>2026-04-06T15:31:22.999Z</time></trkpt><trkpt lat="45.42006377715801" lon="8.619215614940407"><ele>147.0</ele><time>2026-04-06T15:31:23.999Z</time></trkpt><trkpt lat="45.42016270381511" lon="8.619214618500052"><ele>147.0</ele><time>2026-04-06T15:31:24.999Z</time></trkpt><trkpt lat="45.420261898832486" lon="8.619212452833237"><ele>147.0</ele><time>2026-04-06T15:31:25.999Z</time></trkpt><trkpt lat="45.42036087287793" lon="8.619210155190867"><ele>147.0</ele><time>2026-04-06T15:31:26.999Z</time></trkpt><trkpt lat="45.42045908032331" lon="8.619207468268414"><ele>147.0</ele><time>2026-04-06T15:31:27.999Z</time></trkpt><trkpt lat="45.42055786017937" lon="8.619206898638739"><ele>147.0</ele><time>2026-04-06T15:31:28.999Z</time></trkpt><trkpt lat="45.42065628913653" lon="8.619208912640119"><ele>147.0</ele><time>2026-04-06T15:31:29.999Z</time></trkpt><trkpt lat="45.42075332549457" lon="8.619211207505911"><ele>147.0</ele><time>2026-04-06T15:31:30.999Z</time></trkpt><trkpt lat="45.42084764898184" lon="8.619212646041321"><ele>147.0</ele><time>2026-04-06T15:31:31.999Z</time></trkpt><trkpt lat="45.420943721839464" lon="8.619214332642626"><ele>147.0</ele><time>2026-04-06T15:31:32.999Z</time></trkpt><trkpt lat="45.42104232455665" lon="8.61921199023105"><ele>147.0</ele><time>2026-04-06T15:31:33.999Z</time></trkpt><trkpt lat="45.42114235752209" lon="8.619210064352933"><ele>147.0</ele><time>2026-04-06T15:31:34.999Z</time></trkpt><trkpt lat="45.42124725539615" lon="8.619208121449534"><ele>147.0</ele><time>2026-04-06T15:31:35.999Z</time></trkpt><trkpt lat="45.42135702637324" lon="8.619212670213"><ele>147.0</ele><time>2026-04-06T15:31:36.999Z</time></trkpt><trkpt lat="45.42146910027951" lon="8.619211225658248"><ele>146.75</ele><time>2026-04-06T15:31:37.999Z</time></trkpt><trkpt lat="45.42158615951341" lon="8.619219092591578"><ele>146.5</ele><time>2026-04-06T15:31:38.999Z</time></trkpt><trkpt lat="45.42169982694015" lon="8.619221503792927"><ele>146.25</ele><time>2026-04-06T15:31:39.999Z</time></trkpt><trkpt lat="45.42182509775597" lon="8.61922158050589"><ele>146.0</ele><time>2026-04-06T15:31:40.999Z</time></trkpt><trkpt lat="45.42194898513672" lon="8.619215621394078"><ele>146.0</ele><time>2026-04-06T15:31:41.999Z</time></trkpt><trkpt lat="45.422065870885895" lon="8.6192112732223"><ele>146.0</ele><time>2026-04-06T15:31:42.999Z</time></trkpt><trkpt lat="45.42217690926929" lon="8.619210784145091"><ele>146.0</ele><time>2026-04-06T15:31:43.999Z</time></trkpt><trkpt lat="45.42228894287236" lon="8.619213456269355"><ele>146.0</ele><time>2026-04-06T15:31:44.999Z</time></trkpt><trkpt lat="45.42239997179143" lon="8.61921785388212"><ele>146.4</ele><time>2026-04-06T15:31:45.999Z</time></trkpt><trkpt lat="45.42251164154069" lon="8.619223524423036"><ele>146.8</ele><time>2026-04-06T15:31:46.999Z</time></trkpt><trkpt lat="45.42262836639387" lon="8.619222917091498"><ele>147.20000000000002</ele><time>2026-04-06T15:31:47.999Z</time></trkpt><trkpt lat="45.42274089918494" lon="8.61921875314331"><ele>147.6</ele><time>2026-04-06T15:31:48.999Z</time></trkpt><trkpt lat="45.42284776484749" lon="8.619217018930906"><ele>148.0</ele><time>2026-04-06T15:31:49.999Z</time></trkpt><trkpt lat="45.422950850911434" lon="8.619214922803472"><ele>148.20000000000002</ele><time>2026-04-06T15:31:50.999Z</time></trkpt><trkpt lat="45.42305258925436" lon="8.619214542450319"><ele>148.4</ele><time>2026-04-06T15:31:51.999Z</time></trkpt><trkpt lat="45.42315335643361" lon="8.619214429806545"><ele>148.60000000000002</ele><time>2026-04-06T15:31:52.999Z</time></trkpt><trkpt lat="45.423250057498954" lon="8.619218394693153"><ele>148.8</ele><time>2026-04-06T15:31:53.999Z</time></trkpt><trkpt lat="45.42333459148745" lon="8.619220102348198"><ele>149.0</ele><time>2026-04-06T15:31:54.999Z</time></trkpt><trkpt lat="45.423415381677444" lon="8.619220905168623"><ele>149.0</ele><time>2026-04-06T15:31:55.999Z</time></trkpt><trkpt lat="45.42349355671409" lon="8.619223360834178"><ele>149.0</ele><time>2026-04-06T15:31:56.999Z</time></trkpt><trkpt lat="45.423572235171775" lon="8.619224639502436"><ele>149.0</ele><time>2026-04-06T15:31:57.999Z</time></trkpt><trkpt lat="45.42364589536341" lon="8.61922478960224"><ele>149.0</ele><time>2026-04-06T15:31:58.999Z</time></trkpt><trkpt lat="45.42372200147603" lon="8.61922215482986"><ele>149.0</ele><time>2026-04-06T15:31:59.999Z</time></trkpt><trkpt lat="45.4238075275224" lon="8.6192211547702"><ele>149.0</ele><time>2026-04-06T15:32:00.999Z</time></trkpt><trkpt lat="45.42388284464232" lon="8.619223523618215"><ele>149.0</ele><time>2026-04-06T15:32:01.999Z</time></trkpt><trkpt lat="45.42396063794799" lon="8.619224816756846"><ele>149.0</ele><time>2026-04-06T15:32:02.999Z</time></trkpt><trkpt lat="45.42403129422203" lon="8.619225961867102"><ele>149.0</ele><time>2026-04-06T15:32:03.998Z</time></trkpt><trkpt lat="45.424098316574955" lon="8.619232132150605"><ele>149.0</ele><time>2026-04-06T15:32:04.998Z</time></trkpt><trkpt lat="45.4241662896206" lon="8.619232679503979"><ele>149.0</ele><time>2026-04-06T15:32:05.998Z</time></trkpt><trkpt lat="45.42424263069254" lon="8.619229687940765"><ele>149.0</ele><time>2026-04-06T15:32:06.998Z</time></trkpt><trkpt lat="45.424322344526196" lon="8.619227645306767"><ele>149.0</ele><time>2026-04-06T15:32:07.998Z</time></trkpt><trkpt lat="45.42440292819833" lon="8.61922946440682"><ele>149.0</ele><time>2026-04-06T15:32:08.998Z</time></trkpt><trkpt lat="45.42448325376324" lon="8.619228352150866"><ele>149.0</ele><time>2026-04-06T15:32:09.998Z</time></trkpt><trkpt lat="45.424566418721184" lon="8.619227497559422"><ele>149.0</ele><time>2026-04-06T15:32:10.998Z</time></trkpt><trkpt lat="45.42464755451579" lon="8.619228962215825"><ele>149.0</ele><time>2026-04-06T15:32:11.999Z</time></trkpt><trkpt lat="45.424733319074036" lon="8.619228846798961"><ele>149.0</ele><time>2026-04-06T15:32:12.999Z</time></trkpt><trkpt lat="45.42481961877335" lon="8.619225956985586"><ele>149.0</ele><time>2026-04-06T15:32:13.999Z</time></trkpt><trkpt lat="45.424908033342696" lon="8.61922427691513"><ele>149.8</ele><time>2026-04-06T15:32:14.999Z</time></trkpt><trkpt lat="45.42499892982044" lon="8.619225305250781"><ele>150.60000000000002</ele><time>2026-04-06T15:32:15.999Z</time></trkpt><trkpt lat="45.42508598146222" lon="8.6192254983907"><ele>151.4</ele><time>2026-04-06T15:32:16.999Z</time></trkpt><trkpt lat="45.42516446439264" lon="8.619225089520237"><ele>152.20000000000002</ele><time>2026-04-06T15:32:17.999Z</time></trkpt><trkpt lat="45.42523462096999" lon="8.619225513404205"><ele>153.0</ele><time>2026-04-06T15:32:18.999Z</time></trkpt><trkpt lat="45.425357934207135" lon="8.619217473497775"><ele>153.0</ele><time>2026-04-06T15:32:20.999Z</time></trkpt><trkpt lat="45.425476523653366" lon="8.619212710012594"><ele>153.0</ele><time>2026-04-06T15:32:22.999Z</time></trkpt><trkpt lat="45.42554558209127" lon="8.619215866638706"><ele>153.0</ele><time>2026-04-06T15:32:23.999Z</time></trkpt><trkpt lat="45.425661870457496" lon="8.619215622195583"><ele>153.0</ele><time>2026-04-06T15:32:25.999Z</time></trkpt><trkpt lat="45.425764057941166" lon="8.619207149154722"><ele>153.0</ele><time>2026-04-06T15:32:27.999Z</time></trkpt><trkpt lat="45.42587621761225" lon="8.619205453111256"><ele>152.8</ele><time>2026-04-06T15:32:29.999Z</time></trkpt><trkpt lat="45.42597940952113" lon="8.619213887632316"><ele>152.60000000000002</ele><time>2026-04-06T15:32:31.999Z</time></trkpt><trkpt lat="45.42607545443996" lon="8.61921773973375"><ele>152.39999999999998</ele><time>2026-04-06T15:32:33.999Z</time></trkpt><trkpt lat="45.42616973888981" lon="8.619220862888376"><ele>152.2</ele><time>2026-04-06T15:32:35.999Z</time></trkpt><trkpt lat="45.42628926357966" lon="8.619217796702536"><ele>152.0</ele><time>2026-04-06T15:32:37.999Z</time></trkpt><trkpt lat="45.42638057292892" lon="8.619209733279025"><ele>152.0</ele><time>2026-04-06T15:32:39.999Z</time></trkpt><trkpt lat="45.42648862686074" lon="8.619213130356485"><ele>152.0</ele><time>2026-04-06T15:32:41.999Z</time></trkpt><trkpt lat="45.42656102989539" lon="8.619224815963836"><ele>152.0</ele><time>2026-04-06T15:32:42.999Z</time></trkpt><trkpt lat="45.42666133278727" lon="8.619227201877925"><ele>152.0</ele><time>2026-04-06T15:32:43.999Z</time></trkpt><trkpt lat="45.426782252890376" lon="8.619230371507745"><ele>152.0</ele><time>2026-04-06T15:32:44.999Z</time></trkpt><trkpt lat="45.42693506295885" lon="8.619228682730961"><ele>152.0</ele><time>2026-04-06T15:32:45.999Z</time></trkpt><trkpt lat="45.42706383833273" lon="8.619232421095045"><ele>152.0</ele><time>2026-04-06T15:32:46.999Z</time></trkpt><trkpt lat="45.4271760546873" lon="8.619235774515701"><ele>152.0</ele><time>2026-04-06T15:32:47.999Z</time></trkpt><trkpt lat="45.4272746900955" lon="8.619234738399472"><ele>152.0</ele><time>2026-04-06T15:32:48.999Z</time></trkpt><trkpt lat="45.427366689411635" lon="8.61922505214229"><ele>152.0</ele><time>2026-04-06T15:32:49.999Z</time></trkpt><trkpt lat="45.42744812803251" lon="8.619204223894478"><ele>151.83333333333331</ele><time>2026-04-06T15:32:50.999Z</time></trkpt><trkpt lat="45.42752055582851" lon="8.619178910702994"><ele>151.66666666666666</ele><time>2026-04-06T15:32:51.999Z</time></trkpt><trkpt lat="45.42759991563145" lon="8.619155271566589"><ele>151.5</ele><time>2026-04-06T15:32:52.999Z</time></trkpt><trkpt lat="45.42768493369542" lon="8.619140815865231"><ele>151.33333333333334</ele><time>2026-04-06T15:32:53.999Z</time></trkpt><trkpt lat="45.42777521324317" lon="8.619147280766082"><ele>151.16666666666669</ele><time>2026-04-06T15:32:54.999Z</time></trkpt><trkpt lat="45.4278725809249" lon="8.619175300932687"><ele>151.0</ele><time>2026-04-06T15:32:55.999Z</time></trkpt><trkpt lat="45.42796512436345" lon="8.619220608880385"><ele>151.4</ele><time>2026-04-06T15:32:56.999Z</time></trkpt><trkpt lat="45.428069950699715" lon="8.619246389976107"><ele>151.8</ele><time>2026-04-06T15:32:57.999Z</time></trkpt><trkpt lat="45.42817959557246" lon="8.619252539558461"><ele>152.20000000000002</ele><time>2026-04-06T15:32:58.999Z</time></trkpt><trkpt lat="45.42827817962785" lon="8.619260390241418"><ele>152.6</ele><time>2026-04-06T15:32:59.999Z</time></trkpt><trkpt lat="45.42836571116717" lon="8.619269973325107"><ele>153.0</ele><time>2026-04-06T15:33:00.999Z</time></trkpt><trkpt lat="45.42845717270034" lon="8.619268454492442"><ele>153.0</ele><time>2026-04-06T15:33:01.999Z</time></trkpt><trkpt lat="45.42855284037089" lon="8.619263012826211"><ele>153.0</ele><time>2026-04-06T15:33:02.999Z</time></trkpt><trkpt lat="45.428659396481024" lon="8.61926212969974"><ele>153.0</ele><time>2026-04-06T15:33:03.999Z</time></trkpt><trkpt lat="45.42876355616758" lon="8.619270287496386"><ele>153.0</ele><time>2026-04-06T15:33:04.999Z</time></trkpt><trkpt lat="45.42885994151358" lon="8.619277346386923"><ele>153.0</ele><time>2026-04-06T15:33:05.999Z</time></trkpt><trkpt lat="45.42895652502025" lon="8.61927988453278"><ele>153.8</ele><time>2026-04-06T15:33:06.999Z</time></trkpt><trkpt lat="45.42905704061703" lon="8.619285109801053"><ele>154.60000000000002</ele><time>2026-04-06T15:33:07.999Z</time></trkpt><trkpt lat="45.429155079686154" lon="8.619284235950545"><ele>155.39999999999998</ele><time>2026-04-06T15:33:08.999Z</time></trkpt><trkpt lat="45.42925488811483" lon="8.619285445778738"><ele>156.2</ele><time>2026-04-06T15:33:09.999Z</time></trkpt><trkpt lat="45.42935508261955" lon="8.619284181233443"><ele>157.0</ele><time>2026-04-06T15:33:10.999Z</time></trkpt><trkpt lat="45.429456489095855" lon="8.61927976002624"><ele>157.0</ele><time>2026-04-06T15:33:11.999Z</time></trkpt><trkpt lat="45.429558584072005" lon="8.61928091202765"><ele>157.0</ele><time>2026-04-06T15:33:12.999Z</time></trkpt><trkpt lat="45.429663966878785" lon="8.619284073676733"><ele>157.0</ele><time>2026-04-06T15:33:13.999Z</time></trkpt><trkpt lat="45.42977004254144" lon="8.619284285720775"><ele>157.0</ele><time>2026-04-06T15:33:14.999Z</time></trkpt><trkpt lat="45.4298742877262" lon="8.619284113176132"><ele>157.0</ele><time>2026-04-06T15:33:15.999Z</time></trkpt><trkpt lat="45.4299773442947" lon="8.61928356591258"><ele>156.6</ele><time>2026-04-06T15:33:16.999Z</time></trkpt><trkpt lat="45.43007581888419" lon="8.61928351512546"><ele>156.2</ele><time>2026-04-06T15:33:17.999Z</time></trkpt><trkpt lat="45.430171623687436" lon="8.619287129259563"><ele>155.8</ele><time>2026-04-06T15:33:18.999Z</time></trkpt><trkpt lat="45.430263650421814" lon="8.61929091442561"><ele>155.4</ele><time>2026-04-06T15:33:19.999Z</time></trkpt><trkpt lat="45.430355406437094" lon="8.619291379355488"><ele>155.0</ele><time>2026-04-06T15:33:20.999Z</time></trkpt><trkpt lat="45.43044045145517" lon="8.61929485007939"><ele>154.8</ele><time>2026-04-06T15:33:21.999Z</time></trkpt><trkpt lat="45.430516968233874" lon="8.619298952382222"><ele>154.6</ele><time>2026-04-06T15:33:22.999Z</time></trkpt><trkpt lat="45.43061271944946" lon="8.619296102004379"><ele>154.4</ele><time>2026-04-06T15:33:24.999Z</time></trkpt><trkpt lat="45.43065362114648" lon="8.619531358372134"><ele>154.2</ele><time>2026-04-06T15:33:28.999Z</time></trkpt><trkpt lat="45.43063678434138" lon="8.619645987742857"><ele>154.0</ele><time>2026-04-06T15:33:29.999Z</time></trkpt><trkpt lat="45.430623350730556" lon="8.619770903032357"><ele>154.0</ele><time>2026-04-06T15:33:30.999Z</time></trkpt><trkpt lat="45.43061279532025" lon="8.61989039097001"><ele>154.0</ele><time>2026-04-06T15:33:31.999Z</time></trkpt><trkpt lat="45.430603587049" lon="8.620016321570965"><ele>154.0</ele><time>2026-04-06T15:33:32.999Z</time></trkpt><trkpt lat="45.43059218586682" lon="8.620149911931218"><ele>154.0</ele><time>2026-04-06T15:33:33.999Z</time></trkpt><trkpt lat="45.43057895158391" lon="8.620281862766308"><ele>154.0</ele><time>2026-04-06T15:33:34.999Z</time></trkpt><trkpt lat="45.43056514013584" lon="8.620405261886102"><ele>154.0</ele><time>2026-04-06T15:33:35.999Z</time></trkpt><trkpt lat="45.430552842385005" lon="8.620519729365654"><ele>153.8</ele><time>2026-04-06T15:33:36.999Z</time></trkpt><trkpt lat="45.43054368525685" lon="8.620618534233463"><ele>153.60000000000002</ele><time>2026-04-06T15:33:37.999Z</time></trkpt><trkpt lat="45.43052926450333" lon="8.620765286917855"><ele>153.4</ele><time>2026-04-06T15:33:39.999Z</time></trkpt><trkpt lat="45.43069395948425" lon="8.620813808543993"><ele>153.20000000000002</ele><time>2026-04-06T15:33:42.999Z</time></trkpt><trkpt lat="45.4307604941056" lon="8.620788931500437"><ele>153.0</ele><time>2026-04-06T15:33:43.999Z</time></trkpt><trkpt lat="45.43083562535011" lon="8.620768331194707"><ele>153.0</ele><time>2026-04-06T15:33:44.999Z</time></trkpt><trkpt lat="45.43091639398105" lon="8.620748687672116"><ele>153.0</ele><time>2026-04-06T15:33:45.999Z</time></trkpt><trkpt lat="45.43099293553473" lon="8.620730197028257"><ele>153.0</ele><time>2026-04-06T15:33:46.999Z</time></trkpt><trkpt lat="45.43105633786728" lon="8.620714501578837"><ele>153.0</ele><time>2026-04-06T15:33:47.999Z</time></trkpt><trkpt lat="45.43116239587653" lon="8.620720777545362"><ele>153.0</ele><time>2026-04-06T15:33:49.999Z</time></trkpt><trkpt lat="45.43121701067983" lon="8.620847503429696"><ele>153.0</ele><time>2026-04-06T15:33:51.999Z</time></trkpt><trkpt lat="45.43122004669844" lon="8.62094484950309"><ele>153.0</ele><time>2026-04-06T15:33:52.999Z</time></trkpt><trkpt lat="45.43122590696303" lon="8.621057187763261"><ele>153.0</ele><time>2026-04-06T15:33:53.999Z</time></trkpt><trkpt lat="45.43123993719593" lon="8.621186730617948"><ele>153.0</ele><time>2026-04-06T15:33:54.999Z</time></trkpt><trkpt lat="45.43126070326387" lon="8.621332648972961"><ele>153.0</ele><time>2026-04-06T15:33:55.999Z</time></trkpt><trkpt lat="45.43128031847203" lon="8.621471611313375"><ele>153.0</ele><time>2026-04-06T15:33:56.999Z</time></trkpt><trkpt lat="45.43129719822097" lon="8.621617498706323"><ele>153.0</ele><time>2026-04-06T15:33:57.999Z</time></trkpt><trkpt lat="45.43131463549852" lon="8.621764026604495"><ele>153.0</ele><time>2026-04-06T15:33:58.999Z</time></trkpt><trkpt lat="45.431332867136916" lon="8.621908949070894"><ele>153.0</ele><time>2026-04-06T15:33:59.999Z</time></trkpt><trkpt lat="45.431350924445766" lon="8.622045976506135"><ele>153.0</ele><time>2026-04-06T15:34:00.999Z</time></trkpt><trkpt lat="45.43136351908161" lon="8.622173678789137"><ele>153.0</ele><time>2026-04-06T15:34:01.999Z</time></trkpt><trkpt lat="45.43137316105554" lon="8.62227898654238"><ele>153.0</ele><time>2026-04-06T15:34:02.999Z</time></trkpt><trkpt lat="45.431399172709945" lon="8.622430631807678"><ele>153.0</ele><time>2026-04-06T15:34:04.999Z</time></trkpt><trkpt lat="45.43151050148834" lon="8.622493143597767"><ele>153.0</ele><time>2026-04-06T15:34:07.999Z</time></trkpt><trkpt lat="45.431638465339674" lon="8.622443232041391"><ele>153.0</ele><time>2026-04-06T15:34:09.999Z</time></trkpt><trkpt lat="45.43172232075447" lon="8.622450217586621"><ele>153.0</ele><time>2026-04-06T15:34:10.999Z</time></trkpt><trkpt lat="45.431817833262464" lon="8.622420528408362"><ele>153.0</ele><time>2026-04-06T15:34:11.999Z</time></trkpt><trkpt lat="45.43191807340592" lon="8.622412295328298"><ele>153.0</ele><time>2026-04-06T15:34:12.999Z</time></trkpt><trkpt lat="45.432011598060384" lon="8.622417317195705"><ele>153.0</ele><time>2026-04-06T15:34:13.999Z</time></trkpt><trkpt lat="45.432097569671406" lon="8.62247170335883"><ele>153.0</ele><time>2026-04-06T15:34:14.999Z</time></trkpt><trkpt lat="45.4322001366819" lon="8.622478855735144"><ele>153.0</ele><time>2026-04-06T15:34:15.999Z</time></trkpt><trkpt lat="45.43230376958976" lon="8.622496980231267"><ele>153.0</ele><time>2026-04-06T15:34:17Z</time></trkpt><trkpt lat="45.43242309489827" lon="8.622525746448424"><ele>153.0</ele><time>2026-04-06T15:34:18Z</time></trkpt><trkpt lat="45.43255559313507" lon="8.62253535122816"><ele>153.0</ele><time>2026-04-06T15:34:19Z</time></trkpt><trkpt lat="45.432688129162536" lon="8.62254615183193"><ele>153.0</ele><time>2026-04-06T15:34:20Z</time></trkpt><trkpt lat="45.43281548624752" lon="8.62255740262663"><ele>153.0</ele><time>2026-04-06T15:34:21Z</time></trkpt><trkpt lat="45.432942573528294" lon="8.62256862958633"><ele>153.0</ele><time>2026-04-06T15:34:22Z</time></trkpt><trkpt lat="45.43306716749234" lon="8.622579636286083"><ele>153.0</ele><time>2026-04-06T15:34:23Z</time></trkpt><trkpt lat="45.43318938889402" lon="8.622565880648802"><ele>153.0</ele><time>2026-04-06T15:34:24Z</time></trkpt><trkpt lat="45.433310089090874" lon="8.62258657246429"><ele>153.0</ele><time>2026-04-06T15:34:25Z</time></trkpt><trkpt lat="45.43343160840623" lon="8.622594488494954"><ele>153.0</ele><time>2026-04-06T15:34:26Z</time></trkpt><trkpt lat="45.43354016311572" lon="8.622597143358462"><ele>153.0</ele><time>2026-04-06T15:34:27Z</time></trkpt><trkpt lat="45.43363542108779" lon="8.622598079251532"><ele>153.0</ele><time>2026-04-06T15:34:28Z</time></trkpt><trkpt lat="45.4337183590413" lon="8.622611863643241"><ele>153.0</ele><time>2026-04-06T15:34:29Z</time></trkpt><trkpt lat="45.43380654760929" lon="8.62267960510173"><ele>153.20000000000002</ele><time>2026-04-06T15:34:31Z</time></trkpt><trkpt lat="45.433820089330794" lon="8.622846480879899"><ele>153.4</ele><time>2026-04-06T15:34:33Z</time></trkpt><trkpt lat="45.433813353334" lon="8.62294466517095"><ele>153.60000000000002</ele><time>2026-04-06T15:34:34Z</time></trkpt><trkpt lat="45.43381539788164" lon="8.62307706159112"><ele>153.8</ele><time>2026-04-06T15:34:35Z</time></trkpt><trkpt lat="45.433815621787616" lon="8.623224860468648"><ele>154.0</ele><time>2026-04-06T15:34:36Z</time></trkpt><trkpt lat="45.43379991040889" lon="8.6233643744928"><ele>154.0</ele><time>2026-04-06T15:34:37Z</time></trkpt><trkpt lat="45.43379829945736" lon="8.623503784827774"><ele>154.0</ele><time>2026-04-06T15:34:38Z</time></trkpt><trkpt lat="45.4338130331162" lon="8.623641395928319"><ele>154.0</ele><time>2026-04-06T15:34:39Z</time></trkpt><trkpt lat="45.433814207456024" lon="8.623781284697337"><ele>154.0</ele><time>2026-04-06T15:34:40Z</time></trkpt><trkpt lat="45.43381184002596" lon="8.623919499994397"><ele>154.0</ele><time>2026-04-06T15:34:41Z</time></trkpt><trkpt lat="45.433803425213" lon="8.62405743590884"><ele>153.0</ele><time>2026-04-06T15:34:42Z</time></trkpt><trkpt lat="45.43380295483041" lon="8.624202108185125"><ele>152.0</ele><time>2026-04-06T15:34:43Z</time></trkpt><trkpt lat="45.43379875586914" lon="8.62434889879308"><ele>151.0</ele><time>2026-04-06T15:34:43.999Z</time></trkpt><trkpt lat="45.43378908214148" lon="8.624487912131118"><ele>150.0</ele><time>2026-04-06T15:34:44.999Z</time></trkpt><trkpt lat="45.43375672683763" lon="8.62461982014794"><ele>149.0</ele><time>2026-04-06T15:34:45.999Z</time></trkpt><trkpt lat="45.433739542300515" lon="8.624755158146446"><ele>149.0</ele><time>2026-04-06T15:34:46.999Z</time></trkpt><trkpt lat="45.43372188323027" lon="8.624894233372324"><ele>149.0</ele><time>2026-04-06T15:34:47.999Z</time></trkpt><trkpt lat="45.43370380503524" lon="8.625031241841326"><ele>149.0</ele><time>2026-04-06T15:34:48.999Z</time></trkpt><trkpt lat="45.43368499933662" lon="8.625171994147758"><ele>149.0</ele><time>2026-04-06T15:34:49.999Z</time></trkpt><trkpt lat="45.43366641626423" lon="8.625310299486527"><ele>149.0</ele><time>2026-04-06T15:34:50.999Z</time></trkpt><trkpt lat="45.433663230967504" lon="8.625449062150699"><ele>149.0</ele><time>2026-04-06T15:34:51.999Z</time></trkpt><trkpt lat="45.43363506554326" lon="8.625579598152386"><ele>149.0</ele><time>2026-04-06T15:34:52.999Z</time></trkpt><trkpt lat="45.4336196055928" lon="8.625712396764937"><ele>149.0</ele><time>2026-04-06T15:34:53.999Z</time></trkpt><trkpt lat="45.43362004094547" lon="8.625847589338905"><ele>149.0</ele><time>2026-04-06T15:34:54.999Z</time></trkpt><trkpt lat="45.433590038423304" lon="8.625977890806181"><ele>149.0</ele><time>2026-04-06T15:34:55.999Z</time></trkpt><trkpt lat="45.43357491815515" lon="8.62611259095732"><ele>149.33333333333331</ele><time>2026-04-06T15:34:56.999Z</time></trkpt><trkpt lat="45.43356080780329" lon="8.626244849108433"><ele>149.66666666666666</ele><time>2026-04-06T15:34:57.999Z</time></trkpt><trkpt lat="45.43354821235792" lon="8.62636408769247"><ele>150.0</ele><time>2026-04-06T15:34:58.999Z</time></trkpt><trkpt lat="45.43353643998795" lon="8.626475534414583"><ele>150.33333333333334</ele><time>2026-04-06T15:34:59.999Z</time></trkpt><trkpt lat="45.43352512289823" lon="8.626582671069134"><ele>150.66666666666669</ele><time>2026-04-06T15:35:00.999Z</time></trkpt><trkpt lat="45.43351465158256" lon="8.626681800954605"><ele>151.0</ele><time>2026-04-06T15:35:01.999Z</time></trkpt><trkpt lat="45.43350870035996" lon="8.626823272722286"><ele>151.0</ele><time>2026-04-06T15:35:03.999Z</time></trkpt><trkpt lat="45.43348013142059" lon="8.62693230520145"><ele>151.0</ele><time>2026-04-06T15:35:06.999Z</time></trkpt><trkpt lat="45.43345277562326" lon="8.62701955007316"><ele>151.0</ele><time>2026-04-06T15:35:12.999Z</time></trkpt><trkpt lat="45.43327578124592" lon="8.627023170038662"><ele>151.0</ele><time>2026-04-06T15:35:15.999Z</time></trkpt><trkpt lat="45.43319276972112" lon="8.62700702224165"><ele>151.0</ele><time>2026-04-06T15:35:16.999Z</time></trkpt><trkpt lat="45.43310642334061" lon="8.626985160885134"><ele>151.0</ele><time>2026-04-06T15:35:17.999Z</time></trkpt><trkpt lat="45.43301362420613" lon="8.626965256463587"><ele>151.0</ele><time>2026-04-06T15:35:18.999Z</time></trkpt><trkpt lat="45.4329115129747" lon="8.626941274926736"><ele>151.0</ele><time>2026-04-06T15:35:19.999Z</time></trkpt><trkpt lat="45.43280772600009" lon="8.626916634096299"><ele>151.0</ele><time>2026-04-06T15:35:20.999Z</time></trkpt><trkpt lat="45.43270811628131" lon="8.62690055098"><ele>151.0</ele><time>2026-04-06T15:35:21.999Z</time></trkpt><trkpt lat="45.43261994151949" lon="8.626874616928017"><ele>151.0</ele><time>2026-04-06T15:35:22.999Z</time></trkpt><trkpt lat="45.43254074491711" lon="8.626851951131995"><ele>151.0</ele><time>2026-04-06T15:35:23.999Z</time></trkpt><trkpt lat="45.43246483410836" lon="8.626834098981664"><ele>151.0</ele><time>2026-04-06T15:35:24.999Z</time></trkpt><trkpt lat="45.432388880714754" lon="8.62681381820122"><ele>151.0</ele><time>2026-04-06T15:35:25.999Z</time></trkpt><trkpt lat="45.43230116349737" lon="8.626800660639613"><ele>151.0</ele><time>2026-04-06T15:35:26.999Z</time></trkpt><trkpt lat="45.432205005992564" lon="8.626770549332587"><ele>151.0</ele><time>2026-04-06T15:35:27.999Z</time></trkpt><trkpt lat="45.432111471836535" lon="8.626771269422647"><ele>151.33333333333334</ele><time>2026-04-06T15:35:28.999Z</time></trkpt><trkpt lat="45.43203136137473" lon="8.626745758050255"><ele>151.66666666666669</ele><time>2026-04-06T15:35:29.999Z</time></trkpt><trkpt lat="45.43195296953948" lon="8.626730617318417"><ele>152.0</ele><time>2026-04-06T15:35:30.999Z</time></trkpt><trkpt lat="45.4318781790426" lon="8.626718414484243"><ele>152.33333333333334</ele><time>2026-04-06T15:35:31.999Z</time></trkpt><trkpt lat="45.43180476530681" lon="8.626704208527721"><ele>152.66666666666666</ele><time>2026-04-06T15:35:32.999Z</time></trkpt><trkpt lat="45.43173581712272" lon="8.626669092463196"><ele>153.0</ele><time>2026-04-06T15:35:33.999Z</time></trkpt><trkpt lat="45.43166881747179" lon="8.626678539884782"><ele>153.0</ele><time>2026-04-06T15:35:34.999Z</time></trkpt><trkpt lat="45.43160533392092" lon="8.626656815354705"><ele>153.0</ele><time>2026-04-06T15:35:35.999Z</time></trkpt><trkpt lat="45.43153498717849" lon="8.626638384113663"><ele>153.0</ele><time>2026-04-06T15:35:36.999Z</time></trkpt><trkpt lat="45.431467827952005" lon="8.626622278703744"><ele>153.0</ele><time>2026-04-06T15:35:37.999Z</time></trkpt><trkpt lat="45.431402150926004" lon="8.626603785082327"><ele>153.0</ele><time>2026-04-06T15:35:38.999Z</time></trkpt><trkpt lat="45.43128485787201" lon="8.626572183177819"><ele>153.0</ele><time>2026-04-06T15:35:40.999Z</time></trkpt><trkpt lat="45.43121301832228" lon="8.626576462662754"><ele>153.0</ele><time>2026-04-06T15:35:42.999Z</time></trkpt><trkpt lat="45.43116016718642" lon="8.6268436703884"><ele>153.0</ele><time>2026-04-06T15:35:43.999Z</time></trkpt><trkpt lat="45.43114845670277" lon="8.626947187710725"><ele>153.0</ele><time>2026-04-06T15:35:44.999Z</time></trkpt><trkpt lat="45.43115201513363" lon="8.627053552297607"><ele>153.0</ele><time>2026-04-06T15:35:45.999Z</time></trkpt><trkpt lat="45.431138258124975" lon="8.627159734919344"><ele>153.0</ele><time>2026-04-06T15:35:46.999Z</time></trkpt><trkpt lat="45.43113097124176" lon="8.62726386303261"><ele>152.83333333333334</ele><time>2026-04-06T15:35:47.999Z</time></trkpt><trkpt lat="45.43111641940435" lon="8.627351298275059"><ele>152.66666666666666</ele><time>2026-04-06T15:35:48.999Z</time></trkpt><trkpt lat="45.43111447375685" lon="8.627523439203008"><ele>152.5</ele><time>2026-04-06T15:35:50.999Z</time></trkpt><trkpt lat="45.43110143635225" lon="8.627616852579846"><ele>152.33333333333331</ele><time>2026-04-06T15:35:51.999Z</time></trkpt><trkpt lat="45.43109042445475" lon="8.627708563387273"><ele>152.16666666666666</ele><time>2026-04-06T15:35:52.999Z</time></trkpt><trkpt lat="45.431085996251944" lon="8.627803368971685"><ele>152.0</ele><time>2026-04-06T15:35:53.999Z</time></trkpt><trkpt lat="45.43107922536094" lon="8.62789966861001"><ele>152.0</ele><time>2026-04-06T15:35:54.999Z</time></trkpt><trkpt lat="45.43106133392082" lon="8.627989621997072"><ele>152.0</ele><time>2026-04-06T15:35:55.999Z</time></trkpt><trkpt lat="45.4310506036116" lon="8.628086596926371"><ele>152.0</ele><time>2026-04-06T15:35:56.999Z</time></trkpt><trkpt lat="45.43103044840611" lon="8.628261016207166"><ele>152.0</ele><time>2026-04-06T15:35:58.999Z</time></trkpt><trkpt lat="45.4310118125584" lon="8.628409105952946"><ele>152.0</ele><time>2026-04-06T15:36:00.999Z</time></trkpt><trkpt lat="45.43098680548988" lon="8.628560842160157"><ele>151.2</ele><time>2026-04-06T15:36:02.999Z</time></trkpt><trkpt lat="45.4309708162843" lon="8.62870708405055"><ele>150.39999999999998</ele><time>2026-04-06T15:36:04.999Z</time></trkpt><trkpt lat="45.430953684169594" lon="8.62881767385843"><ele>149.60000000000002</ele><time>2026-04-06T15:36:06.999Z</time></trkpt><trkpt lat="45.43091657114178" lon="8.628933172781684"><ele>148.8</ele><time>2026-04-06T15:36:08.999Z</time></trkpt><trkpt lat="45.43083246719742" lon="8.629033041472336"><ele>148.0</ele><time>2026-04-06T15:36:10.999Z</time></trkpt><trkpt lat="45.430744930483" lon="8.629078017696518"><ele>148.0</ele><time>2026-04-06T15:36:12.999Z</time></trkpt><trkpt lat="45.43063213007693" lon="8.629094488991155"><ele>148.0</ele><time>2026-04-06T15:36:14.999Z</time></trkpt><trkpt lat="45.430510428167075" lon="8.629082668525283"><ele>148.0</ele><time>2026-04-06T15:36:16.999Z</time></trkpt><trkpt lat="45.43039325982792" lon="8.629052532555194"><ele>148.0</ele><time>2026-04-06T15:36:18.999Z</time></trkpt><trkpt lat="45.43027487335068" lon="8.629028702730459"><ele>148.33333333333334</ele><time>2026-04-06T15:36:20.999Z</time></trkpt><trkpt lat="45.43021201189065" lon="8.629013827497017"><ele>148.66666666666669</ele><time>2026-04-06T15:36:21.999Z</time></trkpt><trkpt lat="45.43014956257578" lon="8.629002103681458"><ele>149.0</ele><time>2026-04-06T15:36:23Z</time></trkpt><trkpt lat="45.43004024815353" lon="8.628979685508972"><ele>149.33333333333334</ele><time>2026-04-06T15:36:25Z</time></trkpt><trkpt lat="45.429912071391364" lon="8.62894894072736"><ele>149.66666666666666</ele><time>2026-04-06T15:36:27Z</time></trkpt><trkpt lat="45.4298452245759" lon="8.628929055208841"><ele>150.0</ele><time>2026-04-06T15:36:28Z</time></trkpt><trkpt lat="45.42978007245083" lon="8.628913727365136"><ele>150.0</ele><time>2026-04-06T15:36:29Z</time></trkpt><trkpt lat="45.429714924143646" lon="8.628895239478956"><ele>150.0</ele><time>2026-04-06T15:36:30Z</time></trkpt><trkpt lat="45.429651082772324" lon="8.628887441362888"><ele>150.0</ele><time>2026-04-06T15:36:31Z</time></trkpt><trkpt lat="45.429579828723284" lon="8.628882531416622"><ele>150.0</ele><time>2026-04-06T15:36:32Z</time></trkpt><trkpt lat="45.42950701282021" lon="8.628884802073198"><ele>150.0</ele><time>2026-04-06T15:36:33Z</time></trkpt><trkpt lat="45.42942211629356" lon="8.628910308559353"><ele>150.0</ele><time>2026-04-06T15:36:34Z</time></trkpt><trkpt lat="45.42932160298117" lon="8.628944236203155"><ele>150.33333333333334</ele><time>2026-04-06T15:36:35Z</time></trkpt><trkpt lat="45.42924067018903" lon="8.628975181313256"><ele>150.66666666666666</ele><time>2026-04-06T15:36:36Z</time></trkpt><trkpt lat="45.42916066787315" lon="8.628989319339912"><ele>151.0</ele><time>2026-04-06T15:36:37Z</time></trkpt><trkpt lat="45.42907609960647" lon="8.628971888749254"><ele>151.33333333333331</ele><time>2026-04-06T15:36:38Z</time></trkpt><trkpt lat="45.42899766687958" lon="8.628994713093766"><ele>151.66666666666666</ele><time>2026-04-06T15:36:39Z</time></trkpt><trkpt lat="45.42890964248716" lon="8.628997917562842"><ele>152.0</ele><time>2026-04-06T15:36:40Z</time></trkpt><trkpt lat="45.42881305653243" lon="8.629006663342459"><ele>151.66666666666666</ele><time>2026-04-06T15:36:41Z</time></trkpt><trkpt lat="45.428727395769805" lon="8.629015983686017"><ele>151.33333333333331</ele><time>2026-04-06T15:36:42Z</time></trkpt><trkpt lat="45.42863668013572" lon="8.629016471325981"><ele>151.0</ele><time>2026-04-06T15:36:43Z</time></trkpt><trkpt lat="45.4285499388431" lon="8.629015771078652"><ele>150.66666666666666</ele><time>2026-04-06T15:36:44Z</time></trkpt><trkpt lat="45.428472271229595" lon="8.629012560114457"><ele>150.33333333333334</ele><time>2026-04-06T15:36:45Z</time></trkpt><trkpt lat="45.42838787643195" lon="8.629016242074512"><ele>150.0</ele><time>2026-04-06T15:36:46Z</time></trkpt><trkpt lat="45.4283079103839" lon="8.629021690879371"><ele>149.99999999999997</ele><time>2026-04-06T15:36:47Z</time></trkpt><trkpt lat="45.428231689876334" lon="8.629027764598154"><ele>150.0</ele><time>2026-04-06T15:36:47.999Z</time></trkpt><trkpt lat="45.4281625186545" lon="8.629029830996528"><ele>150.0</ele><time>2026-04-06T15:36:48.999Z</time></trkpt><trkpt lat="45.428088495917706" lon="8.629030295418579"><ele>150.0</ele><time>2026-04-06T15:36:49.999Z</time></trkpt><trkpt lat="45.42801393604142" lon="8.629034335411154"><ele>150.0</ele><time>2026-04-06T15:36:50.999Z</time></trkpt><trkpt lat="45.4279403555623" lon="8.629045114059943"><ele>149.99999999999997</ele><time>2026-04-06T15:36:51.999Z</time></trkpt><trkpt lat="45.4278668463334" lon="8.62905880505273"><ele>150.0</ele><time>2026-04-06T15:36:52.999Z</time></trkpt><trkpt lat="45.42779435561201" lon="8.629074613736105"><ele>149.99999999999997</ele><time>2026-04-06T15:36:53.999Z</time></trkpt><trkpt lat="45.427719246381315" lon="8.629086875604655"><ele>150.0</ele><time>2026-04-06T15:36:54.999Z</time></trkpt><trkpt lat="45.42764740139369" lon="8.629094326647754"><ele>150.0</ele><time>2026-04-06T15:36:55.999Z</time></trkpt><trkpt lat="45.427572841759705" lon="8.629099903920183"><ele>150.0</ele><time>2026-04-06T15:36:56.999Z</time></trkpt><trkpt lat="45.4275037650579" lon="8.629107943110427"><ele>150.0</ele><time>2026-04-06T15:36:57.999Z</time></trkpt><trkpt lat="45.427438269011105" lon="8.629113307374167"><ele>149.99999999999997</ele><time>2026-04-06T15:36:58.999Z</time></trkpt><trkpt lat="45.427371646613786" lon="8.629116725588238"><ele>150.0</ele><time>2026-04-06T15:36:59.999Z</time></trkpt><trkpt lat="45.427308558079154" lon="8.629122960103563"><ele>150.0</ele><time>2026-04-06T15:37:00.999Z</time></trkpt><trkpt lat="45.42719472306651" lon="8.629138757896142"><ele>150.0</ele><time>2026-04-06T15:37:02.999Z</time></trkpt><trkpt lat="45.427082522110574" lon="8.629147308367214"><ele>150.0</ele><time>2026-04-06T15:37:04.999Z</time></trkpt><trkpt lat="45.42697928676318" lon="8.629173406315187"><ele>150.0</ele><time>2026-04-06T15:37:06.999Z</time></trkpt><trkpt lat="45.42688128075611" lon="8.629194762757317"><ele>150.0</ele><time>2026-04-06T15:37:08.999Z</time></trkpt><trkpt lat="45.42679902614539" lon="8.629219817712261"><ele>150.0</ele><time>2026-04-06T15:37:10.999Z</time></trkpt><trkpt lat="45.426692342848305" lon="8.629222056344894"><ele>150.0</ele><time>2026-04-06T15:37:12.999Z</time></trkpt><trkpt lat="45.42657948180451" lon="8.629214300896129"><ele>150.0</ele><time>2026-04-06T15:37:14.999Z</time></trkpt><trkpt lat="45.426465188950246" lon="8.62921979896426"><ele>150.0</ele><time>2026-04-06T15:37:16.999Z</time></trkpt><trkpt lat="45.42640041751409" lon="8.62922978282334"><ele>150.0</ele><time>2026-04-06T15:37:17.999Z</time></trkpt><trkpt lat="45.42633594210258" lon="8.629239437294425"><ele>149.83333333333334</ele><time>2026-04-06T15:37:18.999Z</time></trkpt><trkpt lat="45.42620121609697" lon="8.629260791149282"><ele>149.66666666666666</ele><time>2026-04-06T15:37:20.999Z</time></trkpt><trkpt lat="45.42611940705791" lon="8.629241023912376"><ele>149.5</ele><time>2026-04-06T15:37:21.999Z</time></trkpt><trkpt lat="45.42604176512232" lon="8.629242927918867"><ele>149.33333333333331</ele><time>2026-04-06T15:37:22.999Z</time></trkpt><trkpt lat="45.425969755564864" lon="8.629266362011581"><ele>149.16666666666666</ele><time>2026-04-06T15:37:23.999Z</time></trkpt><trkpt lat="45.425892232596006" lon="8.629270978654068"><ele>149.0</ele><time>2026-04-06T15:37:24.999Z</time></trkpt><trkpt lat="45.425816594128044" lon="8.629277988559096"><ele>149.0</ele><time>2026-04-06T15:37:25.999Z</time></trkpt><trkpt lat="45.425743313433614" lon="8.629277497596444"><ele>149.0</ele><time>2026-04-06T15:37:26.999Z</time></trkpt><trkpt lat="45.425666263757584" lon="8.629294568186525"><ele>149.0</ele><time>2026-04-06T15:37:27.999Z</time></trkpt><trkpt lat="45.42559407616093" lon="8.629298401831296"><ele>149.0</ele><time>2026-04-06T15:37:28.999Z</time></trkpt><trkpt lat="45.425522463378066" lon="8.629309777555646"><ele>149.0</ele><time>2026-04-06T15:37:29.999Z</time></trkpt><trkpt lat="45.4254563039085" lon="8.629307078827187"><ele>149.0</ele><time>2026-04-06T15:37:30.999Z</time></trkpt><trkpt lat="45.425392375062394" lon="8.629327646853904"><ele>149.0</ele><time>2026-04-06T15:37:31.999Z</time></trkpt><trkpt lat="45.425330733542225" lon="8.62935745124732"><ele>148.8</ele><time>2026-04-06T15:37:32.999Z</time></trkpt><trkpt lat="45.4252779340581" lon="8.629407544218724"><ele>148.60000000000002</ele><time>2026-04-06T15:37:33.999Z</time></trkpt><trkpt lat="45.425171448509936" lon="8.629404598382518"><ele>148.4</ele><time>2026-04-06T15:37:35.999Z</time></trkpt><trkpt lat="45.425068833194985" lon="8.629405160056066"><ele>148.20000000000002</ele><time>2026-04-06T15:37:37.999Z</time></trkpt><trkpt lat="45.42496898203457" lon="8.629469826442863"><ele>148.0</ele><time>2026-04-06T15:37:39.999Z</time></trkpt><trkpt lat="45.42497721262892" lon="8.629574175091257"><ele>148.28571428571428</ele><time>2026-04-06T15:37:40.999Z</time></trkpt><trkpt lat="45.424987426669155" lon="8.629664859804459"><ele>148.57142857142856</ele><time>2026-04-06T15:37:41.999Z</time></trkpt><trkpt lat="45.42500614231268" lon="8.629768166671923"><ele>148.85714285714283</ele><time>2026-04-06T15:37:42.999Z</time></trkpt><trkpt lat="45.424997325479566" lon="8.629880756579462"><ele>149.14285714285714</ele><time>2026-04-06T15:37:43.999Z</time></trkpt><trkpt lat="45.42500297085888" lon="8.629986962068958"><ele>149.42857142857142</ele><time>2026-04-06T15:37:44.999Z</time></trkpt><trkpt lat="45.42501036333474" lon="8.630089510570118"><ele>149.7142857142857</ele><time>2026-04-06T15:37:45.999Z</time></trkpt><trkpt lat="45.42501996429545" lon="8.630186369818333"><ele>150.0</ele><time>2026-04-06T15:37:46.999Z</time></trkpt><trkpt lat="45.4250289786123" lon="8.630277310701477"><ele>149.7142857142857</ele><time>2026-04-06T15:37:47.999Z</time></trkpt><trkpt lat="45.42503800274013" lon="8.630368350581477"><ele>149.42857142857142</ele><time>2026-04-06T15:37:48.999Z</time></trkpt><trkpt lat="45.42504710548007" lon="8.630457780863107"><ele>149.14285714285714</ele><time>2026-04-06T15:37:49.999Z</time></trkpt><trkpt lat="45.425062006004154" lon="8.630627052085666"><ele>148.85714285714283</ele><time>2026-04-06T15:37:51.999Z</time></trkpt><trkpt lat="45.42506716422094" lon="8.63071795985766"><ele>148.57142857142856</ele><time>2026-04-06T15:37:52.999Z</time></trkpt><trkpt lat="45.42506775474667" lon="8.630810307118987"><ele>148.28571428571428</ele><time>2026-04-06T15:37:53.999Z</time></trkpt><trkpt lat="45.425066091282034" lon="8.630909456661836"><ele>148.0</ele><time>2026-04-06T15:37:54.999Z</time></trkpt><trkpt lat="45.425058694353986" lon="8.631014374459482"><ele>148.0</ele><time>2026-04-06T15:37:55.999Z</time></trkpt><trkpt lat="45.42504832258943" lon="8.631123926197203"><ele>148.0</ele><time>2026-04-06T15:37:56.999Z</time></trkpt><trkpt lat="45.425038890338435" lon="8.63123993449014"><ele>148.0</ele><time>2026-04-06T15:37:57.999Z</time></trkpt><trkpt lat="45.425029391736885" lon="8.631364559210601"><ele>148.0</ele><time>2026-04-06T15:37:58.999Z</time></trkpt><trkpt lat="45.42502563160011" lon="8.631503306645627"><ele>148.0</ele><time>2026-04-06T15:37:59.999Z</time></trkpt><trkpt lat="45.4250160008811" lon="8.631637627132669"><ele>148.0</ele><time>2026-04-06T15:38:00.999Z</time></trkpt><trkpt lat="45.42500328070474" lon="8.631761680963397"><ele>147.8</ele><time>2026-04-06T15:38:01.999Z</time></trkpt><trkpt lat="45.424989494562595" lon="8.631884837879982"><ele>147.60000000000002</ele><time>2026-04-06T15:38:02.999Z</time></trkpt><trkpt lat="45.42497579417928" lon="8.632004001287399"><ele>147.39999999999998</ele><time>2026-04-06T15:38:03.999Z</time></trkpt><trkpt lat="45.42495916371461" lon="8.632145859948393"><ele>147.2</ele><time>2026-04-06T15:38:04.999Z</time></trkpt><trkpt lat="45.424945579379674" lon="8.632289581907685"><ele>147.0</ele><time>2026-04-06T15:38:05.999Z</time></trkpt><trkpt lat="45.42493671635761" lon="8.63239624748372"><ele>147.0</ele><time>2026-04-06T15:38:06.999Z</time></trkpt><trkpt lat="45.4249094199885" lon="8.63253732169395"><ele>147.0</ele><time>2026-04-06T15:38:08.999Z</time></trkpt><trkpt lat="45.424870730256" lon="8.632620672252393"><ele>147.0</ele><time>2026-04-06T15:38:10.999Z</time></trkpt><trkpt lat="45.42478832353675" lon="8.632738687368738"><ele>147.0</ele><time>2026-04-06T15:38:12.999Z</time></trkpt><trkpt lat="45.42470058169424" lon="8.632730799374603"><ele>147.0</ele><time>2026-04-06T15:38:13.999Z</time></trkpt><trkpt lat="45.424625846644524" lon="8.632723476505852"><ele>147.16666666666666</ele><time>2026-04-06T15:38:14.999Z</time></trkpt><trkpt lat="45.424557537395074" lon="8.632708453270272"><ele>147.33333333333334</ele><time>2026-04-06T15:38:15.999Z</time></trkpt><trkpt lat="45.42448617106728" lon="8.632695311386186"><ele>147.5</ele><time>2026-04-06T15:38:16.999Z</time></trkpt><trkpt lat="45.424415236909795" lon="8.632687130278377"><ele>147.66666666666669</ele><time>2026-04-06T15:38:17.999Z</time></trkpt><trkpt lat="45.42434784962639" lon="8.632682178375575"><ele>147.83333333333334</ele><time>2026-04-06T15:38:18.999Z</time></trkpt><trkpt lat="45.42423951858338" lon="8.632665089492285"><ele>148.0</ele><time>2026-04-06T15:38:20.999Z</time></trkpt><trkpt lat="45.42414085884317" lon="8.632671596204183"><ele>148.0</ele><time>2026-04-06T15:38:22.999Z</time></trkpt><trkpt lat="45.42409632103382" lon="8.632753412166927"><ele>148.0</ele><time>2026-04-06T15:38:23.999Z</time></trkpt><trkpt lat="45.424046207876096" lon="8.63281073702936"><ele>148.0</ele><time>2026-04-06T15:38:24.999Z</time></trkpt><trkpt lat="45.423987664114314" lon="8.632843969850605"><ele>148.0</ele><time>2026-04-06T15:38:25.999Z</time></trkpt><trkpt lat="45.42391714467563" lon="8.632853784948926"><ele>148.0</ele><time>2026-04-06T15:38:26.999Z</time></trkpt><trkpt lat="45.423854438729556" lon="8.63286338865889"><ele>148.0</ele><time>2026-04-06T15:38:27.999Z</time></trkpt><trkpt lat="45.42378923164852" lon="8.63286943460376"><ele>148.0</ele><time>2026-04-06T15:38:29Z</time></trkpt><trkpt lat="45.423661793745595" lon="8.632878009040462"><ele>147.83333333333334</ele><time>2026-04-06T15:38:31Z</time></trkpt><trkpt lat="45.42359078952554" lon="8.632871761866964"><ele>147.66666666666669</ele><time>2026-04-06T15:38:32Z</time></trkpt><trkpt lat="45.4235163802783" lon="8.632842791824066"><ele>147.5</ele><time>2026-04-06T15:38:33Z</time></trkpt><trkpt lat="45.42343429162947" lon="8.63281508841179"><ele>147.33333333333334</ele><time>2026-04-06T15:38:34Z</time></trkpt><trkpt lat="45.423351840683026" lon="8.632788272281921"><ele>147.16666666666666</ele><time>2026-04-06T15:38:35Z</time></trkpt><trkpt lat="45.4232738803624" lon="8.632771502860708"><ele>147.0</ele><time>2026-04-06T15:38:36Z</time></trkpt><trkpt lat="45.42321146270228" lon="8.63272855280276"><ele>146.79999999999998</ele><time>2026-04-06T15:38:37Z</time></trkpt><trkpt lat="45.42310497911713" lon="8.632696844510438"><ele>146.6</ele><time>2026-04-06T15:38:39Z</time></trkpt><trkpt lat="45.42301893530588" lon="8.6326722876584"><ele>146.39999999999998</ele><time>2026-04-06T15:38:41Z</time></trkpt><trkpt lat="45.422924864651996" lon="8.632657469811127"><ele>146.2</ele><time>2026-04-06T15:38:43Z</time></trkpt><trkpt lat="45.422849718429234" lon="8.6326259810195"><ele>146.0</ele><time>2026-04-06T15:38:45Z</time></trkpt><trkpt lat="45.42275363102286" lon="8.632567521895368"><ele>145.33333333333331</ele><time>2026-04-06T15:38:47Z</time></trkpt><trkpt lat="45.42263524407461" lon="8.632517352745253"><ele>144.66666666666666</ele><time>2026-04-06T15:38:49Z</time></trkpt><trkpt lat="45.42257249959879" lon="8.63249076335362"><ele>144.0</ele><time>2026-04-06T15:38:50Z</time></trkpt><trkpt lat="45.422505933592056" lon="8.632463519871488"><ele>143.33333333333334</ele><time>2026-04-06T15:38:51Z</time></trkpt><trkpt lat="45.422440291335064" lon="8.632439154102489"><ele>142.66666666666669</ele><time>2026-04-06T15:38:52Z</time></trkpt><trkpt lat="45.422376257786986" lon="8.632440156591194"><ele>142.0</ele><time>2026-04-06T15:38:53Z</time></trkpt><trkpt lat="45.42227150626965" lon="8.632390472568634"><ele>142.0</ele><time>2026-04-06T15:38:55Z</time></trkpt><trkpt lat="45.422182225413565" lon="8.632359974162258"><ele>142.0</ele><time>2026-04-06T15:38:57Z</time></trkpt><trkpt lat="45.42210909543192" lon="8.632316231996326"><ele>142.0</ele><time>2026-04-06T15:38:59Z</time></trkpt><trkpt lat="45.42203188859115" lon="8.632292808680141"><ele>142.0</ele><time>2026-04-06T15:39:01.999Z</time></trkpt><trkpt lat="45.42196470869914" lon="8.632279043360043"><ele>142.0</ele><time>2026-04-06T15:52:01.999Z</time></trkpt><trkpt lat="45.421988097419" lon="8.632449515810528"><ele>142.0</ele><time>2026-04-06T15:56:48Z</time></trkpt><trkpt lat="45.42197770218436" lon="8.632540375013416"><ele>141.2</ele><time>2026-04-06T15:56:49Z</time></trkpt><trkpt lat="45.42196382340646" lon="8.63264814889132"><ele>140.39999999999998</ele><time>2026-04-06T15:56:50Z</time></trkpt><trkpt lat="45.42194937250408" lon="8.63274465188096"><ele>139.60000000000002</ele><time>2026-04-06T15:56:51Z</time></trkpt><trkpt lat="45.42191949806807" lon="8.632895011480421"><ele>138.8</ele><time>2026-04-06T15:56:53Z</time></trkpt><trkpt lat="45.42189029404145" lon="8.633020483094182"><ele>138.0</ele><time>2026-04-06T15:56:55Z</time></trkpt><trkpt lat="45.42186057969875" lon="8.633168020716804"><ele>138.0</ele><time>2026-04-06T15:56:57Z</time></trkpt><trkpt lat="45.42184367089841" lon="8.633256734276326"><ele>138.0</ele><time>2026-04-06T15:56:58Z</time></trkpt><trkpt lat="45.42182678828302" lon="8.633345592095816"><ele>138.0</ele><time>2026-04-06T15:56:59Z</time></trkpt><trkpt lat="45.421808620222976" lon="8.633440040353644"><ele>138.0</ele><time>2026-04-06T15:57:00Z</time></trkpt><trkpt lat="45.42179240885465" lon="8.63353197973776"><ele>138.0</ele><time>2026-04-06T15:57:01Z</time></trkpt><trkpt lat="45.421780024056105" lon="8.633621866584619"><ele>138.0</ele><time>2026-04-06T15:57:02Z</time></trkpt><trkpt lat="45.42176193024849" lon="8.633710520762381"><ele>138.0</ele><time>2026-04-06T15:57:03Z</time></trkpt><trkpt lat="45.42173142606504" lon="8.6337905911356"><ele>138.0</ele><time>2026-04-06T15:57:04Z</time></trkpt><trkpt lat="45.4217143151109" lon="8.633878813774901"><ele>138.0</ele><time>2026-04-06T15:57:05Z</time></trkpt><trkpt lat="45.42169537004613" lon="8.63397649283422"><ele>138.0</ele><time>2026-04-06T15:57:06Z</time></trkpt><trkpt lat="45.42167498700839" lon="8.634079695661093"><ele>138.0</ele><time>2026-04-06T15:57:07Z</time></trkpt><trkpt lat="45.421652921394546" lon="8.634185748470138"><ele>138.0</ele><time>2026-04-06T15:57:08Z</time></trkpt><trkpt lat="45.421647256697234" lon="8.63429407057672"><ele>138.0</ele><time>2026-04-06T15:57:09Z</time></trkpt><trkpt lat="45.42160192875384" lon="8.634425354737454"><ele>138.0</ele><time>2026-04-06T15:57:10Z</time></trkpt><trkpt lat="45.4215672793129" lon="8.634584566478235"><ele>138.0</ele><time>2026-04-06T15:57:11Z</time></trkpt><trkpt lat="45.421532474243556" lon="8.634737812701788"><ele>138.0</ele><time>2026-04-06T15:57:12Z</time></trkpt><trkpt lat="45.42150197124291" lon="8.634866161592077"><ele>138.0</ele><time>2026-04-06T15:57:13Z</time></trkpt><trkpt lat="45.42148635798661" lon="8.634989492283852"><ele>138.0</ele><time>2026-04-06T15:57:14Z</time></trkpt><trkpt lat="45.42143923768173" lon="8.635099348885644"><ele>138.0</ele><time>2026-04-06T15:57:15Z</time></trkpt><trkpt lat="45.42142322602711" lon="8.635217230437094"><ele>138.0</ele><time>2026-04-06T15:57:16Z</time></trkpt><trkpt lat="45.42138239859546" lon="8.635314467840411"><ele>138.0</ele><time>2026-04-06T15:57:17Z</time></trkpt><trkpt lat="45.421360186566076" lon="8.635411521188836"><ele>138.0</ele><time>2026-04-06T15:57:18Z</time></trkpt><trkpt lat="45.42135064230427" lon="8.635515758978675"><ele>138.0</ele><time>2026-04-06T15:57:19Z</time></trkpt><trkpt lat="45.42132741163689" lon="8.63561217167651"><ele>138.0</ele><time>2026-04-06T15:57:20Z</time></trkpt><trkpt lat="45.421304039859784" lon="8.635714360202378"><ele>139.0</ele><time>2026-04-06T15:57:21Z</time></trkpt><trkpt lat="45.421288997480865" lon="8.635811038396564"><ele>140.0</ele><time>2026-04-06T15:57:22Z</time></trkpt><trkpt lat="45.4212788186518" lon="8.635919594024246"><ele>141.0</ele><time>2026-04-06T15:57:23Z</time></trkpt><trkpt lat="45.42126959794143" lon="8.636026507888683"><ele>142.0</ele><time>2026-04-06T15:57:24Z</time></trkpt><trkpt lat="45.421258932242665" lon="8.636129467464274"><ele>143.0</ele><time>2026-04-06T15:57:25Z</time></trkpt><trkpt lat="45.42126488569202" lon="8.636226015192818"><ele>144.0</ele><time>2026-04-06T15:57:26Z</time></trkpt><trkpt lat="45.42127388602123" lon="8.636315613574988"><ele>145.0</ele><time>2026-04-06T15:57:27Z</time></trkpt><trkpt lat="45.421279535677" lon="8.636405373944362"><ele>145.8</ele><time>2026-04-06T15:57:28Z</time></trkpt><trkpt lat="45.42125569952616" lon="8.636543108426242"><ele>146.6</ele><time>2026-04-06T15:57:30Z</time></trkpt><trkpt lat="45.421237278777646" lon="8.63664658431898"><ele>147.4</ele><time>2026-04-06T15:57:40Z</time></trkpt><trkpt lat="45.421382991371594" lon="8.636726209103253"><ele>148.2</ele><time>2026-04-06T15:57:50Z</time></trkpt><trkpt lat="45.421445677463325" lon="8.636761564671172"><ele>149.0</ele><time>2026-04-06T15:57:51Z</time></trkpt><trkpt lat="45.42152583147804" lon="8.636828966031848"><ele>149.0</ele><time>2026-04-06T15:57:52Z</time></trkpt><trkpt lat="45.42161756616207" lon="8.63687560394616"><ele>149.0</ele><time>2026-04-06T15:57:53Z</time></trkpt><trkpt lat="45.42171320436331" lon="8.636921258627835"><ele>149.0</ele><time>2026-04-06T15:57:54Z</time></trkpt><trkpt lat="45.421831518957475" lon="8.636983346853215"><ele>149.0</ele><time>2026-04-06T15:57:55Z</time></trkpt><trkpt lat="45.42193902288383" lon="8.637043358132159"><ele>149.0</ele><time>2026-04-06T15:57:56Z</time></trkpt><trkpt lat="45.42205065382622" lon="8.637108974414073"><ele>149.0</ele><time>2026-04-06T15:57:57Z</time></trkpt><trkpt lat="45.422134081990286" lon="8.637158823103748"><ele>149.0</ele><time>2026-04-06T15:57:58Z</time></trkpt><trkpt lat="45.422225441307894" lon="8.637213410714262"><ele>149.0</ele><time>2026-04-06T15:57:59Z</time></trkpt><trkpt lat="45.422312206599" lon="8.637265383132727"><ele>149.0</ele><time>2026-04-06T15:58:00Z</time></trkpt><trkpt lat="45.42239465975292" lon="8.637314940223812"><ele>149.0</ele><time>2026-04-06T15:58:01Z</time></trkpt><trkpt lat="45.42247415661549" lon="8.637363022632135"><ele>149.0</ele><time>2026-04-06T15:58:02Z</time></trkpt><trkpt lat="45.42255068338534" lon="8.637409957678"><ele>149.0</ele><time>2026-04-06T15:58:03Z</time></trkpt><trkpt lat="45.42262968037558" lon="8.637439750119633"><ele>149.0</ele><time>2026-04-06T15:58:04Z</time></trkpt><trkpt lat="45.42269978759635" lon="8.637495567545002"><ele>149.0</ele><time>2026-04-06T15:58:05Z</time></trkpt><trkpt lat="45.422772832873775" lon="8.637548846819673"><ele>149.0</ele><time>2026-04-06T15:58:06Z</time></trkpt><trkpt lat="45.42285789918721" lon="8.637605886295711"><ele>149.0</ele><time>2026-04-06T15:58:07Z</time></trkpt><trkpt lat="45.42295820133684" lon="8.637662454125245"><ele>149.0</ele><time>2026-04-06T15:58:08Z</time></trkpt><trkpt lat="45.42305777901971" lon="8.637717859671438"><ele>149.0</ele><time>2026-04-06T15:58:09Z</time></trkpt><trkpt lat="45.42315746470442" lon="8.637777394809971"><ele>149.0</ele><time>2026-04-06T15:58:10Z</time></trkpt><trkpt lat="45.42325574596624" lon="8.637842326007982"><ele>149.0</ele><time>2026-04-06T15:58:11Z</time></trkpt><trkpt lat="45.42335038078327" lon="8.637906745951968"><ele>149.0</ele><time>2026-04-06T15:58:12Z</time></trkpt><trkpt lat="45.423440181316806" lon="8.63796735620908"><ele>149.16666666666666</ele><time>2026-04-06T15:58:13Z</time></trkpt><trkpt lat="45.423525032242345" lon="8.638020207405722"><ele>149.33333333333331</ele><time>2026-04-06T15:58:14Z</time></trkpt><trkpt lat="45.42360390762436" lon="8.638073475015442"><ele>149.5</ele><time>2026-04-06T15:58:15Z</time></trkpt><trkpt lat="45.423676300727095" lon="8.638127000676606"><ele>149.66666666666666</ele><time>2026-04-06T15:58:16Z</time></trkpt><trkpt lat="45.423750162220344" lon="8.63816986188988"><ele>149.83333333333334</ele><time>2026-04-06T15:58:17Z</time></trkpt><trkpt lat="45.42382972973599" lon="8.638212912344006"><ele>150.0</ele><time>2026-04-06T15:58:18Z</time></trkpt><trkpt lat="45.42390715391113" lon="8.638266729018119"><ele>150.66666666666666</ele><time>2026-04-06T15:58:19Z</time></trkpt><trkpt lat="45.42397575109245" lon="8.638314246966921"><ele>151.33333333333334</ele><time>2026-04-06T15:58:20Z</time></trkpt><trkpt lat="45.42405092510571" lon="8.638345931045215"><ele>152.0</ele><time>2026-04-06T15:58:21Z</time></trkpt><trkpt lat="45.42413099034801" lon="8.638367687131256"><ele>152.66666666666669</ele><time>2026-04-06T15:58:22Z</time></trkpt><trkpt lat="45.42420089258457" lon="8.638417221625534"><ele>153.33333333333334</ele><time>2026-04-06T15:58:23Z</time></trkpt><trkpt lat="45.42427388773018" lon="8.638445444947337"><ele>154.0</ele><time>2026-04-06T15:58:24Z</time></trkpt><trkpt lat="45.424349050038884" lon="8.638474506170684"><ele>154.0</ele><time>2026-04-06T15:58:25Z</time></trkpt><trkpt lat="45.4244295859181" lon="8.638481908474935"><ele>154.0</ele><time>2026-04-06T15:58:26Z</time></trkpt><trkpt lat="45.42450507452274" lon="8.638516738333779"><ele>154.0</ele><time>2026-04-06T15:58:27Z</time></trkpt><trkpt lat="45.424582503094804" lon="8.638548006367024"><ele>154.0</ele><time>2026-04-06T15:58:28Z</time></trkpt><trkpt lat="45.42466198312238" lon="8.638583897524283"><ele>154.0</ele><time>2026-04-06T15:58:29Z</time></trkpt><trkpt lat="45.42474130222662" lon="8.638618457034848"><ele>154.0</ele><time>2026-04-06T15:58:30Z</time></trkpt><trkpt lat="45.42481334342307" lon="8.638677283635984"><ele>153.8</ele><time>2026-04-06T15:58:31Z</time></trkpt><trkpt lat="45.424892302409134" lon="8.638720244090226"><ele>153.60000000000002</ele><time>2026-04-06T15:58:32Z</time></trkpt><trkpt lat="45.42497783971318" lon="8.638769343041139"><ele>153.4</ele><time>2026-04-06T15:58:33Z</time></trkpt><trkpt lat="45.425059194073526" lon="8.638818005536569"><ele>153.20000000000002</ele><time>2026-04-06T15:58:34Z</time></trkpt><trkpt lat="45.42516435737681" lon="8.638891469395396"><ele>153.0</ele><time>2026-04-06T15:58:35Z</time></trkpt><trkpt lat="45.42525704661572" lon="8.638957437911635"><ele>153.0</ele><time>2026-04-06T15:58:36Z</time></trkpt><trkpt lat="45.425344578141015" lon="8.63901414942957"><ele>153.0</ele><time>2026-04-06T15:58:37Z</time></trkpt><trkpt lat="45.42542574711205" lon="8.639066334570126"><ele>153.0</ele><time>2026-04-06T15:58:38Z</time></trkpt><trkpt lat="45.42550486455629" lon="8.639117200546949"><ele>153.0</ele><time>2026-04-06T15:58:39Z</time></trkpt><trkpt lat="45.4255916485547" lon="8.639171009830237"><ele>153.0</ele><time>2026-04-06T15:58:40Z</time></trkpt><trkpt lat="45.42567074561523" lon="8.639219635596064"><ele>153.0</ele><time>2026-04-06T15:58:41Z</time></trkpt><trkpt lat="45.425756035725" lon="8.639272068613744"><ele>153.0</ele><time>2026-04-06T15:58:42Z</time></trkpt><trkpt lat="45.42583940540847" lon="8.639321991276388"><ele>153.0</ele><time>2026-04-06T15:58:43Z</time></trkpt><trkpt lat="45.42592188588538" lon="8.639371163793552"><ele>153.0</ele><time>2026-04-06T15:58:44Z</time></trkpt><trkpt lat="45.425995886238375" lon="8.639415280693044"><ele>153.0</ele><time>2026-04-06T15:58:45Z</time></trkpt><trkpt lat="45.426064947838405" lon="8.639456453287565"><ele>153.0</ele><time>2026-04-06T15:58:46Z</time></trkpt><trkpt lat="45.4261319290195" lon="8.63949638596074"><ele>152.83333333333334</ele><time>2026-04-06T15:58:47Z</time></trkpt><trkpt lat="45.426204009047304" lon="8.639540410453996"><ele>152.66666666666666</ele><time>2026-04-06T15:58:48Z</time></trkpt><trkpt lat="45.426269963116304" lon="8.639581719315062"><ele>152.5</ele><time>2026-04-06T15:58:49Z</time></trkpt><trkpt lat="45.42633316263748" lon="8.639622646556642"><ele>152.33333333333331</ele><time>2026-04-06T15:58:50Z</time></trkpt><trkpt lat="45.42639131715777" lon="8.639661129366763"><ele>152.16666666666666</ele><time>2026-04-06T15:58:51Z</time></trkpt><trkpt lat="45.426468465427696" lon="8.63975263966592"><ele>152.0</ele><time>2026-04-06T15:58:53Z</time></trkpt><trkpt lat="45.42655412556545" lon="8.63984847918906"><ele>152.6</ele><time>2026-04-06T15:58:55Z</time></trkpt><trkpt lat="45.42653151978621" lon="8.639974395085845"><ele>153.2</ele><time>2026-04-06T15:58:56Z</time></trkpt><trkpt lat="45.42655499669017" lon="8.640078848096731"><ele>153.8</ele><time>2026-04-06T15:58:57Z</time></trkpt><trkpt lat="45.42658748847382" lon="8.640217174812074"><ele>154.4</ele><time>2026-04-06T15:58:58Z</time></trkpt><trkpt lat="45.42662847624164" lon="8.640384520042517"><ele>155.0</ele><time>2026-04-06T15:58:59Z</time></trkpt><trkpt lat="45.426667682038044" lon="8.640544590018667"><ele>155.2</ele><time>2026-04-06T15:59:00Z</time></trkpt><trkpt lat="45.42670902605573" lon="8.64071338967974"><ele>155.4</ele><time>2026-04-06T15:59:01Z</time></trkpt><trkpt lat="45.42674490343764" lon="8.640859870230422"><ele>155.6</ele><time>2026-04-06T15:59:02Z</time></trkpt><trkpt lat="45.426778152027374" lon="8.640993682230233"><ele>155.8</ele><time>2026-04-06T15:59:03Z</time></trkpt><trkpt lat="45.426810887414476" lon="8.641125010019506"><ele>156.0</ele><time>2026-04-06T15:59:04Z</time></trkpt><trkpt lat="45.4268429022363" lon="8.641253447060024"><ele>156.0</ele><time>2026-04-06T15:59:05Z</time></trkpt><trkpt lat="45.426880479702966" lon="8.641404200283217"><ele>156.0</ele><time>2026-04-06T15:59:06Z</time></trkpt><trkpt lat="45.42691416886131" lon="8.64153935451207"><ele>156.0</ele><time>2026-04-06T15:59:07Z</time></trkpt><trkpt lat="45.42694819659055" lon="8.641679032105033"><ele>156.0</ele><time>2026-04-06T15:59:08Z</time></trkpt><trkpt lat="45.42697468280104" lon="8.641788303680404"><ele>156.0</ele><time>2026-04-06T15:59:09Z</time></trkpt><trkpt lat="45.4269988291708" lon="8.641887922027026"><ele>156.0</ele><time>2026-04-06T15:59:10Z</time></trkpt><trkpt lat="45.42702184638634" lon="8.64198288195161"><ele>156.0</ele><time>2026-04-06T15:59:11Z</time></trkpt><trkpt lat="45.427056193823674" lon="8.642125770601579"><ele>156.0</ele><time>2026-04-06T15:59:13Z</time></trkpt><trkpt lat="45.427089764274804" lon="8.64225389242949"><ele>156.0</ele><time>2026-04-06T15:59:15Z</time></trkpt><trkpt lat="45.42712536561872" lon="8.64236332450929"><ele>156.0</ele><time>2026-04-06T15:59:18Z</time></trkpt><trkpt lat="45.42728319709793" lon="8.642311692507024"><ele>156.0</ele><time>2026-04-06T15:59:26Z</time></trkpt><trkpt lat="45.42739828222038" lon="8.642253898342283"><ele>156.0</ele><time>2026-04-06T15:59:28Z</time></trkpt><trkpt lat="45.427482790988385" lon="8.642138481759572"><ele>156.0</ele><time>2026-04-06T15:59:30.001Z</time></trkpt><trkpt lat="45.42755957231692" lon="8.642067542346723"><ele>156.0</ele><time>2026-04-06T15:59:31.001Z</time></trkpt><trkpt lat="45.4276477735733" lon="8.641984084169193"><ele>156.0</ele><time>2026-04-06T15:59:32.001Z</time></trkpt><trkpt lat="45.42773081898248" lon="8.641907745889961"><ele>156.0</ele><time>2026-04-06T15:59:33.001Z</time></trkpt><trkpt lat="45.42782030763994" lon="8.641845523171101"><ele>156.0</ele><time>2026-04-06T15:59:34.001Z</time></trkpt><trkpt lat="45.427901839703225" lon="8.641786503026589"><ele>156.0</ele><time>2026-04-06T15:59:35.001Z</time></trkpt><trkpt lat="45.42798665572882" lon="8.64171804875438"><ele>156.0</ele><time>2026-04-06T15:59:36.001Z</time></trkpt><trkpt lat="45.42806370630611" lon="8.641660999801145"><ele>156.0</ele><time>2026-04-06T15:59:37.001Z</time></trkpt><trkpt lat="45.42815060791598" lon="8.641586450082468"><ele>156.0</ele><time>2026-04-06T15:59:38.001Z</time></trkpt><trkpt lat="45.428234037884614" lon="8.641522683002123"><ele>156.0</ele><time>2026-04-06T15:59:39.001Z</time></trkpt><trkpt lat="45.42831992222274" lon="8.64145005292908"><ele>156.0</ele><time>2026-04-06T15:59:40.001Z</time></trkpt><trkpt lat="45.4284101826954" lon="8.64137482118152"><ele>156.0</ele><time>2026-04-06T15:59:41.001Z</time></trkpt><trkpt lat="45.42849161515548" lon="8.641307246410937"><ele>156.0</ele><time>2026-04-06T15:59:42.001Z</time></trkpt><trkpt lat="45.428579431858445" lon="8.641240396336045"><ele>156.0</ele><time>2026-04-06T15:59:43.001Z</time></trkpt><trkpt lat="45.428667422707356" lon="8.64117327556659"><ele>156.0</ele><time>2026-04-06T15:59:44Z</time></trkpt><trkpt lat="45.42875611563547" lon="8.641112560654765"><ele>156.0</ele><time>2026-04-06T15:59:45Z</time></trkpt><trkpt lat="45.42884087700103" lon="8.641050042033445"><ele>156.0</ele><time>2026-04-06T15:59:46Z</time></trkpt><trkpt lat="45.4289290669028" lon="8.640976789359643"><ele>156.0</ele><time>2026-04-06T15:59:47Z</time></trkpt><trkpt lat="45.42901339648534" lon="8.640895009640799"><ele>156.0</ele><time>2026-04-06T15:59:48Z</time></trkpt><trkpt lat="45.42909664716127" lon="8.640832737564551"><ele>156.0</ele><time>2026-04-06T15:59:49Z</time></trkpt><trkpt lat="45.42918402663647" lon="8.6407430348098"><ele>156.0</ele><time>2026-04-06T15:59:50Z</time></trkpt><trkpt lat="45.4292998351568" lon="8.640685711224707"><ele>156.0</ele><time>2026-04-06T15:59:51Z</time></trkpt><trkpt lat="45.429404429909205" lon="8.640598284650133"><ele>156.0</ele><time>2026-04-06T15:59:52Z</time></trkpt><trkpt lat="45.42949408385962" lon="8.640519535300328"><ele>156.0</ele><time>2026-04-06T15:59:53Z</time></trkpt><trkpt lat="45.42958137820556" lon="8.64043005668506"><ele>156.0</ele><time>2026-04-06T15:59:54Z</time></trkpt><trkpt lat="45.42967283708107" lon="8.640336230877425"><ele>156.0</ele><time>2026-04-06T15:59:55Z</time></trkpt><trkpt lat="45.42976058407045" lon="8.640240939978677"><ele>156.0</ele><time>2026-04-06T15:59:56Z</time></trkpt><trkpt lat="45.42984662313485" lon="8.640149291226033"><ele>156.0</ele><time>2026-04-06T15:59:57Z</time></trkpt><trkpt lat="45.42993117544863" lon="8.6400615837519"><ele>156.33333333333334</ele><time>2026-04-06T15:59:58Z</time></trkpt><trkpt lat="45.430007399812645" lon="8.639967903777334"><ele>156.66666666666666</ele><time>2026-04-06T15:59:59Z</time></trkpt><trkpt lat="45.43007709692858" lon="8.639879256457277"><ele>157.0</ele><time>2026-04-06T16:00:00Z</time></trkpt><trkpt lat="45.43014070836666" lon="8.639801691085031"><ele>157.33333333333331</ele><time>2026-04-06T16:00:01Z</time></trkpt><trkpt lat="45.43019942126802" lon="8.639738000253743"><ele>157.66666666666666</ele><time>2026-04-06T16:00:02Z</time></trkpt><trkpt lat="45.43025321807138" lon="8.63966222801868"><ele>158.0</ele><time>2026-04-06T16:00:03Z</time></trkpt><trkpt lat="45.4302918813244" lon="8.639589384502843"><ele>158.0</ele><time>2026-04-06T16:00:04Z</time></trkpt><trkpt lat="45.430356131762856" lon="8.63947574685204"><ele>158.0</ele><time>2026-04-06T16:00:06Z</time></trkpt><trkpt lat="45.43040309408419" lon="8.639392889946153"><ele>158.0</ele><time>2026-04-06T16:00:23Z</time></trkpt><trkpt lat="45.43045037732379" lon="8.63931299745665"><ele>158.0</ele><time>2026-04-06T16:00:24Z</time></trkpt><trkpt lat="45.430522923717305" lon="8.639184666252838"><ele>158.0</ele><time>2026-04-06T16:00:25Z</time></trkpt><trkpt lat="45.43058452057848" lon="8.639081798957173"><ele>157.6</ele><time>2026-04-06T16:00:26Z</time></trkpt><trkpt lat="45.430682658705926" lon="8.638942061961922"><ele>157.20000000000002</ele><time>2026-04-06T16:00:27Z</time></trkpt><trkpt lat="45.43072985274778" lon="8.638825229424512"><ele>156.8</ele><time>2026-04-06T16:00:28Z</time></trkpt><trkpt lat="45.43078369644908" lon="8.638711306447243"><ele>156.4</ele><time>2026-04-06T16:00:29Z</time></trkpt><trkpt lat="45.43082914623238" lon="8.638589747120035"><ele>156.0</ele><time>2026-04-06T16:00:30Z</time></trkpt><trkpt lat="45.4308763273268" lon="8.638459125736642"><ele>155.5</ele><time>2026-04-06T16:00:31Z</time></trkpt><trkpt lat="45.43093665500806" lon="8.63831895479601"><ele>155.0</ele><time>2026-04-06T16:00:32Z</time></trkpt><trkpt lat="45.43101224358218" lon="8.638165338130896"><ele>154.5</ele><time>2026-04-06T16:00:33Z</time></trkpt><trkpt lat="45.43110214588763" lon="8.638009585908048"><ele>154.0</ele><time>2026-04-06T16:00:34Z</time></trkpt><trkpt lat="45.43119159333935" lon="8.637872120527252"><ele>154.0</ele><time>2026-04-06T16:00:35Z</time></trkpt><trkpt lat="45.43127772803617" lon="8.637737509218573"><ele>154.0</ele><time>2026-04-06T16:00:36Z</time></trkpt><trkpt lat="45.43137172938584" lon="8.637603107613842"><ele>154.0</ele><time>2026-04-06T16:00:37Z</time></trkpt><trkpt lat="45.43146158224702" lon="8.637466965021426"><ele>154.0</ele><time>2026-04-06T16:00:38Z</time></trkpt><trkpt lat="45.43154638074386" lon="8.637345002606809"><ele>154.0</ele><time>2026-04-06T16:00:39Z</time></trkpt><trkpt lat="45.43163399659277" lon="8.637218062911272"><ele>154.0</ele><time>2026-04-06T16:00:40Z</time></trkpt><trkpt lat="45.43171809247296" lon="8.637089450482044"><ele>154.0</ele><time>2026-04-06T16:00:41Z</time></trkpt><trkpt lat="45.43179936364884" lon="8.636971556950382"><ele>154.0</ele><time>2026-04-06T16:00:42Z</time></trkpt><trkpt lat="45.43187423679459" lon="8.636853216793089"><ele>154.0</ele><time>2026-04-06T16:00:43Z</time></trkpt><trkpt lat="45.43195417572262" lon="8.63673119757958"><ele>154.0</ele><time>2026-04-06T16:00:44Z</time></trkpt><trkpt lat="45.432020202456236" lon="8.636599882296968"><ele>154.0</ele><time>2026-04-06T16:00:45Z</time></trkpt><trkpt lat="45.43209867678052" lon="8.636488813078353"><ele>154.0</ele><time>2026-04-06T16:00:46Z</time></trkpt><trkpt lat="45.43216231536114" lon="8.636381905832183"><ele>154.0</ele><time>2026-04-06T16:00:47Z</time></trkpt><trkpt lat="45.4322251843034" lon="8.636280656252055"><ele>154.16666666666669</ele><time>2026-04-06T16:00:48Z</time></trkpt><trkpt lat="45.432280172574266" lon="8.636205253961633"><ele>154.33333333333334</ele><time>2026-04-06T16:00:49Z</time></trkpt><trkpt lat="45.43235112391169" lon="8.63610505447688"><ele>154.5</ele><time>2026-04-06T16:00:51Z</time></trkpt><trkpt lat="45.43241725891601" lon="8.636052175905862"><ele>154.66666666666666</ele><time>2026-04-06T16:00:53Z</time></trkpt><trkpt lat="45.43246758118427" lon="8.635968236757948"><ele>154.83333333333331</ele><time>2026-04-06T16:00:55Z</time></trkpt><trkpt lat="45.432513935350805" lon="8.635834997580774"><ele>155.0</ele><time>2026-04-06T16:00:57Z</time></trkpt><trkpt lat="45.4325458280459" lon="8.635757000925738"><ele>155.0</ele><time>2026-04-06T16:00:58Z</time></trkpt><trkpt lat="45.43258668081377" lon="8.635675198133839"><ele>155.0</ele><time>2026-04-06T16:00:59Z</time></trkpt><trkpt lat="45.432634867585456" lon="8.635605236973529"><ele>155.0</ele><time>2026-04-06T16:01:00Z</time></trkpt><trkpt lat="45.432689366247274" lon="8.635537548592614"><ele>155.0</ele><time>2026-04-06T16:01:01Z</time></trkpt><trkpt lat="45.432751550116166" lon="8.635442460248523"><ele>155.0</ele><time>2026-04-06T16:01:02Z</time></trkpt><trkpt lat="45.432818994438875" lon="8.635325702372201"><ele>155.0</ele><time>2026-04-06T16:01:03Z</time></trkpt><trkpt lat="45.432881426823194" lon="8.635213794735995"><ele>155.0</ele><time>2026-04-06T16:01:04Z</time></trkpt><trkpt lat="45.432964612965485" lon="8.635119542963023"><ele>155.0</ele><time>2026-04-06T16:01:05Z</time></trkpt><trkpt lat="45.43303572456919" lon="8.635011063359208"><ele>155.0</ele><time>2026-04-06T16:01:06Z</time></trkpt><trkpt lat="45.43311254394897" lon="8.634895496377057"><ele>155.0</ele><time>2026-04-06T16:01:07Z</time></trkpt><trkpt lat="45.43316051661884" lon="8.634736780651581"><ele>155.0</ele><time>2026-04-06T16:01:08Z</time></trkpt><trkpt lat="45.43323544179014" lon="8.634618353147022"><ele>154.6</ele><time>2026-04-06T16:01:09Z</time></trkpt><trkpt lat="45.4333146932639" lon="8.634500851604766"><ele>154.2</ele><time>2026-04-06T16:01:10Z</time></trkpt><trkpt lat="45.433381736565785" lon="8.63439396054151"><ele>153.8</ele><time>2026-04-06T16:01:11Z</time></trkpt><trkpt lat="45.43347979944359" lon="8.634329035355332"><ele>153.4</ele><time>2026-04-06T16:01:12Z</time></trkpt><trkpt lat="45.4335422431639" lon="8.634232431983067"><ele>153.0</ele><time>2026-04-06T16:01:13Z</time></trkpt><trkpt lat="45.43360780629746" lon="8.63413100264861"><ele>153.0</ele><time>2026-04-06T16:01:14Z</time></trkpt><trkpt lat="45.433673117653804" lon="8.634029962560351"><ele>153.0</ele><time>2026-04-06T16:01:15Z</time></trkpt><trkpt lat="45.43371015180413" lon="8.633887713705068"><ele>153.0</ele><time>2026-04-06T16:01:16Z</time></trkpt><trkpt lat="45.43377769375074" lon="8.633785746538983"><ele>153.0</ele><time>2026-04-06T16:01:17Z</time></trkpt><trkpt lat="45.433850291587625" lon="8.633694949812115"><ele>153.0</ele><time>2026-04-06T16:01:18Z</time></trkpt><trkpt lat="45.43391156627808" lon="8.633609294212295"><ele>152.66666666666666</ele><time>2026-04-06T16:01:19Z</time></trkpt><trkpt lat="45.43398958853674" lon="8.633541879025254"><ele>152.33333333333334</ele><time>2026-04-06T16:01:20Z</time></trkpt><trkpt lat="45.43403733833346" lon="8.6334403211122"><ele>152.0</ele><time>2026-04-06T16:01:21Z</time></trkpt><trkpt lat="45.43410356845404" lon="8.63334280614112"><ele>151.66666666666669</ele><time>2026-04-06T16:01:22Z</time></trkpt><trkpt lat="45.434164590887455" lon="8.633271957382863"><ele>151.33333333333334</ele><time>2026-04-06T16:01:23Z</time></trkpt><trkpt lat="45.43421681117169" lon="8.633191413476135"><ele>151.0</ele><time>2026-04-06T16:01:24Z</time></trkpt><trkpt lat="45.43426878477716" lon="8.633111250019345"><ele>151.0</ele><time>2026-04-06T16:01:25Z</time></trkpt><trkpt lat="45.43432298690044" lon="8.63302764931769"><ele>151.0</ele><time>2026-04-06T16:01:26Z</time></trkpt><trkpt lat="45.434378830715396" lon="8.63294151630161"><ele>151.0</ele><time>2026-04-06T16:01:27Z</time></trkpt><trkpt lat="45.43443981819279" lon="8.632847252562506"><ele>151.0</ele><time>2026-04-06T16:01:28Z</time></trkpt><trkpt lat="45.43449713503728" lon="8.632758685207506"><ele>151.0</ele><time>2026-04-06T16:01:29Z</time></trkpt><trkpt lat="45.43455184509378" lon="8.632674145864485"><ele>151.0</ele><time>2026-04-06T16:01:30Z</time></trkpt><trkpt lat="45.43460751980791" lon="8.632588115975231"><ele>151.2</ele><time>2026-04-06T16:01:31Z</time></trkpt><trkpt lat="45.434662531310565" lon="8.63250311079301"><ele>151.39999999999998</ele><time>2026-04-06T16:01:32Z</time></trkpt><trkpt lat="45.434726627918835" lon="8.632404067070853"><ele>151.6</ele><time>2026-04-06T16:01:33Z</time></trkpt><trkpt lat="45.43479184709412" lon="8.632303289088533"><ele>151.79999999999998</ele><time>2026-04-06T16:01:34Z</time></trkpt><trkpt lat="45.43486198421754" lon="8.63219491159638"><ele>152.0</ele><time>2026-04-06T16:01:35.001Z</time></trkpt><trkpt lat="45.43492710825524" lon="8.632094698476223"><ele>152.0</ele><time>2026-04-06T16:01:36.001Z</time></trkpt><trkpt lat="45.434994114012255" lon="8.631991874863289"><ele>152.0</ele><time>2026-04-06T16:01:37.001Z</time></trkpt><trkpt lat="45.435060545085115" lon="8.631892634575623"><ele>152.0</ele><time>2026-04-06T16:01:38.001Z</time></trkpt><trkpt lat="45.43510930668062" lon="8.63177319915253"><ele>152.0</ele><time>2026-04-06T16:01:39.001Z</time></trkpt><trkpt lat="45.435170698101516" lon="8.631686568811359"><ele>152.0</ele><time>2026-04-06T16:01:40.001Z</time></trkpt><trkpt lat="45.43522578972745" lon="8.631608990090152"><ele>151.83333333333331</ele><time>2026-04-06T16:01:41.001Z</time></trkpt><trkpt lat="45.43527179460691" lon="8.631546593644728"><ele>151.66666666666666</ele><time>2026-04-06T16:01:42.001Z</time></trkpt><trkpt lat="45.43534037226544" lon="8.631464057602521"><ele>151.5</ele><time>2026-04-06T16:01:44.001Z</time></trkpt><trkpt lat="45.4354022130942" lon="8.63139576660424"><ele>151.33333333333334</ele><time>2026-04-06T16:01:46.001Z</time></trkpt><trkpt lat="45.43546481755499" lon="8.631338754644084"><ele>151.16666666666669</ele><time>2026-04-06T16:01:48.001Z</time></trkpt><trkpt lat="45.43558733289603" lon="8.631311994284097"><ele>151.0</ele><time>2026-04-06T16:01:50.001Z</time></trkpt><trkpt lat="45.43568063181832" lon="8.631223905706538"><ele>151.2</ele><time>2026-04-06T16:01:52.001Z</time></trkpt><trkpt lat="45.43566852880946" lon="8.631100681188466"><ele>151.39999999999998</ele><time>2026-04-06T16:01:53.001Z</time></trkpt><trkpt lat="45.435584973867314" lon="8.630972523419098"><ele>151.6</ele><time>2026-04-06T16:01:55.001Z</time></trkpt><trkpt lat="45.43553609253592" lon="8.630833023483296"><ele>151.79999999999998</ele><time>2026-04-06T16:01:57.001Z</time></trkpt><trkpt lat="45.435466332754956" lon="8.630734327782628"><ele>152.0</ele><time>2026-04-06T16:01:59Z</time></trkpt><trkpt lat="45.4354332118265" lon="8.630570375706291"><ele>152.0</ele><time>2026-04-06T16:02:01Z</time></trkpt><trkpt lat="45.4354119442638" lon="8.630442715956518"><ele>152.0</ele><time>2026-04-06T16:02:02Z</time></trkpt><trkpt lat="45.43538811882239" lon="8.63032993679099"><ele>152.0</ele><time>2026-04-06T16:02:03Z</time></trkpt><trkpt lat="45.43536597177675" lon="8.630208327036943"><ele>152.0</ele><time>2026-04-06T16:02:04Z</time></trkpt><trkpt lat="45.43534660287984" lon="8.630096163562348"><ele>152.0</ele><time>2026-04-06T16:02:05Z</time></trkpt><trkpt lat="45.43532733184455" lon="8.629974518700458"><ele>152.0</ele><time>2026-04-06T16:02:06Z</time></trkpt><trkpt lat="45.43530002331981" lon="8.629850352907207"><ele>152.33333333333331</ele><time>2026-04-06T16:02:07Z</time></trkpt><trkpt lat="45.43528104193225" lon="8.629731430245124"><ele>152.66666666666666</ele><time>2026-04-06T16:02:08Z</time></trkpt><trkpt lat="45.435262911464065" lon="8.629635705836439"><ele>153.0</ele><time>2026-04-06T16:02:09Z</time></trkpt><trkpt lat="45.43525311575854" lon="8.629533711607193"><ele>153.33333333333334</ele><time>2026-04-06T16:02:10Z</time></trkpt><trkpt lat="45.43524443015307" lon="8.62936234276707"><ele>153.66666666666669</ele><time>2026-04-06T16:02:12Z</time></trkpt><trkpt lat="45.43522073442558" lon="8.629231910651106"><ele>154.0</ele><time>2026-04-06T16:02:14Z</time></trkpt><trkpt lat="45.43519193875107" lon="8.629116232253606"><ele>154.0</ele><time>2026-04-06T16:02:16Z</time></trkpt><trkpt lat="45.43516312002272" lon="8.628989838358235"><ele>154.0</ele><time>2026-04-06T16:02:18Z</time></trkpt><trkpt lat="45.43515390005509" lon="8.628874246493154"><ele>154.0</ele><time>2026-04-06T16:02:19Z</time></trkpt><trkpt lat="45.43512195762632" lon="8.62877112574128"><ele>154.0</ele><time>2026-04-06T16:02:20Z</time></trkpt><trkpt lat="45.43510600102466" lon="8.628667630623736"><ele>154.0</ele><time>2026-04-06T16:02:21Z</time></trkpt><trkpt lat="45.435078471445124" lon="8.628558925471642"><ele>154.0</ele><time>2026-04-06T16:02:22Z</time></trkpt><trkpt lat="45.43506558474401" lon="8.628441262037382"><ele>153.83333333333334</ele><time>2026-04-06T16:02:23Z</time></trkpt><trkpt lat="45.43505356564322" lon="8.628326308610427"><ele>153.66666666666669</ele><time>2026-04-06T16:02:24Z</time></trkpt><trkpt lat="45.43503309681924" lon="8.628212225322251"><ele>153.5</ele><time>2026-04-06T16:02:25Z</time></trkpt><trkpt lat="45.435008166356155" lon="8.628094712269828"><ele>153.33333333333334</ele><time>2026-04-06T16:02:26Z</time></trkpt><trkpt lat="45.43499315505974" lon="8.62797950503156"><ele>153.16666666666666</ele><time>2026-04-06T16:02:27Z</time></trkpt><trkpt lat="45.43497535244696" lon="8.627869064781615"><ele>153.0</ele><time>2026-04-06T16:02:28Z</time></trkpt><trkpt lat="45.434954258321014" lon="8.627771438706262"><ele>152.85714285714286</ele><time>2026-04-06T16:02:29Z</time></trkpt><trkpt lat="45.43493587530486" lon="8.627671651011484"><ele>152.71428571428572</ele><time>2026-04-06T16:02:30Z</time></trkpt><trkpt lat="45.434922030982456" lon="8.62757381906035"><ele>152.57142857142856</ele><time>2026-04-06T16:02:31Z</time></trkpt><trkpt lat="45.43490762471451" lon="8.62748276895888"><ele>152.42857142857144</ele><time>2026-04-06T16:02:32Z</time></trkpt><trkpt lat="45.43489177771257" lon="8.627393852459793"><ele>152.2857142857143</ele><time>2026-04-06T16:02:33Z</time></trkpt><trkpt lat="45.43487799466209" lon="8.627278986999636"><ele>152.14285714285714</ele><time>2026-04-06T16:02:34Z</time></trkpt><trkpt lat="45.43485838569287" lon="8.62716743521346"><ele>152.0</ele><time>2026-04-06T16:02:35Z</time></trkpt><trkpt lat="45.43485186490965" lon="8.627033244292049"><ele>152.0</ele><time>2026-04-06T16:02:36Z</time></trkpt><trkpt lat="45.43484619884023" lon="8.626883423272027"><ele>152.0</ele><time>2026-04-06T16:02:37Z</time></trkpt><trkpt lat="45.4348498363455" lon="8.626715703309825"><ele>152.0</ele><time>2026-04-06T16:02:38Z</time></trkpt><trkpt lat="45.43484506664966" lon="8.626536576318678"><ele>152.0</ele><time>2026-04-06T16:02:39Z</time></trkpt><trkpt lat="45.43484823093093" lon="8.62638585603861"><ele>152.0</ele><time>2026-04-06T16:02:40Z</time></trkpt><trkpt lat="45.43485228606345" lon="8.626226193018187"><ele>152.0</ele><time>2026-04-06T16:02:41Z</time></trkpt><trkpt lat="45.434857249375746" lon="8.62607569669825"><ele>152.0</ele><time>2026-04-06T16:02:42Z</time></trkpt><trkpt lat="45.434858525223774" lon="8.625912929024832"><ele>152.0</ele><time>2026-04-06T16:02:43Z</time></trkpt><trkpt lat="45.43486396964648" lon="8.625760429761042"><ele>152.0</ele><time>2026-04-06T16:02:44Z</time></trkpt><trkpt lat="45.43486570664032" lon="8.625622688320037"><ele>152.2</ele><time>2026-04-06T16:02:45Z</time></trkpt><trkpt lat="45.43486561849659" lon="8.625485183118492"><ele>152.39999999999998</ele><time>2026-04-06T16:02:46Z</time></trkpt><trkpt lat="45.434869536294684" lon="8.62535010335405"><ele>152.60000000000002</ele><time>2026-04-06T16:02:47Z</time></trkpt><trkpt lat="45.43487221648901" lon="8.62521970201903"><ele>152.8</ele><time>2026-04-06T16:02:48Z</time></trkpt><trkpt lat="45.434876840982675" lon="8.625089292139702"><ele>153.0</ele><time>2026-04-06T16:02:49Z</time></trkpt><trkpt lat="45.43488336518851" lon="8.6249475734651"><ele>153.20000000000002</ele><time>2026-04-06T16:02:50Z</time></trkpt><trkpt lat="45.43488499290908" lon="8.624814362303887"><ele>153.4</ele><time>2026-04-06T16:02:51Z</time></trkpt><trkpt lat="45.434882466401476" lon="8.624677402730912"><ele>153.60000000000002</ele><time>2026-04-06T16:02:52Z</time></trkpt><trkpt lat="45.434886605779695" lon="8.624538960151687"><ele>153.8</ele><time>2026-04-06T16:02:53Z</time></trkpt><trkpt lat="45.434888148190666" lon="8.624405285036769"><ele>154.0</ele><time>2026-04-06T16:02:54Z</time></trkpt><trkpt lat="45.434893218652626" lon="8.62428076764033"><ele>154.33333333333334</ele><time>2026-04-06T16:02:55Z</time></trkpt><trkpt lat="45.43489829915528" lon="8.62415874138382"><ele>154.66666666666669</ele><time>2026-04-06T16:02:56Z</time></trkpt><trkpt lat="45.43490230337038" lon="8.624046031787378"><ele>155.0</ele><time>2026-04-06T16:02:57Z</time></trkpt><trkpt lat="45.434906819920826" lon="8.623938686705802"><ele>155.33333333333334</ele><time>2026-04-06T16:02:58Z</time></trkpt><trkpt lat="45.43490733500862" lon="8.623835463772425"><ele>155.66666666666666</ele><time>2026-04-06T16:02:59Z</time></trkpt><trkpt lat="45.43491326214229" lon="8.623720824758797"><ele>156.0</ele><time>2026-04-06T16:03:00Z</time></trkpt><trkpt lat="45.434915170142496" lon="8.623597868895137"><ele>156.0</ele><time>2026-04-06T16:03:01Z</time></trkpt><trkpt lat="45.43491565402748" lon="8.623481569844401"><ele>156.0</ele><time>2026-04-06T16:03:02Z</time></trkpt><trkpt lat="45.43491808323845" lon="8.623362598643377"><ele>156.0</ele><time>2026-04-06T16:03:03Z</time></trkpt><trkpt lat="45.43492157707524" lon="8.623249840417186"><ele>156.0</ele><time>2026-04-06T16:03:04Z</time></trkpt><trkpt lat="45.43492740665639" lon="8.623132221307838"><ele>156.0</ele><time>2026-04-06T16:03:05Z</time></trkpt><trkpt lat="45.434924526820595" lon="8.623006649533089"><ele>156.0</ele><time>2026-04-06T16:03:06Z</time></trkpt><trkpt lat="45.43492521762391" lon="8.622890705091002"><ele>155.83333333333334</ele><time>2026-04-06T16:03:07Z</time></trkpt><trkpt lat="45.43492831258415" lon="8.62277266240253"><ele>155.66666666666666</ele><time>2026-04-06T16:03:08Z</time></trkpt><trkpt lat="45.43493194629269" lon="8.622648557161341"><ele>155.5</ele><time>2026-04-06T16:03:09Z</time></trkpt><trkpt lat="45.4349338064079" lon="8.622522134986308"><ele>155.33333333333331</ele><time>2026-04-06T16:03:10Z</time></trkpt><trkpt lat="45.43493281100802" lon="8.622394634936834"><ele>155.16666666666666</ele><time>2026-04-06T16:03:11Z</time></trkpt><trkpt lat="45.4349323543066" lon="8.622272195368092"><ele>155.0</ele><time>2026-04-06T16:03:12Z</time></trkpt><trkpt lat="45.434934930836675" lon="8.622158014226665"><ele>155.0</ele><time>2026-04-06T16:03:13Z</time></trkpt><trkpt lat="45.434937202572094" lon="8.62204900583036"><ele>155.0</ele><time>2026-04-06T16:03:14Z</time></trkpt><trkpt lat="45.43494245295689" lon="8.62192847112871"><ele>155.0</ele><time>2026-04-06T16:03:15Z</time></trkpt><trkpt lat="45.434944243098336" lon="8.621811400351968"><ele>155.0</ele><time>2026-04-06T16:03:16Z</time></trkpt><trkpt lat="45.4349415710394" lon="8.621689374307893"><ele>155.0</ele><time>2026-04-06T16:03:17Z</time></trkpt><trkpt lat="45.434942258178246" lon="8.621568802075762"><ele>155.0</ele><time>2026-04-06T16:03:18Z</time></trkpt><trkpt lat="45.43493556277276" lon="8.62144251098772"><ele>155.0</ele><time>2026-04-06T16:03:19Z</time></trkpt><trkpt lat="45.43493468819968" lon="8.621305689326016"><ele>155.0</ele><time>2026-04-06T16:03:20Z</time></trkpt><trkpt lat="45.434932918772446" lon="8.621146220070502"><ele>155.0</ele><time>2026-04-06T16:03:21Z</time></trkpt><trkpt lat="45.43494422348534" lon="8.620985825267654"><ele>155.0</ele><time>2026-04-06T16:03:22Z</time></trkpt><trkpt lat="45.43495110595785" lon="8.620843149724688"><ele>155.0</ele><time>2026-04-06T16:03:23Z</time></trkpt><trkpt lat="45.43494246018343" lon="8.620750425241392"><ele>155.33333333333331</ele><time>2026-04-06T16:03:24Z</time></trkpt><trkpt lat="45.434953646128974" lon="8.62064754596823"><ele>155.66666666666666</ele><time>2026-04-06T16:03:26Z</time></trkpt><trkpt lat="45.43497965029149" lon="8.620540249746169"><ele>156.0</ele><time>2026-04-06T16:03:28Z</time></trkpt><trkpt lat="45.43497382889689" lon="8.620442201040788"><ele>156.33333333333334</ele><time>2026-04-06T16:03:29Z</time></trkpt><trkpt lat="45.43495868448977" lon="8.620266327699248"><ele>156.66666666666669</ele><time>2026-04-06T16:03:31Z</time></trkpt><trkpt lat="45.434958206618745" lon="8.620158442222145"><ele>157.0</ele><time>2026-04-06T16:03:32Z</time></trkpt><trkpt lat="45.43496016804978" lon="8.619972457177772"><ele>156.2</ele><time>2026-04-06T16:03:34Z</time></trkpt><trkpt lat="45.434963390354035" lon="8.619838744998772"><ele>155.39999999999998</ele><time>2026-04-06T16:03:35Z</time></trkpt><trkpt lat="45.4349611950594" lon="8.619709901367875"><ele>154.60000000000002</ele><time>2026-04-06T16:03:36Z</time></trkpt><trkpt lat="45.43496424930107" lon="8.619573396933593"><ele>153.8</ele><time>2026-04-06T16:03:37Z</time></trkpt><trkpt lat="45.43496771031684" lon="8.619399052214044"><ele>153.0</ele><time>2026-04-06T16:03:38Z</time></trkpt><trkpt lat="45.434987665785975" lon="8.619088033792577"><ele>153.0</ele><time>2026-04-06T16:03:39Z</time></trkpt><trkpt lat="45.43500093606465" lon="8.618864257653001"><ele>153.0</ele><time>2026-04-06T16:03:40Z</time></trkpt><trkpt lat="45.435007688951664" lon="8.618671650945775"><ele>153.0</ele><time>2026-04-06T16:03:41.001Z</time></trkpt><trkpt lat="45.435012947342756" lon="8.618499743110112"><ele>153.0</ele><time>2026-04-06T16:03:42.001Z</time></trkpt><trkpt lat="45.435030551639734" lon="8.618365972540781"><ele>153.20000000000002</ele><time>2026-04-06T16:03:43.001Z</time></trkpt><trkpt lat="45.43503266973108" lon="8.618188242303875"><ele>153.4</ele><time>2026-04-06T16:03:44.001Z</time></trkpt><trkpt lat="45.43503279845046" lon="8.618016694904341"><ele>153.60000000000002</ele><time>2026-04-06T16:03:45.001Z</time></trkpt><trkpt lat="45.435025626754" lon="8.617905790283597"><ele>153.8</ele><time>2026-04-06T16:03:46.001Z</time></trkpt><trkpt lat="45.4350243284737" lon="8.617814908790283"><ele>154.0</ele><time>2026-04-06T16:03:47.001Z</time></trkpt><trkpt lat="45.43506475339921" lon="8.617692644601537"><ele>154.25</ele><time>2026-04-06T16:03:49.001Z</time></trkpt><trkpt lat="45.435165856704955" lon="8.617689014726533"><ele>154.5</ele><time>2026-04-06T16:03:51.001Z</time></trkpt><trkpt lat="45.43523151443472" lon="8.617693440524238"><ele>154.75</ele><time>2026-04-06T16:03:52.001Z</time></trkpt><trkpt lat="45.43534428266365" lon="8.617686192716919"><ele>155.0</ele><time>2026-04-06T16:03:54.001Z</time></trkpt><trkpt lat="45.43540490608536" lon="8.617451501725764"><ele>155.0</ele><time>2026-04-06T16:03:57.001Z</time></trkpt><trkpt lat="45.43539062966547" lon="8.617339836774748"><ele>155.0</ele><time>2026-04-06T16:03:58.001Z</time></trkpt><trkpt lat="45.43537439268578" lon="8.617214062681201"><ele>155.0</ele><time>2026-04-06T16:03:59.001Z</time></trkpt><trkpt lat="45.435388894744655" lon="8.617085469919493"><ele>155.0</ele><time>2026-04-06T16:04:00.001Z</time></trkpt><trkpt lat="45.43538738633255" lon="8.616965045349431"><ele>155.0</ele><time>2026-04-06T16:04:01.001Z</time></trkpt><trkpt lat="45.435386011345834" lon="8.616855272888449"><ele>155.0</ele><time>2026-04-06T16:04:02.001Z</time></trkpt><trkpt lat="45.435371649759695" lon="8.616760463286148"><ele>154.6</ele><time>2026-04-06T16:04:03.001Z</time></trkpt><trkpt lat="45.435391429232446" lon="8.616648268916135"><ele>154.2</ele><time>2026-04-06T16:04:05Z</time></trkpt><trkpt lat="45.43552146605139" lon="8.616628606719543"><ele>153.8</ele><time>2026-04-06T16:04:10Z</time></trkpt><trkpt lat="45.43552625196095" lon="8.616447992789874"><ele>153.4</ele><time>2026-04-06T16:04:11Z</time></trkpt><trkpt lat="45.43549729870252" lon="8.616311916819106"><ele>153.0</ele><time>2026-04-06T16:04:13Z</time></trkpt><trkpt lat="45.4354919388786" lon="8.616210241698374"><ele>153.28571428571428</ele><time>2026-04-06T16:04:15Z</time></trkpt><trkpt lat="45.435543235527604" lon="8.61614151441997"><ele>153.57142857142858</ele><time>2026-04-06T16:04:18Z</time></trkpt><trkpt lat="45.43561344998369" lon="8.616095919281308"><ele>153.85714285714286</ele><time>2026-04-06T16:06:18Z</time></trkpt><trkpt lat="45.435618840071115" lon="8.616195964400385"><ele>154.14285714285714</ele><time>2026-04-06T16:06:30Z</time></trkpt><trkpt lat="45.435579949786906" lon="8.616266622262662"><ele>154.42857142857142</ele><time>2026-04-06T16:06:41Z</time></trkpt><trkpt lat="45.43564486753385" lon="8.616303800111938"><ele>154.71428571428572</ele><time>2026-04-06T16:06:49Z</time></trkpt><trkpt lat="45.4357055843153" lon="8.616344145200092"><ele>155.0</ele><time>2026-04-06T16:06:57Z</time></trkpt><trkpt lat="45.43580675546549" lon="8.616320785026996"><ele>155.0</ele><time>2026-04-06T16:07:39.999Z</time></trkpt><trkpt lat="45.4358605741067" lon="8.616272968343637"><ele>155.0</ele><time>2026-04-06T16:07:43.999Z</time></trkpt><trkpt lat="45.43586067852059" lon="8.616182215339759"><ele>155.0</ele><time>2026-04-06T16:07:49.999Z</time></trkpt><trkpt lat="45.435868914554554" lon="8.616087593789599"><ele>155.0</ele><time>2026-04-06T16:07:58Z</time></trkpt><trkpt lat="45.43591721773893" lon="8.615968627444499"><ele>155.0</ele><time>2026-04-06T16:09:18.999Z</time></trkpt><trkpt lat="45.43590753037936" lon="8.615869837380636"><ele>155.0</ele><time>2026-04-06T16:09:30.999Z</time></trkpt><trkpt lat="45.436033034890755" lon="8.615811152450762"><ele>155.0</ele><time>2026-04-06T16:13:05.999Z</time></trkpt><trkpt lat="45.43603317946118" lon="8.615719476732055"><ele>155.0</ele><time>2026-04-06T16:13:19.999Z</time></trkpt><trkpt lat="45.43602792156423" lon="8.615625170840062"><ele>155.0</ele><time>2026-04-06T16:13:26.999Z</time></trkpt><trkpt lat="45.43596474009748" lon="8.615646835844759"><ele>155.0</ele><time>2026-04-06T16:18:29Z</time></trkpt><trkpt lat="45.435893549196216" lon="8.615647294581915"><ele>155.0</ele><time>2026-04-06T16:18:36Z</time></trkpt><trkpt lat="45.43575016758486" lon="8.615631209293504"><ele>155.0</ele><time>2026-04-06T16:19:24.999Z</time></trkpt><trkpt lat="45.435721664318244" lon="8.61571747684428"><ele>155.0</ele><time>2026-04-06T16:23:04.999Z</time></trkpt><trkpt lat="45.435717782630846" lon="8.615809738655972"><ele>155.0</ele><time>2026-04-06T16:23:13.999Z</time></trkpt><trkpt lat="45.435708872144836" lon="8.615899543678498"><ele>155.0</ele><time>2026-04-06T16:23:19.999Z</time></trkpt><trkpt lat="45.43565213082958" lon="8.615961649474075"><ele>155.0</ele><time>2026-04-06T16:23:23.999Z</time></trkpt><trkpt lat="45.43563400331915" lon="8.616049716323367"><ele>155.0</ele><time>2026-04-06T16:23:26.999Z</time></trkpt><trkpt lat="45.435576551134346" lon="8.616119546864077"><ele>155.0</ele><time>2026-04-06T16:23:29.999Z</time></trkpt><trkpt lat="45.43554710867701" lon="8.615873386369936"><ele>155.0</ele><time>2026-04-06T16:27:15.999Z</time></trkpt><trkpt lat="45.43556576901042" lon="8.615745823197997"><ele>155.0</ele><time>2026-04-06T16:27:17.999Z</time></trkpt><trkpt lat="45.43552383121894" lon="8.615668226390254"><ele>155.0</ele><time>2026-04-06T16:27:20.999Z</time></trkpt><trkpt lat="45.43544444126578" lon="8.615623637016839"><ele>155.0</ele><time>2026-04-06T16:27:23.999Z</time></trkpt><trkpt lat="45.43542643418946" lon="8.615493962342068"><ele>155.0</ele><time>2026-04-06T16:27:25.999Z</time></trkpt><trkpt lat="45.43544357043995" lon="8.615376271588648"><ele>155.0</ele><time>2026-04-06T16:27:27.999Z</time></trkpt><trkpt lat="45.43545621469799" lon="8.615274464364953"><ele>155.16666666666666</ele><time>2026-04-06T16:27:29.999Z</time></trkpt><trkpt lat="45.435437245549586" lon="8.615187995238232"><ele>155.33333333333331</ele><time>2026-04-06T16:27:31.999Z</time></trkpt><trkpt lat="45.43534092796437" lon="8.61513981703066"><ele>155.5</ele><time>2026-04-06T16:27:33.999Z</time></trkpt><trkpt lat="45.43523116403498" lon="8.615181609826637"><ele>155.66666666666666</ele><time>2026-04-06T16:27:35.999Z</time></trkpt><trkpt lat="45.435137453542225" lon="8.615247560999979"><ele>155.83333333333334</ele><time>2026-04-06T16:27:37.999Z</time></trkpt><trkpt lat="45.43508765896772" lon="8.615306594774312"><ele>156.0</ele><time>2026-04-06T16:27:38.999Z</time></trkpt><trkpt lat="45.43504258356405" lon="8.615375637892633"><ele>156.0</ele><time>2026-04-06T16:27:39.999Z</time></trkpt><trkpt lat="45.435018478861906" lon="8.615527493711998"><ele>156.0</ele><time>2026-04-06T16:27:40.999Z</time></trkpt><trkpt lat="45.434999735412475" lon="8.615705624979928"><ele>156.0</ele><time>2026-04-06T16:27:41.999Z</time></trkpt><trkpt lat="45.43500585578371" lon="8.615873013703439"><ele>156.0</ele><time>2026-04-06T16:27:42.999Z</time></trkpt><trkpt lat="45.435008205115444" lon="8.616072405863509"><ele>155.25</ele><time>2026-04-06T16:27:43.999Z</time></trkpt><trkpt lat="45.43500486344923" lon="8.616260264586295"><ele>154.5</ele><time>2026-04-06T16:27:44.999Z</time></trkpt><trkpt lat="45.4350027023744" lon="8.616430290225715"><ele>153.75</ele><time>2026-04-06T16:27:45.999Z</time></trkpt><trkpt lat="45.43500252367065" lon="8.616599588959915"><ele>153.0</ele><time>2026-04-06T16:27:46.999Z</time></trkpt><trkpt lat="45.43500203538433" lon="8.616758660439517"><ele>153.0</ele><time>2026-04-06T16:27:47.999Z</time></trkpt><trkpt lat="45.43500477074384" lon="8.616932212844066"><ele>153.0</ele><time>2026-04-06T16:27:48.999Z</time></trkpt><trkpt lat="45.43500122327688" lon="8.617123271487152"><ele>153.0</ele><time>2026-04-06T16:27:49.999Z</time></trkpt><trkpt lat="45.43499423587997" lon="8.61730133879123"><ele>153.0</ele><time>2026-04-06T16:27:50.999Z</time></trkpt><trkpt lat="45.43498563898466" lon="8.617472583606094"><ele>153.25</ele><time>2026-04-06T16:27:51.999Z</time></trkpt><trkpt lat="45.434977193374614" lon="8.617639495951545"><ele>153.5</ele><time>2026-04-06T16:27:52.999Z</time></trkpt><trkpt lat="45.43496971802179" lon="8.617826584603433"><ele>153.75</ele><time>2026-04-06T16:27:53.999Z</time></trkpt><trkpt lat="45.43496833711086" lon="8.618014259520137"><ele>154.0</ele><time>2026-04-06T16:27:54.999Z</time></trkpt><trkpt lat="45.43496390095007" lon="8.618197687006308"><ele>154.0</ele><time>2026-04-06T16:27:55.999Z</time></trkpt><trkpt lat="45.4349616703421" lon="8.618373692350797"><ele>154.0</ele><time>2026-04-06T16:27:56.999Z</time></trkpt><trkpt lat="45.434958881382016" lon="8.618545188782255"><ele>154.0</ele><time>2026-04-06T16:27:57.999Z</time></trkpt><trkpt lat="45.43495471082274" lon="8.618717084388026"><ele>154.0</ele><time>2026-04-06T16:27:58.999Z</time></trkpt><trkpt lat="45.43495141147304" lon="8.618886205382076"><ele>153.8</ele><time>2026-04-06T16:27:59.999Z</time></trkpt><trkpt lat="45.43494879169136" lon="8.61905768860438"><ele>153.60000000000002</ele><time>2026-04-06T16:28:00.999Z</time></trkpt><trkpt lat="45.43494547897611" lon="8.619187593954642"><ele>153.4</ele><time>2026-04-06T16:28:01.999Z</time></trkpt><trkpt lat="45.43494698762252" lon="8.619315910994713"><ele>153.20000000000002</ele><time>2026-04-06T16:28:03.999Z</time></trkpt><trkpt lat="45.43493867680234" lon="8.61941080754902"><ele>153.0</ele><time>2026-04-06T16:28:06.999Z</time></trkpt><trkpt lat="45.43492703207734" lon="8.619569694508268"><ele>153.0</ele><time>2026-04-06T16:28:40.998Z</time></trkpt><trkpt lat="45.43493089747486" lon="8.61968036951022"><ele>153.0</ele><time>2026-04-06T16:28:41.998Z</time></trkpt><trkpt lat="45.43493351711856" lon="8.619775241199601"><ele>153.0</ele><time>2026-04-06T16:28:42.998Z</time></trkpt><trkpt lat="45.43493323465923" lon="8.619865875919821"><ele>153.0</ele><time>2026-04-06T16:28:43.998Z</time></trkpt><trkpt lat="45.43492851834146" lon="8.619958265620928"><ele>153.0</ele><time>2026-04-06T16:28:44.998Z</time></trkpt><trkpt lat="45.43493213940577" lon="8.620112720741464"><ele>153.0</ele><time>2026-04-06T16:28:46.998Z</time></trkpt><trkpt lat="45.43493080640319" lon="8.620272199255371"><ele>153.8</ele><time>2026-04-06T16:28:48.998Z</time></trkpt><trkpt lat="45.43492618642078" lon="8.620378979830313"><ele>154.60000000000002</ele><time>2026-04-06T16:28:49.998Z</time></trkpt><trkpt lat="45.43492151634932" lon="8.620506885316038"><ele>155.39999999999998</ele><time>2026-04-06T16:28:50.999Z</time></trkpt><trkpt lat="45.43491729265572" lon="8.620669011633792"><ele>156.2</ele><time>2026-04-06T16:28:51.999Z</time></trkpt><trkpt lat="45.43491644865421" lon="8.62084175571873"><ele>157.0</ele><time>2026-04-06T16:28:52.999Z</time></trkpt><trkpt lat="45.434917716560804" lon="8.621009343900331"><ele>156.5</ele><time>2026-04-06T16:28:53.999Z</time></trkpt><trkpt lat="45.43491446651651" lon="8.621182244726766"><ele>156.0</ele><time>2026-04-06T16:28:54.999Z</time></trkpt><trkpt lat="45.43489882235576" lon="8.62134561410443"><ele>155.5</ele><time>2026-04-06T16:28:55.999Z</time></trkpt><trkpt lat="45.43491716506264" lon="8.621505685795652"><ele>155.0</ele><time>2026-04-06T16:28:56.999Z</time></trkpt><trkpt lat="45.434917601142054" lon="8.62166559974368"><ele>155.0</ele><time>2026-04-06T16:28:57.999Z</time></trkpt><trkpt lat="45.434915666465095" lon="8.621839874945513"><ele>155.0</ele><time>2026-04-06T16:28:58.999Z</time></trkpt><trkpt lat="45.43491070230742" lon="8.622019451335127"><ele>155.0</ele><time>2026-04-06T16:28:59.999Z</time></trkpt><trkpt lat="45.43488259958782" lon="8.622188599020598"><ele>155.0</ele><time>2026-04-06T16:29:00.999Z</time></trkpt><trkpt lat="45.43487949548341" lon="8.622355485792683"><ele>155.0</ele><time>2026-04-06T16:29:01.999Z</time></trkpt><trkpt lat="45.43487578143379" lon="8.622523475709913"><ele>155.0</ele><time>2026-04-06T16:29:02.999Z</time></trkpt><trkpt lat="45.434871851472764" lon="8.622703005601323"><ele>155.0</ele><time>2026-04-06T16:29:03.999Z</time></trkpt><trkpt lat="45.434867878942306" lon="8.622884480122362"><ele>155.0</ele><time>2026-04-06T16:29:04.999Z</time></trkpt><trkpt lat="45.434863918627606" lon="8.623065396603964"><ele>155.25</ele><time>2026-04-06T16:29:05.999Z</time></trkpt><trkpt lat="45.4348604363104" lon="8.623251424271544"><ele>155.5</ele><time>2026-04-06T16:29:06.999Z</time></trkpt><trkpt lat="45.434856717273355" lon="8.623437699414437"><ele>155.75</ele><time>2026-04-06T16:29:07.999Z</time></trkpt><trkpt lat="45.43485260801986" lon="8.623643519465576"><ele>156.0</ele><time>2026-04-06T16:29:08.999Z</time></trkpt><trkpt lat="45.434848492547495" lon="8.62384965096318"><ele>156.0</ele><time>2026-04-06T16:29:09.999Z</time></trkpt><trkpt lat="45.434844369365265" lon="8.62405616857549"><ele>156.0</ele><time>2026-04-06T16:29:10.999Z</time></trkpt><trkpt lat="45.434840106044206" lon="8.624269542856831"><ele>156.0</ele><time>2026-04-06T16:29:11.999Z</time></trkpt><trkpt lat="45.434835646758316" lon="8.624479916215504"><ele>156.0</ele><time>2026-04-06T16:29:12.999Z</time></trkpt><trkpt lat="45.43483153504156" lon="8.62467389254165"><ele>155.5</ele><time>2026-04-06T16:29:13.999Z</time></trkpt><trkpt lat="45.434826878386694" lon="8.624869737973652"><ele>155.0</ele><time>2026-04-06T16:29:14.999Z</time></trkpt><trkpt lat="45.434822891547135" lon="8.62505974231636"><ele>154.5</ele><time>2026-04-06T16:29:15.999Z</time></trkpt><trkpt lat="45.43481867649186" lon="8.625253611775088"><ele>154.0</ele><time>2026-04-06T16:29:16.999Z</time></trkpt><trkpt lat="45.43481424087637" lon="8.625452978515227"><ele>153.75</ele><time>2026-04-06T16:29:17.999Z</time></trkpt><trkpt lat="45.43480974141338" lon="8.625659259355487"><ele>153.5</ele><time>2026-04-06T16:29:18.999Z</time></trkpt><trkpt lat="45.434805528106644" lon="8.625856666779285"><ele>153.25</ele><time>2026-04-06T16:29:19.999Z</time></trkpt><trkpt lat="45.43480121177897" lon="8.626046113628798"><ele>153.0</ele><time>2026-04-06T16:29:20.999Z</time></trkpt><trkpt lat="45.434797397606175" lon="8.626229586928325"><ele>152.75</ele><time>2026-04-06T16:29:21.999Z</time></trkpt><trkpt lat="45.43479371388281" lon="8.626410380345565"><ele>152.5</ele><time>2026-04-06T16:29:22.999Z</time></trkpt><trkpt lat="45.434791544525446" lon="8.626582118206185"><ele>152.25</ele><time>2026-04-06T16:29:23.999Z</time></trkpt><trkpt lat="45.43479177245913" lon="8.626750678878524"><ele>152.0</ele><time>2026-04-06T16:29:24.999Z</time></trkpt><trkpt lat="45.434792168475546" lon="8.626892176264679"><ele>152.0</ele><time>2026-04-06T16:29:25.999Z</time></trkpt><trkpt lat="45.43478769406187" lon="8.626992792827012"><ele>152.0</ele><time>2026-04-06T16:29:26.999Z</time></trkpt><trkpt lat="45.43478678647607" lon="8.627093446351928"><ele>152.0</ele><time>2026-04-06T16:29:31.999Z</time></trkpt><trkpt lat="45.43479407077788" lon="8.627198409113838"><ele>152.0</ele><time>2026-04-06T16:29:45.999Z</time></trkpt><trkpt lat="45.43480788175085" lon="8.627289333849863"><ele>152.0</ele><time>2026-04-06T16:29:48.999Z</time></trkpt><trkpt lat="45.434827189790845" lon="8.627415770889101"><ele>152.0</ele><time>2026-04-06T16:29:53.999Z</time></trkpt><trkpt lat="45.434954722233556" lon="8.627398140241466"><ele>152.0</ele><time>2026-04-06T16:29:54.999Z</time></trkpt><trkpt lat="45.43504274051826" lon="8.627396466239327"><ele>152.0</ele><time>2026-04-06T16:29:56.999Z</time></trkpt><trkpt lat="45.43512354359373" lon="8.62741696198885"><ele>152.0</ele><time>2026-04-06T16:29:57.999Z</time></trkpt><trkpt lat="45.435214950370494" lon="8.627438824884234"><ele>152.0</ele><time>2026-04-06T16:29:58.999Z</time></trkpt><trkpt lat="45.435293762470515" lon="8.627454087428363"><ele>152.0</ele><time>2026-04-06T16:29:59.999Z</time></trkpt><trkpt lat="45.43537366759904" lon="8.627469732473196"><ele>152.0</ele><time>2026-04-06T16:30:00.999Z</time></trkpt><trkpt lat="45.435461352368115" lon="8.627489550729052"><ele>152.33333333333331</ele><time>2026-04-06T16:30:01.999Z</time></trkpt><trkpt lat="45.43553967104846" lon="8.627501932148393"><ele>152.66666666666666</ele><time>2026-04-06T16:30:02.999Z</time></trkpt><trkpt lat="45.435606069534174" lon="8.627516169512461"><ele>153.0</ele><time>2026-04-06T16:30:03.999Z</time></trkpt><trkpt lat="45.43567110745306" lon="8.627531588167612"><ele>153.33333333333334</ele><time>2026-04-06T16:30:04.999Z</time></trkpt><trkpt lat="45.43574813864547" lon="8.627570689173302"><ele>153.66666666666669</ele><time>2026-04-06T16:30:06.999Z</time></trkpt><trkpt lat="45.43578177556072" lon="8.627383310904056"><ele>154.0</ele><time>2026-04-06T16:30:08.999Z</time></trkpt><trkpt lat="45.435789136990735" lon="8.627287880101425"><ele>154.0</ele><time>2026-04-06T16:30:09.999Z</time></trkpt><trkpt lat="45.43580251798899" lon="8.627141830406678"><ele>154.0</ele><time>2026-04-06T16:30:11.999Z</time></trkpt><trkpt lat="45.43580660190499" lon="8.627013081030897"><ele>154.0</ele><time>2026-04-06T16:30:13.999Z</time></trkpt><trkpt lat="45.43581889163749" lon="8.626893635656522"><ele>154.0</ele><time>2026-04-06T16:30:15.998Z</time></trkpt><trkpt lat="45.435838405807196" lon="8.62680598178591"><ele>154.0</ele><time>2026-04-06T16:30:17.998Z</time></trkpt><trkpt lat="45.43583811148468" lon="8.626706835718002"><ele>154.0</ele><time>2026-04-06T16:30:19.998Z</time></trkpt><trkpt lat="45.43585910141988" lon="8.626618715111956"><ele>154.2</ele><time>2026-04-06T16:30:22.998Z</time></trkpt><trkpt lat="45.43582460202725" lon="8.626542027006858"><ele>154.4</ele><time>2026-04-06T16:30:48.998Z</time></trkpt><trkpt lat="45.43560769162922" lon="8.626562416306502"><ele>154.6</ele><time>2026-04-06T16:37:45.999Z</time></trkpt><trkpt lat="45.435557697504734" lon="8.626504234400754"><ele>154.8</ele><time>2026-04-06T16:48:21Z</time></trkpt><trkpt lat="45.43548133703898" lon="8.626443659130956"><ele>155.0</ele><time>2026-04-06T16:48:28Z</time></trkpt><trkpt lat="45.43547222424564" lon="8.626348553637108"><ele>155.0</ele><time>2026-04-06T16:48:32Z</time></trkpt><trkpt lat="45.4355106616154" lon="8.626451265777254"><ele>155.0</ele><time>2026-04-06T16:48:57Z</time></trkpt><trkpt lat="45.43558050600666" lon="8.626513357115181"><ele>155.0</ele><time>2026-04-06T16:49:00Z</time></trkpt><trkpt lat="45.43561332335368" lon="8.626620430948016"><ele>155.0</ele><time>2026-04-06T16:49:02Z</time></trkpt><trkpt lat="45.435550712488904" lon="8.626649302666678"><ele>155.0</ele><time>2026-04-06T16:50:38Z</time></trkpt><trkpt lat="45.43561656011912" lon="8.626646669189169"><ele>155.0</ele><time>2026-04-06T16:50:48Z</time></trkpt><trkpt lat="45.43562754134393" lon="8.626547816240755"><ele>155.0</ele><time>2026-04-06T16:59:34Z</time></trkpt><trkpt lat="45.43568451505883" lon="8.6266186931405"><ele>155.0</ele><time>2026-04-06T16:59:56.999Z</time></trkpt><trkpt lat="45.43578815130191" lon="8.626656145996693"><ele>155.0</ele><time>2026-04-07T06:14:44.029Z</time></trkpt><trkpt lat="45.435799174332544" lon="8.626759501879883"><ele>155.0</ele><time>2026-04-07T06:15:01.028Z</time></trkpt><trkpt lat="45.43577001109623" lon="8.62667841481799"><ele>155.0</ele><time>2026-04-07T06:15:12.021Z</time></trkpt><trkpt lat="45.43569469538963" lon="8.626682207941384"><ele>155.0</ele><time>2026-04-07T06:15:16.998Z</time></trkpt><trkpt lat="45.43559589613828" lon="8.626645875735221"><ele>155.0</ele><time>2026-04-07T06:15:26Z</time></trkpt><trkpt lat="45.435725738760006" lon="8.626653937628287"><ele>155.0</ele><time>2026-04-07T06:17:09.013Z</time></trkpt><trkpt lat="45.43579381637553" lon="8.626701102795934"><ele>155.0</ele><time>2026-04-07T06:17:27.013Z</time></trkpt><trkpt lat="45.435915386646414" lon="8.626718788985835"><ele>155.0</ele><time>2026-04-07T06:17:41.998Z</time></trkpt><trkpt lat="45.43589257960778" lon="8.626631006386603"><ele>155.0</ele><time>2026-04-07T06:18:28Z</time></trkpt><trkpt lat="45.43587764012965" lon="8.626508281436816"><ele>155.0</ele><time>2026-04-07T06:18:53.999Z</time></trkpt><trkpt lat="45.435901101843214" lon="8.626415295415459"><ele>155.0</ele><time>2026-04-07T06:18:54.999Z</time></trkpt><trkpt lat="45.43591932404141" lon="8.626280181239448"><ele>155.0</ele><time>2026-04-07T06:18:56.999Z</time></trkpt><trkpt lat="45.43596408655387" lon="8.626171692184949"><ele>155.0</ele><time>2026-04-07T06:18:59.999Z</time></trkpt><trkpt lat="45.43602329943629" lon="8.626097912744234"><ele>155.0</ele><time>2026-04-07T06:19:02.999Z</time></trkpt><trkpt lat="45.436113750926175" lon="8.626051404380283"><ele>155.0</ele><time>2026-04-07T06:19:04.999Z</time></trkpt><trkpt lat="45.4361956725981" lon="8.626057472990224"><ele>155.0</ele><time>2026-04-07T06:19:05.999Z</time></trkpt><trkpt lat="45.436262484467534" lon="8.626031843722403"><ele>155.0</ele><time>2026-04-07T06:19:07.999Z</time></trkpt><trkpt lat="45.4363615649895" lon="8.626081427946232"><ele>155.5</ele><time>2026-04-07T06:19:09.999Z</time></trkpt><trkpt lat="45.436403424722336" lon="8.626157505491554"><ele>156.0</ele><time>2026-04-07T06:19:11.999Z</time></trkpt><trkpt lat="45.43646277870244" lon="8.626288396305783"><ele>156.5</ele><time>2026-04-07T06:19:12.999Z</time></trkpt><trkpt lat="45.4364825094444" lon="8.626411275497142"><ele>157.0</ele><time>2026-04-07T06:19:13.999Z</time></trkpt><trkpt lat="45.43646965247905" lon="8.62652408872609"><ele>157.5</ele><time>2026-04-07T06:19:14.999Z</time></trkpt><trkpt lat="45.436470920498465" lon="8.626661728347253"><ele>158.0</ele><time>2026-04-07T06:19:15.999Z</time></trkpt><trkpt lat="45.43647343375919" lon="8.626788348243654"><ele>158.0</ele><time>2026-04-07T06:19:16.999Z</time></trkpt><trkpt lat="45.4364788861155" lon="8.626939612485637"><ele>158.0</ele><time>2026-04-07T06:19:17.999Z</time></trkpt><trkpt lat="45.43649085962833" lon="8.627075008287731"><ele>158.0</ele><time>2026-04-07T06:19:18.999Z</time></trkpt><trkpt lat="45.43648172830073" lon="8.627206233181646"><ele>158.0</ele><time>2026-04-07T06:19:19.999Z</time></trkpt><trkpt lat="45.43648912522756" lon="8.627317211383986"><ele>158.0</ele><time>2026-04-07T06:19:20.999Z</time></trkpt><trkpt lat="45.436496778430346" lon="8.627419943510379"><ele>158.0</ele><time>2026-04-07T06:19:21.999Z</time></trkpt><trkpt lat="45.43649072646675" lon="8.62755150244938"><ele>158.0</ele><time>2026-04-07T06:19:23.999Z</time></trkpt><trkpt lat="45.43650365025072" lon="8.627639710992424"><ele>158.0</ele><time>2026-04-07T06:19:26.999Z</time></trkpt><trkpt lat="45.436483833837244" lon="8.62773051236319"><ele>158.0</ele><time>2026-04-07T06:19:31.999Z</time></trkpt><trkpt lat="45.43638324281691" lon="8.627658617506274"><ele>158.0</ele><time>2026-04-07T06:19:34.999Z</time></trkpt><trkpt lat="45.436257228221415" lon="8.627632300740757"><ele>158.0</ele><time>2026-04-07T06:19:36.998Z</time></trkpt><trkpt lat="45.43618895596449" lon="8.627618042831786"><ele>158.0</ele><time>2026-04-07T06:19:37.998Z</time></trkpt><trkpt lat="45.43611580579675" lon="8.627602766227083"><ele>157.20000000000002</ele><time>2026-04-07T06:19:38.998Z</time></trkpt><trkpt lat="45.4360414487139" lon="8.62758694240288"><ele>156.4</ele><time>2026-04-07T06:19:39.998Z</time></trkpt><trkpt lat="45.43592342453208" lon="8.627561098488318"><ele>155.60000000000002</ele><time>2026-04-07T06:19:41.998Z</time></trkpt><trkpt lat="45.43581058257855" lon="8.627536389329736"><ele>154.8</ele><time>2026-04-07T06:19:43.998Z</time></trkpt><trkpt lat="45.435738119009606" lon="8.627520521873553"><ele>154.0</ele><time>2026-04-07T06:19:44.998Z</time></trkpt><trkpt lat="45.435643937978305" lon="8.627498101747149"><ele>154.0</ele><time>2026-04-07T06:19:45.998Z</time></trkpt><trkpt lat="45.43555242994421" lon="8.627476453351928"><ele>154.0</ele><time>2026-04-07T06:19:46.998Z</time></trkpt><trkpt lat="45.43547051985772" lon="8.627457075558745"><ele>154.0</ele><time>2026-04-07T06:19:48Z</time></trkpt><trkpt lat="45.43540543372593" lon="8.627441677879553"><ele>154.0</ele><time>2026-04-07T06:19:49Z</time></trkpt><trkpt lat="45.43531301872286" lon="8.627426551822861"><ele>154.0</ele><time>2026-04-07T06:19:50Z</time></trkpt><trkpt lat="45.43522681821386" lon="8.627407460991183"><ele>154.0</ele><time>2026-04-07T06:19:51Z</time></trkpt><trkpt lat="45.43515494001344" lon="8.627386135845756"><ele>153.66666666666669</ele><time>2026-04-07T06:19:52Z</time></trkpt><trkpt lat="45.435074888639086" lon="8.627387563334452"><ele>153.33333333333334</ele><time>2026-04-07T06:19:54Z</time></trkpt><trkpt lat="45.435006305387056" lon="8.627359804782255"><ele>153.0</ele><time>2026-04-07T06:20:01Z</time></trkpt><trkpt lat="45.434928251409474" lon="8.627322696839691"><ele>152.66666666666666</ele><time>2026-04-07T06:20:29Z</time></trkpt><trkpt lat="45.43484701311328" lon="8.627315721077357"><ele>152.33333333333331</ele><time>2026-04-07T06:20:31Z</time></trkpt><trkpt lat="45.43473437305191" lon="8.627311464376445"><ele>152.0</ele><time>2026-04-07T06:20:33Z</time></trkpt><trkpt lat="45.4346190767811" lon="8.6272699333376"><ele>151.83333333333331</ele><time>2026-04-07T06:20:35Z</time></trkpt><trkpt lat="45.43455530148903" lon="8.627256809557615"><ele>151.66666666666666</ele><time>2026-04-07T06:20:36Z</time></trkpt><trkpt lat="45.43449149335577" lon="8.627243679023959"><ele>151.5</ele><time>2026-04-07T06:20:36.999Z</time></trkpt><trkpt lat="45.43435219053269" lon="8.627212953643175"><ele>151.33333333333334</ele><time>2026-04-07T06:20:38.999Z</time></trkpt><trkpt lat="45.43426152546642" lon="8.627194669046467"><ele>151.16666666666669</ele><time>2026-04-07T06:20:39.999Z</time></trkpt><trkpt lat="45.434176834008895" lon="8.627178688030911"><ele>151.0</ele><time>2026-04-07T06:20:40.999Z</time></trkpt><trkpt lat="45.43408361176839" lon="8.627164751078185"><ele>151.0</ele><time>2026-04-07T06:20:41.999Z</time></trkpt><trkpt lat="45.433983302181545" lon="8.627149614464068"><ele>151.0</ele><time>2026-04-07T06:20:42.999Z</time></trkpt><trkpt lat="45.43388055486773" lon="8.627133545342215"><ele>151.0</ele><time>2026-04-07T06:20:43.999Z</time></trkpt><trkpt lat="45.433808024018845" lon="8.627106002546983"><ele>151.0</ele><time>2026-04-07T06:20:44.999Z</time></trkpt><trkpt lat="45.43370867963932" lon="8.627045183071711"><ele>151.0</ele><time>2026-04-07T06:20:46.999Z</time></trkpt><trkpt lat="45.43362551180998" lon="8.6270224822974"><ele>151.0</ele><time>2026-04-07T06:20:48.999Z</time></trkpt><trkpt lat="45.43353192138949" lon="8.627058120152236"><ele>151.0</ele><time>2026-04-07T06:20:50.999Z</time></trkpt><trkpt lat="45.43348301168863" lon="8.62722593008293"><ele>151.0</ele><time>2026-04-07T06:20:51.999Z</time></trkpt><trkpt lat="45.43344353399661" lon="8.627364071844497"><ele>151.0</ele><time>2026-04-07T06:20:53.999Z</time></trkpt><trkpt lat="45.43344030463336" lon="8.627471415240498"><ele>151.0</ele><time>2026-04-07T06:20:54.999Z</time></trkpt><trkpt lat="45.43342761426899" lon="8.627591807176067"><ele>151.0</ele><time>2026-04-07T06:20:55.999Z</time></trkpt><trkpt lat="45.4334020747648" lon="8.627705716342675"><ele>151.0</ele><time>2026-04-07T06:20:56.999Z</time></trkpt><trkpt lat="45.43340045693156" lon="8.627849445467284"><ele>151.0</ele><time>2026-04-07T06:20:57.999Z</time></trkpt><trkpt lat="45.433370932253304" lon="8.628021533034635"><ele>151.0</ele><time>2026-04-07T06:20:58.999Z</time></trkpt><trkpt lat="45.43335291768128" lon="8.628209675956711"><ele>151.0</ele><time>2026-04-07T06:20:59.999Z</time></trkpt><trkpt lat="45.43333549392688" lon="8.628372581164557"><ele>150.5</ele><time>2026-04-07T06:21:00.999Z</time></trkpt><trkpt lat="45.433317486265196" lon="8.628585874534203"><ele>150.0</ele><time>2026-04-07T06:21:01.999Z</time></trkpt><trkpt lat="45.433302830698146" lon="8.628752403961528"><ele>149.5</ele><time>2026-04-07T06:21:02.999Z</time></trkpt><trkpt lat="45.43329050891227" lon="8.628896748377702"><ele>149.0</ele><time>2026-04-07T06:21:03.999Z</time></trkpt><trkpt lat="45.43327540644311" lon="8.629027162671942"><ele>149.0</ele><time>2026-04-07T06:21:04.999Z</time></trkpt><trkpt lat="45.43326192405778" lon="8.629149901770443"><ele>149.0</ele><time>2026-04-07T06:21:05.999Z</time></trkpt><trkpt lat="45.4332484285704" lon="8.629271088208103"><ele>149.0</ele><time>2026-04-07T06:21:06.999Z</time></trkpt><trkpt lat="45.43323930214414" lon="8.629367953948416"><ele>149.0</ele><time>2026-04-07T06:21:07.999Z</time></trkpt><trkpt lat="45.43322022955984" lon="8.629537775227673"><ele>149.0</ele><time>2026-04-07T06:21:09.999Z</time></trkpt><trkpt lat="45.43320892049332" lon="8.629637658052298"><ele>149.0</ele><time>2026-04-07T06:21:10.999Z</time></trkpt><trkpt lat="45.43319853483195" lon="8.629751096816308"><ele>149.2</ele><time>2026-04-07T06:21:11.999Z</time></trkpt><trkpt lat="45.4331914371601" lon="8.629872321757814"><ele>149.4</ele><time>2026-04-07T06:21:12.999Z</time></trkpt><trkpt lat="45.43318170208087" lon="8.630006850345156"><ele>149.6</ele><time>2026-04-07T06:21:13.999Z</time></trkpt><trkpt lat="45.43316995983399" lon="8.630142842751455"><ele>149.8</ele><time>2026-04-07T06:21:14.999Z</time></trkpt><trkpt lat="45.43314970184435" lon="8.630283843793466"><ele>150.0</ele><time>2026-04-07T06:21:15.999Z</time></trkpt><trkpt lat="45.433127402253916" lon="8.630428518752737"><ele>150.0</ele><time>2026-04-07T06:21:16.999Z</time></trkpt><trkpt lat="45.43310265193732" lon="8.630578738174902"><ele>150.0</ele><time>2026-04-07T06:21:17.999Z</time></trkpt><trkpt lat="45.43308252756115" lon="8.630723586643798"><ele>150.0</ele><time>2026-04-07T06:21:18.999Z</time></trkpt><trkpt lat="45.43306852321118" lon="8.630867106883827"><ele>150.0</ele><time>2026-04-07T06:21:19.999Z</time></trkpt><trkpt lat="45.43307229312143" lon="8.631001977755348"><ele>150.0</ele><time>2026-04-07T06:21:20.999Z</time></trkpt><trkpt lat="45.4330689062151" lon="8.631140341525983"><ele>149.83333333333334</ele><time>2026-04-07T06:21:21.999Z</time></trkpt><trkpt lat="45.43306997780828" lon="8.631277461535893"><ele>149.66666666666666</ele><time>2026-04-07T06:21:22.999Z</time></trkpt><trkpt lat="45.43307562771727" lon="8.63141346016869"><ele>149.5</ele><time>2026-04-07T06:21:23.999Z</time></trkpt><trkpt lat="45.433080377811045" lon="8.631547652894561"><ele>149.33333333333331</ele><time>2026-04-07T06:21:24.999Z</time></trkpt><trkpt lat="45.433084801647254" lon="8.631670262475962"><ele>149.16666666666666</ele><time>2026-04-07T06:21:25.999Z</time></trkpt><trkpt lat="45.43308590247091" lon="8.631770746005694"><ele>149.0</ele><time>2026-04-07T06:21:26.999Z</time></trkpt><trkpt lat="45.43307903040923" lon="8.631931032129467"><ele>149.33333333333331</ele><time>2026-04-07T06:21:28.999Z</time></trkpt><trkpt lat="45.43306453044674" lon="8.632028521409104"><ele>149.66666666666666</ele><time>2026-04-07T06:21:30.999Z</time></trkpt><trkpt lat="45.43298322765644" lon="8.632060798033468"><ele>150.0</ele><time>2026-04-07T06:21:34.999Z</time></trkpt><trkpt lat="45.43291280945125" lon="8.632058966967806"><ele>150.33333333333334</ele><time>2026-04-07T06:21:37.999Z</time></trkpt><trkpt lat="45.43281932624548" lon="8.632056536142828"><ele>150.66666666666669</ele><time>2026-04-07T06:21:43.998Z</time></trkpt><trkpt lat="45.43270520071349" lon="8.632053568573395"><ele>151.0</ele><time>2026-04-07T06:22:13Z</time></trkpt><trkpt lat="45.43261859028697" lon="8.632019016537857"><ele>151.14285714285717</ele><time>2026-04-07T06:23:49.998Z</time></trkpt><trkpt lat="45.43255022764562" lon="8.632024095561915"><ele>151.28571428571428</ele><time>2026-04-07T06:24:38Z</time></trkpt><trkpt lat="45.43261572508196" lon="8.632000497261917"><ele>151.42857142857144</ele><time>2026-04-07T06:25:34.999Z</time></trkpt><trkpt lat="45.43269244143019" lon="8.631997565297427"><ele>151.57142857142858</ele><time>2026-04-07T06:25:55.998Z</time></trkpt><trkpt lat="45.432758165633324" lon="8.631995063055061"><ele>151.71428571428572</ele><time>2026-04-07T06:26:15Z</time></trkpt><trkpt lat="45.43282602794314" lon="8.632000952359235"><ele>151.85714285714286</ele><time>2026-04-07T06:26:28Z</time></trkpt><trkpt lat="45.43288908576691" lon="8.632008005666975"><ele>152.0</ele><time>2026-04-07T06:26:39Z</time></trkpt><trkpt lat="45.432957363586155" lon="8.632010847103942"><ele>151.85714285714286</ele><time>2026-04-07T06:27:53.999Z</time></trkpt><trkpt lat="45.43303401998096" lon="8.632045286192051"><ele>151.71428571428572</ele><time>2026-04-07T06:28:05.998Z</time></trkpt><trkpt lat="45.43310130416895" lon="8.632055354085375"><ele>151.57142857142858</ele><time>2026-04-07T06:28:12Z</time></trkpt><trkpt lat="45.433163674323666" lon="8.632069172389459"><ele>151.42857142857144</ele><time>2026-04-07T06:28:17Z</time></trkpt><trkpt lat="45.43322032534425" lon="8.63212975899979"><ele>151.28571428571428</ele><time>2026-04-07T06:28:25Z</time></trkpt><trkpt lat="45.43328987387428" lon="8.632138892432277"><ele>151.14285714285717</ele><time>2026-04-07T06:28:35Z</time></trkpt><trkpt lat="45.43335680341293" lon="8.632124595563228"><ele>151.0</ele><time>2026-04-07T06:28:42Z</time></trkpt><trkpt lat="45.433426290306336" lon="8.632126433056794"><ele>151.00000000000003</ele><time>2026-04-07T06:28:48Z</time></trkpt><trkpt lat="45.43348362148618" lon="8.632164001476736"><ele>151.0</ele><time>2026-04-07T06:28:56Z</time></trkpt><trkpt lat="45.433548196647905" lon="8.632141443067761"><ele>151.0</ele><time>2026-04-07T06:29:03.999Z</time></trkpt><trkpt lat="45.43361603919969" lon="8.632141587338012"><ele>151.0</ele><time>2026-04-07T06:29:09.999Z</time></trkpt><trkpt lat="45.433676160386085" lon="8.632191269602531"><ele>151.0</ele><time>2026-04-07T06:29:41.999Z</time></trkpt><trkpt lat="45.4337361990621" lon="8.632150853317551"><ele>151.00000000000003</ele><time>2026-04-07T06:30:33Z</time></trkpt><trkpt lat="45.4338018229669" lon="8.63210248795539"><ele>151.0</ele><time>2026-04-07T06:30:38Z</time></trkpt><trkpt lat="45.433735056885816" lon="8.63206572827377"><ele>151.00000000000003</ele><time>2026-04-07T06:30:55Z</time></trkpt><trkpt lat="45.43367278269269" lon="8.632081406488522"><ele>151.0</ele><time>2026-04-07T06:31:00Z</time></trkpt><trkpt lat="45.433609894236376" lon="8.632050710012212"><ele>151.0</ele><time>2026-04-07T06:31:04.999Z</time></trkpt><trkpt lat="45.43353799266713" lon="8.632032630344694"><ele>151.0</ele><time>2026-04-07T06:31:10.999Z</time></trkpt><trkpt lat="45.43346615898017" lon="8.632041325391615"><ele>151.0</ele><time>2026-04-07T06:31:16.999Z</time></trkpt><trkpt lat="45.43340057147593" lon="8.632057608376458"><ele>151.00000000000003</ele><time>2026-04-07T06:31:20.999Z</time></trkpt><trkpt lat="45.4333272469261" lon="8.632061339950358"><ele>151.0</ele><time>2026-04-07T06:31:25.999Z</time></trkpt><trkpt lat="45.43325311288079" lon="8.632062080499969"><ele>151.00000000000003</ele><time>2026-04-07T06:31:31.999Z</time></trkpt><trkpt lat="45.43318893257058" lon="8.632076094737991"><ele>151.0</ele><time>2026-04-07T06:31:36.999Z</time></trkpt><trkpt lat="45.43311687292676" lon="8.632052475196467"><ele>151.0</ele><time>2026-04-07T06:31:41.999Z</time></trkpt><trkpt lat="45.43304755203499" lon="8.632039023790043"><ele>151.0</ele><time>2026-04-07T06:31:47.999Z</time></trkpt><trkpt lat="45.43297239698653" lon="8.632042253104832"><ele>151.0</ele><time>2026-04-07T06:31:53.999Z</time></trkpt><trkpt lat="45.432902177439736" lon="8.632047709466072"><ele>151.00000000000003</ele><time>2026-04-07T06:31:58.999Z</time></trkpt><trkpt lat="45.432832721150255" lon="8.632052612393464"><ele>151.0</ele><time>2026-04-07T06:32:03.999Z</time></trkpt><trkpt lat="45.43276751564919" lon="8.6320338341734"><ele>151.16666666666669</ele><time>2026-04-07T06:32:08.998Z</time></trkpt><trkpt lat="45.4327042627833" lon="8.6320657092959"><ele>151.33333333333334</ele><time>2026-04-07T06:32:14.998Z</time></trkpt><trkpt lat="45.4326382782985" lon="8.632051554272707"><ele>151.5</ele><time>2026-04-07T06:32:34Z</time></trkpt><trkpt lat="45.43255692472644" lon="8.632062263221215"><ele>151.66666666666666</ele><time>2026-04-07T06:32:36Z</time></trkpt><trkpt lat="45.43244443066726" lon="8.63209233709052"><ele>151.83333333333331</ele><time>2026-04-07T06:32:38Z</time></trkpt><trkpt lat="45.43237781948523" lon="8.632143549801606"><ele>152.0</ele><time>2026-04-07T06:32:39Z</time></trkpt><trkpt lat="45.43226703419037" lon="8.632215946412666"><ele>152.0</ele><time>2026-04-07T06:32:41Z</time></trkpt><trkpt lat="45.43216073950433" lon="8.632294971110495"><ele>152.0</ele><time>2026-04-07T06:32:43Z</time></trkpt><trkpt lat="45.43209878246823" lon="8.632345338396561"><ele>152.0</ele><time>2026-04-07T06:32:44Z</time></trkpt><trkpt lat="45.43203539878393" lon="8.632402675595698"><ele>152.0</ele><time>2026-04-07T06:32:45Z</time></trkpt><trkpt lat="45.43196576840229" lon="8.632442568280698"><ele>152.0</ele><time>2026-04-07T06:32:46Z</time></trkpt><trkpt lat="45.43190239322921" lon="8.632486854724807"><ele>152.0</ele><time>2026-04-07T06:32:47Z</time></trkpt><trkpt lat="45.43182823764152" lon="8.632527252739106"><ele>151.83333333333331</ele><time>2026-04-07T06:32:48Z</time></trkpt><trkpt lat="45.43175805921368" lon="8.632582826867987"><ele>151.66666666666666</ele><time>2026-04-07T06:32:49Z</time></trkpt><trkpt lat="45.431683836945666" lon="8.632645129225546"><ele>151.5</ele><time>2026-04-07T06:32:50Z</time></trkpt><trkpt lat="45.43161403009791" lon="8.632719021856401"><ele>151.33333333333334</ele><time>2026-04-07T06:32:51Z</time></trkpt><trkpt lat="45.43154531929978" lon="8.632787917746528"><ele>151.16666666666669</ele><time>2026-04-07T06:32:52Z</time></trkpt><trkpt lat="45.431480057731875" lon="8.632823479490858"><ele>151.0</ele><time>2026-04-07T06:32:53Z</time></trkpt><trkpt lat="45.431420788989946" lon="8.632888435124594"><ele>151.0</ele><time>2026-04-07T06:32:54Z</time></trkpt><trkpt lat="45.43135836937161" lon="8.632934576730378"><ele>151.0</ele><time>2026-04-07T06:32:55Z</time></trkpt><trkpt lat="45.431300621373865" lon="8.632981823051663"><ele>151.0</ele><time>2026-04-07T06:32:56Z</time></trkpt><trkpt lat="45.43123095378759" lon="8.63309523929718"><ele>151.0</ele><time>2026-04-07T06:32:58Z</time></trkpt><trkpt lat="45.43116711147257" lon="8.633183103583079"><ele>151.0</ele><time>2026-04-07T06:33:00Z</time></trkpt><trkpt lat="45.43115123184232" lon="8.633277388380174"><ele>151.0</ele><time>2026-04-07T06:33:02Z</time></trkpt><trkpt lat="45.43119231409554" lon="8.633198233088589"><ele>151.0</ele><time>2026-04-07T06:33:07Z</time></trkpt><trkpt lat="45.43125926182315" lon="8.633083858866152"><ele>151.0</ele><time>2026-04-07T06:33:09.999Z</time></trkpt><trkpt lat="45.43134405740114" lon="8.63294584109616"><ele>151.0</ele><time>2026-04-07T06:33:11.999Z</time></trkpt><trkpt lat="45.43144305866376" lon="8.632935227223765"><ele>151.0</ele><time>2026-04-07T06:33:12.999Z</time></trkpt><trkpt lat="45.4315129102373" lon="8.632876171615774"><ele>151.0</ele><time>2026-04-07T06:33:13.999Z</time></trkpt><trkpt lat="45.431588425709194" lon="8.632794011762682"><ele>150.8</ele><time>2026-04-07T06:33:14.999Z</time></trkpt><trkpt lat="45.43166060497369" lon="8.632728550030828"><ele>150.6</ele><time>2026-04-07T06:33:15.999Z</time></trkpt><trkpt lat="45.43173874257915" lon="8.632663524694161"><ele>150.4</ele><time>2026-04-07T06:33:16.999Z</time></trkpt><trkpt lat="45.431835852655496" lon="8.632602122710194"><ele>150.2</ele><time>2026-04-07T06:33:17.999Z</time></trkpt><trkpt lat="45.43193037687979" lon="8.63252858581747"><ele>150.0</ele><time>2026-04-07T06:33:18.999Z</time></trkpt><trkpt lat="45.43201905083703" lon="8.632457382786814"><ele>150.0</ele><time>2026-04-07T06:33:19.999Z</time></trkpt><trkpt lat="45.432104385184616" lon="8.632387648987024"><ele>150.0</ele><time>2026-04-07T06:33:20.999Z</time></trkpt><trkpt lat="45.43218725940194" lon="8.63232161648913"><ele>150.0</ele><time>2026-04-07T06:33:21.999Z</time></trkpt><trkpt lat="45.43227102108715" lon="8.6322585004021"><ele>150.0</ele><time>2026-04-07T06:33:22.999Z</time></trkpt><trkpt lat="45.43235498015237" lon="8.632200441493504"><ele>150.0</ele><time>2026-04-07T06:33:23.999Z</time></trkpt><trkpt lat="45.43243981692324" lon="8.632153082526058"><ele>150.16666666666666</ele><time>2026-04-07T06:33:24.999Z</time></trkpt><trkpt lat="45.4325279700023" lon="8.632122158165911"><ele>150.33333333333334</ele><time>2026-04-07T06:33:25.999Z</time></trkpt><trkpt lat="45.43261954517246" lon="8.632111812615355"><ele>150.5</ele><time>2026-04-07T06:33:26.999Z</time></trkpt><trkpt lat="45.4327088271735" lon="8.632108649964454"><ele>150.66666666666669</ele><time>2026-04-07T06:33:27.999Z</time></trkpt><trkpt lat="45.43278905668525" lon="8.63209865178498"><ele>150.83333333333334</ele><time>2026-04-07T06:33:28.999Z</time></trkpt><trkpt lat="45.432863008180576" lon="8.632090525403582"><ele>151.0</ele><time>2026-04-07T06:33:29.999Z</time></trkpt><trkpt lat="45.43298941668774" lon="8.632116938626345"><ele>151.0</ele><time>2026-04-07T06:33:31.999Z</time></trkpt><trkpt lat="45.43305683894576" lon="8.63210515255965"><ele>151.0</ele><time>2026-04-07T06:33:32.999Z</time></trkpt><trkpt lat="45.43313602234516" lon="8.632033904617524"><ele>151.0</ele><time>2026-04-07T06:33:34.999Z</time></trkpt><trkpt lat="45.43318460197717" lon="8.631892835478272"><ele>151.0</ele><time>2026-04-07T06:33:36.999Z</time></trkpt><trkpt lat="45.4331983096096" lon="8.631805276824366"><ele>151.0</ele><time>2026-04-07T06:33:37.999Z</time></trkpt><trkpt lat="45.43321339945435" lon="8.631704375632824"><ele>151.0</ele><time>2026-04-07T06:33:38.999Z</time></trkpt><trkpt lat="45.433208789987205" lon="8.631541435202184"><ele>150.83333333333334</ele><time>2026-04-07T06:33:40.999Z</time></trkpt><trkpt lat="45.43317601526613" lon="8.63145508833438"><ele>150.66666666666669</ele><time>2026-04-07T06:33:41.999Z</time></trkpt><trkpt lat="45.43317230837799" lon="8.63133262247079"><ele>150.5</ele><time>2026-04-07T06:33:43.999Z</time></trkpt><trkpt lat="45.433211370065685" lon="8.63122835294951"><ele>150.33333333333334</ele><time>2026-04-07T06:33:45.999Z</time></trkpt><trkpt lat="45.433249152616064" lon="8.63111270120981"><ele>150.16666666666666</ele><time>2026-04-07T06:33:46.999Z</time></trkpt><trkpt lat="45.433351567038756" lon="8.63111493601911"><ele>150.0</ele><time>2026-04-07T06:33:48.999Z</time></trkpt><trkpt lat="45.43341530049134" lon="8.631110447818966"><ele>150.0</ele><time>2026-04-07T06:33:49.999Z</time></trkpt><trkpt lat="45.43353161055007" lon="8.63111808218419"><ele>150.0</ele><time>2026-04-07T06:33:51.999Z</time></trkpt><trkpt lat="45.43363237370364" lon="8.631133947751325"><ele>150.0</ele><time>2026-04-07T06:33:53.999Z</time></trkpt><trkpt lat="45.43371787418194" lon="8.631090614763375"><ele>150.0</ele><time>2026-04-07T06:33:55.999Z</time></trkpt><trkpt lat="45.433820816215345" lon="8.630954535373602"><ele>150.0</ele><time>2026-04-07T06:33:57.999Z</time></trkpt><trkpt lat="45.43381714949078" lon="8.630835304044965"><ele>150.33333333333334</ele><time>2026-04-07T06:33:58.999Z</time></trkpt><trkpt lat="45.433837285081474" lon="8.630707858754318"><ele>150.66666666666666</ele><time>2026-04-07T06:33:59.999Z</time></trkpt><trkpt lat="45.433856825042554" lon="8.630591163002732"><ele>151.0</ele><time>2026-04-07T06:34:00.999Z</time></trkpt><trkpt lat="45.433868113880436" lon="8.6304770766629"><ele>151.33333333333331</ele><time>2026-04-07T06:34:01.999Z</time></trkpt><trkpt lat="45.433870127299095" lon="8.630368214558898"><ele>151.66666666666666</ele><time>2026-04-07T06:34:02.999Z</time></trkpt><trkpt lat="45.43387956724336" lon="8.630264141093136"><ele>152.0</ele><time>2026-04-07T06:34:03.999Z</time></trkpt><trkpt lat="45.433892965100334" lon="8.63017612005872"><ele>152.16666666666666</ele><time>2026-04-07T06:34:04.999Z</time></trkpt><trkpt lat="45.43390198406967" lon="8.630042963974535"><ele>152.33333333333331</ele><time>2026-04-07T06:34:06.999Z</time></trkpt><trkpt lat="45.433913026216175" lon="8.629928733970594"><ele>152.5</ele><time>2026-04-07T06:34:09.999Z</time></trkpt><trkpt lat="45.43392702637738" lon="8.629821308521715"><ele>152.66666666666666</ele><time>2026-04-07T06:34:18.998Z</time></trkpt><trkpt lat="45.43393349717608" lon="8.62970237609049"><ele>152.83333333333334</ele><time>2026-04-07T06:34:22.998Z</time></trkpt><trkpt lat="45.433944682455056" lon="8.629547553281666"><ele>153.0</ele><time>2026-04-07T06:34:24.998Z</time></trkpt><trkpt lat="45.433960408844236" lon="8.62935199127766"><ele>152.66666666666666</ele><time>2026-04-07T06:34:26.998Z</time></trkpt><trkpt lat="45.43396410961197" lon="8.629236418311837"><ele>152.33333333333334</ele><time>2026-04-07T06:34:27.998Z</time></trkpt><trkpt lat="45.43396791123291" lon="8.62910579221714"><ele>152.0</ele><time>2026-04-07T06:34:28.998Z</time></trkpt><trkpt lat="45.43399164463367" lon="8.628980705021679"><ele>151.66666666666669</ele><time>2026-04-07T06:34:30Z</time></trkpt><trkpt lat="45.43400135941566" lon="8.628850838546448"><ele>151.33333333333334</ele><time>2026-04-07T06:34:31Z</time></trkpt><trkpt lat="45.43401244220217" lon="8.62872340886459"><ele>151.0</ele><time>2026-04-07T06:34:32Z</time></trkpt><trkpt lat="45.43402624119916" lon="8.628600123553984"><ele>151.0</ele><time>2026-04-07T06:34:33Z</time></trkpt><trkpt lat="45.43403794781212" lon="8.628479688787333"><ele>151.0</ele><time>2026-04-07T06:34:34Z</time></trkpt><trkpt lat="45.43405467240591" lon="8.628356192540938"><ele>151.0</ele><time>2026-04-07T06:34:35Z</time></trkpt><trkpt lat="45.434067770302846" lon="8.628235810183892"><ele>151.0</ele><time>2026-04-07T06:34:36Z</time></trkpt><trkpt lat="45.43408107529416" lon="8.628119482559017"><ele>151.0</ele><time>2026-04-07T06:34:37Z</time></trkpt><trkpt lat="45.43409659692082" lon="8.627999211473757"><ele>151.0</ele><time>2026-04-07T06:34:38Z</time></trkpt><trkpt lat="45.43411793031999" lon="8.627876267062193"><ele>151.0</ele><time>2026-04-07T06:34:39Z</time></trkpt><trkpt lat="45.434118002834126" lon="8.627757938995183"><ele>151.0</ele><time>2026-04-07T06:34:40Z</time></trkpt><trkpt lat="45.434130143629304" lon="8.62764711011156"><ele>151.0</ele><time>2026-04-07T06:34:41Z</time></trkpt><trkpt lat="45.434147718788054" lon="8.627551155600495"><ele>151.0</ele><time>2026-04-07T06:34:42Z</time></trkpt><trkpt lat="45.434162965359775" lon="8.627395613524929"><ele>151.0</ele><time>2026-04-07T06:34:44Z</time></trkpt><trkpt lat="45.43417025822939" lon="8.62729645300332"><ele>151.0</ele><time>2026-04-07T06:34:48Z</time></trkpt><trkpt lat="45.43417708278695" lon="8.62719260881224"><ele>151.0</ele><time>2026-04-07T06:34:52Z</time></trkpt><trkpt lat="45.43426112104497" lon="8.627244051166393"><ele>151.0</ele><time>2026-04-07T06:34:54Z</time></trkpt><trkpt lat="45.43433748314714" lon="8.627259765084611"><ele>151.0</ele><time>2026-04-07T06:34:59Z</time></trkpt><trkpt lat="45.434400331103085" lon="8.627272698034274"><ele>151.0</ele><time>2026-04-07T06:35:02Z</time></trkpt><trkpt lat="45.434480531863244" lon="8.627267310468932"><ele>151.0</ele><time>2026-04-07T06:35:18.999Z</time></trkpt><trkpt lat="45.4345622071816" lon="8.627295977075645"><ele>151.0</ele><time>2026-04-07T06:35:22.999Z</time></trkpt><trkpt lat="45.434627117597884" lon="8.627300298251498"><ele>151.16666666666669</ele><time>2026-04-07T06:35:25.999Z</time></trkpt><trkpt lat="45.434684198701476" lon="8.627344510820617"><ele>151.33333333333334</ele><time>2026-04-07T06:36:14.999Z</time></trkpt><trkpt lat="45.43478752811739" lon="8.627377870335234"><ele>151.5</ele><time>2026-04-07T06:36:16.999Z</time></trkpt><trkpt lat="45.434859177233385" lon="8.627403032934833"><ele>151.66666666666666</ele><time>2026-04-07T06:36:17.999Z</time></trkpt><trkpt lat="45.434942043817706" lon="8.627407804387072"><ele>151.83333333333331</ele><time>2026-04-07T06:36:18.999Z</time></trkpt><trkpt lat="45.43502991370576" lon="8.627427409156027"><ele>152.0</ele><time>2026-04-07T06:36:19.998Z</time></trkpt><trkpt lat="45.43511799035644" lon="8.627447060059055"><ele>152.0</ele><time>2026-04-07T06:36:20.998Z</time></trkpt><trkpt lat="45.43520122943927" lon="8.627465631646105"><ele>152.0</ele><time>2026-04-07T06:36:21.998Z</time></trkpt><trkpt lat="45.43527336901011" lon="8.62748614496148"><ele>152.0</ele><time>2026-04-07T06:36:22.998Z</time></trkpt><trkpt lat="45.43534454074192" lon="8.627515556987165"><ele>152.0</ele><time>2026-04-07T06:36:23.998Z</time></trkpt><trkpt lat="45.435412246974316" lon="8.6275227628155"><ele>152.0</ele><time>2026-04-07T06:36:24.998Z</time></trkpt><trkpt lat="45.43551200388983" lon="8.62755788346493"><ele>152.0</ele><time>2026-04-07T06:36:26.998Z</time></trkpt><trkpt lat="45.43558227753893" lon="8.627529114659865"><ele>152.5</ele><time>2026-04-07T06:36:29.998Z</time></trkpt><trkpt lat="45.435753194767955" lon="8.627368655832228"><ele>153.0</ele><time>2026-04-07T06:36:32.998Z</time></trkpt><trkpt lat="45.43576833019343" lon="8.62722155287684"><ele>153.5</ele><time>2026-04-07T06:36:34.998Z</time></trkpt><trkpt lat="45.43578277624896" lon="8.627081149971941"><ele>154.0</ele><time>2026-04-07T06:36:37Z</time></trkpt><trkpt lat="45.43579972042854" lon="8.62697540653472"><ele>154.16666666666669</ele><time>2026-04-07T06:36:38Z</time></trkpt><trkpt lat="45.43581491232779" lon="8.626826648557278"><ele>154.33333333333334</ele><time>2026-04-07T06:36:40Z</time></trkpt><trkpt lat="45.43582131294603" lon="8.626714418082098"><ele>154.5</ele><time>2026-04-07T06:36:42Z</time></trkpt><trkpt lat="45.43583272193117" lon="8.626625414690494"><ele>154.66666666666666</ele><time>2026-04-07T06:36:45Z</time></trkpt><trkpt lat="45.43584099166807" lon="8.62672488638658"><ele>154.83333333333331</ele><time>2026-04-07T06:37:44.999Z</time></trkpt><trkpt lat="45.435824792826416" lon="8.626634940796873"><ele>155.0</ele><time>2026-04-07T06:37:47.999Z</time></trkpt><trkpt lat="45.43574657009656" lon="8.626629080593428"><ele>155.0</ele><time>2026-04-07T06:37:51.999Z</time></trkpt><trkpt lat="45.4356793953464" lon="8.626623602358983"><ele>155.0</ele><time>2026-04-07T06:37:54.999Z</time></trkpt><trkpt lat="45.435877268379855" lon="8.62663689269488"><ele>155.0</ele><time>2026-04-07T06:48:28.999Z</time></trkpt></trkseg><trkseg><trkpt lat="45.439475893480754" lon="8.627280541977262"><ele>153.4</ele><time>2026-04-16T15:29:44.999Z</time></trkpt></trkseg></trk></gpx>